<?xml version="1.0" encoding="UTF-8"?><gpx xmlns="http://www.topografix.com/GPX/1/1"  creator="TraceDeTrail http://www.tracedetrail.fr" version="1.1" xmlns:xsi="http://www.w3.org/2001/XMLSchema-instance" xsi:schemaLocation="http://www.topografix.com/GPX/1/1 http://www.topografix.com/GPX/1/1/gpx.xsd "><metadata><name>111milhascorrigido2023</name><link href="http://tracedetrail.fr/fr/trace/trace/207399"><text>methode de calcul : astergdem </text></link></metadata><trk><name>111milhascorrigido2023 sur TraceDeTrail.fr</name><trkseg><trkpt lat="40.11369" lon="-8.49851"><ele>91</ele><time>2000-01-01T00:37:23.000Z</time></trkpt><trkpt lat="40.11367" lon="-8.49856"><time>2000-01-01T00:37:33.000Z</time></trkpt><trkpt lat="40.11357" lon="-8.49857"><time>2000-01-01T00:37:43.000Z</time></trkpt><trkpt lat="40.11336" lon="-8.49867"><ele>83</ele><time>2010-01-01T02:32:56.000Z</time></trkpt><trkpt lat="40.11328" lon="-8.49868"><time>2010-01-01T02:33:06.000Z</time></trkpt><trkpt lat="40.11311" lon="-8.49866"><ele>81</ele><time>2010-01-01T02:32:46.000Z</time></trkpt><trkpt lat="40.11302" lon="-8.49868"><time>2010-01-01T02:32:56.000Z</time></trkpt><trkpt lat="40.11297" lon="-8.49871"><time>2010-01-01T02:33:06.000Z</time></trkpt><trkpt lat="40.1129" lon="-8.49879"><ele>81</ele><time>2010-01-01T02:32:37.000Z</time></trkpt><trkpt lat="40.11264" lon="-8.4988"><ele>81</ele><time>2010-01-01T02:32:47.000Z</time></trkpt><trkpt lat="40.1126" lon="-8.49886"><time>2010-01-01T02:32:57.000Z</time></trkpt><trkpt lat="40.11258" lon="-8.49893"><time>2010-01-01T02:33:07.000Z</time></trkpt><trkpt lat="40.11254" lon="-8.499"><time>2010-01-01T02:33:17.000Z</time></trkpt><trkpt lat="40.11249" lon="-8.49903"><ele>82</ele><time>2010-01-01T02:33:27.000Z</time></trkpt><trkpt lat="40.11243" lon="-8.49901"><time>2010-01-01T02:33:37.000Z</time></trkpt><trkpt lat="40.11233" lon="-8.499"><time>2010-01-01T02:33:47.000Z</time></trkpt><trkpt lat="40.11207" lon="-8.49892"><ele>84</ele><time>2010-01-01T02:32:00.000Z</time></trkpt><trkpt lat="40.11192" lon="-8.49883"><time>2010-01-01T02:32:10.000Z</time></trkpt><trkpt lat="40.11184" lon="-8.49882"><ele>82</ele><time>2010-01-01T02:32:20.000Z</time></trkpt><trkpt lat="40.1118" lon="-8.4988"><time>2010-01-01T02:32:30.000Z</time></trkpt><trkpt lat="40.11176" lon="-8.49884"><time>2010-01-01T02:32:40.000Z</time></trkpt><trkpt lat="40.11148" lon="-8.49894"><ele>81</ele><time>2010-01-01T02:32:50.000Z</time></trkpt><trkpt lat="40.11142" lon="-8.49893"><time>2010-01-01T02:33:00.000Z</time></trkpt><trkpt lat="40.11089" lon="-8.49871"><ele>80</ele><time>2010-01-01T02:31:10.000Z</time></trkpt><trkpt lat="40.11069" lon="-8.49852"><ele>80</ele><time>2010-01-01T02:31:20.000Z</time></trkpt><trkpt lat="40.11056" lon="-8.49843"><time>2010-01-01T02:31:30.000Z</time></trkpt><trkpt lat="40.11027" lon="-8.49835"><ele>89</ele><time>2010-01-01T02:30:42.000Z</time></trkpt><trkpt lat="40.11006" lon="-8.49834"><ele>87</ele><time>2010-01-01T02:30:34.000Z</time></trkpt><trkpt lat="40.10968" lon="-8.49838"><ele>86</ele><time>2010-01-01T02:30:44.000Z</time></trkpt><trkpt lat="40.10958" lon="-8.49842"><time>2010-01-01T02:30:54.000Z</time></trkpt><trkpt lat="40.10931" lon="-8.49859"><ele>85</ele><time>2010-01-01T02:31:04.000Z</time></trkpt><trkpt lat="40.10904" lon="-8.49879"><ele>85</ele><time>2010-01-01T02:31:14.000Z</time></trkpt><trkpt lat="40.10862" lon="-8.49911"><ele>92</ele><time>2010-01-01T02:31:24.000Z</time></trkpt><trkpt lat="40.10856" lon="-8.49913"><time>2010-01-01T02:31:34.000Z</time></trkpt><trkpt lat="40.1085" lon="-8.49915"><time>2010-01-01T02:31:44.000Z</time></trkpt><trkpt lat="40.10844" lon="-8.49914"><time>2010-01-01T02:31:54.000Z</time></trkpt><trkpt lat="40.10839" lon="-8.49912"><ele>94</ele><time>2010-01-01T02:32:04.000Z</time></trkpt><trkpt lat="40.10823" lon="-8.49901"><time>2010-01-01T02:32:14.000Z</time></trkpt><trkpt lat="40.10806" lon="-8.49891"><ele>94</ele><time>2010-01-01T02:32:24.000Z</time></trkpt><trkpt lat="40.108" lon="-8.49889"><time>2010-01-01T02:32:34.000Z</time></trkpt><trkpt lat="40.1079" lon="-8.49887"><time>2010-01-01T02:32:44.000Z</time></trkpt><trkpt lat="40.10784" lon="-8.49884"><ele>94</ele><time>2010-01-01T02:32:54.000Z</time></trkpt><trkpt lat="40.10776" lon="-8.49874"><time>2010-01-01T02:33:04.000Z</time></trkpt><trkpt lat="40.10769" lon="-8.49862"><ele>94</ele><time>2010-01-01T02:33:14.000Z</time></trkpt><trkpt lat="40.10762" lon="-8.49842"><time>2010-01-01T02:33:24.000Z</time></trkpt><trkpt lat="40.10754" lon="-8.49825"><ele>94</ele><time>2010-01-01T02:33:34.000Z</time></trkpt><trkpt lat="40.1075" lon="-8.49818"><time>2010-01-01T02:33:44.000Z</time></trkpt><trkpt lat="40.10745" lon="-8.49814"><time>2010-01-01T02:33:54.000Z</time></trkpt><trkpt lat="40.10739" lon="-8.49812"><time>2010-01-01T02:34:04.000Z</time></trkpt><trkpt lat="40.10727" lon="-8.49811"><ele>92</ele><time>2010-01-01T02:34:14.000Z</time></trkpt><trkpt lat="40.1072" lon="-8.49809"><time>2010-01-01T02:34:24.000Z</time></trkpt><trkpt lat="40.10701" lon="-8.49803"><ele>91</ele><time>2010-01-01T02:34:34.000Z</time></trkpt><trkpt lat="40.10696" lon="-8.49802"><time>2010-01-01T02:34:44.000Z</time></trkpt><trkpt lat="40.10683" lon="-8.49801"><time>2010-01-01T02:34:54.000Z</time></trkpt><trkpt lat="40.10662" lon="-8.49798"><ele>91</ele><time>2010-01-01T02:35:04.000Z</time></trkpt><trkpt lat="40.10656" lon="-8.49797"><time>2010-01-01T02:35:14.000Z</time></trkpt><trkpt lat="40.10644" lon="-8.49792"><time>2010-01-01T02:35:24.000Z</time></trkpt><trkpt lat="40.10622" lon="-8.4978"><ele>89</ele><time>2022-02-26T16:09:59.000Z</time></trkpt><trkpt lat="40.10615" lon="-8.49778"><time>2022-02-26T16:10:09.000Z</time></trkpt><trkpt lat="40.10609" lon="-8.49776"><time>2022-02-26T16:10:19.000Z</time></trkpt><trkpt lat="40.10604" lon="-8.49771"><time>2022-02-26T16:10:29.000Z</time></trkpt><trkpt lat="40.10599" lon="-8.49765"><ele>89</ele><time>2022-02-26T16:09:47.000Z</time></trkpt><trkpt lat="40.10582" lon="-8.49706"><ele>89</ele><time>2022-02-26T16:09:26.000Z</time></trkpt><trkpt lat="40.10577" lon="-8.4969"><time>2022-02-26T16:09:36.000Z</time></trkpt><trkpt lat="40.10573" lon="-8.49673"><ele>88</ele><time>2022-02-26T16:09:14.000Z</time></trkpt><trkpt lat="40.10559" lon="-8.49625"><ele>88</ele><time>2022-02-26T16:08:56.000Z</time></trkpt><trkpt lat="40.1055" lon="-8.49601"><time>2022-02-26T16:09:06.000Z</time></trkpt><trkpt lat="40.10546" lon="-8.49592"><ele>90</ele><time>2022-02-26T16:09:16.000Z</time></trkpt><trkpt lat="40.10543" lon="-8.49586"><time>2022-02-26T16:09:26.000Z</time></trkpt><trkpt lat="40.10538" lon="-8.49581"><time>2022-02-26T16:09:36.000Z</time></trkpt><trkpt lat="40.10514" lon="-8.49596"><ele>97</ele><time>2022-02-26T16:09:46.000Z</time></trkpt><trkpt lat="40.10508" lon="-8.49592"><time>2022-02-26T16:09:56.000Z</time></trkpt><trkpt lat="40.10502" lon="-8.49587"><time>2022-02-26T16:10:06.000Z</time></trkpt><trkpt lat="40.10496" lon="-8.49584"><time>2022-02-26T16:10:16.000Z</time></trkpt><trkpt lat="40.1049" lon="-8.49582"><ele>102</ele><time>2022-02-26T16:10:26.000Z</time></trkpt><trkpt lat="40.10484" lon="-8.49581"><time>2022-02-26T16:10:36.000Z</time></trkpt><trkpt lat="40.10479" lon="-8.49583"><time>2022-02-26T16:10:46.000Z</time></trkpt><trkpt lat="40.10474" lon="-8.49588"><time>2022-02-26T16:10:56.000Z</time></trkpt><trkpt lat="40.10465" lon="-8.496"><ele>107</ele><time>2022-02-26T16:11:06.000Z</time></trkpt><trkpt lat="40.1046" lon="-8.49605"><time>2022-02-26T16:11:16.000Z</time></trkpt><trkpt lat="40.10447" lon="-8.49612"><time>2022-02-26T16:11:26.000Z</time></trkpt><trkpt lat="40.1043" lon="-8.4962"><ele>112</ele><time>2022-02-26T16:11:36.000Z</time></trkpt><trkpt lat="40.10424" lon="-8.49622"><time>2022-02-26T16:11:46.000Z</time></trkpt><trkpt lat="40.10416" lon="-8.49623"><time>2022-02-26T16:11:56.000Z</time></trkpt><trkpt lat="40.10403" lon="-8.49618"><ele>112</ele><time>2022-02-26T16:12:06.000Z</time></trkpt><trkpt lat="40.10397" lon="-8.49617"><time>2022-02-26T16:12:16.000Z</time></trkpt><trkpt lat="40.10385" lon="-8.4962"><time>2022-02-26T16:12:26.000Z</time></trkpt><trkpt lat="40.10379" lon="-8.4962"><ele>114</ele><time>2022-02-26T16:12:36.000Z</time></trkpt><trkpt lat="40.10364" lon="-8.49622"><time>2022-02-26T16:12:46.000Z</time></trkpt><trkpt lat="40.1035" lon="-8.4962"><ele>114</ele><time>2022-02-26T16:12:56.000Z</time></trkpt><trkpt lat="40.10331" lon="-8.49616"><time>2022-02-26T16:13:06.000Z</time></trkpt><trkpt lat="40.10317" lon="-8.49611"><ele>112</ele><time>2022-02-26T16:13:16.000Z</time></trkpt><trkpt lat="40.10311" lon="-8.49608"><time>2022-02-26T16:13:26.000Z</time></trkpt><trkpt lat="40.10297" lon="-8.49598"><ele>112</ele><time>2022-02-26T16:13:36.000Z</time></trkpt><trkpt lat="40.10282" lon="-8.49583"><time>2022-02-26T16:13:46.000Z</time></trkpt><trkpt lat="40.10273" lon="-8.49572"><ele>113</ele><time>2022-02-26T16:13:56.000Z</time></trkpt><trkpt lat="40.10265" lon="-8.49562"><time>2022-02-26T16:14:06.000Z</time></trkpt><trkpt lat="40.10246" lon="-8.49538"><ele>115</ele><time>2022-02-26T16:14:16.000Z</time></trkpt><trkpt lat="40.10241" lon="-8.49534"><time>2022-02-26T16:14:26.000Z</time></trkpt><trkpt lat="40.10234" lon="-8.49533"><time>2022-02-26T16:14:36.000Z</time></trkpt><trkpt lat="40.10216" lon="-8.49531"><ele>114</ele><time>2022-02-26T16:14:46.000Z</time></trkpt><trkpt lat="40.1021" lon="-8.49529"><time>2022-02-26T16:14:56.000Z</time></trkpt><trkpt lat="40.10205" lon="-8.49527"><time>2022-02-26T16:15:06.000Z</time></trkpt><trkpt lat="40.10178" lon="-8.49505"><ele>113</ele><time>2022-02-26T16:15:16.000Z</time></trkpt><trkpt lat="40.10172" lon="-8.49502"><time>2022-02-26T16:15:26.000Z</time></trkpt><trkpt lat="40.10159" lon="-8.49496"><time>2022-02-26T16:15:36.000Z</time></trkpt><trkpt lat="40.10153" lon="-8.49496"><ele>108</ele><time>2022-02-26T16:15:46.000Z</time></trkpt><trkpt lat="40.10146" lon="-8.49497"><time>2022-02-26T16:15:56.000Z</time></trkpt><trkpt lat="40.10139" lon="-8.49496"><time>2022-02-26T16:16:06.000Z</time></trkpt><trkpt lat="40.10126" lon="-8.4949"><ele>102</ele><time>2022-02-26T16:16:16.000Z</time></trkpt><trkpt lat="40.10118" lon="-8.4948"><time>2022-02-26T16:16:26.000Z</time></trkpt><trkpt lat="40.10113" lon="-8.49468"><ele>102</ele><time>2022-02-26T16:16:36.000Z</time></trkpt><trkpt lat="40.10112" lon="-8.49461"><time>2022-02-26T16:16:46.000Z</time></trkpt><trkpt lat="40.10111" lon="-8.49453"><time>2022-02-26T16:16:56.000Z</time></trkpt><trkpt lat="40.10109" lon="-8.49445"><time>2022-02-26T16:17:06.000Z</time></trkpt><trkpt lat="40.10102" lon="-8.49431"><ele>100</ele><time>2022-02-26T16:17:16.000Z</time></trkpt><trkpt lat="40.10097" lon="-8.49426"><time>2022-02-26T16:17:26.000Z</time></trkpt><trkpt lat="40.10086" lon="-8.49417"><time>2022-02-26T16:17:36.000Z</time></trkpt><trkpt lat="40.10075" lon="-8.49406"><ele>100</ele><time>2022-02-26T16:17:46.000Z</time></trkpt><trkpt lat="40.10065" lon="-8.49396"><time>2022-02-26T16:17:56.000Z</time></trkpt><trkpt lat="40.10045" lon="-8.49366"><ele>99</ele><time>2022-02-26T16:18:06.000Z</time></trkpt><trkpt lat="40.10041" lon="-8.49361"><time>2022-02-26T16:18:16.000Z</time></trkpt><trkpt lat="40.10036" lon="-8.4936"><time>2022-02-26T16:18:26.000Z</time></trkpt><trkpt lat="40.10029" lon="-8.49361"><time>2022-02-26T16:18:36.000Z</time></trkpt><trkpt lat="40.10018" lon="-8.49368"><ele>98</ele><time>2022-02-26T16:18:46.000Z</time></trkpt><trkpt lat="40.10011" lon="-8.49372"><time>2022-02-26T16:18:56.000Z</time></trkpt><trkpt lat="40.10006" lon="-8.49372"><time>2022-02-26T16:19:06.000Z</time></trkpt><trkpt lat="40.10001" lon="-8.49372"><time>2022-02-26T16:19:16.000Z</time></trkpt><trkpt lat="40.09993" lon="-8.4937"><ele>98</ele><time>2022-02-26T16:19:26.000Z</time></trkpt><trkpt lat="40.09987" lon="-8.49366"><time>2022-02-26T16:19:36.000Z</time></trkpt><trkpt lat="40.09977" lon="-8.49356"><time>2022-02-26T16:19:46.000Z</time></trkpt><trkpt lat="40.09972" lon="-8.49349"><ele>100</ele><time>2022-02-26T16:19:56.000Z</time></trkpt><trkpt lat="40.09966" lon="-8.49338"><time>2022-02-26T16:20:06.000Z</time></trkpt><trkpt lat="40.09964" lon="-8.49329"><time>2022-02-26T16:20:16.000Z</time></trkpt><trkpt lat="40.09963" lon="-8.49314"><ele>101</ele><time>2022-02-26T16:20:26.000Z</time></trkpt><trkpt lat="40.09964" lon="-8.49306"><time>2022-02-26T16:20:36.000Z</time></trkpt><trkpt lat="40.0997" lon="-8.49291"><time>2022-02-26T16:20:46.000Z</time></trkpt><trkpt lat="40.09974" lon="-8.49285"><ele>102</ele><time>2022-02-26T16:20:56.000Z</time></trkpt><trkpt lat="40.09976" lon="-8.49279"><time>2022-02-26T16:21:06.000Z</time></trkpt><trkpt lat="40.09977" lon="-8.49271"><time>2022-02-26T16:21:16.000Z</time></trkpt><trkpt lat="40.09977" lon="-8.49263"><time>2022-02-26T16:21:26.000Z</time></trkpt><trkpt lat="40.09975" lon="-8.49255"><ele>103</ele><time>2022-02-26T16:21:36.000Z</time></trkpt><trkpt lat="40.09972" lon="-8.49249"><time>2022-02-26T16:21:46.000Z</time></trkpt><trkpt lat="40.09966" lon="-8.49244"><time>2022-02-26T16:21:56.000Z</time></trkpt><trkpt lat="40.09948" lon="-8.4922"><ele>104</ele><time>2022-02-26T16:02:34.000Z</time></trkpt><trkpt lat="40.09941" lon="-8.49206"><time>2022-02-26T16:02:44.000Z</time></trkpt><trkpt lat="40.09936" lon="-8.492"><time>2022-02-26T16:02:54.000Z</time></trkpt><trkpt lat="40.09931" lon="-8.49196"><ele>104</ele><time>2022-02-26T16:03:04.000Z</time></trkpt><trkpt lat="40.0993" lon="-8.49201"><time>2022-02-26T16:03:14.000Z</time></trkpt><trkpt lat="40.09929" lon="-8.49208"><time>2022-02-26T16:03:24.000Z</time></trkpt><trkpt lat="40.09931" lon="-8.49216"><time>2022-02-26T16:03:34.000Z</time></trkpt><trkpt lat="40.09931" lon="-8.49224"><ele>104</ele><time>2022-02-26T16:03:44.000Z</time></trkpt><trkpt lat="40.09932" lon="-8.4923"><time>2022-02-26T16:03:54.000Z</time></trkpt><trkpt lat="40.09934" lon="-8.49236"><time>2022-02-26T16:04:04.000Z</time></trkpt><trkpt lat="40.09935" lon="-8.49242"><time>2022-02-26T16:04:14.000Z</time></trkpt><trkpt lat="40.09935" lon="-8.49257"><ele>101</ele><time>2022-02-26T16:04:24.000Z</time></trkpt><trkpt lat="40.09939" lon="-8.49279"><time>2022-02-26T16:04:34.000Z</time></trkpt><trkpt lat="40.09939" lon="-8.49284"><time>2022-02-26T16:04:44.000Z</time></trkpt><trkpt lat="40.09942" lon="-8.49314"><ele>99</ele><time>2022-02-26T16:04:54.000Z</time></trkpt><trkpt lat="40.09941" lon="-8.49326"><time>2022-02-26T16:05:04.000Z</time></trkpt><trkpt lat="40.09944" lon="-8.49351"><ele>100</ele><time>2022-02-26T16:05:14.000Z</time></trkpt><trkpt lat="40.09943" lon="-8.49359"><time>2022-02-26T16:05:24.000Z</time></trkpt><trkpt lat="40.09943" lon="-8.49365"><time>2022-02-26T16:05:34.000Z</time></trkpt><trkpt lat="40.09942" lon="-8.49372"><time>2022-02-26T16:05:44.000Z</time></trkpt><trkpt lat="40.09937" lon="-8.49379"><ele>101</ele><time>2022-02-26T16:05:54.000Z</time></trkpt><trkpt lat="40.09928" lon="-8.49391"><time>2022-02-26T16:06:04.000Z</time></trkpt><trkpt lat="40.09927" lon="-8.49393"><time>2022-02-26T16:06:14.000Z</time></trkpt><trkpt lat="40.09926" lon="-8.49393"><time>2022-02-26T16:06:24.000Z</time></trkpt><trkpt lat="40.09924" lon="-8.49391"><time>2022-02-26T16:06:34.000Z</time></trkpt><trkpt lat="40.09919" lon="-8.49389"><ele>101</ele><time>2022-02-26T16:06:44.000Z</time></trkpt><trkpt lat="40.0991" lon="-8.49383"><time>2022-02-26T16:06:54.000Z</time></trkpt><trkpt lat="40.0989" lon="-8.49378"><ele>105</ele><time>2022-02-26T16:07:04.000Z</time></trkpt><trkpt lat="40.09872" lon="-8.49378"><time>2022-02-26T16:07:14.000Z</time></trkpt><trkpt lat="40.09867" lon="-8.4938"><ele>105</ele><time>2022-02-26T16:07:24.000Z</time></trkpt><trkpt lat="40.09855" lon="-8.4938"><time>2022-02-26T16:07:34.000Z</time></trkpt><trkpt lat="40.09848" lon="-8.49381"><time>2022-02-26T16:07:44.000Z</time></trkpt><trkpt lat="40.09844" lon="-8.49381"><ele>101</ele><time>2022-02-26T16:07:54.000Z</time></trkpt><trkpt lat="40.09843" lon="-8.49372"><time>2022-02-26T16:08:04.000Z</time></trkpt><trkpt lat="40.09845" lon="-8.49338"><ele>95</ele><time>2022-02-26T16:08:14.000Z</time></trkpt><trkpt lat="40.09844" lon="-8.49323"><time>2022-02-26T16:08:24.000Z</time></trkpt><trkpt lat="40.0985" lon="-8.49305"><ele>95</ele><time>2022-02-25T23:24:16.000Z</time></trkpt><trkpt lat="40.09856" lon="-8.49286"><time>2022-02-25T23:24:26.000Z</time></trkpt><trkpt lat="40.09859" lon="-8.49269"><ele>95</ele><time>2022-02-25T23:24:36.000Z</time></trkpt><trkpt lat="40.09859" lon="-8.49263"><time>2022-02-25T23:24:46.000Z</time></trkpt><trkpt lat="40.09857" lon="-8.49243"><time>2022-02-25T23:24:56.000Z</time></trkpt><trkpt lat="40.09857" lon="-8.49229"><ele>102</ele><time>2022-02-25T23:24:41.000Z</time></trkpt><trkpt lat="40.09855" lon="-8.49222"><time>2022-02-25T23:24:51.000Z</time></trkpt><trkpt lat="40.09855" lon="-8.49214"><time>2022-02-25T23:25:01.000Z</time></trkpt><trkpt lat="40.09855" lon="-8.49198"><ele>98</ele><time>2022-02-25T23:24:54.000Z</time></trkpt><trkpt lat="40.09854" lon="-8.49182"><time>2022-02-25T23:25:04.000Z</time></trkpt><trkpt lat="40.09852" lon="-8.49174"><time>2022-02-25T23:25:14.000Z</time></trkpt><trkpt lat="40.09849" lon="-8.49167"><ele>99</ele><time>2022-02-25T23:25:06.000Z</time></trkpt><trkpt lat="40.09841" lon="-8.4915"><time>2022-02-25T23:25:16.000Z</time></trkpt><trkpt lat="40.09831" lon="-8.49132"><ele>98</ele><time>2022-02-25T23:25:20.000Z</time></trkpt><trkpt lat="40.09819" lon="-8.49113"><time>2022-02-25T23:25:30.000Z</time></trkpt><trkpt lat="40.09814" lon="-8.49102"><ele>101</ele><time>2022-02-25T23:25:32.000Z</time></trkpt><trkpt lat="40.09807" lon="-8.49072"><ele>104</ele><time>2022-02-25T23:25:41.000Z</time></trkpt><trkpt lat="40.09801" lon="-8.49043"><ele>109</ele><time>2022-02-25T23:25:51.000Z</time></trkpt><trkpt lat="40.098" lon="-8.49035"><time>2022-02-25T23:26:01.000Z</time></trkpt><trkpt lat="40.09801" lon="-8.49027"><time>2022-02-25T23:26:11.000Z</time></trkpt><trkpt lat="40.09809" lon="-8.49006"><ele>111</ele><time>2022-02-25T23:26:21.000Z</time></trkpt><trkpt lat="40.09814" lon="-8.48982"><time>2022-02-25T23:26:31.000Z</time></trkpt><trkpt lat="40.09818" lon="-8.48956"><ele>112</ele><time>2022-02-25T23:26:41.000Z</time></trkpt><trkpt lat="40.09821" lon="-8.48948"><time>2022-02-25T23:26:51.000Z</time></trkpt><trkpt lat="40.09824" lon="-8.48941"><time>2022-02-25T23:27:01.000Z</time></trkpt><trkpt lat="40.09829" lon="-8.48936"><time>2022-02-25T23:27:11.000Z</time></trkpt><trkpt lat="40.09834" lon="-8.48931"><ele>116</ele><time>2022-02-25T23:27:21.000Z</time></trkpt><trkpt lat="40.09839" lon="-8.48928"><time>2022-02-25T23:27:31.000Z</time></trkpt><trkpt lat="40.09869" lon="-8.48916"><ele>115</ele><time>2022-02-25T23:27:41.000Z</time></trkpt><trkpt lat="40.09876" lon="-8.48913"><time>2022-02-25T23:27:51.000Z</time></trkpt><trkpt lat="40.09885" lon="-8.48912"><time>2022-02-25T23:28:01.000Z</time></trkpt><trkpt lat="40.09892" lon="-8.48913"><ele>114</ele><time>2022-02-25T23:28:11.000Z</time></trkpt><trkpt lat="40.09897" lon="-8.48915"><time>2022-02-25T23:28:21.000Z</time></trkpt><trkpt lat="40.09901" lon="-8.48918"><time>2022-02-25T23:28:31.000Z</time></trkpt><trkpt lat="40.09915" lon="-8.48932"><ele>113</ele><time>2022-02-25T23:28:41.000Z</time></trkpt><trkpt lat="40.09922" lon="-8.48943"><time>2022-02-25T23:28:51.000Z</time></trkpt><trkpt lat="40.0994" lon="-8.48976"><ele>113</ele><time>2022-02-25T23:27:32.000Z</time></trkpt><trkpt lat="40.0995" lon="-8.48998"><time>2022-02-25T23:27:42.000Z</time></trkpt><trkpt lat="40.09954" lon="-8.49004"><ele>112</ele><time>2022-02-25T23:27:52.000Z</time></trkpt><trkpt lat="40.09961" lon="-8.49013"><time>2022-02-25T23:28:02.000Z</time></trkpt><trkpt lat="40.09969" lon="-8.4902"><time>2022-02-25T23:28:12.000Z</time></trkpt><trkpt lat="40.09975" lon="-8.49022"><ele>109</ele><time>2022-02-25T23:28:22.000Z</time></trkpt><trkpt lat="40.09981" lon="-8.49024"><time>2022-02-25T23:28:32.000Z</time></trkpt><trkpt lat="40.09988" lon="-8.49025"><time>2022-02-25T23:28:42.000Z</time></trkpt><trkpt lat="40.09994" lon="-8.49028"><time>2022-02-25T23:28:52.000Z</time></trkpt><trkpt lat="40.10003" lon="-8.49033"><ele>108</ele><time>2022-02-25T23:28:06.000Z</time></trkpt><trkpt lat="40.10017" lon="-8.49043"><time>2022-02-25T23:28:16.000Z</time></trkpt><trkpt lat="40.10026" lon="-8.4905"><ele>108</ele><time>2022-02-25T23:28:17.000Z</time></trkpt><trkpt lat="40.10044" lon="-8.49073"><ele>108</ele><time>2022-02-25T23:28:27.000Z</time></trkpt><trkpt lat="40.10055" lon="-8.49084"><time>2022-02-25T23:28:37.000Z</time></trkpt><trkpt lat="40.10072" lon="-8.49094"><ele>108</ele><time>2022-02-25T23:28:47.000Z</time></trkpt><trkpt lat="40.10077" lon="-8.49096"><time>2022-02-25T23:28:57.000Z</time></trkpt><trkpt lat="40.10081" lon="-8.49094"><time>2022-02-25T23:29:07.000Z</time></trkpt><trkpt lat="40.10101" lon="-8.4907"><ele>108</ele><time>2022-02-25T23:29:17.000Z</time></trkpt><trkpt lat="40.10107" lon="-8.49059"><time>2022-02-25T23:29:27.000Z</time></trkpt><trkpt lat="40.10119" lon="-8.49042"><ele>111</ele><time>2022-02-25T23:29:37.000Z</time></trkpt><trkpt lat="40.10123" lon="-8.49036"><time>2022-02-25T23:29:47.000Z</time></trkpt><trkpt lat="40.10131" lon="-8.49023"><time>2022-02-25T23:29:57.000Z</time></trkpt><trkpt lat="40.10139" lon="-8.49014"><ele>110</ele><time>2022-02-25T23:29:22.000Z</time></trkpt><trkpt lat="40.10147" lon="-8.49002"><time>2022-02-25T23:29:32.000Z</time></trkpt><trkpt lat="40.10157" lon="-8.48984"><ele>110</ele><time>2022-02-25T23:29:36.000Z</time></trkpt><trkpt lat="40.10175" lon="-8.48955"><ele>109</ele><time>2022-02-25T23:29:49.000Z</time></trkpt><trkpt lat="40.10185" lon="-8.48937"><time>2022-02-25T23:29:59.000Z</time></trkpt><trkpt lat="40.10194" lon="-8.48924"><ele>109</ele><time>2022-02-25T23:30:09.000Z</time></trkpt><trkpt lat="40.10199" lon="-8.48918"><time>2022-02-25T23:30:19.000Z</time></trkpt><trkpt lat="40.10219" lon="-8.48904"><ele>111</ele><time>2022-02-25T23:30:29.000Z</time></trkpt><trkpt lat="40.10222" lon="-8.48899"><time>2022-02-25T23:30:39.000Z</time></trkpt><trkpt lat="40.10223" lon="-8.48883"><time>2022-02-25T23:30:49.000Z</time></trkpt><trkpt lat="40.10224" lon="-8.48876"><ele>112</ele><time>2022-02-25T23:30:59.000Z</time></trkpt><trkpt lat="40.10227" lon="-8.4887"><time>2022-02-25T23:31:09.000Z</time></trkpt><trkpt lat="40.10243" lon="-8.48845"><ele>115</ele><time>2022-02-25T23:30:41.000Z</time></trkpt><trkpt lat="40.1026" lon="-8.48818"><ele>113</ele><time>2022-02-25T23:30:51.000Z</time></trkpt><trkpt lat="40.1028" lon="-8.48789"><ele>111</ele><time>2022-02-25T23:31:01.000Z</time></trkpt><trkpt lat="40.10286" lon="-8.48777"><time>2022-02-25T23:31:11.000Z</time></trkpt><trkpt lat="40.10289" lon="-8.4877"><time>2022-02-25T23:31:21.000Z</time></trkpt><trkpt lat="40.10291" lon="-8.48762"><ele>111</ele><time>2022-02-25T23:31:31.000Z</time></trkpt><trkpt lat="40.10293" lon="-8.48754"><time>2022-02-25T23:31:41.000Z</time></trkpt><trkpt lat="40.10292" lon="-8.48746"><time>2022-02-25T23:31:51.000Z</time></trkpt><trkpt lat="40.10289" lon="-8.48738"><time>2022-02-25T23:32:01.000Z</time></trkpt><trkpt lat="40.10283" lon="-8.48729"><ele>113</ele><time>2022-02-25T23:32:11.000Z</time></trkpt><trkpt lat="40.10277" lon="-8.48718"><time>2022-02-25T23:32:21.000Z</time></trkpt><trkpt lat="40.10267" lon="-8.48705"><ele>115</ele><time>2022-02-25T23:32:31.000Z</time></trkpt><trkpt lat="40.10255" lon="-8.48688"><time>2022-02-25T23:32:41.000Z</time></trkpt><trkpt lat="40.1024" lon="-8.48673"><ele>121</ele><time>2022-02-25T23:32:51.000Z</time></trkpt><trkpt lat="40.10231" lon="-8.48663"><time>2022-02-25T23:33:01.000Z</time></trkpt><trkpt lat="40.10206" lon="-8.48633"><ele>124</ele><time>2022-02-25T23:32:17.000Z</time></trkpt><trkpt lat="40.10168" lon="-8.48593"><ele>126</ele><time>2022-02-25T23:32:38.000Z</time></trkpt><trkpt lat="40.10147" lon="-8.48565"><ele>128</ele><time>2022-02-25T23:32:52.000Z</time></trkpt><trkpt lat="40.10118" lon="-8.48531"><ele>128</ele><time>2022-02-25T23:33:02.000Z</time></trkpt><trkpt lat="40.10107" lon="-8.48513"><time>2022-02-25T23:33:12.000Z</time></trkpt><trkpt lat="40.10095" lon="-8.48487"><ele>128</ele><time>2022-02-25T23:33:22.000Z</time></trkpt><trkpt lat="40.10092" lon="-8.4848"><time>2022-02-25T23:33:32.000Z</time></trkpt><trkpt lat="40.1009" lon="-8.48473"><time>2022-02-25T23:33:42.000Z</time></trkpt><trkpt lat="40.10093" lon="-8.48465"><time>2022-02-25T23:33:52.000Z</time></trkpt><trkpt lat="40.10096" lon="-8.48459"><ele>130</ele><time>2022-02-25T23:34:02.000Z</time></trkpt><trkpt lat="40.10096" lon="-8.48446"><time>2022-02-25T23:34:12.000Z</time></trkpt><trkpt lat="40.10099" lon="-8.4844"><time>2022-02-25T23:34:22.000Z</time></trkpt><trkpt lat="40.10108" lon="-8.48433"><ele>136</ele><time>2022-02-25T23:34:32.000Z</time></trkpt><trkpt lat="40.10114" lon="-8.48432"><time>2022-02-25T23:34:42.000Z</time></trkpt><trkpt lat="40.10125" lon="-8.48429"><time>2022-02-25T23:34:52.000Z</time></trkpt><trkpt lat="40.10134" lon="-8.48426"><ele>142</ele><time>2022-02-25T23:35:02.000Z</time></trkpt><trkpt lat="40.10138" lon="-8.48424"><time>2022-02-25T23:35:12.000Z</time></trkpt><trkpt lat="40.10145" lon="-8.48418"><time>2022-02-25T23:35:22.000Z</time></trkpt><trkpt lat="40.10147" lon="-8.48412"><time>2022-02-25T23:35:32.000Z</time></trkpt><trkpt lat="40.10149" lon="-8.48406"><ele>142</ele><time>2022-02-25T23:35:42.000Z</time></trkpt><trkpt lat="40.10151" lon="-8.48391"><time>2022-02-25T23:35:52.000Z</time></trkpt><trkpt lat="40.10156" lon="-8.48366"><ele>148</ele><time>2022-02-25T23:36:02.000Z</time></trkpt><trkpt lat="40.10157" lon="-8.48349"><time>2022-02-25T23:36:12.000Z</time></trkpt><trkpt lat="40.10157" lon="-8.48343"><time>2022-02-25T23:36:22.000Z</time></trkpt><trkpt lat="40.10155" lon="-8.48334"><ele>149</ele><time>2022-02-25T23:36:32.000Z</time></trkpt><trkpt lat="40.10153" lon="-8.48327"><time>2022-02-25T23:36:42.000Z</time></trkpt><trkpt lat="40.10149" lon="-8.4832"><time>2022-02-25T23:36:52.000Z</time></trkpt><trkpt lat="40.10138" lon="-8.48305"><ele>149</ele><time>2022-02-25T23:37:02.000Z</time></trkpt><trkpt lat="40.10134" lon="-8.48298"><time>2022-02-25T23:37:12.000Z</time></trkpt><trkpt lat="40.10133" lon="-8.4829"><time>2022-02-25T23:37:22.000Z</time></trkpt><trkpt lat="40.10133" lon="-8.48268"><ele>147</ele><time>2022-02-25T23:37:32.000Z</time></trkpt><trkpt lat="40.10133" lon="-8.4826"><time>2022-02-25T23:37:42.000Z</time></trkpt><trkpt lat="40.10131" lon="-8.48253"><time>2022-02-25T23:37:52.000Z</time></trkpt><trkpt lat="40.10122" lon="-8.48236"><ele>147</ele><time>2022-02-25T23:36:09.000Z</time></trkpt><trkpt lat="40.10107" lon="-8.48211"><ele>147</ele><time>2022-02-25T23:36:19.000Z</time></trkpt><trkpt lat="40.10103" lon="-8.48206"><time>2022-02-25T23:36:29.000Z</time></trkpt><trkpt lat="40.1009" lon="-8.48196"><time>2022-02-25T23:36:39.000Z</time></trkpt><trkpt lat="40.10085" lon="-8.48193"><ele>150</ele><time>2022-02-25T23:36:49.000Z</time></trkpt><trkpt lat="40.1007" lon="-8.48187"><time>2022-02-25T23:36:59.000Z</time></trkpt><trkpt lat="40.10059" lon="-8.4818"><ele>147</ele><time>2022-02-25T23:37:09.000Z</time></trkpt><trkpt lat="40.10055" lon="-8.48177"><time>2022-02-25T23:37:19.000Z</time></trkpt><trkpt lat="40.10044" lon="-8.48164"><time>2022-02-25T23:37:29.000Z</time></trkpt><trkpt lat="40.10018" lon="-8.48137"><ele>145</ele><time>2022-02-25T23:37:39.000Z</time></trkpt><trkpt lat="40.10013" lon="-8.48126"><time>2022-02-25T23:37:49.000Z</time></trkpt><trkpt lat="40.10009" lon="-8.48115"><time>2022-02-25T23:37:59.000Z</time></trkpt><trkpt lat="40.10003" lon="-8.48102"><ele>139</ele><time>2022-02-25T23:37:18.000Z</time></trkpt><trkpt lat="40.09995" lon="-8.48091"><time>2022-02-25T23:37:28.000Z</time></trkpt><trkpt lat="40.09992" lon="-8.48085"><time>2022-02-25T23:37:38.000Z</time></trkpt><trkpt lat="40.09991" lon="-8.48078"><ele>139</ele><time>2022-02-25T23:37:29.000Z</time></trkpt><trkpt lat="40.0999" lon="-8.48055"><time>2022-02-25T23:37:39.000Z</time></trkpt><trkpt lat="40.09992" lon="-8.48038"><ele>139</ele><time>2022-02-25T23:37:49.000Z</time></trkpt><trkpt lat="40.09994" lon="-8.4803"><time>2022-02-25T23:37:59.000Z</time></trkpt><trkpt lat="40.1" lon="-8.48004"><ele>140</ele><time>2022-02-25T23:38:09.000Z</time></trkpt><trkpt lat="40.10003" lon="-8.47996"><time>2022-02-25T23:38:19.000Z</time></trkpt><trkpt lat="40.10021" lon="-8.47961"><ele>143</ele><time>2022-02-25T23:38:14.000Z</time></trkpt><trkpt lat="40.10034" lon="-8.47939"><time>2022-02-25T23:38:24.000Z</time></trkpt><trkpt lat="40.10037" lon="-8.47935"><ele>140</ele><time>2022-02-25T23:38:34.000Z</time></trkpt><trkpt lat="40.10048" lon="-8.47923"><time>2022-02-25T23:38:44.000Z</time></trkpt><trkpt lat="40.10061" lon="-8.47913"><ele>137</ele><time>2022-02-25T23:38:54.000Z</time></trkpt><trkpt lat="40.10067" lon="-8.47904"><time>2022-02-25T23:39:04.000Z</time></trkpt><trkpt lat="40.10069" lon="-8.47898"><time>2022-02-25T23:39:14.000Z</time></trkpt><trkpt lat="40.10071" lon="-8.47883"><ele>136</ele><time>2022-02-25T23:39:24.000Z</time></trkpt><trkpt lat="40.10074" lon="-8.47876"><time>2022-02-25T23:39:34.000Z</time></trkpt><trkpt lat="40.10079" lon="-8.47872"><time>2022-02-25T23:39:44.000Z</time></trkpt><trkpt lat="40.1009" lon="-8.47874"><ele>136</ele><time>2022-02-25T23:39:54.000Z</time></trkpt><trkpt lat="40.10096" lon="-8.47874"><time>2022-02-25T23:40:04.000Z</time></trkpt><trkpt lat="40.101" lon="-8.47873"><time>2022-02-25T23:40:14.000Z</time></trkpt><trkpt lat="40.10108" lon="-8.47875"><time>2022-02-25T23:40:24.000Z</time></trkpt><trkpt lat="40.10149" lon="-8.47881"><ele>134</ele><time>2022-02-25T23:39:27.000Z</time></trkpt><trkpt lat="40.10177" lon="-8.47879"><ele>133</ele><time>2022-02-25T23:39:37.000Z</time></trkpt><trkpt lat="40.10187" lon="-8.4788"><time>2022-02-25T23:39:47.000Z</time></trkpt><trkpt lat="40.10217" lon="-8.47887"><ele>131</ele><time>2022-02-25T23:39:56.000Z</time></trkpt><trkpt lat="40.10248" lon="-8.47891"><ele>130</ele><time>2022-02-25T23:40:09.000Z</time></trkpt><trkpt lat="40.10267" lon="-8.47895"><time>2022-02-25T23:40:19.000Z</time></trkpt><trkpt lat="40.10272" lon="-8.47896"><ele>130</ele><time>2022-02-25T23:40:29.000Z</time></trkpt><trkpt lat="40.10277" lon="-8.47895"><time>2022-02-25T23:40:39.000Z</time></trkpt><trkpt lat="40.10302" lon="-8.47882"><ele>130</ele><time>2022-02-25T23:40:33.000Z</time></trkpt><trkpt lat="40.10317" lon="-8.47862"><ele>130</ele><time>2022-02-25T23:40:42.000Z</time></trkpt><trkpt lat="40.10341" lon="-8.4784"><ele>131</ele><time>2022-02-25T23:40:52.000Z</time></trkpt><trkpt lat="40.10345" lon="-8.47836"><time>2022-02-25T23:41:02.000Z</time></trkpt><trkpt lat="40.10347" lon="-8.47831"><time>2022-02-25T23:41:12.000Z</time></trkpt><trkpt lat="40.1035" lon="-8.47826"><time>2022-02-25T23:41:22.000Z</time></trkpt><trkpt lat="40.10353" lon="-8.47812"><ele>130</ele><time>2022-02-25T23:41:32.000Z</time></trkpt><trkpt lat="40.10353" lon="-8.478"><time>2022-02-25T23:41:42.000Z</time></trkpt><trkpt lat="40.10351" lon="-8.47792"><time>2022-02-25T23:41:52.000Z</time></trkpt><trkpt lat="40.10338" lon="-8.47767"><ele>130</ele><time>2022-02-25T23:42:02.000Z</time></trkpt><trkpt lat="40.1033" lon="-8.47754"><time>2022-02-25T23:42:12.000Z</time></trkpt><trkpt lat="40.10327" lon="-8.47748"><time>2022-02-25T23:42:22.000Z</time></trkpt><trkpt lat="40.10321" lon="-8.47738"><ele>128</ele><time>2022-02-25T23:42:32.000Z</time></trkpt><trkpt lat="40.10315" lon="-8.47727"><time>2022-02-25T23:42:42.000Z</time></trkpt><trkpt lat="40.10311" lon="-8.47721"><time>2022-02-25T23:42:52.000Z</time></trkpt><trkpt lat="40.10303" lon="-8.47712"><ele>128</ele><time>2022-02-25T23:43:02.000Z</time></trkpt><trkpt lat="40.10299" lon="-8.47707"><time>2022-02-25T23:43:12.000Z</time></trkpt><trkpt lat="40.10297" lon="-8.477"><time>2022-02-25T23:43:22.000Z</time></trkpt><trkpt lat="40.10297" lon="-8.47694"><time>2022-02-25T23:43:32.000Z</time></trkpt><trkpt lat="40.103" lon="-8.47689"><time>2022-02-25T23:43:42.000Z</time></trkpt><trkpt lat="40.10302" lon="-8.47675"><ele>129</ele><time>2022-02-25T23:43:52.000Z</time></trkpt><trkpt lat="40.10306" lon="-8.47664"><time>2022-02-25T23:44:02.000Z</time></trkpt><trkpt lat="40.10305" lon="-8.47657"><time>2022-02-25T23:44:12.000Z</time></trkpt><trkpt lat="40.103" lon="-8.47645"><ele>135</ele><time>2022-02-25T23:44:22.000Z</time></trkpt><trkpt lat="40.10298" lon="-8.47639"><time>2022-02-25T23:44:32.000Z</time></trkpt><trkpt lat="40.10296" lon="-8.47634"><time>2022-02-25T23:44:42.000Z</time></trkpt><trkpt lat="40.10292" lon="-8.47621"><time>2022-02-25T23:44:52.000Z</time></trkpt><trkpt lat="40.10291" lon="-8.47615"><ele>138</ele><time>2022-02-25T23:45:02.000Z</time></trkpt><trkpt lat="40.10291" lon="-8.47599"><time>2022-02-25T23:45:12.000Z</time></trkpt><trkpt lat="40.10288" lon="-8.47576"><ele>142</ele><time>2022-02-25T23:45:22.000Z</time></trkpt><trkpt lat="40.10286" lon="-8.4757"><time>2022-02-25T23:45:32.000Z</time></trkpt><trkpt lat="40.10284" lon="-8.47565"><time>2022-02-25T23:45:42.000Z</time></trkpt><trkpt lat="40.10277" lon="-8.47554"><time>2022-02-25T23:45:52.000Z</time></trkpt><trkpt lat="40.10276" lon="-8.47548"><ele>144</ele><time>2022-02-25T23:46:02.000Z</time></trkpt><trkpt lat="40.10275" lon="-8.47541"><time>2022-02-25T23:46:12.000Z</time></trkpt><trkpt lat="40.10278" lon="-8.47526"><time>2022-02-25T23:46:22.000Z</time></trkpt><trkpt lat="40.10277" lon="-8.47518"><ele>144</ele><time>2022-02-25T23:46:32.000Z</time></trkpt><trkpt lat="40.10275" lon="-8.47511"><time>2022-02-25T23:46:42.000Z</time></trkpt><trkpt lat="40.10274" lon="-8.47505"><time>2022-02-25T23:46:52.000Z</time></trkpt><trkpt lat="40.10275" lon="-8.47499"><time>2022-02-25T23:47:02.000Z</time></trkpt><trkpt lat="40.10279" lon="-8.4748"><ele>145</ele><time>2022-02-25T23:47:12.000Z</time></trkpt><trkpt lat="40.10279" lon="-8.47474"><time>2022-02-25T23:47:22.000Z</time></trkpt><trkpt lat="40.10275" lon="-8.4746"><time>2022-02-25T23:47:32.000Z</time></trkpt><trkpt lat="40.10273" lon="-8.47453"><ele>147</ele><time>2022-02-25T23:47:42.000Z</time></trkpt><trkpt lat="40.1027" lon="-8.47448"><time>2022-02-25T23:47:52.000Z</time></trkpt><trkpt lat="40.10266" lon="-8.47443"><time>2022-02-25T23:48:02.000Z</time></trkpt><trkpt lat="40.10263" lon="-8.47438"><time>2022-02-25T23:48:12.000Z</time></trkpt><trkpt lat="40.10254" lon="-8.47422"><ele>158</ele><time>2022-02-25T23:44:39.000Z</time></trkpt><trkpt lat="40.10235" lon="-8.474"><ele>171</ele><time>2022-02-25T23:44:49.000Z</time></trkpt><trkpt lat="40.10227" lon="-8.47389"><time>2022-02-25T23:44:59.000Z</time></trkpt><trkpt lat="40.10214" lon="-8.47377"><ele>171</ele><time>2022-02-25T23:45:09.000Z</time></trkpt><trkpt lat="40.1021" lon="-8.47372"><time>2022-02-25T23:45:19.000Z</time></trkpt><trkpt lat="40.10201" lon="-8.47357"><time>2022-02-25T23:45:29.000Z</time></trkpt><trkpt lat="40.10193" lon="-8.47339"><ele>186</ele><time>2022-02-25T23:45:39.000Z</time></trkpt><trkpt lat="40.10192" lon="-8.47333"><time>2022-02-25T23:45:49.000Z</time></trkpt><trkpt lat="40.10191" lon="-8.47326"><time>2022-02-25T23:45:59.000Z</time></trkpt><trkpt lat="40.10195" lon="-8.473"><ele>188</ele><time>2022-02-25T23:46:09.000Z</time></trkpt><trkpt lat="40.10193" lon="-8.47289"><time>2022-02-25T23:46:19.000Z</time></trkpt><trkpt lat="40.10188" lon="-8.47276"><time>2022-02-25T23:46:29.000Z</time></trkpt><trkpt lat="40.10182" lon="-8.47265"><ele>194</ele><time>2022-02-25T23:46:39.000Z</time></trkpt><trkpt lat="40.10178" lon="-8.47259"><time>2022-02-25T23:46:49.000Z</time></trkpt><trkpt lat="40.10173" lon="-8.47249"><time>2022-02-25T23:46:59.000Z</time></trkpt><trkpt lat="40.10157" lon="-8.47214"><ele>200</ele><time>2022-02-25T23:47:09.000Z</time></trkpt><trkpt lat="40.10153" lon="-8.47211"><time>2022-02-25T23:47:19.000Z</time></trkpt><trkpt lat="40.10137" lon="-8.47213"><ele>200</ele><time>2022-02-25T23:47:21.000Z</time></trkpt><trkpt lat="40.10126" lon="-8.47216"><time>2022-02-25T23:47:31.000Z</time></trkpt><trkpt lat="40.10115" lon="-8.47217"><ele>197</ele><time>2022-02-25T23:47:31.000Z</time></trkpt><trkpt lat="40.1011" lon="-8.47216"><time>2022-02-25T23:47:41.000Z</time></trkpt><trkpt lat="40.10101" lon="-8.47208"><time>2022-02-25T23:47:51.000Z</time></trkpt><trkpt lat="40.10095" lon="-8.47199"><ele>194</ele><time>2022-02-25T23:47:49.000Z</time></trkpt><trkpt lat="40.10091" lon="-8.47187"><time>2022-02-25T23:47:59.000Z</time></trkpt><trkpt lat="40.10078" lon="-8.47173"><ele>191</ele><time>2022-02-25T23:48:11.000Z</time></trkpt><trkpt lat="40.10074" lon="-8.47168"><time>2022-02-25T23:48:21.000Z</time></trkpt><trkpt lat="40.10068" lon="-8.47157"><time>2022-02-25T23:48:31.000Z</time></trkpt><trkpt lat="40.10063" lon="-8.47152"><ele>189</ele><time>2022-02-25T23:48:25.000Z</time></trkpt><trkpt lat="40.10059" lon="-8.47163"><time>2022-02-25T23:48:35.000Z</time></trkpt><trkpt lat="40.10053" lon="-8.47165"><time>2022-02-25T23:48:45.000Z</time></trkpt><trkpt lat="40.10047" lon="-8.47165"><ele>187</ele><time>2022-02-25T23:49:05.000Z</time></trkpt><trkpt lat="40.10036" lon="-8.4716"><time>2022-02-25T23:49:15.000Z</time></trkpt><trkpt lat="40.10032" lon="-8.47156"><time>2022-02-25T23:49:25.000Z</time></trkpt><trkpt lat="40.10029" lon="-8.47152"><ele>187</ele><time>2022-02-25T23:49:35.000Z</time></trkpt><trkpt lat="40.10023" lon="-8.47153"><time>2022-02-25T23:49:45.000Z</time></trkpt><trkpt lat="40.10018" lon="-8.47156"><time>2022-02-25T23:49:55.000Z</time></trkpt><trkpt lat="40.10013" lon="-8.47158"><time>2022-02-25T23:50:05.000Z</time></trkpt><trkpt lat="40.10008" lon="-8.47156"><ele>177</ele><time>2022-02-25T23:50:15.000Z</time></trkpt><trkpt lat="40.09996" lon="-8.47151"><time>2022-02-25T23:50:25.000Z</time></trkpt><trkpt lat="40.09984" lon="-8.47131"><ele>170</ele><time>2022-02-25T23:50:35.000Z</time></trkpt><trkpt lat="40.09982" lon="-8.47126"><time>2022-02-25T23:50:45.000Z</time></trkpt><trkpt lat="40.09979" lon="-8.4712"><time>2022-02-25T23:50:55.000Z</time></trkpt><trkpt lat="40.09974" lon="-8.47117"><time>2022-02-25T23:51:05.000Z</time></trkpt><trkpt lat="40.09971" lon="-8.47112"><time>2022-02-25T23:51:15.000Z</time></trkpt><trkpt lat="40.09969" lon="-8.47098"><ele>165</ele><time>2022-02-25T23:51:25.000Z</time></trkpt><trkpt lat="40.09969" lon="-8.47092"><time>2022-02-25T23:51:35.000Z</time></trkpt><trkpt lat="40.09967" lon="-8.47079"><time>2022-02-25T23:51:45.000Z</time></trkpt><trkpt lat="40.09962" lon="-8.47075"><time>2022-02-25T23:51:55.000Z</time></trkpt><trkpt lat="40.09958" lon="-8.4707"><ele>162</ele><time>2022-02-25T23:52:05.000Z</time></trkpt><trkpt lat="40.09953" lon="-8.47068"><time>2022-02-25T23:52:15.000Z</time></trkpt><trkpt lat="40.09934" lon="-8.47072"><ele>157</ele><time>2022-02-25T23:52:25.000Z</time></trkpt><trkpt lat="40.09923" lon="-8.47073"><time>2022-02-25T23:52:35.000Z</time></trkpt><trkpt lat="40.09913" lon="-8.47072"><ele>157</ele><time>2022-02-25T23:52:45.000Z</time></trkpt><trkpt lat="40.099" lon="-8.47068"><time>2022-02-25T23:52:55.000Z</time></trkpt><trkpt lat="40.09894" lon="-8.47068"><time>2022-02-25T23:53:05.000Z</time></trkpt><trkpt lat="40.09882" lon="-8.47076"><ele>155</ele><time>2022-02-25T23:53:15.000Z</time></trkpt><trkpt lat="40.09877" lon="-8.4708"><time>2022-02-25T23:53:25.000Z</time></trkpt><trkpt lat="40.09872" lon="-8.4708"><time>2022-02-25T23:53:35.000Z</time></trkpt><trkpt lat="40.09867" lon="-8.47079"><time>2022-02-25T23:53:45.000Z</time></trkpt><trkpt lat="40.09861" lon="-8.47077"><ele>150</ele><time>2022-02-25T23:53:55.000Z</time></trkpt><trkpt lat="40.09858" lon="-8.4707"><time>2022-02-25T23:54:05.000Z</time></trkpt><trkpt lat="40.09843" lon="-8.47057"><ele>149</ele><time>2022-02-25T23:54:15.000Z</time></trkpt><trkpt lat="40.09836" lon="-8.47045"><time>2022-02-25T23:54:25.000Z</time></trkpt><trkpt lat="40.09823" lon="-8.47015"><ele>148</ele><time>2022-02-25T23:53:21.000Z</time></trkpt><trkpt lat="40.09817" lon="-8.47004"><time>2022-02-25T23:53:31.000Z</time></trkpt><trkpt lat="40.09815" lon="-8.46998"><time>2022-02-25T23:53:41.000Z</time></trkpt><trkpt lat="40.09814" lon="-8.46992"><time>2022-02-25T23:53:51.000Z</time></trkpt><trkpt lat="40.09818" lon="-8.4698"><ele>145</ele><time>2022-02-25T23:53:33.000Z</time></trkpt><trkpt lat="40.09816" lon="-8.46972"><time>2022-02-25T23:53:43.000Z</time></trkpt><trkpt lat="40.09811" lon="-8.46954"><ele>143</ele><time>2022-02-25T23:53:39.000Z</time></trkpt><trkpt lat="40.09809" lon="-8.46948"><time>2022-02-25T23:53:49.000Z</time></trkpt><trkpt lat="40.09808" lon="-8.46922"><ele>139</ele><time>2022-02-25T23:53:49.000Z</time></trkpt><trkpt lat="40.09804" lon="-8.4691"><time>2022-02-25T23:53:59.000Z</time></trkpt><trkpt lat="40.09801" lon="-8.46905"><time>2022-02-25T23:54:09.000Z</time></trkpt><trkpt lat="40.09796" lon="-8.46893"><ele>140</ele><time>2022-02-25T23:53:59.000Z</time></trkpt><trkpt lat="40.0979" lon="-8.46873"><time>2022-02-25T23:54:09.000Z</time></trkpt><trkpt lat="40.0979" lon="-8.46867"><ele>141</ele><time>2022-02-25T23:54:08.000Z</time></trkpt><trkpt lat="40.09789" lon="-8.4685"><time>2022-02-25T23:54:18.000Z</time></trkpt><trkpt lat="40.09788" lon="-8.46843"><time>2022-02-25T23:54:28.000Z</time></trkpt><trkpt lat="40.09786" lon="-8.46837"><ele>143</ele><time>2022-02-25T23:54:20.000Z</time></trkpt><trkpt lat="40.09781" lon="-8.46831"><time>2022-02-25T23:54:30.000Z</time></trkpt><trkpt lat="40.09779" lon="-8.46823"><time>2022-02-25T23:54:40.000Z</time></trkpt><trkpt lat="40.09778" lon="-8.46815"><time>2022-02-25T23:54:50.000Z</time></trkpt><trkpt lat="40.09774" lon="-8.46808"><ele>143</ele><time>2022-02-25T23:54:32.000Z</time></trkpt><trkpt lat="40.09769" lon="-8.46804"><time>2022-02-25T23:54:42.000Z</time></trkpt><trkpt lat="40.09763" lon="-8.46803"><time>2022-02-25T23:54:52.000Z</time></trkpt><trkpt lat="40.09751" lon="-8.46805"><ele>139</ele><time>2022-02-25T23:54:44.000Z</time></trkpt><trkpt lat="40.09737" lon="-8.46811"><time>2022-02-25T23:54:54.000Z</time></trkpt><trkpt lat="40.09726" lon="-8.46813"><ele>138</ele><time>2022-02-25T23:54:56.000Z</time></trkpt><trkpt lat="40.09698" lon="-8.4681"><ele>137</ele><time>2022-02-25T23:55:06.000Z</time></trkpt><trkpt lat="40.09688" lon="-8.46809"><time>2022-02-25T23:55:16.000Z</time></trkpt><trkpt lat="40.09644" lon="-8.46801"><ele>134</ele><time>2022-02-25T23:55:26.000Z</time></trkpt><trkpt lat="40.09639" lon="-8.46799"><time>2022-02-25T23:55:36.000Z</time></trkpt><trkpt lat="40.09631" lon="-8.46793"><time>2022-02-25T23:55:46.000Z</time></trkpt><trkpt lat="40.09616" lon="-8.46778"><ele>135</ele><time>2022-02-25T23:55:56.000Z</time></trkpt><trkpt lat="40.09608" lon="-8.46768"><time>2022-02-25T23:56:06.000Z</time></trkpt><trkpt lat="40.096" lon="-8.4676"><ele>132</ele><time>2022-02-25T23:56:16.000Z</time></trkpt><trkpt lat="40.0959" lon="-8.46754"><time>2022-02-25T23:56:26.000Z</time></trkpt><trkpt lat="40.09586" lon="-8.46749"><time>2022-02-25T23:56:36.000Z</time></trkpt><trkpt lat="40.09585" lon="-8.46743"><ele>130</ele><time>2022-02-25T23:56:46.000Z</time></trkpt><trkpt lat="40.09585" lon="-8.46737"><time>2022-02-25T23:56:56.000Z</time></trkpt><trkpt lat="40.09582" lon="-8.46725"><time>2022-02-25T23:57:06.000Z</time></trkpt><trkpt lat="40.09582" lon="-8.46718"><time>2022-02-25T23:57:16.000Z</time></trkpt><trkpt lat="40.0958" lon="-8.4671"><ele>129</ele><time>2022-02-25T23:57:26.000Z</time></trkpt><trkpt lat="40.09575" lon="-8.46706"><time>2022-02-25T23:57:36.000Z</time></trkpt><trkpt lat="40.09571" lon="-8.46699"><time>2022-02-25T23:57:46.000Z</time></trkpt><trkpt lat="40.09564" lon="-8.46689"><ele>126</ele><time>2022-02-25T23:57:56.000Z</time></trkpt><trkpt lat="40.09556" lon="-8.46681"><time>2022-02-25T23:58:06.000Z</time></trkpt><trkpt lat="40.09552" lon="-8.46677"><time>2022-02-25T23:58:16.000Z</time></trkpt><trkpt lat="40.09547" lon="-8.46672"><ele>123</ele><time>2022-02-25T23:58:26.000Z</time></trkpt><trkpt lat="40.09542" lon="-8.46669"><time>2022-02-25T23:58:36.000Z</time></trkpt><trkpt lat="40.09537" lon="-8.46667"><time>2022-02-25T23:58:46.000Z</time></trkpt><trkpt lat="40.09527" lon="-8.46662"><ele>123</ele><time>2022-02-25T23:58:56.000Z</time></trkpt><trkpt lat="40.09525" lon="-8.46655"><time>2022-02-25T23:59:06.000Z</time></trkpt><trkpt lat="40.09525" lon="-8.46647"><time>2022-02-25T23:59:16.000Z</time></trkpt><trkpt lat="40.09526" lon="-8.46614"><ele>123</ele><time>2022-02-25T23:59:26.000Z</time></trkpt><trkpt lat="40.09527" lon="-8.4659"><time>2022-02-25T23:59:36.000Z</time></trkpt><trkpt lat="40.09524" lon="-8.46567"><ele>122</ele><time>2022-02-25T23:59:46.000Z</time></trkpt><trkpt lat="40.09525" lon="-8.46561"><time>2022-02-25T23:59:56.000Z</time></trkpt><trkpt lat="40.09528" lon="-8.46538"><ele>124</ele><time>2022-02-26T00:00:06.000Z</time></trkpt><trkpt lat="40.09529" lon="-8.46532"><time>2022-02-26T00:00:16.000Z</time></trkpt><trkpt lat="40.09529" lon="-8.46525"><time>2022-02-26T00:00:26.000Z</time></trkpt><trkpt lat="40.09524" lon="-8.46524"><time>2022-02-26T00:00:36.000Z</time></trkpt><trkpt lat="40.09516" lon="-8.46532"><ele>123</ele><time>2022-02-26T00:00:46.000Z</time></trkpt><trkpt lat="40.09514" lon="-8.46537"><time>2022-02-26T00:00:56.000Z</time></trkpt><trkpt lat="40.09508" lon="-8.46567"><ele>122</ele><time>2022-02-26T00:01:06.000Z</time></trkpt><trkpt lat="40.09504" lon="-8.46573"><time>2022-02-26T00:01:16.000Z</time></trkpt><trkpt lat="40.09501" lon="-8.46578"><time>2022-02-26T00:01:26.000Z</time></trkpt><trkpt lat="40.09496" lon="-8.46581"><time>2022-02-26T00:01:36.000Z</time></trkpt><trkpt lat="40.09485" lon="-8.46581"><ele>122</ele><time>2022-02-26T00:01:46.000Z</time></trkpt><trkpt lat="40.09479" lon="-8.46578"><time>2022-02-26T00:01:56.000Z</time></trkpt><trkpt lat="40.09475" lon="-8.46574"><time>2022-02-26T00:02:06.000Z</time></trkpt><trkpt lat="40.09469" lon="-8.46571"><time>2022-02-26T00:02:16.000Z</time></trkpt><trkpt lat="40.09465" lon="-8.46568"><ele>122</ele><time>2022-02-26T00:02:26.000Z</time></trkpt><trkpt lat="40.09462" lon="-8.46561"><time>2022-02-26T00:02:36.000Z</time></trkpt><trkpt lat="40.09448" lon="-8.46545"><ele>123</ele><time>2022-02-26T00:02:46.000Z</time></trkpt><trkpt lat="40.09444" lon="-8.46543"><time>2022-02-26T00:02:56.000Z</time></trkpt><trkpt lat="40.09439" lon="-8.46541"><time>2022-02-26T00:03:06.000Z</time></trkpt><trkpt lat="40.09428" lon="-8.4654"><ele>123</ele><time>2022-02-26T00:03:16.000Z</time></trkpt><trkpt lat="40.09421" lon="-8.4654"><time>2022-02-26T00:03:26.000Z</time></trkpt><trkpt lat="40.09417" lon="-8.46536"><time>2022-02-26T00:03:36.000Z</time></trkpt><trkpt lat="40.09409" lon="-8.46525"><ele>124</ele><time>2022-02-26T00:03:46.000Z</time></trkpt><trkpt lat="40.09404" lon="-8.46523"><time>2022-02-26T00:03:56.000Z</time></trkpt><trkpt lat="40.09393" lon="-8.46532"><time>2022-02-26T00:04:06.000Z</time></trkpt><trkpt lat="40.09388" lon="-8.46535"><ele>124</ele><time>2022-02-26T00:04:16.000Z</time></trkpt><trkpt lat="40.09384" lon="-8.46536"><time>2022-02-26T00:04:26.000Z</time></trkpt><trkpt lat="40.09378" lon="-8.46536"><time>2022-02-26T00:04:36.000Z</time></trkpt><trkpt lat="40.09371" lon="-8.46535"><time>2022-02-26T00:04:46.000Z</time></trkpt><trkpt lat="40.09367" lon="-8.4653"><ele>124</ele><time>2022-02-26T00:04:56.000Z</time></trkpt><trkpt lat="40.09365" lon="-8.46522"><time>2022-02-26T00:05:06.000Z</time></trkpt><trkpt lat="40.0936" lon="-8.46491"><ele>124</ele><time>2022-02-26T00:05:16.000Z</time></trkpt><trkpt lat="40.09357" lon="-8.46475"><time>2022-02-26T00:05:26.000Z</time></trkpt><trkpt lat="40.09358" lon="-8.46467"><time>2022-02-26T00:05:36.000Z</time></trkpt><trkpt lat="40.09358" lon="-8.46459"><ele>124</ele><time>2022-02-26T00:05:46.000Z</time></trkpt><trkpt lat="40.09355" lon="-8.46444"><time>2022-02-26T00:05:56.000Z</time></trkpt><trkpt lat="40.09354" lon="-8.46436"><time>2022-02-26T00:06:06.000Z</time></trkpt><trkpt lat="40.09353" lon="-8.46421"><ele>125</ele><time>2022-02-26T00:06:16.000Z</time></trkpt><trkpt lat="40.09354" lon="-8.46409"><time>2022-02-26T00:06:26.000Z</time></trkpt><trkpt lat="40.09351" lon="-8.46386"><ele>129</ele><time>2022-02-26T00:06:36.000Z</time></trkpt><trkpt lat="40.09349" lon="-8.4638"><time>2022-02-26T00:06:46.000Z</time></trkpt><trkpt lat="40.09344" lon="-8.46369"><time>2022-02-26T00:06:56.000Z</time></trkpt><trkpt lat="40.09334" lon="-8.46361"><ele>129</ele><time>2022-02-26T00:07:06.000Z</time></trkpt><trkpt lat="40.0933" lon="-8.46354"><time>2022-02-26T00:07:16.000Z</time></trkpt><trkpt lat="40.09322" lon="-8.46342"><time>2022-02-26T00:07:26.000Z</time></trkpt><trkpt lat="40.09319" lon="-8.46336"><ele>129</ele><time>2022-02-26T00:07:36.000Z</time></trkpt><trkpt lat="40.09317" lon="-8.46328"><time>2022-02-26T00:07:46.000Z</time></trkpt><trkpt lat="40.09318" lon="-8.46322"><time>2022-02-26T00:07:56.000Z</time></trkpt><trkpt lat="40.0932" lon="-8.46314"><time>2022-02-26T00:08:06.000Z</time></trkpt><trkpt lat="40.09319" lon="-8.46308"><ele>129</ele><time>2022-02-26T00:08:16.000Z</time></trkpt><trkpt lat="40.09315" lon="-8.46303"><time>2022-02-26T00:08:26.000Z</time></trkpt><trkpt lat="40.09313" lon="-8.46297"><time>2022-02-26T00:08:36.000Z</time></trkpt><trkpt lat="40.09313" lon="-8.46289"><time>2022-02-26T00:08:46.000Z</time></trkpt><trkpt lat="40.09315" lon="-8.46276"><ele>129</ele><time>2022-02-26T00:01:11.000Z</time></trkpt><trkpt lat="40.09315" lon="-8.46268"><time>2022-02-26T00:01:21.000Z</time></trkpt><trkpt lat="40.09316" lon="-8.46261"><time>2022-02-26T00:01:31.000Z</time></trkpt><trkpt lat="40.0932" lon="-8.46246"><ele>129</ele><time>2022-02-26T00:01:23.000Z</time></trkpt><trkpt lat="40.09327" lon="-8.46228"><time>2022-02-26T00:01:33.000Z</time></trkpt><trkpt lat="40.09328" lon="-8.46222"><time>2022-02-26T00:01:43.000Z</time></trkpt><trkpt lat="40.09332" lon="-8.46211"><ele>129</ele><time>2022-02-26T00:01:35.000Z</time></trkpt><trkpt lat="40.09337" lon="-8.4619"><time>2022-02-26T00:01:45.000Z</time></trkpt><trkpt lat="40.09341" lon="-8.46169"><ele>129</ele><time>2022-02-26T00:01:51.000Z</time></trkpt><trkpt lat="40.09344" lon="-8.46156"><time>2022-02-26T00:02:01.000Z</time></trkpt><trkpt lat="40.09347" lon="-8.46142"><ele>127</ele><time>2022-02-26T00:02:11.000Z</time></trkpt><trkpt lat="40.09347" lon="-8.46136"><time>2022-02-26T00:02:21.000Z</time></trkpt><trkpt lat="40.0935" lon="-8.46117"><time>2022-02-26T00:02:31.000Z</time></trkpt><trkpt lat="40.09349" lon="-8.46111"><ele>126</ele><time>2022-02-26T00:02:41.000Z</time></trkpt><trkpt lat="40.09346" lon="-8.46106"><time>2022-02-26T00:02:51.000Z</time></trkpt><trkpt lat="40.09333" lon="-8.46097"><time>2022-02-26T00:03:01.000Z</time></trkpt><trkpt lat="40.09328" lon="-8.46093"><ele>126</ele><time>2022-02-26T00:03:11.000Z</time></trkpt><trkpt lat="40.09319" lon="-8.46085"><time>2022-02-26T00:03:21.000Z</time></trkpt><trkpt lat="40.09303" lon="-8.4607"><ele>125</ele><time>2022-02-26T00:03:31.000Z</time></trkpt><trkpt lat="40.09295" lon="-8.46066"><time>2022-02-26T00:03:41.000Z</time></trkpt><trkpt lat="40.0928" lon="-8.46054"><ele>126</ele><time>2022-02-26T00:03:51.000Z</time></trkpt><trkpt lat="40.09275" lon="-8.46049"><time>2022-02-26T00:04:01.000Z</time></trkpt><trkpt lat="40.09269" lon="-8.46036"><time>2022-02-26T00:04:11.000Z</time></trkpt><trkpt lat="40.09268" lon="-8.46005"><ele>127</ele><time>2022-02-26T00:04:21.000Z</time></trkpt><trkpt lat="40.09267" lon="-8.45999"><time>2022-02-26T00:04:31.000Z</time></trkpt><trkpt lat="40.09267" lon="-8.45991"><time>2022-02-26T00:04:41.000Z</time></trkpt><trkpt lat="40.09268" lon="-8.45974"><ele>130</ele><time>2022-02-26T00:04:51.000Z</time></trkpt><trkpt lat="40.09271" lon="-8.45966"><time>2022-02-26T00:05:01.000Z</time></trkpt><trkpt lat="40.09274" lon="-8.45959"><time>2022-02-26T00:05:11.000Z</time></trkpt><trkpt lat="40.09278" lon="-8.45954"><time>2022-02-26T00:05:21.000Z</time></trkpt><trkpt lat="40.09294" lon="-8.45942"><ele>131</ele><time>2022-02-26T00:03:44.000Z</time></trkpt><trkpt lat="40.09314" lon="-8.45929"><ele>134</ele><time>2022-02-26T00:03:54.000Z</time></trkpt><trkpt lat="40.09331" lon="-8.45922"><time>2022-02-26T00:04:04.000Z</time></trkpt><trkpt lat="40.09336" lon="-8.45922"><ele>134</ele><time>2022-02-26T00:04:14.000Z</time></trkpt><trkpt lat="40.09341" lon="-8.45921"><time>2022-02-26T00:04:24.000Z</time></trkpt><trkpt lat="40.09346" lon="-8.45918"><time>2022-02-26T00:04:34.000Z</time></trkpt><trkpt lat="40.09351" lon="-8.45913"><time>2022-02-26T00:04:44.000Z</time></trkpt><trkpt lat="40.09364" lon="-8.45889"><ele>134</ele><time>2022-02-26T00:04:54.000Z</time></trkpt><trkpt lat="40.09368" lon="-8.45882"><time>2022-02-26T00:05:04.000Z</time></trkpt><trkpt lat="40.09372" lon="-8.45876"><time>2022-02-26T00:05:14.000Z</time></trkpt><trkpt lat="40.09373" lon="-8.45868"><time>2022-02-26T00:05:24.000Z</time></trkpt><trkpt lat="40.09363" lon="-8.45853"><ele>129</ele><time>2022-02-26T00:04:45.000Z</time></trkpt><trkpt lat="40.09345" lon="-8.45834"><ele>129</ele><time>2022-02-26T00:04:56.000Z</time></trkpt><trkpt lat="40.09336" lon="-8.45827"><time>2022-02-26T00:05:06.000Z</time></trkpt><trkpt lat="40.0933" lon="-8.45824"><time>2022-02-26T00:05:16.000Z</time></trkpt><trkpt lat="40.09324" lon="-8.45822"><ele>129</ele><time>2022-02-26T00:05:07.000Z</time></trkpt><trkpt lat="40.09318" lon="-8.45823"><time>2022-02-26T00:05:17.000Z</time></trkpt><trkpt lat="40.09303" lon="-8.45829"><ele>130</ele><time>2022-02-26T00:05:17.000Z</time></trkpt><trkpt lat="40.09279" lon="-8.45834"><ele>131</ele><time>2022-02-26T00:05:30.000Z</time></trkpt><trkpt lat="40.09256" lon="-8.45836"><ele>135</ele><time>2022-02-26T00:05:40.000Z</time></trkpt><trkpt lat="40.09245" lon="-8.45839"><time>2022-02-26T00:05:50.000Z</time></trkpt><trkpt lat="40.09222" lon="-8.45843"><ele>135</ele><time>2022-02-26T00:05:59.000Z</time></trkpt><trkpt lat="40.09193" lon="-8.45843"><ele>134</ele><time>2022-02-26T00:06:09.000Z</time></trkpt><trkpt lat="40.09175" lon="-8.45841"><time>2022-02-26T00:06:19.000Z</time></trkpt><trkpt lat="40.09164" lon="-8.45841"><ele>133</ele><time>2022-02-26T00:06:29.000Z</time></trkpt><trkpt lat="40.09152" lon="-8.45843"><time>2022-02-26T00:06:39.000Z</time></trkpt><trkpt lat="40.09133" lon="-8.45847"><ele>133</ele><time>2022-02-26T00:06:49.000Z</time></trkpt><trkpt lat="40.09128" lon="-8.4585"><time>2022-02-26T00:06:59.000Z</time></trkpt><trkpt lat="40.09116" lon="-8.45853"><time>2022-02-26T00:07:09.000Z</time></trkpt><trkpt lat="40.09104" lon="-8.45857"><ele>131</ele><time>2022-02-26T00:07:19.000Z</time></trkpt><trkpt lat="40.09092" lon="-8.45858"><time>2022-02-26T00:07:29.000Z</time></trkpt><trkpt lat="40.09076" lon="-8.45856"><ele>130</ele><time>2022-02-26T00:07:39.000Z</time></trkpt><trkpt lat="40.09069" lon="-8.45853"><time>2022-02-26T00:07:49.000Z</time></trkpt><trkpt lat="40.09042" lon="-8.45835"><ele>130</ele><time>2022-02-26T00:07:28.000Z</time></trkpt><trkpt lat="40.09016" lon="-8.45822"><ele>131</ele><time>2022-02-26T00:07:38.000Z</time></trkpt><trkpt lat="40.09012" lon="-8.45818"><time>2022-02-26T00:07:48.000Z</time></trkpt><trkpt lat="40.09009" lon="-8.45814"><time>2022-02-26T00:07:58.000Z</time></trkpt><trkpt lat="40.09003" lon="-8.45796"><ele>133</ele><time>2022-02-26T00:08:08.000Z</time></trkpt><trkpt lat="40.09" lon="-8.4579"><time>2022-02-26T00:08:18.000Z</time></trkpt><trkpt lat="40.08993" lon="-8.45779"><time>2022-02-26T00:08:28.000Z</time></trkpt><trkpt lat="40.08987" lon="-8.45769"><ele>139</ele><time>2022-02-26T00:08:38.000Z</time></trkpt><trkpt lat="40.08983" lon="-8.45765"><time>2022-02-26T00:08:48.000Z</time></trkpt><trkpt lat="40.08975" lon="-8.45751"><time>2022-02-26T00:08:58.000Z</time></trkpt><trkpt lat="40.08964" lon="-8.45728"><ele>140</ele><time>2022-02-26T00:08:18.000Z</time></trkpt><trkpt lat="40.08958" lon="-8.45714"><time>2022-02-26T00:08:28.000Z</time></trkpt><trkpt lat="40.08954" lon="-8.45702"><ele>140</ele><time>2022-02-26T00:08:29.000Z</time></trkpt><trkpt lat="40.08947" lon="-8.45667"><ele>140</ele><time>2022-02-26T00:08:41.000Z</time></trkpt><trkpt lat="40.08946" lon="-8.45625"><ele>140</ele><time>2022-02-26T00:08:55.000Z</time></trkpt><trkpt lat="40.08947" lon="-8.45613"><time>2022-02-26T00:09:05.000Z</time></trkpt><trkpt lat="40.08947" lon="-8.45607"><time>2022-02-26T00:09:15.000Z</time></trkpt><trkpt lat="40.0895" lon="-8.45596"><ele>140</ele><time>2022-02-26T00:09:05.000Z</time></trkpt><trkpt lat="40.08954" lon="-8.45589"><time>2022-02-26T00:09:15.000Z</time></trkpt><trkpt lat="40.08957" lon="-8.45585"><time>2022-02-26T00:09:25.000Z</time></trkpt><trkpt lat="40.08962" lon="-8.45579"><time>2022-02-26T00:09:35.000Z</time></trkpt><trkpt lat="40.08966" lon="-8.45576"><ele>139</ele><time>2022-02-26T00:09:15.000Z</time></trkpt><trkpt lat="40.0899" lon="-8.45562"><ele>139</ele><time>2022-02-26T00:09:25.000Z</time></trkpt><trkpt lat="40.09015" lon="-8.45548"><ele>139</ele><time>2022-02-26T00:09:35.000Z</time></trkpt><trkpt lat="40.09019" lon="-8.45547"><time>2022-02-26T00:09:45.000Z</time></trkpt><trkpt lat="40.0903" lon="-8.45544"><time>2022-02-26T00:09:55.000Z</time></trkpt><trkpt lat="40.09035" lon="-8.45544"><time>2022-02-26T00:10:05.000Z</time></trkpt><trkpt lat="40.09039" lon="-8.45545"><ele>140</ele><time>2022-02-26T00:10:15.000Z</time></trkpt><trkpt lat="40.09044" lon="-8.45547"><time>2022-02-26T00:10:25.000Z</time></trkpt><trkpt lat="40.09049" lon="-8.45548"><time>2022-02-26T00:10:35.000Z</time></trkpt><trkpt lat="40.09055" lon="-8.45546"><time>2022-02-26T00:10:45.000Z</time></trkpt><trkpt lat="40.0906" lon="-8.45542"><ele>140</ele><time>2022-02-26T00:10:55.000Z</time></trkpt><trkpt lat="40.09065" lon="-8.45537"><time>2022-02-26T00:11:05.000Z</time></trkpt><trkpt lat="40.09072" lon="-8.45525"><time>2022-02-26T00:11:15.000Z</time></trkpt><trkpt lat="40.09077" lon="-8.45513"><ele>138</ele><time>2022-02-26T00:11:25.000Z</time></trkpt><trkpt lat="40.09079" lon="-8.45506"><time>2022-02-26T00:11:35.000Z</time></trkpt><trkpt lat="40.0908" lon="-8.45498"><time>2022-02-26T00:11:45.000Z</time></trkpt><trkpt lat="40.0908" lon="-8.45482"><ele>138</ele><time>2022-02-26T00:11:55.000Z</time></trkpt><trkpt lat="40.09081" lon="-8.45475"><time>2022-02-26T00:12:05.000Z</time></trkpt><trkpt lat="40.09081" lon="-8.45459"><time>2022-02-26T00:12:15.000Z</time></trkpt><trkpt lat="40.09082" lon="-8.45452"><ele>138</ele><time>2022-02-26T00:12:25.000Z</time></trkpt><trkpt lat="40.09084" lon="-8.45444"><time>2022-02-26T00:12:35.000Z</time></trkpt><trkpt lat="40.09088" lon="-8.45429"><time>2022-02-26T00:12:45.000Z</time></trkpt><trkpt lat="40.09098" lon="-8.45418"><ele>141</ele><time>2022-02-26T00:12:55.000Z</time></trkpt><trkpt lat="40.091" lon="-8.4541"><time>2022-02-26T00:13:05.000Z</time></trkpt><trkpt lat="40.091" lon="-8.45393"><time>2022-02-26T00:13:15.000Z</time></trkpt><trkpt lat="40.09101" lon="-8.45385"><ele>146</ele><time>2022-02-26T00:13:25.000Z</time></trkpt><trkpt lat="40.09104" lon="-8.45377"><time>2022-02-26T00:13:35.000Z</time></trkpt><trkpt lat="40.09106" lon="-8.45372"><time>2022-02-26T00:13:45.000Z</time></trkpt><trkpt lat="40.0912" lon="-8.45351"><ele>146</ele><time>2022-02-26T00:11:15.000Z</time></trkpt><trkpt lat="40.09131" lon="-8.45327"><ele>147</ele><time>2022-02-26T00:11:25.000Z</time></trkpt><trkpt lat="40.09131" lon="-8.4532"><time>2022-02-26T00:11:35.000Z</time></trkpt><trkpt lat="40.09128" lon="-8.453"><ele>148</ele><time>2022-02-26T00:11:45.000Z</time></trkpt><trkpt lat="40.09128" lon="-8.45293"><time>2022-02-26T00:11:55.000Z</time></trkpt><trkpt lat="40.09129" lon="-8.45273"><ele>148</ele><time>2022-02-26T00:12:05.000Z</time></trkpt><trkpt lat="40.09131" lon="-8.45266"><time>2022-02-26T00:12:15.000Z</time></trkpt><trkpt lat="40.09132" lon="-8.45258"><time>2022-02-26T00:12:25.000Z</time></trkpt><trkpt lat="40.0913" lon="-8.45237"><ele>148</ele><time>2022-02-26T00:12:03.000Z</time></trkpt><trkpt lat="40.09129" lon="-8.45205"><ele>148</ele><time>2022-02-26T00:12:13.000Z</time></trkpt><trkpt lat="40.09128" lon="-8.45181"><time>2022-02-26T00:12:23.000Z</time></trkpt><trkpt lat="40.09123" lon="-8.45128"><ele>149</ele><time>2022-02-26T00:12:45.000Z</time></trkpt><trkpt lat="40.09124" lon="-8.45113"><time>2022-02-26T00:12:55.000Z</time></trkpt><trkpt lat="40.09126" lon="-8.45098"><ele>151</ele><time>2022-02-26T00:12:57.000Z</time></trkpt><trkpt lat="40.09127" lon="-8.45082"><time>2022-02-26T00:13:07.000Z</time></trkpt><trkpt lat="40.09124" lon="-8.4506"><ele>154</ele><time>2022-02-26T00:13:12.000Z</time></trkpt><trkpt lat="40.09127" lon="-8.45029"><ele>156</ele><time>2022-02-26T00:13:22.000Z</time></trkpt><trkpt lat="40.09126" lon="-8.45007"><time>2022-02-26T00:13:32.000Z</time></trkpt><trkpt lat="40.09118" lon="-8.44959"><ele>156</ele><time>2022-02-26T00:13:42.000Z</time></trkpt><trkpt lat="40.09118" lon="-8.44953"><time>2022-02-26T00:13:52.000Z</time></trkpt><trkpt lat="40.09122" lon="-8.44939"><time>2022-02-26T00:14:02.000Z</time></trkpt><trkpt lat="40.09127" lon="-8.44926"><ele>158</ele><time>2022-02-26T00:14:12.000Z</time></trkpt><trkpt lat="40.09138" lon="-8.44907"><time>2022-02-26T00:14:22.000Z</time></trkpt><trkpt lat="40.09153" lon="-8.44886"><ele>158</ele><time>2022-02-26T00:14:32.000Z</time></trkpt><trkpt lat="40.0916" lon="-8.44876"><time>2022-02-26T00:14:42.000Z</time></trkpt><trkpt lat="40.09177" lon="-8.44854"><ele>158</ele><time>2022-02-26T00:14:52.000Z</time></trkpt><trkpt lat="40.09184" lon="-8.44844"><time>2022-02-26T00:15:02.000Z</time></trkpt><trkpt lat="40.09187" lon="-8.4484"><time>2022-02-26T00:15:12.000Z</time></trkpt><trkpt lat="40.09193" lon="-8.44839"><ele>157</ele><time>2022-02-26T00:15:22.000Z</time></trkpt><trkpt lat="40.09203" lon="-8.44848"><time>2022-02-26T00:15:32.000Z</time></trkpt><trkpt lat="40.09208" lon="-8.44851"><time>2022-02-26T00:15:42.000Z</time></trkpt><trkpt lat="40.09223" lon="-8.44859"><ele>157</ele><time>2022-02-26T00:15:52.000Z</time></trkpt><trkpt lat="40.09229" lon="-8.4486"><time>2022-02-26T00:16:02.000Z</time></trkpt><trkpt lat="40.0925" lon="-8.44858"><ele>157</ele><time>2022-02-26T00:15:15.000Z</time></trkpt><trkpt lat="40.09262" lon="-8.44861"><time>2022-02-26T00:15:25.000Z</time></trkpt><trkpt lat="40.09267" lon="-8.44856"><time>2022-02-26T00:15:35.000Z</time></trkpt><trkpt lat="40.09261" lon="-8.44851"><ele>157</ele><time>2022-02-26T00:15:30.000Z</time></trkpt><trkpt lat="40.09261" lon="-8.44845"><time>2022-02-26T00:15:40.000Z</time></trkpt><trkpt lat="40.09262" lon="-8.44838"><time>2022-02-26T00:15:50.000Z</time></trkpt><trkpt lat="40.09266" lon="-8.44838"><time>2022-02-26T00:16:00.000Z</time></trkpt><trkpt lat="40.09261" lon="-8.44839"><time>2022-02-26T00:16:10.000Z</time></trkpt><trkpt lat="40.09259" lon="-8.44844"><ele>157</ele><time>2022-02-26T00:17:41.000Z</time></trkpt><trkpt lat="40.09256" lon="-8.44832"><time>2022-02-26T00:17:51.000Z</time></trkpt><trkpt lat="40.09252" lon="-8.44826"><time>2022-02-26T00:18:01.000Z</time></trkpt><trkpt lat="40.09246" lon="-8.44821"><ele>162</ele><time>2022-02-26T00:18:22.000Z</time></trkpt><trkpt lat="40.09236" lon="-8.44816"><time>2022-02-26T00:18:32.000Z</time></trkpt><trkpt lat="40.09228" lon="-8.44807"><ele>162</ele><time>2022-02-26T00:18:30.000Z</time></trkpt><trkpt lat="40.09205" lon="-8.4479"><ele>159</ele><time>2022-02-26T00:18:40.000Z</time></trkpt><trkpt lat="40.092" lon="-8.44788"><time>2022-02-26T00:18:50.000Z</time></trkpt><trkpt lat="40.0919" lon="-8.44785"><time>2022-02-26T00:19:00.000Z</time></trkpt><trkpt lat="40.09173" lon="-8.44778"><ele>159</ele><time>2022-02-26T00:18:54.000Z</time></trkpt><trkpt lat="40.09161" lon="-8.44776"><time>2022-02-26T00:19:04.000Z</time></trkpt><trkpt lat="40.09156" lon="-8.44774"><time>2022-02-26T00:19:14.000Z</time></trkpt><trkpt lat="40.09151" lon="-8.44771"><ele>157</ele><time>2022-02-26T00:19:05.000Z</time></trkpt><trkpt lat="40.09133" lon="-8.44756"><ele>157</ele><time>2022-02-26T00:19:14.000Z</time></trkpt><trkpt lat="40.09121" lon="-8.4475"><time>2022-02-26T00:19:24.000Z</time></trkpt><trkpt lat="40.09104" lon="-8.44739"><ele>157</ele><time>2022-02-26T00:19:30.000Z</time></trkpt><trkpt lat="40.09077" lon="-8.44726"><ele>154</ele><time>2022-02-26T00:19:40.000Z</time></trkpt><trkpt lat="40.09073" lon="-8.4472"><time>2022-02-26T00:19:50.000Z</time></trkpt><trkpt lat="40.09068" lon="-8.44705"><time>2022-02-26T00:20:00.000Z</time></trkpt><trkpt lat="40.09067" lon="-8.44697"><ele>153</ele><time>2022-02-26T00:20:10.000Z</time></trkpt><trkpt lat="40.09065" lon="-8.44679"><time>2022-02-26T00:20:20.000Z</time></trkpt><trkpt lat="40.09064" lon="-8.44671"><time>2022-02-26T00:20:30.000Z</time></trkpt><trkpt lat="40.09054" lon="-8.44624"><ele>153</ele><time>2022-02-26T00:20:20.000Z</time></trkpt><trkpt lat="40.09049" lon="-8.44612"><time>2022-02-26T00:20:30.000Z</time></trkpt><trkpt lat="40.09039" lon="-8.44592"><ele>154</ele><time>2022-02-26T00:20:34.000Z</time></trkpt><trkpt lat="40.09027" lon="-8.44576"><time>2022-02-26T00:20:44.000Z</time></trkpt><trkpt lat="40.09024" lon="-8.44569"><ele>156</ele><time>2022-02-26T00:20:46.000Z</time></trkpt><trkpt lat="40.09018" lon="-8.44547"><time>2022-02-26T00:20:56.000Z</time></trkpt><trkpt lat="40.09015" lon="-8.4454"><ele>160</ele><time>2022-02-26T00:21:06.000Z</time></trkpt><trkpt lat="40.09011" lon="-8.44525"><time>2022-02-26T00:21:16.000Z</time></trkpt><trkpt lat="40.0901" lon="-8.445"><ele>160</ele><time>2022-02-26T00:21:26.000Z</time></trkpt><trkpt lat="40.09007" lon="-8.44481"><time>2022-02-26T00:21:36.000Z</time></trkpt><trkpt lat="40.09007" lon="-8.44474"><time>2022-02-26T00:21:46.000Z</time></trkpt><trkpt lat="40.0901" lon="-8.44459"><ele>162</ele><time>2022-02-26T00:21:56.000Z</time></trkpt><trkpt lat="40.09011" lon="-8.4445"><time>2022-02-26T00:22:06.000Z</time></trkpt><trkpt lat="40.09009" lon="-8.44436"><time>2022-02-26T00:22:16.000Z</time></trkpt><trkpt lat="40.09009" lon="-8.4443"><ele>168</ele><time>2022-02-26T00:22:26.000Z</time></trkpt><trkpt lat="40.09011" lon="-8.44424"><time>2022-02-26T00:22:36.000Z</time></trkpt><trkpt lat="40.09016" lon="-8.44413"><time>2022-02-26T00:22:46.000Z</time></trkpt><trkpt lat="40.09022" lon="-8.44403"><ele>168</ele><time>2022-02-26T00:22:56.000Z</time></trkpt><trkpt lat="40.09024" lon="-8.44398"><time>2022-02-26T00:23:06.000Z</time></trkpt><trkpt lat="40.09028" lon="-8.4438"><time>2022-02-26T00:23:16.000Z</time></trkpt><trkpt lat="40.0903" lon="-8.44365"><ele>167</ele><time>2022-02-26T00:23:26.000Z</time></trkpt><trkpt lat="40.09037" lon="-8.44344"><time>2022-02-26T00:23:36.000Z</time></trkpt><trkpt lat="40.09052" lon="-8.44311"><ele>166</ele><time>2022-02-26T00:22:25.000Z</time></trkpt><trkpt lat="40.09058" lon="-8.44302"><time>2022-02-26T00:22:35.000Z</time></trkpt><trkpt lat="40.09062" lon="-8.44296"><time>2022-02-26T00:22:45.000Z</time></trkpt><trkpt lat="40.09067" lon="-8.44291"><ele>166</ele><time>2022-02-26T00:22:35.000Z</time></trkpt><trkpt lat="40.0907" lon="-8.44284"><time>2022-02-26T00:22:45.000Z</time></trkpt><trkpt lat="40.09073" lon="-8.44264"><ele>160</ele><time>2022-02-26T00:22:45.000Z</time></trkpt><trkpt lat="40.09074" lon="-8.44248"><time>2022-02-26T00:22:55.000Z</time></trkpt><trkpt lat="40.09075" lon="-8.4424"><time>2022-02-26T00:23:05.000Z</time></trkpt><trkpt lat="40.09077" lon="-8.44232"><ele>159</ele><time>2022-02-26T00:22:57.000Z</time></trkpt><trkpt lat="40.09082" lon="-8.44207"><time>2022-02-26T00:23:07.000Z</time></trkpt><trkpt lat="40.09083" lon="-8.44191"><ele>158</ele><time>2022-02-26T00:23:12.000Z</time></trkpt><trkpt lat="40.09083" lon="-8.44175"><time>2022-02-26T00:23:22.000Z</time></trkpt><trkpt lat="40.0908" lon="-8.44152"><ele>157</ele><time>2022-02-26T00:23:27.000Z</time></trkpt><trkpt lat="40.0908" lon="-8.44143"><time>2022-02-26T00:23:37.000Z</time></trkpt><trkpt lat="40.09081" lon="-8.44123"><ele>156</ele><time>2022-02-26T00:23:36.000Z</time></trkpt><trkpt lat="40.09081" lon="-8.44083"><ele>156</ele><time>2022-02-26T00:23:46.000Z</time></trkpt><trkpt lat="40.09079" lon="-8.44068"><time>2022-02-26T00:23:56.000Z</time></trkpt><trkpt lat="40.09072" lon="-8.44043"><ele>156</ele><time>2022-02-26T00:23:58.000Z</time></trkpt><trkpt lat="40.0906" lon="-8.44011"><ele>165</ele><time>2022-02-26T00:24:08.000Z</time></trkpt><trkpt lat="40.09054" lon="-8.43998"><time>2022-02-26T00:24:18.000Z</time></trkpt><trkpt lat="40.09043" lon="-8.43982"><ele>165</ele><time>2022-02-26T00:24:28.000Z</time></trkpt><trkpt lat="40.0904" lon="-8.43975"><time>2022-02-26T00:24:38.000Z</time></trkpt><trkpt lat="40.09038" lon="-8.43968"><time>2022-02-26T00:24:48.000Z</time></trkpt><trkpt lat="40.09037" lon="-8.43962"><time>2022-02-26T00:24:58.000Z</time></trkpt><trkpt lat="40.09037" lon="-8.43918"><ele>165</ele><time>2022-02-26T00:24:47.000Z</time></trkpt><trkpt lat="40.09036" lon="-8.43891"><ele>162</ele><time>2022-02-26T00:24:57.000Z</time></trkpt><trkpt lat="40.09035" lon="-8.43883"><time>2022-02-26T00:25:07.000Z</time></trkpt><trkpt lat="40.09031" lon="-8.43871"><time>2022-02-26T00:25:17.000Z</time></trkpt><trkpt lat="40.09022" lon="-8.43853"><ele>160</ele><time>2022-02-26T00:25:11.000Z</time></trkpt><trkpt lat="40.09019" lon="-8.43845"><time>2022-02-26T00:25:21.000Z</time></trkpt><trkpt lat="40.09018" lon="-8.43837"><time>2022-02-26T00:25:31.000Z</time></trkpt><trkpt lat="40.0902" lon="-8.43829"><time>2022-02-26T00:25:41.000Z</time></trkpt><trkpt lat="40.09024" lon="-8.43824"><ele>159</ele><time>2022-02-26T00:25:23.000Z</time></trkpt><trkpt lat="40.09045" lon="-8.43802"><ele>159</ele><time>2022-02-26T00:25:35.000Z</time></trkpt><trkpt lat="40.0906" lon="-8.43779"><ele>157</ele><time>2022-02-26T00:25:45.000Z</time></trkpt><trkpt lat="40.09093" lon="-8.43744"><ele>157</ele><time>2022-02-26T00:25:55.000Z</time></trkpt><trkpt lat="40.09106" lon="-8.43728"><time>2022-02-26T00:26:05.000Z</time></trkpt><trkpt lat="40.09113" lon="-8.43717"><ele>160</ele><time>2022-02-26T00:26:15.000Z</time></trkpt><trkpt lat="40.09114" lon="-8.43711"><time>2022-02-26T00:26:25.000Z</time></trkpt><trkpt lat="40.09111" lon="-8.43704"><time>2022-02-26T00:26:35.000Z</time></trkpt><trkpt lat="40.09107" lon="-8.43698"><time>2022-02-26T00:26:45.000Z</time></trkpt><trkpt lat="40.09099" lon="-8.43688"><ele>163</ele><time>2022-02-26T00:26:55.000Z</time></trkpt><trkpt lat="40.09096" lon="-8.43681"><time>2022-02-26T00:27:05.000Z</time></trkpt><trkpt lat="40.09091" lon="-8.43676"><time>2022-02-26T00:27:15.000Z</time></trkpt><trkpt lat="40.09083" lon="-8.43663"><ele>162</ele><time>2022-02-26T00:27:25.000Z</time></trkpt><trkpt lat="40.09078" lon="-8.43658"><time>2022-02-26T00:27:35.000Z</time></trkpt><trkpt lat="40.09073" lon="-8.43653"><time>2022-02-26T00:27:45.000Z</time></trkpt><trkpt lat="40.09068" lon="-8.43648"><time>2022-02-26T00:27:55.000Z</time></trkpt><trkpt lat="40.0906" lon="-8.43634"><ele>162</ele><time>2022-02-26T00:28:05.000Z</time></trkpt><trkpt lat="40.09058" lon="-8.43626"><time>2022-02-26T00:28:15.000Z</time></trkpt><trkpt lat="40.09058" lon="-8.43618"><time>2022-02-26T00:28:25.000Z</time></trkpt><trkpt lat="40.0906" lon="-8.4361"><time>2022-02-26T00:28:35.000Z</time></trkpt><trkpt lat="40.09066" lon="-8.43599"><ele>162</ele><time>2022-02-26T00:27:16.000Z</time></trkpt><trkpt lat="40.09071" lon="-8.43593"><time>2022-02-26T00:27:26.000Z</time></trkpt><trkpt lat="40.09073" lon="-8.43586"><time>2022-02-26T00:27:36.000Z</time></trkpt><trkpt lat="40.09073" lon="-8.43573"><ele>162</ele><time>2022-02-26T00:27:26.000Z</time></trkpt><trkpt lat="40.09071" lon="-8.43568"><time>2022-02-26T00:27:36.000Z</time></trkpt><trkpt lat="40.09064" lon="-8.43566"><time>2022-02-26T00:27:46.000Z</time></trkpt><trkpt lat="40.09054" lon="-8.43561"><ele>162</ele><time>2022-02-26T00:27:36.000Z</time></trkpt><trkpt lat="40.09048" lon="-8.4355"><time>2022-02-26T00:27:46.000Z</time></trkpt><trkpt lat="40.09046" lon="-8.43544"><time>2022-02-26T00:27:56.000Z</time></trkpt><trkpt lat="40.0904" lon="-8.43538"><ele>162</ele><time>2022-02-26T00:27:50.000Z</time></trkpt><trkpt lat="40.09034" lon="-8.43534"><time>2022-02-26T00:28:00.000Z</time></trkpt><trkpt lat="40.09018" lon="-8.43528"><ele>166</ele><time>2022-02-26T00:27:59.000Z</time></trkpt><trkpt lat="40.09" lon="-8.43526"><time>2022-02-26T00:28:09.000Z</time></trkpt><trkpt lat="40.08994" lon="-8.43524"><ele>166</ele><time>2022-02-26T00:28:11.000Z</time></trkpt><trkpt lat="40.08983" lon="-8.43523"><time>2022-02-26T00:28:21.000Z</time></trkpt><trkpt lat="40.08974" lon="-8.43517"><ele>168</ele><time>2022-02-26T00:28:23.000Z</time></trkpt><trkpt lat="40.08965" lon="-8.43509"><time>2022-02-26T00:28:33.000Z</time></trkpt><trkpt lat="40.08962" lon="-8.43504"><time>2022-02-26T00:28:43.000Z</time></trkpt><trkpt lat="40.08951" lon="-8.43492"><ele>171</ele><time>2022-02-26T00:28:41.000Z</time></trkpt><trkpt lat="40.08937" lon="-8.4348"><time>2022-02-26T00:28:51.000Z</time></trkpt><trkpt lat="40.08924" lon="-8.43466"><ele>169</ele><time>2022-02-26T00:29:01.000Z</time></trkpt><trkpt lat="40.08918" lon="-8.43461"><time>2022-02-26T00:29:11.000Z</time></trkpt><trkpt lat="40.08912" lon="-8.43458"><time>2022-02-26T00:29:21.000Z</time></trkpt><trkpt lat="40.08903" lon="-8.43455"><ele>167</ele><time>2022-02-26T00:29:12.000Z</time></trkpt><trkpt lat="40.08874" lon="-8.43449"><ele>163</ele><time>2022-02-26T00:29:25.000Z</time></trkpt><trkpt lat="40.08838" lon="-8.43434"><ele>166</ele><time>2022-02-26T00:29:35.000Z</time></trkpt><trkpt lat="40.08833" lon="-8.43432"><time>2022-02-26T00:29:45.000Z</time></trkpt><trkpt lat="40.08827" lon="-8.43432"><time>2022-02-26T00:29:55.000Z</time></trkpt><trkpt lat="40.08803" lon="-8.43429"><ele>164</ele><time>2022-02-26T00:30:00.000Z</time></trkpt><trkpt lat="40.0879" lon="-8.4343"><time>2022-02-26T00:30:10.000Z</time></trkpt><trkpt lat="40.08777" lon="-8.4343"><ele>167</ele><time>2022-02-26T00:30:12.000Z</time></trkpt><trkpt lat="40.08755" lon="-8.43426"><ele>168</ele><time>2022-02-26T00:30:24.000Z</time></trkpt><trkpt lat="40.08744" lon="-8.43424"><time>2022-02-26T00:30:34.000Z</time></trkpt><trkpt lat="40.08739" lon="-8.43422"><time>2022-02-26T00:30:44.000Z</time></trkpt><trkpt lat="40.08734" lon="-8.43423"><ele>167</ele><time>2022-02-26T00:30:54.000Z</time></trkpt><trkpt lat="40.0873" lon="-8.43428"><time>2022-02-26T00:31:04.000Z</time></trkpt><trkpt lat="40.08724" lon="-8.43425"><time>2022-02-26T00:31:14.000Z</time></trkpt><trkpt lat="40.08709" lon="-8.43421"><ele>167</ele><time>2022-02-26T00:30:50.000Z</time></trkpt><trkpt lat="40.08689" lon="-8.43415"><ele>167</ele><time>2022-02-26T00:31:00.000Z</time></trkpt><trkpt lat="40.08676" lon="-8.43409"><time>2022-02-26T00:31:10.000Z</time></trkpt><trkpt lat="40.0867" lon="-8.43405"><time>2022-02-26T00:31:20.000Z</time></trkpt><trkpt lat="40.08667" lon="-8.43399"><ele>165</ele><time>2022-02-26T00:31:30.000Z</time></trkpt><trkpt lat="40.08661" lon="-8.43385"><time>2022-02-26T00:31:40.000Z</time></trkpt><trkpt lat="40.08654" lon="-8.43373"><ele>167</ele><time>2022-02-26T00:31:50.000Z</time></trkpt><trkpt lat="40.08646" lon="-8.43353"><time>2022-02-26T00:32:00.000Z</time></trkpt><trkpt lat="40.08636" lon="-8.43327"><ele>169</ele><time>2022-02-26T00:31:39.000Z</time></trkpt><trkpt lat="40.08628" lon="-8.43314"><time>2022-02-26T00:31:49.000Z</time></trkpt><trkpt lat="40.08624" lon="-8.43308"><time>2022-02-26T00:31:59.000Z</time></trkpt><trkpt lat="40.08615" lon="-8.43298"><ele>170</ele><time>2022-02-26T00:31:55.000Z</time></trkpt><trkpt lat="40.0858" lon="-8.43267"><ele>172</ele><time>2022-02-26T00:32:05.000Z</time></trkpt><trkpt lat="40.08568" lon="-8.43248"><time>2022-02-26T00:32:15.000Z</time></trkpt><trkpt lat="40.08553" lon="-8.43213"><ele>172</ele><time>2022-02-26T00:32:40.000Z</time></trkpt><trkpt lat="40.08535" lon="-8.43179"><ele>166</ele><time>2022-02-26T00:32:55.000Z</time></trkpt><trkpt lat="40.08527" lon="-8.43161"><time>2022-02-26T00:33:05.000Z</time></trkpt><trkpt lat="40.08524" lon="-8.43155"><ele>166</ele><time>2022-02-26T00:33:07.000Z</time></trkpt><trkpt lat="40.08517" lon="-8.43133"><time>2022-02-26T00:33:17.000Z</time></trkpt><trkpt lat="40.08512" lon="-8.43119"><ele>166</ele><time>2022-02-26T00:33:21.000Z</time></trkpt><trkpt lat="40.08507" lon="-8.43109"><time>2022-02-26T00:33:31.000Z</time></trkpt><trkpt lat="40.08502" lon="-8.43095"><ele>166</ele><time>2022-02-26T00:33:31.000Z</time></trkpt><trkpt lat="40.08479" lon="-8.43049"><ele>174</ele><time>2022-02-26T00:33:52.000Z</time></trkpt><trkpt lat="40.08471" lon="-8.43036"><time>2022-02-26T00:34:02.000Z</time></trkpt><trkpt lat="40.08468" lon="-8.4303"><time>2022-02-26T00:34:12.000Z</time></trkpt><trkpt lat="40.0846" lon="-8.43022"><ele>176</ele><time>2022-02-26T00:34:07.000Z</time></trkpt><trkpt lat="40.08439" lon="-8.4301"><ele>178</ele><time>2022-02-26T00:34:17.000Z</time></trkpt><trkpt lat="40.08435" lon="-8.43005"><time>2022-02-26T00:34:27.000Z</time></trkpt><trkpt lat="40.08431" lon="-8.43002"><time>2022-02-26T00:34:37.000Z</time></trkpt><trkpt lat="40.08412" lon="-8.42988"><ele>178</ele><time>2022-02-26T00:34:36.000Z</time></trkpt><trkpt lat="40.0839" lon="-8.42975"><ele>177</ele><time>2022-02-26T00:34:46.000Z</time></trkpt><trkpt lat="40.08386" lon="-8.42971"><time>2022-02-26T00:34:56.000Z</time></trkpt><trkpt lat="40.08382" lon="-8.42957"><time>2022-02-26T00:35:06.000Z</time></trkpt><trkpt lat="40.08377" lon="-8.42945"><ele>175</ele><time>2022-02-26T00:35:16.000Z</time></trkpt><trkpt lat="40.08372" lon="-8.42936"><time>2022-02-26T00:35:26.000Z</time></trkpt><trkpt lat="40.08363" lon="-8.42926"><time>2022-02-26T00:35:36.000Z</time></trkpt><trkpt lat="40.08358" lon="-8.42921"><ele>175</ele><time>2022-02-26T00:35:46.000Z</time></trkpt><trkpt lat="40.08353" lon="-8.42917"><time>2022-02-26T00:35:56.000Z</time></trkpt><trkpt lat="40.08347" lon="-8.42914"><time>2022-02-26T00:36:06.000Z</time></trkpt><trkpt lat="40.08328" lon="-8.42909"><ele>175</ele><time>2022-02-26T00:36:16.000Z</time></trkpt><trkpt lat="40.08322" lon="-8.42906"><time>2022-02-26T00:36:26.000Z</time></trkpt><trkpt lat="40.08317" lon="-8.42902"><time>2022-02-26T00:36:36.000Z</time></trkpt><trkpt lat="40.08312" lon="-8.42897"><time>2022-02-26T00:36:46.000Z</time></trkpt><trkpt lat="40.08302" lon="-8.42881"><ele>176</ele><time>2022-02-26T00:36:56.000Z</time></trkpt><trkpt lat="40.08293" lon="-8.4287"><time>2022-02-26T00:37:06.000Z</time></trkpt><trkpt lat="40.0827" lon="-8.42845"><ele>178</ele><time>2022-02-26T00:37:16.000Z</time></trkpt><trkpt lat="40.08267" lon="-8.42841"><time>2022-02-26T00:37:26.000Z</time></trkpt><trkpt lat="40.08257" lon="-8.42822"><ele>179</ele><time>2022-02-26T00:37:36.000Z</time></trkpt><trkpt lat="40.08253" lon="-8.42817"><time>2022-02-26T00:37:46.000Z</time></trkpt><trkpt lat="40.08249" lon="-8.42814"><time>2022-02-26T00:37:56.000Z</time></trkpt><trkpt lat="40.08223" lon="-8.42795"><ele>180</ele><time>2022-02-26T00:38:06.000Z</time></trkpt><trkpt lat="40.08219" lon="-8.4279"><time>2022-02-26T00:38:16.000Z</time></trkpt><trkpt lat="40.0822" lon="-8.42783"><time>2022-02-26T00:38:26.000Z</time></trkpt><trkpt lat="40.08227" lon="-8.42761"><ele>182</ele><time>2022-02-26T00:38:36.000Z</time></trkpt><trkpt lat="40.08231" lon="-8.42748"><time>2022-02-26T00:38:46.000Z</time></trkpt><trkpt lat="40.08232" lon="-8.42741"><time>2022-02-26T00:38:56.000Z</time></trkpt><trkpt lat="40.08231" lon="-8.42733"><ele>183</ele><time>2022-02-26T00:39:06.000Z</time></trkpt><trkpt lat="40.08228" lon="-8.42727"><time>2022-02-26T00:39:16.000Z</time></trkpt><trkpt lat="40.08224" lon="-8.42723"><time>2022-02-26T00:39:26.000Z</time></trkpt><trkpt lat="40.08212" lon="-8.42708"><ele>182</ele><time>2022-02-26T00:39:36.000Z</time></trkpt><trkpt lat="40.08203" lon="-8.427"><time>2022-02-26T00:39:46.000Z</time></trkpt><trkpt lat="40.08188" lon="-8.4269"><ele>182</ele><time>2022-02-26T00:39:56.000Z</time></trkpt><trkpt lat="40.08172" lon="-8.42682"><time>2022-02-26T00:40:06.000Z</time></trkpt><trkpt lat="40.0815" lon="-8.42671"><ele>182</ele><time>2022-02-26T00:37:53.000Z</time></trkpt><trkpt lat="40.08139" lon="-8.42663"><time>2022-02-26T00:38:03.000Z</time></trkpt><trkpt lat="40.08134" lon="-8.42659"><time>2022-02-26T00:38:13.000Z</time></trkpt><trkpt lat="40.08131" lon="-8.42652"><ele>182</ele><time>2022-02-26T00:38:05.000Z</time></trkpt><trkpt lat="40.0813" lon="-8.42646"><time>2022-02-26T00:38:15.000Z</time></trkpt><trkpt lat="40.08131" lon="-8.42638"><time>2022-02-26T00:38:25.000Z</time></trkpt><trkpt lat="40.08134" lon="-8.42624"><ele>184</ele><time>2022-02-26T00:38:17.000Z</time></trkpt><trkpt lat="40.08136" lon="-8.4261"><time>2022-02-26T00:38:27.000Z</time></trkpt><trkpt lat="40.0814" lon="-8.42595"><ele>186</ele><time>2022-02-26T00:38:29.000Z</time></trkpt><trkpt lat="40.08139" lon="-8.42587"><time>2022-02-26T00:38:39.000Z</time></trkpt><trkpt lat="40.08137" lon="-8.42581"><time>2022-02-26T00:38:49.000Z</time></trkpt><trkpt lat="40.0813" lon="-8.42569"><ele>185</ele><time>2022-02-26T00:38:41.000Z</time></trkpt><trkpt lat="40.08117" lon="-8.42553"><time>2022-02-26T00:38:51.000Z</time></trkpt><trkpt lat="40.08108" lon="-8.42543"><ele>185</ele><time>2022-02-26T00:38:55.000Z</time></trkpt><trkpt lat="40.08093" lon="-8.42531"><time>2022-02-26T00:39:05.000Z</time></trkpt><trkpt lat="40.08089" lon="-8.42526"><ele>186</ele><time>2022-02-26T00:39:07.000Z</time></trkpt><trkpt lat="40.08084" lon="-8.42522"><time>2022-02-26T00:39:17.000Z</time></trkpt><trkpt lat="40.08079" lon="-8.42521"><time>2022-02-26T00:39:27.000Z</time></trkpt><trkpt lat="40.08073" lon="-8.42524"><time>2022-02-26T00:39:37.000Z</time></trkpt><trkpt lat="40.08069" lon="-8.42529"><ele>186</ele><time>2022-02-26T00:39:19.000Z</time></trkpt><trkpt lat="40.08064" lon="-8.42533"><time>2022-02-26T00:39:29.000Z</time></trkpt><trkpt lat="40.08059" lon="-8.42535"><time>2022-02-26T00:39:39.000Z</time></trkpt><trkpt lat="40.08046" lon="-8.42536"><ele>186</ele><time>2022-02-26T00:39:31.000Z</time></trkpt><trkpt lat="40.08034" lon="-8.42532"><time>2022-02-26T00:39:41.000Z</time></trkpt><trkpt lat="40.08019" lon="-8.42525"><ele>184</ele><time>2022-02-26T00:39:46.000Z</time></trkpt><trkpt lat="40.08006" lon="-8.42521"><time>2022-02-26T00:39:56.000Z</time></trkpt><trkpt lat="40.07997" lon="-8.42512"><ele>184</ele><time>2022-02-26T00:40:06.000Z</time></trkpt><trkpt lat="40.0799" lon="-8.4251"><time>2022-02-26T00:40:16.000Z</time></trkpt><trkpt lat="40.07971" lon="-8.42488"><ele>184</ele><time>2022-02-26T00:40:26.000Z</time></trkpt><trkpt lat="40.0796" lon="-8.42479"><time>2022-02-26T00:40:36.000Z</time></trkpt><trkpt lat="40.07932" lon="-8.42461"><ele>188</ele><time>2022-02-26T00:40:32.000Z</time></trkpt><trkpt lat="40.07911" lon="-8.42451"><ele>188</ele><time>2022-02-26T00:40:42.000Z</time></trkpt><trkpt lat="40.07896" lon="-8.4244"><time>2022-02-26T00:40:52.000Z</time></trkpt><trkpt lat="40.07883" lon="-8.42425"><ele>192</ele><time>2022-02-26T00:40:58.000Z</time></trkpt><trkpt lat="40.07872" lon="-8.42415"><time>2022-02-26T00:41:08.000Z</time></trkpt><trkpt lat="40.07863" lon="-8.42403"><ele>188</ele><time>2022-02-26T00:41:10.000Z</time></trkpt><trkpt lat="40.0786" lon="-8.42397"><time>2022-02-26T00:41:20.000Z</time></trkpt><trkpt lat="40.07855" lon="-8.42393"><time>2022-02-26T00:41:30.000Z</time></trkpt><trkpt lat="40.07844" lon="-8.42386"><ele>185</ele><time>2022-02-26T00:41:22.000Z</time></trkpt><trkpt lat="40.0782" lon="-8.42376"><ele>185</ele><time>2022-02-26T00:41:32.000Z</time></trkpt><trkpt lat="40.07809" lon="-8.4237"><time>2022-02-26T00:41:42.000Z</time></trkpt><trkpt lat="40.07788" lon="-8.42358"><ele>188</ele><time>2022-02-26T00:41:52.000Z</time></trkpt><trkpt lat="40.07778" lon="-8.42349"><time>2022-02-26T00:42:02.000Z</time></trkpt><trkpt lat="40.07749" lon="-8.42323"><ele>190</ele><time>2022-02-26T00:42:12.000Z</time></trkpt><trkpt lat="40.07745" lon="-8.42317"><time>2022-02-26T00:42:22.000Z</time></trkpt><trkpt lat="40.07738" lon="-8.42305"><time>2022-02-26T00:42:32.000Z</time></trkpt><trkpt lat="40.07735" lon="-8.42298"><ele>189</ele><time>2022-02-26T00:42:42.000Z</time></trkpt><trkpt lat="40.07733" lon="-8.42291"><time>2022-02-26T00:42:52.000Z</time></trkpt><trkpt lat="40.07729" lon="-8.42262"><ele>189</ele><time>2022-02-26T00:43:02.000Z</time></trkpt><trkpt lat="40.07726" lon="-8.42247"><time>2022-02-26T00:43:12.000Z</time></trkpt><trkpt lat="40.07724" lon="-8.4224"><time>2022-02-26T00:43:22.000Z</time></trkpt><trkpt lat="40.07719" lon="-8.42226"><ele>192</ele><time>2022-02-26T00:43:32.000Z</time></trkpt><trkpt lat="40.07713" lon="-8.42212"><time>2022-02-26T00:43:42.000Z</time></trkpt><trkpt lat="40.07704" lon="-8.42193"><ele>192</ele><time>2022-02-26T00:43:52.000Z</time></trkpt><trkpt lat="40.077" lon="-8.42187"><time>2022-02-26T00:44:02.000Z</time></trkpt><trkpt lat="40.0769" lon="-8.42177"><time>2022-02-26T00:44:12.000Z</time></trkpt><trkpt lat="40.07644" lon="-8.42145"><ele>193</ele><time>2022-02-26T00:43:42.000Z</time></trkpt><trkpt lat="40.0763" lon="-8.42133"><time>2022-02-26T00:43:52.000Z</time></trkpt><trkpt lat="40.07615" lon="-8.42118"><ele>194</ele><time>2022-02-26T00:44:00.000Z</time></trkpt><trkpt lat="40.07605" lon="-8.4211"><time>2022-02-26T00:44:10.000Z</time></trkpt><trkpt lat="40.07601" lon="-8.42106"><time>2022-02-26T00:44:20.000Z</time></trkpt><trkpt lat="40.07598" lon="-8.42099"><ele>195</ele><time>2022-02-26T00:44:30.000Z</time></trkpt><trkpt lat="40.07594" lon="-8.42094"><time>2022-02-26T00:44:40.000Z</time></trkpt><trkpt lat="40.07582" lon="-8.42084"><time>2022-02-26T00:44:50.000Z</time></trkpt><trkpt lat="40.07578" lon="-8.42081"><ele>197</ele><time>2022-02-26T00:45:00.000Z</time></trkpt><trkpt lat="40.07575" lon="-8.42075"><time>2022-02-26T00:45:10.000Z</time></trkpt><trkpt lat="40.07577" lon="-8.4205"><ele>198</ele><time>2022-02-26T00:45:20.000Z</time></trkpt><trkpt lat="40.07576" lon="-8.42034"><time>2022-02-26T00:45:30.000Z</time></trkpt><trkpt lat="40.07575" lon="-8.42027"><time>2022-02-26T00:45:40.000Z</time></trkpt><trkpt lat="40.07572" lon="-8.42014"><ele>200</ele><time>2022-02-26T00:45:50.000Z</time></trkpt><trkpt lat="40.07571" lon="-8.42007"><time>2022-02-26T00:46:00.000Z</time></trkpt><trkpt lat="40.0757" lon="-8.42"><time>2022-02-26T00:46:10.000Z</time></trkpt><trkpt lat="40.07571" lon="-8.41993"><time>2022-02-26T00:46:20.000Z</time></trkpt><trkpt lat="40.07577" lon="-8.4199"><ele>203</ele><time>2022-02-26T00:46:30.000Z</time></trkpt><trkpt lat="40.07581" lon="-8.4199"><time>2022-02-26T00:46:40.000Z</time></trkpt><trkpt lat="40.07586" lon="-8.41986"><time>2022-02-26T00:46:50.000Z</time></trkpt><trkpt lat="40.0759" lon="-8.41982"><time>2022-02-26T00:47:00.000Z</time></trkpt><trkpt lat="40.07597" lon="-8.41963"><ele>206</ele><time>2022-02-26T00:45:37.000Z</time></trkpt><trkpt lat="40.07612" lon="-8.41939"><ele>210</ele><time>2022-02-26T00:45:47.000Z</time></trkpt><trkpt lat="40.07616" lon="-8.41926"><time>2022-02-26T00:45:57.000Z</time></trkpt><trkpt lat="40.07628" lon="-8.419"><ele>210</ele><time>2022-02-26T00:46:07.000Z</time></trkpt><trkpt lat="40.07631" lon="-8.41895"><time>2022-02-26T00:46:17.000Z</time></trkpt><trkpt lat="40.07637" lon="-8.41886"><time>2022-02-26T00:46:27.000Z</time></trkpt><trkpt lat="40.07647" lon="-8.4187"><ele>210</ele><time>2022-02-26T00:46:17.000Z</time></trkpt><trkpt lat="40.07652" lon="-8.4186"><time>2022-02-26T00:46:27.000Z</time></trkpt><trkpt lat="40.07654" lon="-8.41854"><time>2022-02-26T00:46:37.000Z</time></trkpt><trkpt lat="40.07655" lon="-8.41847"><time>2022-02-26T00:46:47.000Z</time></trkpt><trkpt lat="40.07656" lon="-8.41842"><ele>215</ele><time>2022-02-26T00:46:27.000Z</time></trkpt><trkpt lat="40.07654" lon="-8.41834"><time>2022-02-26T00:46:37.000Z</time></trkpt><trkpt lat="40.0765" lon="-8.41829"><time>2022-02-26T00:46:47.000Z</time></trkpt><trkpt lat="40.07645" lon="-8.41827"><time>2022-02-26T00:46:57.000Z</time></trkpt><trkpt lat="40.07639" lon="-8.4183"><ele>216</ele><time>2022-02-26T00:46:39.000Z</time></trkpt><trkpt lat="40.07622" lon="-8.41844"><time>2022-02-26T00:46:49.000Z</time></trkpt><trkpt lat="40.07612" lon="-8.41845"><ele>221</ele><time>2022-02-26T00:46:54.000Z</time></trkpt><trkpt lat="40.07608" lon="-8.41844"><time>2022-02-26T00:47:04.000Z</time></trkpt><trkpt lat="40.07603" lon="-8.41842"><time>2022-02-26T00:47:14.000Z</time></trkpt><trkpt lat="40.07599" lon="-8.41837"><time>2022-02-26T00:47:24.000Z</time></trkpt><trkpt lat="40.07596" lon="-8.41831"><ele>225</ele><time>2022-02-26T00:47:07.000Z</time></trkpt><trkpt lat="40.07593" lon="-8.41824"><time>2022-02-26T00:47:17.000Z</time></trkpt><trkpt lat="40.0759" lon="-8.41818"><time>2022-02-26T00:47:27.000Z</time></trkpt><trkpt lat="40.07587" lon="-8.41814"><time>2022-02-26T00:47:37.000Z</time></trkpt><trkpt lat="40.07582" lon="-8.4181"><ele>225</ele><time>2022-02-26T00:47:20.000Z</time></trkpt><trkpt lat="40.07579" lon="-8.41805"><time>2022-02-26T00:47:30.000Z</time></trkpt><trkpt lat="40.07565" lon="-8.41795"><ele>233</ele><time>2022-02-26T00:47:35.000Z</time></trkpt><trkpt lat="40.0756" lon="-8.41793"><time>2022-02-26T00:47:45.000Z</time></trkpt><trkpt lat="40.07551" lon="-8.41789"><time>2022-02-26T00:47:55.000Z</time></trkpt><trkpt lat="40.07546" lon="-8.41786"><ele>236</ele><time>2022-02-26T00:47:49.000Z</time></trkpt><trkpt lat="40.07542" lon="-8.41781"><time>2022-02-26T00:47:59.000Z</time></trkpt><trkpt lat="40.07539" lon="-8.41775"><time>2022-02-26T00:48:09.000Z</time></trkpt><trkpt lat="40.07537" lon="-8.41769"><time>2022-02-26T00:48:19.000Z</time></trkpt><trkpt lat="40.07536" lon="-8.41762"><ele>236</ele><time>2022-02-26T00:48:03.000Z</time></trkpt><trkpt lat="40.07536" lon="-8.41741"><time>2022-02-26T00:48:13.000Z</time></trkpt><trkpt lat="40.07536" lon="-8.41734"><ele>237</ele><time>2022-02-26T00:48:23.000Z</time></trkpt><trkpt lat="40.07534" lon="-8.41727"><time>2022-02-26T00:48:33.000Z</time></trkpt><trkpt lat="40.07519" lon="-8.41691"><ele>239</ele><time>2022-02-26T00:48:43.000Z</time></trkpt><trkpt lat="40.07511" lon="-8.41674"><time>2022-02-26T00:48:53.000Z</time></trkpt><trkpt lat="40.075" lon="-8.41648"><ele>246</ele><time>2022-02-26T00:49:03.000Z</time></trkpt><trkpt lat="40.07497" lon="-8.41643"><time>2022-02-26T00:49:13.000Z</time></trkpt><trkpt lat="40.07483" lon="-8.41612"><ele>251</ele><time>2022-02-26T00:49:23.000Z</time></trkpt><trkpt lat="40.0748" lon="-8.41606"><time>2022-02-26T00:49:33.000Z</time></trkpt><trkpt lat="40.07475" lon="-8.41602"><time>2022-02-26T00:49:43.000Z</time></trkpt><trkpt lat="40.07457" lon="-8.41587"><ele>253</ele><time>2022-02-26T00:49:53.000Z</time></trkpt><trkpt lat="40.07448" lon="-8.41578"><time>2022-02-26T00:50:03.000Z</time></trkpt><trkpt lat="40.07446" lon="-8.41574"><time>2022-02-26T00:50:13.000Z</time></trkpt><trkpt lat="40.07438" lon="-8.41554"><ele>255</ele><time>2022-02-26T00:50:07.000Z</time></trkpt><trkpt lat="40.07433" lon="-8.41542"><time>2022-02-26T00:50:17.000Z</time></trkpt><trkpt lat="40.07429" lon="-8.41537"><time>2022-02-26T00:50:27.000Z</time></trkpt><trkpt lat="40.07419" lon="-8.41523"><ele>255</ele><time>2022-02-26T00:50:20.000Z</time></trkpt><trkpt lat="40.07398" lon="-8.41499"><ele>255</ele><time>2022-02-26T00:50:30.000Z</time></trkpt><trkpt lat="40.07389" lon="-8.41491"><time>2022-02-26T00:50:40.000Z</time></trkpt><trkpt lat="40.07386" lon="-8.41485"><time>2022-02-26T00:50:50.000Z</time></trkpt><trkpt lat="40.0738" lon="-8.41473"><ele>257</ele><time>2022-02-26T00:51:00.000Z</time></trkpt><trkpt lat="40.07377" lon="-8.41466"><time>2022-02-26T00:51:10.000Z</time></trkpt><trkpt lat="40.07375" lon="-8.4146"><time>2022-02-26T00:51:20.000Z</time></trkpt><trkpt lat="40.07372" lon="-8.41447"><ele>258</ele><time>2022-02-26T00:51:30.000Z</time></trkpt><trkpt lat="40.0737" lon="-8.4144"><time>2022-02-26T00:51:40.000Z</time></trkpt><trkpt lat="40.07367" lon="-8.41435"><time>2022-02-26T00:51:50.000Z</time></trkpt><trkpt lat="40.07364" lon="-8.41431"><time>2022-02-26T00:52:00.000Z</time></trkpt><trkpt lat="40.07356" lon="-8.41424"><ele>265</ele><time>2022-02-26T00:52:10.000Z</time></trkpt><trkpt lat="40.07347" lon="-8.41418"><time>2022-02-26T00:52:20.000Z</time></trkpt><trkpt lat="40.07337" lon="-8.41415"><time>2022-02-26T00:52:30.000Z</time></trkpt><trkpt lat="40.07332" lon="-8.41415"><ele>267</ele><time>2022-02-26T00:52:40.000Z</time></trkpt><trkpt lat="40.07322" lon="-8.41416"><time>2022-02-26T00:52:50.000Z</time></trkpt><trkpt lat="40.07293" lon="-8.41422"><ele>269</ele><time>2022-02-26T00:53:00.000Z</time></trkpt><trkpt lat="40.07282" lon="-8.41423"><time>2022-02-26T00:53:10.000Z</time></trkpt><trkpt lat="40.07259" lon="-8.4142"><ele>270</ele><time>2022-02-26T00:52:18.000Z</time></trkpt><trkpt lat="40.07224" lon="-8.41411"><ele>272</ele><time>2022-02-26T00:52:35.000Z</time></trkpt><trkpt lat="40.07203" lon="-8.41398"><ele>276</ele><time>2022-02-26T00:52:46.000Z</time></trkpt><trkpt lat="40.07187" lon="-8.41387"><time>2022-02-26T00:52:56.000Z</time></trkpt><trkpt lat="40.07182" lon="-8.41383"><ele>280</ele><time>2022-02-26T00:53:06.000Z</time></trkpt><trkpt lat="40.07177" lon="-8.41377"><time>2022-02-26T00:53:16.000Z</time></trkpt><trkpt lat="40.07175" lon="-8.4137"><time>2022-02-26T00:53:26.000Z</time></trkpt><trkpt lat="40.07171" lon="-8.41342"><ele>283</ele><time>2022-02-26T00:53:36.000Z</time></trkpt><trkpt lat="40.07173" lon="-8.41326"><time>2022-02-26T00:53:46.000Z</time></trkpt><trkpt lat="40.07181" lon="-8.4129"><ele>286</ele><time>2022-02-26T00:53:56.000Z</time></trkpt><trkpt lat="40.07183" lon="-8.41284"><time>2022-02-26T00:54:06.000Z</time></trkpt><trkpt lat="40.07191" lon="-8.41263"><ele>290</ele><time>2022-02-26T00:54:16.000Z</time></trkpt><trkpt lat="40.07195" lon="-8.41256"><time>2022-02-26T00:54:26.000Z</time></trkpt><trkpt lat="40.07206" lon="-8.41237"><ele>294</ele><time>2022-02-26T00:54:36.000Z</time></trkpt><trkpt lat="40.07209" lon="-8.41231"><time>2022-02-26T00:54:46.000Z</time></trkpt><trkpt lat="40.07212" lon="-8.41216"><time>2022-02-26T00:54:56.000Z</time></trkpt><trkpt lat="40.07216" lon="-8.41202"><ele>295</ele><time>2022-02-26T00:55:06.000Z</time></trkpt><trkpt lat="40.07218" lon="-8.41196"><time>2022-02-26T00:55:16.000Z</time></trkpt><trkpt lat="40.07223" lon="-8.4118"><time>2022-02-26T00:55:26.000Z</time></trkpt><trkpt lat="40.07227" lon="-8.41168"><ele>296</ele><time>2022-02-26T00:55:36.000Z</time></trkpt><trkpt lat="40.07228" lon="-8.41155"><time>2022-02-26T00:55:46.000Z</time></trkpt><trkpt lat="40.07228" lon="-8.41107"><ele>297</ele><time>2022-02-26T00:54:58.000Z</time></trkpt><trkpt lat="40.07226" lon="-8.41085"><time>2022-02-26T00:55:08.000Z</time></trkpt><trkpt lat="40.07224" lon="-8.41079"><ele>298</ele><time>2022-02-26T00:55:18.000Z</time></trkpt><trkpt lat="40.0722" lon="-8.41069"><time>2022-02-26T00:55:28.000Z</time></trkpt><trkpt lat="40.07216" lon="-8.41064"><time>2022-02-26T00:55:38.000Z</time></trkpt><trkpt lat="40.07202" lon="-8.4105"><ele>300</ele><time>2022-02-26T00:55:27.000Z</time></trkpt><trkpt lat="40.07192" lon="-8.41042"><time>2022-02-26T00:55:37.000Z</time></trkpt><trkpt lat="40.07187" lon="-8.41036"><time>2022-02-26T00:55:47.000Z</time></trkpt><trkpt lat="40.07178" lon="-8.41027"><ele>301</ele><time>2022-02-26T00:55:41.000Z</time></trkpt><trkpt lat="40.07162" lon="-8.41004"><ele>302</ele><time>2022-02-26T00:55:53.000Z</time></trkpt><trkpt lat="40.0716" lon="-8.40998"><time>2022-02-26T00:56:03.000Z</time></trkpt><trkpt lat="40.07158" lon="-8.40992"><time>2022-02-26T00:56:13.000Z</time></trkpt><trkpt lat="40.07155" lon="-8.40975"><ele>303</ele><time>2022-02-26T00:56:05.000Z</time></trkpt><trkpt lat="40.07149" lon="-8.40945"><ele>307</ele><time>2022-02-26T00:56:15.000Z</time></trkpt><trkpt lat="40.07148" lon="-8.40938"><time>2022-02-26T00:56:25.000Z</time></trkpt><trkpt lat="40.07146" lon="-8.40911"><ele>310</ele><time>2022-02-26T00:56:34.000Z</time></trkpt><trkpt lat="40.07149" lon="-8.40897"><time>2022-02-26T00:56:44.000Z</time></trkpt><trkpt lat="40.07154" lon="-8.40879"><ele>314</ele><time>2022-02-26T00:56:54.000Z</time></trkpt><trkpt lat="40.07157" lon="-8.40867"><time>2022-02-26T00:57:04.000Z</time></trkpt><trkpt lat="40.07159" lon="-8.40842"><ele>316</ele><time>2022-02-26T00:57:12.000Z</time></trkpt><trkpt lat="40.07164" lon="-8.40809"><ele>321</ele><time>2022-02-26T00:57:29.000Z</time></trkpt><trkpt lat="40.07165" lon="-8.40774"><ele>323</ele><time>2022-02-26T00:57:47.000Z</time></trkpt><trkpt lat="40.0717" lon="-8.40754"><time>2022-02-26T00:57:57.000Z</time></trkpt><trkpt lat="40.07172" lon="-8.40749"><ele>325</ele><time>2022-02-26T00:58:07.000Z</time></trkpt><trkpt lat="40.07175" lon="-8.40742"><time>2022-02-26T00:58:17.000Z</time></trkpt><trkpt lat="40.07183" lon="-8.40732"><time>2022-02-26T00:58:27.000Z</time></trkpt><trkpt lat="40.07187" lon="-8.40721"><ele>325</ele><time>2022-02-26T00:58:37.000Z</time></trkpt><trkpt lat="40.07188" lon="-8.40713"><time>2022-02-26T00:58:47.000Z</time></trkpt><trkpt lat="40.07187" lon="-8.40707"><time>2022-02-26T00:58:57.000Z</time></trkpt><trkpt lat="40.07188" lon="-8.40685"><ele>320</ele><time>2022-02-26T00:59:07.000Z</time></trkpt><trkpt lat="40.0719" lon="-8.40667"><time>2022-02-26T00:59:17.000Z</time></trkpt><trkpt lat="40.0719" lon="-8.40637"><ele>320</ele><time>2022-02-26T00:59:27.000Z</time></trkpt><trkpt lat="40.07189" lon="-8.40624"><time>2022-02-26T00:59:37.000Z</time></trkpt><trkpt lat="40.07189" lon="-8.40591"><ele>320</ele><time>2022-02-26T00:59:47.000Z</time></trkpt><trkpt lat="40.07188" lon="-8.40579"><time>2022-02-26T00:59:57.000Z</time></trkpt><trkpt lat="40.07187" lon="-8.40572"><time>2022-02-26T01:00:07.000Z</time></trkpt><trkpt lat="40.07181" lon="-8.40546"><ele>317</ele><time>2022-02-26T00:59:13.000Z</time></trkpt><trkpt lat="40.07179" lon="-8.40525"><time>2022-02-26T00:59:23.000Z</time></trkpt><trkpt lat="40.07177" lon="-8.40513"><ele>315</ele><time>2022-02-26T00:59:24.000Z</time></trkpt><trkpt lat="40.07175" lon="-8.40501"><time>2022-02-26T00:59:34.000Z</time></trkpt><trkpt lat="40.07174" lon="-8.40477"><ele>315</ele><time>2022-02-26T00:59:36.000Z</time></trkpt><trkpt lat="40.0717" lon="-8.40444"><ele>314</ele><time>2022-02-26T00:59:46.000Z</time></trkpt><trkpt lat="40.0717" lon="-8.40439"><time>2022-02-26T00:59:56.000Z</time></trkpt><trkpt lat="40.0717" lon="-8.40432"><time>2022-02-26T01:00:06.000Z</time></trkpt><trkpt lat="40.07171" lon="-8.40427"><time>2022-02-26T01:00:16.000Z</time></trkpt><trkpt lat="40.07173" lon="-8.40419"><time>2022-02-26T01:00:26.000Z</time></trkpt><trkpt lat="40.07174" lon="-8.40411"><ele>314</ele><time>2022-02-26T01:00:36.000Z</time></trkpt><trkpt lat="40.07172" lon="-8.40404"><time>2022-02-26T01:00:46.000Z</time></trkpt><trkpt lat="40.07166" lon="-8.40392"><time>2022-02-26T01:00:56.000Z</time></trkpt><trkpt lat="40.07165" lon="-8.40384"><ele>313</ele><time>2022-02-26T01:01:06.000Z</time></trkpt><trkpt lat="40.07162" lon="-8.40364"><time>2022-02-26T01:01:16.000Z</time></trkpt><trkpt lat="40.07156" lon="-8.40337"><ele>308</ele><time>2022-02-26T01:01:26.000Z</time></trkpt><trkpt lat="40.0715" lon="-8.40319"><time>2022-02-26T01:01:36.000Z</time></trkpt><trkpt lat="40.07146" lon="-8.40313"><ele>308</ele><time>2022-02-26T01:01:46.000Z</time></trkpt><trkpt lat="40.07134" lon="-8.40297"><time>2022-02-26T01:01:56.000Z</time></trkpt><trkpt lat="40.07123" lon="-8.40287"><ele>304</ele><time>2022-02-26T01:02:06.000Z</time></trkpt><trkpt lat="40.07117" lon="-8.40282"><time>2022-02-26T01:02:16.000Z</time></trkpt><trkpt lat="40.07111" lon="-8.4028"><time>2022-02-26T01:02:26.000Z</time></trkpt><trkpt lat="40.07106" lon="-8.40282"><time>2022-02-26T01:02:36.000Z</time></trkpt><trkpt lat="40.07102" lon="-8.40285"><ele>304</ele><time>2022-02-26T01:02:46.000Z</time></trkpt><trkpt lat="40.0709" lon="-8.403"><time>2022-02-26T01:02:56.000Z</time></trkpt><trkpt lat="40.07082" lon="-8.40309"><ele>302</ele><time>2022-02-26T01:03:06.000Z</time></trkpt><trkpt lat="40.07063" lon="-8.40318"><time>2022-02-26T01:03:16.000Z</time></trkpt><trkpt lat="40.07043" lon="-8.40326"><ele>291</ele><time>2022-02-26T01:03:26.000Z</time></trkpt><trkpt lat="40.07036" lon="-8.40326"><time>2022-02-26T01:03:36.000Z</time></trkpt><trkpt lat="40.07024" lon="-8.40326"><time>2022-02-26T01:03:46.000Z</time></trkpt><trkpt lat="40.07007" lon="-8.40329"><ele>286</ele><time>2022-02-26T01:03:56.000Z</time></trkpt><trkpt lat="40.06998" lon="-8.40332"><time>2022-02-26T01:04:06.000Z</time></trkpt><trkpt lat="40.06992" lon="-8.40335"><time>2022-02-26T01:04:16.000Z</time></trkpt><trkpt lat="40.06982" lon="-8.40343"><ele>285</ele><time>2022-02-26T01:04:26.000Z</time></trkpt><trkpt lat="40.06976" lon="-8.40345"><time>2022-02-26T01:04:36.000Z</time></trkpt><trkpt lat="40.0695" lon="-8.40346"><ele>290</ele><time>2022-02-26T01:02:10.000Z</time></trkpt><trkpt lat="40.06937" lon="-8.40348"><time>2022-02-26T01:02:20.000Z</time></trkpt><trkpt lat="40.06931" lon="-8.40351"><time>2022-02-26T01:02:30.000Z</time></trkpt><trkpt lat="40.06923" lon="-8.40356"><ele>295</ele><time>2022-02-26T01:02:23.000Z</time></trkpt><trkpt lat="40.06904" lon="-8.40372"><ele>296</ele><time>2022-02-26T01:02:33.000Z</time></trkpt><trkpt lat="40.06899" lon="-8.40375"><time>2022-02-26T01:02:43.000Z</time></trkpt><trkpt lat="40.06894" lon="-8.40376"><time>2022-02-26T01:02:53.000Z</time></trkpt><trkpt lat="40.06888" lon="-8.40377"><time>2022-02-26T01:03:03.000Z</time></trkpt><trkpt lat="40.06883" lon="-8.40376"><ele>296</ele><time>2022-02-26T01:03:13.000Z</time></trkpt><trkpt lat="40.06868" lon="-8.4037"><time>2022-02-26T01:03:23.000Z</time></trkpt><trkpt lat="40.0686" lon="-8.40361"><ele>296</ele><time>2022-02-26T01:03:33.000Z</time></trkpt><trkpt lat="40.06851" lon="-8.40352"><time>2022-02-26T01:03:43.000Z</time></trkpt><trkpt lat="40.06847" lon="-8.40346"><time>2022-02-26T01:03:53.000Z</time></trkpt><trkpt lat="40.06837" lon="-8.40341"><ele>295</ele><time>2022-02-26T01:04:03.000Z</time></trkpt><trkpt lat="40.06832" lon="-8.40336"><time>2022-02-26T01:04:13.000Z</time></trkpt><trkpt lat="40.06819" lon="-8.40321"><ele>294</ele><time>2022-02-26T01:04:23.000Z</time></trkpt><trkpt lat="40.0681" lon="-8.40313"><time>2022-02-26T01:04:33.000Z</time></trkpt><trkpt lat="40.06803" lon="-8.40302"><ele>294</ele><time>2022-02-26T01:04:43.000Z</time></trkpt><trkpt lat="40.06792" lon="-8.40292"><time>2022-02-26T01:04:53.000Z</time></trkpt><trkpt lat="40.06772" lon="-8.40264"><ele>293</ele><time>2022-02-26T01:05:03.000Z</time></trkpt><trkpt lat="40.06767" lon="-8.40259"><time>2022-02-26T01:05:13.000Z</time></trkpt><trkpt lat="40.06756" lon="-8.40251"><time>2022-02-26T01:05:23.000Z</time></trkpt><trkpt lat="40.06751" lon="-8.40247"><ele>293</ele><time>2022-02-26T01:05:33.000Z</time></trkpt><trkpt lat="40.06747" lon="-8.4024"><time>2022-02-26T01:05:43.000Z</time></trkpt><trkpt lat="40.06745" lon="-8.40233"><time>2022-02-26T01:05:53.000Z</time></trkpt><trkpt lat="40.06735" lon="-8.40203"><ele>293</ele><time>2022-02-26T01:04:28.000Z</time></trkpt><trkpt lat="40.0672" lon="-8.40161"><ele>293</ele><time>2022-02-26T01:04:38.000Z</time></trkpt><trkpt lat="40.06717" lon="-8.40155"><time>2022-02-26T01:04:48.000Z</time></trkpt><trkpt lat="40.06714" lon="-8.40149"><time>2022-02-26T01:04:58.000Z</time></trkpt><trkpt lat="40.0671" lon="-8.40137"><ele>286</ele><time>2022-02-26T01:05:08.000Z</time></trkpt><trkpt lat="40.06704" lon="-8.40126"><time>2022-02-26T01:05:18.000Z</time></trkpt><trkpt lat="40.06693" lon="-8.40117"><ele>286</ele><time>2022-02-26T01:05:28.000Z</time></trkpt><trkpt lat="40.06689" lon="-8.40111"><time>2022-02-26T01:05:38.000Z</time></trkpt><trkpt lat="40.06683" lon="-8.40106"><time>2022-02-26T01:05:48.000Z</time></trkpt><trkpt lat="40.06669" lon="-8.40095"><ele>282</ele><time>2022-02-26T01:05:58.000Z</time></trkpt><trkpt lat="40.06663" lon="-8.40092"><time>2022-02-26T01:06:08.000Z</time></trkpt><trkpt lat="40.06647" lon="-8.40084"><ele>275</ele><time>2022-02-26T01:06:18.000Z</time></trkpt><trkpt lat="40.06642" lon="-8.4008"><time>2022-02-26T01:06:28.000Z</time></trkpt><trkpt lat="40.06637" lon="-8.40077"><time>2022-02-26T01:06:38.000Z</time></trkpt><trkpt lat="40.06631" lon="-8.40076"><time>2022-02-26T01:06:48.000Z</time></trkpt><trkpt lat="40.0662" lon="-8.40076"><ele>272</ele><time>2022-02-26T01:06:58.000Z</time></trkpt><trkpt lat="40.06615" lon="-8.40074"><time>2022-02-26T01:07:08.000Z</time></trkpt><trkpt lat="40.0661" lon="-8.40069"><time>2022-02-26T01:07:18.000Z</time></trkpt><trkpt lat="40.06607" lon="-8.40065"><time>2022-02-26T01:07:28.000Z</time></trkpt><trkpt lat="40.06604" lon="-8.40057"><ele>270</ele><time>2022-02-26T01:07:38.000Z</time></trkpt><trkpt lat="40.06602" lon="-8.40043"><time>2022-02-26T01:07:48.000Z</time></trkpt><trkpt lat="40.06603" lon="-8.40011"><ele>266</ele><time>2022-02-26T01:06:08.000Z</time></trkpt><trkpt lat="40.06602" lon="-8.39996"><time>2022-02-26T01:06:18.000Z</time></trkpt><trkpt lat="40.06601" lon="-8.39988"><time>2022-02-26T01:06:28.000Z</time></trkpt><trkpt lat="40.06599" lon="-8.39982"><ele>257</ele><time>2022-02-26T01:06:38.000Z</time></trkpt><trkpt lat="40.06593" lon="-8.39979"><time>2022-02-26T01:06:48.000Z</time></trkpt><trkpt lat="40.06581" lon="-8.39982"><time>2022-02-26T01:06:58.000Z</time></trkpt><trkpt lat="40.06576" lon="-8.39982"><ele>257</ele><time>2022-02-26T01:07:08.000Z</time></trkpt><trkpt lat="40.06571" lon="-8.3998"><time>2022-02-26T01:07:18.000Z</time></trkpt><trkpt lat="40.0657" lon="-8.39972"><time>2022-02-26T01:07:28.000Z</time></trkpt><trkpt lat="40.06574" lon="-8.39958"><ele>250</ele><time>2022-02-26T01:07:38.000Z</time></trkpt><trkpt lat="40.06577" lon="-8.39952"><time>2022-02-26T01:07:48.000Z</time></trkpt><trkpt lat="40.06587" lon="-8.39942"><time>2022-02-26T01:07:58.000Z</time></trkpt><trkpt lat="40.06601" lon="-8.39922"><ele>243</ele><time>2022-02-26T01:08:08.000Z</time></trkpt><trkpt lat="40.06611" lon="-8.39912"><time>2022-02-26T01:08:18.000Z</time></trkpt><trkpt lat="40.06616" lon="-8.39908"><time>2022-02-26T01:08:28.000Z</time></trkpt><trkpt lat="40.06631" lon="-8.39899"><ele>240</ele><time>2022-02-26T01:08:38.000Z</time></trkpt><trkpt lat="40.06637" lon="-8.39896"><time>2022-02-26T01:08:48.000Z</time></trkpt><trkpt lat="40.06643" lon="-8.39895"><time>2022-02-26T01:08:58.000Z</time></trkpt><trkpt lat="40.0665" lon="-8.39894"><time>2022-02-26T01:09:08.000Z</time></trkpt><trkpt lat="40.06655" lon="-8.39892"><ele>240</ele><time>2022-02-26T01:09:18.000Z</time></trkpt><trkpt lat="40.06655" lon="-8.39885"><time>2022-02-26T01:09:28.000Z</time></trkpt><trkpt lat="40.0665" lon="-8.39881"><time>2022-02-26T01:09:38.000Z</time></trkpt><trkpt lat="40.06613" lon="-8.39873"><ele>239</ele><time>2022-02-26T01:08:01.000Z</time></trkpt><trkpt lat="40.06606" lon="-8.39873"><time>2022-02-26T01:08:11.000Z</time></trkpt><trkpt lat="40.06588" lon="-8.39876"><ele>230</ele><time>2022-02-26T01:08:12.000Z</time></trkpt><trkpt lat="40.06574" lon="-8.39875"><time>2022-02-26T01:08:22.000Z</time></trkpt><trkpt lat="40.06567" lon="-8.39873"><ele>226</ele><time>2022-02-26T01:08:21.000Z</time></trkpt><trkpt lat="40.06549" lon="-8.39865"><time>2022-02-26T01:08:31.000Z</time></trkpt><trkpt lat="40.0653" lon="-8.39861"><ele>222</ele><time>2022-02-26T01:08:37.000Z</time></trkpt><trkpt lat="40.06513" lon="-8.39856"><time>2022-02-26T01:08:47.000Z</time></trkpt><trkpt lat="40.06509" lon="-8.39853"><ele>216</ele><time>2022-02-26T01:08:45.000Z</time></trkpt><trkpt lat="40.06506" lon="-8.39849"><time>2022-02-26T01:08:55.000Z</time></trkpt><trkpt lat="40.06502" lon="-8.39841"><time>2022-02-26T01:09:05.000Z</time></trkpt><trkpt lat="40.06501" lon="-8.39833"><time>2022-02-26T01:09:15.000Z</time></trkpt><trkpt lat="40.06501" lon="-8.39825"><ele>213</ele><time>2022-02-26T01:08:56.000Z</time></trkpt><trkpt lat="40.06507" lon="-8.39797"><ele>206</ele><time>2022-02-26T01:09:06.000Z</time></trkpt><trkpt lat="40.06507" lon="-8.39791"><time>2022-02-26T01:09:16.000Z</time></trkpt><trkpt lat="40.06502" lon="-8.39788"><time>2022-02-26T01:09:26.000Z</time></trkpt><trkpt lat="40.06478" lon="-8.39786"><ele>205</ele><time>2022-02-26T01:09:21.000Z</time></trkpt><trkpt lat="40.06472" lon="-8.39783"><time>2022-02-26T01:09:31.000Z</time></trkpt><trkpt lat="40.06452" lon="-8.3978"><ele>206</ele><time>2022-02-26T01:09:33.000Z</time></trkpt><trkpt lat="40.06435" lon="-8.39775"><time>2022-02-26T01:09:43.000Z</time></trkpt><trkpt lat="40.06428" lon="-8.39774"><ele>206</ele><time>2022-02-26T01:09:53.000Z</time></trkpt><trkpt lat="40.06417" lon="-8.39777"><time>2022-02-26T01:10:03.000Z</time></trkpt><trkpt lat="40.06395" lon="-8.39787"><ele>206</ele><time>2022-02-26T01:10:13.000Z</time></trkpt><trkpt lat="40.06386" lon="-8.3979"><time>2022-02-26T01:10:23.000Z</time></trkpt><trkpt lat="40.06381" lon="-8.39791"><time>2022-02-26T01:10:33.000Z</time></trkpt><trkpt lat="40.0637" lon="-8.39788"><ele>203</ele><time>2022-02-26T01:10:43.000Z</time></trkpt><trkpt lat="40.06364" lon="-8.39786"><time>2022-02-26T01:10:53.000Z</time></trkpt><trkpt lat="40.06352" lon="-8.39779"><time>2022-02-26T01:11:03.000Z</time></trkpt><trkpt lat="40.06323" lon="-8.39771"><ele>203</ele><time>2022-02-26T01:11:13.000Z</time></trkpt><trkpt lat="40.06306" lon="-8.39763"><time>2022-02-26T01:11:23.000Z</time></trkpt><trkpt lat="40.06263" lon="-8.39748"><ele>204</ele><time>2022-02-26T01:11:00.000Z</time></trkpt><trkpt lat="40.06241" lon="-8.39738"><ele>204</ele><time>2022-02-26T01:11:11.000Z</time></trkpt><trkpt lat="40.06207" lon="-8.3972"><ele>205</ele><time>2022-02-26T01:11:21.000Z</time></trkpt><trkpt lat="40.06195" lon="-8.39711"><time>2022-02-26T01:11:31.000Z</time></trkpt><trkpt lat="40.06187" lon="-8.39706"><ele>205</ele><time>2022-02-26T01:11:41.000Z</time></trkpt><trkpt lat="40.06175" lon="-8.39703"><time>2022-02-26T01:11:51.000Z</time></trkpt><trkpt lat="40.06169" lon="-8.397"><time>2022-02-26T01:12:01.000Z</time></trkpt><trkpt lat="40.06151" lon="-8.39689"><ele>206</ele><time>2022-02-26T01:12:11.000Z</time></trkpt><trkpt lat="40.0614" lon="-8.39684"><time>2022-02-26T01:12:21.000Z</time></trkpt><trkpt lat="40.06134" lon="-8.39683"><time>2022-02-26T01:12:31.000Z</time></trkpt><trkpt lat="40.06118" lon="-8.39681"><ele>206</ele><time>2022-02-26T01:12:12.000Z</time></trkpt><trkpt lat="40.06089" lon="-8.3968"><ele>204</ele><time>2022-02-26T01:12:22.000Z</time></trkpt><trkpt lat="40.06049" lon="-8.39678"><ele>203</ele><time>2022-02-26T01:12:43.000Z</time></trkpt><trkpt lat="40.06032" lon="-8.39676"><time>2022-02-26T01:12:53.000Z</time></trkpt><trkpt lat="40.06026" lon="-8.39674"><ele>203</ele><time>2022-02-26T01:13:03.000Z</time></trkpt><trkpt lat="40.0602" lon="-8.39672"><time>2022-02-26T01:13:13.000Z</time></trkpt><trkpt lat="40.05995" lon="-8.39657"><ele>199</ele><time>2022-02-26T01:13:23.000Z</time></trkpt><trkpt lat="40.0598" lon="-8.39646"><time>2022-02-26T01:13:33.000Z</time></trkpt><trkpt lat="40.05955" lon="-8.39626"><ele>197</ele><time>2022-02-26T01:13:43.000Z</time></trkpt><trkpt lat="40.05949" lon="-8.39623"><time>2022-02-26T01:13:53.000Z</time></trkpt><trkpt lat="40.05938" lon="-8.39619"><time>2022-02-26T01:14:03.000Z</time></trkpt><trkpt lat="40.0592" lon="-8.39612"><ele>198</ele><time>2022-02-26T01:14:13.000Z</time></trkpt><trkpt lat="40.05904" lon="-8.39604"><time>2022-02-26T01:14:23.000Z</time></trkpt><trkpt lat="40.05878" lon="-8.39589"><ele>199</ele><time>2022-02-26T01:14:33.000Z</time></trkpt><trkpt lat="40.05867" lon="-8.39584"><time>2022-02-26T01:14:43.000Z</time></trkpt><trkpt lat="40.05863" lon="-8.39584"><time>2022-02-26T01:14:53.000Z</time></trkpt><trkpt lat="40.05858" lon="-8.39585"><ele>199</ele><time>2022-02-26T01:15:03.000Z</time></trkpt><trkpt lat="40.05853" lon="-8.3959"><time>2022-02-26T01:15:13.000Z</time></trkpt><trkpt lat="40.05851" lon="-8.39597"><time>2022-02-26T01:15:23.000Z</time></trkpt><trkpt lat="40.05851" lon="-8.39604"><time>2022-02-26T01:15:33.000Z</time></trkpt><trkpt lat="40.05856" lon="-8.39636"><ele>204</ele><time>2022-02-26T01:15:43.000Z</time></trkpt><trkpt lat="40.05856" lon="-8.3965"><time>2022-02-26T01:15:53.000Z</time></trkpt><trkpt lat="40.05854" lon="-8.39656"><time>2022-02-26T01:16:03.000Z</time></trkpt><trkpt lat="40.05844" lon="-8.39672"><ele>210</ele><time>2022-02-26T01:15:03.000Z</time></trkpt><trkpt lat="40.05835" lon="-8.3969"><time>2022-02-26T01:15:13.000Z</time></trkpt><trkpt lat="40.05826" lon="-8.39697"><ele>210</ele><time>2022-02-26T01:15:19.000Z</time></trkpt><trkpt lat="40.0582" lon="-8.39698"><time>2022-02-26T01:15:29.000Z</time></trkpt><trkpt lat="40.0581" lon="-8.39697"><time>2022-02-26T01:15:39.000Z</time></trkpt><trkpt lat="40.05805" lon="-8.39696"><ele>210</ele><time>2022-02-26T01:15:29.000Z</time></trkpt><trkpt lat="40.05773" lon="-8.39689"><ele>208</ele><time>2022-02-26T01:15:41.000Z</time></trkpt><trkpt lat="40.05752" lon="-8.39685"><ele>207</ele><time>2022-02-26T01:15:51.000Z</time></trkpt><trkpt lat="40.05742" lon="-8.39683"><time>2022-02-26T01:16:01.000Z</time></trkpt><trkpt lat="40.05737" lon="-8.39679"><time>2022-02-26T01:16:11.000Z</time></trkpt><trkpt lat="40.05734" lon="-8.39672"><ele>206</ele><time>2022-02-26T01:16:21.000Z</time></trkpt><trkpt lat="40.05735" lon="-8.39658"><time>2022-02-26T01:16:31.000Z</time></trkpt><trkpt lat="40.05738" lon="-8.39629"><ele>205</ele><time>2022-02-26T01:16:41.000Z</time></trkpt><trkpt lat="40.05737" lon="-8.39621"><time>2022-02-26T01:16:51.000Z</time></trkpt><trkpt lat="40.05731" lon="-8.39617"><time>2022-02-26T01:17:01.000Z</time></trkpt><trkpt lat="40.05714" lon="-8.3961"><ele>205</ele><time>2022-02-26T01:17:11.000Z</time></trkpt><trkpt lat="40.05709" lon="-8.39609"><time>2022-02-26T01:17:21.000Z</time></trkpt><trkpt lat="40.05653" lon="-8.39605"><ele>205</ele><time>2022-02-26T01:16:58.000Z</time></trkpt><trkpt lat="40.05627" lon="-8.39601"><ele>203</ele><time>2022-02-26T01:17:09.000Z</time></trkpt><trkpt lat="40.05605" lon="-8.39599"><ele>203</ele><time>2022-02-26T01:17:19.000Z</time></trkpt><trkpt lat="40.05586" lon="-8.39596"><time>2022-02-26T01:17:29.000Z</time></trkpt><trkpt lat="40.05538" lon="-8.39583"><ele>203</ele><time>2022-02-26T01:17:39.000Z</time></trkpt><trkpt lat="40.0553" lon="-8.39579"><time>2022-02-26T01:17:49.000Z</time></trkpt><trkpt lat="40.05525" lon="-8.39573"><time>2022-02-26T01:17:59.000Z</time></trkpt><trkpt lat="40.05521" lon="-8.3956"><ele>202</ele><time>2022-02-26T01:18:09.000Z</time></trkpt><trkpt lat="40.05519" lon="-8.39548"><time>2022-02-26T01:18:19.000Z</time></trkpt><trkpt lat="40.05519" lon="-8.39539"><time>2022-02-26T01:18:29.000Z</time></trkpt><trkpt lat="40.05524" lon="-8.39521"><ele>202</ele><time>2022-02-26T01:18:39.000Z</time></trkpt><trkpt lat="40.05524" lon="-8.39514"><time>2022-02-26T01:18:49.000Z</time></trkpt><trkpt lat="40.05524" lon="-8.39508"><time>2022-02-26T01:18:59.000Z</time></trkpt><trkpt lat="40.05521" lon="-8.39492"><ele>200</ele><time>2022-02-26T01:19:09.000Z</time></trkpt><trkpt lat="40.05517" lon="-8.39476"><time>2022-02-26T01:19:19.000Z</time></trkpt><trkpt lat="40.05514" lon="-8.39459"><ele>196</ele><time>2022-02-26T01:19:29.000Z</time></trkpt><trkpt lat="40.05515" lon="-8.39451"><time>2022-02-26T01:19:39.000Z</time></trkpt><trkpt lat="40.05517" lon="-8.39443"><time>2022-02-26T01:19:49.000Z</time></trkpt><trkpt lat="40.05521" lon="-8.39431"><ele>196</ele><time>2022-02-26T01:19:59.000Z</time></trkpt><trkpt lat="40.05532" lon="-8.39417"><time>2022-02-26T01:20:09.000Z</time></trkpt><trkpt lat="40.05538" lon="-8.39406"><ele>194</ele><time>2022-02-26T01:20:19.000Z</time></trkpt><trkpt lat="40.0554" lon="-8.39399"><time>2022-02-26T01:20:29.000Z</time></trkpt><trkpt lat="40.0554" lon="-8.39392"><time>2022-02-26T01:20:39.000Z</time></trkpt><trkpt lat="40.05528" lon="-8.39356"><ele>193</ele><time>2022-02-26T01:20:49.000Z</time></trkpt><trkpt lat="40.05528" lon="-8.39349"><time>2022-02-26T01:20:59.000Z</time></trkpt><trkpt lat="40.05532" lon="-8.39343"><time>2022-02-26T01:21:09.000Z</time></trkpt><trkpt lat="40.05536" lon="-8.39336"><time>2022-02-26T01:21:19.000Z</time></trkpt><trkpt lat="40.05538" lon="-8.39329"><ele>193</ele><time>2022-02-26T01:21:29.000Z</time></trkpt><trkpt lat="40.0555" lon="-8.39314"><time>2022-02-26T01:21:39.000Z</time></trkpt><trkpt lat="40.05553" lon="-8.39308"><ele>193</ele><time>2022-02-26T01:21:49.000Z</time></trkpt><trkpt lat="40.05555" lon="-8.39301"><time>2022-02-26T01:21:59.000Z</time></trkpt><trkpt lat="40.05561" lon="-8.39289"><time>2022-02-26T01:22:09.000Z</time></trkpt><trkpt lat="40.05569" lon="-8.39278"><ele>191</ele><time>2022-02-26T01:22:19.000Z</time></trkpt><trkpt lat="40.05574" lon="-8.39275"><time>2022-02-26T01:22:29.000Z</time></trkpt><trkpt lat="40.05584" lon="-8.39262"><time>2022-02-26T01:22:39.000Z</time></trkpt><trkpt lat="40.05599" lon="-8.39241"><ele>181</ele><time>2022-02-26T01:22:49.000Z</time></trkpt><trkpt lat="40.05602" lon="-8.39235"><time>2022-02-26T01:22:59.000Z</time></trkpt><trkpt lat="40.05605" lon="-8.39227"><time>2022-02-26T01:23:09.000Z</time></trkpt><trkpt lat="40.05606" lon="-8.3922"><time>2022-02-26T01:23:19.000Z</time></trkpt><trkpt lat="40.05609" lon="-8.39213"><ele>181</ele><time>2022-02-26T01:23:29.000Z</time></trkpt><trkpt lat="40.05612" lon="-8.39206"><time>2022-02-26T01:23:39.000Z</time></trkpt><trkpt lat="40.05616" lon="-8.39199"><time>2022-02-26T01:23:49.000Z</time></trkpt><trkpt lat="40.05625" lon="-8.39182"><ele>177</ele><time>2022-02-26T01:20:53.000Z</time></trkpt><trkpt lat="40.05629" lon="-8.39167"><time>2022-02-26T01:21:03.000Z</time></trkpt><trkpt lat="40.0563" lon="-8.3916"><time>2022-02-26T01:21:13.000Z</time></trkpt><trkpt lat="40.05624" lon="-8.39148"><ele>174</ele><time>2022-02-26T01:21:08.000Z</time></trkpt><trkpt lat="40.05623" lon="-8.39142"><time>2022-02-26T01:21:18.000Z</time></trkpt><trkpt lat="40.05627" lon="-8.39139"><time>2022-02-26T01:21:28.000Z</time></trkpt><trkpt lat="40.05631" lon="-8.39135"><time>2022-02-26T01:21:38.000Z</time></trkpt><trkpt lat="40.05635" lon="-8.39133"><time>2022-02-26T01:21:48.000Z</time></trkpt><trkpt lat="40.05637" lon="-8.39126"><ele>172</ele><time>2022-02-26T01:21:40.000Z</time></trkpt><trkpt lat="40.05635" lon="-8.39121"><time>2022-02-26T01:21:50.000Z</time></trkpt><trkpt lat="40.05627" lon="-8.39113"><time>2022-02-26T01:22:00.000Z</time></trkpt><trkpt lat="40.05622" lon="-8.39108"><ele>167</ele><time>2022-02-26T01:21:52.000Z</time></trkpt><trkpt lat="40.05612" lon="-8.3909"><time>2022-02-26T01:22:02.000Z</time></trkpt><trkpt lat="40.05606" lon="-8.39076"><ele>167</ele><time>2022-02-26T01:22:01.000Z</time></trkpt><trkpt lat="40.05596" lon="-8.39059"><time>2022-02-26T01:22:11.000Z</time></trkpt><trkpt lat="40.05592" lon="-8.39048"><ele>168</ele><time>2022-02-26T01:22:11.000Z</time></trkpt><trkpt lat="40.05583" lon="-8.39023"><ele>170</ele><time>2022-02-26T01:22:20.000Z</time></trkpt><trkpt lat="40.05576" lon="-8.39008"><time>2022-02-26T01:22:30.000Z</time></trkpt><trkpt lat="40.05572" lon="-8.39002"><time>2022-02-26T01:22:40.000Z</time></trkpt><trkpt lat="40.05569" lon="-8.38995"><ele>171</ele><time>2022-02-26T01:22:50.000Z</time></trkpt><trkpt lat="40.05567" lon="-8.38988"><time>2022-02-26T01:23:00.000Z</time></trkpt><trkpt lat="40.05563" lon="-8.38981"><time>2022-02-26T01:23:10.000Z</time></trkpt><trkpt lat="40.05554" lon="-8.38972"><ele>173</ele><time>2022-02-26T01:23:20.000Z</time></trkpt><trkpt lat="40.0555" lon="-8.38967"><time>2022-02-26T01:23:30.000Z</time></trkpt><trkpt lat="40.05539" lon="-8.38938"><ele>173</ele><time>2022-02-26T01:22:59.000Z</time></trkpt><trkpt lat="40.05529" lon="-8.38922"><time>2022-02-26T01:23:09.000Z</time></trkpt><trkpt lat="40.05525" lon="-8.38914"><ele>173</ele><time>2022-02-26T01:23:19.000Z</time></trkpt><trkpt lat="40.05524" lon="-8.38909"><time>2022-02-26T01:23:29.000Z</time></trkpt><trkpt lat="40.05523" lon="-8.389"><time>2022-02-26T01:23:39.000Z</time></trkpt><trkpt lat="40.05522" lon="-8.38888"><ele>172</ele><time>2022-02-26T01:23:49.000Z</time></trkpt><trkpt lat="40.05521" lon="-8.38882"><time>2022-02-26T01:23:59.000Z</time></trkpt><trkpt lat="40.05517" lon="-8.38871"><time>2022-02-26T01:24:09.000Z</time></trkpt><trkpt lat="40.05509" lon="-8.38856"><ele>172</ele><time>2022-02-26T01:23:30.000Z</time></trkpt><trkpt lat="40.05496" lon="-8.38834"><ele>174</ele><time>2022-02-26T01:23:38.000Z</time></trkpt><trkpt lat="40.05485" lon="-8.38818"><time>2022-02-26T01:23:48.000Z</time></trkpt><trkpt lat="40.05478" lon="-8.3881"><ele>174</ele><time>2022-02-26T01:23:49.000Z</time></trkpt><trkpt lat="40.05474" lon="-8.38806"><time>2022-02-26T01:23:59.000Z</time></trkpt><trkpt lat="40.05469" lon="-8.38802"><time>2022-02-26T01:24:09.000Z</time></trkpt><trkpt lat="40.05465" lon="-8.388"><time>2022-02-26T01:24:19.000Z</time></trkpt><trkpt lat="40.0546" lon="-8.388"><time>2022-02-26T01:24:29.000Z</time></trkpt><trkpt lat="40.05455" lon="-8.38801"><ele>182</ele><time>2022-02-26T01:23:59.000Z</time></trkpt><trkpt lat="40.05439" lon="-8.38807"><time>2022-02-26T01:24:09.000Z</time></trkpt><trkpt lat="40.05433" lon="-8.38808"><ele>182</ele><time>2022-02-26T01:24:19.000Z</time></trkpt><trkpt lat="40.05427" lon="-8.38806"><time>2022-02-26T01:24:29.000Z</time></trkpt><trkpt lat="40.05422" lon="-8.38804"><time>2022-02-26T01:24:39.000Z</time></trkpt><trkpt lat="40.05418" lon="-8.388"><time>2022-02-26T01:24:49.000Z</time></trkpt><trkpt lat="40.05415" lon="-8.38796"><time>2022-02-26T01:24:59.000Z</time></trkpt><trkpt lat="40.05407" lon="-8.38782"><ele>182</ele><time>2022-02-26T01:24:21.000Z</time></trkpt><trkpt lat="40.05402" lon="-8.38776"><time>2022-02-26T01:24:31.000Z</time></trkpt><trkpt lat="40.05396" lon="-8.38766"><time>2022-02-26T01:24:41.000Z</time></trkpt><trkpt lat="40.05393" lon="-8.38761"><ele>182</ele><time>2022-02-26T01:24:30.000Z</time></trkpt><trkpt lat="40.05388" lon="-8.38756"><time>2022-02-26T01:24:40.000Z</time></trkpt><trkpt lat="40.05382" lon="-8.38753"><time>2022-02-26T01:24:50.000Z</time></trkpt><trkpt lat="40.05372" lon="-8.38748"><ele>187</ele><time>2022-02-26T01:24:41.000Z</time></trkpt><trkpt lat="40.05354" lon="-8.38744"><time>2022-02-26T01:24:51.000Z</time></trkpt><trkpt lat="40.05339" lon="-8.38744"><ele>198</ele><time>2022-02-26T01:25:02.000Z</time></trkpt><trkpt lat="40.0533" lon="-8.38742"><time>2022-02-26T01:25:12.000Z</time></trkpt><trkpt lat="40.05319" lon="-8.38739"><ele>205</ele><time>2022-02-26T01:25:17.000Z</time></trkpt><trkpt lat="40.05304" lon="-8.38736"><time>2022-02-26T01:25:27.000Z</time></trkpt><trkpt lat="40.05298" lon="-8.38734"><time>2022-02-26T01:25:37.000Z</time></trkpt><trkpt lat="40.05293" lon="-8.3873"><ele>210</ele><time>2022-02-26T01:25:47.000Z</time></trkpt><trkpt lat="40.05291" lon="-8.38725"><time>2022-02-26T01:25:57.000Z</time></trkpt><trkpt lat="40.05291" lon="-8.38717"><time>2022-02-26T01:26:07.000Z</time></trkpt><trkpt lat="40.05293" lon="-8.38711"><time>2022-02-26T01:26:17.000Z</time></trkpt><trkpt lat="40.053" lon="-8.38702"><ele>199</ele><time>2022-02-26T01:25:50.000Z</time></trkpt><trkpt lat="40.05313" lon="-8.38692"><time>2022-02-26T01:26:00.000Z</time></trkpt><trkpt lat="40.05317" lon="-8.3869"><time>2022-02-26T01:26:10.000Z</time></trkpt><trkpt lat="40.05323" lon="-8.38689"><ele>189</ele><time>2022-02-26T01:26:08.000Z</time></trkpt><trkpt lat="40.05339" lon="-8.3869"><time>2022-02-26T01:26:18.000Z</time></trkpt><trkpt lat="40.0535" lon="-8.3869"><ele>185</ele><time>2022-02-26T01:26:22.000Z</time></trkpt><trkpt lat="40.05361" lon="-8.38687"><time>2022-02-26T01:26:32.000Z</time></trkpt><trkpt lat="40.05369" lon="-8.3868"><ele>185</ele><time>2022-02-26T01:26:42.000Z</time></trkpt><trkpt lat="40.05372" lon="-8.38675"><time>2022-02-26T01:26:52.000Z</time></trkpt><trkpt lat="40.05373" lon="-8.38667"><time>2022-02-26T01:27:02.000Z</time></trkpt><trkpt lat="40.05372" lon="-8.38661"><time>2022-02-26T01:27:12.000Z</time></trkpt><trkpt lat="40.05368" lon="-8.38655"><ele>185</ele><time>2022-02-26T01:27:22.000Z</time></trkpt><trkpt lat="40.05364" lon="-8.38652"><time>2022-02-26T01:27:32.000Z</time></trkpt><trkpt lat="40.05358" lon="-8.38649"><time>2022-02-26T01:27:42.000Z</time></trkpt><trkpt lat="40.05346" lon="-8.38647"><ele>185</ele><time>2022-02-26T01:27:52.000Z</time></trkpt><trkpt lat="40.05341" lon="-8.38647"><time>2022-02-26T01:28:02.000Z</time></trkpt><trkpt lat="40.0533" lon="-8.38649"><time>2022-02-26T01:28:12.000Z</time></trkpt><trkpt lat="40.05325" lon="-8.38652"><ele>188</ele><time>2022-02-26T01:28:22.000Z</time></trkpt><trkpt lat="40.05315" lon="-8.38659"><time>2022-02-26T01:28:32.000Z</time></trkpt><trkpt lat="40.05306" lon="-8.38661"><time>2022-02-26T01:28:42.000Z</time></trkpt><trkpt lat="40.05299" lon="-8.38664"><ele>205</ele><time>2022-02-26T01:28:52.000Z</time></trkpt><trkpt lat="40.05295" lon="-8.38665"><time>2022-02-26T01:29:02.000Z</time></trkpt><trkpt lat="40.05276" lon="-8.38669"><ele>205</ele><time>2022-02-26T01:29:12.000Z</time></trkpt><trkpt lat="40.05271" lon="-8.38669"><time>2022-02-26T01:29:22.000Z</time></trkpt><trkpt lat="40.05265" lon="-8.38669"><time>2022-02-26T01:29:32.000Z</time></trkpt><trkpt lat="40.0526" lon="-8.38666"><time>2022-02-26T01:29:42.000Z</time></trkpt><trkpt lat="40.0525" lon="-8.38657"><ele>212</ele><time>2022-02-26T01:29:52.000Z</time></trkpt><trkpt lat="40.05244" lon="-8.38655"><time>2022-02-26T01:30:02.000Z</time></trkpt><trkpt lat="40.05239" lon="-8.38655"><time>2022-02-26T01:30:12.000Z</time></trkpt><trkpt lat="40.05234" lon="-8.38659"><time>2022-02-26T01:30:22.000Z</time></trkpt><trkpt lat="40.0521" lon="-8.38672"><ele>228</ele><time>2022-02-26T01:30:32.000Z</time></trkpt><trkpt lat="40.05205" lon="-8.38674"><time>2022-02-26T01:30:42.000Z</time></trkpt><trkpt lat="40.052" lon="-8.38674"><time>2022-02-26T01:30:52.000Z</time></trkpt><trkpt lat="40.05195" lon="-8.3867"><time>2022-02-26T01:31:02.000Z</time></trkpt><trkpt lat="40.05185" lon="-8.38647"><ele>236</ele><time>2022-02-26T01:31:12.000Z</time></trkpt><trkpt lat="40.05181" lon="-8.38643"><time>2022-02-26T01:31:22.000Z</time></trkpt><trkpt lat="40.05176" lon="-8.3864"><time>2022-02-26T01:31:32.000Z</time></trkpt><trkpt lat="40.05164" lon="-8.38637"><ele>236</ele><time>2022-02-26T01:31:42.000Z</time></trkpt><trkpt lat="40.05159" lon="-8.38634"><time>2022-02-26T01:31:52.000Z</time></trkpt><trkpt lat="40.0515" lon="-8.38626"><time>2022-02-26T01:32:02.000Z</time></trkpt><trkpt lat="40.05142" lon="-8.38617"><ele>234</ele><time>2022-02-26T01:32:12.000Z</time></trkpt><trkpt lat="40.05132" lon="-8.38603"><time>2022-02-26T01:32:22.000Z</time></trkpt><trkpt lat="40.05127" lon="-8.38604"><time>2022-02-26T01:32:32.000Z</time></trkpt><trkpt lat="40.05126" lon="-8.38619"><ele>235</ele><time>2022-02-26T01:32:42.000Z</time></trkpt><trkpt lat="40.05128" lon="-8.38634"><time>2022-02-26T01:32:52.000Z</time></trkpt><trkpt lat="40.05129" lon="-8.38641"><time>2022-02-26T01:33:02.000Z</time></trkpt><trkpt lat="40.0513" lon="-8.38648"><ele>236</ele><time>2022-02-26T01:33:12.000Z</time></trkpt><trkpt lat="40.05132" lon="-8.38654"><time>2022-02-26T01:33:22.000Z</time></trkpt><trkpt lat="40.05135" lon="-8.38665"><time>2022-02-26T01:33:32.000Z</time></trkpt><trkpt lat="40.05137" lon="-8.38687"><ele>244</ele><time>2022-02-26T01:33:42.000Z</time></trkpt><trkpt lat="40.05138" lon="-8.38693"><time>2022-02-26T01:33:52.000Z</time></trkpt><trkpt lat="40.05139" lon="-8.38705"><time>2022-02-26T01:34:02.000Z</time></trkpt><trkpt lat="40.05142" lon="-8.38718"><ele>244</ele><time>2022-02-26T01:34:12.000Z</time></trkpt><trkpt lat="40.05142" lon="-8.38724"><time>2022-02-26T01:34:22.000Z</time></trkpt><trkpt lat="40.05141" lon="-8.3873"><time>2022-02-26T01:34:32.000Z</time></trkpt><trkpt lat="40.05139" lon="-8.38735"><time>2022-02-26T01:34:42.000Z</time></trkpt><trkpt lat="40.05134" lon="-8.38739"><time>2022-02-26T01:34:52.000Z</time></trkpt><trkpt lat="40.05117" lon="-8.38746"><ele>244</ele><time>2022-02-26T01:30:27.000Z</time></trkpt><trkpt lat="40.05105" lon="-8.38751"><time>2022-02-26T01:30:37.000Z</time></trkpt><trkpt lat="40.05101" lon="-8.38757"><time>2022-02-26T01:30:47.000Z</time></trkpt><trkpt lat="40.05099" lon="-8.38764"><ele>242</ele><time>2022-02-26T01:30:57.000Z</time></trkpt><trkpt lat="40.05098" lon="-8.38771"><time>2022-02-26T01:31:07.000Z</time></trkpt><trkpt lat="40.05097" lon="-8.38778"><time>2022-02-26T01:31:17.000Z</time></trkpt><trkpt lat="40.05094" lon="-8.38793"><ele>242</ele><time>2022-02-26T01:31:27.000Z</time></trkpt><trkpt lat="40.05091" lon="-8.388"><time>2022-02-26T01:31:37.000Z</time></trkpt><trkpt lat="40.05087" lon="-8.38806"><time>2022-02-26T01:31:47.000Z</time></trkpt><trkpt lat="40.05073" lon="-8.38822"><ele>243</ele><time>2022-02-26T01:31:05.000Z</time></trkpt><trkpt lat="40.05059" lon="-8.38833"><time>2022-02-26T01:31:15.000Z</time></trkpt><trkpt lat="40.05049" lon="-8.38834"><ele>247</ele><time>2022-02-26T01:31:26.000Z</time></trkpt><trkpt lat="40.05045" lon="-8.38832"><time>2022-02-26T01:31:36.000Z</time></trkpt><trkpt lat="40.05039" lon="-8.38821"><time>2022-02-26T01:31:46.000Z</time></trkpt><trkpt lat="40.05033" lon="-8.38815"><ele>247</ele><time>2022-02-26T01:31:40.000Z</time></trkpt><trkpt lat="40.05016" lon="-8.38801"><time>2022-02-26T01:31:50.000Z</time></trkpt><trkpt lat="40.05011" lon="-8.38798"><ele>243</ele><time>2022-02-26T01:32:00.000Z</time></trkpt><trkpt lat="40.05005" lon="-8.38798"><time>2022-02-26T01:32:10.000Z</time></trkpt><trkpt lat="40.04986" lon="-8.38803"><ele>241</ele><time>2022-02-26T01:32:20.000Z</time></trkpt><trkpt lat="40.04981" lon="-8.38806"><time>2022-02-26T01:32:30.000Z</time></trkpt><trkpt lat="40.04978" lon="-8.38811"><time>2022-02-26T01:32:40.000Z</time></trkpt><trkpt lat="40.04972" lon="-8.38817"><time>2022-02-26T01:32:50.000Z</time></trkpt><trkpt lat="40.0496" lon="-8.38833"><ele>239</ele><time>2022-02-26T01:33:00.000Z</time></trkpt><trkpt lat="40.04957" lon="-8.3884"><time>2022-02-26T01:33:10.000Z</time></trkpt><trkpt lat="40.04941" lon="-8.38857"><ele>234</ele><time>2022-02-26T01:33:20.000Z</time></trkpt><trkpt lat="40.04937" lon="-8.38864"><time>2022-02-26T01:33:30.000Z</time></trkpt><trkpt lat="40.04928" lon="-8.38875"><time>2022-02-26T01:33:40.000Z</time></trkpt><trkpt lat="40.04913" lon="-8.38892"><ele>229</ele><time>2022-02-26T01:33:50.000Z</time></trkpt><trkpt lat="40.04909" lon="-8.38896"><time>2022-02-26T01:34:00.000Z</time></trkpt><trkpt lat="40.04899" lon="-8.38899"><time>2022-02-26T01:34:10.000Z</time></trkpt><trkpt lat="40.0489" lon="-8.38905"><ele>225</ele><time>2022-02-26T01:34:20.000Z</time></trkpt><trkpt lat="40.04879" lon="-8.38908"><time>2022-02-26T01:34:30.000Z</time></trkpt><trkpt lat="40.04869" lon="-8.38914"><ele>218</ele><time>2022-02-26T01:34:40.000Z</time></trkpt><trkpt lat="40.04865" lon="-8.38913"><time>2022-02-26T01:34:50.000Z</time></trkpt><trkpt lat="40.0486" lon="-8.3891"><time>2022-02-26T01:35:00.000Z</time></trkpt><trkpt lat="40.04855" lon="-8.38909"><time>2022-02-26T01:35:10.000Z</time></trkpt><trkpt lat="40.04838" lon="-8.38913"><ele>206</ele><time>2022-02-26T01:35:20.000Z</time></trkpt><trkpt lat="40.04822" lon="-8.3892"><time>2022-02-26T01:35:30.000Z</time></trkpt><trkpt lat="40.04816" lon="-8.3892"><ele>197</ele><time>2022-02-26T01:35:40.000Z</time></trkpt><trkpt lat="40.04811" lon="-8.38919"><time>2022-02-26T01:35:50.000Z</time></trkpt><trkpt lat="40.04806" lon="-8.38917"><time>2022-02-26T01:36:00.000Z</time></trkpt><trkpt lat="40.04802" lon="-8.38914"><time>2022-02-26T01:36:10.000Z</time></trkpt><trkpt lat="40.04798" lon="-8.3891"><time>2022-02-26T01:36:20.000Z</time></trkpt><trkpt lat="40.04783" lon="-8.38891"><ele>191</ele><time>2022-02-26T01:36:30.000Z</time></trkpt><trkpt lat="40.04778" lon="-8.38886"><time>2022-02-26T01:36:40.000Z</time></trkpt><trkpt lat="40.04773" lon="-8.38883"><time>2022-02-26T01:36:50.000Z</time></trkpt><trkpt lat="40.04752" lon="-8.38879"><ele>188</ele><time>2022-02-26T01:37:00.000Z</time></trkpt><trkpt lat="40.04734" lon="-8.38871"><time>2022-02-26T01:37:10.000Z</time></trkpt><trkpt lat="40.04714" lon="-8.38864"><ele>190</ele><time>2022-02-26T01:37:20.000Z</time></trkpt><trkpt lat="40.04705" lon="-8.38862"><time>2022-02-26T01:37:30.000Z</time></trkpt><trkpt lat="40.04695" lon="-8.38862"><time>2022-02-26T01:37:40.000Z</time></trkpt><trkpt lat="40.0469" lon="-8.38863"><ele>192</ele><time>2022-02-26T01:37:50.000Z</time></trkpt><trkpt lat="40.04681" lon="-8.38867"><time>2022-02-26T01:38:00.000Z</time></trkpt><trkpt lat="40.04666" lon="-8.38876"><ele>192</ele><time>2022-02-26T01:38:10.000Z</time></trkpt><trkpt lat="40.04656" lon="-8.38881"><time>2022-02-26T01:38:20.000Z</time></trkpt><trkpt lat="40.04651" lon="-8.38884"><time>2022-02-26T01:38:30.000Z</time></trkpt><trkpt lat="40.04631" lon="-8.38896"><ele>193</ele><time>2022-02-26T01:38:40.000Z</time></trkpt><trkpt lat="40.04621" lon="-8.38898"><time>2022-02-26T01:38:50.000Z</time></trkpt><trkpt lat="40.04592" lon="-8.389"><ele>205</ele><time>2022-02-26T01:39:00.000Z</time></trkpt><trkpt lat="40.04582" lon="-8.38902"><time>2022-02-26T01:39:10.000Z</time></trkpt><trkpt lat="40.04572" lon="-8.38905"><time>2022-02-26T01:39:20.000Z</time></trkpt><trkpt lat="40.04561" lon="-8.38907"><ele>205</ele><time>2022-02-26T01:39:30.000Z</time></trkpt><trkpt lat="40.04546" lon="-8.38911"><time>2022-02-26T01:39:40.000Z</time></trkpt><trkpt lat="40.04531" lon="-8.3892"><ele>204</ele><time>2022-02-26T01:39:50.000Z</time></trkpt><trkpt lat="40.04522" lon="-8.38925"><time>2022-02-26T01:40:00.000Z</time></trkpt><trkpt lat="40.04518" lon="-8.38927"><time>2022-02-26T01:40:10.000Z</time></trkpt><trkpt lat="40.04508" lon="-8.38929"><ele>204</ele><time>2022-02-26T01:40:20.000Z</time></trkpt><trkpt lat="40.04498" lon="-8.38929"><time>2022-02-26T01:40:30.000Z</time></trkpt><trkpt lat="40.04493" lon="-8.38928"><time>2022-02-26T01:40:40.000Z</time></trkpt><trkpt lat="40.04476" lon="-8.38916"><ele>205</ele><time>2022-02-26T01:36:27.000Z</time></trkpt><trkpt lat="40.04451" lon="-8.38905"><ele>205</ele><time>2022-02-26T01:36:43.000Z</time></trkpt><trkpt lat="40.04441" lon="-8.38898"><time>2022-02-26T01:36:53.000Z</time></trkpt><trkpt lat="40.04434" lon="-8.38889"><ele>206</ele><time>2022-02-26T01:36:56.000Z</time></trkpt><trkpt lat="40.04428" lon="-8.3888"><time>2022-02-26T01:37:06.000Z</time></trkpt><trkpt lat="40.04419" lon="-8.38863"><ele>210</ele><time>2022-02-26T01:37:11.000Z</time></trkpt><trkpt lat="40.04411" lon="-8.38845"><time>2022-02-26T01:37:21.000Z</time></trkpt><trkpt lat="40.04408" lon="-8.38841"><time>2022-02-26T01:37:31.000Z</time></trkpt><trkpt lat="40.04403" lon="-8.38837"><ele>216</ele><time>2022-02-26T01:37:41.000Z</time></trkpt><trkpt lat="40.04394" lon="-8.38832"><time>2022-02-26T01:37:51.000Z</time></trkpt><trkpt lat="40.04384" lon="-8.38829"><time>2022-02-26T01:38:01.000Z</time></trkpt><trkpt lat="40.04372" lon="-8.38827"><ele>218</ele><time>2022-02-26T01:37:39.000Z</time></trkpt><trkpt lat="40.0435" lon="-8.38819"><ele>223</ele><time>2022-02-26T01:37:49.000Z</time></trkpt><trkpt lat="40.04344" lon="-8.38819"><time>2022-02-26T01:37:59.000Z</time></trkpt><trkpt lat="40.04334" lon="-8.3882"><time>2022-02-26T01:38:09.000Z</time></trkpt><trkpt lat="40.04304" lon="-8.38823"><ele>227</ele><time>2022-02-26T01:38:21.000Z</time></trkpt><trkpt lat="40.04264" lon="-8.38835"><ele>236</ele><time>2022-02-26T01:38:49.000Z</time></trkpt><trkpt lat="40.04253" lon="-8.38836"><time>2022-02-26T01:38:59.000Z</time></trkpt><trkpt lat="40.04248" lon="-8.38835"><time>2022-02-26T01:39:09.000Z</time></trkpt><trkpt lat="40.04233" lon="-8.38831"><ele>245</ele><time>2022-02-26T01:39:10.000Z</time></trkpt><trkpt lat="40.04222" lon="-8.38829"><time>2022-02-26T01:39:20.000Z</time></trkpt><trkpt lat="40.04217" lon="-8.38831"><time>2022-02-26T01:39:30.000Z</time></trkpt><trkpt lat="40.04213" lon="-8.38834"><ele>245</ele><time>2022-02-26T01:39:22.000Z</time></trkpt><trkpt lat="40.0421" lon="-8.3884"><time>2022-02-26T01:39:32.000Z</time></trkpt><trkpt lat="40.04208" lon="-8.38847"><time>2022-02-26T01:39:42.000Z</time></trkpt><trkpt lat="40.04208" lon="-8.38859"><ele>246</ele><time>2022-02-26T01:39:52.000Z</time></trkpt><trkpt lat="40.04208" lon="-8.38865"><time>2022-02-26T01:40:02.000Z</time></trkpt><trkpt lat="40.04206" lon="-8.38872"><time>2022-02-26T01:40:12.000Z</time></trkpt><trkpt lat="40.04202" lon="-8.38879"><time>2022-02-26T01:40:22.000Z</time></trkpt><trkpt lat="40.04198" lon="-8.38883"><ele>247</ele><time>2022-02-26T01:40:32.000Z</time></trkpt><trkpt lat="40.04194" lon="-8.38886"><time>2022-02-26T01:40:42.000Z</time></trkpt><trkpt lat="40.04171" lon="-8.389"><ele>247</ele><time>2022-02-26T01:40:52.000Z</time></trkpt><trkpt lat="40.04158" lon="-8.38911"><time>2022-02-26T01:41:02.000Z</time></trkpt><trkpt lat="40.04147" lon="-8.38926"><ele>247</ele><time>2022-02-26T01:41:12.000Z</time></trkpt><trkpt lat="40.04141" lon="-8.38931"><time>2022-02-26T01:41:22.000Z</time></trkpt><trkpt lat="40.04131" lon="-8.38937"><time>2022-02-26T01:41:32.000Z</time></trkpt><trkpt lat="40.0412" lon="-8.3894"><ele>250</ele><time>2022-02-26T01:41:42.000Z</time></trkpt><trkpt lat="40.04114" lon="-8.3894"><time>2022-02-26T01:41:52.000Z</time></trkpt><trkpt lat="40.04098" lon="-8.38942"><ele>251</ele><time>2022-02-26T01:42:02.000Z</time></trkpt><trkpt lat="40.04079" lon="-8.38946"><time>2022-02-26T01:42:12.000Z</time></trkpt><trkpt lat="40.04067" lon="-8.38945"><ele>254</ele><time>2022-02-26T01:42:22.000Z</time></trkpt><trkpt lat="40.04062" lon="-8.38944"><time>2022-02-26T01:42:32.000Z</time></trkpt><trkpt lat="40.04056" lon="-8.38941"><time>2022-02-26T01:42:42.000Z</time></trkpt><trkpt lat="40.04045" lon="-8.38933"><ele>253</ele><time>2022-02-26T01:42:52.000Z</time></trkpt><trkpt lat="40.0404" lon="-8.38931"><time>2022-02-26T01:43:02.000Z</time></trkpt><trkpt lat="40.04028" lon="-8.38928"><time>2022-02-26T01:43:12.000Z</time></trkpt><trkpt lat="40.04003" lon="-8.38917"><ele>254</ele><time>2022-02-26T01:43:22.000Z</time></trkpt><trkpt lat="40.03997" lon="-8.38917"><time>2022-02-26T01:43:32.000Z</time></trkpt><trkpt lat="40.03992" lon="-8.38919"><time>2022-02-26T01:43:42.000Z</time></trkpt><trkpt lat="40.03987" lon="-8.38924"><time>2022-02-26T01:43:52.000Z</time></trkpt><trkpt lat="40.03977" lon="-8.38944"><ele>256</ele><time>2022-02-26T01:41:44.000Z</time></trkpt><trkpt lat="40.03971" lon="-8.38954"><time>2022-02-26T01:41:54.000Z</time></trkpt><trkpt lat="40.0396" lon="-8.38963"><ele>254</ele><time>2022-02-26T01:41:56.000Z</time></trkpt><trkpt lat="40.0395" lon="-8.38966"><time>2022-02-26T01:42:06.000Z</time></trkpt><trkpt lat="40.03944" lon="-8.38967"><time>2022-02-26T01:42:16.000Z</time></trkpt><trkpt lat="40.03938" lon="-8.38967"><ele>252</ele><time>2022-02-26T01:42:26.000Z</time></trkpt><trkpt lat="40.03933" lon="-8.38964"><time>2022-02-26T01:42:36.000Z</time></trkpt><trkpt lat="40.03922" lon="-8.38956"><time>2022-02-26T01:42:46.000Z</time></trkpt><trkpt lat="40.03917" lon="-8.38954"><ele>252</ele><time>2022-02-26T01:42:56.000Z</time></trkpt><trkpt lat="40.03911" lon="-8.38952"><time>2022-02-26T01:43:06.000Z</time></trkpt><trkpt lat="40.03905" lon="-8.38953"><time>2022-02-26T01:43:16.000Z</time></trkpt><trkpt lat="40.03899" lon="-8.38956"><time>2022-02-26T01:43:26.000Z</time></trkpt><trkpt lat="40.0389" lon="-8.38961"><ele>250</ele><time>2022-02-26T01:43:36.000Z</time></trkpt><trkpt lat="40.03885" lon="-8.38966"><time>2022-02-26T01:43:46.000Z</time></trkpt><trkpt lat="40.03861" lon="-8.38991"><ele>248</ele><time>2022-02-26T01:43:56.000Z</time></trkpt><trkpt lat="40.03849" lon="-8.38998"><time>2022-02-26T01:44:06.000Z</time></trkpt><trkpt lat="40.03839" lon="-8.39002"><ele>244</ele><time>2022-02-26T01:44:16.000Z</time></trkpt><trkpt lat="40.03828" lon="-8.39004"><time>2022-02-26T01:44:26.000Z</time></trkpt><trkpt lat="40.03803" lon="-8.39004"><ele>244</ele><time>2022-02-26T01:44:36.000Z</time></trkpt><trkpt lat="40.0379" lon="-8.39009"><time>2022-02-26T01:44:46.000Z</time></trkpt><trkpt lat="40.03784" lon="-8.39009"><time>2022-02-26T01:44:56.000Z</time></trkpt><trkpt lat="40.03778" lon="-8.39006"><ele>229</ele><time>2022-02-26T01:45:06.000Z</time></trkpt><trkpt lat="40.03767" lon="-8.38997"><time>2022-02-26T01:45:16.000Z</time></trkpt><trkpt lat="40.03763" lon="-8.38992"><time>2022-02-26T01:45:26.000Z</time></trkpt><trkpt lat="40.0375" lon="-8.38973"><ele>226</ele><time>2022-02-26T01:43:29.000Z</time></trkpt><trkpt lat="40.03742" lon="-8.38964"><time>2022-02-26T01:43:39.000Z</time></trkpt><trkpt lat="40.03736" lon="-8.38959"><time>2022-02-26T01:43:49.000Z</time></trkpt><trkpt lat="40.0373" lon="-8.38958"><ele>220</ele><time>2022-02-26T01:43:40.000Z</time></trkpt><trkpt lat="40.03705" lon="-8.38967"><ele>218</ele><time>2022-02-26T01:43:48.000Z</time></trkpt><trkpt lat="40.03695" lon="-8.38968"><time>2022-02-26T01:43:58.000Z</time></trkpt><trkpt lat="40.0369" lon="-8.38966"><time>2022-02-26T01:44:08.000Z</time></trkpt><trkpt lat="40.03686" lon="-8.38962"><time>2022-02-26T01:44:18.000Z</time></trkpt><trkpt lat="40.03685" lon="-8.38955"><ele>218</ele><time>2022-02-26T01:43:56.000Z</time></trkpt><trkpt lat="40.03686" lon="-8.38948"><time>2022-02-26T01:44:06.000Z</time></trkpt><trkpt lat="40.03692" lon="-8.38927"><ele>218</ele><time>2022-02-26T01:44:04.000Z</time></trkpt><trkpt lat="40.03695" lon="-8.38912"><time>2022-02-26T01:44:14.000Z</time></trkpt><trkpt lat="40.03695" lon="-8.38903"><time>2022-02-26T01:44:24.000Z</time></trkpt><trkpt lat="40.03695" lon="-8.38895"><ele>217</ele><time>2022-02-26T01:44:12.000Z</time></trkpt><trkpt lat="40.03695" lon="-8.38877"><time>2022-02-26T01:44:22.000Z</time></trkpt><trkpt lat="40.03693" lon="-8.38859"><ele>213</ele><time>2022-02-26T01:44:20.000Z</time></trkpt><trkpt lat="40.03688" lon="-8.38829"><ele>208</ele><time>2022-02-26T01:44:30.000Z</time></trkpt><trkpt lat="40.03688" lon="-8.38815"><time>2022-02-26T01:44:40.000Z</time></trkpt><trkpt lat="40.03693" lon="-8.38783"><ele>203</ele><time>2022-02-26T01:44:50.000Z</time></trkpt><trkpt lat="40.03694" lon="-8.38776"><time>2022-02-26T01:45:00.000Z</time></trkpt><trkpt lat="40.03692" lon="-8.38771"><time>2022-02-26T01:45:10.000Z</time></trkpt><trkpt lat="40.03689" lon="-8.38766"><time>2022-02-26T01:45:20.000Z</time></trkpt><trkpt lat="40.03683" lon="-8.38763"><ele>200</ele><time>2022-02-26T01:45:30.000Z</time></trkpt><trkpt lat="40.03677" lon="-8.38764"><time>2022-02-26T01:45:40.000Z</time></trkpt><trkpt lat="40.03672" lon="-8.38767"><time>2022-02-26T01:45:50.000Z</time></trkpt><trkpt lat="40.03668" lon="-8.38771"><time>2022-02-26T01:46:00.000Z</time></trkpt><trkpt lat="40.03659" lon="-8.3878"><ele>199</ele><time>2022-02-26T01:45:01.000Z</time></trkpt><trkpt lat="40.03649" lon="-8.38795"><time>2022-02-26T01:45:11.000Z</time></trkpt><trkpt lat="40.03641" lon="-8.38804"><ele>199</ele><time>2022-02-26T01:45:11.000Z</time></trkpt><trkpt lat="40.03629" lon="-8.38815"><time>2022-02-26T01:45:21.000Z</time></trkpt><trkpt lat="40.03615" lon="-8.38827"><ele>193</ele><time>2022-02-26T01:45:24.000Z</time></trkpt><trkpt lat="40.03595" lon="-8.38848"><ele>192</ele><time>2022-02-26T01:45:34.000Z</time></trkpt><trkpt lat="40.03575" lon="-8.38871"><ele>192</ele><time>2022-02-26T01:45:45.000Z</time></trkpt><trkpt lat="40.03541" lon="-8.38905"><ele>180</ele><time>2022-02-26T01:45:55.000Z</time></trkpt><trkpt lat="40.03533" lon="-8.38917"><time>2022-02-26T01:46:05.000Z</time></trkpt><trkpt lat="40.03513" lon="-8.38957"><ele>178</ele><time>2022-02-26T01:46:15.000Z</time></trkpt><trkpt lat="40.0351" lon="-8.38963"><time>2022-02-26T01:46:25.000Z</time></trkpt><trkpt lat="40.03506" lon="-8.38967"><time>2022-02-26T01:46:35.000Z</time></trkpt><trkpt lat="40.03484" lon="-8.38984"><ele>177</ele><time>2022-02-26T01:46:29.000Z</time></trkpt><trkpt lat="40.03471" lon="-8.38992"><time>2022-02-26T01:46:39.000Z</time></trkpt><trkpt lat="40.03468" lon="-8.38999"><ele>177</ele><time>2022-02-26T01:46:49.000Z</time></trkpt><trkpt lat="40.03464" lon="-8.39001"><time>2022-02-26T01:46:59.000Z</time></trkpt><trkpt lat="40.03458" lon="-8.38999"><time>2022-02-26T01:47:09.000Z</time></trkpt><trkpt lat="40.03452" lon="-8.38998"><time>2022-02-26T01:47:19.000Z</time></trkpt><trkpt lat="40.03446" lon="-8.38999"><ele>177</ele><time>2022-02-26T01:47:29.000Z</time></trkpt><trkpt lat="40.03439" lon="-8.39001"><time>2022-02-26T01:47:39.000Z</time></trkpt><trkpt lat="40.03427" lon="-8.39006"><time>2022-02-26T01:47:49.000Z</time></trkpt><trkpt lat="40.03418" lon="-8.39013"><ele>182</ele><time>2022-02-26T01:47:39.000Z</time></trkpt><trkpt lat="40.03413" lon="-8.39017"><time>2022-02-26T01:47:49.000Z</time></trkpt><trkpt lat="40.0341" lon="-8.39022"><time>2022-02-26T01:47:59.000Z</time></trkpt><trkpt lat="40.03408" lon="-8.39028"><time>2022-02-26T01:48:09.000Z</time></trkpt><trkpt lat="40.03406" lon="-8.39041"><ele>193</ele><time>2022-02-26T01:47:58.000Z</time></trkpt><trkpt lat="40.03401" lon="-8.39052"><time>2022-02-26T01:48:08.000Z</time></trkpt><trkpt lat="40.03398" lon="-8.39057"><time>2022-02-26T01:48:18.000Z</time></trkpt><trkpt lat="40.03392" lon="-8.39057"><time>2022-02-26T01:48:28.000Z</time></trkpt><trkpt lat="40.03389" lon="-8.39052"><ele>193</ele><time>2022-02-26T01:48:14.000Z</time></trkpt><trkpt lat="40.03388" lon="-8.39033"><time>2022-02-26T01:48:24.000Z</time></trkpt><trkpt lat="40.03385" lon="-8.39011"><ele>196</ele><time>2022-02-26T01:48:32.000Z</time></trkpt><trkpt lat="40.03382" lon="-8.38998"><time>2022-02-26T01:48:42.000Z</time></trkpt><trkpt lat="40.0338" lon="-8.38991"><time>2022-02-26T01:48:52.000Z</time></trkpt><trkpt lat="40.03377" lon="-8.38985"><ele>201</ele><time>2022-02-26T01:48:44.000Z</time></trkpt><trkpt lat="40.03362" lon="-8.38959"><ele>207</ele><time>2022-02-26T01:48:54.000Z</time></trkpt><trkpt lat="40.03353" lon="-8.38943"><time>2022-02-26T01:49:04.000Z</time></trkpt><trkpt lat="40.03346" lon="-8.38919"><ele>213</ele><time>2022-02-26T01:49:14.000Z</time></trkpt><trkpt lat="40.03342" lon="-8.38912"><time>2022-02-26T01:49:24.000Z</time></trkpt><trkpt lat="40.03339" lon="-8.38906"><time>2022-02-26T01:49:34.000Z</time></trkpt><trkpt lat="40.03335" lon="-8.38902"><time>2022-02-26T01:49:44.000Z</time></trkpt><trkpt lat="40.03318" lon="-8.38886"><ele>210</ele><time>2022-02-26T01:49:42.000Z</time></trkpt><trkpt lat="40.03295" lon="-8.38866"><ele>208</ele><time>2022-02-26T01:49:58.000Z</time></trkpt><trkpt lat="40.03287" lon="-8.3886"><time>2022-02-26T01:50:08.000Z</time></trkpt><trkpt lat="40.03275" lon="-8.38854"><ele>208</ele><time>2022-02-26T01:50:08.000Z</time></trkpt><trkpt lat="40.03251" lon="-8.38848"><ele>218</ele><time>2022-02-26T01:50:18.000Z</time></trkpt><trkpt lat="40.03246" lon="-8.38846"><time>2022-02-26T01:50:28.000Z</time></trkpt><trkpt lat="40.03241" lon="-8.38843"><time>2022-02-26T01:50:38.000Z</time></trkpt><trkpt lat="40.03236" lon="-8.38838"><time>2022-02-26T01:50:48.000Z</time></trkpt><trkpt lat="40.03231" lon="-8.38833"><ele>218</ele><time>2022-02-26T01:50:58.000Z</time></trkpt><trkpt lat="40.03222" lon="-8.3882"><time>2022-02-26T01:51:08.000Z</time></trkpt><trkpt lat="40.03215" lon="-8.38803"><ele>211</ele><time>2022-02-26T01:51:18.000Z</time></trkpt><trkpt lat="40.03211" lon="-8.3879"><time>2022-02-26T01:51:28.000Z</time></trkpt><trkpt lat="40.03204" lon="-8.38775"><ele>211</ele><time>2022-02-26T01:51:38.000Z</time></trkpt><trkpt lat="40.03201" lon="-8.38768"><time>2022-02-26T01:51:48.000Z</time></trkpt><trkpt lat="40.03197" lon="-8.38763"><time>2022-02-26T01:51:58.000Z</time></trkpt><trkpt lat="40.03193" lon="-8.38759"><time>2022-02-26T01:52:08.000Z</time></trkpt><trkpt lat="40.03188" lon="-8.38759"><ele>212</ele><time>2022-02-26T01:52:18.000Z</time></trkpt><trkpt lat="40.03183" lon="-8.38762"><time>2022-02-26T01:52:28.000Z</time></trkpt><trkpt lat="40.03178" lon="-8.38767"><time>2022-02-26T01:52:38.000Z</time></trkpt><trkpt lat="40.03164" lon="-8.38784"><ele>215</ele><time>2022-02-26T01:52:48.000Z</time></trkpt><trkpt lat="40.03154" lon="-8.38793"><time>2022-02-26T01:52:58.000Z</time></trkpt><trkpt lat="40.03139" lon="-8.38805"><ele>220</ele><time>2022-02-26T01:53:08.000Z</time></trkpt><trkpt lat="40.03128" lon="-8.3881"><time>2022-02-26T01:53:18.000Z</time></trkpt><trkpt lat="40.03122" lon="-8.38811"><time>2022-02-26T01:53:28.000Z</time></trkpt><trkpt lat="40.0311" lon="-8.3881"><ele>223</ele><time>2022-02-26T01:53:38.000Z</time></trkpt><trkpt lat="40.03099" lon="-8.38806"><time>2022-02-26T01:53:48.000Z</time></trkpt><trkpt lat="40.03085" lon="-8.38799"><ele>225</ele><time>2022-02-26T01:53:58.000Z</time></trkpt><trkpt lat="40.03079" lon="-8.38797"><time>2022-02-26T01:54:08.000Z</time></trkpt><trkpt lat="40.03074" lon="-8.38798"><time>2022-02-26T01:54:18.000Z</time></trkpt><trkpt lat="40.03062" lon="-8.38801"><ele>225</ele><time>2022-02-26T01:54:28.000Z</time></trkpt><trkpt lat="40.03056" lon="-8.38802"><time>2022-02-26T01:54:38.000Z</time></trkpt><trkpt lat="40.03051" lon="-8.38801"><time>2022-02-26T01:54:48.000Z</time></trkpt><trkpt lat="40.03045" lon="-8.388"><time>2022-02-26T01:54:58.000Z</time></trkpt><trkpt lat="40.0303" lon="-8.38793"><ele>226</ele><time>2022-02-26T01:55:08.000Z</time></trkpt><trkpt lat="40.03019" lon="-8.3879"><time>2022-02-26T01:55:18.000Z</time></trkpt><trkpt lat="40.02999" lon="-8.38789"><ele>227</ele><time>2022-02-26T01:53:00.000Z</time></trkpt><trkpt lat="40.02978" lon="-8.38784"><time>2022-02-26T01:53:10.000Z</time></trkpt><trkpt lat="40.02969" lon="-8.3878"><ele>232</ele><time>2022-02-26T01:53:20.000Z</time></trkpt><trkpt lat="40.0296" lon="-8.38775"><time>2022-02-26T01:53:30.000Z</time></trkpt><trkpt lat="40.02955" lon="-8.38773"><time>2022-02-26T01:53:40.000Z</time></trkpt><trkpt lat="40.0295" lon="-8.38776"><time>2022-02-26T01:53:50.000Z</time></trkpt><trkpt lat="40.02942" lon="-8.38785"><ele>233</ele><time>2022-02-26T01:53:39.000Z</time></trkpt><trkpt lat="40.02938" lon="-8.38788"><time>2022-02-26T01:53:49.000Z</time></trkpt><trkpt lat="40.02929" lon="-8.3879"><time>2022-02-26T01:53:59.000Z</time></trkpt><trkpt lat="40.02925" lon="-8.38792"><time>2022-02-26T01:54:09.000Z</time></trkpt><trkpt lat="40.0292" lon="-8.38793"><ele>237</ele><time>2022-02-26T01:54:04.000Z</time></trkpt><trkpt lat="40.02909" lon="-8.38795"><time>2022-02-26T01:54:14.000Z</time></trkpt><trkpt lat="40.02898" lon="-8.388"><ele>242</ele><time>2022-02-26T01:54:15.000Z</time></trkpt><trkpt lat="40.02895" lon="-8.38804"><time>2022-02-26T01:54:25.000Z</time></trkpt><trkpt lat="40.0289" lon="-8.3881"><time>2022-02-26T01:54:35.000Z</time></trkpt><trkpt lat="40.02882" lon="-8.3882"><ele>247</ele><time>2022-02-26T01:54:27.000Z</time></trkpt><trkpt lat="40.02872" lon="-8.38835"><time>2022-02-26T01:54:37.000Z</time></trkpt><trkpt lat="40.0287" lon="-8.38842"><ele>251</ele><time>2022-02-26T01:54:42.000Z</time></trkpt><trkpt lat="40.02871" lon="-8.38849"><time>2022-02-26T01:54:52.000Z</time></trkpt><trkpt lat="40.02873" lon="-8.38856"><time>2022-02-26T01:55:02.000Z</time></trkpt><trkpt lat="40.02877" lon="-8.38861"><time>2022-02-26T01:55:12.000Z</time></trkpt><trkpt lat="40.0288" lon="-8.38865"><ele>251</ele><time>2022-02-26T01:54:58.000Z</time></trkpt><trkpt lat="40.02903" lon="-8.38881"><ele>250</ele><time>2022-02-26T01:55:08.000Z</time></trkpt><trkpt lat="40.02919" lon="-8.38887"><time>2022-02-26T01:55:18.000Z</time></trkpt><trkpt lat="40.02944" lon="-8.38893"><ele>250</ele><time>2022-02-26T01:55:42.000Z</time></trkpt><trkpt lat="40.02968" lon="-8.38901"><ele>259</ele><time>2022-02-26T01:55:52.000Z</time></trkpt><trkpt lat="40.02972" lon="-8.38903"><time>2022-02-26T01:56:02.000Z</time></trkpt><trkpt lat="40.03015" lon="-8.38931"><ele>262</ele><time>2022-02-26T01:56:33.000Z</time></trkpt><trkpt lat="40.03034" lon="-8.38941"><time>2022-02-26T01:56:43.000Z</time></trkpt><trkpt lat="40.03045" lon="-8.38944"><ele>265</ele><time>2022-02-26T01:56:51.000Z</time></trkpt><trkpt lat="40.03055" lon="-8.38945"><time>2022-02-26T01:57:01.000Z</time></trkpt><trkpt lat="40.03075" lon="-8.38951"><ele>278</ele><time>2022-02-26T01:57:09.000Z</time></trkpt><trkpt lat="40.03096" lon="-8.38954"><ele>278</ele><time>2022-02-26T01:57:19.000Z</time></trkpt><trkpt lat="40.03111" lon="-8.38958"><time>2022-02-26T01:57:29.000Z</time></trkpt><trkpt lat="40.03132" lon="-8.3896"><ele>278</ele><time>2022-02-26T01:57:42.000Z</time></trkpt><trkpt lat="40.03143" lon="-8.38961"><time>2022-02-26T01:57:52.000Z</time></trkpt><trkpt lat="40.03149" lon="-8.38961"><time>2022-02-26T01:58:02.000Z</time></trkpt><trkpt lat="40.0316" lon="-8.38966"><ele>278</ele><time>2022-02-26T01:58:00.000Z</time></trkpt><trkpt lat="40.0317" lon="-8.38972"><time>2022-02-26T01:58:10.000Z</time></trkpt><trkpt lat="40.03179" lon="-8.38977"><ele>273</ele><time>2022-02-26T01:58:08.000Z</time></trkpt><trkpt lat="40.03188" lon="-8.38981"><time>2022-02-26T01:58:18.000Z</time></trkpt><trkpt lat="40.03204" lon="-8.38985"><ele>270</ele><time>2022-02-26T01:58:19.000Z</time></trkpt><trkpt lat="40.03209" lon="-8.38988"><time>2022-02-26T01:58:29.000Z</time></trkpt><trkpt lat="40.03214" lon="-8.38993"><time>2022-02-26T01:58:39.000Z</time></trkpt><trkpt lat="40.03216" lon="-8.38998"><time>2022-02-26T01:58:49.000Z</time></trkpt><trkpt lat="40.03219" lon="-8.39006"><ele>260</ele><time>2022-02-26T01:58:29.000Z</time></trkpt><trkpt lat="40.03219" lon="-8.39015"><time>2022-02-26T01:58:39.000Z</time></trkpt><trkpt lat="40.03218" lon="-8.39023"><time>2022-02-26T01:58:49.000Z</time></trkpt><trkpt lat="40.03216" lon="-8.39031"><time>2022-02-26T01:58:59.000Z</time></trkpt><trkpt lat="40.03214" lon="-8.39036"><ele>260</ele><time>2022-02-26T01:58:40.000Z</time></trkpt><trkpt lat="40.03195" lon="-8.39068"><ele>263</ele><time>2022-02-26T01:58:50.000Z</time></trkpt><trkpt lat="40.03188" lon="-8.39077"><time>2022-02-26T01:59:00.000Z</time></trkpt><trkpt lat="40.03164" lon="-8.39099"><ele>266</ele><time>2022-02-26T01:59:10.000Z</time></trkpt><trkpt lat="40.03159" lon="-8.39101"><time>2022-02-26T01:59:20.000Z</time></trkpt><trkpt lat="40.03145" lon="-8.39111"><time>2022-02-26T01:59:30.000Z</time></trkpt><trkpt lat="40.03135" lon="-8.39115"><ele>273</ele><time>2022-02-26T01:59:40.000Z</time></trkpt><trkpt lat="40.03129" lon="-8.39117"><time>2022-02-26T01:59:50.000Z</time></trkpt><trkpt lat="40.03123" lon="-8.39116"><time>2022-02-26T02:00:00.000Z</time></trkpt><trkpt lat="40.03117" lon="-8.39113"><time>2022-02-26T02:00:10.000Z</time></trkpt><trkpt lat="40.03113" lon="-8.39108"><ele>274</ele><time>2022-02-26T02:00:20.000Z</time></trkpt><trkpt lat="40.03108" lon="-8.39105"><time>2022-02-26T02:00:30.000Z</time></trkpt><trkpt lat="40.03097" lon="-8.39093"><time>2022-02-26T02:00:40.000Z</time></trkpt><trkpt lat="40.03093" lon="-8.39087"><ele>275</ele><time>2022-02-26T02:00:50.000Z</time></trkpt><trkpt lat="40.03086" lon="-8.3908"><time>2022-02-26T02:01:00.000Z</time></trkpt><trkpt lat="40.03082" lon="-8.39073"><time>2022-02-26T02:01:10.000Z</time></trkpt><trkpt lat="40.03077" lon="-8.39061"><ele>275</ele><time>2022-02-26T02:01:20.000Z</time></trkpt><trkpt lat="40.03079" lon="-8.39055"><time>2022-02-26T02:01:30.000Z</time></trkpt><trkpt lat="40.03089" lon="-8.39054"><time>2022-02-26T02:01:40.000Z</time></trkpt><trkpt lat="40.03101" lon="-8.39054"><ele>284</ele><time>2022-02-26T02:01:50.000Z</time></trkpt><trkpt lat="40.03106" lon="-8.39053"><time>2022-02-26T02:02:00.000Z</time></trkpt><trkpt lat="40.03117" lon="-8.39056"><time>2022-02-26T02:02:10.000Z</time></trkpt><trkpt lat="40.03125" lon="-8.39055"><ele>284</ele><time>2022-02-26T02:02:20.000Z</time></trkpt><trkpt lat="40.03129" lon="-8.39051"><time>2022-02-26T02:02:30.000Z</time></trkpt><trkpt lat="40.03126" lon="-8.39046"><time>2022-02-26T02:02:40.000Z</time></trkpt><trkpt lat="40.03116" lon="-8.39042"><time>2022-02-26T02:02:50.000Z</time></trkpt><trkpt lat="40.03112" lon="-8.39039"><ele>284</ele><time>2022-02-26T02:03:00.000Z</time></trkpt><trkpt lat="40.03107" lon="-8.39036"><time>2022-02-26T02:03:10.000Z</time></trkpt><trkpt lat="40.03099" lon="-8.39029"><time>2022-02-26T02:03:20.000Z</time></trkpt><trkpt lat="40.03096" lon="-8.39023"><ele>284</ele><time>2022-02-26T02:03:30.000Z</time></trkpt><trkpt lat="40.03091" lon="-8.39018"><time>2022-02-26T02:03:40.000Z</time></trkpt><trkpt lat="40.0308" lon="-8.39014"><time>2022-02-26T02:03:50.000Z</time></trkpt><trkpt lat="40.03065" lon="-8.39013"><ele>284</ele><time>2022-02-26T02:04:00.000Z</time></trkpt><trkpt lat="40.03057" lon="-8.39011"><time>2022-02-26T02:04:10.000Z</time></trkpt><trkpt lat="40.03045" lon="-8.39006"><ele>282</ele><time>2022-02-26T02:04:20.000Z</time></trkpt><trkpt lat="40.0304" lon="-8.39006"><time>2022-02-26T02:04:30.000Z</time></trkpt><trkpt lat="40.03031" lon="-8.39005"><time>2022-02-26T02:04:40.000Z</time></trkpt><trkpt lat="40.0301" lon="-8.39007"><ele>281</ele><time>2022-02-26T02:04:50.000Z</time></trkpt><trkpt lat="40.03001" lon="-8.39006"><time>2022-02-26T02:05:00.000Z</time></trkpt><trkpt lat="40.02987" lon="-8.39001"><ele>279</ele><time>2022-02-26T02:05:10.000Z</time></trkpt><trkpt lat="40.02982" lon="-8.38998"><time>2022-02-26T02:05:20.000Z</time></trkpt><trkpt lat="40.02981" lon="-8.38992"><time>2022-02-26T02:05:30.000Z</time></trkpt><trkpt lat="40.02977" lon="-8.39001"><time>2022-02-26T02:05:40.000Z</time></trkpt><trkpt lat="40.02977" lon="-8.39004"><time>2022-02-26T02:05:50.000Z</time></trkpt><trkpt lat="40.0298" lon="-8.39"><ele>279</ele><time>2022-02-26T02:06:00.000Z</time></trkpt><trkpt lat="40.02975" lon="-8.38999"><time>2022-02-26T02:06:10.000Z</time></trkpt><trkpt lat="40.02969" lon="-8.38994"><time>2022-02-26T02:06:20.000Z</time></trkpt><trkpt lat="40.02963" lon="-8.38992"><time>2022-02-26T02:06:30.000Z</time></trkpt><trkpt lat="40.02945" lon="-8.38989"><ele>279</ele><time>2022-02-26T02:06:40.000Z</time></trkpt><trkpt lat="40.02937" lon="-8.3899"><time>2022-02-26T02:06:50.000Z</time></trkpt><trkpt lat="40.02933" lon="-8.38993"><time>2022-02-26T02:07:00.000Z</time></trkpt><trkpt lat="40.02935" lon="-8.39"><time>2022-02-26T02:07:10.000Z</time></trkpt><trkpt lat="40.0294" lon="-8.39003"><ele>277</ele><time>2022-02-26T02:07:20.000Z</time></trkpt><trkpt lat="40.02949" lon="-8.39013"><time>2022-02-26T02:07:30.000Z</time></trkpt><trkpt lat="40.02953" lon="-8.39016"><time>2022-02-26T02:07:40.000Z</time></trkpt><trkpt lat="40.02957" lon="-8.3902"><ele>275</ele><time>2022-02-26T02:07:50.000Z</time></trkpt><trkpt lat="40.02958" lon="-8.39027"><time>2022-02-26T02:08:00.000Z</time></trkpt><trkpt lat="40.02957" lon="-8.39034"><time>2022-02-26T02:08:10.000Z</time></trkpt><trkpt lat="40.02956" lon="-8.39047"><ele>272</ele><time>2022-02-26T02:08:20.000Z</time></trkpt><trkpt lat="40.02953" lon="-8.39054"><time>2022-02-26T02:08:30.000Z</time></trkpt><trkpt lat="40.02948" lon="-8.39059"><time>2022-02-26T02:08:40.000Z</time></trkpt><trkpt lat="40.02947" lon="-8.39067"><time>2022-02-26T02:08:50.000Z</time></trkpt><trkpt lat="40.02954" lon="-8.39079"><ele>269</ele><time>2022-02-26T02:09:00.000Z</time></trkpt><trkpt lat="40.02966" lon="-8.39081"><time>2022-02-26T02:09:10.000Z</time></trkpt><trkpt lat="40.02971" lon="-8.39085"><time>2022-02-26T02:09:20.000Z</time></trkpt><trkpt lat="40.02965" lon="-8.39105"><ele>268</ele><time>2022-02-26T02:09:30.000Z</time></trkpt><trkpt lat="40.02967" lon="-8.39111"><time>2022-02-26T02:09:40.000Z</time></trkpt><trkpt lat="40.02986" lon="-8.39127"><ele>263</ele><time>2022-02-26T02:09:50.000Z</time></trkpt><trkpt lat="40.03" lon="-8.39135"><time>2022-02-26T02:10:00.000Z</time></trkpt><trkpt lat="40.03014" lon="-8.39141"><ele>260</ele><time>2022-02-26T02:10:10.000Z</time></trkpt><trkpt lat="40.03027" lon="-8.39145"><time>2022-02-26T02:10:20.000Z</time></trkpt><trkpt lat="40.03043" lon="-8.39151"><ele>261</ele><time>2022-02-26T02:10:30.000Z</time></trkpt><trkpt lat="40.0306" lon="-8.3916"><time>2022-02-26T02:10:40.000Z</time></trkpt><trkpt lat="40.03065" lon="-8.39164"><ele>260</ele><time>2022-02-26T02:10:50.000Z</time></trkpt><trkpt lat="40.03071" lon="-8.39169"><time>2022-02-26T02:11:00.000Z</time></trkpt><trkpt lat="40.0308" lon="-8.3918"><time>2022-02-26T02:11:10.000Z</time></trkpt><trkpt lat="40.03101" lon="-8.39194"><ele>260</ele><time>2022-02-26T02:12:07.000Z</time></trkpt><trkpt lat="40.03125" lon="-8.39205"><ele>261</ele><time>2022-02-26T02:12:17.000Z</time></trkpt><trkpt lat="40.03128" lon="-8.39211"><time>2022-02-26T02:12:27.000Z</time></trkpt><trkpt lat="40.03136" lon="-8.3922"><time>2022-02-26T02:12:37.000Z</time></trkpt><trkpt lat="40.03137" lon="-8.39227"><ele>262</ele><time>2022-02-26T02:12:47.000Z</time></trkpt><trkpt lat="40.03135" lon="-8.39234"><time>2022-02-26T02:12:57.000Z</time></trkpt><trkpt lat="40.0313" lon="-8.39248"><time>2022-02-26T02:13:07.000Z</time></trkpt><trkpt lat="40.03122" lon="-8.39275"><ele>264</ele><time>2022-02-26T02:13:17.000Z</time></trkpt><trkpt lat="40.03129" lon="-8.39296"><time>2022-02-26T02:13:27.000Z</time></trkpt><trkpt lat="40.03131" lon="-8.39304"><ele>265</ele><time>2022-02-26T02:13:37.000Z</time></trkpt><trkpt lat="40.03134" lon="-8.39323"><time>2022-02-26T02:13:47.000Z</time></trkpt><trkpt lat="40.03138" lon="-8.39341"><ele>265</ele><time>2022-02-26T02:13:57.000Z</time></trkpt><trkpt lat="40.03141" lon="-8.39346"><time>2022-02-26T02:14:07.000Z</time></trkpt><trkpt lat="40.03144" lon="-8.39351"><time>2022-02-26T02:14:17.000Z</time></trkpt><trkpt lat="40.03166" lon="-8.39379"><ele>265</ele><time>2022-02-26T02:13:40.000Z</time></trkpt><trkpt lat="40.03172" lon="-8.39389"><time>2022-02-26T02:13:50.000Z</time></trkpt><trkpt lat="40.03175" lon="-8.39394"><time>2022-02-26T02:14:00.000Z</time></trkpt><trkpt lat="40.03178" lon="-8.394"><time>2022-02-26T02:14:10.000Z</time></trkpt><trkpt lat="40.03182" lon="-8.39412"><ele>265</ele><time>2022-02-26T02:13:52.000Z</time></trkpt><trkpt lat="40.03186" lon="-8.3943"><time>2022-02-26T02:14:02.000Z</time></trkpt><trkpt lat="40.03187" lon="-8.39436"><time>2022-02-26T02:14:12.000Z</time></trkpt><trkpt lat="40.03188" lon="-8.39445"><ele>263</ele><time>2022-02-26T02:14:03.000Z</time></trkpt><trkpt lat="40.03185" lon="-8.39484"><ele>262</ele><time>2022-02-26T02:14:15.000Z</time></trkpt><trkpt lat="40.03184" lon="-8.39496"><time>2022-02-26T02:14:25.000Z</time></trkpt><trkpt lat="40.0318" lon="-8.39515"><ele>261</ele><time>2022-02-26T02:14:25.000Z</time></trkpt><trkpt lat="40.03174" lon="-8.39534"><time>2022-02-26T02:14:35.000Z</time></trkpt><trkpt lat="40.03172" lon="-8.3954"><ele>258</ele><time>2022-02-26T02:14:45.000Z</time></trkpt><trkpt lat="40.03167" lon="-8.39552"><time>2022-02-26T02:14:55.000Z</time></trkpt><trkpt lat="40.03161" lon="-8.39571"><ele>259</ele><time>2022-02-26T02:15:05.000Z</time></trkpt><trkpt lat="40.03158" lon="-8.39584"><time>2022-02-26T02:15:15.000Z</time></trkpt><trkpt lat="40.03156" lon="-8.39596"><time>2022-02-26T02:15:25.000Z</time></trkpt><trkpt lat="40.03153" lon="-8.39619"><ele>255</ele><time>2022-02-26T02:15:35.000Z</time></trkpt><trkpt lat="40.03153" lon="-8.39631"><time>2022-02-26T02:15:45.000Z</time></trkpt><trkpt lat="40.03151" lon="-8.39664"><ele>253</ele><time>2022-02-26T02:15:55.000Z</time></trkpt><trkpt lat="40.03151" lon="-8.39676"><time>2022-02-26T02:16:05.000Z</time></trkpt><trkpt lat="40.03152" lon="-8.39682"><time>2022-02-26T02:16:15.000Z</time></trkpt><trkpt lat="40.03154" lon="-8.39689"><time>2022-02-26T02:16:25.000Z</time></trkpt><trkpt lat="40.03156" lon="-8.39694"><ele>252</ele><time>2022-02-26T02:16:35.000Z</time></trkpt><trkpt lat="40.0316" lon="-8.39701"><time>2022-02-26T02:16:45.000Z</time></trkpt><trkpt lat="40.0317" lon="-8.39711"><time>2022-02-26T02:16:55.000Z</time></trkpt><trkpt lat="40.03186" lon="-8.39721"><ele>250</ele><time>2022-02-26T02:17:05.000Z</time></trkpt><trkpt lat="40.03202" lon="-8.39732"><time>2022-02-26T02:17:15.000Z</time></trkpt><trkpt lat="40.03211" lon="-8.39741"><ele>250</ele><time>2022-02-26T02:17:25.000Z</time></trkpt><trkpt lat="40.03221" lon="-8.39748"><time>2022-02-26T02:17:35.000Z</time></trkpt><trkpt lat="40.03237" lon="-8.39764"><ele>251</ele><time>2022-02-26T02:17:45.000Z</time></trkpt><trkpt lat="40.03245" lon="-8.39773"><time>2022-02-26T02:17:55.000Z</time></trkpt><trkpt lat="40.03247" lon="-8.39779"><time>2022-02-26T02:18:05.000Z</time></trkpt><trkpt lat="40.0325" lon="-8.39783"><time>2022-02-26T02:18:15.000Z</time></trkpt><trkpt lat="40.03261" lon="-8.39794"><ele>249</ele><time>2022-02-26T02:18:25.000Z</time></trkpt><trkpt lat="40.03269" lon="-8.39802"><time>2022-02-26T02:18:35.000Z</time></trkpt><trkpt lat="40.03276" lon="-8.39812"><time>2022-02-26T02:18:45.000Z</time></trkpt><trkpt lat="40.03285" lon="-8.39827"><ele>248</ele><time>2022-02-26T02:16:36.000Z</time></trkpt><trkpt lat="40.03305" lon="-8.39853"><ele>246</ele><time>2022-02-26T02:16:46.000Z</time></trkpt><trkpt lat="40.03312" lon="-8.39862"><time>2022-02-26T02:16:56.000Z</time></trkpt><trkpt lat="40.03328" lon="-8.39877"><ele>243</ele><time>2022-02-26T02:17:06.000Z</time></trkpt><trkpt lat="40.03336" lon="-8.39886"><time>2022-02-26T02:17:16.000Z</time></trkpt><trkpt lat="40.03349" lon="-8.39901"><ele>240</ele><time>2022-02-26T02:17:26.000Z</time></trkpt><trkpt lat="40.03357" lon="-8.39913"><time>2022-02-26T02:17:36.000Z</time></trkpt><trkpt lat="40.03364" lon="-8.39926"><ele>237</ele><time>2022-02-26T02:17:46.000Z</time></trkpt><trkpt lat="40.03368" lon="-8.39931"><time>2022-02-26T02:17:56.000Z</time></trkpt><trkpt lat="40.03372" lon="-8.39935"><time>2022-02-26T02:18:06.000Z</time></trkpt><trkpt lat="40.03377" lon="-8.39938"><time>2022-02-26T02:18:16.000Z</time></trkpt><trkpt lat="40.03382" lon="-8.3994"><time>2022-02-26T02:18:26.000Z</time></trkpt><trkpt lat="40.03411" lon="-8.39948"><ele>239</ele><time>2022-02-26T02:17:50.000Z</time></trkpt><trkpt lat="40.03422" lon="-8.39952"><time>2022-02-26T02:18:00.000Z</time></trkpt><trkpt lat="40.03426" lon="-8.39955"><time>2022-02-26T02:18:10.000Z</time></trkpt><trkpt lat="40.0343" lon="-8.39961"><ele>241</ele><time>2022-02-26T02:18:03.000Z</time></trkpt><trkpt lat="40.0343" lon="-8.39968"><time>2022-02-26T02:18:13.000Z</time></trkpt><trkpt lat="40.03429" lon="-8.39974"><time>2022-02-26T02:18:23.000Z</time></trkpt><trkpt lat="40.03427" lon="-8.39981"><time>2022-02-26T02:18:33.000Z</time></trkpt><trkpt lat="40.03425" lon="-8.39986"><time>2022-02-26T02:18:43.000Z</time></trkpt><trkpt lat="40.03424" lon="-8.39992"><ele>243</ele><time>2022-02-26T02:18:22.000Z</time></trkpt><trkpt lat="40.03422" lon="-8.40012"><time>2022-02-26T02:18:32.000Z</time></trkpt><trkpt lat="40.03422" lon="-8.40028"><ele>245</ele><time>2022-02-26T02:18:38.000Z</time></trkpt><trkpt lat="40.03424" lon="-8.40047"><time>2022-02-26T02:18:48.000Z</time></trkpt><trkpt lat="40.03424" lon="-8.4006"><ele>251</ele><time>2022-02-26T02:18:58.000Z</time></trkpt><trkpt lat="40.03423" lon="-8.40067"><time>2022-02-26T02:19:08.000Z</time></trkpt><trkpt lat="40.03421" lon="-8.40073"><time>2022-02-26T02:19:18.000Z</time></trkpt><trkpt lat="40.03415" lon="-8.40087"><ele>251</ele><time>2022-02-26T02:19:28.000Z</time></trkpt><trkpt lat="40.03412" lon="-8.40092"><time>2022-02-26T02:19:38.000Z</time></trkpt><trkpt lat="40.03408" lon="-8.40097"><time>2022-02-26T02:19:48.000Z</time></trkpt><trkpt lat="40.03383" lon="-8.40124"><ele>250</ele><time>2022-02-26T02:19:58.000Z</time></trkpt><trkpt lat="40.03379" lon="-8.4013"><time>2022-02-26T02:20:08.000Z</time></trkpt><trkpt lat="40.03376" lon="-8.40136"><time>2022-02-26T02:20:18.000Z</time></trkpt><trkpt lat="40.03372" lon="-8.40148"><ele>250</ele><time>2022-02-26T02:20:28.000Z</time></trkpt><trkpt lat="40.03367" lon="-8.4017"><time>2022-02-26T02:20:38.000Z</time></trkpt><trkpt lat="40.03361" lon="-8.40198"><ele>251</ele><time>2022-02-26T02:19:56.000Z</time></trkpt><trkpt lat="40.03356" lon="-8.40229"><ele>251</ele><time>2022-02-26T02:20:06.000Z</time></trkpt><trkpt lat="40.03353" lon="-8.40235"><time>2022-02-26T02:20:16.000Z</time></trkpt><trkpt lat="40.03349" lon="-8.40241"><time>2022-02-26T02:20:26.000Z</time></trkpt><trkpt lat="40.03341" lon="-8.40248"><ele>255</ele><time>2022-02-26T02:20:36.000Z</time></trkpt><trkpt lat="40.03338" lon="-8.40255"><time>2022-02-26T02:20:46.000Z</time></trkpt><trkpt lat="40.03335" lon="-8.40267"><time>2022-02-26T02:20:56.000Z</time></trkpt><trkpt lat="40.03332" lon="-8.40288"><ele>256</ele><time>2022-02-26T02:21:06.000Z</time></trkpt><trkpt lat="40.03328" lon="-8.40302"><time>2022-02-26T02:21:16.000Z</time></trkpt><trkpt lat="40.03314" lon="-8.40344"><ele>255</ele><time>2022-02-26T02:20:58.000Z</time></trkpt><trkpt lat="40.03304" lon="-8.40365"><time>2022-02-26T02:21:08.000Z</time></trkpt><trkpt lat="40.033" lon="-8.4037"><ele>255</ele><time>2022-02-26T02:21:10.000Z</time></trkpt><trkpt lat="40.03292" lon="-8.4038"><time>2022-02-26T02:21:20.000Z</time></trkpt><trkpt lat="40.03287" lon="-8.40383"><time>2022-02-26T02:21:30.000Z</time></trkpt><trkpt lat="40.03282" lon="-8.40384"><ele>255</ele><time>2022-02-26T02:21:40.000Z</time></trkpt><trkpt lat="40.03276" lon="-8.4038"><time>2022-02-26T02:21:50.000Z</time></trkpt><trkpt lat="40.03269" lon="-8.40369"><time>2022-02-26T02:22:00.000Z</time></trkpt><trkpt lat="40.03265" lon="-8.40357"><ele>265</ele><time>2022-02-26T02:22:10.000Z</time></trkpt><trkpt lat="40.0326" lon="-8.40346"><time>2022-02-26T02:22:20.000Z</time></trkpt><trkpt lat="40.03256" lon="-8.40342"><time>2022-02-26T02:22:30.000Z</time></trkpt><trkpt lat="40.03251" lon="-8.40341"><time>2022-02-26T02:22:40.000Z</time></trkpt><trkpt lat="40.03247" lon="-8.40346"><ele>265</ele><time>2022-02-26T02:22:50.000Z</time></trkpt><trkpt lat="40.03244" lon="-8.40353"><time>2022-02-26T02:23:00.000Z</time></trkpt><trkpt lat="40.03238" lon="-8.40366"><time>2022-02-26T02:23:10.000Z</time></trkpt><trkpt lat="40.03232" lon="-8.40378"><ele>266</ele><time>2022-02-26T02:23:20.000Z</time></trkpt><trkpt lat="40.0323" lon="-8.40384"><time>2022-02-26T02:23:30.000Z</time></trkpt><trkpt lat="40.03227" lon="-8.40389"><time>2022-02-26T02:23:40.000Z</time></trkpt><trkpt lat="40.03217" lon="-8.40398"><ele>266</ele><time>2022-02-26T02:23:50.000Z</time></trkpt><trkpt lat="40.03212" lon="-8.40401"><time>2022-02-26T02:24:00.000Z</time></trkpt><trkpt lat="40.03203" lon="-8.40402"><time>2022-02-26T02:24:10.000Z</time></trkpt><trkpt lat="40.03198" lon="-8.40405"><time>2022-02-26T02:24:20.000Z</time></trkpt><trkpt lat="40.03185" lon="-8.40414"><ele>268</ele><time>2022-02-26T02:22:40.000Z</time></trkpt><trkpt lat="40.03175" lon="-8.40426"><time>2022-02-26T02:22:50.000Z</time></trkpt><trkpt lat="40.03171" lon="-8.4043"><time>2022-02-26T02:23:00.000Z</time></trkpt><trkpt lat="40.03168" lon="-8.40438"><ele>270</ele><time>2022-02-26T02:22:51.000Z</time></trkpt><trkpt lat="40.03159" lon="-8.40469"><ele>268</ele><time>2022-02-26T02:23:01.000Z</time></trkpt><trkpt lat="40.03155" lon="-8.40488"><time>2022-02-26T02:23:11.000Z</time></trkpt><trkpt lat="40.03148" lon="-8.40522"><ele>267</ele><time>2022-02-26T02:23:17.000Z</time></trkpt><trkpt lat="40.03133" lon="-8.40566"><ele>269</ele><time>2022-02-26T02:23:33.000Z</time></trkpt><trkpt lat="40.03125" lon="-8.40619"><ele>267</ele><time>2022-02-26T02:23:43.000Z</time></trkpt><trkpt lat="40.03125" lon="-8.40626"><time>2022-02-26T02:23:53.000Z</time></trkpt><trkpt lat="40.03127" lon="-8.4064"><time>2022-02-26T02:24:03.000Z</time></trkpt><trkpt lat="40.03127" lon="-8.40663"><ele>269</ele><time>2022-02-26T02:24:10.000Z</time></trkpt><trkpt lat="40.03129" lon="-8.40685"><time>2022-02-26T02:24:20.000Z</time></trkpt><trkpt lat="40.03128" lon="-8.40705"><ele>272</ele><time>2022-02-26T02:24:30.000Z</time></trkpt><trkpt lat="40.03127" lon="-8.40719"><time>2022-02-26T02:24:40.000Z</time></trkpt><trkpt lat="40.03126" lon="-8.40733"><ele>275</ele><time>2022-02-26T02:24:50.000Z</time></trkpt><trkpt lat="40.03127" lon="-8.4074"><time>2022-02-26T02:25:00.000Z</time></trkpt><trkpt lat="40.03128" lon="-8.40754"><time>2022-02-26T02:25:10.000Z</time></trkpt><trkpt lat="40.03128" lon="-8.40761"><ele>271</ele><time>2022-02-26T02:25:20.000Z</time></trkpt><trkpt lat="40.03128" lon="-8.40768"><time>2022-02-26T02:25:30.000Z</time></trkpt><trkpt lat="40.03129" lon="-8.40775"><time>2022-02-26T02:25:40.000Z</time></trkpt><trkpt lat="40.03132" lon="-8.40788"><ele>274</ele><time>2022-02-26T02:25:50.000Z</time></trkpt><trkpt lat="40.03132" lon="-8.40809"><time>2022-02-26T02:26:00.000Z</time></trkpt><trkpt lat="40.03129" lon="-8.40893"><ele>277</ele><time>2022-02-26T02:26:10.000Z</time></trkpt><trkpt lat="40.03127" lon="-8.40899"><time>2022-02-26T02:26:20.000Z</time></trkpt><trkpt lat="40.03123" lon="-8.40903"><time>2022-02-26T02:26:30.000Z</time></trkpt><trkpt lat="40.03064" lon="-8.40931"><ele>280</ele><time>2022-02-26T02:26:40.000Z</time></trkpt><trkpt lat="40.0306" lon="-8.40935"><time>2022-02-26T02:26:50.000Z</time></trkpt><trkpt lat="40.03062" lon="-8.40942"><time>2022-02-26T02:27:00.000Z</time></trkpt><trkpt lat="40.03067" lon="-8.40943"><time>2022-02-26T02:27:10.000Z</time></trkpt><trkpt lat="40.03085" lon="-8.40954"><ele>283</ele><time>2022-02-26T02:26:54.000Z</time></trkpt><trkpt lat="40.03089" lon="-8.40957"><time>2022-02-26T02:27:04.000Z</time></trkpt><trkpt lat="40.03093" lon="-8.40962"><time>2022-02-26T02:27:14.000Z</time></trkpt><trkpt lat="40.03093" lon="-8.4097"><time>2022-02-26T02:27:24.000Z</time></trkpt><trkpt lat="40.03091" lon="-8.40975"><ele>283</ele><time>2022-02-26T02:27:09.000Z</time></trkpt><trkpt lat="40.03084" lon="-8.40985"><time>2022-02-26T02:27:19.000Z</time></trkpt><trkpt lat="40.0308" lon="-8.40991"><time>2022-02-26T02:27:29.000Z</time></trkpt><trkpt lat="40.03077" lon="-8.40995"><ele>287</ele><time>2022-02-26T02:27:24.000Z</time></trkpt><trkpt lat="40.03058" lon="-8.41006"><ele>291</ele><time>2022-02-26T02:27:34.000Z</time></trkpt><trkpt lat="40.03053" lon="-8.41008"><time>2022-02-26T02:27:44.000Z</time></trkpt><trkpt lat="40.03047" lon="-8.41007"><time>2022-02-26T02:27:54.000Z</time></trkpt><trkpt lat="40.03042" lon="-8.41008"><time>2022-02-26T02:28:04.000Z</time></trkpt><trkpt lat="40.03047" lon="-8.41034"><ele>298</ele><time>2022-02-26T02:28:10.000Z</time></trkpt><trkpt lat="40.03049" lon="-8.41055"><time>2022-02-26T02:28:20.000Z</time></trkpt><trkpt lat="40.03048" lon="-8.41069"><ele>300</ele><time>2022-02-26T02:28:24.000Z</time></trkpt><trkpt lat="40.03048" lon="-8.41076"><time>2022-02-26T02:28:34.000Z</time></trkpt><trkpt lat="40.03048" lon="-8.41098"><ele>301</ele><time>2022-02-26T02:28:38.000Z</time></trkpt><trkpt lat="40.03051" lon="-8.41126"><ele>306</ele><time>2022-02-26T02:28:48.000Z</time></trkpt><trkpt lat="40.03052" lon="-8.41147"><time>2022-02-26T02:28:58.000Z</time></trkpt><trkpt lat="40.03052" lon="-8.41187"><ele>306</ele><time>2022-02-26T02:29:17.000Z</time></trkpt><trkpt lat="40.03053" lon="-8.41202"><time>2022-02-26T02:29:27.000Z</time></trkpt><trkpt lat="40.03054" lon="-8.41209"><time>2022-02-26T02:29:37.000Z</time></trkpt><trkpt lat="40.03056" lon="-8.41216"><ele>306</ele><time>2022-02-26T02:29:31.000Z</time></trkpt><trkpt lat="40.03064" lon="-8.41242"><ele>306</ele><time>2022-02-26T02:29:41.000Z</time></trkpt><trkpt lat="40.03069" lon="-8.41262"><time>2022-02-26T02:29:51.000Z</time></trkpt><trkpt lat="40.03078" lon="-8.41319"><ele>304</ele><time>2022-02-26T02:30:01.000Z</time></trkpt><trkpt lat="40.0308" lon="-8.41324"><time>2022-02-26T02:30:11.000Z</time></trkpt><trkpt lat="40.03082" lon="-8.41331"><time>2022-02-26T02:30:21.000Z</time></trkpt><trkpt lat="40.03094" lon="-8.41356"><ele>304</ele><time>2022-02-26T02:30:31.000Z</time></trkpt><trkpt lat="40.03107" lon="-8.41374"><time>2022-02-26T02:30:41.000Z</time></trkpt><trkpt lat="40.03124" lon="-8.41398"><ele>304</ele><time>2022-02-26T02:30:41.000Z</time></trkpt><trkpt lat="40.03127" lon="-8.41404"><time>2022-02-26T02:30:51.000Z</time></trkpt><trkpt lat="40.03129" lon="-8.4141"><time>2022-02-26T02:31:01.000Z</time></trkpt><trkpt lat="40.03128" lon="-8.41417"><time>2022-02-26T02:31:11.000Z</time></trkpt><trkpt lat="40.03127" lon="-8.41423"><time>2022-02-26T02:31:21.000Z</time></trkpt><trkpt lat="40.03125" lon="-8.4143"><ele>297</ele><time>2022-02-26T02:30:51.000Z</time></trkpt><trkpt lat="40.03126" lon="-8.41437"><time>2022-02-26T02:31:01.000Z</time></trkpt><trkpt lat="40.03127" lon="-8.41443"><time>2022-02-26T02:31:11.000Z</time></trkpt><trkpt lat="40.0313" lon="-8.41456"><ele>294</ele><time>2022-02-26T02:30:59.000Z</time></trkpt><trkpt lat="40.03134" lon="-8.41475"><time>2022-02-26T02:31:09.000Z</time></trkpt><trkpt lat="40.03136" lon="-8.415"><ele>293</ele><time>2022-02-26T02:31:13.000Z</time></trkpt><trkpt lat="40.03137" lon="-8.4152"><time>2022-02-26T02:31:23.000Z</time></trkpt><trkpt lat="40.03137" lon="-8.41527"><ele>291</ele><time>2022-02-26T02:31:33.000Z</time></trkpt><trkpt lat="40.03137" lon="-8.41533"><time>2022-02-26T02:31:43.000Z</time></trkpt><trkpt lat="40.03132" lon="-8.41557"><ele>291</ele><time>2022-02-26T02:31:53.000Z</time></trkpt><trkpt lat="40.0313" lon="-8.41563"><time>2022-02-26T02:32:03.000Z</time></trkpt><trkpt lat="40.03128" lon="-8.41568"><time>2022-02-26T02:32:13.000Z</time></trkpt><trkpt lat="40.03123" lon="-8.41575"><time>2022-02-26T02:32:23.000Z</time></trkpt><trkpt lat="40.03121" lon="-8.4158"><ele>289</ele><time>2022-02-26T02:32:33.000Z</time></trkpt><trkpt lat="40.03117" lon="-8.41598"><time>2022-02-26T02:32:43.000Z</time></trkpt><trkpt lat="40.03117" lon="-8.41604"><time>2022-02-26T02:32:53.000Z</time></trkpt><trkpt lat="40.03125" lon="-8.41629"><ele>288</ele><time>2022-02-26T02:33:03.000Z</time></trkpt><trkpt lat="40.03131" lon="-8.41643"><time>2022-02-26T02:33:13.000Z</time></trkpt><trkpt lat="40.03134" lon="-8.41651"><time>2022-02-26T02:33:23.000Z</time></trkpt><trkpt lat="40.03137" lon="-8.41666"><ele>291</ele><time>2022-02-26T02:33:33.000Z</time></trkpt><trkpt lat="40.03137" lon="-8.41681"><time>2022-02-26T02:33:43.000Z</time></trkpt><trkpt lat="40.03136" lon="-8.41687"><time>2022-02-26T02:33:53.000Z</time></trkpt><trkpt lat="40.03129" lon="-8.41699"><ele>294</ele><time>2022-02-26T02:34:03.000Z</time></trkpt><trkpt lat="40.03119" lon="-8.4171"><time>2022-02-26T02:34:13.000Z</time></trkpt><trkpt lat="40.03101" lon="-8.41725"><ele>294</ele><time>2022-02-26T02:34:23.000Z</time></trkpt><trkpt lat="40.03093" lon="-8.41735"><time>2022-02-26T02:34:33.000Z</time></trkpt><trkpt lat="40.03089" lon="-8.41742"><time>2022-02-26T02:34:43.000Z</time></trkpt><trkpt lat="40.03087" lon="-8.41748"><ele>294</ele><time>2022-02-26T02:34:53.000Z</time></trkpt><trkpt lat="40.03085" lon="-8.41761"><time>2022-02-26T02:35:03.000Z</time></trkpt><trkpt lat="40.03084" lon="-8.4177"><time>2022-02-26T02:35:13.000Z</time></trkpt><trkpt lat="40.03087" lon="-8.418"><ele>294</ele><time>2022-02-26T02:35:23.000Z</time></trkpt><trkpt lat="40.03089" lon="-8.41815"><time>2022-02-26T02:35:33.000Z</time></trkpt><trkpt lat="40.03097" lon="-8.41845"><ele>294</ele><time>2022-02-26T02:33:32.000Z</time></trkpt><trkpt lat="40.03097" lon="-8.41853"><time>2022-02-26T02:33:42.000Z</time></trkpt><trkpt lat="40.03097" lon="-8.4186"><time>2022-02-26T02:33:52.000Z</time></trkpt><trkpt lat="40.03095" lon="-8.41868"><time>2022-02-26T02:34:02.000Z</time></trkpt><trkpt lat="40.03093" lon="-8.41874"><ele>295</ele><time>2022-02-26T02:33:44.000Z</time></trkpt><trkpt lat="40.03083" lon="-8.41896"><time>2022-02-26T02:33:54.000Z</time></trkpt><trkpt lat="40.03081" lon="-8.41903"><ele>295</ele><time>2022-02-26T02:34:04.000Z</time></trkpt><trkpt lat="40.03079" lon="-8.41912"><time>2022-02-26T02:34:14.000Z</time></trkpt><trkpt lat="40.03079" lon="-8.4192"><time>2022-02-26T02:34:24.000Z</time></trkpt><trkpt lat="40.03081" lon="-8.41929"><time>2022-02-26T02:34:34.000Z</time></trkpt><trkpt lat="40.03084" lon="-8.41935"><ele>295</ele><time>2022-02-26T02:34:44.000Z</time></trkpt><trkpt lat="40.03089" lon="-8.41941"><time>2022-02-26T02:34:54.000Z</time></trkpt><trkpt lat="40.03094" lon="-8.41946"><time>2022-02-26T02:35:04.000Z</time></trkpt><trkpt lat="40.03119" lon="-8.41967"><ele>292</ele><time>2022-02-26T02:35:14.000Z</time></trkpt><trkpt lat="40.03123" lon="-8.41972"><time>2022-02-26T02:35:24.000Z</time></trkpt><trkpt lat="40.03139" lon="-8.41985"><ele>288</ele><time>2022-02-26T02:35:34.000Z</time></trkpt><trkpt lat="40.03148" lon="-8.41995"><time>2022-02-26T02:35:44.000Z</time></trkpt><trkpt lat="40.03155" lon="-8.42006"><ele>288</ele><time>2022-02-26T02:35:54.000Z</time></trkpt><trkpt lat="40.03161" lon="-8.42018"><time>2022-02-26T02:36:04.000Z</time></trkpt><trkpt lat="40.03166" lon="-8.42044"><ele>287</ele><time>2022-02-26T02:35:12.000Z</time></trkpt><trkpt lat="40.03166" lon="-8.42058"><time>2022-02-26T02:35:22.000Z</time></trkpt><trkpt lat="40.03165" lon="-8.42065"><time>2022-02-26T02:35:32.000Z</time></trkpt><trkpt lat="40.03159" lon="-8.42076"><ele>286</ele><time>2022-02-26T02:35:29.000Z</time></trkpt><trkpt lat="40.03155" lon="-8.42082"><time>2022-02-26T02:35:39.000Z</time></trkpt><trkpt lat="40.03144" lon="-8.42088"><time>2022-02-26T02:35:49.000Z</time></trkpt><trkpt lat="40.0314" lon="-8.42089"><ele>286</ele><time>2022-02-26T02:35:39.000Z</time></trkpt><trkpt lat="40.03136" lon="-8.42091"><time>2022-02-26T02:35:49.000Z</time></trkpt><trkpt lat="40.03131" lon="-8.42092"><time>2022-02-26T02:35:59.000Z</time></trkpt><trkpt lat="40.03119" lon="-8.42092"><ele>288</ele><time>2022-02-26T02:35:49.000Z</time></trkpt><trkpt lat="40.03109" lon="-8.42088"><time>2022-02-26T02:35:59.000Z</time></trkpt><trkpt lat="40.03103" lon="-8.42084"><time>2022-02-26T02:36:09.000Z</time></trkpt><trkpt lat="40.03097" lon="-8.42082"><ele>290</ele><time>2022-02-26T02:36:19.000Z</time></trkpt><trkpt lat="40.0309" lon="-8.42082"><time>2022-02-26T02:36:29.000Z</time></trkpt><trkpt lat="40.03084" lon="-8.42082"><time>2022-02-26T02:36:39.000Z</time></trkpt><trkpt lat="40.03079" lon="-8.42084"><time>2022-02-26T02:36:49.000Z</time></trkpt><trkpt lat="40.03075" lon="-8.42087"><ele>290</ele><time>2022-02-26T02:36:59.000Z</time></trkpt><trkpt lat="40.0307" lon="-8.42089"><time>2022-02-26T02:37:09.000Z</time></trkpt><trkpt lat="40.03061" lon="-8.42095"><time>2022-02-26T02:37:19.000Z</time></trkpt><trkpt lat="40.03057" lon="-8.42099"><time>2022-02-26T02:37:29.000Z</time></trkpt><trkpt lat="40.03054" lon="-8.42104"><ele>290</ele><time>2022-02-26T02:36:30.000Z</time></trkpt><trkpt lat="40.03051" lon="-8.4211"><time>2022-02-26T02:36:40.000Z</time></trkpt><trkpt lat="40.0305" lon="-8.42115"><time>2022-02-26T02:36:50.000Z</time></trkpt><trkpt lat="40.03047" lon="-8.4213"><ele>290</ele><time>2022-02-26T02:36:44.000Z</time></trkpt><trkpt lat="40.03041" lon="-8.42158"><ele>290</ele><time>2022-02-26T02:36:54.000Z</time></trkpt><trkpt lat="40.03041" lon="-8.42165"><time>2022-02-26T02:37:04.000Z</time></trkpt><trkpt lat="40.03038" lon="-8.42183"><time>2022-02-26T02:37:14.000Z</time></trkpt><trkpt lat="40.03036" lon="-8.42191"><ele>290</ele><time>2022-02-26T02:37:24.000Z</time></trkpt><trkpt lat="40.03034" lon="-8.42208"><time>2022-02-26T02:37:34.000Z</time></trkpt><trkpt lat="40.03031" lon="-8.42215"><time>2022-02-26T02:37:44.000Z</time></trkpt><trkpt lat="40.0302" lon="-8.42232"><ele>290</ele><time>2022-02-26T02:37:23.000Z</time></trkpt><trkpt lat="40.03003" lon="-8.42254"><ele>291</ele><time>2022-02-26T02:37:33.000Z</time></trkpt><trkpt lat="40.02994" lon="-8.42262"><time>2022-02-26T02:37:43.000Z</time></trkpt><trkpt lat="40.02975" lon="-8.42277"><ele>290</ele><time>2022-02-26T02:37:49.000Z</time></trkpt><trkpt lat="40.02966" lon="-8.42282"><time>2022-02-26T02:37:59.000Z</time></trkpt><trkpt lat="40.0296" lon="-8.42283"><time>2022-02-26T02:38:09.000Z</time></trkpt><trkpt lat="40.02954" lon="-8.42285"><ele>289</ele><time>2022-02-26T02:37:59.000Z</time></trkpt><trkpt lat="40.02949" lon="-8.42289"><time>2022-02-26T02:38:09.000Z</time></trkpt><trkpt lat="40.02935" lon="-8.42306"><ele>289</ele><time>2022-02-26T02:38:11.000Z</time></trkpt><trkpt lat="40.0293" lon="-8.4231"><time>2022-02-26T02:38:21.000Z</time></trkpt><trkpt lat="40.02915" lon="-8.42319"><ele>287</ele><time>2022-02-26T02:38:22.000Z</time></trkpt><trkpt lat="40.02883" lon="-8.42333"><ele>287</ele><time>2022-02-26T02:38:40.000Z</time></trkpt><trkpt lat="40.02865" lon="-8.42338"><time>2022-02-26T02:38:50.000Z</time></trkpt><trkpt lat="40.02849" lon="-8.42339"><ele>288</ele><time>2022-02-26T02:38:56.000Z</time></trkpt><trkpt lat="40.02831" lon="-8.42334"><time>2022-02-26T02:39:06.000Z</time></trkpt><trkpt lat="40.02826" lon="-8.42335"><ele>288</ele><time>2022-02-26T02:39:16.000Z</time></trkpt><trkpt lat="40.02821" lon="-8.42339"><time>2022-02-26T02:39:26.000Z</time></trkpt><trkpt lat="40.02816" lon="-8.42345"><time>2022-02-26T02:39:36.000Z</time></trkpt><trkpt lat="40.0281" lon="-8.42354"><ele>280</ele><time>2022-02-26T02:39:46.000Z</time></trkpt><trkpt lat="40.02804" lon="-8.42364"><time>2022-02-26T02:39:56.000Z</time></trkpt><trkpt lat="40.02793" lon="-8.42379"><ele>275</ele><time>2022-02-26T02:40:06.000Z</time></trkpt><trkpt lat="40.02783" lon="-8.42391"><time>2022-02-26T02:40:16.000Z</time></trkpt><trkpt lat="40.02775" lon="-8.424"><ele>275</ele><time>2022-02-26T02:40:26.000Z</time></trkpt><trkpt lat="40.02769" lon="-8.42405"><time>2022-02-26T02:40:36.000Z</time></trkpt><trkpt lat="40.02766" lon="-8.42409"><time>2022-02-26T02:40:46.000Z</time></trkpt><trkpt lat="40.02762" lon="-8.42416"><time>2022-02-26T02:40:56.000Z</time></trkpt><trkpt lat="40.02755" lon="-8.42435"><ele>278</ele><time>2022-02-26T02:39:58.000Z</time></trkpt><trkpt lat="40.0274" lon="-8.42466"><ele>278</ele><time>2022-02-26T02:40:17.000Z</time></trkpt><trkpt lat="40.02736" lon="-8.4248"><time>2022-02-26T02:40:27.000Z</time></trkpt><trkpt lat="40.02732" lon="-8.42484"><time>2022-02-26T02:40:37.000Z</time></trkpt><trkpt lat="40.02727" lon="-8.42487"><ele>284</ele><time>2022-02-26T02:40:34.000Z</time></trkpt><trkpt lat="40.02717" lon="-8.4249"><time>2022-02-26T02:40:44.000Z</time></trkpt><trkpt lat="40.02708" lon="-8.42492"><time>2022-02-26T02:40:54.000Z</time></trkpt><trkpt lat="40.02697" lon="-8.42492"><ele>287</ele><time>2022-02-26T02:40:59.000Z</time></trkpt><trkpt lat="40.02676" lon="-8.4249"><ele>289</ele><time>2022-02-26T02:41:09.000Z</time></trkpt><trkpt lat="40.0267" lon="-8.4249"><time>2022-02-26T02:41:19.000Z</time></trkpt><trkpt lat="40.02653" lon="-8.4249"><ele>290</ele><time>2022-02-26T02:41:29.000Z</time></trkpt><trkpt lat="40.02642" lon="-8.42491"><time>2022-02-26T02:41:39.000Z</time></trkpt><trkpt lat="40.02632" lon="-8.42495"><ele>290</ele><time>2022-02-26T02:41:49.000Z</time></trkpt><trkpt lat="40.02614" lon="-8.42507"><time>2022-02-26T02:41:59.000Z</time></trkpt><trkpt lat="40.02584" lon="-8.42519"><ele>291</ele><time>2022-02-26T02:42:22.000Z</time></trkpt><trkpt lat="40.02575" lon="-8.42525"><time>2022-02-26T02:42:32.000Z</time></trkpt><trkpt lat="40.02564" lon="-8.42531"><ele>287</ele><time>2022-02-26T02:42:37.000Z</time></trkpt><trkpt lat="40.02559" lon="-8.42536"><time>2022-02-26T02:42:47.000Z</time></trkpt><trkpt lat="40.02559" lon="-8.42542"><time>2022-02-26T02:42:57.000Z</time></trkpt><trkpt lat="40.02563" lon="-8.42548"><time>2022-02-26T02:43:07.000Z</time></trkpt><trkpt lat="40.02567" lon="-8.42552"><ele>283</ele><time>2022-02-26T02:42:48.000Z</time></trkpt><trkpt lat="40.02586" lon="-8.42563"><ele>282</ele><time>2022-02-26T02:42:57.000Z</time></trkpt><trkpt lat="40.02622" lon="-8.4258"><ele>285</ele><time>2022-02-26T02:43:07.000Z</time></trkpt><trkpt lat="40.02638" lon="-8.42586"><time>2022-02-26T02:43:17.000Z</time></trkpt><trkpt lat="40.02644" lon="-8.42591"><ele>289</ele><time>2022-02-26T02:43:27.000Z</time></trkpt><trkpt lat="40.02655" lon="-8.42598"><time>2022-02-26T02:43:37.000Z</time></trkpt><trkpt lat="40.02661" lon="-8.42602"><time>2022-02-26T02:43:47.000Z</time></trkpt><trkpt lat="40.02664" lon="-8.42606"><ele>291</ele><time>2022-02-26T02:43:57.000Z</time></trkpt><trkpt lat="40.02668" lon="-8.42612"><time>2022-02-26T02:44:07.000Z</time></trkpt><trkpt lat="40.0267" lon="-8.42619"><time>2022-02-26T02:44:17.000Z</time></trkpt><trkpt lat="40.02671" lon="-8.42626"><time>2022-02-26T02:44:27.000Z</time></trkpt><trkpt lat="40.02671" lon="-8.42652"><ele>291</ele><time>2022-02-26T02:44:37.000Z</time></trkpt><trkpt lat="40.02674" lon="-8.42675"><time>2022-02-26T02:44:47.000Z</time></trkpt><trkpt lat="40.02682" lon="-8.427"><ele>291</ele><time>2022-02-26T02:44:57.000Z</time></trkpt><trkpt lat="40.02683" lon="-8.42706"><time>2022-02-26T02:45:07.000Z</time></trkpt><trkpt lat="40.0268" lon="-8.42741"><ele>295</ele><time>2022-02-26T02:45:17.000Z</time></trkpt><trkpt lat="40.02679" lon="-8.42748"><time>2022-02-26T02:45:27.000Z</time></trkpt><trkpt lat="40.02674" lon="-8.42762"><time>2022-02-26T02:45:37.000Z</time></trkpt><trkpt lat="40.02671" lon="-8.4277"><ele>296</ele><time>2022-02-26T02:45:47.000Z</time></trkpt><trkpt lat="40.02667" lon="-8.42776"><time>2022-02-26T02:45:57.000Z</time></trkpt><trkpt lat="40.02661" lon="-8.4278"><time>2022-02-26T02:46:07.000Z</time></trkpt><trkpt lat="40.02656" lon="-8.42783"><time>2022-02-26T02:46:17.000Z</time></trkpt><trkpt lat="40.02645" lon="-8.42789"><ele>297</ele><time>2022-02-26T02:44:57.000Z</time></trkpt><trkpt lat="40.0263" lon="-8.42794"><time>2022-02-26T02:45:07.000Z</time></trkpt><trkpt lat="40.02625" lon="-8.42794"><ele>297</ele><time>2022-02-26T02:45:09.000Z</time></trkpt><trkpt lat="40.02614" lon="-8.42797"><time>2022-02-26T02:45:19.000Z</time></trkpt><trkpt lat="40.02596" lon="-8.42804"><ele>297</ele><time>2022-02-26T02:45:31.000Z</time></trkpt><trkpt lat="40.02592" lon="-8.42808"><time>2022-02-26T02:45:41.000Z</time></trkpt><trkpt lat="40.02588" lon="-8.4282"><time>2022-02-26T02:45:51.000Z</time></trkpt><trkpt lat="40.02591" lon="-8.42825"><time>2022-02-26T02:46:01.000Z</time></trkpt><trkpt lat="40.02595" lon="-8.42828"><ele>305</ele><time>2022-02-26T02:45:52.000Z</time></trkpt><trkpt lat="40.02611" lon="-8.42834"><time>2022-02-26T02:46:02.000Z</time></trkpt><trkpt lat="40.02616" lon="-8.42837"><ele>311</ele><time>2022-02-26T02:46:08.000Z</time></trkpt><trkpt lat="40.02641" lon="-8.42847"><ele>315</ele><time>2022-02-26T02:46:18.000Z</time></trkpt><trkpt lat="40.02656" lon="-8.42852"><time>2022-02-26T02:46:28.000Z</time></trkpt><trkpt lat="40.02675" lon="-8.42863"><ele>320</ele><time>2022-02-26T02:46:38.000Z</time></trkpt><trkpt lat="40.02685" lon="-8.42868"><time>2022-02-26T02:46:48.000Z</time></trkpt><trkpt lat="40.02693" lon="-8.42875"><time>2022-02-26T02:46:58.000Z</time></trkpt><trkpt lat="40.02701" lon="-8.42883"><ele>322</ele><time>2022-02-26T02:47:08.000Z</time></trkpt><trkpt lat="40.02704" lon="-8.42888"><time>2022-02-26T02:47:18.000Z</time></trkpt><trkpt lat="40.02709" lon="-8.42901"><time>2022-02-26T02:47:28.000Z</time></trkpt><trkpt lat="40.02709" lon="-8.42907"><ele>322</ele><time>2022-02-26T02:47:38.000Z</time></trkpt><trkpt lat="40.02706" lon="-8.42913"><time>2022-02-26T02:47:48.000Z</time></trkpt><trkpt lat="40.02703" lon="-8.42918"><time>2022-02-26T02:47:58.000Z</time></trkpt><trkpt lat="40.02699" lon="-8.42923"><time>2022-02-26T02:48:08.000Z</time></trkpt><trkpt lat="40.02695" lon="-8.42926"><ele>322</ele><time>2022-02-26T02:48:18.000Z</time></trkpt><trkpt lat="40.0269" lon="-8.42924"><time>2022-02-26T02:48:28.000Z</time></trkpt><trkpt lat="40.02688" lon="-8.42919"><time>2022-02-26T02:48:38.000Z</time></trkpt><trkpt lat="40.02684" lon="-8.42915"><time>2022-02-26T02:48:48.000Z</time></trkpt><trkpt lat="40.0268" lon="-8.42912"><time>2022-02-26T02:48:58.000Z</time></trkpt><trkpt lat="40.02676" lon="-8.4291"><ele>333</ele><time>2022-02-26T02:49:08.000Z</time></trkpt><trkpt lat="40.02665" lon="-8.42909"><time>2022-02-26T02:49:18.000Z</time></trkpt><trkpt lat="40.02661" lon="-8.42912"><time>2022-02-26T02:49:28.000Z</time></trkpt><trkpt lat="40.02661" lon="-8.42918"><time>2022-02-26T02:49:38.000Z</time></trkpt><trkpt lat="40.02663" lon="-8.42924"><ele>333</ele><time>2022-02-26T02:49:48.000Z</time></trkpt><trkpt lat="40.02663" lon="-8.42931"><time>2022-02-26T02:49:58.000Z</time></trkpt><trkpt lat="40.02661" lon="-8.42936"><time>2022-02-26T02:50:08.000Z</time></trkpt><trkpt lat="40.02656" lon="-8.42935"><time>2022-02-26T02:50:18.000Z</time></trkpt><trkpt lat="40.02651" lon="-8.42932"><time>2022-02-26T02:50:28.000Z</time></trkpt><trkpt lat="40.02641" lon="-8.42933"><ele>339</ele><time>2022-02-26T02:50:38.000Z</time></trkpt><trkpt lat="40.02635" lon="-8.42932"><time>2022-02-26T02:50:48.000Z</time></trkpt><trkpt lat="40.02631" lon="-8.42933"><time>2022-02-26T02:50:58.000Z</time></trkpt><trkpt lat="40.02627" lon="-8.42936"><time>2022-02-26T02:51:08.000Z</time></trkpt><trkpt lat="40.02617" lon="-8.4294"><ele>345</ele><time>2022-02-26T02:51:18.000Z</time></trkpt><trkpt lat="40.02612" lon="-8.42943"><time>2022-02-26T02:51:28.000Z</time></trkpt><trkpt lat="40.02609" lon="-8.42949"><time>2022-02-26T02:51:38.000Z</time></trkpt><trkpt lat="40.0261" lon="-8.42955"><time>2022-02-26T02:51:48.000Z</time></trkpt><trkpt lat="40.02609" lon="-8.42961"><time>2022-02-26T02:51:58.000Z</time></trkpt><trkpt lat="40.0261" lon="-8.42968"><ele>347</ele><time>2022-02-26T02:52:08.000Z</time></trkpt><trkpt lat="40.02611" lon="-8.42974"><time>2022-02-26T02:52:18.000Z</time></trkpt><trkpt lat="40.02613" lon="-8.42993"><time>2022-02-26T02:52:28.000Z</time></trkpt><trkpt lat="40.02618" lon="-8.4301"><ele>349</ele><time>2022-02-26T02:52:38.000Z</time></trkpt><trkpt lat="40.02621" lon="-8.43022"><time>2022-02-26T02:52:48.000Z</time></trkpt><trkpt lat="40.02625" lon="-8.43034"><time>2022-02-26T02:52:58.000Z</time></trkpt><trkpt lat="40.02626" lon="-8.43048"><ele>345</ele><time>2022-02-26T02:50:56.000Z</time></trkpt><trkpt lat="40.02636" lon="-8.43082"><ele>341</ele><time>2022-02-26T02:51:14.000Z</time></trkpt><trkpt lat="40.0264" lon="-8.43103"><time>2022-02-26T02:51:24.000Z</time></trkpt><trkpt lat="40.0264" lon="-8.43109"><ele>334</ele><time>2022-02-26T02:51:34.000Z</time></trkpt><trkpt lat="40.02642" lon="-8.43116"><time>2022-02-26T02:51:44.000Z</time></trkpt><trkpt lat="40.0264" lon="-8.43131"><time>2022-02-26T02:51:54.000Z</time></trkpt><trkpt lat="40.0264" lon="-8.43137"><ele>327</ele><time>2022-02-26T02:52:04.000Z</time></trkpt><trkpt lat="40.02645" lon="-8.43148"><time>2022-02-26T02:52:14.000Z</time></trkpt><trkpt lat="40.02646" lon="-8.43153"><time>2022-02-26T02:52:24.000Z</time></trkpt><trkpt lat="40.02646" lon="-8.43162"><time>2022-02-26T02:52:34.000Z</time></trkpt><trkpt lat="40.02644" lon="-8.43188"><ele>310</ele><time>2022-02-26T02:52:03.000Z</time></trkpt><trkpt lat="40.02635" lon="-8.43198"><time>2022-02-26T02:52:13.000Z</time></trkpt><trkpt lat="40.02625" lon="-8.43206"><ele>298</ele><time>2022-02-26T02:52:23.000Z</time></trkpt><trkpt lat="40.02621" lon="-8.43221"><time>2022-02-26T02:52:33.000Z</time></trkpt><trkpt lat="40.02619" lon="-8.4323"><time>2022-02-26T02:52:43.000Z</time></trkpt><trkpt lat="40.02619" lon="-8.43239"><ele>296</ele><time>2022-02-26T02:52:53.000Z</time></trkpt><trkpt lat="40.0262" lon="-8.43246"><time>2022-02-26T02:53:03.000Z</time></trkpt><trkpt lat="40.02623" lon="-8.43253"><time>2022-02-26T02:53:13.000Z</time></trkpt><trkpt lat="40.02627" lon="-8.43259"><time>2022-02-26T02:53:23.000Z</time></trkpt><trkpt lat="40.0263" lon="-8.43265"><ele>294</ele><time>2022-02-26T02:53:33.000Z</time></trkpt><trkpt lat="40.02631" lon="-8.43272"><time>2022-02-26T02:53:43.000Z</time></trkpt><trkpt lat="40.02627" lon="-8.43312"><ele>275</ele><time>2022-02-26T02:53:53.000Z</time></trkpt><trkpt lat="40.02619" lon="-8.43321"><time>2022-02-26T02:54:03.000Z</time></trkpt><trkpt lat="40.02613" lon="-8.43325"><time>2022-02-26T02:54:13.000Z</time></trkpt><trkpt lat="40.02609" lon="-8.43329"><ele>275</ele><time>2022-02-26T02:54:23.000Z</time></trkpt><trkpt lat="40.02606" lon="-8.43335"><time>2022-02-26T02:54:33.000Z</time></trkpt><trkpt lat="40.02607" lon="-8.43342"><time>2022-02-26T02:54:43.000Z</time></trkpt><trkpt lat="40.0261" lon="-8.43348"><time>2022-02-26T02:54:53.000Z</time></trkpt><trkpt lat="40.02613" lon="-8.43361"><ele>268</ele><time>2022-02-26T02:55:03.000Z</time></trkpt><trkpt lat="40.02616" lon="-8.43382"><time>2022-02-26T02:55:13.000Z</time></trkpt><trkpt lat="40.02616" lon="-8.43394"><ele>265</ele><time>2022-02-26T02:55:23.000Z</time></trkpt><trkpt lat="40.02617" lon="-8.434"><time>2022-02-26T02:55:33.000Z</time></trkpt><trkpt lat="40.02614" lon="-8.43406"><time>2022-02-26T02:55:43.000Z</time></trkpt><trkpt lat="40.02614" lon="-8.43413"><time>2022-02-26T02:55:53.000Z</time></trkpt><trkpt lat="40.02614" lon="-8.43419"><time>2022-02-26T02:56:03.000Z</time></trkpt><trkpt lat="40.02615" lon="-8.43426"><ele>259</ele><time>2022-02-26T02:56:13.000Z</time></trkpt><trkpt lat="40.02615" lon="-8.4344"><time>2022-02-26T02:56:23.000Z</time></trkpt><trkpt lat="40.02613" lon="-8.43453"><time>2022-02-26T02:56:33.000Z</time></trkpt><trkpt lat="40.02614" lon="-8.43459"><ele>245</ele><time>2022-02-26T02:56:43.000Z</time></trkpt><trkpt lat="40.02613" lon="-8.43465"><time>2022-02-26T02:56:53.000Z</time></trkpt><trkpt lat="40.02613" lon="-8.43471"><time>2022-02-26T02:57:03.000Z</time></trkpt><trkpt lat="40.02614" lon="-8.43478"><time>2022-02-26T02:57:13.000Z</time></trkpt><trkpt lat="40.02616" lon="-8.43485"><ele>240</ele><time>2022-02-26T02:57:23.000Z</time></trkpt><trkpt lat="40.02615" lon="-8.43491"><time>2022-02-26T02:57:33.000Z</time></trkpt><trkpt lat="40.02613" lon="-8.43496"><time>2022-02-26T02:57:43.000Z</time></trkpt><trkpt lat="40.02604" lon="-8.43503"><time>2022-02-26T02:57:53.000Z</time></trkpt><trkpt lat="40.02593" lon="-8.4351"><ele>237</ele><time>2022-02-26T02:58:03.000Z</time></trkpt><trkpt lat="40.02589" lon="-8.43512"><time>2022-02-26T02:58:13.000Z</time></trkpt><trkpt lat="40.02583" lon="-8.43514"><time>2022-02-26T02:58:23.000Z</time></trkpt><trkpt lat="40.02572" lon="-8.43513"><ele>239</ele><time>2022-02-26T02:58:33.000Z</time></trkpt><trkpt lat="40.02562" lon="-8.43508"><time>2022-02-26T02:58:43.000Z</time></trkpt><trkpt lat="40.02542" lon="-8.43489"><ele>239</ele><time>2022-02-26T02:55:46.000Z</time></trkpt><trkpt lat="40.02532" lon="-8.43483"><time>2022-02-26T02:55:56.000Z</time></trkpt><trkpt lat="40.02517" lon="-8.43481"><ele>240</ele><time>2022-02-26T02:55:57.000Z</time></trkpt><trkpt lat="40.02502" lon="-8.43475"><time>2022-02-26T02:56:07.000Z</time></trkpt><trkpt lat="40.02492" lon="-8.43473"><ele>240</ele><time>2022-02-26T02:56:17.000Z</time></trkpt><trkpt lat="40.02488" lon="-8.43472"><time>2022-02-26T02:56:27.000Z</time></trkpt><trkpt lat="40.02482" lon="-8.43468"><time>2022-02-26T02:56:37.000Z</time></trkpt><trkpt lat="40.02471" lon="-8.43463"><ele>240</ele><time>2022-02-26T02:56:47.000Z</time></trkpt><trkpt lat="40.02465" lon="-8.43459"><time>2022-02-26T02:56:57.000Z</time></trkpt><trkpt lat="40.0246" lon="-8.43454"><time>2022-02-26T02:57:07.000Z</time></trkpt><trkpt lat="40.02458" lon="-8.43449"><time>2022-02-26T02:57:17.000Z</time></trkpt><trkpt lat="40.02457" lon="-8.43443"><ele>240</ele><time>2022-02-26T02:57:27.000Z</time></trkpt><trkpt lat="40.02455" lon="-8.43437"><time>2022-02-26T02:57:37.000Z</time></trkpt><trkpt lat="40.02451" lon="-8.43433"><time>2022-02-26T02:57:47.000Z</time></trkpt><trkpt lat="40.02447" lon="-8.43426"><time>2022-02-26T02:57:57.000Z</time></trkpt><trkpt lat="40.02441" lon="-8.43421"><ele>239</ele><time>2022-02-26T02:58:07.000Z</time></trkpt><trkpt lat="40.02436" lon="-8.43417"><time>2022-02-26T02:58:17.000Z</time></trkpt><trkpt lat="40.02432" lon="-8.43414"><time>2022-02-26T02:58:27.000Z</time></trkpt><trkpt lat="40.02416" lon="-8.43409"><ele>239</ele><time>2022-02-26T02:58:37.000Z</time></trkpt><trkpt lat="40.02411" lon="-8.43409"><time>2022-02-26T02:58:47.000Z</time></trkpt><trkpt lat="40.02406" lon="-8.43409"><time>2022-02-26T02:58:57.000Z</time></trkpt><trkpt lat="40.0239" lon="-8.43412"><ele>231</ele><time>2022-02-26T02:59:07.000Z</time></trkpt><trkpt lat="40.02384" lon="-8.43413"><time>2022-02-26T02:59:17.000Z</time></trkpt><trkpt lat="40.02374" lon="-8.43409"><time>2022-02-26T02:59:27.000Z</time></trkpt><trkpt lat="40.02365" lon="-8.43401"><ele>231</ele><time>2022-02-26T02:57:38.000Z</time></trkpt><trkpt lat="40.02346" lon="-8.43388"><ele>235</ele><time>2022-02-26T02:57:53.000Z</time></trkpt><trkpt lat="40.02325" lon="-8.43377"><ele>235</ele><time>2022-02-26T02:58:03.000Z</time></trkpt><trkpt lat="40.02316" lon="-8.43369"><time>2022-02-26T02:58:13.000Z</time></trkpt><trkpt lat="40.02311" lon="-8.43364"><time>2022-02-26T02:58:23.000Z</time></trkpt><trkpt lat="40.02305" lon="-8.43361"><ele>233</ele><time>2022-02-26T02:58:33.000Z</time></trkpt><trkpt lat="40.02294" lon="-8.43357"><time>2022-02-26T02:58:43.000Z</time></trkpt><trkpt lat="40.02281" lon="-8.43354"><ele>232</ele><time>2022-02-26T02:58:53.000Z</time></trkpt><trkpt lat="40.02275" lon="-8.43351"><time>2022-02-26T02:59:03.000Z</time></trkpt><trkpt lat="40.02271" lon="-8.43348"><time>2022-02-26T02:59:13.000Z</time></trkpt><trkpt lat="40.02267" lon="-8.43345"><time>2022-02-26T02:59:23.000Z</time></trkpt><trkpt lat="40.02264" lon="-8.4334"><ele>230</ele><time>2022-02-26T02:59:33.000Z</time></trkpt><trkpt lat="40.02259" lon="-8.43327"><time>2022-02-26T02:59:43.000Z</time></trkpt><trkpt lat="40.02257" lon="-8.4332"><time>2022-02-26T02:59:53.000Z</time></trkpt><trkpt lat="40.02254" lon="-8.43306"><ele>230</ele><time>2022-02-26T03:00:03.000Z</time></trkpt><trkpt lat="40.02251" lon="-8.43284"><time>2022-02-26T03:00:13.000Z</time></trkpt><trkpt lat="40.02248" lon="-8.43272"><ele>230</ele><time>2022-02-26T03:00:23.000Z</time></trkpt><trkpt lat="40.02242" lon="-8.43255"><time>2022-02-26T03:00:33.000Z</time></trkpt><trkpt lat="40.02232" lon="-8.43235"><ele>223</ele><time>2022-02-26T03:00:43.000Z</time></trkpt><trkpt lat="40.02227" lon="-8.4323"><time>2022-02-26T03:00:53.000Z</time></trkpt><trkpt lat="40.02222" lon="-8.43227"><time>2022-02-26T03:01:03.000Z</time></trkpt><trkpt lat="40.02215" lon="-8.43228"><time>2022-02-26T03:01:13.000Z</time></trkpt><trkpt lat="40.02197" lon="-8.43232"><ele>223</ele><time>2022-02-26T03:01:23.000Z</time></trkpt><trkpt lat="40.02196" lon="-8.43225"><time>2022-02-26T03:01:33.000Z</time></trkpt><trkpt lat="40.02198" lon="-8.43219"><time>2022-02-26T03:01:43.000Z</time></trkpt><trkpt lat="40.02199" lon="-8.43212"><time>2022-02-26T03:01:53.000Z</time></trkpt><trkpt lat="40.022" lon="-8.43197"><ele>224</ele><time>2022-02-26T02:59:43.000Z</time></trkpt><trkpt lat="40.02198" lon="-8.43168"><ele>221</ele><time>2022-02-26T02:59:53.000Z</time></trkpt><trkpt lat="40.02195" lon="-8.43162"><time>2022-02-26T03:00:03.000Z</time></trkpt><trkpt lat="40.02185" lon="-8.43167"><time>2022-02-26T03:00:13.000Z</time></trkpt><trkpt lat="40.02171" lon="-8.4317"><ele>219</ele><time>2022-02-26T03:00:16.000Z</time></trkpt><trkpt lat="40.02162" lon="-8.43172"><time>2022-02-26T03:00:26.000Z</time></trkpt><trkpt lat="40.02155" lon="-8.43174"><time>2022-02-26T03:00:36.000Z</time></trkpt><trkpt lat="40.0215" lon="-8.43174"><ele>215</ele><time>2022-02-26T03:00:46.000Z</time></trkpt><trkpt lat="40.02144" lon="-8.43175"><time>2022-02-26T03:00:56.000Z</time></trkpt><trkpt lat="40.02138" lon="-8.43175"><time>2022-02-26T03:01:06.000Z</time></trkpt><trkpt lat="40.02128" lon="-8.43173"><ele>216</ele><time>2022-02-26T03:01:16.000Z</time></trkpt><trkpt lat="40.02122" lon="-8.43171"><time>2022-02-26T03:01:26.000Z</time></trkpt><trkpt lat="40.02096" lon="-8.43159"><ele>218</ele><time>2022-02-26T03:00:52.000Z</time></trkpt><trkpt lat="40.02085" lon="-8.43155"><time>2022-02-26T03:01:02.000Z</time></trkpt><trkpt lat="40.02069" lon="-8.43146"><ele>218</ele><time>2022-02-26T03:01:07.000Z</time></trkpt><trkpt lat="40.02057" lon="-8.43144"><time>2022-02-26T03:01:17.000Z</time></trkpt><trkpt lat="40.02044" lon="-8.4314"><ele>217</ele><time>2022-02-26T03:01:27.000Z</time></trkpt><trkpt lat="40.02038" lon="-8.43139"><time>2022-02-26T03:01:37.000Z</time></trkpt><trkpt lat="40.02016" lon="-8.43128"><ele>216</ele><time>2022-02-26T03:01:34.000Z</time></trkpt><trkpt lat="40.01999" lon="-8.43119"><time>2022-02-26T03:01:44.000Z</time></trkpt><trkpt lat="40.01989" lon="-8.43115"><ele>216</ele><time>2022-02-26T03:01:47.000Z</time></trkpt><trkpt lat="40.01972" lon="-8.43108"><time>2022-02-26T03:01:57.000Z</time></trkpt><trkpt lat="40.01968" lon="-8.43105"><ele>216</ele><time>2022-02-26T03:02:07.000Z</time></trkpt><trkpt lat="40.01963" lon="-8.43101"><time>2022-02-26T03:02:17.000Z</time></trkpt><trkpt lat="40.01952" lon="-8.43094"><time>2022-02-26T03:02:27.000Z</time></trkpt><trkpt lat="40.01946" lon="-8.43091"><ele>213</ele><time>2022-02-26T03:02:37.000Z</time></trkpt><trkpt lat="40.0194" lon="-8.43087"><time>2022-02-26T03:02:47.000Z</time></trkpt><trkpt lat="40.01933" lon="-8.43076"><time>2022-02-26T03:02:57.000Z</time></trkpt><trkpt lat="40.01925" lon="-8.43067"><ele>213</ele><time>2022-02-26T03:02:21.000Z</time></trkpt><trkpt lat="40.01901" lon="-8.43052"><ele>213</ele><time>2022-02-26T03:02:31.000Z</time></trkpt><trkpt lat="40.01896" lon="-8.4305"><time>2022-02-26T03:02:41.000Z</time></trkpt><trkpt lat="40.01873" lon="-8.43048"><ele>210</ele><time>2022-02-26T03:02:51.000Z</time></trkpt><trkpt lat="40.01867" lon="-8.43049"><time>2022-02-26T03:03:01.000Z</time></trkpt><trkpt lat="40.01845" lon="-8.43055"><ele>212</ele><time>2022-02-26T03:03:03.000Z</time></trkpt><trkpt lat="40.01828" lon="-8.43058"><time>2022-02-26T03:03:13.000Z</time></trkpt><trkpt lat="40.01817" lon="-8.43057"><ele>215</ele><time>2022-02-26T03:03:18.000Z</time></trkpt><trkpt lat="40.01803" lon="-8.43052"><time>2022-02-26T03:03:28.000Z</time></trkpt><trkpt lat="40.01792" lon="-8.4305"><ele>221</ele><time>2022-02-26T03:03:38.000Z</time></trkpt><trkpt lat="40.01782" lon="-8.43046"><time>2022-02-26T03:03:48.000Z</time></trkpt><trkpt lat="40.01772" lon="-8.43045"><time>2022-02-26T03:03:58.000Z</time></trkpt><trkpt lat="40.01768" lon="-8.43044"><ele>223</ele><time>2022-02-26T03:04:00.000Z</time></trkpt><trkpt lat="40.01745" lon="-8.43034"><ele>223</ele><time>2022-02-26T03:04:13.000Z</time></trkpt><trkpt lat="40.01725" lon="-8.43027"><ele>223</ele><time>2022-02-26T03:04:22.000Z</time></trkpt><trkpt lat="40.01687" lon="-8.43006"><ele>230</ele><time>2022-02-26T03:04:46.000Z</time></trkpt><trkpt lat="40.01682" lon="-8.43002"><time>2022-02-26T03:04:56.000Z</time></trkpt><trkpt lat="40.01677" lon="-8.43001"><time>2022-02-26T03:05:06.000Z</time></trkpt><trkpt lat="40.01672" lon="-8.43001"><time>2022-02-26T03:05:16.000Z</time></trkpt><trkpt lat="40.01667" lon="-8.43"><ele>230</ele><time>2022-02-26T03:05:05.000Z</time></trkpt><trkpt lat="40.01635" lon="-8.42998"><ele>234</ele><time>2022-02-26T03:05:15.000Z</time></trkpt><trkpt lat="40.0163" lon="-8.42997"><time>2022-02-26T03:05:25.000Z</time></trkpt><trkpt lat="40.01625" lon="-8.42995"><time>2022-02-26T03:05:35.000Z</time></trkpt><trkpt lat="40.01619" lon="-8.42991"><time>2022-02-26T03:05:45.000Z</time></trkpt><trkpt lat="40.0161" lon="-8.42983"><ele>235</ele><time>2022-02-26T03:05:47.000Z</time></trkpt><trkpt lat="40.01606" lon="-8.42981"><time>2022-02-26T03:05:57.000Z</time></trkpt><trkpt lat="40.01596" lon="-8.42979"><time>2022-02-26T03:06:07.000Z</time></trkpt><trkpt lat="40.0159" lon="-8.4298"><ele>236</ele><time>2022-02-26T03:06:03.000Z</time></trkpt><trkpt lat="40.01569" lon="-8.42976"><ele>243</ele><time>2022-02-26T03:06:17.000Z</time></trkpt><trkpt lat="40.01537" lon="-8.42968"><ele>244</ele><time>2022-02-26T03:06:27.000Z</time></trkpt><trkpt lat="40.01527" lon="-8.42964"><time>2022-02-26T03:06:37.000Z</time></trkpt><trkpt lat="40.01517" lon="-8.42964"><time>2022-02-26T03:06:47.000Z</time></trkpt><trkpt lat="40.01507" lon="-8.42957"><ele>246</ele><time>2022-02-26T03:06:51.000Z</time></trkpt><trkpt lat="40.01465" lon="-8.42955"><ele>248</ele><time>2022-02-26T03:07:12.000Z</time></trkpt><trkpt lat="40.01461" lon="-8.42954"><time>2022-02-26T03:07:22.000Z</time></trkpt><trkpt lat="40.01452" lon="-8.42956"><time>2022-02-26T03:07:32.000Z</time></trkpt><trkpt lat="40.01447" lon="-8.42959"><time>2022-02-26T03:07:42.000Z</time></trkpt><trkpt lat="40.01443" lon="-8.42963"><ele>254</ele><time>2022-02-26T03:07:30.000Z</time></trkpt><trkpt lat="40.01438" lon="-8.42973"><time>2022-02-26T03:07:40.000Z</time></trkpt><trkpt lat="40.01436" lon="-8.42979"><time>2022-02-26T03:07:50.000Z</time></trkpt><trkpt lat="40.0143" lon="-8.42988"><ele>259</ele><time>2022-02-26T03:07:50.000Z</time></trkpt><trkpt lat="40.01425" lon="-8.42992"><time>2022-02-26T03:08:00.000Z</time></trkpt><trkpt lat="40.01421" lon="-8.42995"><time>2022-02-26T03:08:10.000Z</time></trkpt><trkpt lat="40.01416" lon="-8.42992"><time>2022-02-26T03:08:20.000Z</time></trkpt><trkpt lat="40.01414" lon="-8.42986"><time>2022-02-26T03:08:30.000Z</time></trkpt><trkpt lat="40.0141" lon="-8.42982"><ele>259</ele><time>2022-02-26T03:08:13.000Z</time></trkpt><trkpt lat="40.01401" lon="-8.42974"><time>2022-02-26T03:08:23.000Z</time></trkpt><trkpt lat="40.01396" lon="-8.42971"><time>2022-02-26T03:08:33.000Z</time></trkpt><trkpt lat="40.0139" lon="-8.42969"><ele>259</ele><time>2022-02-26T03:08:43.000Z</time></trkpt><trkpt lat="40.01385" lon="-8.42969"><time>2022-02-26T03:08:53.000Z</time></trkpt><trkpt lat="40.01365" lon="-8.4297"><ele>259</ele><time>2022-02-26T03:09:03.000Z</time></trkpt><trkpt lat="40.01348" lon="-8.42972"><time>2022-02-26T03:09:13.000Z</time></trkpt><trkpt lat="40.01343" lon="-8.42973"><ele>262</ele><time>2022-02-26T03:09:23.000Z</time></trkpt><trkpt lat="40.01339" lon="-8.42976"><time>2022-02-26T03:09:33.000Z</time></trkpt><trkpt lat="40.01336" lon="-8.42981"><time>2022-02-26T03:09:43.000Z</time></trkpt><trkpt lat="40.01333" lon="-8.42989"><time>2022-02-26T03:09:53.000Z</time></trkpt><trkpt lat="40.01329" lon="-8.43004"><ele>263</ele><time>2022-02-26T03:10:03.000Z</time></trkpt><trkpt lat="40.01325" lon="-8.43009"><time>2022-02-26T03:10:13.000Z</time></trkpt><trkpt lat="40.01319" lon="-8.43011"><time>2022-02-26T03:10:23.000Z</time></trkpt><trkpt lat="40.01313" lon="-8.43008"><time>2022-02-26T03:10:33.000Z</time></trkpt><trkpt lat="40.01301" lon="-8.43006"><ele>263</ele><time>2022-02-26T03:10:43.000Z</time></trkpt><trkpt lat="40.01294" lon="-8.43006"><time>2022-02-26T03:10:53.000Z</time></trkpt><trkpt lat="40.01283" lon="-8.43002"><time>2022-02-26T03:11:03.000Z</time></trkpt><trkpt lat="40.01279" lon="-8.42998"><ele>263</ele><time>2022-02-26T03:11:13.000Z</time></trkpt><trkpt lat="40.01276" lon="-8.4299"><time>2022-02-26T03:11:23.000Z</time></trkpt><trkpt lat="40.01274" lon="-8.42977"><time>2022-02-26T03:11:33.000Z</time></trkpt><trkpt lat="40.0127" lon="-8.42973"><ele>263</ele><time>2022-02-26T03:11:43.000Z</time></trkpt><trkpt lat="40.01259" lon="-8.42978"><time>2022-02-26T03:11:53.000Z</time></trkpt><trkpt lat="40.01254" lon="-8.4298"><time>2022-02-26T03:12:03.000Z</time></trkpt><trkpt lat="40.01232" lon="-8.4298"><ele>270</ele><time>2022-02-26T03:10:09.000Z</time></trkpt><trkpt lat="40.01221" lon="-8.42982"><time>2022-02-26T03:10:19.000Z</time></trkpt><trkpt lat="40.01211" lon="-8.42983"><ele>271</ele><time>2022-02-26T03:10:26.000Z</time></trkpt><trkpt lat="40.01194" lon="-8.4298"><time>2022-02-26T03:10:36.000Z</time></trkpt><trkpt lat="40.01184" lon="-8.42975"><ele>282</ele><time>2022-02-26T03:10:43.000Z</time></trkpt><trkpt lat="40.01169" lon="-8.42966"><time>2022-02-26T03:10:53.000Z</time></trkpt><trkpt lat="40.01164" lon="-8.42965"><ele>282</ele><time>2022-02-26T03:11:03.000Z</time></trkpt><trkpt lat="40.01159" lon="-8.42966"><time>2022-02-26T03:11:13.000Z</time></trkpt><trkpt lat="40.01154" lon="-8.42969"><time>2022-02-26T03:11:23.000Z</time></trkpt><trkpt lat="40.01149" lon="-8.4297"><time>2022-02-26T03:11:33.000Z</time></trkpt><trkpt lat="40.01145" lon="-8.42965"><ele>290</ele><time>2022-02-26T03:11:43.000Z</time></trkpt><trkpt lat="40.01145" lon="-8.42958"><time>2022-02-26T03:11:53.000Z</time></trkpt><trkpt lat="40.01143" lon="-8.42951"><time>2022-02-26T03:12:03.000Z</time></trkpt><trkpt lat="40.0114" lon="-8.42945"><time>2022-02-26T03:12:13.000Z</time></trkpt><trkpt lat="40.01136" lon="-8.4294"><ele>291</ele><time>2022-02-26T03:12:23.000Z</time></trkpt><trkpt lat="40.01131" lon="-8.42937"><time>2022-02-26T03:12:33.000Z</time></trkpt><trkpt lat="40.01127" lon="-8.42937"><time>2022-02-26T03:12:43.000Z</time></trkpt><trkpt lat="40.01113" lon="-8.42943"><ele>304</ele><time>2022-02-26T03:12:53.000Z</time></trkpt><trkpt lat="40.01108" lon="-8.42944"><time>2022-02-26T03:13:03.000Z</time></trkpt><trkpt lat="40.01093" lon="-8.42941"><time>2022-02-26T03:13:13.000Z</time></trkpt><trkpt lat="40.01085" lon="-8.42935"><ele>304</ele><time>2022-02-26T03:12:23.000Z</time></trkpt><trkpt lat="40.01072" lon="-8.42924"><time>2022-02-26T03:12:33.000Z</time></trkpt><trkpt lat="40.01063" lon="-8.4292"><ele>312</ele><time>2022-02-26T03:12:43.000Z</time></trkpt><trkpt lat="40.01059" lon="-8.42919"><time>2022-02-26T03:12:53.000Z</time></trkpt><trkpt lat="40.01054" lon="-8.42916"><time>2022-02-26T03:13:03.000Z</time></trkpt><trkpt lat="40.0104" lon="-8.429"><ele>333</ele><time>2022-02-26T03:13:13.000Z</time></trkpt><trkpt lat="40.01032" lon="-8.42892"><time>2022-02-26T03:13:23.000Z</time></trkpt><trkpt lat="40.01025" lon="-8.42883"><time>2022-02-26T03:13:33.000Z</time></trkpt><trkpt lat="40.01021" lon="-8.42877"><ele>333</ele><time>2022-02-26T03:13:43.000Z</time></trkpt><trkpt lat="40.01018" lon="-8.42871"><time>2022-02-26T03:13:53.000Z</time></trkpt><trkpt lat="40.01015" lon="-8.42858"><time>2022-02-26T03:14:03.000Z</time></trkpt><trkpt lat="40.01011" lon="-8.42852"><ele>354</ele><time>2022-02-26T03:14:13.000Z</time></trkpt><trkpt lat="40.01012" lon="-8.42839"><time>2022-02-26T03:14:23.000Z</time></trkpt><trkpt lat="40.01014" lon="-8.42834"><time>2022-02-26T03:14:33.000Z</time></trkpt><trkpt lat="40.01014" lon="-8.42821"><ele>356</ele><time>2022-02-26T03:14:43.000Z</time></trkpt><trkpt lat="40.01012" lon="-8.42815"><time>2022-02-26T03:14:53.000Z</time></trkpt><trkpt lat="40.01008" lon="-8.42813"><time>2022-02-26T03:15:03.000Z</time></trkpt><trkpt lat="40.01005" lon="-8.42819"><time>2022-02-26T03:15:13.000Z</time></trkpt><trkpt lat="40.00999" lon="-8.4283"><ele>356</ele><time>2022-02-26T03:15:23.000Z</time></trkpt><trkpt lat="40.00995" lon="-8.42834"><time>2022-02-26T03:15:33.000Z</time></trkpt><trkpt lat="40.00985" lon="-8.42837"><time>2022-02-26T03:15:43.000Z</time></trkpt><trkpt lat="40.00981" lon="-8.4284"><time>2022-02-26T03:15:53.000Z</time></trkpt><trkpt lat="40.00979" lon="-8.42846"><ele>360</ele><time>2022-02-26T03:16:03.000Z</time></trkpt><trkpt lat="40.0098" lon="-8.42852"><time>2022-02-26T03:16:13.000Z</time></trkpt><trkpt lat="40.00977" lon="-8.42857"><time>2022-02-26T03:16:23.000Z</time></trkpt><trkpt lat="40.00972" lon="-8.42859"><time>2022-02-26T03:16:33.000Z</time></trkpt><trkpt lat="40.00959" lon="-8.42869"><ele>374</ele><time>2022-02-26T03:16:14.000Z</time></trkpt><trkpt lat="40.00956" lon="-8.42874"><time>2022-02-26T03:16:24.000Z</time></trkpt><trkpt lat="40.00953" lon="-8.42878"><time>2022-02-26T03:16:34.000Z</time></trkpt><trkpt lat="40.00945" lon="-8.42885"><time>2022-02-26T03:16:44.000Z</time></trkpt><trkpt lat="40.00941" lon="-8.42889"><ele>375</ele><time>2022-02-26T03:16:59.000Z</time></trkpt><trkpt lat="40.00939" lon="-8.42894"><time>2022-02-26T03:17:09.000Z</time></trkpt><trkpt lat="40.00935" lon="-8.42896"><time>2022-02-26T03:17:19.000Z</time></trkpt><trkpt lat="40.0093" lon="-8.42899"><time>2022-02-26T03:17:29.000Z</time></trkpt><trkpt lat="40.00925" lon="-8.429"><time>2022-02-26T03:17:39.000Z</time></trkpt><trkpt lat="40.0092" lon="-8.429"><ele>375</ele><time>2022-02-26T03:17:38.000Z</time></trkpt><trkpt lat="40.00915" lon="-8.42902"><time>2022-02-26T03:17:48.000Z</time></trkpt><trkpt lat="40.00901" lon="-8.4291"><time>2022-02-26T03:17:58.000Z</time></trkpt><trkpt lat="40.00896" lon="-8.42911"><ele>378</ele><time>2022-02-26T03:18:03.000Z</time></trkpt><trkpt lat="40.00886" lon="-8.42911"><time>2022-02-26T03:18:13.000Z</time></trkpt><trkpt lat="40.00867" lon="-8.42916"><ele>385</ele><time>2022-02-26T03:18:31.000Z</time></trkpt><trkpt lat="40.00846" lon="-8.42924"><ele>387</ele><time>2022-02-26T03:18:41.000Z</time></trkpt><trkpt lat="40.00833" lon="-8.42933"><time>2022-02-26T03:18:51.000Z</time></trkpt><trkpt lat="40.00818" lon="-8.42935"><ele>389</ele><time>2022-02-26T03:19:01.000Z</time></trkpt><trkpt lat="40.00814" lon="-8.42932"><time>2022-02-26T03:19:11.000Z</time></trkpt><trkpt lat="40.00807" lon="-8.42922"><time>2022-02-26T03:19:21.000Z</time></trkpt><trkpt lat="40.00787" lon="-8.42885"><ele>388</ele><time>2022-02-26T03:19:42.000Z</time></trkpt><trkpt lat="40.00775" lon="-8.42866"><time>2022-02-26T03:19:52.000Z</time></trkpt><trkpt lat="40.00767" lon="-8.42856"><ele>387</ele><time>2022-02-26T03:20:02.000Z</time></trkpt><trkpt lat="40.00761" lon="-8.42852"><time>2022-02-26T03:20:12.000Z</time></trkpt><trkpt lat="40.0075" lon="-8.42846"><time>2022-02-26T03:20:22.000Z</time></trkpt><trkpt lat="40.00745" lon="-8.42843"><ele>387</ele><time>2022-02-26T03:20:32.000Z</time></trkpt><trkpt lat="40.00739" lon="-8.42842"><time>2022-02-26T03:20:42.000Z</time></trkpt><trkpt lat="40.00741" lon="-8.42836"><time>2022-02-26T03:20:52.000Z</time></trkpt><trkpt lat="40.00745" lon="-8.42834"><time>2022-02-26T03:21:02.000Z</time></trkpt><trkpt lat="40.00756" lon="-8.42824"><ele>375</ele><time>2022-02-26T03:21:12.000Z</time></trkpt><trkpt lat="40.0076" lon="-8.42818"><time>2022-02-26T03:21:22.000Z</time></trkpt><trkpt lat="40.00762" lon="-8.42812"><time>2022-02-26T03:21:32.000Z</time></trkpt><trkpt lat="40.00762" lon="-8.42791"><ele>368</ele><time>2022-02-26T03:20:36.000Z</time></trkpt><trkpt lat="40.00752" lon="-8.42767"><ele>353</ele><time>2022-02-26T03:20:46.000Z</time></trkpt><trkpt lat="40.0075" lon="-8.4276"><time>2022-02-26T03:20:56.000Z</time></trkpt><trkpt lat="40.00746" lon="-8.42754"><time>2022-02-26T03:21:06.000Z</time></trkpt><trkpt lat="40.00746" lon="-8.42747"><time>2022-02-26T03:21:16.000Z</time></trkpt><trkpt lat="40.00747" lon="-8.4274"><ele>343</ele><time>2022-02-26T03:21:05.000Z</time></trkpt><trkpt lat="40.00747" lon="-8.42726"><time>2022-02-26T03:21:15.000Z</time></trkpt><trkpt lat="40.00747" lon="-8.42717"><time>2022-02-26T03:21:25.000Z</time></trkpt><trkpt lat="40.00749" lon="-8.42711"><ele>330</ele><time>2022-02-26T03:21:19.000Z</time></trkpt><trkpt lat="40.00749" lon="-8.42704"><time>2022-02-26T03:21:29.000Z</time></trkpt><trkpt lat="40.00749" lon="-8.42698"><time>2022-02-26T03:21:39.000Z</time></trkpt><trkpt lat="40.00748" lon="-8.4269"><time>2022-02-26T03:21:49.000Z</time></trkpt><trkpt lat="40.00746" lon="-8.42683"><ele>322</ele><time>2022-02-26T03:21:31.000Z</time></trkpt><trkpt lat="40.00752" lon="-8.42648"><ele>315</ele><time>2022-02-26T03:21:48.000Z</time></trkpt><trkpt lat="40.00753" lon="-8.42638"><time>2022-02-26T03:21:58.000Z</time></trkpt><trkpt lat="40.00758" lon="-8.42613"><ele>311</ele><time>2022-02-26T03:21:56.000Z</time></trkpt><trkpt lat="40.00765" lon="-8.42585"><ele>311</ele><time>2022-02-26T03:22:05.000Z</time></trkpt><trkpt lat="40.00771" lon="-8.42572"><time>2022-02-26T03:22:15.000Z</time></trkpt><trkpt lat="40.00774" lon="-8.4256"><ele>305</ele><time>2022-02-26T03:22:15.000Z</time></trkpt><trkpt lat="40.00779" lon="-8.42547"><time>2022-02-26T03:22:25.000Z</time></trkpt><trkpt lat="40.00778" lon="-8.42539"><time>2022-02-26T03:22:35.000Z</time></trkpt><trkpt lat="40.00776" lon="-8.42531"><ele>299</ele><time>2022-02-26T03:22:26.000Z</time></trkpt><trkpt lat="40.00769" lon="-8.42516"><time>2022-02-26T03:22:36.000Z</time></trkpt><trkpt lat="40.00765" lon="-8.42509"><time>2022-02-26T03:22:46.000Z</time></trkpt><trkpt lat="40.00765" lon="-8.42503"><ele>294</ele><time>2022-02-26T03:22:42.000Z</time></trkpt><trkpt lat="40.00757" lon="-8.42495"><time>2022-02-26T03:22:52.000Z</time></trkpt><trkpt lat="40.00743" lon="-8.42487"><ele>294</ele><time>2022-02-26T03:22:53.000Z</time></trkpt><trkpt lat="40.0073" lon="-8.42476"><time>2022-02-26T03:23:03.000Z</time></trkpt><trkpt lat="40.00725" lon="-8.42474"><time>2022-02-26T03:23:13.000Z</time></trkpt><trkpt lat="40.00721" lon="-8.42473"><ele>292</ele><time>2022-02-26T03:23:03.000Z</time></trkpt><trkpt lat="40.00702" lon="-8.42472"><time>2022-02-26T03:23:13.000Z</time></trkpt><trkpt lat="40.00685" lon="-8.42475"><ele>292</ele><time>2022-02-26T03:23:21.000Z</time></trkpt><trkpt lat="40.00682" lon="-8.42481"><time>2022-02-26T03:23:31.000Z</time></trkpt><trkpt lat="40.00681" lon="-8.42487"><time>2022-02-26T03:23:41.000Z</time></trkpt><trkpt lat="40.00676" lon="-8.425"><ele>292</ele><time>2022-02-26T03:23:34.000Z</time></trkpt><trkpt lat="40.00673" lon="-8.42506"><time>2022-02-26T03:23:44.000Z</time></trkpt><trkpt lat="40.00669" lon="-8.4251"><time>2022-02-26T03:23:54.000Z</time></trkpt><trkpt lat="40.0066" lon="-8.42518"><ele>292</ele><time>2022-02-26T03:23:50.000Z</time></trkpt><trkpt lat="40.0064" lon="-8.4254"><ele>292</ele><time>2022-02-26T03:24:05.000Z</time></trkpt><trkpt lat="40.00634" lon="-8.42545"><time>2022-02-26T03:24:15.000Z</time></trkpt><trkpt lat="40.0063" lon="-8.42548"><time>2022-02-26T03:24:25.000Z</time></trkpt><trkpt lat="40.00621" lon="-8.42552"><ele>291</ele><time>2022-02-26T03:24:14.000Z</time></trkpt><trkpt lat="40.00605" lon="-8.42557"><time>2022-02-26T03:24:24.000Z</time></trkpt><trkpt lat="40.00586" lon="-8.42565"><ele>288</ele><time>2022-02-26T03:24:28.000Z</time></trkpt><trkpt lat="40.0057" lon="-8.4257"><time>2022-02-26T03:24:38.000Z</time></trkpt><trkpt lat="40.00566" lon="-8.42574"><ele>287</ele><time>2022-02-26T03:24:36.000Z</time></trkpt><trkpt lat="40.00554" lon="-8.42588"><time>2022-02-26T03:24:46.000Z</time></trkpt><trkpt lat="40.00543" lon="-8.426"><ele>287</ele><time>2022-02-26T03:24:48.000Z</time></trkpt><trkpt lat="40.00531" lon="-8.4261"><time>2022-02-26T03:24:58.000Z</time></trkpt><trkpt lat="40.00522" lon="-8.42616"><ele>287</ele><time>2022-02-26T03:24:58.000Z</time></trkpt><trkpt lat="40.00508" lon="-8.42624"><time>2022-02-26T03:25:08.000Z</time></trkpt><trkpt lat="40.00494" lon="-8.42628"><ele>282</ele><time>2022-02-26T03:25:10.000Z</time></trkpt><trkpt lat="40.00485" lon="-8.42633"><time>2022-02-26T03:25:20.000Z</time></trkpt><trkpt lat="40.00468" lon="-8.42648"><ele>277</ele><time>2022-02-26T03:25:22.000Z</time></trkpt><trkpt lat="40.0045" lon="-8.42662"><ele>274</ele><time>2022-02-26T03:25:31.000Z</time></trkpt><trkpt lat="40.00437" lon="-8.42668"><time>2022-02-26T03:25:41.000Z</time></trkpt><trkpt lat="40.00433" lon="-8.42672"><time>2022-02-26T03:25:51.000Z</time></trkpt><trkpt lat="40.00426" lon="-8.42681"><ele>271</ele><time>2022-02-26T03:26:01.000Z</time></trkpt><trkpt lat="40.00424" lon="-8.42686"><time>2022-02-26T03:26:11.000Z</time></trkpt><trkpt lat="40.00414" lon="-8.42712"><ele>271</ele><time>2022-02-26T03:26:21.000Z</time></trkpt><trkpt lat="40.00405" lon="-8.4273"><time>2022-02-26T03:26:31.000Z</time></trkpt><trkpt lat="40.00395" lon="-8.42753"><ele>272</ele><time>2022-02-26T03:26:41.000Z</time></trkpt><trkpt lat="40.00385" lon="-8.42768"><time>2022-02-26T03:26:51.000Z</time></trkpt><trkpt lat="40.00377" lon="-8.42775"><ele>273</ele><time>2022-02-26T03:27:01.000Z</time></trkpt><trkpt lat="40.00372" lon="-8.42778"><time>2022-02-26T03:27:11.000Z</time></trkpt><trkpt lat="40.00361" lon="-8.42783"><time>2022-02-26T03:27:21.000Z</time></trkpt><trkpt lat="40.00348" lon="-8.42791"><ele>275</ele><time>2022-02-26T03:27:31.000Z</time></trkpt><trkpt lat="40.0033" lon="-8.42804"><time>2022-02-26T03:27:41.000Z</time></trkpt><trkpt lat="40.00312" lon="-8.4282"><ele>280</ele><time>2022-02-26T03:27:51.000Z</time></trkpt><trkpt lat="40.00305" lon="-8.42829"><time>2022-02-26T03:28:01.000Z</time></trkpt><trkpt lat="40.00284" lon="-8.42865"><ele>281</ele><time>2022-02-26T03:28:11.000Z</time></trkpt><trkpt lat="40.00279" lon="-8.4287"><time>2022-02-26T03:28:21.000Z</time></trkpt><trkpt lat="40.00271" lon="-8.42879"><time>2022-02-26T03:28:31.000Z</time></trkpt><trkpt lat="40.00253" lon="-8.42891"><ele>282</ele><time>2022-02-26T03:28:41.000Z</time></trkpt><trkpt lat="40.00244" lon="-8.42898"><time>2022-02-26T03:28:51.000Z</time></trkpt><trkpt lat="40.0024" lon="-8.42903"><time>2022-02-26T03:29:01.000Z</time></trkpt><trkpt lat="40.00223" lon="-8.42919"><ele>284</ele><time>2022-02-26T03:29:11.000Z</time></trkpt><trkpt lat="40.00221" lon="-8.42924"><time>2022-02-26T03:29:21.000Z</time></trkpt><trkpt lat="40.00205" lon="-8.4294"><ele>287</ele><time>2022-02-26T03:29:31.000Z</time></trkpt><trkpt lat="40.00202" lon="-8.42944"><time>2022-02-26T03:29:41.000Z</time></trkpt><trkpt lat="40.00199" lon="-8.4295"><time>2022-02-26T03:29:51.000Z</time></trkpt><trkpt lat="40.00193" lon="-8.4297"><ele>288</ele><time>2022-02-26T03:28:52.000Z</time></trkpt><trkpt lat="40.00189" lon="-8.42975"><time>2022-02-26T03:29:02.000Z</time></trkpt><trkpt lat="40.00185" lon="-8.42978"><time>2022-02-26T03:29:12.000Z</time></trkpt><trkpt lat="40.0018" lon="-8.42978"><time>2022-02-26T03:29:22.000Z</time></trkpt><trkpt lat="40.00173" lon="-8.42976"><ele>288</ele><time>2022-02-26T03:29:01.000Z</time></trkpt><trkpt lat="40.00163" lon="-8.42972"><time>2022-02-26T03:29:11.000Z</time></trkpt><trkpt lat="40.00154" lon="-8.4297"><time>2022-02-26T03:29:21.000Z</time></trkpt><trkpt lat="40.00149" lon="-8.42966"><ele>287</ele><time>2022-02-26T03:29:13.000Z</time></trkpt><trkpt lat="40.00135" lon="-8.4296"><time>2022-02-26T03:29:23.000Z</time></trkpt><trkpt lat="40.00127" lon="-8.42955"><ele>287</ele><time>2022-02-26T03:29:33.000Z</time></trkpt><trkpt lat="40.00122" lon="-8.4295"><time>2022-02-26T03:29:43.000Z</time></trkpt><trkpt lat="40.00124" lon="-8.42944"><time>2022-02-26T03:29:53.000Z</time></trkpt><trkpt lat="40.00125" lon="-8.42936"><time>2022-02-26T03:30:03.000Z</time></trkpt><trkpt lat="40.00125" lon="-8.42928"><ele>291</ele><time>2022-02-26T03:30:13.000Z</time></trkpt><trkpt lat="40.00132" lon="-8.4293"><time>2022-02-26T03:30:23.000Z</time></trkpt><trkpt lat="40.0013" lon="-8.42923"><time>2022-02-26T03:30:33.000Z</time></trkpt><trkpt lat="40.00133" lon="-8.42915"><time>2022-02-26T03:30:43.000Z</time></trkpt><trkpt lat="40.00135" lon="-8.42909"><ele>291</ele><time>2022-02-26T03:30:53.000Z</time></trkpt><trkpt lat="40.00134" lon="-8.429"><time>2022-02-26T03:31:03.000Z</time></trkpt><trkpt lat="40.00133" lon="-8.42892"><time>2022-02-26T03:31:13.000Z</time></trkpt><trkpt lat="40.00128" lon="-8.42879"><ele>291</ele><time>2022-02-26T03:31:23.000Z</time></trkpt><trkpt lat="40.00127" lon="-8.42873"><time>2022-02-26T03:31:33.000Z</time></trkpt><trkpt lat="40.00122" lon="-8.42855"><time>2022-02-26T03:31:43.000Z</time></trkpt><trkpt lat="40.0012" lon="-8.42841"><ele>292</ele><time>2022-02-26T03:30:25.000Z</time></trkpt><trkpt lat="40.00117" lon="-8.42827"><time>2022-02-26T03:30:35.000Z</time></trkpt><trkpt lat="40.00115" lon="-8.42812"><ele>295</ele><time>2022-02-26T03:30:45.000Z</time></trkpt><trkpt lat="40.00113" lon="-8.42805"><time>2022-02-26T03:30:55.000Z</time></trkpt><trkpt lat="40.00108" lon="-8.42793"><time>2022-02-26T03:31:05.000Z</time></trkpt><trkpt lat="40.00101" lon="-8.42783"><ele>297</ele><time>2022-02-26T03:30:50.000Z</time></trkpt><trkpt lat="40.00089" lon="-8.42756"><ele>300</ele><time>2022-02-26T03:31:01.000Z</time></trkpt><trkpt lat="40.00083" lon="-8.42746"><time>2022-02-26T03:31:11.000Z</time></trkpt><trkpt lat="40.00075" lon="-8.42736"><ele>300</ele><time>2022-02-26T03:31:10.000Z</time></trkpt><trkpt lat="40.00059" lon="-8.4272"><time>2022-02-26T03:31:20.000Z</time></trkpt><trkpt lat="40.00046" lon="-8.42709"><ele>302</ele><time>2022-02-26T03:31:34.000Z</time></trkpt><trkpt lat="40.00041" lon="-8.42704"><time>2022-02-26T03:31:44.000Z</time></trkpt><trkpt lat="40.00039" lon="-8.42699"><time>2022-02-26T03:31:54.000Z</time></trkpt><trkpt lat="40.00037" lon="-8.42693"><time>2022-02-26T03:32:04.000Z</time></trkpt><trkpt lat="40.00037" lon="-8.42687"><time>2022-02-26T03:32:14.000Z</time></trkpt><trkpt lat="40.00039" lon="-8.42681"><ele>303</ele><time>2022-02-26T03:31:51.000Z</time></trkpt><trkpt lat="40.00039" lon="-8.42666"><time>2022-02-26T03:32:01.000Z</time></trkpt><trkpt lat="40.0004" lon="-8.4266"><time>2022-02-26T03:32:11.000Z</time></trkpt><trkpt lat="40.00039" lon="-8.42659"><time>2022-02-26T03:32:21.000Z</time></trkpt><trkpt lat="40.00035" lon="-8.42655"><ele>303</ele><time>2022-02-26T03:32:31.000Z</time></trkpt><trkpt lat="40.00031" lon="-8.42643"><time>2022-02-26T03:32:41.000Z</time></trkpt><trkpt lat="40.00027" lon="-8.4263"><ele>303</ele><time>2022-02-26T03:32:51.000Z</time></trkpt><trkpt lat="40.00024" lon="-8.42614"><time>2022-02-26T03:33:01.000Z</time></trkpt><trkpt lat="40.00023" lon="-8.426"><ele>302</ele><time>2022-02-26T03:33:11.000Z</time></trkpt><trkpt lat="40.00023" lon="-8.42585"><time>2022-02-26T03:33:21.000Z</time></trkpt><trkpt lat="40.00025" lon="-8.42565"><ele>302</ele><time>2022-02-26T03:33:31.000Z</time></trkpt><trkpt lat="40.0003" lon="-8.42543"><time>2022-02-26T03:33:41.000Z</time></trkpt><trkpt lat="40.00031" lon="-8.42537"><ele>298</ele><time>2022-02-26T03:33:51.000Z</time></trkpt><trkpt lat="40.0003" lon="-8.42521"><time>2022-02-26T03:34:01.000Z</time></trkpt><trkpt lat="40.00027" lon="-8.42492"><ele>298</ele><time>2022-02-26T03:34:11.000Z</time></trkpt><trkpt lat="40.00027" lon="-8.42483"><time>2022-02-26T03:34:21.000Z</time></trkpt><trkpt lat="40.00028" lon="-8.42466"><time>2022-02-26T03:34:31.000Z</time></trkpt><trkpt lat="40.00031" lon="-8.42449"><ele>295</ele><time>2022-02-26T03:42:22.000Z</time></trkpt><trkpt lat="40.00036" lon="-8.42433"><time>2022-02-26T03:42:32.000Z</time></trkpt><trkpt lat="40.00038" lon="-8.42428"><time>2022-02-26T03:42:42.000Z</time></trkpt><trkpt lat="40.00042" lon="-8.42421"><ele>292</ele><time>2022-02-26T03:42:52.000Z</time></trkpt><trkpt lat="40.00048" lon="-8.42412"><time>2022-02-26T03:43:02.000Z</time></trkpt><trkpt lat="40.00067" lon="-8.4239"><ele>292</ele><time>2022-02-26T03:42:48.000Z</time></trkpt><trkpt lat="40.00087" lon="-8.4237"><ele>292</ele><time>2022-02-26T03:42:58.000Z</time></trkpt><trkpt lat="40.00091" lon="-8.42365"><time>2022-02-26T03:43:08.000Z</time></trkpt><trkpt lat="40.00093" lon="-8.42357"><time>2022-02-26T03:43:18.000Z</time></trkpt><trkpt lat="40.0009" lon="-8.4235"><time>2022-02-26T03:43:28.000Z</time></trkpt><trkpt lat="40.00081" lon="-8.4234"><ele>291</ele><time>2022-02-26T03:43:38.000Z</time></trkpt><trkpt lat="40.00077" lon="-8.42336"><time>2022-02-26T03:43:48.000Z</time></trkpt><trkpt lat="40.00073" lon="-8.42332"><time>2022-02-26T03:43:58.000Z</time></trkpt><trkpt lat="40.00043" lon="-8.42278"><ele>292</ele><time>2022-02-26T03:43:45.000Z</time></trkpt><trkpt lat="40.00035" lon="-8.42268"><time>2022-02-26T03:43:55.000Z</time></trkpt><trkpt lat="40.00033" lon="-8.4226"><time>2022-02-26T03:44:05.000Z</time></trkpt><trkpt lat="40.00034" lon="-8.42248"><ele>293</ele><time>2022-02-26T03:43:58.000Z</time></trkpt><trkpt lat="40.00035" lon="-8.42203"><ele>293</ele><time>2022-02-26T03:44:13.000Z</time></trkpt><trkpt lat="40.00035" lon="-8.42194"><time>2022-02-26T03:44:23.000Z</time></trkpt><trkpt lat="40.00033" lon="-8.42189"><time>2022-02-26T03:44:33.000Z</time></trkpt><trkpt lat="40.00025" lon="-8.4218"><ele>293</ele><time>2022-02-26T03:44:24.000Z</time></trkpt><trkpt lat="40.00024" lon="-8.42172"><time>2022-02-26T03:44:34.000Z</time></trkpt><trkpt lat="40.00028" lon="-8.42166"><time>2022-02-26T03:44:44.000Z</time></trkpt><trkpt lat="40.00032" lon="-8.42149"><ele>294</ele><time>2022-02-26T03:44:43.000Z</time></trkpt><trkpt lat="40.00039" lon="-8.42131"><time>2022-02-26T03:44:53.000Z</time></trkpt><trkpt lat="40.0004" lon="-8.42117"><ele>293</ele><time>2022-02-26T03:45:03.000Z</time></trkpt><trkpt lat="40.00039" lon="-8.42108"><time>2022-02-26T03:45:13.000Z</time></trkpt><trkpt lat="40.00041" lon="-8.421"><time>2022-02-26T03:45:23.000Z</time></trkpt><trkpt lat="40.0004" lon="-8.42088"><ele>293</ele><time>2022-02-26T03:45:33.000Z</time></trkpt><trkpt lat="40.00041" lon="-8.42081"><time>2022-02-26T03:45:43.000Z</time></trkpt><trkpt lat="40.0004" lon="-8.42075"><time>2022-02-26T03:45:53.000Z</time></trkpt><trkpt lat="40.00038" lon="-8.42062"><time>2022-02-26T03:46:03.000Z</time></trkpt><trkpt lat="40.00031" lon="-8.42046"><ele>292</ele><time>2022-02-26T03:45:28.000Z</time></trkpt><trkpt lat="40.00029" lon="-8.4204"><time>2022-02-26T03:45:38.000Z</time></trkpt><trkpt lat="40.00026" lon="-8.42033"><time>2022-02-26T03:45:48.000Z</time></trkpt><trkpt lat="40.00025" lon="-8.42026"><time>2022-02-26T03:45:58.000Z</time></trkpt><trkpt lat="40.00022" lon="-8.4202"><ele>292</ele><time>2022-02-26T03:45:39.000Z</time></trkpt><trkpt lat="40.00018" lon="-8.42017"><time>2022-02-26T03:45:49.000Z</time></trkpt><trkpt lat="40.00015" lon="-8.4201"><time>2022-02-26T03:45:59.000Z</time></trkpt><trkpt lat="40.00015" lon="-8.42004"><time>2022-02-26T03:46:09.000Z</time></trkpt><trkpt lat="40.00019" lon="-8.42"><ele>292</ele><time>2022-02-26T03:46:19.000Z</time></trkpt><trkpt lat="40.00018" lon="-8.41994"><time>2022-02-26T03:46:29.000Z</time></trkpt><trkpt lat="40.00009" lon="-8.41987"><time>2022-02-26T03:46:39.000Z</time></trkpt><trkpt lat="39.99996" lon="-8.41975"><ele>293</ele><time>2022-02-26T03:46:11.000Z</time></trkpt><trkpt lat="39.99975" lon="-8.41953"><ele>293</ele><time>2022-02-26T03:46:21.000Z</time></trkpt><trkpt lat="39.99971" lon="-8.41947"><time>2022-02-26T03:46:31.000Z</time></trkpt><trkpt lat="39.99964" lon="-8.41931"><time>2022-02-26T03:46:41.000Z</time></trkpt><trkpt lat="39.99955" lon="-8.41904"><ele>291</ele><time>2022-02-26T03:46:51.000Z</time></trkpt><trkpt lat="39.99952" lon="-8.41896"><time>2022-02-26T03:47:01.000Z</time></trkpt><trkpt lat="39.99949" lon="-8.41881"><time>2022-02-26T03:47:11.000Z</time></trkpt><trkpt lat="39.99945" lon="-8.41869"><ele>291</ele><time>2022-02-26T03:47:02.000Z</time></trkpt><trkpt lat="39.99933" lon="-8.41841"><ele>289</ele><time>2022-02-26T03:47:12.000Z</time></trkpt><trkpt lat="39.99931" lon="-8.41833"><time>2022-02-26T03:47:22.000Z</time></trkpt><trkpt lat="39.99931" lon="-8.41826"><time>2022-02-26T03:47:32.000Z</time></trkpt><trkpt lat="39.99932" lon="-8.4182"><time>2022-02-26T03:47:42.000Z</time></trkpt><trkpt lat="39.99936" lon="-8.41816"><ele>290</ele><time>2022-02-26T03:47:22.000Z</time></trkpt><trkpt lat="39.99953" lon="-8.41812"><time>2022-02-26T03:47:32.000Z</time></trkpt><trkpt lat="39.99959" lon="-8.41809"><ele>292</ele><time>2022-02-26T03:47:34.000Z</time></trkpt><trkpt lat="39.99969" lon="-8.41806"><time>2022-02-26T03:47:44.000Z</time></trkpt><trkpt lat="39.99971" lon="-8.41799"><time>2022-02-26T03:47:54.000Z</time></trkpt><trkpt lat="39.99967" lon="-8.41793"><ele>292</ele><time>2022-02-26T03:48:04.000Z</time></trkpt><trkpt lat="39.99964" lon="-8.41786"><time>2022-02-26T03:48:14.000Z</time></trkpt><trkpt lat="39.99954" lon="-8.4177"><ele>292</ele><time>2022-02-26T03:48:24.000Z</time></trkpt><trkpt lat="39.99947" lon="-8.41757"><time>2022-02-26T03:48:34.000Z</time></trkpt><trkpt lat="39.99943" lon="-8.41751"><time>2022-02-26T03:48:44.000Z</time></trkpt><trkpt lat="39.99928" lon="-8.41739"><ele>291</ele><time>2022-02-26T03:48:18.000Z</time></trkpt><trkpt lat="39.99908" lon="-8.41714"><ele>291</ele><time>2022-02-26T03:48:33.000Z</time></trkpt><trkpt lat="39.99896" lon="-8.41703"><time>2022-02-26T03:48:43.000Z</time></trkpt><trkpt lat="39.9989" lon="-8.41699"><ele>291</ele><time>2022-02-26T03:48:53.000Z</time></trkpt><trkpt lat="39.9988" lon="-8.41693"><time>2022-02-26T03:49:03.000Z</time></trkpt><trkpt lat="39.99865" lon="-8.41674"><ele>290</ele><time>2022-02-26T03:49:01.000Z</time></trkpt><trkpt lat="39.99862" lon="-8.41667"><time>2022-02-26T03:49:11.000Z</time></trkpt><trkpt lat="39.9986" lon="-8.4166"><time>2022-02-26T03:49:21.000Z</time></trkpt><trkpt lat="39.99852" lon="-8.41653"><ele>290</ele><time>2022-02-26T03:49:31.000Z</time></trkpt><trkpt lat="39.99847" lon="-8.41652"><time>2022-02-26T03:49:41.000Z</time></trkpt><trkpt lat="39.99831" lon="-8.41646"><ele>290</ele><time>2022-02-26T03:49:51.000Z</time></trkpt><trkpt lat="39.99828" lon="-8.41642"><time>2022-02-26T03:50:01.000Z</time></trkpt><trkpt lat="39.99823" lon="-8.41638"><time>2022-02-26T03:50:11.000Z</time></trkpt><trkpt lat="39.99819" lon="-8.41634"><time>2022-02-26T03:50:21.000Z</time></trkpt><trkpt lat="39.99816" lon="-8.41629"><time>2022-02-26T03:50:31.000Z</time></trkpt><trkpt lat="39.99812" lon="-8.41623"><ele>290</ele><time>2022-02-26T03:50:41.000Z</time></trkpt><trkpt lat="39.99808" lon="-8.41615"><time>2022-02-26T03:50:51.000Z</time></trkpt><trkpt lat="39.99804" lon="-8.41609"><time>2022-02-26T03:51:01.000Z</time></trkpt><trkpt lat="39.99796" lon="-8.41599"><ele>291</ele><time>2022-02-26T03:51:11.000Z</time></trkpt><trkpt lat="39.99792" lon="-8.41594"><time>2022-02-26T03:51:21.000Z</time></trkpt><trkpt lat="39.99779" lon="-8.41585"><time>2022-02-26T03:51:31.000Z</time></trkpt><trkpt lat="39.99767" lon="-8.4158"><ele>293</ele><time>2022-02-26T03:51:41.000Z</time></trkpt><trkpt lat="39.99762" lon="-8.41577"><time>2022-02-26T03:51:51.000Z</time></trkpt><trkpt lat="39.99757" lon="-8.41572"><time>2022-02-26T03:52:01.000Z</time></trkpt><trkpt lat="39.99745" lon="-8.41557"><ele>294</ele><time>2022-02-26T03:50:29.000Z</time></trkpt><trkpt lat="39.99735" lon="-8.41547"><time>2022-02-26T03:50:39.000Z</time></trkpt><trkpt lat="39.99729" lon="-8.41545"><time>2022-02-26T03:50:49.000Z</time></trkpt><trkpt lat="39.99724" lon="-8.41545"><ele>294</ele><time>2022-02-26T03:50:59.000Z</time></trkpt><trkpt lat="39.99719" lon="-8.41543"><time>2022-02-26T03:51:09.000Z</time></trkpt><trkpt lat="39.99713" lon="-8.41539"><time>2022-02-26T03:51:19.000Z</time></trkpt><trkpt lat="39.99706" lon="-8.41529"><ele>295</ele><time>2022-02-26T03:51:29.000Z</time></trkpt><trkpt lat="39.99701" lon="-8.41524"><time>2022-02-26T03:51:39.000Z</time></trkpt><trkpt lat="39.99687" lon="-8.41511"><ele>296</ele><time>2022-02-26T03:51:49.000Z</time></trkpt><trkpt lat="39.99681" lon="-8.41507"><time>2022-02-26T03:51:59.000Z</time></trkpt><trkpt lat="39.99665" lon="-8.41504"><ele>300</ele><time>2022-02-26T03:52:09.000Z</time></trkpt><trkpt lat="39.99655" lon="-8.415"><time>2022-02-26T03:52:19.000Z</time></trkpt><trkpt lat="39.99645" lon="-8.41496"><ele>300</ele><time>2022-02-26T03:52:29.000Z</time></trkpt><trkpt lat="39.99641" lon="-8.41491"><time>2022-02-26T03:52:39.000Z</time></trkpt><trkpt lat="39.99633" lon="-8.41485"><time>2022-02-26T03:52:49.000Z</time></trkpt><trkpt lat="39.99618" lon="-8.41476"><ele>303</ele><time>2022-02-26T03:52:59.000Z</time></trkpt><trkpt lat="39.99604" lon="-8.4147"><time>2022-02-26T03:53:09.000Z</time></trkpt><trkpt lat="39.99595" lon="-8.41464"><ele>306</ele><time>2022-02-26T03:53:19.000Z</time></trkpt><trkpt lat="39.99579" lon="-8.41449"><time>2022-02-26T03:53:29.000Z</time></trkpt><trkpt lat="39.99576" lon="-8.41444"><ele>307</ele><time>2022-02-26T03:53:39.000Z</time></trkpt><trkpt lat="39.99572" lon="-8.41439"><time>2022-02-26T03:53:49.000Z</time></trkpt><trkpt lat="39.9956" lon="-8.41427"><time>2022-02-26T03:53:59.000Z</time></trkpt><trkpt lat="39.99551" lon="-8.4142"><ele>312</ele><time>2022-02-26T03:54:09.000Z</time></trkpt><trkpt lat="39.99541" lon="-8.41416"><time>2022-02-26T03:54:19.000Z</time></trkpt><trkpt lat="39.99535" lon="-8.41414"><time>2022-02-26T03:54:29.000Z</time></trkpt><trkpt lat="39.99515" lon="-8.41413"><ele>317</ele><time>2022-02-26T03:53:15.000Z</time></trkpt><trkpt lat="39.99489" lon="-8.4141"><ele>322</ele><time>2022-02-26T03:53:25.000Z</time></trkpt><trkpt lat="39.99484" lon="-8.41409"><time>2022-02-26T03:53:35.000Z</time></trkpt><trkpt lat="39.9948" lon="-8.41406"><time>2022-02-26T03:53:45.000Z</time></trkpt><trkpt lat="39.99471" lon="-8.41398"><time>2022-02-26T03:53:55.000Z</time></trkpt><trkpt lat="39.99461" lon="-8.41393"><ele>322</ele><time>2022-02-26T03:54:05.000Z</time></trkpt><trkpt lat="39.99452" lon="-8.41385"><time>2022-02-26T03:54:15.000Z</time></trkpt><trkpt lat="39.99439" lon="-8.41371"><ele>324</ele><time>2022-02-26T03:54:25.000Z</time></trkpt><trkpt lat="39.99436" lon="-8.41366"><time>2022-02-26T03:54:35.000Z</time></trkpt><trkpt lat="39.9943" lon="-8.41346"><ele>327</ele><time>2022-02-26T03:54:45.000Z</time></trkpt><trkpt lat="39.99423" lon="-8.41334"><time>2022-02-26T03:54:55.000Z</time></trkpt><trkpt lat="39.99418" lon="-8.4132"><ele>330</ele><time>2022-02-26T03:55:05.000Z</time></trkpt><trkpt lat="39.99413" lon="-8.41306"><time>2022-02-26T03:55:15.000Z</time></trkpt><trkpt lat="39.99408" lon="-8.41293"><ele>332</ele><time>2022-02-26T03:55:25.000Z</time></trkpt><trkpt lat="39.99401" lon="-8.41282"><time>2022-02-26T03:55:35.000Z</time></trkpt><trkpt lat="39.99391" lon="-8.41268"><ele>335</ele><time>2022-02-26T03:55:45.000Z</time></trkpt><trkpt lat="39.99377" lon="-8.41258"><time>2022-02-26T03:55:55.000Z</time></trkpt><trkpt lat="39.99372" lon="-8.41248"><ele>347</ele><time>2022-02-26T03:56:05.000Z</time></trkpt><trkpt lat="39.99361" lon="-8.41233"><time>2022-02-26T03:56:15.000Z</time></trkpt><trkpt lat="39.99349" lon="-8.4122"><ele>347</ele><time>2022-02-26T03:56:25.000Z</time></trkpt><trkpt lat="39.9934" lon="-8.4121"><time>2022-02-26T03:56:35.000Z</time></trkpt><trkpt lat="39.99334" lon="-8.412"><ele>347</ele><time>2022-02-26T03:56:45.000Z</time></trkpt><trkpt lat="39.99331" lon="-8.41193"><time>2022-02-26T03:56:55.000Z</time></trkpt><trkpt lat="39.99327" lon="-8.41187"><time>2022-02-26T03:57:05.000Z</time></trkpt><trkpt lat="39.99304" lon="-8.4118"><ele>351</ele><time>2022-02-26T03:57:15.000Z</time></trkpt><trkpt lat="39.99293" lon="-8.41179"><time>2022-02-26T03:57:25.000Z</time></trkpt><trkpt lat="39.99283" lon="-8.41176"><ele>351</ele><time>2022-02-26T03:57:35.000Z</time></trkpt><trkpt lat="39.99275" lon="-8.41171"><time>2022-02-26T03:57:45.000Z</time></trkpt><trkpt lat="39.99265" lon="-8.41166"><time>2022-02-26T03:57:55.000Z</time></trkpt><trkpt lat="39.99244" lon="-8.41158"><ele>350</ele><time>2022-02-26T03:58:05.000Z</time></trkpt><trkpt lat="39.99239" lon="-8.41156"><time>2022-02-26T03:58:15.000Z</time></trkpt><trkpt lat="39.99235" lon="-8.41152"><time>2022-02-26T03:58:25.000Z</time></trkpt><trkpt lat="39.99229" lon="-8.41148"><time>2022-02-26T03:58:35.000Z</time></trkpt><trkpt lat="39.99214" lon="-8.41142"><ele>350</ele><time>2022-02-26T03:58:45.000Z</time></trkpt><trkpt lat="39.99208" lon="-8.41141"><time>2022-02-26T03:58:55.000Z</time></trkpt><trkpt lat="39.99199" lon="-8.41141"><time>2022-02-26T03:59:05.000Z</time></trkpt><trkpt lat="39.9918" lon="-8.41144"><ele>351</ele><time>2022-02-26T03:57:30.000Z</time></trkpt><trkpt lat="39.99169" lon="-8.41147"><time>2022-02-26T03:57:40.000Z</time></trkpt><trkpt lat="39.99154" lon="-8.4115"><ele>353</ele><time>2022-02-26T03:57:48.000Z</time></trkpt><trkpt lat="39.99143" lon="-8.41149"><time>2022-02-26T03:57:58.000Z</time></trkpt><trkpt lat="39.99132" lon="-8.41146"><ele>356</ele><time>2022-02-26T03:58:08.000Z</time></trkpt><trkpt lat="39.99128" lon="-8.41146"><time>2022-02-26T03:58:18.000Z</time></trkpt><trkpt lat="39.99118" lon="-8.41146"><time>2022-02-26T03:58:28.000Z</time></trkpt><trkpt lat="39.99114" lon="-8.41149"><time>2022-02-26T03:58:38.000Z</time></trkpt><trkpt lat="39.99109" lon="-8.4115"><ele>365</ele><time>2022-02-26T03:58:48.000Z</time></trkpt><trkpt lat="39.99105" lon="-8.41153"><time>2022-02-26T03:58:58.000Z</time></trkpt><trkpt lat="39.99101" lon="-8.41156"><time>2022-02-26T03:59:08.000Z</time></trkpt><trkpt lat="39.99085" lon="-8.41163"><ele>374</ele><time>2022-02-26T03:59:18.000Z</time></trkpt><trkpt lat="39.9907" lon="-8.4117"><time>2022-02-26T03:59:28.000Z</time></trkpt><trkpt lat="39.99055" lon="-8.41191"><ele>374</ele><time>2022-02-26T03:59:38.000Z</time></trkpt><trkpt lat="39.9904" lon="-8.41207"><time>2022-02-26T03:59:48.000Z</time></trkpt><trkpt lat="39.99032" lon="-8.41216"><ele>374</ele><time>2022-02-26T03:59:58.000Z</time></trkpt><trkpt lat="39.9902" lon="-8.41229"><time>2022-02-26T04:00:08.000Z</time></trkpt><trkpt lat="39.9901" lon="-8.41239"><ele>374</ele><time>2022-02-26T04:00:18.000Z</time></trkpt><trkpt lat="39.98997" lon="-8.41244"><time>2022-02-26T04:00:28.000Z</time></trkpt><trkpt lat="39.98991" lon="-8.41245"><time>2022-02-26T04:00:38.000Z</time></trkpt><trkpt lat="39.98986" lon="-8.41248"><ele>378</ele><time>2022-02-26T04:00:48.000Z</time></trkpt><trkpt lat="39.98977" lon="-8.41254"><time>2022-02-26T04:00:58.000Z</time></trkpt><trkpt lat="39.98965" lon="-8.41264"><ele>379</ele><time>2022-02-26T04:01:08.000Z</time></trkpt><trkpt lat="39.98956" lon="-8.4127"><time>2022-02-26T04:01:18.000Z</time></trkpt><trkpt lat="39.98946" lon="-8.41274"><time>2022-02-26T04:01:28.000Z</time></trkpt><trkpt lat="39.98932" lon="-8.41274"><ele>381</ele><time>2022-02-26T04:01:38.000Z</time></trkpt><trkpt lat="39.98921" lon="-8.41273"><time>2022-02-26T04:01:48.000Z</time></trkpt><trkpt lat="39.98915" lon="-8.41272"><time>2022-02-26T04:01:58.000Z</time></trkpt><trkpt lat="39.98897" lon="-8.41265"><ele>381</ele><time>2022-02-26T04:02:08.000Z</time></trkpt><trkpt lat="39.9888" lon="-8.41251"><time>2022-02-26T04:02:18.000Z</time></trkpt><trkpt lat="39.98871" lon="-8.41243"><ele>381</ele><time>2022-02-26T04:02:28.000Z</time></trkpt><trkpt lat="39.98866" lon="-8.41239"><time>2022-02-26T04:02:38.000Z</time></trkpt><trkpt lat="39.98858" lon="-8.41229"><time>2022-02-26T04:02:48.000Z</time></trkpt><trkpt lat="39.98845" lon="-8.41217"><ele>381</ele><time>2022-02-26T04:02:58.000Z</time></trkpt><trkpt lat="39.9884" lon="-8.41214"><time>2022-02-26T04:03:08.000Z</time></trkpt><trkpt lat="39.98836" lon="-8.4121"><time>2022-02-26T04:03:18.000Z</time></trkpt><trkpt lat="39.9883" lon="-8.41206"><time>2022-02-26T04:03:28.000Z</time></trkpt><trkpt lat="39.98824" lon="-8.41202"><ele>381</ele><time>2022-02-26T04:03:38.000Z</time></trkpt><trkpt lat="39.98816" lon="-8.41193"><time>2022-02-26T04:03:48.000Z</time></trkpt><trkpt lat="39.9881" lon="-8.41189"><time>2022-02-26T04:03:58.000Z</time></trkpt><trkpt lat="39.98806" lon="-8.41187"><ele>380</ele><time>2022-02-26T04:04:08.000Z</time></trkpt><trkpt lat="39.98801" lon="-8.41187"><time>2022-02-26T04:04:18.000Z</time></trkpt><trkpt lat="39.98796" lon="-8.41184"><time>2022-02-26T04:04:28.000Z</time></trkpt><trkpt lat="39.98787" lon="-8.41175"><ele>381</ele><time>2022-02-26T04:04:38.000Z</time></trkpt><trkpt lat="39.98782" lon="-8.41172"><time>2022-02-26T04:04:48.000Z</time></trkpt><trkpt lat="39.98776" lon="-8.4117"><time>2022-02-26T04:04:58.000Z</time></trkpt><trkpt lat="39.98773" lon="-8.41175"><time>2022-02-26T04:05:08.000Z</time></trkpt><trkpt lat="39.9876" lon="-8.41186"><ele>382</ele><time>2022-02-26T04:05:18.000Z</time></trkpt><trkpt lat="39.98752" lon="-8.41194"><time>2022-02-26T04:05:28.000Z</time></trkpt><trkpt lat="39.98742" lon="-8.41202"><ele>382</ele><time>2022-02-26T04:05:38.000Z</time></trkpt><trkpt lat="39.9873" lon="-8.41216"><time>2022-02-26T04:05:48.000Z</time></trkpt><trkpt lat="39.98721" lon="-8.41222"><ele>382</ele><time>2022-02-26T04:05:58.000Z</time></trkpt><trkpt lat="39.98717" lon="-8.41223"><time>2022-02-26T04:06:08.000Z</time></trkpt><trkpt lat="39.9871" lon="-8.41223"><time>2022-02-26T04:06:18.000Z</time></trkpt><trkpt lat="39.98706" lon="-8.41222"><time>2022-02-26T04:06:28.000Z</time></trkpt><trkpt lat="39.98699" lon="-8.41222"><ele>376</ele><time>2022-02-26T04:06:38.000Z</time></trkpt><trkpt lat="39.98688" lon="-8.41217"><time>2022-02-26T04:06:48.000Z</time></trkpt><trkpt lat="39.9867" lon="-8.41205"><ele>371</ele><time>2022-02-26T04:06:58.000Z</time></trkpt><trkpt lat="39.98656" lon="-8.41194"><time>2022-02-26T04:07:08.000Z</time></trkpt><trkpt lat="39.9865" lon="-8.41193"><ele>368</ele><time>2022-02-26T04:07:18.000Z</time></trkpt><trkpt lat="39.98645" lon="-8.41194"><time>2022-02-26T04:07:28.000Z</time></trkpt><trkpt lat="39.98639" lon="-8.41192"><time>2022-02-26T04:07:38.000Z</time></trkpt><trkpt lat="39.98633" lon="-8.41189"><time>2022-02-26T04:07:48.000Z</time></trkpt><trkpt lat="39.98623" lon="-8.41187"><ele>367</ele><time>2022-02-26T04:07:58.000Z</time></trkpt><trkpt lat="39.98622" lon="-8.41192"><time>2022-02-26T04:08:08.000Z</time></trkpt><trkpt lat="39.98617" lon="-8.41208"><time>2022-02-26T04:08:18.000Z</time></trkpt><trkpt lat="39.98613" lon="-8.4121"><ele>367</ele><time>2022-02-26T04:08:28.000Z</time></trkpt><trkpt lat="39.98602" lon="-8.41212"><time>2022-02-26T04:08:38.000Z</time></trkpt><trkpt lat="39.98594" lon="-8.41212"><time>2022-02-26T04:08:48.000Z</time></trkpt><trkpt lat="39.98578" lon="-8.4121"><ele>364</ele><time>2022-02-26T04:08:58.000Z</time></trkpt><trkpt lat="39.98572" lon="-8.41209"><time>2022-02-26T04:09:08.000Z</time></trkpt><trkpt lat="39.98568" lon="-8.41204"><time>2022-02-26T04:09:18.000Z</time></trkpt><trkpt lat="39.98568" lon="-8.41197"><time>2022-02-26T04:09:28.000Z</time></trkpt><trkpt lat="39.98572" lon="-8.41183"><ele>364</ele><time>2022-02-26T04:09:38.000Z</time></trkpt><trkpt lat="39.98573" lon="-8.41176"><time>2022-02-26T04:09:48.000Z</time></trkpt><trkpt lat="39.98572" lon="-8.41161"><time>2022-02-26T04:09:58.000Z</time></trkpt><trkpt lat="39.9857" lon="-8.41146"><ele>344</ele><time>2022-02-26T04:04:16.000Z</time></trkpt><trkpt lat="39.98564" lon="-8.41118"><ele>341</ele><time>2022-02-26T04:04:24.000Z</time></trkpt><trkpt lat="39.98558" lon="-8.41087"><ele>340</ele><time>2022-02-26T04:04:34.000Z</time></trkpt><trkpt lat="39.98555" lon="-8.41062"><time>2022-02-26T04:04:44.000Z</time></trkpt><trkpt lat="39.98555" lon="-8.41056"><ele>341</ele><time>2022-02-26T04:04:54.000Z</time></trkpt><trkpt lat="39.98557" lon="-8.4105"><time>2022-02-26T04:05:04.000Z</time></trkpt><trkpt lat="39.98559" lon="-8.41044"><time>2022-02-26T04:05:14.000Z</time></trkpt><trkpt lat="39.98572" lon="-8.41024"><ele>336</ele><time>2022-02-26T04:04:56.000Z</time></trkpt><trkpt lat="39.98594" lon="-8.40968"><ele>332</ele><time>2022-02-26T04:05:06.000Z</time></trkpt><trkpt lat="39.98602" lon="-8.40956"><time>2022-02-26T04:05:16.000Z</time></trkpt><trkpt lat="39.98607" lon="-8.4095"><time>2022-02-26T04:05:26.000Z</time></trkpt><trkpt lat="39.98611" lon="-8.40936"><ele>330</ele><time>2022-02-26T04:05:36.000Z</time></trkpt><trkpt lat="39.98607" lon="-8.40929"><time>2022-02-26T04:05:46.000Z</time></trkpt><trkpt lat="39.98597" lon="-8.40922"><time>2022-02-26T04:05:56.000Z</time></trkpt><trkpt lat="39.98592" lon="-8.40917"><ele>324</ele><time>2022-02-26T04:06:06.000Z</time></trkpt><trkpt lat="39.98583" lon="-8.40909"><time>2022-02-26T04:06:16.000Z</time></trkpt><trkpt lat="39.98578" lon="-8.40915"><time>2022-02-26T04:06:26.000Z</time></trkpt><trkpt lat="39.98564" lon="-8.40941"><ele>323</ele><time>2022-02-26T04:06:36.000Z</time></trkpt><trkpt lat="39.98556" lon="-8.4095"><time>2022-02-26T04:06:46.000Z</time></trkpt><trkpt lat="39.98544" lon="-8.40967"><ele>324</ele><time>2022-02-26T04:06:56.000Z</time></trkpt><trkpt lat="39.9853" lon="-8.40981"><time>2022-02-26T04:07:06.000Z</time></trkpt><trkpt lat="39.98522" lon="-8.40991"><ele>320</ele><time>2022-02-26T04:07:16.000Z</time></trkpt><trkpt lat="39.98518" lon="-8.40994"><time>2022-02-26T04:07:26.000Z</time></trkpt><trkpt lat="39.98513" lon="-8.40999"><time>2022-02-26T04:07:36.000Z</time></trkpt><trkpt lat="39.98503" lon="-8.41028"><ele>317</ele><time>2022-02-26T04:06:40.000Z</time></trkpt><trkpt lat="39.98498" lon="-8.41047"><time>2022-02-26T04:06:50.000Z</time></trkpt><trkpt lat="39.98494" lon="-8.41058"><ele>316</ele><time>2022-02-26T04:06:50.000Z</time></trkpt><trkpt lat="39.98485" lon="-8.41093"><ele>316</ele><time>2022-02-26T04:07:00.000Z</time></trkpt><trkpt lat="39.98475" lon="-8.41133"><ele>316</ele><time>2022-02-26T04:07:10.000Z</time></trkpt><trkpt lat="39.98472" lon="-8.41139"><time>2022-02-26T04:07:20.000Z</time></trkpt><trkpt lat="39.98466" lon="-8.4115"><time>2022-02-26T04:07:30.000Z</time></trkpt><trkpt lat="39.98462" lon="-8.41154"><ele>308</ele><time>2022-02-26T04:07:40.000Z</time></trkpt><trkpt lat="39.98458" lon="-8.41157"><time>2022-02-26T04:07:50.000Z</time></trkpt><trkpt lat="39.98453" lon="-8.4116"><time>2022-02-26T04:08:00.000Z</time></trkpt><trkpt lat="39.98447" lon="-8.41161"><time>2022-02-26T04:08:10.000Z</time></trkpt><trkpt lat="39.98414" lon="-8.4115"><ele>301</ele><time>2022-02-26T04:07:54.000Z</time></trkpt><trkpt lat="39.98395" lon="-8.41145"><time>2022-02-26T04:08:04.000Z</time></trkpt><trkpt lat="39.9839" lon="-8.41146"><ele>298</ele><time>2022-02-26T04:08:14.000Z</time></trkpt><trkpt lat="39.98384" lon="-8.41151"><time>2022-02-26T04:08:24.000Z</time></trkpt><trkpt lat="39.98379" lon="-8.41157"><time>2022-02-26T04:08:34.000Z</time></trkpt><trkpt lat="39.98375" lon="-8.41163"><time>2022-02-26T04:08:44.000Z</time></trkpt><trkpt lat="39.98372" lon="-8.41169"><ele>294</ele><time>2022-02-26T04:08:54.000Z</time></trkpt><trkpt lat="39.98363" lon="-8.41181"><time>2022-02-26T04:09:04.000Z</time></trkpt><trkpt lat="39.98357" lon="-8.41193"><ele>292</ele><time>2022-02-26T04:09:14.000Z</time></trkpt><trkpt lat="39.98353" lon="-8.41207"><time>2022-02-26T04:09:24.000Z</time></trkpt><trkpt lat="39.98348" lon="-8.41211"><time>2022-02-26T04:09:34.000Z</time></trkpt><trkpt lat="39.98337" lon="-8.41211"><ele>287</ele><time>2022-02-26T04:09:44.000Z</time></trkpt><trkpt lat="39.98326" lon="-8.4121"><time>2022-02-26T04:09:54.000Z</time></trkpt><trkpt lat="39.98322" lon="-8.41203"><time>2022-02-26T04:10:04.000Z</time></trkpt><trkpt lat="39.98317" lon="-8.41205"><ele>287</ele><time>2022-02-26T04:10:14.000Z</time></trkpt><trkpt lat="39.98312" lon="-8.41217"><time>2022-02-26T04:10:24.000Z</time></trkpt><trkpt lat="39.9831" lon="-8.41224"><time>2022-02-26T04:10:34.000Z</time></trkpt><trkpt lat="39.98308" lon="-8.41229"><time>2022-02-26T04:10:44.000Z</time></trkpt><trkpt lat="39.98301" lon="-8.41239"><ele>289</ele><time>2022-02-26T04:10:54.000Z</time></trkpt><trkpt lat="39.98297" lon="-8.41245"><time>2022-02-26T04:11:04.000Z</time></trkpt><trkpt lat="39.98292" lon="-8.41249"><time>2022-02-26T04:11:14.000Z</time></trkpt><trkpt lat="39.98282" lon="-8.41255"><ele>292</ele><time>2022-02-26T04:11:24.000Z</time></trkpt><trkpt lat="39.98277" lon="-8.41259"><time>2022-02-26T04:11:34.000Z</time></trkpt><trkpt lat="39.98273" lon="-8.41264"><time>2022-02-26T04:11:44.000Z</time></trkpt><trkpt lat="39.98268" lon="-8.41271"><time>2022-02-26T04:11:54.000Z</time></trkpt><trkpt lat="39.98267" lon="-8.41277"><ele>297</ele><time>2022-02-26T04:12:04.000Z</time></trkpt><trkpt lat="39.98265" lon="-8.41283"><time>2022-02-26T04:12:14.000Z</time></trkpt><trkpt lat="39.98264" lon="-8.41289"><time>2022-02-26T04:12:24.000Z</time></trkpt><trkpt lat="39.98262" lon="-8.41295"><time>2022-02-26T04:12:34.000Z</time></trkpt><trkpt lat="39.98255" lon="-8.41311"><ele>308</ele><time>2022-02-26T04:12:44.000Z</time></trkpt><trkpt lat="39.98251" lon="-8.41315"><time>2022-02-26T04:12:54.000Z</time></trkpt><trkpt lat="39.98249" lon="-8.41321"><time>2022-02-26T04:13:04.000Z</time></trkpt><trkpt lat="39.98247" lon="-8.41327"><time>2022-02-26T04:13:14.000Z</time></trkpt><trkpt lat="39.98249" lon="-8.41333"><time>2022-02-26T04:13:24.000Z</time></trkpt><trkpt lat="39.98247" lon="-8.41339"><ele>308</ele><time>2022-02-26T04:13:34.000Z</time></trkpt><trkpt lat="39.98247" lon="-8.41351"><time>2022-02-26T04:13:44.000Z</time></trkpt><trkpt lat="39.98243" lon="-8.41356"><time>2022-02-26T04:13:54.000Z</time></trkpt><trkpt lat="39.98233" lon="-8.41362"><ele>313</ele><time>2022-02-26T04:14:04.000Z</time></trkpt><trkpt lat="39.9823" lon="-8.41366"><time>2022-02-26T04:14:14.000Z</time></trkpt><trkpt lat="39.98227" lon="-8.41371"><time>2022-02-26T04:14:24.000Z</time></trkpt><trkpt lat="39.98225" lon="-8.41379"><time>2022-02-26T04:14:34.000Z</time></trkpt><trkpt lat="39.98223" lon="-8.41393"><ele>318</ele><time>2022-02-26T04:14:44.000Z</time></trkpt><trkpt lat="39.98221" lon="-8.41399"><time>2022-02-26T04:14:54.000Z</time></trkpt><trkpt lat="39.98218" lon="-8.41406"><time>2022-02-26T04:15:04.000Z</time></trkpt><trkpt lat="39.98217" lon="-8.41412"><time>2022-02-26T04:15:14.000Z</time></trkpt><trkpt lat="39.98217" lon="-8.41418"><ele>323</ele><time>2022-02-26T04:15:24.000Z</time></trkpt><trkpt lat="39.98216" lon="-8.41426"><time>2022-02-26T04:15:34.000Z</time></trkpt><trkpt lat="39.9821" lon="-8.41439"><time>2022-02-26T04:15:44.000Z</time></trkpt><trkpt lat="39.98201" lon="-8.41447"><ele>327</ele><time>2022-02-26T04:15:54.000Z</time></trkpt><trkpt lat="39.98197" lon="-8.4145"><time>2022-02-26T04:16:04.000Z</time></trkpt><trkpt lat="39.98185" lon="-8.41457"><time>2022-02-26T04:16:14.000Z</time></trkpt><trkpt lat="39.9818" lon="-8.41457"><ele>325</ele><time>2022-02-26T04:16:24.000Z</time></trkpt><trkpt lat="39.98175" lon="-8.41456"><time>2022-02-26T04:16:34.000Z</time></trkpt><trkpt lat="39.98171" lon="-8.41451"><time>2022-02-26T04:16:44.000Z</time></trkpt><trkpt lat="39.98167" lon="-8.41444"><time>2022-02-26T04:16:54.000Z</time></trkpt><trkpt lat="39.98159" lon="-8.4143"><ele>324</ele><time>2022-02-26T04:17:04.000Z</time></trkpt><trkpt lat="39.98152" lon="-8.41422"><time>2022-02-26T04:17:14.000Z</time></trkpt><trkpt lat="39.98149" lon="-8.41418"><time>2022-02-26T04:17:24.000Z</time></trkpt><trkpt lat="39.98137" lon="-8.4141"><ele>324</ele><time>2022-02-26T04:17:34.000Z</time></trkpt><trkpt lat="39.98121" lon="-8.41403"><time>2022-02-26T04:17:44.000Z</time></trkpt><trkpt lat="39.98107" lon="-8.41394"><ele>324</ele><time>2022-02-26T04:17:54.000Z</time></trkpt><trkpt lat="39.98102" lon="-8.41392"><time>2022-02-26T04:18:04.000Z</time></trkpt><trkpt lat="39.98097" lon="-8.41394"><time>2022-02-26T04:18:14.000Z</time></trkpt><trkpt lat="39.98094" lon="-8.41399"><time>2022-02-26T04:18:24.000Z</time></trkpt><trkpt lat="39.9809" lon="-8.41404"><time>2022-02-26T04:18:34.000Z</time></trkpt><trkpt lat="39.98084" lon="-8.41405"><ele>324</ele><time>2022-02-26T04:18:44.000Z</time></trkpt><trkpt lat="39.98078" lon="-8.41404"><time>2022-02-26T04:18:54.000Z</time></trkpt><trkpt lat="39.98074" lon="-8.41401"><time>2022-02-26T04:19:04.000Z</time></trkpt><trkpt lat="39.98053" lon="-8.4138"><ele>326</ele><time>2022-02-26T04:19:14.000Z</time></trkpt><trkpt lat="39.98047" lon="-8.41379"><time>2022-02-26T04:19:24.000Z</time></trkpt><trkpt lat="39.98032" lon="-8.41389"><ele>326</ele><time>2022-02-26T04:19:34.000Z</time></trkpt><trkpt lat="39.98026" lon="-8.41391"><time>2022-02-26T04:19:44.000Z</time></trkpt><trkpt lat="39.98009" lon="-8.41394"><ele>320</ele><time>2022-02-26T04:19:54.000Z</time></trkpt><trkpt lat="39.98004" lon="-8.41394"><time>2022-02-26T04:20:04.000Z</time></trkpt><trkpt lat="39.97994" lon="-8.41392"><time>2022-02-26T04:20:14.000Z</time></trkpt><trkpt lat="39.97982" lon="-8.41388"><ele>314</ele><time>2022-02-26T04:14:26.000Z</time></trkpt><trkpt lat="39.97968" lon="-8.41375"><time>2022-02-26T04:14:36.000Z</time></trkpt><trkpt lat="39.97961" lon="-8.41374"><ele>314</ele><time>2022-02-26T04:14:46.000Z</time></trkpt><trkpt lat="39.97956" lon="-8.41374"><time>2022-02-26T04:14:56.000Z</time></trkpt><trkpt lat="39.97952" lon="-8.41373"><time>2022-02-26T04:15:06.000Z</time></trkpt><trkpt lat="39.97946" lon="-8.4137"><time>2022-02-26T04:15:16.000Z</time></trkpt><trkpt lat="39.97941" lon="-8.41371"><ele>311</ele><time>2022-02-26T04:15:26.000Z</time></trkpt><trkpt lat="39.97935" lon="-8.41375"><time>2022-02-26T04:15:36.000Z</time></trkpt><trkpt lat="39.9793" lon="-8.41381"><time>2022-02-26T04:15:46.000Z</time></trkpt><trkpt lat="39.97922" lon="-8.41387"><ele>313</ele><time>2022-02-26T04:15:56.000Z</time></trkpt><trkpt lat="39.97917" lon="-8.41393"><time>2022-02-26T04:16:06.000Z</time></trkpt><trkpt lat="39.97913" lon="-8.41397"><time>2022-02-26T04:16:16.000Z</time></trkpt><trkpt lat="39.97905" lon="-8.41415"><ele>315</ele><time>2022-02-26T04:16:26.000Z</time></trkpt><trkpt lat="39.97902" lon="-8.41419"><time>2022-02-26T04:16:36.000Z</time></trkpt><trkpt lat="39.97895" lon="-8.41431"><time>2022-02-26T04:16:46.000Z</time></trkpt><trkpt lat="39.97891" lon="-8.41437"><ele>320</ele><time>2022-02-26T04:16:56.000Z</time></trkpt><trkpt lat="39.97882" lon="-8.41443"><time>2022-02-26T04:17:06.000Z</time></trkpt><trkpt lat="39.97868" lon="-8.41449"><ele>320</ele><time>2022-02-26T04:17:16.000Z</time></trkpt><trkpt lat="39.97858" lon="-8.4145"><time>2022-02-26T04:17:26.000Z</time></trkpt><trkpt lat="39.97843" lon="-8.4145"><ele>320</ele><time>2022-02-26T04:17:36.000Z</time></trkpt><trkpt lat="39.97831" lon="-8.41451"><time>2022-02-26T04:17:46.000Z</time></trkpt><trkpt lat="39.97827" lon="-8.41451"><time>2022-02-26T04:17:56.000Z</time></trkpt><trkpt lat="39.97812" lon="-8.4145"><ele>320</ele><time>2022-02-26T04:18:06.000Z</time></trkpt><trkpt lat="39.97807" lon="-8.41447"><time>2022-02-26T04:18:16.000Z</time></trkpt><trkpt lat="39.97801" lon="-8.41446"><time>2022-02-26T04:18:26.000Z</time></trkpt><trkpt lat="39.97794" lon="-8.41446"><time>2022-02-26T04:18:36.000Z</time></trkpt><trkpt lat="39.97783" lon="-8.41452"><ele>320</ele><time>2022-02-26T04:18:46.000Z</time></trkpt><trkpt lat="39.97778" lon="-8.41457"><time>2022-02-26T04:18:56.000Z</time></trkpt><trkpt lat="39.97758" lon="-8.41466"><ele>312</ele><time>2022-02-26T04:16:52.000Z</time></trkpt><trkpt lat="39.97753" lon="-8.41469"><time>2022-02-26T04:17:02.000Z</time></trkpt><trkpt lat="39.97748" lon="-8.41473"><time>2022-02-26T04:17:12.000Z</time></trkpt><trkpt lat="39.97739" lon="-8.41479"><ele>307</ele><time>2022-02-26T04:17:00.000Z</time></trkpt><trkpt lat="39.97726" lon="-8.41494"><time>2022-02-26T04:17:10.000Z</time></trkpt><trkpt lat="39.97722" lon="-8.41498"><ele>307</ele><time>2022-02-26T04:17:20.000Z</time></trkpt><trkpt lat="39.97715" lon="-8.4151"><time>2022-02-26T04:17:30.000Z</time></trkpt><trkpt lat="39.97701" lon="-8.41543"><ele>301</ele><time>2022-02-26T04:17:40.000Z</time></trkpt><trkpt lat="39.97696" lon="-8.41548"><time>2022-02-26T04:17:50.000Z</time></trkpt><trkpt lat="39.97691" lon="-8.41553"><time>2022-02-26T04:18:00.000Z</time></trkpt><trkpt lat="39.97675" lon="-8.41571"><ele>296</ele><time>2022-02-26T04:17:50.000Z</time></trkpt><trkpt lat="39.97672" lon="-8.41577"><time>2022-02-26T04:18:00.000Z</time></trkpt><trkpt lat="39.97665" lon="-8.41588"><time>2022-02-26T04:18:10.000Z</time></trkpt><trkpt lat="39.97662" lon="-8.41595"><ele>294</ele><time>2022-02-26T04:18:02.000Z</time></trkpt><trkpt lat="39.97658" lon="-8.416"><time>2022-02-26T04:18:12.000Z</time></trkpt><trkpt lat="39.97655" lon="-8.41594"><time>2022-02-26T04:18:22.000Z</time></trkpt><trkpt lat="39.9766" lon="-8.41597"><time>2022-02-26T04:18:32.000Z</time></trkpt><trkpt lat="39.97662" lon="-8.41604"><ele>294</ele><time>2022-02-26T04:19:01.000Z</time></trkpt><trkpt lat="39.97665" lon="-8.41611"><time>2022-02-26T04:19:11.000Z</time></trkpt><trkpt lat="39.97667" lon="-8.41618"><time>2022-02-26T04:19:21.000Z</time></trkpt><trkpt lat="39.97666" lon="-8.41631"><ele>291</ele><time>2022-02-26T04:19:10.000Z</time></trkpt><trkpt lat="39.97664" lon="-8.41644"><time>2022-02-26T04:19:20.000Z</time></trkpt><trkpt lat="39.97663" lon="-8.41651"><time>2022-02-26T04:19:30.000Z</time></trkpt><trkpt lat="39.97663" lon="-8.41658"><ele>284</ele><time>2022-02-26T04:19:18.000Z</time></trkpt><trkpt lat="39.97669" lon="-8.41684"><ele>280</ele><time>2022-02-26T04:19:28.000Z</time></trkpt><trkpt lat="39.97669" lon="-8.41692"><time>2022-02-26T04:19:38.000Z</time></trkpt><trkpt lat="39.97668" lon="-8.41698"><time>2022-02-26T04:19:48.000Z</time></trkpt><trkpt lat="39.97659" lon="-8.41706"><ele>275</ele><time>2022-02-26T04:19:58.000Z</time></trkpt><trkpt lat="39.97651" lon="-8.41713"><time>2022-02-26T04:20:08.000Z</time></trkpt><trkpt lat="39.97642" lon="-8.41719"><time>2022-02-26T04:20:18.000Z</time></trkpt><trkpt lat="39.97638" lon="-8.41723"><ele>275</ele><time>2022-02-26T04:20:28.000Z</time></trkpt><trkpt lat="39.97634" lon="-8.41736"><time>2022-02-26T04:20:38.000Z</time></trkpt><trkpt lat="39.97625" lon="-8.4174"><time>2022-02-26T04:20:48.000Z</time></trkpt><trkpt lat="39.97608" lon="-8.41754"><ele>275</ele><time>2022-02-26T04:20:01.000Z</time></trkpt><trkpt lat="39.97589" lon="-8.41773"><ele>275</ele><time>2022-02-26T04:20:11.000Z</time></trkpt><trkpt lat="39.97579" lon="-8.41783"><time>2022-02-26T04:20:21.000Z</time></trkpt><trkpt lat="39.9755" lon="-8.41809"><ele>278</ele><time>2022-02-26T04:20:31.000Z</time></trkpt><trkpt lat="39.97535" lon="-8.4182"><time>2022-02-26T04:20:41.000Z</time></trkpt><trkpt lat="39.97516" lon="-8.41838"><ele>276</ele><time>2022-02-26T04:20:52.000Z</time></trkpt><trkpt lat="39.97507" lon="-8.41849"><time>2022-02-26T04:21:02.000Z</time></trkpt><trkpt lat="39.97503" lon="-8.41853"><time>2022-02-26T04:21:12.000Z</time></trkpt><trkpt lat="39.975" lon="-8.41859"><ele>275</ele><time>2022-02-26T04:21:22.000Z</time></trkpt><trkpt lat="39.97498" lon="-8.41865"><time>2022-02-26T04:21:32.000Z</time></trkpt><trkpt lat="39.97491" lon="-8.41893"><ele>275</ele><time>2022-02-26T04:21:42.000Z</time></trkpt><trkpt lat="39.9749" lon="-8.41899"><time>2022-02-26T04:21:52.000Z</time></trkpt><trkpt lat="39.97488" lon="-8.41917"><time>2022-02-26T04:22:02.000Z</time></trkpt><trkpt lat="39.97486" lon="-8.41922"><ele>275</ele><time>2022-02-26T04:22:12.000Z</time></trkpt><trkpt lat="39.97484" lon="-8.41927"><time>2022-02-26T04:22:22.000Z</time></trkpt><trkpt lat="39.9748" lon="-8.41932"><time>2022-02-26T04:22:32.000Z</time></trkpt><trkpt lat="39.97459" lon="-8.41946"><ele>275</ele><time>2022-02-26T04:22:42.000Z</time></trkpt><trkpt lat="39.97452" lon="-8.41957"><time>2022-02-26T04:22:52.000Z</time></trkpt><trkpt lat="39.97447" lon="-8.41969"><ele>274</ele><time>2022-02-26T04:23:02.000Z</time></trkpt><trkpt lat="39.97443" lon="-8.41974"><time>2022-02-26T04:23:12.000Z</time></trkpt><trkpt lat="39.97436" lon="-8.41975"><time>2022-02-26T04:23:22.000Z</time></trkpt><trkpt lat="39.9743" lon="-8.41975"><time>2022-02-26T04:23:32.000Z</time></trkpt><trkpt lat="39.97421" lon="-8.41973"><ele>272</ele><time>2022-02-26T04:23:42.000Z</time></trkpt><trkpt lat="39.97404" lon="-8.41971"><time>2022-02-26T04:23:52.000Z</time></trkpt><trkpt lat="39.97372" lon="-8.41968"><ele>272</ele><time>2022-02-26T04:22:36.000Z</time></trkpt><trkpt lat="39.97359" lon="-8.41965"><time>2022-02-26T04:22:46.000Z</time></trkpt><trkpt lat="39.97341" lon="-8.41963"><ele>272</ele><time>2022-02-26T04:22:50.000Z</time></trkpt><trkpt lat="39.97337" lon="-8.41963"><time>2022-02-26T04:23:00.000Z</time></trkpt><trkpt lat="39.97331" lon="-8.41964"><time>2022-02-26T04:23:10.000Z</time></trkpt><trkpt lat="39.97318" lon="-8.41964"><ele>270</ele><time>2022-02-26T04:23:01.000Z</time></trkpt><trkpt lat="39.97294" lon="-8.41962"><ele>268</ele><time>2022-02-26T04:23:11.000Z</time></trkpt><trkpt lat="39.97287" lon="-8.4196"><time>2022-02-26T04:23:21.000Z</time></trkpt><trkpt lat="39.9727" lon="-8.41955"><ele>268</ele><time>2022-02-26T04:23:31.000Z</time></trkpt><trkpt lat="39.97255" lon="-8.41953"><time>2022-02-26T04:23:41.000Z</time></trkpt><trkpt lat="39.97248" lon="-8.41953"><ele>267</ele><time>2022-02-26T04:23:51.000Z</time></trkpt><trkpt lat="39.97243" lon="-8.41954"><time>2022-02-26T04:24:01.000Z</time></trkpt><trkpt lat="39.97239" lon="-8.41957"><time>2022-02-26T04:24:11.000Z</time></trkpt><trkpt lat="39.97233" lon="-8.41962"><time>2022-02-26T04:24:21.000Z</time></trkpt><trkpt lat="39.9722" lon="-8.41981"><ele>266</ele><time>2022-02-26T04:24:31.000Z</time></trkpt><trkpt lat="39.97216" lon="-8.41985"><time>2022-02-26T04:24:41.000Z</time></trkpt><trkpt lat="39.97211" lon="-8.41987"><time>2022-02-26T04:24:51.000Z</time></trkpt><trkpt lat="39.97204" lon="-8.41987"><time>2022-02-26T04:25:01.000Z</time></trkpt><trkpt lat="39.972" lon="-8.41986"><ele>265</ele><time>2022-02-26T04:25:11.000Z</time></trkpt><trkpt lat="39.97184" lon="-8.41976"><time>2022-02-26T04:25:21.000Z</time></trkpt><trkpt lat="39.97168" lon="-8.41964"><ele>267</ele><time>2022-02-26T04:25:31.000Z</time></trkpt><trkpt lat="39.97158" lon="-8.41955"><time>2022-02-26T04:25:41.000Z</time></trkpt><trkpt lat="39.97141" lon="-8.41944"><ele>267</ele><time>2022-02-26T04:25:51.000Z</time></trkpt><trkpt lat="39.97129" lon="-8.4194"><time>2022-02-26T04:26:01.000Z</time></trkpt><trkpt lat="39.97123" lon="-8.41941"><time>2022-02-26T04:26:11.000Z</time></trkpt><trkpt lat="39.97118" lon="-8.41946"><ele>267</ele><time>2022-02-26T04:26:21.000Z</time></trkpt><trkpt lat="39.97105" lon="-8.41957"><time>2022-02-26T04:26:31.000Z</time></trkpt><trkpt lat="39.97097" lon="-8.41961"><ele>265</ele><time>2022-02-26T04:26:41.000Z</time></trkpt><trkpt lat="39.9708" lon="-8.41962"><time>2022-02-26T04:26:51.000Z</time></trkpt><trkpt lat="39.97057" lon="-8.41959"><ele>264</ele><time>2022-02-26T04:27:01.000Z</time></trkpt><trkpt lat="39.97051" lon="-8.4196"><time>2022-02-26T04:27:11.000Z</time></trkpt><trkpt lat="39.97045" lon="-8.41962"><time>2022-02-26T04:27:21.000Z</time></trkpt><trkpt lat="39.97041" lon="-8.41964"><time>2022-02-26T04:27:31.000Z</time></trkpt><trkpt lat="39.97022" lon="-8.41972"><ele>263</ele><time>2022-02-26T04:27:41.000Z</time></trkpt><trkpt lat="39.97017" lon="-8.41975"><time>2022-02-26T04:27:51.000Z</time></trkpt><trkpt lat="39.97009" lon="-8.41986"><time>2022-02-26T04:28:01.000Z</time></trkpt><trkpt lat="39.97005" lon="-8.41992"><ele>263</ele><time>2022-02-26T04:28:11.000Z</time></trkpt><trkpt lat="39.96997" lon="-8.42005"><time>2022-02-26T04:28:21.000Z</time></trkpt><trkpt lat="39.96993" lon="-8.42018"><ele>267</ele><time>2022-02-26T04:28:31.000Z</time></trkpt><trkpt lat="39.96992" lon="-8.42027"><time>2022-02-26T04:28:41.000Z</time></trkpt><trkpt lat="39.96992" lon="-8.42039"><time>2022-02-26T04:28:51.000Z</time></trkpt><trkpt lat="39.96992" lon="-8.42066"><ele>267</ele><time>2022-02-26T04:29:01.000Z</time></trkpt><trkpt lat="39.96992" lon="-8.42073"><time>2022-02-26T04:29:11.000Z</time></trkpt><trkpt lat="39.9699" lon="-8.42079"><time>2022-02-26T04:29:21.000Z</time></trkpt><trkpt lat="39.96989" lon="-8.42087"><time>2022-02-26T04:29:31.000Z</time></trkpt><trkpt lat="39.96989" lon="-8.42116"><ele>264</ele><time>2022-02-26T04:26:35.000Z</time></trkpt><trkpt lat="39.96988" lon="-8.42124"><time>2022-02-26T04:26:45.000Z</time></trkpt><trkpt lat="39.96985" lon="-8.42131"><time>2022-02-26T04:26:55.000Z</time></trkpt><trkpt lat="39.96979" lon="-8.42146"><ele>261</ele><time>2022-02-26T04:26:47.000Z</time></trkpt><trkpt lat="39.96974" lon="-8.42151"><time>2022-02-26T04:26:57.000Z</time></trkpt><trkpt lat="39.96957" lon="-8.42157"><ele>261</ele><time>2022-02-26T04:26:58.000Z</time></trkpt><trkpt lat="39.96952" lon="-8.42161"><time>2022-02-26T04:27:08.000Z</time></trkpt><trkpt lat="39.96949" lon="-8.42167"><time>2022-02-26T04:27:18.000Z</time></trkpt><trkpt lat="39.96946" lon="-8.42175"><time>2022-02-26T04:27:28.000Z</time></trkpt><trkpt lat="39.96945" lon="-8.42183"><ele>260</ele><time>2022-02-26T04:27:10.000Z</time></trkpt><trkpt lat="39.96943" lon="-8.42199"><time>2022-02-26T04:27:20.000Z</time></trkpt><trkpt lat="39.96941" lon="-8.42224"><ele>260</ele><time>2022-02-26T04:27:25.000Z</time></trkpt><trkpt lat="39.96941" lon="-8.42263"><ele>260</ele><time>2022-02-26T04:27:35.000Z</time></trkpt><trkpt lat="39.96939" lon="-8.42277"><time>2022-02-26T04:27:45.000Z</time></trkpt><trkpt lat="39.96937" lon="-8.42288"><time>2022-02-26T04:27:55.000Z</time></trkpt><trkpt lat="39.96932" lon="-8.42304"><ele>260</ele><time>2022-02-26T04:28:05.000Z</time></trkpt><trkpt lat="39.96928" lon="-8.42311"><time>2022-02-26T04:28:15.000Z</time></trkpt><trkpt lat="39.96924" lon="-8.42316"><time>2022-02-26T04:28:25.000Z</time></trkpt><trkpt lat="39.96921" lon="-8.42323"><time>2022-02-26T04:28:35.000Z</time></trkpt><trkpt lat="39.96922" lon="-8.42335"><ele>257</ele><time>2022-02-26T04:28:45.000Z</time></trkpt><trkpt lat="39.96926" lon="-8.42347"><time>2022-02-26T04:28:55.000Z</time></trkpt><trkpt lat="39.96934" lon="-8.42364"><ele>256</ele><time>2022-02-26T04:29:05.000Z</time></trkpt><trkpt lat="39.96941" lon="-8.42377"><time>2022-02-26T04:29:15.000Z</time></trkpt><trkpt lat="39.9695" lon="-8.42397"><ele>256</ele><time>2022-02-26T04:29:25.000Z</time></trkpt><trkpt lat="39.96957" lon="-8.42408"><time>2022-02-26T04:29:35.000Z</time></trkpt><trkpt lat="39.9696" lon="-8.42414"><time>2022-02-26T04:29:45.000Z</time></trkpt><trkpt lat="39.96967" lon="-8.42434"><ele>259</ele><time>2022-02-26T04:29:55.000Z</time></trkpt><trkpt lat="39.96971" lon="-8.42439"><time>2022-02-26T04:30:05.000Z</time></trkpt><trkpt lat="39.96979" lon="-8.42446"><time>2022-02-26T04:30:15.000Z</time></trkpt><trkpt lat="39.96991" lon="-8.42459"><ele>263</ele><time>2022-02-26T04:30:25.000Z</time></trkpt><trkpt lat="39.96994" lon="-8.42465"><time>2022-02-26T04:30:35.000Z</time></trkpt><trkpt lat="39.96996" lon="-8.42487"><ele>264</ele><time>2022-02-26T04:30:45.000Z</time></trkpt><trkpt lat="39.96999" lon="-8.425"><time>2022-02-26T04:30:55.000Z</time></trkpt><trkpt lat="39.97008" lon="-8.4252"><ele>267</ele><time>2022-02-26T04:31:05.000Z</time></trkpt><trkpt lat="39.97015" lon="-8.42532"><time>2022-02-26T04:31:15.000Z</time></trkpt><trkpt lat="39.97018" lon="-8.42539"><time>2022-02-26T04:31:25.000Z</time></trkpt><trkpt lat="39.97024" lon="-8.42557"><ele>275</ele><time>2022-02-26T04:31:35.000Z</time></trkpt><trkpt lat="39.97028" lon="-8.42576"><time>2022-02-26T04:31:45.000Z</time></trkpt><trkpt lat="39.97029" lon="-8.42583"><ele>275</ele><time>2022-02-26T04:31:55.000Z</time></trkpt><trkpt lat="39.97029" lon="-8.42589"><time>2022-02-26T04:32:05.000Z</time></trkpt><trkpt lat="39.97028" lon="-8.42595"><time>2022-02-26T04:32:15.000Z</time></trkpt><trkpt lat="39.97024" lon="-8.42607"><time>2022-02-26T04:32:25.000Z</time></trkpt><trkpt lat="39.97011" lon="-8.42639"><ele>275</ele><time>2022-02-26T04:31:00.000Z</time></trkpt><trkpt lat="39.97003" lon="-8.42656"><time>2022-02-26T04:31:10.000Z</time></trkpt><trkpt lat="39.96998" lon="-8.42667"><ele>278</ele><time>2022-02-26T04:31:20.000Z</time></trkpt><trkpt lat="39.96994" lon="-8.4268"><time>2022-02-26T04:31:30.000Z</time></trkpt><trkpt lat="39.96991" lon="-8.42698"><ele>278</ele><time>2022-02-26T04:31:40.000Z</time></trkpt><trkpt lat="39.96987" lon="-8.4271"><time>2022-02-26T04:31:50.000Z</time></trkpt><trkpt lat="39.96969" lon="-8.42743"><ele>277</ele><time>2022-02-26T04:32:00.000Z</time></trkpt><trkpt lat="39.96963" lon="-8.42757"><time>2022-02-26T04:32:10.000Z</time></trkpt><trkpt lat="39.96953" lon="-8.42783"><ele>277</ele><time>2022-02-26T04:32:20.000Z</time></trkpt><trkpt lat="39.9695" lon="-8.42789"><time>2022-02-26T04:32:30.000Z</time></trkpt><trkpt lat="39.96943" lon="-8.428"><time>2022-02-26T04:32:40.000Z</time></trkpt><trkpt lat="39.96923" lon="-8.4283"><ele>277</ele><time>2022-02-26T04:32:36.000Z</time></trkpt><trkpt lat="39.96913" lon="-8.42847"><time>2022-02-26T04:32:46.000Z</time></trkpt><trkpt lat="39.96911" lon="-8.42853"><ele>278</ele><time>2022-02-26T04:32:48.000Z</time></trkpt><trkpt lat="39.9691" lon="-8.4286"><time>2022-02-26T04:32:58.000Z</time></trkpt><trkpt lat="39.96907" lon="-8.42882"><ele>279</ele><time>2022-02-26T04:33:04.000Z</time></trkpt><trkpt lat="39.96907" lon="-8.42895"><time>2022-02-26T04:33:14.000Z</time></trkpt><trkpt lat="39.96908" lon="-8.42908"><time>2022-02-26T04:33:24.000Z</time></trkpt><trkpt lat="39.96909" lon="-8.42914"><ele>278</ele><time>2022-02-26T04:33:20.000Z</time></trkpt><trkpt lat="39.96919" lon="-8.4293"><time>2022-02-26T04:33:30.000Z</time></trkpt><trkpt lat="39.96923" lon="-8.42935"><ele>278</ele><time>2022-02-26T04:33:40.000Z</time></trkpt><trkpt lat="39.96928" lon="-8.42938"><time>2022-02-26T04:33:50.000Z</time></trkpt><trkpt lat="39.96933" lon="-8.42937"><time>2022-02-26T04:34:00.000Z</time></trkpt><trkpt lat="39.96946" lon="-8.42928"><ele>280</ele><time>2022-02-26T04:34:10.000Z</time></trkpt><trkpt lat="39.96951" lon="-8.42926"><time>2022-02-26T04:34:20.000Z</time></trkpt><trkpt lat="39.96967" lon="-8.42924"><time>2022-02-26T04:34:30.000Z</time></trkpt><trkpt lat="39.96971" lon="-8.42925"><ele>282</ele><time>2022-02-26T04:34:40.000Z</time></trkpt><trkpt lat="39.96976" lon="-8.42927"><time>2022-02-26T04:34:50.000Z</time></trkpt><trkpt lat="39.9698" lon="-8.4293"><time>2022-02-26T04:35:00.000Z</time></trkpt><trkpt lat="39.96987" lon="-8.42938"><time>2022-02-26T04:35:10.000Z</time></trkpt><trkpt lat="39.96993" lon="-8.42947"><ele>283</ele><time>2022-02-26T04:34:23.000Z</time></trkpt><trkpt lat="39.97011" lon="-8.42968"><ele>284</ele><time>2022-02-26T04:34:33.000Z</time></trkpt><trkpt lat="39.97018" lon="-8.42977"><time>2022-02-26T04:34:43.000Z</time></trkpt><trkpt lat="39.97026" lon="-8.42987"><time>2022-02-26T04:34:53.000Z</time></trkpt><trkpt lat="39.97032" lon="-8.42997"><ele>283</ele><time>2022-02-26T04:35:03.000Z</time></trkpt><trkpt lat="39.97035" lon="-8.43004"><time>2022-02-26T04:35:13.000Z</time></trkpt><trkpt lat="39.97039" lon="-8.43017"><time>2022-02-26T04:35:23.000Z</time></trkpt><trkpt lat="39.97044" lon="-8.43038"><ele>283</ele><time>2022-02-26T04:35:33.000Z</time></trkpt><trkpt lat="39.97047" lon="-8.43054"><time>2022-02-26T04:35:43.000Z</time></trkpt><trkpt lat="39.97049" lon="-8.43062"><time>2022-02-26T04:35:53.000Z</time></trkpt><trkpt lat="39.97054" lon="-8.43068"><ele>281</ele><time>2022-02-26T04:36:03.000Z</time></trkpt><trkpt lat="39.97062" lon="-8.43077"><time>2022-02-26T04:36:13.000Z</time></trkpt><trkpt lat="39.97081" lon="-8.43095"><ele>285</ele><time>2022-02-26T04:36:23.000Z</time></trkpt><trkpt lat="39.97091" lon="-8.43102"><time>2022-02-26T04:36:33.000Z</time></trkpt><trkpt lat="39.97096" lon="-8.43105"><time>2022-02-26T04:36:43.000Z</time></trkpt><trkpt lat="39.97101" lon="-8.43106"><ele>289</ele><time>2022-02-26T04:36:53.000Z</time></trkpt><trkpt lat="39.97106" lon="-8.43105"><time>2022-02-26T04:37:03.000Z</time></trkpt><trkpt lat="39.97112" lon="-8.43103"><time>2022-02-26T04:37:13.000Z</time></trkpt><trkpt lat="39.97116" lon="-8.43103"><time>2022-02-26T04:37:23.000Z</time></trkpt><trkpt lat="39.97121" lon="-8.43105"><ele>289</ele><time>2022-02-26T04:37:33.000Z</time></trkpt><trkpt lat="39.97131" lon="-8.43111"><time>2022-02-26T04:37:43.000Z</time></trkpt><trkpt lat="39.97146" lon="-8.43123"><ele>289</ele><time>2022-02-26T04:37:53.000Z</time></trkpt><trkpt lat="39.9715" lon="-8.43127"><time>2022-02-26T04:38:03.000Z</time></trkpt><trkpt lat="39.97153" lon="-8.43131"><time>2022-02-26T04:38:13.000Z</time></trkpt><trkpt lat="39.97159" lon="-8.43144"><time>2022-02-26T04:38:23.000Z</time></trkpt><trkpt lat="39.97162" lon="-8.43148"><ele>297</ele><time>2022-02-26T04:38:33.000Z</time></trkpt><trkpt lat="39.97163" lon="-8.43154"><time>2022-02-26T04:38:43.000Z</time></trkpt><trkpt lat="39.97166" lon="-8.4316"><time>2022-02-26T04:38:53.000Z</time></trkpt><trkpt lat="39.97164" lon="-8.43202"><ele>300</ele><time>2022-02-26T04:39:03.000Z</time></trkpt><trkpt lat="39.97165" lon="-8.4321"><time>2022-02-26T04:39:13.000Z</time></trkpt><trkpt lat="39.97171" lon="-8.43235"><ele>300</ele><time>2022-02-26T04:39:23.000Z</time></trkpt><trkpt lat="39.97175" lon="-8.43248"><time>2022-02-26T04:39:33.000Z</time></trkpt><trkpt lat="39.97183" lon="-8.43289"><ele>301</ele><time>2022-02-26T04:39:43.000Z</time></trkpt><trkpt lat="39.97187" lon="-8.43302"><time>2022-02-26T04:39:53.000Z</time></trkpt><trkpt lat="39.9719" lon="-8.43322"><ele>302</ele><time>2022-02-26T04:40:03.000Z</time></trkpt><trkpt lat="39.9719" lon="-8.43341"><time>2022-02-26T04:40:13.000Z</time></trkpt><trkpt lat="39.97193" lon="-8.43346"><time>2022-02-26T04:40:23.000Z</time></trkpt><trkpt lat="39.97199" lon="-8.43363"><ele>307</ele><time>2022-02-26T04:40:33.000Z</time></trkpt><trkpt lat="39.97202" lon="-8.43377"><time>2022-02-26T04:40:43.000Z</time></trkpt><trkpt lat="39.97208" lon="-8.43397"><ele>308</ele><time>2022-02-26T04:40:53.000Z</time></trkpt><trkpt lat="39.97211" lon="-8.43409"><time>2022-02-26T04:41:03.000Z</time></trkpt><trkpt lat="39.97217" lon="-8.4343"><ele>311</ele><time>2022-02-26T04:41:13.000Z</time></trkpt><trkpt lat="39.97227" lon="-8.43446"><time>2022-02-26T04:41:23.000Z</time></trkpt><trkpt lat="39.97231" lon="-8.43451"><ele>310</ele><time>2022-02-26T04:41:33.000Z</time></trkpt><trkpt lat="39.97236" lon="-8.43454"><time>2022-02-26T04:41:43.000Z</time></trkpt><trkpt lat="39.97251" lon="-8.43456"><time>2022-02-26T04:41:53.000Z</time></trkpt><trkpt lat="39.97271" lon="-8.43459"><ele>310</ele><time>2022-02-26T04:42:03.000Z</time></trkpt><trkpt lat="39.97286" lon="-8.43466"><time>2022-02-26T04:42:13.000Z</time></trkpt><trkpt lat="39.97295" lon="-8.43472"><ele>310</ele><time>2022-02-26T04:42:23.000Z</time></trkpt><trkpt lat="39.97303" lon="-8.43479"><time>2022-02-26T04:42:33.000Z</time></trkpt><trkpt lat="39.97307" lon="-8.43485"><time>2022-02-26T04:42:43.000Z</time></trkpt><trkpt lat="39.97309" lon="-8.4349"><time>2022-02-26T04:42:53.000Z</time></trkpt><trkpt lat="39.97312" lon="-8.43505"><ele>304</ele><time>2022-02-26T04:43:03.000Z</time></trkpt><trkpt lat="39.97312" lon="-8.43512"><time>2022-02-26T04:43:13.000Z</time></trkpt><trkpt lat="39.97313" lon="-8.4352"><time>2022-02-26T04:43:23.000Z</time></trkpt><trkpt lat="39.97316" lon="-8.43534"><ele>302</ele><time>2022-02-26T04:43:33.000Z</time></trkpt><trkpt lat="39.97325" lon="-8.43556"><time>2022-02-26T04:43:43.000Z</time></trkpt><trkpt lat="39.9734" lon="-8.43588"><ele>304</ele><time>2022-02-26T04:43:53.000Z</time></trkpt><trkpt lat="39.97348" lon="-8.4361"><time>2022-02-26T04:44:03.000Z</time></trkpt><trkpt lat="39.97359" lon="-8.4365"><ele>304</ele><time>2022-02-26T04:44:13.000Z</time></trkpt><trkpt lat="39.9736" lon="-8.43658"><time>2022-02-26T04:44:23.000Z</time></trkpt><trkpt lat="39.9736" lon="-8.43667"><time>2022-02-26T04:44:33.000Z</time></trkpt><trkpt lat="39.97359" lon="-8.43672"><time>2022-02-26T04:44:43.000Z</time></trkpt><trkpt lat="39.97348" lon="-8.43694"><ele>304</ele><time>2022-02-26T04:44:53.000Z</time></trkpt><trkpt lat="39.9734" lon="-8.43711"><time>2022-02-26T04:45:03.000Z</time></trkpt><trkpt lat="39.97337" lon="-8.43717"><time>2022-02-26T04:45:13.000Z</time></trkpt><trkpt lat="39.97339" lon="-8.43724"><ele>307</ele><time>2022-02-26T04:45:23.000Z</time></trkpt><trkpt lat="39.97345" lon="-8.43726"><time>2022-02-26T04:45:33.000Z</time></trkpt><trkpt lat="39.97349" lon="-8.43726"><time>2022-02-26T04:45:43.000Z</time></trkpt><trkpt lat="39.97373" lon="-8.43723"><ele>310</ele><time>2022-02-26T04:45:53.000Z</time></trkpt><trkpt lat="39.97379" lon="-8.43722"><time>2022-02-26T04:46:03.000Z</time></trkpt><trkpt lat="39.97385" lon="-8.43723"><time>2022-02-26T04:46:13.000Z</time></trkpt><trkpt lat="39.9739" lon="-8.43724"><time>2022-02-26T04:46:23.000Z</time></trkpt><trkpt lat="39.97396" lon="-8.43726"><ele>311</ele><time>2022-02-26T04:46:33.000Z</time></trkpt><trkpt lat="39.97404" lon="-8.43731"><time>2022-02-26T04:46:43.000Z</time></trkpt><trkpt lat="39.97409" lon="-8.43734"><time>2022-02-26T04:46:53.000Z</time></trkpt><trkpt lat="39.97415" lon="-8.43734"><time>2022-02-26T04:47:03.000Z</time></trkpt><trkpt lat="39.97425" lon="-8.43728"><ele>311</ele><time>2022-02-26T04:42:54.000Z</time></trkpt><trkpt lat="39.97439" lon="-8.4372"><time>2022-02-26T04:43:04.000Z</time></trkpt><trkpt lat="39.97445" lon="-8.43721"><ele>313</ele><time>2022-02-26T04:43:14.000Z</time></trkpt><trkpt lat="39.97455" lon="-8.43724"><time>2022-02-26T04:43:24.000Z</time></trkpt><trkpt lat="39.97471" lon="-8.43734"><ele>315</ele><time>2022-02-26T04:43:34.000Z</time></trkpt><trkpt lat="39.97476" lon="-8.43735"><time>2022-02-26T04:43:44.000Z</time></trkpt><trkpt lat="39.97481" lon="-8.43735"><time>2022-02-26T04:43:54.000Z</time></trkpt><trkpt lat="39.97486" lon="-8.43734"><time>2022-02-26T04:44:04.000Z</time></trkpt><trkpt lat="39.97496" lon="-8.4373"><ele>318</ele><time>2022-02-26T04:44:14.000Z</time></trkpt><trkpt lat="39.97506" lon="-8.43725"><time>2022-02-26T04:44:24.000Z</time></trkpt><trkpt lat="39.9751" lon="-8.4373"><time>2022-02-26T04:44:34.000Z</time></trkpt><trkpt lat="39.97513" lon="-8.43736"><ele>318</ele><time>2022-02-26T04:44:44.000Z</time></trkpt><trkpt lat="39.97514" lon="-8.43742"><time>2022-02-26T04:44:54.000Z</time></trkpt><trkpt lat="39.97515" lon="-8.43755"><time>2022-02-26T04:45:04.000Z</time></trkpt><trkpt lat="39.97516" lon="-8.43783"><ele>319</ele><time>2022-02-26T04:45:14.000Z</time></trkpt><trkpt lat="39.97517" lon="-8.4379"><time>2022-02-26T04:45:24.000Z</time></trkpt><trkpt lat="39.97521" lon="-8.43809"><time>2022-02-26T04:45:34.000Z</time></trkpt><trkpt lat="39.97522" lon="-8.43816"><ele>323</ele><time>2022-02-26T04:45:44.000Z</time></trkpt><trkpt lat="39.9752" lon="-8.43823"><time>2022-02-26T04:45:54.000Z</time></trkpt><trkpt lat="39.97516" lon="-8.43827"><time>2022-02-26T04:46:04.000Z</time></trkpt><trkpt lat="39.97512" lon="-8.4383"><time>2022-02-26T04:46:14.000Z</time></trkpt><trkpt lat="39.97501" lon="-8.43836"><ele>325</ele><time>2022-02-26T04:44:58.000Z</time></trkpt><trkpt lat="39.97482" lon="-8.43843"><time>2022-02-26T04:45:08.000Z</time></trkpt><trkpt lat="39.97473" lon="-8.43847"><ele>331</ele><time>2022-02-26T04:45:18.000Z</time></trkpt><trkpt lat="39.97468" lon="-8.43851"><time>2022-02-26T04:45:28.000Z</time></trkpt><trkpt lat="39.97456" lon="-8.43863"><time>2022-02-26T04:45:38.000Z</time></trkpt><trkpt lat="39.97452" lon="-8.43867"><ele>337</ele><time>2022-02-26T04:45:48.000Z</time></trkpt><trkpt lat="39.9745" lon="-8.43872"><time>2022-02-26T04:45:58.000Z</time></trkpt><trkpt lat="39.97444" lon="-8.43884"><time>2022-02-26T04:46:08.000Z</time></trkpt><trkpt lat="39.97431" lon="-8.43908"><ele>340</ele><time>2022-02-26T04:46:18.000Z</time></trkpt><trkpt lat="39.97425" lon="-8.43917"><time>2022-02-26T04:46:28.000Z</time></trkpt><trkpt lat="39.97423" lon="-8.43923"><time>2022-02-26T04:46:38.000Z</time></trkpt><trkpt lat="39.97422" lon="-8.43929"><time>2022-02-26T04:46:48.000Z</time></trkpt><trkpt lat="39.97424" lon="-8.43935"><ele>340</ele><time>2022-02-26T04:46:58.000Z</time></trkpt><trkpt lat="39.97434" lon="-8.43942"><time>2022-02-26T04:47:08.000Z</time></trkpt><trkpt lat="39.97446" lon="-8.43943"><ele>341</ele><time>2022-02-26T04:47:18.000Z</time></trkpt><trkpt lat="39.97461" lon="-8.43944"><time>2022-02-26T04:47:28.000Z</time></trkpt><trkpt lat="39.97466" lon="-8.43945"><ele>349</ele><time>2022-02-26T04:47:38.000Z</time></trkpt><trkpt lat="39.97471" lon="-8.43948"><time>2022-02-26T04:47:48.000Z</time></trkpt><trkpt lat="39.97475" lon="-8.43953"><time>2022-02-26T04:47:58.000Z</time></trkpt><trkpt lat="39.97477" lon="-8.43959"><time>2022-02-26T04:48:08.000Z</time></trkpt><trkpt lat="39.97484" lon="-8.43983"><ele>349</ele><time>2022-02-26T04:48:18.000Z</time></trkpt><trkpt lat="39.97487" lon="-8.43988"><time>2022-02-26T04:48:28.000Z</time></trkpt><trkpt lat="39.97494" lon="-8.43998"><time>2022-02-26T04:48:38.000Z</time></trkpt><trkpt lat="39.97503" lon="-8.44004"><ele>356</ele><time>2022-02-26T04:48:48.000Z</time></trkpt><trkpt lat="39.97507" lon="-8.44007"><time>2022-02-26T04:48:58.000Z</time></trkpt><trkpt lat="39.97517" lon="-8.4401"><time>2022-02-26T04:49:08.000Z</time></trkpt><trkpt lat="39.97529" lon="-8.44011"><ele>359</ele><time>2022-02-26T04:47:53.000Z</time></trkpt><trkpt lat="39.97559" lon="-8.44012"><ele>359</ele><time>2022-02-26T04:48:11.000Z</time></trkpt><trkpt lat="39.9757" lon="-8.44011"><time>2022-02-26T04:48:21.000Z</time></trkpt><trkpt lat="39.97575" lon="-8.44012"><time>2022-02-26T04:48:31.000Z</time></trkpt><trkpt lat="39.97581" lon="-8.44011"><ele>361</ele><time>2022-02-26T04:48:24.000Z</time></trkpt><trkpt lat="39.97591" lon="-8.44013"><time>2022-02-26T04:48:34.000Z</time></trkpt><trkpt lat="39.97596" lon="-8.44015"><time>2022-02-26T04:48:44.000Z</time></trkpt><trkpt lat="39.976" lon="-8.44017"><time>2022-02-26T04:48:54.000Z</time></trkpt><trkpt lat="39.97608" lon="-8.44024"><ele>363</ele><time>2022-02-26T04:48:45.000Z</time></trkpt><trkpt lat="39.97636" lon="-8.44055"><ele>363</ele><time>2022-02-26T04:48:55.000Z</time></trkpt><trkpt lat="39.97651" lon="-8.44071"><time>2022-02-26T04:49:05.000Z</time></trkpt><trkpt lat="39.9766" lon="-8.44076"><ele>365</ele><time>2022-02-26T04:49:15.000Z</time></trkpt><trkpt lat="39.97665" lon="-8.44078"><time>2022-02-26T04:49:25.000Z</time></trkpt><trkpt lat="39.97669" lon="-8.44075"><time>2022-02-26T04:49:35.000Z</time></trkpt><trkpt lat="39.97672" lon="-8.4407"><time>2022-02-26T04:49:45.000Z</time></trkpt><trkpt lat="39.97678" lon="-8.44043"><ele>368</ele><time>2022-02-26T04:49:55.000Z</time></trkpt><trkpt lat="39.97684" lon="-8.44026"><time>2022-02-26T04:50:05.000Z</time></trkpt><trkpt lat="39.977" lon="-8.44"><ele>368</ele><time>2022-02-26T04:50:15.000Z</time></trkpt><trkpt lat="39.97704" lon="-8.43997"><time>2022-02-26T04:50:25.000Z</time></trkpt><trkpt lat="39.97718" lon="-8.43995"><time>2022-02-26T04:50:35.000Z</time></trkpt><trkpt lat="39.97723" lon="-8.43996"><ele>368</ele><time>2022-02-26T04:50:37.000Z</time></trkpt><trkpt lat="39.97735" lon="-8.44009"><time>2022-02-26T04:50:47.000Z</time></trkpt><trkpt lat="39.97738" lon="-8.44015"><ele>364</ele><time>2022-02-26T04:50:57.000Z</time></trkpt><trkpt lat="39.97741" lon="-8.4402"><time>2022-02-26T04:51:07.000Z</time></trkpt><trkpt lat="39.97744" lon="-8.44025"><time>2022-02-26T04:51:17.000Z</time></trkpt><trkpt lat="39.97752" lon="-8.44031"><time>2022-02-26T04:51:27.000Z</time></trkpt><trkpt lat="39.97754" lon="-8.44037"><ele>349</ele><time>2022-02-26T04:51:37.000Z</time></trkpt><trkpt lat="39.97755" lon="-8.44045"><time>2022-02-26T04:51:47.000Z</time></trkpt><trkpt lat="39.97756" lon="-8.44052"><time>2022-02-26T04:51:57.000Z</time></trkpt><trkpt lat="39.97757" lon="-8.44058"><time>2022-02-26T04:52:07.000Z</time></trkpt><trkpt lat="39.97759" lon="-8.44064"><ele>349</ele><time>2022-02-26T04:52:17.000Z</time></trkpt><trkpt lat="39.97762" lon="-8.4407"><time>2022-02-26T04:52:27.000Z</time></trkpt><trkpt lat="39.97765" lon="-8.44074"><time>2022-02-26T04:52:37.000Z</time></trkpt><trkpt lat="39.97774" lon="-8.44081"><time>2022-02-26T04:52:47.000Z</time></trkpt><trkpt lat="39.97781" lon="-8.4409"><ele>344</ele><time>2022-02-26T04:51:31.000Z</time></trkpt><trkpt lat="39.97789" lon="-8.44108"><time>2022-02-26T04:51:41.000Z</time></trkpt><trkpt lat="39.9779" lon="-8.44115"><ele>340</ele><time>2022-02-26T04:51:51.000Z</time></trkpt><trkpt lat="39.97791" lon="-8.44129"><time>2022-02-26T04:52:01.000Z</time></trkpt><trkpt lat="39.9779" lon="-8.44136"><time>2022-02-26T04:52:11.000Z</time></trkpt><trkpt lat="39.97789" lon="-8.44157"><ele>338</ele><time>2022-02-26T04:51:59.000Z</time></trkpt><trkpt lat="39.97788" lon="-8.44163"><time>2022-02-26T04:52:09.000Z</time></trkpt><trkpt lat="39.97784" lon="-8.44175"><time>2022-02-26T04:52:19.000Z</time></trkpt><trkpt lat="39.97782" lon="-8.44181"><time>2022-02-26T04:52:29.000Z</time></trkpt><trkpt lat="39.97779" lon="-8.44186"><ele>337</ele><time>2022-02-26T04:52:11.000Z</time></trkpt><trkpt lat="39.97772" lon="-8.4419"><time>2022-02-26T04:52:21.000Z</time></trkpt><trkpt lat="39.97764" lon="-8.44199"><time>2022-02-26T04:52:31.000Z</time></trkpt><trkpt lat="39.97761" lon="-8.44204"><ele>337</ele><time>2022-02-26T04:52:21.000Z</time></trkpt><trkpt lat="39.9776" lon="-8.44212"><time>2022-02-26T04:52:31.000Z</time></trkpt><trkpt lat="39.9776" lon="-8.44219"><time>2022-02-26T04:52:41.000Z</time></trkpt><trkpt lat="39.97759" lon="-8.44234"><ele>333</ele><time>2022-02-26T04:52:32.000Z</time></trkpt><trkpt lat="39.97763" lon="-8.4424"><time>2022-02-26T04:52:42.000Z</time></trkpt><trkpt lat="39.97763" lon="-8.44246"><time>2022-02-26T04:52:52.000Z</time></trkpt><trkpt lat="39.97763" lon="-8.44252"><time>2022-02-26T04:53:02.000Z</time></trkpt><trkpt lat="39.97767" lon="-8.44258"><ele>333</ele><time>2022-02-26T04:52:44.000Z</time></trkpt><trkpt lat="39.97768" lon="-8.44265"><time>2022-02-26T04:52:54.000Z</time></trkpt><trkpt lat="39.97767" lon="-8.44272"><time>2022-02-26T04:53:04.000Z</time></trkpt><trkpt lat="39.97773" lon="-8.44284"><ele>321</ele><time>2022-02-26T04:52:57.000Z</time></trkpt><trkpt lat="39.97775" lon="-8.44291"><time>2022-02-26T04:53:07.000Z</time></trkpt><trkpt lat="39.97779" lon="-8.44296"><time>2022-02-26T04:53:17.000Z</time></trkpt><trkpt lat="39.97784" lon="-8.44298"><time>2022-02-26T04:53:27.000Z</time></trkpt><trkpt lat="39.97789" lon="-8.44295"><ele>312</ele><time>2022-02-26T04:53:07.000Z</time></trkpt><trkpt lat="39.97815" lon="-8.44275"><ele>311</ele><time>2022-02-26T04:53:17.000Z</time></trkpt><trkpt lat="39.9782" lon="-8.44274"><time>2022-02-26T04:53:27.000Z</time></trkpt><trkpt lat="39.97836" lon="-8.44264"><ele>308</ele><time>2022-02-26T04:53:37.000Z</time></trkpt><trkpt lat="39.97852" lon="-8.44257"><time>2022-02-26T04:53:47.000Z</time></trkpt><trkpt lat="39.97863" lon="-8.44255"><ele>308</ele><time>2022-02-26T04:53:57.000Z</time></trkpt><trkpt lat="39.97873" lon="-8.44256"><time>2022-02-26T04:54:07.000Z</time></trkpt><trkpt lat="39.97879" lon="-8.44254"><time>2022-02-26T04:54:17.000Z</time></trkpt><trkpt lat="39.97903" lon="-8.44255"><ele>301</ele><time>2022-02-26T04:54:07.000Z</time></trkpt><trkpt lat="39.97918" lon="-8.44262"><time>2022-02-26T04:54:17.000Z</time></trkpt><trkpt lat="39.9793" lon="-8.44262"><ele>293</ele><time>2022-02-26T04:54:21.000Z</time></trkpt><trkpt lat="39.9795" lon="-8.44259"><ele>293</ele><time>2022-02-26T04:54:31.000Z</time></trkpt><trkpt lat="39.97961" lon="-8.44259"><time>2022-02-26T04:54:41.000Z</time></trkpt><trkpt lat="39.97977" lon="-8.44258"><ele>292</ele><time>2022-02-26T04:54:51.000Z</time></trkpt><trkpt lat="39.97987" lon="-8.44257"><time>2022-02-26T04:55:01.000Z</time></trkpt><trkpt lat="39.98007" lon="-8.44252"><ele>288</ele><time>2022-02-26T04:55:11.000Z</time></trkpt><trkpt lat="39.98018" lon="-8.4425"><time>2022-02-26T04:55:21.000Z</time></trkpt><trkpt lat="39.98033" lon="-8.44251"><ele>285</ele><time>2022-02-26T04:55:31.000Z</time></trkpt><trkpt lat="39.98049" lon="-8.44254"><time>2022-02-26T04:55:41.000Z</time></trkpt><trkpt lat="39.98061" lon="-8.44254"><ele>283</ele><time>2022-02-26T04:55:51.000Z</time></trkpt><trkpt lat="39.98071" lon="-8.4425"><time>2022-02-26T04:56:01.000Z</time></trkpt><trkpt lat="39.9808" lon="-8.44245"><ele>281</ele><time>2022-02-26T04:56:11.000Z</time></trkpt><trkpt lat="39.98087" lon="-8.44233"><time>2022-02-26T04:56:21.000Z</time></trkpt><trkpt lat="39.98091" lon="-8.44228"><time>2022-02-26T04:56:31.000Z</time></trkpt><trkpt lat="39.981" lon="-8.4422"><ele>277</ele><time>2022-02-26T04:56:41.000Z</time></trkpt><trkpt lat="39.98105" lon="-8.44217"><time>2022-02-26T04:56:51.000Z</time></trkpt><trkpt lat="39.98115" lon="-8.44212"><time>2022-02-26T04:57:01.000Z</time></trkpt><trkpt lat="39.98147" lon="-8.44206"><ele>269</ele><time>2022-02-26T04:57:11.000Z</time></trkpt><trkpt lat="39.98152" lon="-8.44206"><time>2022-02-26T04:57:21.000Z</time></trkpt><trkpt lat="39.98167" lon="-8.44209"><time>2022-02-26T04:57:31.000Z</time></trkpt><trkpt lat="39.98171" lon="-8.44211"><ele>269</ele><time>2022-02-26T04:57:41.000Z</time></trkpt><trkpt lat="39.98175" lon="-8.44215"><time>2022-02-26T04:57:51.000Z</time></trkpt><trkpt lat="39.9818" lon="-8.44228"><time>2022-02-26T04:58:01.000Z</time></trkpt><trkpt lat="39.98182" lon="-8.44234"><ele>268</ele><time>2022-02-26T04:58:11.000Z</time></trkpt><trkpt lat="39.98183" lon="-8.44241"><time>2022-02-26T04:58:21.000Z</time></trkpt><trkpt lat="39.98184" lon="-8.44248"><time>2022-02-26T04:58:31.000Z</time></trkpt><trkpt lat="39.98188" lon="-8.4426"><time>2022-02-26T04:58:41.000Z</time></trkpt><trkpt lat="39.98191" lon="-8.44264"><ele>268</ele><time>2022-02-26T04:58:51.000Z</time></trkpt><trkpt lat="39.98196" lon="-8.44269"><time>2022-02-26T04:59:01.000Z</time></trkpt><trkpt lat="39.98206" lon="-8.44275"><time>2022-02-26T04:59:11.000Z</time></trkpt><trkpt lat="39.98216" lon="-8.44279"><ele>268</ele><time>2022-02-26T04:59:21.000Z</time></trkpt><trkpt lat="39.98223" lon="-8.4428"><time>2022-02-26T04:59:31.000Z</time></trkpt><trkpt lat="39.98236" lon="-8.44276"><time>2022-02-26T04:59:41.000Z</time></trkpt><trkpt lat="39.98259" lon="-8.44259"><ele>268</ele><time>2022-02-26T04:57:13.000Z</time></trkpt><trkpt lat="39.9828" lon="-8.44246"><ele>266</ele><time>2022-02-26T04:57:23.000Z</time></trkpt><trkpt lat="39.98293" lon="-8.44237"><time>2022-02-26T04:57:33.000Z</time></trkpt><trkpt lat="39.98299" lon="-8.44234"><ele>266</ele><time>2022-02-26T04:57:43.000Z</time></trkpt><trkpt lat="39.98311" lon="-8.44231"><time>2022-02-26T04:57:53.000Z</time></trkpt><trkpt lat="39.98328" lon="-8.4423"><ele>258</ele><time>2022-02-26T04:58:03.000Z</time></trkpt><trkpt lat="39.98334" lon="-8.44226"><time>2022-02-26T04:58:13.000Z</time></trkpt><trkpt lat="39.98346" lon="-8.44215"><ele>255</ele><time>2022-02-26T04:58:23.000Z</time></trkpt><trkpt lat="39.98352" lon="-8.44212"><time>2022-02-26T04:58:33.000Z</time></trkpt><trkpt lat="39.98358" lon="-8.44211"><time>2022-02-26T04:58:43.000Z</time></trkpt><trkpt lat="39.98365" lon="-8.44211"><time>2022-02-26T04:58:53.000Z</time></trkpt><trkpt lat="39.98387" lon="-8.44216"><ele>249</ele><time>2022-02-26T04:58:12.000Z</time></trkpt><trkpt lat="39.98407" lon="-8.44224"><ele>249</ele><time>2022-02-26T04:58:21.000Z</time></trkpt><trkpt lat="39.98416" lon="-8.44229"><time>2022-02-26T04:58:31.000Z</time></trkpt><trkpt lat="39.98421" lon="-8.44234"><time>2022-02-26T04:58:41.000Z</time></trkpt><trkpt lat="39.98425" lon="-8.4424"><ele>249</ele><time>2022-02-26T04:58:31.000Z</time></trkpt><trkpt lat="39.98428" lon="-8.44246"><time>2022-02-26T04:58:41.000Z</time></trkpt><trkpt lat="39.9843" lon="-8.44257"><time>2022-02-26T04:58:51.000Z</time></trkpt><trkpt lat="39.98433" lon="-8.44265"><ele>249</ele><time>2022-02-26T04:58:41.000Z</time></trkpt><trkpt lat="39.98443" lon="-8.44286"><time>2022-02-26T04:58:51.000Z</time></trkpt><trkpt lat="39.98443" lon="-8.44294"><ele>246</ele><time>2022-02-26T04:59:01.000Z</time></trkpt><trkpt lat="39.98443" lon="-8.44309"><time>2022-02-26T04:59:11.000Z</time></trkpt><trkpt lat="39.98445" lon="-8.44335"><ele>246</ele><time>2022-02-26T04:59:21.000Z</time></trkpt><trkpt lat="39.98448" lon="-8.44342"><time>2022-02-26T04:59:31.000Z</time></trkpt><trkpt lat="39.98451" lon="-8.44349"><time>2022-02-26T04:59:41.000Z</time></trkpt><trkpt lat="39.98455" lon="-8.44355"><time>2022-02-26T04:59:51.000Z</time></trkpt><trkpt lat="39.9846" lon="-8.44369"><ele>243</ele><time>2022-02-26T04:59:23.000Z</time></trkpt><trkpt lat="39.98468" lon="-8.44381"><time>2022-02-26T04:59:33.000Z</time></trkpt><trkpt lat="39.98482" lon="-8.44394"><ele>241</ele><time>2022-02-26T04:59:38.000Z</time></trkpt><trkpt lat="39.98486" lon="-8.444"><time>2022-02-26T04:59:48.000Z</time></trkpt><trkpt lat="39.98497" lon="-8.4441"><time>2022-02-26T04:59:58.000Z</time></trkpt><trkpt lat="39.98501" lon="-8.44415"><ele>240</ele><time>2022-02-26T04:59:50.000Z</time></trkpt><trkpt lat="39.98507" lon="-8.44437"><time>2022-02-26T05:00:00.000Z</time></trkpt><trkpt lat="39.98509" lon="-8.44451"><ele>232</ele><time>2022-02-26T05:00:05.000Z</time></trkpt><trkpt lat="39.98514" lon="-8.44463"><time>2022-02-26T05:00:15.000Z</time></trkpt><trkpt lat="39.98521" lon="-8.44483"><ele>231</ele><time>2022-02-26T05:00:21.000Z</time></trkpt><trkpt lat="39.98527" lon="-8.44501"><time>2022-02-26T05:00:31.000Z</time></trkpt><trkpt lat="39.9853" lon="-8.44507"><time>2022-02-26T05:00:41.000Z</time></trkpt><trkpt lat="39.98534" lon="-8.4452"><ele>228</ele><time>2022-02-26T05:00:39.000Z</time></trkpt><trkpt lat="39.9854" lon="-8.44532"><time>2022-02-26T05:00:49.000Z</time></trkpt><trkpt lat="39.98541" lon="-8.4454"><time>2022-02-26T05:00:59.000Z</time></trkpt><trkpt lat="39.98545" lon="-8.44547"><ele>224</ele><time>2022-02-26T05:01:09.000Z</time></trkpt><trkpt lat="39.98547" lon="-8.44553"><time>2022-02-26T05:01:19.000Z</time></trkpt><trkpt lat="39.98551" lon="-8.44568"><time>2022-02-26T05:01:29.000Z</time></trkpt><trkpt lat="39.98552" lon="-8.44575"><ele>221</ele><time>2022-02-26T05:01:39.000Z</time></trkpt><trkpt lat="39.98552" lon="-8.44583"><time>2022-02-26T05:01:49.000Z</time></trkpt><trkpt lat="39.98551" lon="-8.44613"><ele>219</ele><time>2022-02-26T05:01:18.000Z</time></trkpt><trkpt lat="39.98552" lon="-8.44621"><time>2022-02-26T05:01:28.000Z</time></trkpt><trkpt lat="39.98556" lon="-8.44626"><time>2022-02-26T05:01:38.000Z</time></trkpt><trkpt lat="39.98569" lon="-8.44631"><ele>219</ele><time>2022-02-26T05:01:30.000Z</time></trkpt><trkpt lat="39.98598" lon="-8.44634"><ele>220</ele><time>2022-02-26T05:01:40.000Z</time></trkpt><trkpt lat="39.98602" lon="-8.44637"><time>2022-02-26T05:01:50.000Z</time></trkpt><trkpt lat="39.98604" lon="-8.44644"><time>2022-02-26T05:02:00.000Z</time></trkpt><trkpt lat="39.98601" lon="-8.44667"><ele>220</ele><time>2022-02-26T05:02:00.000Z</time></trkpt><trkpt lat="39.98599" lon="-8.44682"><time>2022-02-26T05:02:10.000Z</time></trkpt><trkpt lat="39.98595" lon="-8.44696"><ele>221</ele><time>2022-02-26T05:02:12.000Z</time></trkpt><trkpt lat="39.98593" lon="-8.44718"><time>2022-02-26T05:02:22.000Z</time></trkpt><trkpt lat="39.98591" lon="-8.44725"><ele>221</ele><time>2022-02-26T05:02:32.000Z</time></trkpt><trkpt lat="39.98588" lon="-8.44731"><time>2022-02-26T05:02:42.000Z</time></trkpt><trkpt lat="39.98583" lon="-8.44736"><time>2022-02-26T05:02:52.000Z</time></trkpt><trkpt lat="39.98562" lon="-8.44751"><ele>221</ele><time>2022-02-26T05:03:02.000Z</time></trkpt><trkpt lat="39.98554" lon="-8.44759"><time>2022-02-26T05:03:12.000Z</time></trkpt><trkpt lat="39.9855" lon="-8.44762"><time>2022-02-26T05:03:22.000Z</time></trkpt><trkpt lat="39.98546" lon="-8.44766"><time>2022-02-26T05:03:32.000Z</time></trkpt><trkpt lat="39.98537" lon="-8.44772"><ele>219</ele><time>2022-02-26T05:03:42.000Z</time></trkpt><trkpt lat="39.98534" lon="-8.44776"><time>2022-02-26T05:03:52.000Z</time></trkpt><trkpt lat="39.98498" lon="-8.44789"><ele>219</ele><time>2022-02-26T05:04:02.000Z</time></trkpt><trkpt lat="39.98493" lon="-8.44792"><time>2022-02-26T05:04:12.000Z</time></trkpt><trkpt lat="39.98491" lon="-8.44798"><time>2022-02-26T05:04:22.000Z</time></trkpt><trkpt lat="39.98491" lon="-8.44804"><time>2022-02-26T05:04:32.000Z</time></trkpt><trkpt lat="39.98495" lon="-8.44817"><ele>225</ele><time>2022-02-26T05:04:42.000Z</time></trkpt><trkpt lat="39.98494" lon="-8.44824"><time>2022-02-26T05:04:52.000Z</time></trkpt><trkpt lat="39.98493" lon="-8.44831"><time>2022-02-26T05:05:02.000Z</time></trkpt><trkpt lat="39.98478" lon="-8.4486"><ele>232</ele><time>2022-02-26T05:04:05.000Z</time></trkpt><trkpt lat="39.98475" lon="-8.44864"><time>2022-02-26T05:04:15.000Z</time></trkpt><trkpt lat="39.98471" lon="-8.44868"><time>2022-02-26T05:04:25.000Z</time></trkpt><trkpt lat="39.98458" lon="-8.44878"><ele>239</ele><time>2022-02-26T05:04:21.000Z</time></trkpt><trkpt lat="39.9844" lon="-8.44888"><time>2022-02-26T05:04:31.000Z</time></trkpt><trkpt lat="39.98435" lon="-8.4489"><ele>239</ele><time>2022-02-26T05:04:36.000Z</time></trkpt><trkpt lat="39.98408" lon="-8.44897"><ele>239</ele><time>2022-02-26T05:04:56.000Z</time></trkpt><trkpt lat="39.98403" lon="-8.44899"><time>2022-02-26T05:05:06.000Z</time></trkpt><trkpt lat="39.98398" lon="-8.44902"><time>2022-02-26T05:05:16.000Z</time></trkpt><trkpt lat="39.98395" lon="-8.44906"><time>2022-02-26T05:05:26.000Z</time></trkpt><trkpt lat="39.98393" lon="-8.44911"><time>2022-02-26T05:05:36.000Z</time></trkpt><trkpt lat="39.98391" lon="-8.44918"><ele>240</ele><time>2022-02-26T05:05:16.000Z</time></trkpt><trkpt lat="39.98386" lon="-8.4495"><ele>245</ele><time>2022-02-26T05:05:26.000Z</time></trkpt><trkpt lat="39.98385" lon="-8.44958"><time>2022-02-26T05:05:36.000Z</time></trkpt><trkpt lat="39.98386" lon="-8.44998"><ele>248</ele><time>2022-02-26T05:05:57.000Z</time></trkpt><trkpt lat="39.98388" lon="-8.45047"><ele>247</ele><time>2022-02-26T05:06:21.000Z</time></trkpt><trkpt lat="39.98386" lon="-8.45059"><time>2022-02-26T05:06:31.000Z</time></trkpt><trkpt lat="39.98384" lon="-8.45072"><time>2022-02-26T05:06:41.000Z</time></trkpt><trkpt lat="39.98381" lon="-8.45077"><ele>247</ele><time>2022-02-26T05:06:51.000Z</time></trkpt><trkpt lat="39.98377" lon="-8.4508"><time>2022-02-26T05:07:01.000Z</time></trkpt><trkpt lat="39.98343" lon="-8.45099"><ele>246</ele><time>2022-02-26T05:07:11.000Z</time></trkpt><trkpt lat="39.9833" lon="-8.45111"><time>2022-02-26T05:07:21.000Z</time></trkpt><trkpt lat="39.98314" lon="-8.45129"><ele>246</ele><time>2022-02-26T05:07:06.000Z</time></trkpt><trkpt lat="39.9831" lon="-8.45133"><time>2022-02-26T05:07:16.000Z</time></trkpt><trkpt lat="39.98299" lon="-8.45144"><time>2022-02-26T05:07:26.000Z</time></trkpt><trkpt lat="39.98294" lon="-8.45147"><ele>241</ele><time>2022-02-26T05:07:16.000Z</time></trkpt><trkpt lat="39.98276" lon="-8.45166"><ele>241</ele><time>2022-02-26T05:07:26.000Z</time></trkpt><trkpt lat="39.98267" lon="-8.45178"><time>2022-02-26T05:07:36.000Z</time></trkpt><trkpt lat="39.98257" lon="-8.45203"><ele>235</ele><time>2022-02-26T05:07:46.000Z</time></trkpt><trkpt lat="39.9825" lon="-8.45219"><time>2022-02-26T05:07:56.000Z</time></trkpt><trkpt lat="39.98247" lon="-8.45223"><time>2022-02-26T05:08:06.000Z</time></trkpt><trkpt lat="39.98242" lon="-8.45228"><ele>235</ele><time>2022-02-26T05:08:16.000Z</time></trkpt><trkpt lat="39.98231" lon="-8.45238"><time>2022-02-26T05:08:26.000Z</time></trkpt><trkpt lat="39.98227" lon="-8.45244"><time>2022-02-26T05:08:36.000Z</time></trkpt><trkpt lat="39.98224" lon="-8.45258"><ele>235</ele><time>2022-02-26T05:08:46.000Z</time></trkpt><trkpt lat="39.98222" lon="-8.45266"><time>2022-02-26T05:08:56.000Z</time></trkpt><trkpt lat="39.9822" lon="-8.45272"><time>2022-02-26T05:09:06.000Z</time></trkpt><trkpt lat="39.98218" lon="-8.45278"><time>2022-02-26T05:09:16.000Z</time></trkpt><trkpt lat="39.98213" lon="-8.45281"><ele>235</ele><time>2022-02-26T05:09:26.000Z</time></trkpt><trkpt lat="39.98209" lon="-8.45285"><time>2022-02-26T05:09:36.000Z</time></trkpt><trkpt lat="39.98205" lon="-8.45288"><time>2022-02-26T05:09:46.000Z</time></trkpt><trkpt lat="39.98196" lon="-8.45295"><time>2022-02-26T05:09:56.000Z</time></trkpt><trkpt lat="39.9818" lon="-8.45299"><ele>258</ele><time>2022-02-26T05:08:47.000Z</time></trkpt><trkpt lat="39.98166" lon="-8.453"><time>2022-02-26T05:08:57.000Z</time></trkpt><trkpt lat="39.98164" lon="-8.45306"><time>2022-02-26T05:09:07.000Z</time></trkpt><trkpt lat="39.98166" lon="-8.4532"><ele>266</ele><time>2022-02-26T05:09:17.000Z</time></trkpt><trkpt lat="39.98176" lon="-8.45345"><ele>266</ele><time>2022-02-26T05:09:27.000Z</time></trkpt><trkpt lat="39.98179" lon="-8.45351"><time>2022-02-26T05:09:37.000Z</time></trkpt><trkpt lat="39.98186" lon="-8.45362"><time>2022-02-26T05:09:47.000Z</time></trkpt><trkpt lat="39.98201" lon="-8.45379"><ele>267</ele><time>2022-02-26T05:10:01.000Z</time></trkpt><trkpt lat="39.98206" lon="-8.4539"><time>2022-02-26T05:10:11.000Z</time></trkpt><trkpt lat="39.98218" lon="-8.45411"><ele>268</ele><time>2022-02-26T05:10:25.000Z</time></trkpt><trkpt lat="39.98222" lon="-8.45423"><time>2022-02-26T05:10:35.000Z</time></trkpt><trkpt lat="39.98226" lon="-8.45435"><time>2022-02-26T05:10:45.000Z</time></trkpt><trkpt lat="39.98229" lon="-8.4544"><ele>272</ele><time>2022-02-26T05:10:48.000Z</time></trkpt><trkpt lat="39.98233" lon="-8.45451"><time>2022-02-26T05:10:58.000Z</time></trkpt><trkpt lat="39.98232" lon="-8.45465"><time>2022-02-26T05:11:08.000Z</time></trkpt><trkpt lat="39.9823" lon="-8.45471"><ele>279</ele><time>2022-02-26T05:11:13.000Z</time></trkpt><trkpt lat="39.98221" lon="-8.45488"><time>2022-02-26T05:11:23.000Z</time></trkpt><trkpt lat="39.98219" lon="-8.45494"><ele>279</ele><time>2022-02-26T05:11:31.000Z</time></trkpt><trkpt lat="39.98215" lon="-8.45508"><time>2022-02-26T05:11:41.000Z</time></trkpt><trkpt lat="39.98214" lon="-8.45519"><time>2022-02-26T05:11:51.000Z</time></trkpt><trkpt lat="39.98209" lon="-8.4552"><ele>280</ele><time>2022-02-26T05:12:01.000Z</time></trkpt><trkpt lat="39.98205" lon="-8.45518"><time>2022-02-26T05:12:11.000Z</time></trkpt><trkpt lat="39.98191" lon="-8.4549"><ele>281</ele><time>2022-02-26T05:12:21.000Z</time></trkpt><trkpt lat="39.98189" lon="-8.45476"><time>2022-02-26T05:12:31.000Z</time></trkpt><trkpt lat="39.98186" lon="-8.4547"><time>2022-02-26T05:12:41.000Z</time></trkpt><trkpt lat="39.98182" lon="-8.45464"><ele>284</ele><time>2022-02-26T05:12:51.000Z</time></trkpt><trkpt lat="39.98176" lon="-8.45461"><time>2022-02-26T05:13:01.000Z</time></trkpt><trkpt lat="39.98167" lon="-8.45457"><time>2022-02-26T05:13:11.000Z</time></trkpt><trkpt lat="39.98161" lon="-8.45456"><ele>284</ele><time>2022-02-26T05:13:21.000Z</time></trkpt><trkpt lat="39.98151" lon="-8.45457"><time>2022-02-26T05:13:31.000Z</time></trkpt><trkpt lat="39.98145" lon="-8.45457"><time>2022-02-26T05:13:41.000Z</time></trkpt><trkpt lat="39.98136" lon="-8.45453"><ele>284</ele><time>2022-02-26T05:13:51.000Z</time></trkpt><trkpt lat="39.98121" lon="-8.45452"><time>2022-02-26T05:14:01.000Z</time></trkpt><trkpt lat="39.98082" lon="-8.45472"><ele>286</ele><time>2022-02-26T05:13:51.000Z</time></trkpt><trkpt lat="39.98072" lon="-8.45478"><time>2022-02-26T05:14:01.000Z</time></trkpt><trkpt lat="39.98068" lon="-8.45482"><time>2022-02-26T05:14:11.000Z</time></trkpt><trkpt lat="39.98064" lon="-8.45488"><ele>288</ele><time>2022-02-26T05:14:21.000Z</time></trkpt><trkpt lat="39.98063" lon="-8.45494"><time>2022-02-26T05:14:31.000Z</time></trkpt><trkpt lat="39.98064" lon="-8.45515"><ele>287</ele><time>2022-02-26T05:14:41.000Z</time></trkpt><trkpt lat="39.98063" lon="-8.45531"><time>2022-02-26T05:14:51.000Z</time></trkpt><trkpt lat="39.98062" lon="-8.45538"><time>2022-02-26T05:15:01.000Z</time></trkpt><trkpt lat="39.98059" lon="-8.45543"><ele>286</ele><time>2022-02-26T05:15:11.000Z</time></trkpt><trkpt lat="39.98053" lon="-8.45548"><time>2022-02-26T05:15:21.000Z</time></trkpt><trkpt lat="39.98045" lon="-8.45555"><time>2022-02-26T05:15:31.000Z</time></trkpt><trkpt lat="39.98031" lon="-8.45563"><ele>286</ele><time>2022-02-26T05:15:41.000Z</time></trkpt><trkpt lat="39.98023" lon="-8.4557"><time>2022-02-26T05:15:51.000Z</time></trkpt><trkpt lat="39.98017" lon="-8.45574"><time>2022-02-26T05:16:01.000Z</time></trkpt><trkpt lat="39.98002" lon="-8.45588"><ele>286</ele><time>2022-02-26T05:14:52.000Z</time></trkpt><trkpt lat="39.98005" lon="-8.45605"><time>2022-02-26T05:15:02.000Z</time></trkpt><trkpt lat="39.98007" lon="-8.45622"><ele>284</ele><time>2022-02-26T05:15:12.000Z</time></trkpt><trkpt lat="39.98002" lon="-8.45625"><time>2022-02-26T05:15:22.000Z</time></trkpt><trkpt lat="39.98" lon="-8.45623"><time>2022-02-26T05:15:32.000Z</time></trkpt><trkpt lat="39.97999" lon="-8.45627"><time>2022-02-26T05:15:42.000Z</time></trkpt><trkpt lat="39.97994" lon="-8.45633"><time>2022-02-26T05:15:52.000Z</time></trkpt><trkpt lat="39.97989" lon="-8.45636"><ele>283</ele><time>2022-02-26T05:16:02.000Z</time></trkpt><trkpt lat="39.97982" lon="-8.45639"><time>2022-02-26T05:16:12.000Z</time></trkpt><trkpt lat="39.9798" lon="-8.45645"><time>2022-02-26T05:16:22.000Z</time></trkpt><trkpt lat="39.97978" lon="-8.4565"><time>2022-02-26T05:16:32.000Z</time></trkpt><trkpt lat="39.97973" lon="-8.45652"><ele>283</ele><time>2022-02-26T05:16:42.000Z</time></trkpt><trkpt lat="39.97963" lon="-8.45651"><time>2022-02-26T05:16:52.000Z</time></trkpt><trkpt lat="39.97957" lon="-8.45648"><time>2022-02-26T05:17:02.000Z</time></trkpt><trkpt lat="39.9795" lon="-8.45637"><ele>284</ele><time>2022-02-26T05:17:12.000Z</time></trkpt><trkpt lat="39.97938" lon="-8.45627"><time>2022-02-26T05:17:22.000Z</time></trkpt><trkpt lat="39.97932" lon="-8.4563"><ele>287</ele><time>2022-02-26T05:17:32.000Z</time></trkpt><trkpt lat="39.97919" lon="-8.45639"><time>2022-02-26T05:17:42.000Z</time></trkpt><trkpt lat="39.97914" lon="-8.45637"><time>2022-02-26T05:17:52.000Z</time></trkpt><trkpt lat="39.9791" lon="-8.45633"><ele>287</ele><time>2022-02-26T05:18:02.000Z</time></trkpt><trkpt lat="39.97892" lon="-8.45608"><ele>288</ele><time>2022-02-26T05:15:49.000Z</time></trkpt><trkpt lat="39.97879" lon="-8.45588"><time>2022-02-26T05:15:59.000Z</time></trkpt><trkpt lat="39.97876" lon="-8.4558"><ele>289</ele><time>2022-02-26T05:16:01.000Z</time></trkpt><trkpt lat="39.97874" lon="-8.45573"><time>2022-02-26T05:16:11.000Z</time></trkpt><trkpt lat="39.97868" lon="-8.45571"><time>2022-02-26T05:16:21.000Z</time></trkpt><trkpt lat="39.97862" lon="-8.45571"><time>2022-02-26T05:16:31.000Z</time></trkpt><trkpt lat="39.97858" lon="-8.45575"><ele>289</ele><time>2022-02-26T05:16:13.000Z</time></trkpt><trkpt lat="39.97849" lon="-8.45582"><time>2022-02-26T05:16:23.000Z</time></trkpt><trkpt lat="39.97844" lon="-8.45579"><time>2022-02-26T05:16:33.000Z</time></trkpt><trkpt lat="39.9784" lon="-8.45571"><ele>291</ele><time>2022-02-26T05:16:26.000Z</time></trkpt><trkpt lat="39.97834" lon="-8.45552"><time>2022-02-26T05:16:36.000Z</time></trkpt><trkpt lat="39.97831" lon="-8.45546"><ele>292</ele><time>2022-02-26T05:16:46.000Z</time></trkpt><trkpt lat="39.97827" lon="-8.4554"><time>2022-02-26T05:16:56.000Z</time></trkpt><trkpt lat="39.97822" lon="-8.45536"><time>2022-02-26T05:17:06.000Z</time></trkpt><trkpt lat="39.97817" lon="-8.45537"><time>2022-02-26T05:17:16.000Z</time></trkpt><trkpt lat="39.97809" lon="-8.45545"><ele>293</ele><time>2022-02-26T05:16:52.000Z</time></trkpt><trkpt lat="39.97804" lon="-8.45556"><time>2022-02-26T05:17:02.000Z</time></trkpt><trkpt lat="39.97795" lon="-8.45566"><ele>293</ele><time>2022-02-26T05:17:09.000Z</time></trkpt><trkpt lat="39.97776" lon="-8.45578"><ele>293</ele><time>2022-02-26T05:17:19.000Z</time></trkpt><trkpt lat="39.97771" lon="-8.4558"><time>2022-02-26T05:17:29.000Z</time></trkpt><trkpt lat="39.97761" lon="-8.45586"><time>2022-02-26T05:17:39.000Z</time></trkpt><trkpt lat="39.97746" lon="-8.45592"><ele>291</ele><time>2022-02-26T05:17:41.000Z</time></trkpt><trkpt lat="39.97712" lon="-8.45612"><ele>290</ele><time>2022-02-26T05:17:51.000Z</time></trkpt><trkpt lat="39.97708" lon="-8.45615"><time>2022-02-26T05:18:01.000Z</time></trkpt><trkpt lat="39.97704" lon="-8.4562"><time>2022-02-26T05:18:11.000Z</time></trkpt><trkpt lat="39.97692" lon="-8.45634"><ele>290</ele><time>2022-02-26T05:18:08.000Z</time></trkpt><trkpt lat="39.97677" lon="-8.4565"><time>2022-02-26T05:18:18.000Z</time></trkpt><trkpt lat="39.97673" lon="-8.45656"><ele>291</ele><time>2022-02-26T05:18:20.000Z</time></trkpt><trkpt lat="39.97658" lon="-8.45677"><ele>290</ele><time>2022-02-26T05:18:32.000Z</time></trkpt><trkpt lat="39.97642" lon="-8.45705"><ele>289</ele><time>2022-02-26T05:18:47.000Z</time></trkpt><trkpt lat="39.97634" lon="-8.45717"><time>2022-02-26T05:18:57.000Z</time></trkpt><trkpt lat="39.97629" lon="-8.45721"><time>2022-02-26T05:19:07.000Z</time></trkpt><trkpt lat="39.97617" lon="-8.45726"><ele>288</ele><time>2022-02-26T05:19:02.000Z</time></trkpt><trkpt lat="39.97611" lon="-8.45727"><time>2022-02-26T05:19:12.000Z</time></trkpt><trkpt lat="39.97605" lon="-8.45725"><time>2022-02-26T05:19:22.000Z</time></trkpt><trkpt lat="39.97594" lon="-8.45719"><ele>285</ele><time>2022-02-26T05:19:14.000Z</time></trkpt><trkpt lat="39.97588" lon="-8.45715"><time>2022-02-26T05:19:24.000Z</time></trkpt><trkpt lat="39.97576" lon="-8.45705"><ele>285</ele><time>2022-02-26T05:19:23.000Z</time></trkpt><trkpt lat="39.97556" lon="-8.45691"><ele>285</ele><time>2022-02-26T05:19:33.000Z</time></trkpt><trkpt lat="39.9755" lon="-8.45685"><time>2022-02-26T05:19:43.000Z</time></trkpt><trkpt lat="39.97546" lon="-8.45682"><time>2022-02-26T05:19:53.000Z</time></trkpt><trkpt lat="39.97536" lon="-8.45677"><ele>285</ele><time>2022-02-26T05:20:03.000Z</time></trkpt><trkpt lat="39.97532" lon="-8.45674"><time>2022-02-26T05:20:13.000Z</time></trkpt><trkpt lat="39.97526" lon="-8.45672"><time>2022-02-26T05:20:23.000Z</time></trkpt><trkpt lat="39.9752" lon="-8.45673"><time>2022-02-26T05:20:33.000Z</time></trkpt><trkpt lat="39.97509" lon="-8.45677"><ele>282</ele><time>2022-02-26T05:20:43.000Z</time></trkpt><trkpt lat="39.97503" lon="-8.45678"><time>2022-02-26T05:20:53.000Z</time></trkpt><trkpt lat="39.97491" lon="-8.45674"><time>2022-02-26T05:21:03.000Z</time></trkpt><trkpt lat="39.97486" lon="-8.45674"><ele>282</ele><time>2022-02-26T05:21:13.000Z</time></trkpt><trkpt lat="39.97481" lon="-8.45676"><time>2022-02-26T05:21:23.000Z</time></trkpt><trkpt lat="39.97464" lon="-8.4568"><ele>284</ele><time>2022-02-26T05:21:33.000Z</time></trkpt><trkpt lat="39.97449" lon="-8.4568"><time>2022-02-26T05:21:43.000Z</time></trkpt><trkpt lat="39.97427" lon="-8.45682"><ele>289</ele><time>2022-02-26T05:20:32.000Z</time></trkpt><trkpt lat="39.97416" lon="-8.45685"><time>2022-02-26T05:20:42.000Z</time></trkpt><trkpt lat="39.97411" lon="-8.45685"><time>2022-02-26T05:20:52.000Z</time></trkpt><trkpt lat="39.97399" lon="-8.45685"><ele>290</ele><time>2022-02-26T05:20:43.000Z</time></trkpt><trkpt lat="39.97384" lon="-8.45685"><time>2022-02-26T05:20:53.000Z</time></trkpt><trkpt lat="39.97378" lon="-8.45685"><ele>290</ele><time>2022-02-26T05:21:03.000Z</time></trkpt><trkpt lat="39.97373" lon="-8.45683"><time>2022-02-26T05:21:13.000Z</time></trkpt><trkpt lat="39.97368" lon="-8.4568"><time>2022-02-26T05:21:23.000Z</time></trkpt><trkpt lat="39.97364" lon="-8.45676"><time>2022-02-26T05:21:33.000Z</time></trkpt><trkpt lat="39.97353" lon="-8.45671"><ele>290</ele><time>2022-02-26T05:21:11.000Z</time></trkpt><trkpt lat="39.97342" lon="-8.45658"><time>2022-02-26T05:21:21.000Z</time></trkpt><trkpt lat="39.9734" lon="-8.45651"><time>2022-02-26T05:21:31.000Z</time></trkpt><trkpt lat="39.97338" lon="-8.45646"><ele>290</ele><time>2022-02-26T05:21:27.000Z</time></trkpt><trkpt lat="39.97334" lon="-8.45641"><time>2022-02-26T05:21:37.000Z</time></trkpt><trkpt lat="39.9733" lon="-8.45637"><time>2022-02-26T05:21:47.000Z</time></trkpt><trkpt lat="39.97319" lon="-8.45634"><ele>292</ele><time>2022-02-26T05:21:39.000Z</time></trkpt><trkpt lat="39.97297" lon="-8.45632"><ele>293</ele><time>2022-02-26T05:21:49.000Z</time></trkpt><trkpt lat="39.97288" lon="-8.45631"><time>2022-02-26T05:21:59.000Z</time></trkpt><trkpt lat="39.97282" lon="-8.45631"><time>2022-02-26T05:22:09.000Z</time></trkpt><trkpt lat="39.97251" lon="-8.45638"><ele>297</ele><time>2022-02-26T05:22:27.000Z</time></trkpt><trkpt lat="39.97239" lon="-8.45639"><time>2022-02-26T05:22:37.000Z</time></trkpt><trkpt lat="39.97229" lon="-8.45642"><ele>297</ele><time>2022-02-26T05:22:47.000Z</time></trkpt><trkpt lat="39.9722" lon="-8.45643"><time>2022-02-26T05:22:57.000Z</time></trkpt><trkpt lat="39.97203" lon="-8.45651"><ele>295</ele><time>2022-02-26T05:23:07.000Z</time></trkpt><trkpt lat="39.97192" lon="-8.45647"><time>2022-02-26T05:23:17.000Z</time></trkpt><trkpt lat="39.97176" lon="-8.45654"><ele>294</ele><time>2022-02-26T05:23:27.000Z</time></trkpt><trkpt lat="39.9717" lon="-8.45655"><time>2022-02-26T05:23:37.000Z</time></trkpt><trkpt lat="39.97165" lon="-8.45661"><time>2022-02-26T05:23:47.000Z</time></trkpt><trkpt lat="39.9716" lon="-8.45664"><time>2022-02-26T05:23:57.000Z</time></trkpt><trkpt lat="39.97156" lon="-8.45665"><ele>291</ele><time>2022-02-26T05:24:07.000Z</time></trkpt><trkpt lat="39.97151" lon="-8.4567"><time>2022-02-26T05:24:17.000Z</time></trkpt><trkpt lat="39.9714" lon="-8.45672"><time>2022-02-26T05:24:27.000Z</time></trkpt><trkpt lat="39.97128" lon="-8.45669"><ele>289</ele><time>2022-02-26T05:24:37.000Z</time></trkpt><trkpt lat="39.97116" lon="-8.45672"><time>2022-02-26T05:24:47.000Z</time></trkpt><trkpt lat="39.97111" lon="-8.4567"><time>2022-02-26T05:24:57.000Z</time></trkpt><trkpt lat="39.97098" lon="-8.4567"><ele>288</ele><time>2022-02-26T05:25:07.000Z</time></trkpt><trkpt lat="39.97092" lon="-8.45672"><time>2022-02-26T05:25:17.000Z</time></trkpt><trkpt lat="39.97087" lon="-8.45672"><time>2022-02-26T05:25:27.000Z</time></trkpt><trkpt lat="39.97075" lon="-8.45668"><ele>288</ele><time>2022-02-26T05:25:37.000Z</time></trkpt><trkpt lat="39.9707" lon="-8.45666"><time>2022-02-26T05:25:47.000Z</time></trkpt><trkpt lat="39.97055" lon="-8.45663"><ele>285</ele><time>2022-02-26T05:25:57.000Z</time></trkpt><trkpt lat="39.97049" lon="-8.4566"><time>2022-02-26T05:26:07.000Z</time></trkpt><trkpt lat="39.97021" lon="-8.45663"><ele>283</ele><time>2022-02-26T05:24:26.000Z</time></trkpt><trkpt lat="39.97015" lon="-8.45664"><time>2022-02-26T05:24:36.000Z</time></trkpt><trkpt lat="39.97004" lon="-8.45669"><time>2022-02-26T05:24:46.000Z</time></trkpt><trkpt lat="39.96998" lon="-8.45673"><ele>280</ele><time>2022-02-26T05:24:38.000Z</time></trkpt><trkpt lat="39.96986" lon="-8.45678"><time>2022-02-26T05:24:48.000Z</time></trkpt><trkpt lat="39.96975" lon="-8.45681"><ele>278</ele><time>2022-02-26T05:24:50.000Z</time></trkpt><trkpt lat="39.96953" lon="-8.45677"><ele>275</ele><time>2022-02-26T05:25:00.000Z</time></trkpt><trkpt lat="39.96938" lon="-8.45677"><time>2022-02-26T05:25:10.000Z</time></trkpt><trkpt lat="39.96928" lon="-8.45681"><ele>275</ele><time>2022-02-26T05:25:20.000Z</time></trkpt><trkpt lat="39.96919" lon="-8.45686"><time>2022-02-26T05:25:30.000Z</time></trkpt><trkpt lat="39.96914" lon="-8.4569"><time>2022-02-26T05:25:40.000Z</time></trkpt><trkpt lat="39.96898" lon="-8.45707"><ele>275</ele><time>2022-02-26T05:25:50.000Z</time></trkpt><trkpt lat="39.96892" lon="-8.45708"><time>2022-02-26T05:26:00.000Z</time></trkpt><trkpt lat="39.96887" lon="-8.4571"><time>2022-02-26T05:26:10.000Z</time></trkpt><trkpt lat="39.9687" lon="-8.45724"><ele>277</ele><time>2022-02-26T05:26:20.000Z</time></trkpt><trkpt lat="39.96858" lon="-8.4573"><time>2022-02-26T05:26:30.000Z</time></trkpt><trkpt lat="39.96853" lon="-8.45733"><time>2022-02-26T05:26:40.000Z</time></trkpt><trkpt lat="39.96841" lon="-8.45737"><ele>279</ele><time>2022-02-26T05:26:50.000Z</time></trkpt><trkpt lat="39.96833" lon="-8.45743"><time>2022-02-26T05:27:00.000Z</time></trkpt><trkpt lat="39.96813" lon="-8.45755"><ele>282</ele><time>2022-02-26T05:27:10.000Z</time></trkpt><trkpt lat="39.96808" lon="-8.45757"><time>2022-02-26T05:27:20.000Z</time></trkpt><trkpt lat="39.96803" lon="-8.45754"><time>2022-02-26T05:27:30.000Z</time></trkpt><trkpt lat="39.96797" lon="-8.45756"><time>2022-02-26T05:27:40.000Z</time></trkpt><trkpt lat="39.96787" lon="-8.45762"><ele>283</ele><time>2022-02-26T05:27:50.000Z</time></trkpt><trkpt lat="39.96782" lon="-8.45765"><time>2022-02-26T05:28:00.000Z</time></trkpt><trkpt lat="39.96779" lon="-8.4577"><time>2022-02-26T05:28:10.000Z</time></trkpt><trkpt lat="39.96774" lon="-8.45775"><time>2022-02-26T05:28:20.000Z</time></trkpt><trkpt lat="39.96753" lon="-8.45785"><ele>284</ele><time>2022-02-26T05:28:30.000Z</time></trkpt><trkpt lat="39.96744" lon="-8.45788"><time>2022-02-26T05:28:40.000Z</time></trkpt><trkpt lat="39.96741" lon="-8.45793"><time>2022-02-26T05:28:50.000Z</time></trkpt><trkpt lat="39.96725" lon="-8.45804"><ele>287</ele><time>2022-02-26T05:29:00.000Z</time></trkpt><trkpt lat="39.96715" lon="-8.45808"><time>2022-02-26T05:29:10.000Z</time></trkpt><trkpt lat="39.96706" lon="-8.45814"><time>2022-02-26T05:29:20.000Z</time></trkpt><trkpt lat="39.96703" lon="-8.45818"><ele>288</ele><time>2022-02-26T05:29:30.000Z</time></trkpt><trkpt lat="39.96691" lon="-8.45828"><time>2022-02-26T05:29:40.000Z</time></trkpt><trkpt lat="39.96674" lon="-8.45845"><ele>291</ele><time>2022-02-26T05:28:18.000Z</time></trkpt><trkpt lat="39.96669" lon="-8.45848"><time>2022-02-26T05:28:28.000Z</time></trkpt><trkpt lat="39.96665" lon="-8.45852"><time>2022-02-26T05:28:38.000Z</time></trkpt><trkpt lat="39.96652" lon="-8.45861"><ele>295</ele><time>2022-02-26T05:28:34.000Z</time></trkpt><trkpt lat="39.96647" lon="-8.45864"><time>2022-02-26T05:28:44.000Z</time></trkpt><trkpt lat="39.96644" lon="-8.45868"><time>2022-02-26T05:28:54.000Z</time></trkpt><trkpt lat="39.96641" lon="-8.45874"><time>2022-02-26T05:29:04.000Z</time></trkpt><trkpt lat="39.96639" lon="-8.4588"><time>2022-02-26T05:29:14.000Z</time></trkpt><trkpt lat="39.96639" lon="-8.45887"><ele>295</ele><time>2022-02-26T05:28:57.000Z</time></trkpt><trkpt lat="39.96638" lon="-8.45893"><time>2022-02-26T05:29:07.000Z</time></trkpt><trkpt lat="39.96634" lon="-8.45906"><time>2022-02-26T05:29:17.000Z</time></trkpt><trkpt lat="39.96634" lon="-8.45913"><ele>295</ele><time>2022-02-26T05:29:27.000Z</time></trkpt><trkpt lat="39.96634" lon="-8.45919"><time>2022-02-26T05:29:37.000Z</time></trkpt><trkpt lat="39.96635" lon="-8.45925"><time>2022-02-26T05:29:47.000Z</time></trkpt><trkpt lat="39.96636" lon="-8.45939"><time>2022-02-26T05:29:57.000Z</time></trkpt><trkpt lat="39.9664" lon="-8.4595"><ele>286</ele><time>2022-02-26T05:29:24.000Z</time></trkpt><trkpt lat="39.96644" lon="-8.45957"><time>2022-02-26T05:29:34.000Z</time></trkpt><trkpt lat="39.96647" lon="-8.45962"><time>2022-02-26T05:29:44.000Z</time></trkpt><trkpt lat="39.9665" lon="-8.45975"><ele>286</ele><time>2022-02-26T05:29:36.000Z</time></trkpt><trkpt lat="39.96651" lon="-8.45981"><time>2022-02-26T05:29:46.000Z</time></trkpt><trkpt lat="39.96652" lon="-8.45988"><time>2022-02-26T05:29:56.000Z</time></trkpt><trkpt lat="39.96657" lon="-8.46002"><ele>286</ele><time>2022-02-26T05:29:48.000Z</time></trkpt><trkpt lat="39.96666" lon="-8.46014"><time>2022-02-26T05:29:58.000Z</time></trkpt><trkpt lat="39.96672" lon="-8.46025"><ele>284</ele><time>2022-02-26T05:30:01.000Z</time></trkpt><trkpt lat="39.96686" lon="-8.46044"><time>2022-02-26T05:30:11.000Z</time></trkpt><trkpt lat="39.96687" lon="-8.4605"><ele>284</ele><time>2022-02-26T05:30:16.000Z</time></trkpt><trkpt lat="39.96687" lon="-8.46057"><time>2022-02-26T05:30:26.000Z</time></trkpt><trkpt lat="39.96688" lon="-8.46063"><time>2022-02-26T05:30:36.000Z</time></trkpt><trkpt lat="39.96698" lon="-8.4608"><ele>284</ele><time>2022-02-26T05:30:31.000Z</time></trkpt><trkpt lat="39.9671" lon="-8.46097"><time>2022-02-26T05:30:41.000Z</time></trkpt><trkpt lat="39.96716" lon="-8.46111"><ele>282</ele><time>2022-02-26T05:30:46.000Z</time></trkpt><trkpt lat="39.96724" lon="-8.46125"><time>2022-02-26T05:30:56.000Z</time></trkpt><trkpt lat="39.96727" lon="-8.4613"><time>2022-02-26T05:31:06.000Z</time></trkpt><trkpt lat="39.96731" lon="-8.46136"><ele>280</ele><time>2022-02-26T05:30:57.000Z</time></trkpt><trkpt lat="39.96744" lon="-8.46157"><ele>278</ele><time>2022-02-26T05:31:07.000Z</time></trkpt><trkpt lat="39.96748" lon="-8.46163"><time>2022-02-26T05:31:17.000Z</time></trkpt><trkpt lat="39.96754" lon="-8.46166"><time>2022-02-26T05:31:27.000Z</time></trkpt><trkpt lat="39.9676" lon="-8.46169"><time>2022-02-26T05:31:37.000Z</time></trkpt><trkpt lat="39.96764" lon="-8.46172"><ele>278</ele><time>2022-02-26T05:31:47.000Z</time></trkpt><trkpt lat="39.96768" lon="-8.46177"><time>2022-02-26T05:31:57.000Z</time></trkpt><trkpt lat="39.96772" lon="-8.46181"><time>2022-02-26T05:32:07.000Z</time></trkpt><trkpt lat="39.96776" lon="-8.46185"><time>2022-02-26T05:32:17.000Z</time></trkpt><trkpt lat="39.96781" lon="-8.46188"><ele>271</ele><time>2022-02-26T05:32:27.000Z</time></trkpt><trkpt lat="39.9679" lon="-8.46196"><time>2022-02-26T05:32:37.000Z</time></trkpt><trkpt lat="39.96845" lon="-8.46236"><ele>266</ele><time>2022-02-26T05:32:47.000Z</time></trkpt><trkpt lat="39.96859" lon="-8.46251"><time>2022-02-26T05:32:57.000Z</time></trkpt><trkpt lat="39.96868" lon="-8.46264"><ele>268</ele><time>2022-02-26T05:33:07.000Z</time></trkpt><trkpt lat="39.96876" lon="-8.46275"><time>2022-02-26T05:33:17.000Z</time></trkpt><trkpt lat="39.96879" lon="-8.4628"><time>2022-02-26T05:33:27.000Z</time></trkpt><trkpt lat="39.96883" lon="-8.46294"><ele>268</ele><time>2022-02-26T05:33:37.000Z</time></trkpt><trkpt lat="39.96878" lon="-8.46297"><time>2022-02-26T05:33:47.000Z</time></trkpt><trkpt lat="39.96868" lon="-8.463"><time>2022-02-26T05:33:57.000Z</time></trkpt><trkpt lat="39.96858" lon="-8.463"><ele>268</ele><time>2022-02-26T05:34:07.000Z</time></trkpt><trkpt lat="39.96852" lon="-8.46299"><time>2022-02-26T05:34:17.000Z</time></trkpt><trkpt lat="39.96842" lon="-8.46296"><time>2022-02-26T05:34:27.000Z</time></trkpt><trkpt lat="39.96828" lon="-8.46289"><ele>264</ele><time>2022-02-26T05:34:37.000Z</time></trkpt><trkpt lat="39.9682" lon="-8.46282"><time>2022-02-26T05:34:47.000Z</time></trkpt><trkpt lat="39.96811" lon="-8.46275"><time>2022-02-26T05:34:57.000Z</time></trkpt><trkpt lat="39.96805" lon="-8.46272"><ele>260</ele><time>2022-02-26T05:35:07.000Z</time></trkpt><trkpt lat="39.96799" lon="-8.4627"><time>2022-02-26T05:35:17.000Z</time></trkpt><trkpt lat="39.96782" lon="-8.4626"><ele>259</ele><time>2022-02-26T05:35:27.000Z</time></trkpt><trkpt lat="39.96776" lon="-8.46259"><time>2022-02-26T05:35:37.000Z</time></trkpt><trkpt lat="39.96765" lon="-8.46254"><time>2022-02-26T05:35:47.000Z</time></trkpt><trkpt lat="39.96753" lon="-8.46247"><ele>257</ele><time>2022-02-26T05:33:42.000Z</time></trkpt><trkpt lat="39.96736" lon="-8.46237"><time>2022-02-26T05:33:52.000Z</time></trkpt><trkpt lat="39.96724" lon="-8.4623"><ele>257</ele><time>2022-02-26T05:33:57.000Z</time></trkpt><trkpt lat="39.96708" lon="-8.46217"><time>2022-02-26T05:34:07.000Z</time></trkpt><trkpt lat="39.96702" lon="-8.46214"><ele>256</ele><time>2022-02-26T05:34:17.000Z</time></trkpt><trkpt lat="39.96696" lon="-8.46213"><time>2022-02-26T05:34:27.000Z</time></trkpt><trkpt lat="39.96689" lon="-8.46213"><time>2022-02-26T05:34:37.000Z</time></trkpt><trkpt lat="39.96683" lon="-8.46215"><time>2022-02-26T05:34:47.000Z</time></trkpt><trkpt lat="39.96672" lon="-8.46219"><ele>257</ele><time>2022-02-26T05:34:24.000Z</time></trkpt><trkpt lat="39.9666" lon="-8.4622"><time>2022-02-26T05:34:34.000Z</time></trkpt><trkpt lat="39.96655" lon="-8.46225"><time>2022-02-26T05:34:44.000Z</time></trkpt><trkpt lat="39.96654" lon="-8.46233"><ele>259</ele><time>2022-02-26T05:34:54.000Z</time></trkpt><trkpt lat="39.96656" lon="-8.46239"><time>2022-02-26T05:35:04.000Z</time></trkpt><trkpt lat="39.96646" lon="-8.46242"><time>2022-02-26T05:35:14.000Z</time></trkpt><trkpt lat="39.96637" lon="-8.4625"><ele>259</ele><time>2022-02-26T05:35:24.000Z</time></trkpt><trkpt lat="39.96632" lon="-8.46253"><time>2022-02-26T05:35:34.000Z</time></trkpt><trkpt lat="39.96629" lon="-8.46258"><time>2022-02-26T05:35:44.000Z</time></trkpt><trkpt lat="39.96624" lon="-8.46264"><time>2022-02-26T05:35:54.000Z</time></trkpt><trkpt lat="39.96615" lon="-8.46268"><ele>276</ele><time>2022-02-26T05:35:41.000Z</time></trkpt><trkpt lat="39.96611" lon="-8.46271"><time>2022-02-26T05:35:51.000Z</time></trkpt><trkpt lat="39.96607" lon="-8.46274"><time>2022-02-26T05:36:01.000Z</time></trkpt><trkpt lat="39.96598" lon="-8.46276"><time>2022-02-26T05:36:11.000Z</time></trkpt><trkpt lat="39.96594" lon="-8.46278"><ele>282</ele><time>2022-02-26T05:36:15.000Z</time></trkpt><trkpt lat="39.96585" lon="-8.46285"><time>2022-02-26T05:36:25.000Z</time></trkpt><trkpt lat="39.9657" lon="-8.46293"><ele>296</ele><time>2022-02-26T05:36:44.000Z</time></trkpt><trkpt lat="39.96546" lon="-8.46303"><ele>302</ele><time>2022-02-26T05:36:54.000Z</time></trkpt><trkpt lat="39.96538" lon="-8.4631"><time>2022-02-26T05:37:04.000Z</time></trkpt><trkpt lat="39.96534" lon="-8.46313"><time>2022-02-26T05:37:14.000Z</time></trkpt><trkpt lat="39.96529" lon="-8.46315"><time>2022-02-26T05:37:24.000Z</time></trkpt><trkpt lat="39.96514" lon="-8.46317"><ele>312</ele><time>2022-02-26T05:38:00.000Z</time></trkpt><trkpt lat="39.96505" lon="-8.46321"><time>2022-02-26T05:38:10.000Z</time></trkpt><trkpt lat="39.96502" lon="-8.46325"><time>2022-02-26T05:38:20.000Z</time></trkpt><trkpt lat="39.965" lon="-8.46339"><ele>312</ele><time>2022-02-26T05:38:33.000Z</time></trkpt><trkpt lat="39.96495" lon="-8.46348"><time>2022-02-26T05:38:43.000Z</time></trkpt><trkpt lat="39.9649" lon="-8.46352"><time>2022-02-26T05:38:53.000Z</time></trkpt><trkpt lat="39.96475" lon="-8.46355"><ele>319</ele><time>2022-02-26T05:39:14.000Z</time></trkpt><trkpt lat="39.96473" lon="-8.46361"><time>2022-02-26T05:39:24.000Z</time></trkpt><trkpt lat="39.96469" lon="-8.46365"><time>2022-02-26T05:39:34.000Z</time></trkpt><trkpt lat="39.96459" lon="-8.46374"><ele>335</ele><time>2022-02-26T05:39:38.000Z</time></trkpt><trkpt lat="39.96445" lon="-8.46383"><time>2022-02-26T05:39:48.000Z</time></trkpt><trkpt lat="39.96443" lon="-8.46389"><ele>335</ele><time>2022-02-26T05:39:58.000Z</time></trkpt><trkpt lat="39.9644" lon="-8.46395"><time>2022-02-26T05:40:08.000Z</time></trkpt><trkpt lat="39.96435" lon="-8.46397"><time>2022-02-26T05:40:18.000Z</time></trkpt><trkpt lat="39.96427" lon="-8.46404"><time>2022-02-26T05:40:28.000Z</time></trkpt><trkpt lat="39.96422" lon="-8.46406"><ele>337</ele><time>2022-02-26T05:40:38.000Z</time></trkpt><trkpt lat="39.96418" lon="-8.46409"><time>2022-02-26T05:40:48.000Z</time></trkpt><trkpt lat="39.96407" lon="-8.46424"><time>2022-02-26T05:40:58.000Z</time></trkpt><trkpt lat="39.96399" lon="-8.46432"><ele>340</ele><time>2022-02-26T05:40:30.000Z</time></trkpt><trkpt lat="39.9639" lon="-8.46442"><time>2022-02-26T05:40:40.000Z</time></trkpt><trkpt lat="39.9639" lon="-8.46448"><time>2022-02-26T05:40:50.000Z</time></trkpt><trkpt lat="39.96393" lon="-8.46453"><ele>342</ele><time>2022-02-26T05:40:53.000Z</time></trkpt><trkpt lat="39.96397" lon="-8.46457"><time>2022-02-26T05:41:03.000Z</time></trkpt><trkpt lat="39.96404" lon="-8.46476"><ele>342</ele><time>2022-02-26T05:41:14.000Z</time></trkpt><trkpt lat="39.96407" lon="-8.46482"><time>2022-02-26T05:41:24.000Z</time></trkpt><trkpt lat="39.96411" lon="-8.46486"><time>2022-02-26T05:41:34.000Z</time></trkpt><trkpt lat="39.96415" lon="-8.4649"><time>2022-02-26T05:41:44.000Z</time></trkpt><trkpt lat="39.96418" lon="-8.46503"><ele>344</ele><time>2022-02-26T05:41:37.000Z</time></trkpt><trkpt lat="39.96421" lon="-8.46508"><time>2022-02-26T05:41:47.000Z</time></trkpt><trkpt lat="39.96428" lon="-8.46511"><time>2022-02-26T05:41:57.000Z</time></trkpt><trkpt lat="39.96432" lon="-8.4651"><time>2022-02-26T05:42:07.000Z</time></trkpt><trkpt lat="39.96438" lon="-8.4651"><ele>342</ele><time>2022-02-26T05:41:52.000Z</time></trkpt><trkpt lat="39.96448" lon="-8.46513"><time>2022-02-26T05:42:02.000Z</time></trkpt><trkpt lat="39.96459" lon="-8.46517"><ele>340</ele><time>2022-02-26T05:42:04.000Z</time></trkpt><trkpt lat="39.96472" lon="-8.46517"><time>2022-02-26T05:42:14.000Z</time></trkpt><trkpt lat="39.96475" lon="-8.46523"><time>2022-02-26T05:42:24.000Z</time></trkpt><trkpt lat="39.96479" lon="-8.46527"><ele>340</ele><time>2022-02-26T05:42:16.000Z</time></trkpt><trkpt lat="39.9649" lon="-8.46529"><time>2022-02-26T05:42:26.000Z</time></trkpt><trkpt lat="39.96496" lon="-8.46532"><time>2022-02-26T05:42:36.000Z</time></trkpt><trkpt lat="39.96502" lon="-8.46533"><ele>340</ele><time>2022-02-26T05:42:46.000Z</time></trkpt><trkpt lat="39.96508" lon="-8.46534"><time>2022-02-26T05:42:56.000Z</time></trkpt><trkpt lat="39.96519" lon="-8.46537"><time>2022-02-26T05:43:06.000Z</time></trkpt><trkpt lat="39.96525" lon="-8.46535"><ele>336</ele><time>2022-02-26T05:43:16.000Z</time></trkpt><trkpt lat="39.9653" lon="-8.46534"><time>2022-02-26T05:43:26.000Z</time></trkpt><trkpt lat="39.96536" lon="-8.46536"><time>2022-02-26T05:43:36.000Z</time></trkpt><trkpt lat="39.96541" lon="-8.46537"><time>2022-02-26T05:43:46.000Z</time></trkpt><trkpt lat="39.96545" lon="-8.4654"><ele>336</ele><time>2022-02-26T05:43:56.000Z</time></trkpt><trkpt lat="39.96545" lon="-8.46548"><time>2022-02-26T05:44:06.000Z</time></trkpt><trkpt lat="39.96543" lon="-8.46555"><time>2022-02-26T05:44:16.000Z</time></trkpt><trkpt lat="39.96544" lon="-8.46567"><ele>331</ele><time>2022-02-26T05:44:26.000Z</time></trkpt><trkpt lat="39.96544" lon="-8.4658"><time>2022-02-26T05:44:36.000Z</time></trkpt><trkpt lat="39.96545" lon="-8.46586"><time>2022-02-26T05:44:46.000Z</time></trkpt><trkpt lat="39.96543" lon="-8.46592"><time>2022-02-26T05:44:56.000Z</time></trkpt><trkpt lat="39.96543" lon="-8.466"><ele>327</ele><time>2022-02-26T05:45:06.000Z</time></trkpt><trkpt lat="39.96541" lon="-8.46606"><time>2022-02-26T05:45:16.000Z</time></trkpt><trkpt lat="39.96532" lon="-8.46621"><time>2022-02-26T05:45:26.000Z</time></trkpt><trkpt lat="39.96523" lon="-8.46633"><ele>324</ele><time>2022-02-26T05:45:36.000Z</time></trkpt><trkpt lat="39.96519" lon="-8.46639"><time>2022-02-26T05:45:46.000Z</time></trkpt><trkpt lat="39.96515" lon="-8.46643"><time>2022-02-26T05:45:56.000Z</time></trkpt><trkpt lat="39.96505" lon="-8.46645"><ele>324</ele><time>2022-02-26T05:46:06.000Z</time></trkpt><trkpt lat="39.96495" lon="-8.4665"><time>2022-02-26T05:46:16.000Z</time></trkpt><trkpt lat="39.96491" lon="-8.46651"><time>2022-02-26T05:46:26.000Z</time></trkpt><trkpt lat="39.96479" lon="-8.46651"><ele>320</ele><time>2022-02-26T05:46:36.000Z</time></trkpt><trkpt lat="39.96469" lon="-8.46652"><time>2022-02-26T05:46:46.000Z</time></trkpt><trkpt lat="39.96464" lon="-8.46654"><time>2022-02-26T05:46:56.000Z</time></trkpt><trkpt lat="39.96459" lon="-8.46659"><ele>317</ele><time>2022-02-26T05:47:06.000Z</time></trkpt><trkpt lat="39.96455" lon="-8.46666"><time>2022-02-26T05:47:16.000Z</time></trkpt><trkpt lat="39.96451" lon="-8.46671"><time>2022-02-26T05:47:26.000Z</time></trkpt><trkpt lat="39.96448" lon="-8.46677"><time>2022-02-26T05:47:36.000Z</time></trkpt><trkpt lat="39.96443" lon="-8.46691"><ele>312</ele><time>2022-02-26T05:47:46.000Z</time></trkpt><trkpt lat="39.96441" lon="-8.46697"><time>2022-02-26T05:47:56.000Z</time></trkpt><trkpt lat="39.96438" lon="-8.46703"><time>2022-02-26T05:48:06.000Z</time></trkpt><trkpt lat="39.96434" lon="-8.46707"><time>2022-02-26T05:48:16.000Z</time></trkpt><trkpt lat="39.96427" lon="-8.46721"><ele>309</ele><time>2022-02-26T05:45:01.000Z</time></trkpt><trkpt lat="39.9642" lon="-8.46731"><time>2022-02-26T05:45:11.000Z</time></trkpt><trkpt lat="39.9641" lon="-8.46742"><ele>305</ele><time>2022-02-26T05:45:13.000Z</time></trkpt><trkpt lat="39.96402" lon="-8.46754"><time>2022-02-26T05:45:23.000Z</time></trkpt><trkpt lat="39.96392" lon="-8.46763"><ele>306</ele><time>2022-02-26T05:45:25.000Z</time></trkpt><trkpt lat="39.96387" lon="-8.46788"><time>2022-02-26T05:45:35.000Z</time></trkpt><trkpt lat="39.96383" lon="-8.46801"><ele>307</ele><time>2022-02-26T05:45:51.000Z</time></trkpt><trkpt lat="39.96381" lon="-8.46814"><time>2022-02-26T05:46:01.000Z</time></trkpt><trkpt lat="39.96376" lon="-8.46826"><time>2022-02-26T05:46:11.000Z</time></trkpt><trkpt lat="39.96375" lon="-8.46831"><ele>308</ele><time>2022-02-26T05:46:11.000Z</time></trkpt><trkpt lat="39.96371" lon="-8.46843"><time>2022-02-26T05:46:21.000Z</time></trkpt><trkpt lat="39.96366" lon="-8.46855"><time>2022-02-26T05:46:31.000Z</time></trkpt><trkpt lat="39.96365" lon="-8.46861"><ele>315</ele><time>2022-02-26T05:46:30.000Z</time></trkpt><trkpt lat="39.96361" lon="-8.46881"><time>2022-02-26T05:46:40.000Z</time></trkpt><trkpt lat="39.96361" lon="-8.469"><ele>314</ele><time>2022-02-26T05:46:53.000Z</time></trkpt><trkpt lat="39.96363" lon="-8.46912"><time>2022-02-26T05:47:03.000Z</time></trkpt><trkpt lat="39.96364" lon="-8.46919"><time>2022-02-26T05:47:13.000Z</time></trkpt><trkpt lat="39.96368" lon="-8.4693"><ele>314</ele><time>2022-02-26T05:47:08.000Z</time></trkpt><trkpt lat="39.96371" lon="-8.46948"><time>2022-02-26T05:47:18.000Z</time></trkpt><trkpt lat="39.9638" lon="-8.46964"><ele>313</ele><time>2022-02-26T05:47:25.000Z</time></trkpt><trkpt lat="39.96379" lon="-8.4697"><time>2022-02-26T05:47:35.000Z</time></trkpt><trkpt lat="39.96376" lon="-8.46976"><time>2022-02-26T05:47:45.000Z</time></trkpt><trkpt lat="39.96372" lon="-8.46982"><time>2022-02-26T05:47:55.000Z</time></trkpt><trkpt lat="39.96366" lon="-8.46985"><ele>309</ele><time>2022-02-26T05:47:36.000Z</time></trkpt><trkpt lat="39.96362" lon="-8.46995"><time>2022-02-26T05:47:46.000Z</time></trkpt><trkpt lat="39.96358" lon="-8.46999"><time>2022-02-26T05:47:56.000Z</time></trkpt><trkpt lat="39.96348" lon="-8.47004"><ele>297</ele><time>2022-02-26T05:47:52.000Z</time></trkpt><trkpt lat="39.96338" lon="-8.47006"><time>2022-02-26T05:48:02.000Z</time></trkpt><trkpt lat="39.96327" lon="-8.47007"><ele>297</ele><time>2022-02-26T05:48:07.000Z</time></trkpt><trkpt lat="39.96306" lon="-8.47003"><time>2022-02-26T05:48:17.000Z</time></trkpt><trkpt lat="39.96296" lon="-8.46999"><ele>273</ele><time>2022-02-26T05:48:18.000Z</time></trkpt><trkpt lat="39.96292" lon="-8.46996"><time>2022-02-26T05:48:28.000Z</time></trkpt><trkpt lat="39.96288" lon="-8.46992"><time>2022-02-26T05:48:38.000Z</time></trkpt><trkpt lat="39.96279" lon="-8.46985"><time>2022-02-26T05:48:48.000Z</time></trkpt><trkpt lat="39.96276" lon="-8.46981"><ele>273</ele><time>2022-02-26T05:48:32.000Z</time></trkpt><trkpt lat="39.96268" lon="-8.46963"><time>2022-02-26T05:48:42.000Z</time></trkpt><trkpt lat="39.96263" lon="-8.46957"><ele>268</ele><time>2022-02-26T05:48:43.000Z</time></trkpt><trkpt lat="39.96254" lon="-8.4695"><time>2022-02-26T05:48:53.000Z</time></trkpt><trkpt lat="39.96249" lon="-8.46949"><time>2022-02-26T05:49:03.000Z</time></trkpt><trkpt lat="39.96245" lon="-8.46946"><time>2022-02-26T05:49:13.000Z</time></trkpt><trkpt lat="39.96242" lon="-8.46939"><ele>263</ele><time>2022-02-26T05:48:59.000Z</time></trkpt><trkpt lat="39.96239" lon="-8.46928"><time>2022-02-26T05:49:09.000Z</time></trkpt><trkpt lat="39.96235" lon="-8.46924"><time>2022-02-26T05:49:19.000Z</time></trkpt><trkpt lat="39.96231" lon="-8.46919"><time>2022-02-26T05:49:29.000Z</time></trkpt><trkpt lat="39.96227" lon="-8.46917"><ele>256</ele><time>2022-02-26T05:49:15.000Z</time></trkpt><trkpt lat="39.96218" lon="-8.46912"><time>2022-02-26T05:49:25.000Z</time></trkpt><trkpt lat="39.96213" lon="-8.46911"><time>2022-02-26T05:49:35.000Z</time></trkpt><trkpt lat="39.962" lon="-8.46904"><ele>250</ele><time>2022-02-26T05:49:48.000Z</time></trkpt><trkpt lat="39.96188" lon="-8.46889"><time>2022-02-26T05:49:58.000Z</time></trkpt><trkpt lat="39.96184" lon="-8.46892"><ele>249</ele><time>2022-02-26T05:50:09.000Z</time></trkpt><trkpt lat="39.96179" lon="-8.46906"><time>2022-02-26T05:50:19.000Z</time></trkpt><trkpt lat="39.96174" lon="-8.46922"><ele>246</ele><time>2022-02-26T05:50:21.000Z</time></trkpt><trkpt lat="39.96167" lon="-8.46953"><ele>246</ele><time>2022-02-26T05:50:29.000Z</time></trkpt><trkpt lat="39.96162" lon="-8.46968"><time>2022-02-26T05:50:39.000Z</time></trkpt><trkpt lat="39.96159" lon="-8.46975"><time>2022-02-26T05:50:49.000Z</time></trkpt><trkpt lat="39.96154" lon="-8.4698"><ele>244</ele><time>2022-02-26T05:50:41.000Z</time></trkpt><trkpt lat="39.96148" lon="-8.46983"><time>2022-02-26T05:50:51.000Z</time></trkpt><trkpt lat="39.96143" lon="-8.46984"><time>2022-02-26T05:51:01.000Z</time></trkpt><trkpt lat="39.96133" lon="-8.46982"><ele>244</ele><time>2022-02-26T05:50:50.000Z</time></trkpt><trkpt lat="39.96117" lon="-8.46982"><time>2022-02-26T05:51:00.000Z</time></trkpt><trkpt lat="39.96113" lon="-8.46988"><ele>243</ele><time>2022-02-26T05:51:00.000Z</time></trkpt><trkpt lat="39.96107" lon="-8.47002"><time>2022-02-26T05:51:10.000Z</time></trkpt><trkpt lat="39.961" lon="-8.47013"><ele>242</ele><time>2022-02-26T05:51:20.000Z</time></trkpt><trkpt lat="39.96096" lon="-8.47019"><time>2022-02-26T05:51:30.000Z</time></trkpt><trkpt lat="39.96083" lon="-8.47031"><ele>240</ele><time>2022-02-26T05:51:40.000Z</time></trkpt><trkpt lat="39.96083" lon="-8.47038"><time>2022-02-26T05:51:50.000Z</time></trkpt><trkpt lat="39.96079" lon="-8.47037"><time>2022-02-26T05:52:00.000Z</time></trkpt><trkpt lat="39.96063" lon="-8.47044"><ele>240</ele><time>2022-02-26T05:51:37.000Z</time></trkpt><trkpt lat="39.96056" lon="-8.47048"><time>2022-02-26T05:51:47.000Z</time></trkpt><trkpt lat="39.96043" lon="-8.47056"><ele>240</ele><time>2022-02-26T05:51:44.000Z</time></trkpt><trkpt lat="39.96029" lon="-8.47067"><time>2022-02-26T05:51:54.000Z</time></trkpt><trkpt lat="39.96023" lon="-8.4707"><ele>240</ele><time>2022-02-26T05:52:04.000Z</time></trkpt><trkpt lat="39.96016" lon="-8.47079"><time>2022-02-26T05:52:14.000Z</time></trkpt><trkpt lat="39.95995" lon="-8.47095"><ele>241</ele><time>2022-02-26T05:52:07.000Z</time></trkpt><trkpt lat="39.95967" lon="-8.4711"><ele>240</ele><time>2022-02-26T05:52:20.000Z</time></trkpt><trkpt lat="39.9594" lon="-8.47129"><ele>239</ele><time>2022-02-26T05:52:33.000Z</time></trkpt><trkpt lat="39.95918" lon="-8.47142"><ele>239</ele><time>2022-02-26T05:52:44.000Z</time></trkpt><trkpt lat="39.95898" lon="-8.47154"><ele>239</ele><time>2022-02-26T05:52:54.000Z</time></trkpt><trkpt lat="39.95887" lon="-8.47162"><time>2022-02-26T05:53:04.000Z</time></trkpt><trkpt lat="39.95858" lon="-8.47178"><ele>237</ele><time>2022-02-26T05:53:15.000Z</time></trkpt><trkpt lat="39.95848" lon="-8.47186"><time>2022-02-26T05:53:25.000Z</time></trkpt><trkpt lat="39.95831" lon="-8.47194"><ele>237</ele><time>2022-02-26T05:53:29.000Z</time></trkpt><trkpt lat="39.95812" lon="-8.47205"><ele>237</ele><time>2022-02-26T05:53:38.000Z</time></trkpt><trkpt lat="39.95787" lon="-8.47215"><ele>237</ele><time>2022-02-26T05:53:48.000Z</time></trkpt><trkpt lat="39.95778" lon="-8.47218"><time>2022-02-26T05:53:58.000Z</time></trkpt><trkpt lat="39.95746" lon="-8.47225"><ele>234</ele><time>2022-02-26T05:54:09.000Z</time></trkpt><trkpt lat="39.95716" lon="-8.47235"><ele>233</ele><time>2022-02-26T05:54:24.000Z</time></trkpt><trkpt lat="39.95679" lon="-8.47246"><ele>233</ele><time>2022-02-26T05:54:42.000Z</time></trkpt><trkpt lat="39.95657" lon="-8.47255"><ele>236</ele><time>2022-02-26T05:54:54.000Z</time></trkpt><trkpt lat="39.95625" lon="-8.47264"><ele>236</ele><time>2022-02-26T05:55:09.000Z</time></trkpt><trkpt lat="39.95601" lon="-8.47273"><ele>236</ele><time>2022-02-26T05:55:19.000Z</time></trkpt><trkpt lat="39.95589" lon="-8.47275"><time>2022-02-26T05:55:29.000Z</time></trkpt><trkpt lat="39.95582" lon="-8.47274"><time>2022-02-26T05:55:39.000Z</time></trkpt><trkpt lat="39.95571" lon="-8.47273"><ele>234</ele><time>2022-02-26T05:55:49.000Z</time></trkpt><trkpt lat="39.95559" lon="-8.47269"><time>2022-02-26T05:55:59.000Z</time></trkpt><trkpt lat="39.95553" lon="-8.4727"><time>2022-02-26T05:56:09.000Z</time></trkpt><trkpt lat="39.95546" lon="-8.47283"><ele>230</ele><time>2022-02-26T05:56:19.000Z</time></trkpt><trkpt lat="39.95537" lon="-8.47294"><time>2022-02-26T05:56:29.000Z</time></trkpt><trkpt lat="39.95532" lon="-8.47297"><time>2022-02-26T05:56:39.000Z</time></trkpt><trkpt lat="39.95528" lon="-8.47301"><ele>230</ele><time>2022-02-26T05:56:49.000Z</time></trkpt><trkpt lat="39.95513" lon="-8.47312"><time>2022-02-26T05:56:59.000Z</time></trkpt><trkpt lat="39.95498" lon="-8.47325"><ele>230</ele><time>2022-02-26T05:57:09.000Z</time></trkpt><trkpt lat="39.95495" lon="-8.4733"><time>2022-02-26T05:57:19.000Z</time></trkpt><trkpt lat="39.95487" lon="-8.47342"><time>2022-02-26T05:57:29.000Z</time></trkpt><trkpt lat="39.95477" lon="-8.47361"><ele>229</ele><time>2022-02-26T05:56:38.000Z</time></trkpt><trkpt lat="39.95465" lon="-8.47378"><time>2022-02-26T05:56:48.000Z</time></trkpt><trkpt lat="39.95457" lon="-8.47388"><ele>229</ele><time>2022-02-26T05:56:53.000Z</time></trkpt><trkpt lat="39.95445" lon="-8.47395"><time>2022-02-26T05:57:03.000Z</time></trkpt><trkpt lat="39.95431" lon="-8.47412"><ele>228</ele><time>2022-02-26T05:57:08.000Z</time></trkpt><trkpt lat="39.95421" lon="-8.47422"><time>2022-02-26T05:57:18.000Z</time></trkpt><trkpt lat="39.95417" lon="-8.47427"><time>2022-02-26T05:57:28.000Z</time></trkpt><trkpt lat="39.95415" lon="-8.47434"><ele>228</ele><time>2022-02-26T05:57:20.000Z</time></trkpt><trkpt lat="39.95414" lon="-8.47464"><ele>229</ele><time>2022-02-26T05:57:30.000Z</time></trkpt><trkpt lat="39.95411" lon="-8.47479"><time>2022-02-26T05:57:40.000Z</time></trkpt><trkpt lat="39.9541" lon="-8.47509"><ele>230</ele><time>2022-02-26T05:57:50.000Z</time></trkpt><trkpt lat="39.9541" lon="-8.47517"><time>2022-02-26T05:58:00.000Z</time></trkpt><trkpt lat="39.95407" lon="-8.47533"><time>2022-02-26T05:58:10.000Z</time></trkpt><trkpt lat="39.95401" lon="-8.47563"><ele>233</ele><time>2022-02-26T05:58:11.000Z</time></trkpt><trkpt lat="39.954" lon="-8.47588"><time>2022-02-26T05:58:21.000Z</time></trkpt><trkpt lat="39.954" lon="-8.47596"><ele>234</ele><time>2022-02-26T05:58:23.000Z</time></trkpt><trkpt lat="39.95397" lon="-8.47611"><time>2022-02-26T05:58:33.000Z</time></trkpt><trkpt lat="39.95395" lon="-8.47619"><time>2022-02-26T05:58:43.000Z</time></trkpt><trkpt lat="39.9539" lon="-8.47633"><ele>237</ele><time>2022-02-26T05:58:38.000Z</time></trkpt><trkpt lat="39.95369" lon="-8.47676"><ele>234</ele><time>2022-02-26T05:58:48.000Z</time></trkpt><trkpt lat="39.95363" lon="-8.47689"><time>2022-02-26T05:58:58.000Z</time></trkpt><trkpt lat="39.95359" lon="-8.47694"><time>2022-02-26T05:59:08.000Z</time></trkpt><trkpt lat="39.95331" lon="-8.47717"><ele>232</ele><time>2022-02-26T05:59:20.000Z</time></trkpt><trkpt lat="39.95318" lon="-8.47731"><time>2022-02-26T05:59:30.000Z</time></trkpt><trkpt lat="39.95313" lon="-8.47734"><ele>232</ele><time>2022-02-26T05:59:40.000Z</time></trkpt><trkpt lat="39.95309" lon="-8.4774"><time>2022-02-26T05:59:50.000Z</time></trkpt><trkpt lat="39.95286" lon="-8.47774"><ele>233</ele><time>2022-02-26T06:00:00.000Z</time></trkpt><trkpt lat="39.95281" lon="-8.47778"><time>2022-02-26T06:00:10.000Z</time></trkpt><trkpt lat="39.95257" lon="-8.47818"><ele>233</ele><time>2022-02-26T06:00:20.000Z</time></trkpt><trkpt lat="39.9525" lon="-8.47828"><time>2022-02-26T06:00:30.000Z</time></trkpt><trkpt lat="39.95246" lon="-8.47833"><time>2022-02-26T06:00:40.000Z</time></trkpt><trkpt lat="39.95242" lon="-8.47837"><time>2022-02-26T06:00:50.000Z</time></trkpt><trkpt lat="39.95222" lon="-8.47861"><ele>233</ele><time>2022-02-26T06:00:49.000Z</time></trkpt><trkpt lat="39.95206" lon="-8.47879"><ele>237</ele><time>2022-02-26T06:00:59.000Z</time></trkpt><trkpt lat="39.95193" lon="-8.47895"><time>2022-02-26T06:01:09.000Z</time></trkpt><trkpt lat="39.95177" lon="-8.4792"><ele>236</ele><time>2022-02-26T06:01:19.000Z</time></trkpt><trkpt lat="39.95157" lon="-8.4794"><ele>235</ele><time>2022-02-26T06:01:31.000Z</time></trkpt><trkpt lat="39.95149" lon="-8.47951"><time>2022-02-26T06:01:41.000Z</time></trkpt><trkpt lat="39.95143" lon="-8.47953"><time>2022-02-26T06:01:51.000Z</time></trkpt><trkpt lat="39.95139" lon="-8.47951"><ele>234</ele><time>2022-02-26T06:01:42.000Z</time></trkpt><trkpt lat="39.9513" lon="-8.47949"><time>2022-02-26T06:01:52.000Z</time></trkpt><trkpt lat="39.95123" lon="-8.47948"><time>2022-02-26T06:02:02.000Z</time></trkpt><trkpt lat="39.95111" lon="-8.4795"><ele>234</ele><time>2022-02-26T06:01:55.000Z</time></trkpt><trkpt lat="39.95088" lon="-8.47954"><ele>235</ele><time>2022-02-26T06:02:07.000Z</time></trkpt><trkpt lat="39.95077" lon="-8.4796"><time>2022-02-26T06:02:17.000Z</time></trkpt><trkpt lat="39.95071" lon="-8.47959"><time>2022-02-26T06:02:27.000Z</time></trkpt><trkpt lat="39.95064" lon="-8.47957"><ele>238</ele><time>2022-02-26T06:02:19.000Z</time></trkpt><trkpt lat="39.95054" lon="-8.47948"><time>2022-02-26T06:02:29.000Z</time></trkpt><trkpt lat="39.95042" lon="-8.47941"><ele>238</ele><time>2022-02-26T06:02:31.000Z</time></trkpt><trkpt lat="39.95029" lon="-8.4793"><time>2022-02-26T06:02:41.000Z</time></trkpt><trkpt lat="39.95013" lon="-8.47923"><ele>240</ele><time>2022-02-26T06:02:49.000Z</time></trkpt><trkpt lat="39.95002" lon="-8.47916"><time>2022-02-26T06:02:59.000Z</time></trkpt><trkpt lat="39.94989" lon="-8.47903"><ele>239</ele><time>2022-02-26T06:03:04.000Z</time></trkpt><trkpt lat="39.94975" lon="-8.47893"><time>2022-02-26T06:03:14.000Z</time></trkpt><trkpt lat="39.9496" lon="-8.47884"><ele>239</ele><time>2022-02-26T06:03:22.000Z</time></trkpt><trkpt lat="39.94946" lon="-8.47873"><time>2022-02-26T06:03:32.000Z</time></trkpt><trkpt lat="39.94941" lon="-8.4787"><ele>239</ele><time>2022-02-26T06:03:36.000Z</time></trkpt><trkpt lat="39.94933" lon="-8.47862"><time>2022-02-26T06:03:46.000Z</time></trkpt><trkpt lat="39.94914" lon="-8.47851"><ele>241</ele><time>2022-02-26T06:03:58.000Z</time></trkpt><trkpt lat="39.94911" lon="-8.47847"><time>2022-02-26T06:04:08.000Z</time></trkpt><trkpt lat="39.94896" lon="-8.47841"><time>2022-02-26T06:04:18.000Z</time></trkpt><trkpt lat="39.94892" lon="-8.47842"><ele>245</ele><time>2022-02-26T06:04:15.000Z</time></trkpt><trkpt lat="39.94882" lon="-8.47838"><time>2022-02-26T06:04:25.000Z</time></trkpt><trkpt lat="39.94872" lon="-8.47835"><ele>249</ele><time>2022-02-26T06:04:33.000Z</time></trkpt><trkpt lat="39.94861" lon="-8.47821"><time>2022-02-26T06:04:43.000Z</time></trkpt><trkpt lat="39.94857" lon="-8.47818"><time>2022-02-26T06:04:53.000Z</time></trkpt><trkpt lat="39.94853" lon="-8.47822"><ele>249</ele><time>2022-02-26T06:05:03.000Z</time></trkpt><trkpt lat="39.94851" lon="-8.47828"><time>2022-02-26T06:05:13.000Z</time></trkpt><trkpt lat="39.94851" lon="-8.47835"><time>2022-02-26T06:05:23.000Z</time></trkpt><trkpt lat="39.94851" lon="-8.47841"><time>2022-02-26T06:05:33.000Z</time></trkpt><trkpt lat="39.94853" lon="-8.47848"><ele>245</ele><time>2022-02-26T06:05:43.000Z</time></trkpt><trkpt lat="39.94855" lon="-8.47854"><time>2022-02-26T06:05:53.000Z</time></trkpt><trkpt lat="39.94856" lon="-8.47863"><time>2022-02-26T06:06:03.000Z</time></trkpt><trkpt lat="39.94855" lon="-8.4787"><time>2022-02-26T06:06:13.000Z</time></trkpt><trkpt lat="39.94851" lon="-8.47874"><ele>244</ele><time>2022-02-26T06:06:23.000Z</time></trkpt><trkpt lat="39.94849" lon="-8.4788"><time>2022-02-26T06:06:33.000Z</time></trkpt><trkpt lat="39.9485" lon="-8.47887"><time>2022-02-26T06:06:43.000Z</time></trkpt><trkpt lat="39.9485" lon="-8.47894"><time>2022-02-26T06:06:53.000Z</time></trkpt><trkpt lat="39.94848" lon="-8.47901"><ele>244</ele><time>2022-02-26T06:07:03.000Z</time></trkpt><trkpt lat="39.94848" lon="-8.47907"><time>2022-02-26T06:07:13.000Z</time></trkpt><trkpt lat="39.9485" lon="-8.4792"><time>2022-02-26T06:07:23.000Z</time></trkpt><trkpt lat="39.94849" lon="-8.47947"><ele>244</ele><time>2022-02-26T06:07:33.000Z</time></trkpt><trkpt lat="39.9485" lon="-8.47968"><time>2022-02-26T06:07:43.000Z</time></trkpt><trkpt lat="39.94847" lon="-8.47991"><ele>245</ele><time>2022-02-26T06:07:53.000Z</time></trkpt><trkpt lat="39.94848" lon="-8.48012"><time>2022-02-26T06:08:03.000Z</time></trkpt><trkpt lat="39.94845" lon="-8.48024"><ele>246</ele><time>2022-02-26T06:08:13.000Z</time></trkpt><trkpt lat="39.94845" lon="-8.48032"><time>2022-02-26T06:08:23.000Z</time></trkpt><trkpt lat="39.94839" lon="-8.48043"><time>2022-02-26T06:08:33.000Z</time></trkpt><trkpt lat="39.94836" lon="-8.48048"><ele>247</ele><time>2022-02-26T06:08:43.000Z</time></trkpt><trkpt lat="39.94832" lon="-8.48054"><time>2022-02-26T06:08:53.000Z</time></trkpt><trkpt lat="39.94822" lon="-8.48058"><time>2022-02-26T06:09:03.000Z</time></trkpt><trkpt lat="39.94822" lon="-8.48058"><time>2022-02-26T06:09:13.000Z</time></trkpt><trkpt lat="39.94813" lon="-8.48063"><ele>252</ele><time>2022-02-26T06:09:23.000Z</time></trkpt><trkpt lat="39.94808" lon="-8.48064"><time>2022-02-26T06:09:33.000Z</time></trkpt><trkpt lat="39.94794" lon="-8.4807"><time>2022-02-26T06:09:43.000Z</time></trkpt><trkpt lat="39.94774" lon="-8.48077"><ele>257</ele><time>2022-02-26T06:09:53.000Z</time></trkpt><trkpt lat="39.94765" lon="-8.48075"><time>2022-02-26T06:10:03.000Z</time></trkpt><trkpt lat="39.9476" lon="-8.48077"><time>2022-02-26T06:10:13.000Z</time></trkpt><trkpt lat="39.94755" lon="-8.48081"><time>2022-02-26T06:10:23.000Z</time></trkpt><trkpt lat="39.9474" lon="-8.48085"><ele>258</ele><time>2022-01-15T09:28:23.000Z</time></trkpt><trkpt lat="39.94731" lon="-8.48092"><time>2022-01-15T09:28:33.000Z</time></trkpt><trkpt lat="39.94735" lon="-8.48093"><time>2022-01-15T09:28:43.000Z</time></trkpt><trkpt lat="39.94734" lon="-8.48092"><time>2022-01-15T09:28:53.000Z</time></trkpt><trkpt lat="39.9473" lon="-8.48093"><time>2022-01-15T09:29:03.000Z</time></trkpt><trkpt lat="39.94722" lon="-8.48097"><ele>259</ele><time>2022-01-15T09:29:40.000Z</time></trkpt><trkpt lat="39.94718" lon="-8.48097"><time>2022-01-15T09:29:50.000Z</time></trkpt><trkpt lat="39.94713" lon="-8.48096"><time>2022-01-15T09:30:00.000Z</time></trkpt><trkpt lat="39.94699" lon="-8.4809"><ele>259</ele><time>2022-01-15T09:29:51.000Z</time></trkpt><trkpt lat="39.94688" lon="-8.48085"><time>2022-01-15T09:30:01.000Z</time></trkpt><trkpt lat="39.94679" lon="-8.48082"><ele>258</ele><time>2022-01-15T09:30:11.000Z</time></trkpt><trkpt lat="39.94676" lon="-8.48083"><time>2022-01-15T09:30:21.000Z</time></trkpt><trkpt lat="39.94663" lon="-8.48084"><time>2022-01-15T09:30:31.000Z</time></trkpt><trkpt lat="39.94649" lon="-8.48089"><ele>258</ele><time>2022-01-15T09:30:13.000Z</time></trkpt><trkpt lat="39.94615" lon="-8.48099"><ele>257</ele><time>2022-01-15T09:30:28.000Z</time></trkpt><trkpt lat="39.94577" lon="-8.48107"><ele>256</ele><time>2022-01-15T09:30:45.000Z</time></trkpt><trkpt lat="39.94553" lon="-8.48109"><ele>256</ele><time>2022-01-15T09:30:55.000Z</time></trkpt><trkpt lat="39.94541" lon="-8.48105"><time>2022-01-15T09:31:05.000Z</time></trkpt><trkpt lat="39.945" lon="-8.48111"><ele>254</ele><time>2022-01-15T09:31:15.000Z</time></trkpt><trkpt lat="39.94482" lon="-8.4811"><time>2022-01-15T09:31:25.000Z</time></trkpt><trkpt lat="39.94453" lon="-8.48117"><ele>253</ele><time>2022-01-15T09:31:40.000Z</time></trkpt><trkpt lat="39.94444" lon="-8.48118"><time>2022-01-15T09:31:50.000Z</time></trkpt><trkpt lat="39.94425" lon="-8.48122"><ele>253</ele><time>2022-01-15T09:31:52.000Z</time></trkpt><trkpt lat="39.94401" lon="-8.48131"><ele>246</ele><time>2022-01-15T09:32:02.000Z</time></trkpt><trkpt lat="39.94394" lon="-8.48135"><time>2022-01-15T09:32:12.000Z</time></trkpt><trkpt lat="39.94387" lon="-8.48142"><time>2022-01-15T09:32:22.000Z</time></trkpt><trkpt lat="39.94378" lon="-8.48151"><ele>233</ele><time>2022-01-15T09:32:15.000Z</time></trkpt><trkpt lat="39.94366" lon="-8.48168"><time>2022-01-15T09:32:25.000Z</time></trkpt><trkpt lat="39.94359" lon="-8.48177"><ele>233</ele><time>2022-01-15T09:32:35.000Z</time></trkpt><trkpt lat="39.94353" lon="-8.48182"><time>2022-01-15T09:32:45.000Z</time></trkpt><trkpt lat="39.94342" lon="-8.4819"><time>2022-01-15T09:32:55.000Z</time></trkpt><trkpt lat="39.94329" lon="-8.48202"><ele>226</ele><time>2022-01-15T09:32:41.000Z</time></trkpt><trkpt lat="39.94323" lon="-8.48204"><time>2022-01-15T09:32:51.000Z</time></trkpt><trkpt lat="39.94317" lon="-8.48202"><time>2022-01-15T09:33:01.000Z</time></trkpt><trkpt lat="39.94316" lon="-8.48204"><time>2022-01-15T09:33:11.000Z</time></trkpt><trkpt lat="39.94316" lon="-8.48203"><time>2022-01-15T09:33:21.000Z</time></trkpt><trkpt lat="39.94316" lon="-8.48202"><time>2022-01-15T09:33:31.000Z</time></trkpt><trkpt lat="39.94314" lon="-8.48201"><time>2022-01-15T09:33:41.000Z</time></trkpt><trkpt lat="39.94311" lon="-8.48202"><ele>224</ele><time>2022-01-15T09:33:51.000Z</time></trkpt><trkpt lat="39.94306" lon="-8.48202"><time>2022-01-15T09:34:01.000Z</time></trkpt><trkpt lat="39.94291" lon="-8.48201"><time>2022-01-15T09:34:11.000Z</time></trkpt><trkpt lat="39.94273" lon="-8.48201"><ele>224</ele><time>2022-01-15T09:34:06.000Z</time></trkpt><trkpt lat="39.94254" lon="-8.48199"><time>2022-01-15T09:34:16.000Z</time></trkpt><trkpt lat="39.94244" lon="-8.48195"><ele>221</ele><time>2022-01-15T09:34:26.000Z</time></trkpt><trkpt lat="39.94236" lon="-8.48191"><time>2022-01-15T09:34:36.000Z</time></trkpt><trkpt lat="39.94212" lon="-8.48182"><ele>223</ele><time>2022-01-15T09:34:46.000Z</time></trkpt><trkpt lat="39.94205" lon="-8.48181"><time>2022-01-15T09:34:56.000Z</time></trkpt><trkpt lat="39.94192" lon="-8.48181"><time>2022-01-15T09:35:06.000Z</time></trkpt><trkpt lat="39.94163" lon="-8.48186"><ele>223</ele><time>2022-01-15T09:35:16.000Z</time></trkpt><trkpt lat="39.94158" lon="-8.48186"><time>2022-01-15T09:35:26.000Z</time></trkpt><trkpt lat="39.94136" lon="-8.48189"><ele>223</ele><time>2022-01-15T09:35:04.000Z</time></trkpt><trkpt lat="39.94126" lon="-8.48188"><time>2022-01-15T09:35:14.000Z</time></trkpt><trkpt lat="39.94113" lon="-8.48184"><ele>218</ele><time>2022-01-15T09:35:13.000Z</time></trkpt><trkpt lat="39.94084" lon="-8.48166"><ele>218</ele><time>2022-01-15T09:35:23.000Z</time></trkpt><trkpt lat="39.94066" lon="-8.48158"><time>2022-01-15T09:35:33.000Z</time></trkpt><trkpt lat="39.94044" lon="-8.4815"><ele>203</ele><time>2022-01-15T09:35:44.000Z</time></trkpt><trkpt lat="39.9403" lon="-8.48143"><time>2022-01-15T09:35:54.000Z</time></trkpt><trkpt lat="39.94016" lon="-8.48137"><ele>201</ele><time>2022-01-15T09:35:56.000Z</time></trkpt><trkpt lat="39.93997" lon="-8.48134"><time>2022-01-15T09:36:06.000Z</time></trkpt><trkpt lat="39.93992" lon="-8.48132"><ele>201</ele><time>2022-01-15T09:36:05.000Z</time></trkpt><trkpt lat="39.9398" lon="-8.48125"><time>2022-01-15T09:36:15.000Z</time></trkpt><trkpt lat="39.9397" lon="-8.48121"><ele>203</ele><time>2022-01-15T09:36:14.000Z</time></trkpt><trkpt lat="39.93935" lon="-8.48113"><ele>206</ele><time>2022-01-15T09:36:24.000Z</time></trkpt><trkpt lat="39.93926" lon="-8.4811"><time>2022-01-15T09:36:34.000Z</time></trkpt><trkpt lat="39.93915" lon="-8.48105"><ele>206</ele><time>2022-01-15T09:36:44.000Z</time></trkpt><trkpt lat="39.93902" lon="-8.48092"><time>2022-01-15T09:36:54.000Z</time></trkpt><trkpt lat="39.93886" lon="-8.48079"><ele>206</ele><time>2022-01-15T09:37:04.000Z</time></trkpt><trkpt lat="39.93878" lon="-8.48073"><time>2022-01-15T09:37:14.000Z</time></trkpt><trkpt lat="39.9387" lon="-8.48069"><time>2022-01-15T09:37:24.000Z</time></trkpt><trkpt lat="39.93858" lon="-8.4806"><ele>205</ele><time>2022-01-15T09:37:06.000Z</time></trkpt><trkpt lat="39.93844" lon="-8.48047"><time>2022-01-15T09:37:16.000Z</time></trkpt><trkpt lat="39.93837" lon="-8.48042"><ele>205</ele><time>2022-01-15T09:37:18.000Z</time></trkpt><trkpt lat="39.93808" lon="-8.48018"><ele>202</ele><time>2022-01-15T09:37:33.000Z</time></trkpt><trkpt lat="39.93794" lon="-8.48008"><time>2022-01-15T09:37:43.000Z</time></trkpt><trkpt lat="39.93788" lon="-8.48003"><ele>202</ele><time>2022-01-15T09:37:53.000Z</time></trkpt><trkpt lat="39.93781" lon="-8.47995"><time>2022-01-15T09:38:03.000Z</time></trkpt><trkpt lat="39.93777" lon="-8.47987"><time>2022-01-15T09:38:13.000Z</time></trkpt><trkpt lat="39.93764" lon="-8.47969"><ele>202</ele><time>2022-01-15T09:37:58.000Z</time></trkpt><trkpt lat="39.93733" lon="-8.47938"><ele>202</ele><time>2022-01-15T09:38:14.000Z</time></trkpt><trkpt lat="39.93719" lon="-8.47927"><time>2022-01-15T09:38:24.000Z</time></trkpt><trkpt lat="39.93703" lon="-8.47915"><ele>201</ele><time>2022-01-15T09:38:29.000Z</time></trkpt><trkpt lat="39.9369" lon="-8.47899"><time>2022-01-15T09:38:39.000Z</time></trkpt><trkpt lat="39.93676" lon="-8.4788"><ele>201</ele><time>2022-01-15T09:38:45.000Z</time></trkpt><trkpt lat="39.93656" lon="-8.4786"><ele>202</ele><time>2022-01-15T09:38:56.000Z</time></trkpt><trkpt lat="39.93639" lon="-8.47845"><time>2022-01-15T09:39:06.000Z</time></trkpt><trkpt lat="39.93623" lon="-8.47835"><ele>208</ele><time>2022-01-15T09:39:13.000Z</time></trkpt><trkpt lat="39.93605" lon="-8.47826"><time>2022-01-15T09:39:23.000Z</time></trkpt><trkpt lat="39.93587" lon="-8.47823"><ele>209</ele><time>2022-01-15T09:39:29.000Z</time></trkpt><trkpt lat="39.93572" lon="-8.47819"><time>2022-01-15T09:39:39.000Z</time></trkpt><trkpt lat="39.93567" lon="-8.47816"><ele>209</ele><time>2022-01-15T09:39:39.000Z</time></trkpt><trkpt lat="39.93554" lon="-8.47811"><time>2022-01-15T09:39:49.000Z</time></trkpt><trkpt lat="39.93543" lon="-8.47807"><ele>209</ele><time>2022-01-15T09:39:50.000Z</time></trkpt><trkpt lat="39.93533" lon="-8.47802"><time>2022-01-15T09:40:00.000Z</time></trkpt><trkpt lat="39.93523" lon="-8.47793"><ele>209</ele><time>2022-01-15T09:40:02.000Z</time></trkpt><trkpt lat="39.93516" lon="-8.47783"><time>2022-01-15T09:40:12.000Z</time></trkpt><trkpt lat="39.93501" lon="-8.47771"><ele>211</ele><time>2022-01-15T09:40:25.000Z</time></trkpt><trkpt lat="39.93484" lon="-8.47754"><ele>213</ele><time>2022-01-15T09:40:35.000Z</time></trkpt><trkpt lat="39.93477" lon="-8.47747"><time>2022-01-15T09:40:45.000Z</time></trkpt><trkpt lat="39.93471" lon="-8.4774"><time>2022-01-15T09:40:55.000Z</time></trkpt><trkpt lat="39.93469" lon="-8.47736"><time>2022-01-15T09:41:05.000Z</time></trkpt><trkpt lat="39.93465" lon="-8.47732"><ele>213</ele><time>2022-01-15T09:41:15.000Z</time></trkpt><trkpt lat="39.93454" lon="-8.47723"><time>2022-01-15T09:41:25.000Z</time></trkpt><trkpt lat="39.93438" lon="-8.47713"><ele>213</ele><time>2022-01-15T09:41:35.000Z</time></trkpt><trkpt lat="39.93422" lon="-8.47701"><time>2022-01-15T09:41:45.000Z</time></trkpt><trkpt lat="39.93396" lon="-8.47679"><ele>213</ele><time>2022-01-15T09:41:55.000Z</time></trkpt><trkpt lat="39.93387" lon="-8.47669"><time>2022-01-15T09:42:05.000Z</time></trkpt><trkpt lat="39.93381" lon="-8.47662"><time>2022-01-15T09:42:15.000Z</time></trkpt><trkpt lat="39.93374" lon="-8.4765"><ele>214</ele><time>2022-01-15T09:42:25.000Z</time></trkpt><trkpt lat="39.93372" lon="-8.47645"><time>2022-01-15T09:42:35.000Z</time></trkpt><trkpt lat="39.93367" lon="-8.47625"><ele>215</ele><time>2022-01-15T09:42:45.000Z</time></trkpt><trkpt lat="39.93358" lon="-8.47607"><time>2022-01-15T09:42:55.000Z</time></trkpt><trkpt lat="39.93351" lon="-8.47598"><ele>218</ele><time>2022-01-15T09:43:05.000Z</time></trkpt><trkpt lat="39.93348" lon="-8.47595"><time>2022-01-15T09:43:15.000Z</time></trkpt><trkpt lat="39.93344" lon="-8.47583"><time>2022-01-15T09:43:25.000Z</time></trkpt><trkpt lat="39.93343" lon="-8.47576"><time>2022-01-15T09:43:35.000Z</time></trkpt><trkpt lat="39.93345" lon="-8.47556"><ele>219</ele><time>2022-01-15T09:43:07.000Z</time></trkpt><trkpt lat="39.93342" lon="-8.4752"><ele>220</ele><time>2022-01-15T09:43:17.000Z</time></trkpt><trkpt lat="39.93339" lon="-8.47477"><ele>222</ele><time>2022-01-15T09:43:31.000Z</time></trkpt><trkpt lat="39.93332" lon="-8.4745"><ele>222</ele><time>2022-01-15T09:43:41.000Z</time></trkpt><trkpt lat="39.93325" lon="-8.47432"><time>2022-01-15T09:43:51.000Z</time></trkpt><trkpt lat="39.93313" lon="-8.47425"><ele>218</ele><time>2022-01-15T09:44:01.000Z</time></trkpt><trkpt lat="39.9331" lon="-8.47427"><time>2022-01-15T09:44:11.000Z</time></trkpt><trkpt lat="39.93309" lon="-8.47426"><time>2022-01-15T09:44:21.000Z</time></trkpt><trkpt lat="39.93305" lon="-8.47427"><time>2022-01-15T09:44:31.000Z</time></trkpt><trkpt lat="39.93286" lon="-8.4743"><ele>218</ele><time>2022-01-15T09:44:41.000Z</time></trkpt><trkpt lat="39.93276" lon="-8.47434"><time>2022-01-15T09:44:51.000Z</time></trkpt><trkpt lat="39.9327" lon="-8.47437"><time>2022-01-15T09:45:01.000Z</time></trkpt><trkpt lat="39.93252" lon="-8.47439"><ele>215</ele><time>2022-01-15T09:45:11.000Z</time></trkpt><trkpt lat="39.93236" lon="-8.47437"><time>2022-01-15T09:45:21.000Z</time></trkpt><trkpt lat="39.93212" lon="-8.47434"><ele>213</ele><time>2022-01-15T09:45:04.000Z</time></trkpt><trkpt lat="39.93179" lon="-8.47431"><ele>208</ele><time>2022-01-15T09:45:18.000Z</time></trkpt><trkpt lat="39.93153" lon="-8.47427"><ele>206</ele><time>2022-01-15T09:45:28.000Z</time></trkpt><trkpt lat="39.93143" lon="-8.4742"><time>2022-01-15T09:45:38.000Z</time></trkpt><trkpt lat="39.93128" lon="-8.47406"><ele>205</ele><time>2022-01-15T09:45:41.000Z</time></trkpt><trkpt lat="39.93116" lon="-8.47394"><time>2022-01-15T09:45:51.000Z</time></trkpt><trkpt lat="39.93112" lon="-8.47388"><ele>205</ele><time>2022-01-15T09:46:01.000Z</time></trkpt><trkpt lat="39.93107" lon="-8.47377"><time>2022-01-15T09:46:11.000Z</time></trkpt><trkpt lat="39.93091" lon="-8.47348"><ele>205</ele><time>2022-01-15T09:46:05.000Z</time></trkpt><trkpt lat="39.93084" lon="-8.47331"><time>2022-01-15T09:46:15.000Z</time></trkpt><trkpt lat="39.93079" lon="-8.47321"><ele>206</ele><time>2022-01-15T09:46:15.000Z</time></trkpt><trkpt lat="39.93073" lon="-8.47311"><time>2022-01-15T09:46:25.000Z</time></trkpt><trkpt lat="39.93059" lon="-8.47296"><ele>206</ele><time>2022-01-15T09:46:26.000Z</time></trkpt><trkpt lat="39.93041" lon="-8.47275"><ele>206</ele><time>2022-01-15T09:46:36.000Z</time></trkpt><trkpt lat="39.93035" lon="-8.47265"><time>2022-01-15T09:46:46.000Z</time></trkpt><trkpt lat="39.9303" lon="-8.47253"><time>2022-01-15T09:46:56.000Z</time></trkpt><trkpt lat="39.93024" lon="-8.47245"><ele>205</ele><time>2022-01-15T09:47:06.000Z</time></trkpt><trkpt lat="39.93015" lon="-8.47241"><time>2022-01-15T09:47:16.000Z</time></trkpt><trkpt lat="39.93011" lon="-8.4724"><time>2022-01-15T09:47:26.000Z</time></trkpt><trkpt lat="39.92997" lon="-8.47237"><ele>205</ele><time>2022-01-15T09:47:36.000Z</time></trkpt><trkpt lat="39.92983" lon="-8.47238"><time>2022-01-15T09:47:46.000Z</time></trkpt><trkpt lat="39.92975" lon="-8.47236"><ele>206</ele><time>2022-01-15T09:47:56.000Z</time></trkpt><trkpt lat="39.92968" lon="-8.47231"><time>2022-01-15T09:48:06.000Z</time></trkpt><trkpt lat="39.92965" lon="-8.47231"><time>2022-01-15T09:48:16.000Z</time></trkpt><trkpt lat="39.92967" lon="-8.47234"><time>2022-01-15T09:48:26.000Z</time></trkpt><trkpt lat="39.92966" lon="-8.47234"><time>2022-01-15T09:48:36.000Z</time></trkpt><trkpt lat="39.92968" lon="-8.47235"><time>2022-01-15T09:48:46.000Z</time></trkpt><trkpt lat="39.92965" lon="-8.47236"><time>2022-01-15T09:48:56.000Z</time></trkpt><trkpt lat="39.92939" lon="-8.47235"><ele>209</ele><time>2022-01-15T09:49:06.000Z</time></trkpt><trkpt lat="39.92927" lon="-8.47232"><time>2022-01-15T09:49:16.000Z</time></trkpt><trkpt lat="39.92909" lon="-8.47234"><ele>208</ele><time>2022-01-15T09:49:26.000Z</time></trkpt><trkpt lat="39.92902" lon="-8.47237"><time>2022-01-15T09:49:36.000Z</time></trkpt><trkpt lat="39.92876" lon="-8.47242"><ele>207</ele><time>2022-01-15T09:48:51.000Z</time></trkpt><trkpt lat="39.92855" lon="-8.47253"><ele>207</ele><time>2022-01-15T09:49:01.000Z</time></trkpt><trkpt lat="39.92848" lon="-8.47259"><time>2022-01-15T09:49:11.000Z</time></trkpt><trkpt lat="39.92821" lon="-8.47286"><ele>203</ele><time>2022-01-15T09:49:21.000Z</time></trkpt><trkpt lat="39.92809" lon="-8.47298"><time>2022-01-15T09:49:31.000Z</time></trkpt><trkpt lat="39.9279" lon="-8.47317"><ele>199</ele><time>2022-01-15T09:49:41.000Z</time></trkpt><trkpt lat="39.92775" lon="-8.47332"><time>2022-01-15T09:49:51.000Z</time></trkpt><trkpt lat="39.92759" lon="-8.47342"><ele>197</ele><time>2022-01-15T09:50:01.000Z</time></trkpt><trkpt lat="39.92753" lon="-8.47348"><time>2022-01-15T09:50:11.000Z</time></trkpt><trkpt lat="39.92746" lon="-8.47357"><time>2022-01-15T09:50:21.000Z</time></trkpt><trkpt lat="39.92734" lon="-8.47373"><ele>193</ele><time>2022-01-15T09:50:31.000Z</time></trkpt><trkpt lat="39.92731" lon="-8.47381"><time>2022-01-15T09:50:41.000Z</time></trkpt><trkpt lat="39.92732" lon="-8.47384"><time>2022-01-15T09:50:51.000Z</time></trkpt><trkpt lat="39.92738" lon="-8.47397"><ele>193</ele><time>2022-01-15T09:51:01.000Z</time></trkpt><trkpt lat="39.92751" lon="-8.47414"><time>2022-01-15T09:51:11.000Z</time></trkpt><trkpt lat="39.92767" lon="-8.47432"><ele>194</ele><time>2022-01-15T09:51:21.000Z</time></trkpt><trkpt lat="39.92772" lon="-8.47443"><time>2022-01-15T09:51:31.000Z</time></trkpt><trkpt lat="39.92772" lon="-8.4745"><time>2022-01-15T09:51:41.000Z</time></trkpt><trkpt lat="39.92769" lon="-8.47455"><time>2022-01-15T09:51:51.000Z</time></trkpt><trkpt lat="39.92763" lon="-8.47461"><ele>198</ele><time>2022-01-15T09:52:01.000Z</time></trkpt><trkpt lat="39.92755" lon="-8.47469"><time>2022-01-15T09:52:11.000Z</time></trkpt><trkpt lat="39.92742" lon="-8.47478"><ele>198</ele><time>2022-01-15T09:52:21.000Z</time></trkpt><trkpt lat="39.9273" lon="-8.4749"><time>2022-01-15T09:52:31.000Z</time></trkpt><trkpt lat="39.92711" lon="-8.47514"><ele>202</ele><time>2022-01-15T09:51:06.000Z</time></trkpt><trkpt lat="39.92685" lon="-8.47543"><ele>202</ele><time>2022-01-15T09:51:20.000Z</time></trkpt><trkpt lat="39.92666" lon="-8.47574"><ele>200</ele><time>2022-01-15T09:51:30.000Z</time></trkpt><trkpt lat="39.92657" lon="-8.47597"><time>2022-01-15T09:51:40.000Z</time></trkpt><trkpt lat="39.92651" lon="-8.47624"><ele>194</ele><time>2022-01-15T09:51:50.000Z</time></trkpt><trkpt lat="39.9265" lon="-8.47644"><time>2022-01-15T09:52:00.000Z</time></trkpt><trkpt lat="39.9265" lon="-8.47665"><ele>197</ele><time>2022-01-15T09:52:10.000Z</time></trkpt><trkpt lat="39.92649" lon="-8.47675"><time>2022-01-15T09:52:20.000Z</time></trkpt><trkpt lat="39.92647" lon="-8.47691"><time>2022-01-15T09:52:30.000Z</time></trkpt><trkpt lat="39.92641" lon="-8.47705"><ele>197</ele><time>2022-01-15T09:52:40.000Z</time></trkpt><trkpt lat="39.92626" lon="-8.47723"><time>2022-01-15T09:52:50.000Z</time></trkpt><trkpt lat="39.92571" lon="-8.4775"><ele>197</ele><time>2022-01-15T09:52:44.000Z</time></trkpt><trkpt lat="39.92554" lon="-8.47765"><ele>198</ele><time>2022-01-15T09:52:54.000Z</time></trkpt><trkpt lat="39.92538" lon="-8.47778"><time>2022-01-15T09:53:04.000Z</time></trkpt><trkpt lat="39.92534" lon="-8.4778"><ele>199</ele><time>2022-01-15T09:53:14.000Z</time></trkpt><trkpt lat="39.9252" lon="-8.47787"><time>2022-01-15T09:53:24.000Z</time></trkpt><trkpt lat="39.92516" lon="-8.47788"><time>2022-01-15T09:53:34.000Z</time></trkpt><trkpt lat="39.92493" lon="-8.47797"><ele>201</ele><time>2022-01-15T09:53:44.000Z</time></trkpt><trkpt lat="39.92488" lon="-8.47799"><time>2022-01-15T09:53:54.000Z</time></trkpt><trkpt lat="39.92466" lon="-8.47815"><ele>200</ele><time>2022-01-15T09:54:04.000Z</time></trkpt><trkpt lat="39.92453" lon="-8.47826"><time>2022-01-15T09:54:14.000Z</time></trkpt><trkpt lat="39.92437" lon="-8.47837"><ele>200</ele><time>2022-01-15T09:54:24.000Z</time></trkpt><trkpt lat="39.92425" lon="-8.47848"><time>2022-01-15T09:54:34.000Z</time></trkpt><trkpt lat="39.92407" lon="-8.47862"><ele>199</ele><time>2022-01-15T09:53:56.000Z</time></trkpt><trkpt lat="39.92391" lon="-8.47873"><time>2022-01-15T09:54:06.000Z</time></trkpt><trkpt lat="39.92373" lon="-8.47884"><ele>199</ele><time>2022-01-15T09:54:11.000Z</time></trkpt><trkpt lat="39.92353" lon="-8.47891"><ele>199</ele><time>2022-01-15T09:54:19.000Z</time></trkpt><trkpt lat="39.92335" lon="-8.47892"><time>2022-01-15T09:54:29.000Z</time></trkpt><trkpt lat="39.9233" lon="-8.47893"><ele>199</ele><time>2022-01-15T09:54:28.000Z</time></trkpt><trkpt lat="39.92297" lon="-8.47911"><ele>196</ele><time>2022-01-15T09:54:38.000Z</time></trkpt><trkpt lat="39.92285" lon="-8.47923"><time>2022-01-15T09:54:48.000Z</time></trkpt><trkpt lat="39.92254" lon="-8.47943"><ele>194</ele><time>2022-01-15T09:55:03.000Z</time></trkpt><trkpt lat="39.92247" lon="-8.47948"><time>2022-01-15T09:55:13.000Z</time></trkpt><trkpt lat="39.92231" lon="-8.47964"><ele>194</ele><time>2022-01-15T09:55:14.000Z</time></trkpt><trkpt lat="39.92212" lon="-8.47988"><ele>194</ele><time>2022-01-15T09:55:24.000Z</time></trkpt><trkpt lat="39.92202" lon="-8.47999"><time>2022-01-15T09:55:34.000Z</time></trkpt><trkpt lat="39.92198" lon="-8.48002"><time>2022-01-15T09:55:44.000Z</time></trkpt><trkpt lat="39.92177" lon="-8.48014"><ele>191</ele><time>2022-01-15T09:55:40.000Z</time></trkpt><trkpt lat="39.92171" lon="-8.48022"><time>2022-01-15T09:55:50.000Z</time></trkpt><trkpt lat="39.9217" lon="-8.48025"><time>2022-01-15T09:56:00.000Z</time></trkpt><trkpt lat="39.92165" lon="-8.48047"><ele>191</ele><time>2022-01-15T09:55:52.000Z</time></trkpt><trkpt lat="39.92165" lon="-8.48064"><time>2022-01-15T09:56:02.000Z</time></trkpt><trkpt lat="39.92163" lon="-8.48075"><ele>192</ele><time>2022-01-15T09:56:00.000Z</time></trkpt><trkpt lat="39.92153" lon="-8.48084"><time>2022-01-15T09:56:10.000Z</time></trkpt><trkpt lat="39.92141" lon="-8.48083"><ele>190</ele><time>2022-01-15T09:56:10.000Z</time></trkpt><trkpt lat="39.9213" lon="-8.48081"><time>2022-01-15T09:56:20.000Z</time></trkpt><trkpt lat="39.92119" lon="-8.4808"><ele>190</ele><time>2022-01-15T09:56:20.000Z</time></trkpt><trkpt lat="39.92112" lon="-8.48081"><time>2022-01-15T09:56:30.000Z</time></trkpt><trkpt lat="39.92103" lon="-8.48085"><time>2022-01-15T09:56:40.000Z</time></trkpt><trkpt lat="39.92092" lon="-8.48088"><ele>190</ele><time>2022-01-15T09:56:32.000Z</time></trkpt><trkpt lat="39.92088" lon="-8.48088"><time>2022-01-15T09:56:42.000Z</time></trkpt><trkpt lat="39.92069" lon="-8.48083"><ele>193</ele><time>2022-01-15T09:56:41.000Z</time></trkpt><trkpt lat="39.92051" lon="-8.48075"><time>2022-01-15T09:56:51.000Z</time></trkpt><trkpt lat="39.92045" lon="-8.4807"><ele>192</ele><time>2022-01-15T09:57:01.000Z</time></trkpt><trkpt lat="39.92038" lon="-8.4806"><time>2022-01-15T09:57:11.000Z</time></trkpt><trkpt lat="39.92017" lon="-8.48038"><ele>192</ele><time>2022-01-15T09:57:10.000Z</time></trkpt><trkpt lat="39.92009" lon="-8.48026"><time>2022-01-15T09:57:20.000Z</time></trkpt><trkpt lat="39.92006" lon="-8.48021"><time>2022-01-15T09:57:30.000Z</time></trkpt><trkpt lat="39.92002" lon="-8.4801"><ele>192</ele><time>2022-01-15T09:57:21.000Z</time></trkpt><trkpt lat="39.91999" lon="-8.47999"><time>2022-01-15T09:57:31.000Z</time></trkpt><trkpt lat="39.91996" lon="-8.4799"><time>2022-01-15T09:57:41.000Z</time></trkpt><trkpt lat="39.9199" lon="-8.47984"><ele>188</ele><time>2022-01-15T09:57:31.000Z</time></trkpt><trkpt lat="39.91983" lon="-8.4798"><time>2022-01-15T09:57:41.000Z</time></trkpt><trkpt lat="39.91971" lon="-8.47975"><ele>183</ele><time>2022-01-15T09:57:51.000Z</time></trkpt><trkpt lat="39.91964" lon="-8.47974"><time>2022-01-15T09:58:01.000Z</time></trkpt><trkpt lat="39.91941" lon="-8.47967"><ele>185</ele><time>2022-01-15T09:57:51.000Z</time></trkpt><trkpt lat="39.91929" lon="-8.47967"><time>2022-01-15T09:58:01.000Z</time></trkpt><trkpt lat="39.91916" lon="-8.47966"><ele>184</ele><time>2022-01-15T09:58:01.000Z</time></trkpt><trkpt lat="39.91907" lon="-8.47963"><time>2022-01-15T09:58:11.000Z</time></trkpt><trkpt lat="39.91902" lon="-8.47961"><time>2022-01-15T09:58:21.000Z</time></trkpt><trkpt lat="39.91892" lon="-8.4796"><ele>184</ele><time>2022-01-15T09:58:11.000Z</time></trkpt><trkpt lat="39.91879" lon="-8.47957"><time>2022-01-15T09:58:21.000Z</time></trkpt><trkpt lat="39.91861" lon="-8.47958"><ele>184</ele><time>2022-01-15T09:58:23.000Z</time></trkpt><trkpt lat="39.91849" lon="-8.47957"><time>2022-01-15T09:58:33.000Z</time></trkpt><trkpt lat="39.91841" lon="-8.47955"><time>2022-01-15T09:58:43.000Z</time></trkpt><trkpt lat="39.91836" lon="-8.47952"><ele>184</ele><time>2022-01-15T09:58:33.000Z</time></trkpt><trkpt lat="39.91824" lon="-8.4795"><time>2022-01-15T09:58:43.000Z</time></trkpt><trkpt lat="39.91806" lon="-8.47949"><ele>185</ele><time>2022-01-15T09:58:47.000Z</time></trkpt><trkpt lat="39.91788" lon="-8.47946"><time>2022-01-15T09:58:57.000Z</time></trkpt><trkpt lat="39.9178" lon="-8.47944"><ele>187</ele><time>2022-01-15T09:58:58.000Z</time></trkpt><trkpt lat="39.91766" lon="-8.47938"><time>2022-01-15T09:59:08.000Z</time></trkpt><trkpt lat="39.91748" lon="-8.47933"><ele>190</ele><time>2022-01-15T09:59:12.000Z</time></trkpt><trkpt lat="39.91709" lon="-8.47928"><ele>191</ele><time>2022-01-15T09:59:22.000Z</time></trkpt><trkpt lat="39.91695" lon="-8.47925"><time>2022-01-15T09:59:32.000Z</time></trkpt><trkpt lat="39.9168" lon="-8.47912"><ele>192</ele><time>2022-01-15T09:59:42.000Z</time></trkpt><trkpt lat="39.91673" lon="-8.47903"><time>2022-01-15T09:59:52.000Z</time></trkpt><trkpt lat="39.91658" lon="-8.47879"><ele>191</ele><time>2022-01-15T09:59:56.000Z</time></trkpt><trkpt lat="39.91644" lon="-8.47863"><time>2022-01-15T10:00:06.000Z</time></trkpt><trkpt lat="39.91639" lon="-8.4786"><ele>191</ele><time>2022-01-15T10:00:16.000Z</time></trkpt><trkpt lat="39.9163" lon="-8.47856"><time>2022-01-15T10:00:26.000Z</time></trkpt><trkpt lat="39.91618" lon="-8.47853"><ele>191</ele><time>2022-01-15T10:00:36.000Z</time></trkpt><trkpt lat="39.91615" lon="-8.47851"><time>2022-01-15T10:00:46.000Z</time></trkpt><trkpt lat="39.91609" lon="-8.47851"><time>2022-01-15T10:00:56.000Z</time></trkpt><trkpt lat="39.91595" lon="-8.47852"><ele>196</ele><time>2022-01-15T10:01:06.000Z</time></trkpt><trkpt lat="39.91588" lon="-8.47856"><time>2022-01-15T10:01:16.000Z</time></trkpt><trkpt lat="39.91587" lon="-8.47857"><time>2022-01-15T10:01:26.000Z</time></trkpt><trkpt lat="39.91586" lon="-8.47857"><time>2022-01-15T10:01:36.000Z</time></trkpt><trkpt lat="39.91586" lon="-8.47857"><time>2022-01-15T10:01:46.000Z</time></trkpt><trkpt lat="39.91584" lon="-8.47856"><time>2022-01-15T10:01:56.000Z</time></trkpt><trkpt lat="39.91579" lon="-8.47857"><time>2022-01-15T10:02:06.000Z</time></trkpt><trkpt lat="39.9158" lon="-8.47856"><time>2022-01-15T10:02:16.000Z</time></trkpt><trkpt lat="39.91554" lon="-8.47846"><ele>197</ele><time>2022-01-15T10:02:26.000Z</time></trkpt><trkpt lat="39.91536" lon="-8.47838"><time>2022-01-15T10:02:36.000Z</time></trkpt><trkpt lat="39.91496" lon="-8.47828"><ele>195</ele><time>2022-01-15T10:02:46.000Z</time></trkpt><trkpt lat="39.91491" lon="-8.47828"><time>2022-01-15T10:02:56.000Z</time></trkpt><trkpt lat="39.9148" lon="-8.47832"><time>2022-01-15T10:03:06.000Z</time></trkpt><trkpt lat="39.9147" lon="-8.47841"><ele>195</ele><time>2022-01-15T10:12:14.000Z</time></trkpt><trkpt lat="39.91463" lon="-8.47844"><time>2022-01-15T10:12:24.000Z</time></trkpt><trkpt lat="39.91459" lon="-8.47844"><time>2022-01-15T10:12:34.000Z</time></trkpt><trkpt lat="39.91446" lon="-8.47833"><ele>196</ele><time>2022-01-15T10:12:25.000Z</time></trkpt><trkpt lat="39.91439" lon="-8.47814"><time>2022-01-15T10:12:35.000Z</time></trkpt><trkpt lat="39.91433" lon="-8.47801"><ele>196</ele><time>2022-01-15T10:12:45.000Z</time></trkpt><trkpt lat="39.9143" lon="-8.47798"><time>2022-01-15T10:12:55.000Z</time></trkpt><trkpt lat="39.91408" lon="-8.47783"><ele>197</ele><time>2022-01-15T10:13:05.000Z</time></trkpt><trkpt lat="39.91396" lon="-8.47779"><time>2022-01-15T10:13:15.000Z</time></trkpt><trkpt lat="39.91374" lon="-8.47771"><ele>197</ele><time>2022-01-15T10:13:25.000Z</time></trkpt><trkpt lat="39.91361" lon="-8.47765"><time>2022-01-15T10:13:35.000Z</time></trkpt><trkpt lat="39.91352" lon="-8.47759"><ele>197</ele><time>2022-01-15T10:13:45.000Z</time></trkpt><trkpt lat="39.91344" lon="-8.47751"><time>2022-01-15T10:13:55.000Z</time></trkpt><trkpt lat="39.91341" lon="-8.47745"><time>2022-01-15T10:14:05.000Z</time></trkpt><trkpt lat="39.91338" lon="-8.47736"><ele>195</ele><time>2022-01-15T10:14:15.000Z</time></trkpt><trkpt lat="39.91338" lon="-8.47727"><time>2022-01-15T10:14:25.000Z</time></trkpt><trkpt lat="39.91339" lon="-8.4771"><time>2022-01-15T10:14:35.000Z</time></trkpt><trkpt lat="39.91338" lon="-8.47697"><ele>189</ele><time>2022-01-15T10:14:45.000Z</time></trkpt><trkpt lat="39.91337" lon="-8.47694"><time>2022-01-15T10:14:55.000Z</time></trkpt><trkpt lat="39.9133" lon="-8.47687"><time>2022-01-15T10:15:05.000Z</time></trkpt><trkpt lat="39.91308" lon="-8.47683"><ele>189</ele><time>2022-01-15T10:15:15.000Z</time></trkpt><trkpt lat="39.91309" lon="-8.4768"><time>2022-01-15T10:15:25.000Z</time></trkpt><trkpt lat="39.91307" lon="-8.47677"><time>2022-01-15T10:15:35.000Z</time></trkpt><trkpt lat="39.91302" lon="-8.47671"><time>2022-01-15T10:15:45.000Z</time></trkpt><trkpt lat="39.91291" lon="-8.47662"><ele>189</ele><time>2022-01-15T10:15:18.000Z</time></trkpt><trkpt lat="39.91276" lon="-8.47657"><time>2022-01-15T10:15:28.000Z</time></trkpt><trkpt lat="39.91264" lon="-8.47654"><ele>189</ele><time>2022-01-15T10:15:30.000Z</time></trkpt><trkpt lat="39.91238" lon="-8.47651"><ele>189</ele><time>2022-01-15T10:15:41.000Z</time></trkpt><trkpt lat="39.91229" lon="-8.47647"><time>2022-01-15T10:15:51.000Z</time></trkpt><trkpt lat="39.91222" lon="-8.4764"><time>2022-01-15T10:16:01.000Z</time></trkpt><trkpt lat="39.91215" lon="-8.47632"><ele>190</ele><time>2022-01-15T10:15:53.000Z</time></trkpt><trkpt lat="39.91204" lon="-8.47612"><time>2022-01-15T10:16:03.000Z</time></trkpt><trkpt lat="39.91203" lon="-8.47598"><ele>192</ele><time>2022-01-15T10:16:06.000Z</time></trkpt><trkpt lat="39.91185" lon="-8.47564"><ele>190</ele><time>2022-01-15T10:16:20.000Z</time></trkpt><trkpt lat="39.91177" lon="-8.4754"><time>2022-01-15T10:16:30.000Z</time></trkpt><trkpt lat="39.91173" lon="-8.47535"><ele>189</ele><time>2022-01-15T10:16:40.000Z</time></trkpt><trkpt lat="39.91169" lon="-8.47532"><time>2022-01-15T10:16:50.000Z</time></trkpt><trkpt lat="39.91168" lon="-8.47532"><time>2022-01-15T10:17:00.000Z</time></trkpt><trkpt lat="39.91169" lon="-8.47531"><time>2022-01-15T10:17:10.000Z</time></trkpt><trkpt lat="39.91165" lon="-8.47523"><time>2022-01-15T10:17:20.000Z</time></trkpt><trkpt lat="39.91164" lon="-8.47521"><time>2022-01-15T10:17:30.000Z</time></trkpt><trkpt lat="39.91162" lon="-8.475"><ele>186</ele><time>2022-01-15T10:17:55.000Z</time></trkpt><trkpt lat="39.91159" lon="-8.47494"><time>2022-01-15T10:18:05.000Z</time></trkpt><trkpt lat="39.91157" lon="-8.47491"><time>2022-01-15T10:18:15.000Z</time></trkpt><trkpt lat="39.91143" lon="-8.47479"><ele>184</ele><time>2022-01-15T10:18:19.000Z</time></trkpt><trkpt lat="39.91124" lon="-8.47465"><ele>179</ele><time>2022-01-15T10:18:29.000Z</time></trkpt><trkpt lat="39.91122" lon="-8.47465"><time>2022-01-15T10:18:39.000Z</time></trkpt><trkpt lat="39.91102" lon="-8.47457"><ele>179</ele><time>2022-01-15T10:18:49.000Z</time></trkpt><trkpt lat="39.91087" lon="-8.47447"><time>2022-01-15T10:18:59.000Z</time></trkpt><trkpt lat="39.91083" lon="-8.47444"><time>2022-01-15T10:19:09.000Z</time></trkpt><trkpt lat="39.91068" lon="-8.47429"><ele>181</ele><time>2022-01-15T10:19:19.000Z</time></trkpt><trkpt lat="39.91049" lon="-8.47422"><time>2022-01-15T10:19:29.000Z</time></trkpt><trkpt lat="39.91047" lon="-8.47419"><ele>181</ele><time>2022-01-15T10:19:39.000Z</time></trkpt><trkpt lat="39.91046" lon="-8.47419"><time>2022-01-15T10:19:49.000Z</time></trkpt><trkpt lat="39.91048" lon="-8.47417"><time>2022-01-15T10:19:59.000Z</time></trkpt><trkpt lat="39.91" lon="-8.47408"><ele>177</ele><time>2022-01-15T10:20:09.000Z</time></trkpt><trkpt lat="39.91005" lon="-8.47404"><time>2022-01-15T10:20:19.000Z</time></trkpt><trkpt lat="39.91002" lon="-8.47405"><time>2022-01-15T10:20:29.000Z</time></trkpt><trkpt lat="39.90997" lon="-8.47395"><time>2022-01-15T10:20:39.000Z</time></trkpt><trkpt lat="39.90994" lon="-8.47368"><ele>177</ele><time>2022-01-15T10:21:33.000Z</time></trkpt><trkpt lat="39.90995" lon="-8.4736"><time>2022-01-15T10:21:43.000Z</time></trkpt><trkpt lat="39.90994" lon="-8.47351"><time>2022-01-15T10:21:53.000Z</time></trkpt><trkpt lat="39.90995" lon="-8.47344"><time>2022-01-15T10:22:03.000Z</time></trkpt><trkpt lat="39.90994" lon="-8.47341"><ele>177</ele><time>2022-01-15T10:22:13.000Z</time></trkpt><trkpt lat="39.90991" lon="-8.47334"><time>2022-01-15T10:22:23.000Z</time></trkpt><trkpt lat="39.9099" lon="-8.47316"><time>2022-01-15T10:22:33.000Z</time></trkpt><trkpt lat="39.90987" lon="-8.47316"><ele>181</ele><time>2022-01-15T10:22:43.000Z</time></trkpt><trkpt lat="39.90985" lon="-8.47316"><time>2022-01-15T10:22:53.000Z</time></trkpt><trkpt lat="39.90982" lon="-8.47318"><time>2022-01-15T10:23:03.000Z</time></trkpt><trkpt lat="39.90983" lon="-8.4732"><time>2022-01-15T10:23:13.000Z</time></trkpt><trkpt lat="39.90982" lon="-8.47317"><time>2022-01-15T10:23:23.000Z</time></trkpt><trkpt lat="39.90977" lon="-8.47309"><time>2022-01-15T10:23:33.000Z</time></trkpt><trkpt lat="39.90974" lon="-8.47308"><ele>181</ele><time>2022-01-15T10:23:43.000Z</time></trkpt><trkpt lat="39.9097" lon="-8.47304"><time>2022-01-15T10:23:53.000Z</time></trkpt><trkpt lat="39.90971" lon="-8.47304"><time>2022-01-15T10:24:03.000Z</time></trkpt><trkpt lat="39.90971" lon="-8.47301"><time>2022-01-15T10:24:13.000Z</time></trkpt><trkpt lat="39.90969" lon="-8.47292"><time>2022-01-15T10:24:23.000Z</time></trkpt><trkpt lat="39.90967" lon="-8.4729"><time>2022-01-15T10:24:33.000Z</time></trkpt><trkpt lat="39.90959" lon="-8.47277"><ele>184</ele><time>2022-01-15T10:24:43.000Z</time></trkpt><trkpt lat="39.90953" lon="-8.47272"><time>2022-01-15T10:24:53.000Z</time></trkpt><trkpt lat="39.90948" lon="-8.47272"><time>2022-01-15T10:25:03.000Z</time></trkpt><trkpt lat="39.90943" lon="-8.47268"><time>2022-01-15T10:25:13.000Z</time></trkpt><trkpt lat="39.90931" lon="-8.47259"><ele>184</ele><time>2022-01-15T10:25:23.000Z</time></trkpt><trkpt lat="39.90929" lon="-8.47257"><time>2022-01-15T10:25:33.000Z</time></trkpt><trkpt lat="39.90926" lon="-8.47256"><time>2022-01-15T10:25:43.000Z</time></trkpt><trkpt lat="39.90925" lon="-8.47254"><time>2022-01-15T10:25:53.000Z</time></trkpt><trkpt lat="39.90912" lon="-8.47235"><ele>184</ele><time>2022-01-15T10:26:03.000Z</time></trkpt><trkpt lat="39.90903" lon="-8.47223"><time>2022-01-15T10:26:13.000Z</time></trkpt><trkpt lat="39.90888" lon="-8.4721"><ele>180</ele><time>2022-01-15T10:26:23.000Z</time></trkpt><trkpt lat="39.90885" lon="-8.47207"><time>2022-01-15T10:26:33.000Z</time></trkpt><trkpt lat="39.90882" lon="-8.47202"><time>2022-01-15T10:26:43.000Z</time></trkpt><trkpt lat="39.90877" lon="-8.47198"><time>2022-01-15T10:26:53.000Z</time></trkpt><trkpt lat="39.90866" lon="-8.47195"><ele>178</ele><time>2022-01-15T10:27:03.000Z</time></trkpt><trkpt lat="39.90865" lon="-8.47194"><time>2022-01-15T10:27:13.000Z</time></trkpt><trkpt lat="39.9086" lon="-8.47189"><time>2022-01-15T10:27:23.000Z</time></trkpt><trkpt lat="39.90857" lon="-8.47187"><time>2022-01-15T10:27:33.000Z</time></trkpt><trkpt lat="39.90856" lon="-8.47186"><time>2022-01-15T10:27:43.000Z</time></trkpt><trkpt lat="39.90856" lon="-8.47182"><time>2022-01-15T10:27:53.000Z</time></trkpt><trkpt lat="39.90856" lon="-8.47178"><time>2022-01-15T10:28:03.000Z</time></trkpt><trkpt lat="39.90853" lon="-8.47167"><ele>178</ele><time>2022-01-15T10:28:13.000Z</time></trkpt><trkpt lat="39.90841" lon="-8.47152"><time>2022-01-15T10:28:23.000Z</time></trkpt><trkpt lat="39.90814" lon="-8.47133"><ele>179</ele><time>2022-01-15T10:28:33.000Z</time></trkpt><trkpt lat="39.90803" lon="-8.47123"><time>2022-01-15T10:28:43.000Z</time></trkpt><trkpt lat="39.90787" lon="-8.47122"><ele>181</ele><time>2022-01-15T10:28:53.000Z</time></trkpt><trkpt lat="39.9077" lon="-8.47119"><time>2022-01-15T10:29:03.000Z</time></trkpt><trkpt lat="39.90766" lon="-8.47116"><ele>185</ele><time>2022-01-15T10:29:13.000Z</time></trkpt><trkpt lat="39.90759" lon="-8.47114"><time>2022-01-15T10:29:23.000Z</time></trkpt><trkpt lat="39.90754" lon="-8.47116"><time>2022-01-15T10:29:33.000Z</time></trkpt><trkpt lat="39.90751" lon="-8.47119"><time>2022-01-15T10:29:43.000Z</time></trkpt><trkpt lat="39.9075" lon="-8.47118"><time>2022-01-15T10:29:53.000Z</time></trkpt><trkpt lat="39.90745" lon="-8.47118"><ele>185</ele><time>2022-01-15T10:30:03.000Z</time></trkpt><trkpt lat="39.90744" lon="-8.47115"><time>2022-01-15T10:30:13.000Z</time></trkpt><trkpt lat="39.90744" lon="-8.47105"><time>2022-01-15T10:30:23.000Z</time></trkpt><trkpt lat="39.9074" lon="-8.47094"><time>2022-01-15T10:30:33.000Z</time></trkpt><trkpt lat="39.90734" lon="-8.4708"><ele>184</ele><time>2022-01-15T10:30:43.000Z</time></trkpt><trkpt lat="39.90721" lon="-8.47069"><time>2022-01-15T10:30:53.000Z</time></trkpt><trkpt lat="39.90689" lon="-8.47047"><ele>183</ele><time>2022-01-15T10:31:03.000Z</time></trkpt><trkpt lat="39.90685" lon="-8.47048"><time>2022-01-15T10:31:13.000Z</time></trkpt><trkpt lat="39.90681" lon="-8.47049"><time>2022-01-15T10:31:23.000Z</time></trkpt><trkpt lat="39.90671" lon="-8.47057"><time>2022-01-15T10:31:33.000Z</time></trkpt><trkpt lat="39.90665" lon="-8.47064"><ele>182</ele><time>2022-01-15T10:31:43.000Z</time></trkpt><trkpt lat="39.90658" lon="-8.47065"><time>2022-01-15T10:31:53.000Z</time></trkpt><trkpt lat="39.90653" lon="-8.47064"><time>2022-01-15T10:32:03.000Z</time></trkpt><trkpt lat="39.9064" lon="-8.47047"><ele>182</ele><time>2022-01-15T10:32:13.000Z</time></trkpt><trkpt lat="39.90637" lon="-8.47041"><time>2022-01-15T10:32:23.000Z</time></trkpt><trkpt lat="39.90635" lon="-8.4703"><time>2022-01-15T10:32:33.000Z</time></trkpt><trkpt lat="39.90632" lon="-8.47023"><time>2022-01-15T10:32:43.000Z</time></trkpt><trkpt lat="39.90631" lon="-8.47013"><ele>185</ele><time>2022-01-15T10:32:53.000Z</time></trkpt><trkpt lat="39.90632" lon="-8.47003"><time>2022-01-15T10:33:03.000Z</time></trkpt><trkpt lat="39.90631" lon="-8.46993"><time>2022-01-15T10:33:13.000Z</time></trkpt><trkpt lat="39.90631" lon="-8.4697"><ele>191</ele><time>2022-01-15T10:30:19.000Z</time></trkpt><trkpt lat="39.90632" lon="-8.46946"><time>2022-01-15T10:30:29.000Z</time></trkpt><trkpt lat="39.90634" lon="-8.46929"><ele>197</ele><time>2022-01-15T10:30:39.000Z</time></trkpt><trkpt lat="39.90637" lon="-8.46923"><time>2022-01-15T10:30:49.000Z</time></trkpt><trkpt lat="39.90637" lon="-8.46919"><time>2022-01-15T10:30:59.000Z</time></trkpt><trkpt lat="39.90639" lon="-8.46904"><time>2022-01-15T10:31:09.000Z</time></trkpt><trkpt lat="39.90639" lon="-8.46895"><ele>197</ele><time>2022-01-15T10:31:30.000Z</time></trkpt><trkpt lat="39.90635" lon="-8.46886"><time>2022-01-15T10:31:40.000Z</time></trkpt><trkpt lat="39.90624" lon="-8.46868"><ele>199</ele><time>2022-01-15T10:31:46.000Z</time></trkpt><trkpt lat="39.90614" lon="-8.46855"><time>2022-01-15T10:31:56.000Z</time></trkpt><trkpt lat="39.90607" lon="-8.46853"><ele>199</ele><time>2022-01-15T10:32:01.000Z</time></trkpt><trkpt lat="39.9058" lon="-8.46858"><ele>197</ele><time>2022-01-15T10:32:11.000Z</time></trkpt><trkpt lat="39.90568" lon="-8.46855"><time>2022-01-15T10:32:21.000Z</time></trkpt><trkpt lat="39.90549" lon="-8.46843"><ele>188</ele><time>2022-01-15T10:32:31.000Z</time></trkpt><trkpt lat="39.90535" lon="-8.46832"><time>2022-01-15T10:32:41.000Z</time></trkpt><trkpt lat="39.90519" lon="-8.46827"><ele>184</ele><time>2022-01-15T10:32:51.000Z</time></trkpt><trkpt lat="39.90514" lon="-8.46826"><time>2022-01-15T10:33:01.000Z</time></trkpt><trkpt lat="39.90488" lon="-8.46815"><ele>184</ele><time>2022-01-15T10:33:11.000Z</time></trkpt><trkpt lat="39.9047" lon="-8.4681"><time>2022-01-15T10:33:21.000Z</time></trkpt><trkpt lat="39.90443" lon="-8.46809"><ele>182</ele><time>2022-01-15T10:33:31.000Z</time></trkpt><trkpt lat="39.90425" lon="-8.4681"><time>2022-01-15T10:33:41.000Z</time></trkpt><trkpt lat="39.90413" lon="-8.46813"><ele>175</ele><time>2022-01-15T10:33:51.000Z</time></trkpt><trkpt lat="39.90401" lon="-8.46819"><time>2022-01-15T10:34:01.000Z</time></trkpt><trkpt lat="39.90393" lon="-8.46822"><time>2022-01-15T10:34:11.000Z</time></trkpt><trkpt lat="39.90388" lon="-8.46822"><ele>173</ele><time>2022-01-15T10:34:21.000Z</time></trkpt><trkpt lat="39.90379" lon="-8.4682"><time>2022-01-15T10:34:31.000Z</time></trkpt><trkpt lat="39.90374" lon="-8.46817"><time>2022-01-15T10:34:41.000Z</time></trkpt><trkpt lat="39.9037" lon="-8.46813"><time>2022-01-15T10:34:51.000Z</time></trkpt><trkpt lat="39.90367" lon="-8.46798"><ele>174</ele><time>2022-01-15T10:33:43.000Z</time></trkpt><trkpt lat="39.90369" lon="-8.46774"><time>2022-01-15T10:33:53.000Z</time></trkpt><trkpt lat="39.90373" lon="-8.46761"><ele>175</ele><time>2022-01-15T10:33:54.000Z</time></trkpt><trkpt lat="39.90377" lon="-8.46749"><time>2022-01-15T10:34:04.000Z</time></trkpt><trkpt lat="39.90381" lon="-8.46736"><ele>175</ele><time>2022-01-15T10:34:02.000Z</time></trkpt><trkpt lat="39.90392" lon="-8.46708"><ele>175</ele><time>2022-01-15T10:34:11.000Z</time></trkpt><trkpt lat="39.90406" lon="-8.46663"><ele>175</ele><time>2022-01-15T10:34:21.000Z</time></trkpt><trkpt lat="39.90409" lon="-8.46651"><time>2022-01-15T10:34:31.000Z</time></trkpt><trkpt lat="39.9041" lon="-8.46638"><time>2022-01-15T10:34:41.000Z</time></trkpt><trkpt lat="39.90409" lon="-8.46568"><ele>174</ele><time>2022-01-15T10:34:57.000Z</time></trkpt><trkpt lat="39.90412" lon="-8.46546"><time>2022-01-15T10:35:07.000Z</time></trkpt><trkpt lat="39.9041" lon="-8.46533"><ele>173</ele><time>2022-01-15T10:35:17.000Z</time></trkpt><trkpt lat="39.90411" lon="-8.4652"><time>2022-01-15T10:35:27.000Z</time></trkpt><trkpt lat="39.9041" lon="-8.46496"><ele>173</ele><time>2022-01-15T10:35:37.000Z</time></trkpt><trkpt lat="39.90408" lon="-8.4648"><time>2022-01-15T10:35:47.000Z</time></trkpt><trkpt lat="39.90394" lon="-8.46442"><ele>174</ele><time>2022-01-15T10:35:37.000Z</time></trkpt><trkpt lat="39.90387" lon="-8.46425"><time>2022-01-15T10:35:47.000Z</time></trkpt><trkpt lat="39.90383" lon="-8.46409"><ele>176</ele><time>2022-01-15T10:35:48.000Z</time></trkpt><trkpt lat="39.90372" lon="-8.46385"><ele>179</ele><time>2022-01-15T10:35:58.000Z</time></trkpt><trkpt lat="39.90368" lon="-8.46377"><time>2022-01-15T10:36:08.000Z</time></trkpt><trkpt lat="39.9036" lon="-8.46355"><ele>183</ele><time>2022-01-15T10:36:18.000Z</time></trkpt><trkpt lat="39.90353" lon="-8.4633"><time>2022-01-15T10:36:28.000Z</time></trkpt><trkpt lat="39.90352" lon="-8.46315"><ele>187</ele><time>2022-01-15T10:36:38.000Z</time></trkpt><trkpt lat="39.90354" lon="-8.46299"><time>2022-01-15T10:36:48.000Z</time></trkpt><trkpt lat="39.90354" lon="-8.46295"><time>2022-01-15T10:36:58.000Z</time></trkpt><trkpt lat="39.90355" lon="-8.46289"><time>2022-01-15T10:37:08.000Z</time></trkpt><trkpt lat="39.90357" lon="-8.46274"><ele>189</ele><time>2022-01-15T10:37:18.000Z</time></trkpt><trkpt lat="39.9036" lon="-8.46267"><time>2022-01-15T10:37:28.000Z</time></trkpt><trkpt lat="39.90363" lon="-8.46254"><time>2022-01-15T10:37:38.000Z</time></trkpt><trkpt lat="39.90371" lon="-8.46212"><ele>192</ele><time>2022-01-15T10:37:20.000Z</time></trkpt><trkpt lat="39.90372" lon="-8.462"><time>2022-01-15T10:37:30.000Z</time></trkpt><trkpt lat="39.90373" lon="-8.46189"><time>2022-01-15T10:37:40.000Z</time></trkpt><trkpt lat="39.90372" lon="-8.46178"><ele>193</ele><time>2022-01-15T10:37:40.000Z</time></trkpt><trkpt lat="39.90366" lon="-8.46151"><ele>193</ele><time>2022-01-15T10:37:52.000Z</time></trkpt><trkpt lat="39.90365" lon="-8.46135"><time>2022-01-15T10:38:02.000Z</time></trkpt><trkpt lat="39.90367" lon="-8.46112"><ele>196</ele><time>2022-01-15T10:38:04.000Z</time></trkpt><trkpt lat="39.90382" lon="-8.46087"><ele>202</ele><time>2022-01-15T10:38:14.000Z</time></trkpt><trkpt lat="39.90388" lon="-8.46079"><time>2022-01-15T10:38:24.000Z</time></trkpt><trkpt lat="39.90395" lon="-8.46068"><time>2022-01-15T10:38:34.000Z</time></trkpt><trkpt lat="39.90404" lon="-8.46056"><ele>201</ele><time>2022-01-15T10:38:44.000Z</time></trkpt><trkpt lat="39.90406" lon="-8.46053"><time>2022-01-15T10:38:54.000Z</time></trkpt><trkpt lat="39.90409" lon="-8.46043"><time>2022-01-15T10:39:04.000Z</time></trkpt><trkpt lat="39.90412" lon="-8.4602"><ele>201</ele><time>2022-01-15T10:38:41.000Z</time></trkpt><trkpt lat="39.90417" lon="-8.46001"><time>2022-01-15T10:38:51.000Z</time></trkpt><trkpt lat="39.90422" lon="-8.45988"><ele>202</ele><time>2022-01-15T10:38:51.000Z</time></trkpt><trkpt lat="39.90426" lon="-8.45966"><time>2022-01-15T10:39:01.000Z</time></trkpt><trkpt lat="39.90429" lon="-8.45955"><ele>206</ele><time>2022-01-15T10:39:02.000Z</time></trkpt><trkpt lat="39.90438" lon="-8.4594"><time>2022-01-15T10:39:12.000Z</time></trkpt><trkpt lat="39.90447" lon="-8.4593"><ele>210</ele><time>2022-01-15T10:39:13.000Z</time></trkpt><trkpt lat="39.9045" lon="-8.45926"><time>2022-01-15T10:39:23.000Z</time></trkpt><trkpt lat="39.9046" lon="-8.45904"><ele>215</ele><time>2022-01-15T10:39:23.000Z</time></trkpt><trkpt lat="39.90464" lon="-8.45889"><time>2022-01-15T10:39:33.000Z</time></trkpt><trkpt lat="39.90465" lon="-8.45875"><ele>218</ele><time>2022-01-15T10:39:32.000Z</time></trkpt><trkpt lat="39.90467" lon="-8.45862"><time>2022-01-15T10:39:42.000Z</time></trkpt><trkpt lat="39.90471" lon="-8.45846"><ele>220</ele><time>2022-01-15T10:39:41.000Z</time></trkpt><trkpt lat="39.90478" lon="-8.4583"><time>2022-01-15T10:39:51.000Z</time></trkpt><trkpt lat="39.90482" lon="-8.45818"><ele>220</ele><time>2022-01-15T10:39:51.000Z</time></trkpt><trkpt lat="39.90489" lon="-8.45803"><time>2022-01-15T10:40:01.000Z</time></trkpt><trkpt lat="39.90497" lon="-8.45783"><ele>221</ele><time>2022-01-15T10:40:03.000Z</time></trkpt><trkpt lat="39.90502" lon="-8.45757"><time>2022-01-15T10:40:13.000Z</time></trkpt><trkpt lat="39.90503" lon="-8.45747"><ele>222</ele><time>2022-01-15T10:40:23.000Z</time></trkpt><trkpt lat="39.90503" lon="-8.45733"><time>2022-01-15T10:40:33.000Z</time></trkpt><trkpt lat="39.90504" lon="-8.45723"><time>2022-01-15T10:40:43.000Z</time></trkpt><trkpt lat="39.90506" lon="-8.45713"><ele>224</ele><time>2022-01-15T10:40:53.000Z</time></trkpt><trkpt lat="39.90507" lon="-8.4571"><time>2022-01-15T10:41:03.000Z</time></trkpt><trkpt lat="39.90513" lon="-8.45699"><time>2022-01-15T10:41:13.000Z</time></trkpt><trkpt lat="39.90525" lon="-8.45687"><ele>229</ele><time>2022-01-15T10:41:23.000Z</time></trkpt><trkpt lat="39.90534" lon="-8.45681"><time>2022-01-15T10:41:33.000Z</time></trkpt><trkpt lat="39.90536" lon="-8.45682"><time>2022-01-15T10:41:43.000Z</time></trkpt><trkpt lat="39.90537" lon="-8.45681"><time>2022-01-15T10:41:53.000Z</time></trkpt><trkpt lat="39.90535" lon="-8.45684"><time>2022-01-15T10:42:03.000Z</time></trkpt><trkpt lat="39.90538" lon="-8.45684"><time>2022-01-15T10:42:13.000Z</time></trkpt><trkpt lat="39.90545" lon="-8.45677"><ele>229</ele><time>2022-01-15T10:42:23.000Z</time></trkpt><trkpt lat="39.90551" lon="-8.45676"><time>2022-01-15T10:42:33.000Z</time></trkpt><trkpt lat="39.90557" lon="-8.45674"><time>2022-01-15T10:42:43.000Z</time></trkpt><trkpt lat="39.9056" lon="-8.45675"><time>2022-01-15T10:42:53.000Z</time></trkpt><trkpt lat="39.90583" lon="-8.45675"><ele>233</ele><time>2022-01-15T10:42:11.000Z</time></trkpt><trkpt lat="39.90611" lon="-8.45681"><ele>237</ele><time>2022-01-15T10:42:29.000Z</time></trkpt><trkpt lat="39.90621" lon="-8.45686"><time>2022-01-15T10:42:39.000Z</time></trkpt><trkpt lat="39.90634" lon="-8.45689"><ele>237</ele><time>2022-01-15T10:42:45.000Z</time></trkpt><trkpt lat="39.90658" lon="-8.45697"><ele>237</ele><time>2022-01-15T10:43:01.000Z</time></trkpt><trkpt lat="39.90681" lon="-8.45707"><ele>237</ele><time>2022-01-15T10:43:14.000Z</time></trkpt><trkpt lat="39.90706" lon="-8.45709"><ele>237</ele><time>2022-01-15T10:43:24.000Z</time></trkpt><trkpt lat="39.9071" lon="-8.45708"><time>2022-01-15T10:43:34.000Z</time></trkpt><trkpt lat="39.90715" lon="-8.45704"><time>2022-01-15T10:43:44.000Z</time></trkpt><trkpt lat="39.90733" lon="-8.45682"><ele>239</ele><time>2022-01-15T10:43:54.000Z</time></trkpt><trkpt lat="39.90736" lon="-8.45677"><time>2022-01-15T10:44:04.000Z</time></trkpt><trkpt lat="39.90752" lon="-8.45656"><ele>243</ele><time>2022-01-15T10:44:14.000Z</time></trkpt><trkpt lat="39.90759" lon="-8.45641"><time>2022-01-15T10:44:24.000Z</time></trkpt><trkpt lat="39.90763" lon="-8.45634"><time>2022-01-15T10:44:34.000Z</time></trkpt><trkpt lat="39.90764" lon="-8.45629"><ele>243</ele><time>2022-01-15T10:44:44.000Z</time></trkpt><trkpt lat="39.90764" lon="-8.45612"><time>2022-01-15T10:44:54.000Z</time></trkpt><trkpt lat="39.90765" lon="-8.45609"><time>2022-01-15T10:45:04.000Z</time></trkpt><trkpt lat="39.90767" lon="-8.45584"><ele>243</ele><time>2022-01-15T10:45:14.000Z</time></trkpt><trkpt lat="39.90767" lon="-8.45574"><time>2022-01-15T10:45:24.000Z</time></trkpt><trkpt lat="39.90763" lon="-8.4556"><time>2022-01-15T10:45:34.000Z</time></trkpt><trkpt lat="39.90763" lon="-8.45555"><ele>242</ele><time>2022-01-15T10:45:44.000Z</time></trkpt><trkpt lat="39.90759" lon="-8.45534"><time>2022-01-15T10:45:54.000Z</time></trkpt><trkpt lat="39.90758" lon="-8.45526"><ele>241</ele><time>2022-01-15T10:46:04.000Z</time></trkpt><trkpt lat="39.90753" lon="-8.45504"><time>2022-01-15T10:46:14.000Z</time></trkpt><trkpt lat="39.90749" lon="-8.45477"><ele>236</ele><time>2022-01-15T10:46:24.000Z</time></trkpt><trkpt lat="39.90747" lon="-8.45467"><time>2022-01-15T10:46:34.000Z</time></trkpt><trkpt lat="39.90733" lon="-8.45435"><ele>235</ele><time>2022-01-15T10:45:36.000Z</time></trkpt><trkpt lat="39.9073" lon="-8.45432"><time>2022-01-15T10:45:46.000Z</time></trkpt><trkpt lat="39.90717" lon="-8.45413"><ele>234</ele><time>2022-01-15T10:45:47.000Z</time></trkpt><trkpt lat="39.90713" lon="-8.45396"><time>2022-01-15T10:45:57.000Z</time></trkpt><trkpt lat="39.90715" lon="-8.45388"><time>2022-01-15T10:46:07.000Z</time></trkpt><trkpt lat="39.90717" lon="-8.45386"><ele>234</ele><time>2022-01-15T10:46:17.000Z</time></trkpt><trkpt lat="39.90727" lon="-8.45381"><time>2022-01-15T10:46:27.000Z</time></trkpt><trkpt lat="39.90737" lon="-8.45374"><ele>234</ele><time>2022-01-15T10:46:37.000Z</time></trkpt><trkpt lat="39.90745" lon="-8.45365"><time>2022-01-15T10:46:47.000Z</time></trkpt><trkpt lat="39.90747" lon="-8.45362"><time>2022-01-15T10:46:57.000Z</time></trkpt><trkpt lat="39.90748" lon="-8.4536"><time>2022-01-15T10:47:07.000Z</time></trkpt><trkpt lat="39.90749" lon="-8.45346"><ele>241</ele><time>2022-01-15T10:47:17.000Z</time></trkpt><trkpt lat="39.90747" lon="-8.45336"><time>2022-01-15T10:47:27.000Z</time></trkpt><trkpt lat="39.90744" lon="-8.45322"><time>2022-01-15T10:47:37.000Z</time></trkpt><trkpt lat="39.9074" lon="-8.45314"><ele>242</ele><time>2022-01-15T10:47:47.000Z</time></trkpt><trkpt lat="39.90732" lon="-8.45305"><time>2022-01-15T10:47:57.000Z</time></trkpt><trkpt lat="39.90727" lon="-8.45295"><time>2022-01-15T10:48:07.000Z</time></trkpt><trkpt lat="39.90718" lon="-8.45284"><ele>242</ele><time>2022-01-15T10:48:17.000Z</time></trkpt><trkpt lat="39.90714" lon="-8.45282"><time>2022-01-15T10:48:27.000Z</time></trkpt><trkpt lat="39.9071" lon="-8.45285"><time>2022-01-15T10:48:37.000Z</time></trkpt><trkpt lat="39.90699" lon="-8.45307"><ele>242</ele><time>2022-01-15T10:48:47.000Z</time></trkpt><trkpt lat="39.90693" lon="-8.4531"><time>2022-01-15T10:48:57.000Z</time></trkpt><trkpt lat="39.90641" lon="-8.45314"><ele>242</ele><time>2022-01-15T10:49:07.000Z</time></trkpt><trkpt lat="39.90636" lon="-8.45312"><time>2022-01-15T10:49:17.000Z</time></trkpt><trkpt lat="39.90631" lon="-8.45307"><time>2022-01-15T10:49:27.000Z</time></trkpt><trkpt lat="39.90618" lon="-8.45299"><ele>241</ele><time>2022-01-15T10:48:06.000Z</time></trkpt><trkpt lat="39.90578" lon="-8.453"><ele>241</ele><time>2022-01-15T10:48:16.000Z</time></trkpt><trkpt lat="39.90564" lon="-8.45299"><time>2022-01-15T10:48:26.000Z</time></trkpt><trkpt lat="39.90551" lon="-8.453"><ele>237</ele><time>2022-01-15T10:48:36.000Z</time></trkpt><trkpt lat="39.90536" lon="-8.45298"><time>2022-01-15T10:48:46.000Z</time></trkpt><trkpt lat="39.90534" lon="-8.45297"><time>2022-01-15T10:48:56.000Z</time></trkpt><trkpt lat="39.90516" lon="-8.45288"><ele>232</ele><time>2022-01-15T10:49:06.000Z</time></trkpt><trkpt lat="39.90508" lon="-8.45285"><time>2022-01-15T10:49:16.000Z</time></trkpt><trkpt lat="39.90506" lon="-8.45281"><time>2022-01-15T10:49:26.000Z</time></trkpt><trkpt lat="39.90505" lon="-8.45279"><time>2022-01-15T10:49:36.000Z</time></trkpt><trkpt lat="39.90509" lon="-8.45263"><ele>232</ele><time>2022-01-15T10:49:46.000Z</time></trkpt><trkpt lat="39.90512" lon="-8.45253"><time>2022-01-15T10:49:56.000Z</time></trkpt><trkpt lat="39.90512" lon="-8.45249"><time>2022-01-15T10:50:06.000Z</time></trkpt><trkpt lat="39.9051" lon="-8.45245"><time>2022-01-15T10:50:16.000Z</time></trkpt><trkpt lat="39.90496" lon="-8.45236"><ele>232</ele><time>2022-01-15T10:49:18.000Z</time></trkpt><trkpt lat="39.90485" lon="-8.45226"><time>2022-01-15T10:49:28.000Z</time></trkpt><trkpt lat="39.90478" lon="-8.45216"><ele>232</ele><time>2022-01-15T10:49:33.000Z</time></trkpt><trkpt lat="39.90467" lon="-8.45209"><time>2022-01-15T10:49:43.000Z</time></trkpt><trkpt lat="39.90456" lon="-8.45205"><ele>231</ele><time>2022-01-15T10:49:49.000Z</time></trkpt><trkpt lat="39.90454" lon="-8.45205"><time>2022-01-15T10:49:59.000Z</time></trkpt><trkpt lat="39.90443" lon="-8.45197"><time>2022-01-15T10:50:09.000Z</time></trkpt><trkpt lat="39.90438" lon="-8.45192"><ele>231</ele><time>2022-01-15T10:50:09.000Z</time></trkpt><trkpt lat="39.90431" lon="-8.45188"><time>2022-01-15T10:50:19.000Z</time></trkpt><trkpt lat="39.90428" lon="-8.45183"><time>2022-01-15T10:50:29.000Z</time></trkpt><trkpt lat="39.90419" lon="-8.45177"><ele>231</ele><time>2022-01-15T10:50:25.000Z</time></trkpt><trkpt lat="39.90409" lon="-8.45171"><time>2022-01-15T10:50:35.000Z</time></trkpt><trkpt lat="39.90394" lon="-8.45167"><ele>235</ele><time>2022-01-15T10:50:43.000Z</time></trkpt><trkpt lat="39.90386" lon="-8.45164"><time>2022-01-15T10:50:53.000Z</time></trkpt><trkpt lat="39.90372" lon="-8.45151"><ele>238</ele><time>2022-01-15T10:51:02.000Z</time></trkpt><trkpt lat="39.90361" lon="-8.45141"><time>2022-01-15T10:51:12.000Z</time></trkpt><trkpt lat="39.90359" lon="-8.45138"><time>2022-01-15T10:51:22.000Z</time></trkpt><trkpt lat="39.90356" lon="-8.45136"><time>2022-01-15T10:51:32.000Z</time></trkpt><trkpt lat="39.9035" lon="-8.4513"><ele>238</ele><time>2022-01-15T10:51:42.000Z</time></trkpt><trkpt lat="39.90347" lon="-8.4513"><time>2022-01-15T10:51:52.000Z</time></trkpt><trkpt lat="39.9034" lon="-8.45122"><time>2022-01-15T10:52:02.000Z</time></trkpt><trkpt lat="39.90331" lon="-8.45098"><ele>238</ele><time>2022-01-15T10:51:45.000Z</time></trkpt><trkpt lat="39.90328" lon="-8.4508"><time>2022-01-15T10:51:55.000Z</time></trkpt><trkpt lat="39.90325" lon="-8.45069"><ele>238</ele><time>2022-01-15T10:52:05.000Z</time></trkpt><trkpt lat="39.90325" lon="-8.45066"><time>2022-01-15T10:52:15.000Z</time></trkpt><trkpt lat="39.90315" lon="-8.45055"><time>2022-01-15T10:52:25.000Z</time></trkpt><trkpt lat="39.90313" lon="-8.45054"><time>2022-01-15T10:52:35.000Z</time></trkpt><trkpt lat="39.90306" lon="-8.45046"><ele>239</ele><time>2022-01-15T10:52:18.000Z</time></trkpt><trkpt lat="39.90303" lon="-8.45024"><time>2022-01-15T10:52:28.000Z</time></trkpt><trkpt lat="39.90304" lon="-8.45016"><ele>240</ele><time>2022-01-15T10:52:33.000Z</time></trkpt><trkpt lat="39.90301" lon="-8.44984"><ele>241</ele><time>2022-01-15T10:52:49.000Z</time></trkpt><trkpt lat="39.90302" lon="-8.44956"><ele>241</ele><time>2022-01-15T10:52:59.000Z</time></trkpt><trkpt lat="39.90305" lon="-8.44937"><time>2022-01-15T10:53:09.000Z</time></trkpt><trkpt lat="39.90308" lon="-8.44925"><ele>240</ele><time>2022-01-15T10:53:19.000Z</time></trkpt><trkpt lat="39.9031" lon="-8.44908"><time>2022-01-15T10:53:29.000Z</time></trkpt><trkpt lat="39.9031" lon="-8.44896"><ele>240</ele><time>2022-01-15T10:53:39.000Z</time></trkpt><trkpt lat="39.9031" lon="-8.44891"><time>2022-01-15T10:53:49.000Z</time></trkpt><trkpt lat="39.90312" lon="-8.44882"><time>2022-01-15T10:53:59.000Z</time></trkpt><trkpt lat="39.90314" lon="-8.44879"><time>2022-01-15T10:54:09.000Z</time></trkpt><trkpt lat="39.90316" lon="-8.44874"><time>2022-01-15T10:54:19.000Z</time></trkpt><trkpt lat="39.90318" lon="-8.44867"><ele>240</ele><time>2022-01-15T10:54:29.000Z</time></trkpt><trkpt lat="39.90321" lon="-8.44858"><time>2022-01-15T10:54:39.000Z</time></trkpt><trkpt lat="39.9032" lon="-8.44857"><time>2022-01-15T10:54:49.000Z</time></trkpt><trkpt lat="39.90323" lon="-8.44845"><time>2022-01-15T10:54:59.000Z</time></trkpt><trkpt lat="39.90326" lon="-8.44818"><ele>241</ele><time>2022-01-15T10:55:09.000Z</time></trkpt><trkpt lat="39.90325" lon="-8.44806"><time>2022-01-15T10:55:19.000Z</time></trkpt><trkpt lat="39.90319" lon="-8.44788"><ele>243</ele><time>2022-01-15T10:55:29.000Z</time></trkpt><trkpt lat="39.90317" lon="-8.44773"><time>2022-01-15T10:55:39.000Z</time></trkpt><trkpt lat="39.90315" lon="-8.44764"><time>2022-01-15T10:55:49.000Z</time></trkpt><trkpt lat="39.90315" lon="-8.44757"><ele>243</ele><time>2022-01-15T10:55:59.000Z</time></trkpt><trkpt lat="39.90314" lon="-8.44753"><time>2022-01-15T10:56:09.000Z</time></trkpt><trkpt lat="39.90312" lon="-8.44745"><time>2022-01-15T10:56:19.000Z</time></trkpt><trkpt lat="39.90311" lon="-8.44734"><time>2022-01-15T10:56:29.000Z</time></trkpt><trkpt lat="39.90305" lon="-8.44709"><ele>243</ele><time>2022-01-15T10:56:39.000Z</time></trkpt><trkpt lat="39.90305" lon="-8.44698"><time>2022-01-15T10:56:49.000Z</time></trkpt><trkpt lat="39.90304" lon="-8.44691"><time>2022-01-15T10:56:59.000Z</time></trkpt><trkpt lat="39.90304" lon="-8.44687"><time>2022-01-15T10:57:09.000Z</time></trkpt><trkpt lat="39.90302" lon="-8.44678"><ele>241</ele><time>2022-01-15T10:57:19.000Z</time></trkpt><trkpt lat="39.903" lon="-8.44666"><time>2022-01-15T10:57:29.000Z</time></trkpt><trkpt lat="39.90302" lon="-8.44657"><time>2022-01-15T10:57:39.000Z</time></trkpt><trkpt lat="39.90305" lon="-8.44653"><ele>241</ele><time>2022-01-15T10:57:49.000Z</time></trkpt><trkpt lat="39.9031" lon="-8.44651"><time>2022-01-15T10:57:59.000Z</time></trkpt><trkpt lat="39.90317" lon="-8.44646"><time>2022-01-15T10:58:09.000Z</time></trkpt><trkpt lat="39.90317" lon="-8.44645"><time>2022-01-15T10:58:19.000Z</time></trkpt><trkpt lat="39.90324" lon="-8.44621"><ele>239</ele><time>2022-01-15T10:58:29.000Z</time></trkpt><trkpt lat="39.90325" lon="-8.44611"><time>2022-01-15T10:58:39.000Z</time></trkpt><trkpt lat="39.90326" lon="-8.44604"><time>2022-01-15T10:58:49.000Z</time></trkpt><trkpt lat="39.90327" lon="-8.44598"><time>2022-01-15T10:58:59.000Z</time></trkpt><trkpt lat="39.90331" lon="-8.44595"><ele>231</ele><time>2022-01-15T10:59:09.000Z</time></trkpt><trkpt lat="39.90334" lon="-8.44595"><time>2022-01-15T10:59:19.000Z</time></trkpt><trkpt lat="39.90342" lon="-8.44596"><time>2022-01-15T10:59:29.000Z</time></trkpt><trkpt lat="39.90352" lon="-8.44598"><ele>230</ele><time>2022-01-15T10:59:39.000Z</time></trkpt><trkpt lat="39.90359" lon="-8.44597"><time>2022-01-15T10:59:49.000Z</time></trkpt><trkpt lat="39.90363" lon="-8.44595"><time>2022-01-15T10:59:59.000Z</time></trkpt><trkpt lat="39.90367" lon="-8.4459"><time>2022-01-15T11:00:09.000Z</time></trkpt><trkpt lat="39.90372" lon="-8.44568"><ele>228</ele><time>2022-01-15T11:00:19.000Z</time></trkpt><trkpt lat="39.90375" lon="-8.44563"><time>2022-01-15T11:00:29.000Z</time></trkpt><trkpt lat="39.90377" lon="-8.44552"><time>2022-01-15T11:00:39.000Z</time></trkpt><trkpt lat="39.90381" lon="-8.44544"><time>2022-01-15T11:00:49.000Z</time></trkpt><trkpt lat="39.90384" lon="-8.44529"><ele>227</ele><time>2022-01-15T10:58:49.000Z</time></trkpt><trkpt lat="39.90397" lon="-8.44515"><time>2022-01-15T10:58:59.000Z</time></trkpt><trkpt lat="39.90404" lon="-8.44507"><ele>227</ele><time>2022-01-15T10:59:08.000Z</time></trkpt><trkpt lat="39.90424" lon="-8.44482"><ele>224</ele><time>2022-01-15T10:59:18.000Z</time></trkpt><trkpt lat="39.90433" lon="-8.44468"><time>2022-01-15T10:59:28.000Z</time></trkpt><trkpt lat="39.90436" lon="-8.44463"><time>2022-01-15T10:59:38.000Z</time></trkpt><trkpt lat="39.90447" lon="-8.4445"><ele>222</ele><time>2022-01-15T10:59:48.000Z</time></trkpt><trkpt lat="39.90449" lon="-8.44444"><time>2022-01-15T10:59:58.000Z</time></trkpt><trkpt lat="39.90456" lon="-8.4443"><time>2022-01-15T11:00:08.000Z</time></trkpt><trkpt lat="39.90482" lon="-8.44388"><ele>221</ele><time>2022-01-15T11:00:18.000Z</time></trkpt><trkpt lat="39.90487" lon="-8.44382"><time>2022-01-15T11:00:28.000Z</time></trkpt><trkpt lat="39.90504" lon="-8.44361"><ele>220</ele><time>2022-01-15T11:00:47.000Z</time></trkpt><trkpt lat="39.90509" lon="-8.44352"><time>2022-01-15T11:00:57.000Z</time></trkpt><trkpt lat="39.90521" lon="-8.44341"><ele>220</ele><time>2022-01-15T11:01:02.000Z</time></trkpt><trkpt lat="39.90533" lon="-8.44333"><time>2022-01-15T11:01:12.000Z</time></trkpt><trkpt lat="39.90533" lon="-8.44328"><time>2022-01-15T11:01:22.000Z</time></trkpt><trkpt lat="39.90533" lon="-8.44322"><ele>219</ele><time>2022-01-15T11:01:24.000Z</time></trkpt><trkpt lat="39.90533" lon="-8.44309"><time>2022-01-15T11:01:34.000Z</time></trkpt><trkpt lat="39.90535" lon="-8.44299"><time>2022-01-15T11:01:44.000Z</time></trkpt><trkpt lat="39.90537" lon="-8.44293"><ele>218</ele><time>2022-01-15T11:01:54.000Z</time></trkpt><trkpt lat="39.90538" lon="-8.44291"><time>2022-01-15T11:02:04.000Z</time></trkpt><trkpt lat="39.90541" lon="-8.44287"><time>2022-01-15T11:02:14.000Z</time></trkpt><trkpt lat="39.9055" lon="-8.44274"><time>2022-01-15T11:02:24.000Z</time></trkpt><trkpt lat="39.90554" lon="-8.44268"><ele>218</ele><time>2022-01-15T11:02:34.000Z</time></trkpt><trkpt lat="39.90561" lon="-8.44254"><time>2022-01-15T11:02:44.000Z</time></trkpt><trkpt lat="39.90573" lon="-8.44225"><ele>213</ele><time>2022-01-15T11:02:33.000Z</time></trkpt><trkpt lat="39.90578" lon="-8.44219"><time>2022-01-15T11:02:43.000Z</time></trkpt><trkpt lat="39.90581" lon="-8.44216"><time>2022-01-15T11:02:53.000Z</time></trkpt><trkpt lat="39.90587" lon="-8.44214"><time>2022-01-15T11:03:03.000Z</time></trkpt><trkpt lat="39.9059" lon="-8.44214"><time>2022-01-15T11:03:13.000Z</time></trkpt><trkpt lat="39.90596" lon="-8.44216"><ele>213</ele><time>2022-01-15T11:02:46.000Z</time></trkpt><trkpt lat="39.90607" lon="-8.44218"><time>2022-01-15T11:02:56.000Z</time></trkpt><trkpt lat="39.90618" lon="-8.44216"><ele>213</ele><time>2022-01-15T11:03:06.000Z</time></trkpt><trkpt lat="39.90622" lon="-8.44214"><time>2022-01-15T11:03:16.000Z</time></trkpt><trkpt lat="39.90625" lon="-8.4421"><time>2022-01-15T11:03:26.000Z</time></trkpt><trkpt lat="39.90639" lon="-8.44187"><ele>212</ele><time>2022-01-15T11:03:36.000Z</time></trkpt><trkpt lat="39.90647" lon="-8.44171"><time>2022-01-15T11:03:46.000Z</time></trkpt><trkpt lat="39.90652" lon="-8.44149"><ele>212</ele><time>2022-01-15T11:03:56.000Z</time></trkpt><trkpt lat="39.90659" lon="-8.44134"><time>2022-01-15T11:04:06.000Z</time></trkpt><trkpt lat="39.90671" lon="-8.44114"><ele>211</ele><time>2022-01-15T11:04:16.000Z</time></trkpt><trkpt lat="39.90682" lon="-8.44093"><time>2022-01-15T11:04:26.000Z</time></trkpt><trkpt lat="39.90691" lon="-8.44083"><ele>212</ele><time>2022-01-15T11:04:36.000Z</time></trkpt><trkpt lat="39.90698" lon="-8.4407"><time>2022-01-15T11:04:46.000Z</time></trkpt><trkpt lat="39.907" lon="-8.44061"><time>2022-01-15T11:04:56.000Z</time></trkpt><trkpt lat="39.90704" lon="-8.44051"><ele>213</ele><time>2022-01-15T11:05:06.000Z</time></trkpt><trkpt lat="39.90705" lon="-8.44042"><time>2022-01-15T11:05:16.000Z</time></trkpt><trkpt lat="39.90713" lon="-8.4401"><ele>217</ele><time>2022-01-15T11:05:26.000Z</time></trkpt><trkpt lat="39.90713" lon="-8.44005"><time>2022-01-15T11:05:36.000Z</time></trkpt><trkpt lat="39.90712" lon="-8.43989"><time>2022-01-15T11:05:46.000Z</time></trkpt><trkpt lat="39.90714" lon="-8.43968"><ele>217</ele><time>2022-01-15T11:05:56.000Z</time></trkpt><trkpt lat="39.90717" lon="-8.43957"><time>2022-01-15T11:06:06.000Z</time></trkpt><trkpt lat="39.90719" lon="-8.43947"><time>2022-01-15T11:06:16.000Z</time></trkpt><trkpt lat="39.90726" lon="-8.43919"><ele>217</ele><time>2022-01-15T11:06:26.000Z</time></trkpt><trkpt lat="39.90735" lon="-8.43911"><time>2022-01-15T11:06:36.000Z</time></trkpt><trkpt lat="39.90745" lon="-8.43879"><ele>217</ele><time>2022-01-15T11:05:28.000Z</time></trkpt><trkpt lat="39.90753" lon="-8.43857"><time>2022-01-15T11:05:38.000Z</time></trkpt><trkpt lat="39.90757" lon="-8.43849"><ele>216</ele><time>2022-01-15T11:05:39.000Z</time></trkpt><trkpt lat="39.90769" lon="-8.43835"><time>2022-01-15T11:05:49.000Z</time></trkpt><trkpt lat="39.90776" lon="-8.43828"><ele>215</ele><time>2022-01-15T11:05:50.000Z</time></trkpt><trkpt lat="39.90794" lon="-8.43813"><ele>215</ele><time>2022-01-15T11:06:00.000Z</time></trkpt><trkpt lat="39.9081" lon="-8.43797"><time>2022-01-15T11:06:10.000Z</time></trkpt><trkpt lat="39.90835" lon="-8.43777"><ele>213</ele><time>2022-01-15T11:06:20.000Z</time></trkpt><trkpt lat="39.90849" lon="-8.43767"><time>2022-01-15T11:06:30.000Z</time></trkpt><trkpt lat="39.9086" lon="-8.43754"><ele>212</ele><time>2022-01-15T11:06:40.000Z</time></trkpt><trkpt lat="39.90868" lon="-8.43741"><time>2022-01-15T11:06:50.000Z</time></trkpt><trkpt lat="39.90871" lon="-8.43737"><time>2022-01-15T11:07:00.000Z</time></trkpt><trkpt lat="39.9088" lon="-8.43734"><ele>212</ele><time>2022-01-15T11:07:10.000Z</time></trkpt><trkpt lat="39.9089" lon="-8.4373"><time>2022-01-15T11:07:20.000Z</time></trkpt><trkpt lat="39.90891" lon="-8.43733"><time>2022-01-15T11:07:30.000Z</time></trkpt><trkpt lat="39.90893" lon="-8.43736"><time>2022-01-15T11:07:40.000Z</time></trkpt><trkpt lat="39.90896" lon="-8.43738"><time>2022-01-15T11:07:50.000Z</time></trkpt><trkpt lat="39.90901" lon="-8.43738"><ele>212</ele><time>2022-01-15T11:08:00.000Z</time></trkpt><trkpt lat="39.90936" lon="-8.43734"><ele>211</ele><time>2022-01-15T11:07:35.000Z</time></trkpt><trkpt lat="39.9096" lon="-8.43732"><ele>211</ele><time>2022-01-15T11:07:52.000Z</time></trkpt><trkpt lat="39.90977" lon="-8.43726"><time>2022-01-15T11:08:02.000Z</time></trkpt><trkpt lat="39.90984" lon="-8.43722"><ele>212</ele><time>2022-01-15T11:08:12.000Z</time></trkpt><trkpt lat="39.90995" lon="-8.43712"><time>2022-01-15T11:08:22.000Z</time></trkpt><trkpt lat="39.91005" lon="-8.43698"><ele>212</ele><time>2022-01-15T11:08:32.000Z</time></trkpt><trkpt lat="39.91015" lon="-8.43686"><time>2022-01-15T11:08:42.000Z</time></trkpt><trkpt lat="39.91025" lon="-8.43673"><ele>213</ele><time>2022-01-15T11:08:52.000Z</time></trkpt><trkpt lat="39.91036" lon="-8.43661"><time>2022-01-15T11:09:02.000Z</time></trkpt><trkpt lat="39.9104" lon="-8.43656"><time>2022-01-15T11:09:12.000Z</time></trkpt><trkpt lat="39.91043" lon="-8.43653"><ele>213</ele><time>2022-01-15T11:09:22.000Z</time></trkpt><trkpt lat="39.91055" lon="-8.43638"><time>2022-01-15T11:09:32.000Z</time></trkpt><trkpt lat="39.91064" lon="-8.43625"><ele>213</ele><time>2022-01-15T11:09:42.000Z</time></trkpt><trkpt lat="39.91077" lon="-8.43612"><time>2022-01-15T11:09:52.000Z</time></trkpt><trkpt lat="39.91085" lon="-8.43609"><ele>213</ele><time>2022-01-15T11:10:02.000Z</time></trkpt><trkpt lat="39.91096" lon="-8.43608"><time>2022-01-15T11:10:12.000Z</time></trkpt><trkpt lat="39.91101" lon="-8.43609"><time>2022-01-15T11:10:22.000Z</time></trkpt><trkpt lat="39.91112" lon="-8.4361"><ele>208</ele><time>2022-01-15T11:10:32.000Z</time></trkpt><trkpt lat="39.91122" lon="-8.43607"><time>2022-01-15T11:10:42.000Z</time></trkpt><trkpt lat="39.91144" lon="-8.43598"><ele>207</ele><time>2022-01-15T11:10:52.000Z</time></trkpt><trkpt lat="39.91147" lon="-8.43597"><time>2022-01-15T11:11:02.000Z</time></trkpt><trkpt lat="39.91169" lon="-8.43589"><ele>207</ele><time>2022-01-15T11:10:18.000Z</time></trkpt><trkpt lat="39.91165" lon="-8.43527"><ele>209</ele><time>2022-01-15T11:10:28.000Z</time></trkpt><trkpt lat="39.91168" lon="-8.4349"><ele>208</ele><time>2022-01-15T11:10:38.000Z</time></trkpt><trkpt lat="39.91171" lon="-8.43443"><ele>209</ele><time>2022-01-15T11:10:48.000Z</time></trkpt><trkpt lat="39.91171" lon="-8.43443"><time>2022-01-15T11:10:58.000Z</time></trkpt><trkpt lat="39.91178" lon="-8.4345"><time>2022-01-15T11:11:08.000Z</time></trkpt><trkpt lat="39.91177" lon="-8.43445"><time>2022-01-15T11:11:18.000Z</time></trkpt><trkpt lat="39.91178" lon="-8.4344"><time>2022-01-15T11:11:28.000Z</time></trkpt><trkpt lat="39.91178" lon="-8.43399"><ele>209</ele><time>2022-11-26T17:48:19.000Z</time></trkpt><trkpt lat="39.91192" lon="-8.43379"><time>2022-11-26T17:48:29.000Z</time></trkpt><trkpt lat="39.91194" lon="-8.43373"><ele>210</ele><time>2022-11-26T17:48:39.000Z</time></trkpt><trkpt lat="39.91195" lon="-8.43365"><time>2022-11-26T17:48:49.000Z</time></trkpt><trkpt lat="39.912" lon="-8.43339"><ele>209</ele><time>2022-11-26T17:47:36.000Z</time></trkpt><trkpt lat="39.91212" lon="-8.43315"><ele>208</ele><time>2022-11-26T17:47:46.000Z</time></trkpt><trkpt lat="39.91228" lon="-8.43299"><time>2022-11-26T17:47:56.000Z</time></trkpt><trkpt lat="39.91249" lon="-8.43291"><ele>206</ele><time>2022-11-26T17:46:45.000Z</time></trkpt><trkpt lat="39.91257" lon="-8.43293"><time>2022-11-26T17:46:55.000Z</time></trkpt><trkpt lat="39.91269" lon="-8.43288"><ele>206</ele><time>2022-11-26T17:47:05.000Z</time></trkpt><trkpt lat="39.91271" lon="-8.43288"><time>2022-11-26T17:47:15.000Z</time></trkpt><trkpt lat="39.91277" lon="-8.4329"><time>2022-11-26T17:47:25.000Z</time></trkpt><trkpt lat="39.9128" lon="-8.43292"><time>2022-11-26T17:47:35.000Z</time></trkpt><trkpt lat="39.91292" lon="-8.43296"><ele>207</ele><time>2022-11-26T17:46:03.000Z</time></trkpt><trkpt lat="39.913" lon="-8.43298"><time>2022-11-26T17:46:13.000Z</time></trkpt><trkpt lat="39.91302" lon="-8.433"><time>2022-11-26T17:46:23.000Z</time></trkpt><trkpt lat="39.91311" lon="-8.43306"><ele>206</ele><time>2022-11-26T17:45:46.000Z</time></trkpt><trkpt lat="39.91316" lon="-8.43311"><time>2022-11-26T17:45:56.000Z</time></trkpt><trkpt lat="39.91333" lon="-8.43321"><ele>205</ele><time>2022-11-26T17:45:24.000Z</time></trkpt><trkpt lat="39.91351" lon="-8.43333"><time>2022-11-26T17:45:34.000Z</time></trkpt><trkpt lat="39.91354" lon="-8.43334"><ele>202</ele><time>2022-11-26T17:45:44.000Z</time></trkpt><trkpt lat="39.91355" lon="-8.43336"><time>2022-11-26T17:45:54.000Z</time></trkpt><trkpt lat="39.91356" lon="-8.4334"><time>2022-11-26T17:46:04.000Z</time></trkpt><trkpt lat="39.91377" lon="-8.43351"><ele>201</ele><time>2022-11-26T17:44:41.000Z</time></trkpt><trkpt lat="39.91394" lon="-8.43365"><time>2022-11-26T17:44:51.000Z</time></trkpt><trkpt lat="39.91412" lon="-8.43364"><ele>196</ele><time>2022-11-26T17:44:08.000Z</time></trkpt><trkpt lat="39.9142" lon="-8.43343"><time>2022-11-26T17:44:18.000Z</time></trkpt><trkpt lat="39.91422" lon="-8.43338"><ele>195</ele><time>2022-11-26T17:44:28.000Z</time></trkpt><trkpt lat="39.91424" lon="-8.43326"><time>2022-11-26T17:44:38.000Z</time></trkpt><trkpt lat="39.91443" lon="-8.43281"><ele>195</ele><time>2022-11-26T17:43:10.000Z</time></trkpt><trkpt lat="39.91455" lon="-8.43259"><time>2022-11-26T17:43:20.000Z</time></trkpt><trkpt lat="39.91456" lon="-8.43253"><ele>195</ele><time>2022-11-26T17:43:30.000Z</time></trkpt><trkpt lat="39.91458" lon="-8.4325"><time>2022-11-26T17:43:40.000Z</time></trkpt><trkpt lat="39.91475" lon="-8.43202"><ele>196</ele><time>2022-11-26T17:43:50.000Z</time></trkpt><trkpt lat="39.91485" lon="-8.43179"><time>2022-11-26T17:44:00.000Z</time></trkpt><trkpt lat="39.91496" lon="-8.43156"><ele>198</ele><time>2022-11-26T17:41:39.000Z</time></trkpt><trkpt lat="39.91506" lon="-8.43132"><ele>197</ele><time>2022-11-26T17:41:49.000Z</time></trkpt><trkpt lat="39.91508" lon="-8.43131"><time>2022-11-26T17:41:59.000Z</time></trkpt><trkpt lat="39.9152" lon="-8.43136"><time>2022-11-26T17:42:09.000Z</time></trkpt><trkpt lat="39.91541" lon="-8.43147"><ele>197</ele><time>2022-11-26T17:40:38.000Z</time></trkpt><trkpt lat="39.91576" lon="-8.43161"><ele>193</ele><time>2022-11-26T17:40:48.000Z</time></trkpt><trkpt lat="39.91578" lon="-8.43163"><time>2022-11-26T17:40:58.000Z</time></trkpt><trkpt lat="39.9159" lon="-8.43167"><time>2022-11-26T17:41:08.000Z</time></trkpt><trkpt lat="39.91609" lon="-8.43172"><ele>193</ele><time>2022-11-26T17:41:18.000Z</time></trkpt><trkpt lat="39.91621" lon="-8.43191"><time>2022-11-26T17:41:28.000Z</time></trkpt><trkpt lat="39.91624" lon="-8.43215"><ele>193</ele><time>2022-11-26T17:41:38.000Z</time></trkpt><trkpt lat="39.91629" lon="-8.43216"><time>2022-11-26T17:41:48.000Z</time></trkpt><trkpt lat="39.91635" lon="-8.43213"><time>2022-11-26T17:41:58.000Z</time></trkpt><trkpt lat="39.91639" lon="-8.43201"><ele>193</ele><time>2022-11-26T17:42:08.000Z</time></trkpt><trkpt lat="39.91641" lon="-8.43196"><time>2022-11-26T17:42:18.000Z</time></trkpt><trkpt lat="39.91649" lon="-8.43186"><time>2022-11-26T17:42:28.000Z</time></trkpt><trkpt lat="39.9165" lon="-8.43184"><time>2022-11-26T17:42:38.000Z</time></trkpt><trkpt lat="39.91666" lon="-8.43179"><ele>194</ele><time>2022-11-26T17:42:48.000Z</time></trkpt><trkpt lat="39.91678" lon="-8.43177"><time>2022-11-26T17:42:58.000Z</time></trkpt><trkpt lat="39.91682" lon="-8.43175"><time>2022-11-26T17:43:08.000Z</time></trkpt><trkpt lat="39.91685" lon="-8.4317"><ele>194</ele><time>2022-11-26T17:43:18.000Z</time></trkpt><trkpt lat="39.91687" lon="-8.43162"><time>2022-11-26T17:43:28.000Z</time></trkpt><trkpt lat="39.91688" lon="-8.43151"><time>2022-11-26T17:43:38.000Z</time></trkpt><trkpt lat="39.91688" lon="-8.43146"><time>2022-11-26T17:43:48.000Z</time></trkpt><trkpt lat="39.91687" lon="-8.43145"><time>2022-11-26T17:43:58.000Z</time></trkpt><trkpt lat="39.91673" lon="-8.43109"><ele>193</ele><time>2022-01-15T11:22:14.000Z</time></trkpt><trkpt lat="39.91667" lon="-8.43075"><ele>193</ele><time>2022-01-15T11:22:24.000Z</time></trkpt><trkpt lat="39.9166" lon="-8.43039"><ele>198</ele><time>2022-01-15T11:22:34.000Z</time></trkpt><trkpt lat="39.91658" lon="-8.43023"><time>2022-01-15T11:22:44.000Z</time></trkpt><trkpt lat="39.91659" lon="-8.43017"><time>2022-01-15T11:22:54.000Z</time></trkpt><trkpt lat="39.9166" lon="-8.42999"><ele>198</ele><time>2022-01-15T11:23:04.000Z</time></trkpt><trkpt lat="39.91659" lon="-8.42981"><time>2022-01-15T11:23:14.000Z</time></trkpt><trkpt lat="39.91659" lon="-8.42949"><ele>198</ele><time>2022-01-15T11:23:24.000Z</time></trkpt><trkpt lat="39.91661" lon="-8.42939"><time>2022-01-15T11:23:34.000Z</time></trkpt><trkpt lat="39.91663" lon="-8.42927"><time>2022-01-15T11:23:44.000Z</time></trkpt><trkpt lat="39.9167" lon="-8.42886"><ele>198</ele><time>2022-01-15T11:23:54.000Z</time></trkpt><trkpt lat="39.91678" lon="-8.42863"><time>2022-01-15T11:24:04.000Z</time></trkpt><trkpt lat="39.91683" lon="-8.42843"><ele>197</ele><time>2022-01-15T11:24:14.000Z</time></trkpt><trkpt lat="39.91686" lon="-8.42837"><time>2022-01-15T11:24:24.000Z</time></trkpt><trkpt lat="39.91694" lon="-8.42812"><ele>197</ele><time>2022-01-15T11:24:34.000Z</time></trkpt><trkpt lat="39.91697" lon="-8.42792"><time>2022-01-15T11:24:44.000Z</time></trkpt><trkpt lat="39.91707" lon="-8.42757"><ele>200</ele><time>2022-01-15T11:24:54.000Z</time></trkpt><trkpt lat="39.91714" lon="-8.42736"><time>2022-01-15T11:25:04.000Z</time></trkpt><trkpt lat="39.91722" lon="-8.42716"><ele>201</ele><time>2022-01-15T11:25:14.000Z</time></trkpt><trkpt lat="39.91728" lon="-8.42715"><time>2022-01-15T11:25:24.000Z</time></trkpt><trkpt lat="39.91732" lon="-8.42717"><time>2022-01-15T11:25:34.000Z</time></trkpt><trkpt lat="39.91735" lon="-8.42712"><time>2022-01-15T11:25:44.000Z</time></trkpt><trkpt lat="39.9174" lon="-8.42701"><ele>201</ele><time>2022-01-15T11:25:54.000Z</time></trkpt><trkpt lat="39.91743" lon="-8.42695"><time>2022-01-15T11:26:04.000Z</time></trkpt><trkpt lat="39.9176" lon="-8.42682"><ele>205</ele><time>2022-01-15T11:26:14.000Z</time></trkpt><trkpt lat="39.9176" lon="-8.42672"><time>2022-01-15T11:26:24.000Z</time></trkpt><trkpt lat="39.91762" lon="-8.4267"><time>2022-01-15T11:26:34.000Z</time></trkpt><trkpt lat="39.91794" lon="-8.42657"><ele>204</ele><time>2022-01-15T11:25:33.000Z</time></trkpt><trkpt lat="39.9181" lon="-8.42648"><time>2022-01-15T11:25:43.000Z</time></trkpt><trkpt lat="39.91812" lon="-8.42646"><time>2022-01-15T11:25:53.000Z</time></trkpt><trkpt lat="39.91812" lon="-8.42645"><time>2022-01-15T11:26:03.000Z</time></trkpt><trkpt lat="39.91817" lon="-8.42641"><ele>204</ele><time>2022-01-15T11:25:53.000Z</time></trkpt><trkpt lat="39.91829" lon="-8.42637"><time>2022-01-15T11:26:03.000Z</time></trkpt><trkpt lat="39.91839" lon="-8.4263"><ele>206</ele><time>2022-01-15T11:26:13.000Z</time></trkpt><trkpt lat="39.9184" lon="-8.42629"><time>2022-01-15T11:26:23.000Z</time></trkpt><trkpt lat="39.91841" lon="-8.42625"><time>2022-01-15T11:26:33.000Z</time></trkpt><trkpt lat="39.9184" lon="-8.42618"><time>2022-01-15T11:26:43.000Z</time></trkpt><trkpt lat="39.91843" lon="-8.42615"><time>2022-01-15T11:26:53.000Z</time></trkpt><trkpt lat="39.91841" lon="-8.42615"><time>2022-01-15T11:27:03.000Z</time></trkpt><trkpt lat="39.91839" lon="-8.42613"><time>2022-01-15T11:27:13.000Z</time></trkpt><trkpt lat="39.9184" lon="-8.4261"><time>2022-01-15T11:27:23.000Z</time></trkpt><trkpt lat="39.91843" lon="-8.42606"><ele>208</ele><time>2022-01-15T11:27:33.000Z</time></trkpt><trkpt lat="39.9185" lon="-8.426"><time>2022-01-15T11:27:43.000Z</time></trkpt><trkpt lat="39.91881" lon="-8.42585"><ele>212</ele><time>2022-01-15T11:27:44.000Z</time></trkpt><trkpt lat="39.91926" lon="-8.42559"><ele>213</ele><time>2022-01-15T11:28:18.000Z</time></trkpt><trkpt lat="39.9195" lon="-8.42547"><ele>214</ele><time>2022-01-15T11:28:28.000Z</time></trkpt><trkpt lat="39.91953" lon="-8.42546"><time>2022-01-15T11:28:38.000Z</time></trkpt><trkpt lat="39.91965" lon="-8.42539"><time>2022-01-15T11:28:48.000Z</time></trkpt><trkpt lat="39.91981" lon="-8.42534"><ele>214</ele><time>2022-01-15T11:29:01.000Z</time></trkpt><trkpt lat="39.92011" lon="-8.42526"><ele>214</ele><time>2022-01-15T11:29:11.000Z</time></trkpt><trkpt lat="39.92017" lon="-8.42523"><time>2022-01-15T11:29:21.000Z</time></trkpt><trkpt lat="39.92022" lon="-8.42524"><time>2022-01-15T11:29:31.000Z</time></trkpt><trkpt lat="39.92028" lon="-8.42522"><time>2022-01-15T11:29:41.000Z</time></trkpt><trkpt lat="39.92035" lon="-8.42518"><ele>215</ele><time>2022-01-15T11:29:51.000Z</time></trkpt><trkpt lat="39.92038" lon="-8.42516"><time>2022-01-15T11:30:01.000Z</time></trkpt><trkpt lat="39.92041" lon="-8.42512"><time>2022-01-15T11:30:11.000Z</time></trkpt><trkpt lat="39.9204" lon="-8.42508"><time>2022-01-15T11:30:21.000Z</time></trkpt><trkpt lat="39.92044" lon="-8.42502"><time>2022-01-15T11:30:31.000Z</time></trkpt><trkpt lat="39.92044" lon="-8.42501"><time>2022-01-15T11:30:41.000Z</time></trkpt><trkpt lat="39.92049" lon="-8.425"><ele>217</ele><time>2022-01-15T11:30:51.000Z</time></trkpt><trkpt lat="39.92056" lon="-8.42492"><time>2022-01-15T11:31:01.000Z</time></trkpt><trkpt lat="39.92058" lon="-8.42487"><time>2022-01-15T11:31:11.000Z</time></trkpt><trkpt lat="39.92058" lon="-8.42484"><time>2022-01-15T11:31:21.000Z</time></trkpt><trkpt lat="39.92057" lon="-8.42484"><time>2022-01-15T11:31:31.000Z</time></trkpt><trkpt lat="39.92057" lon="-8.42482"><time>2022-01-15T11:31:41.000Z</time></trkpt><trkpt lat="39.92065" lon="-8.42472"><ele>220</ele><time>2022-01-15T11:31:51.000Z</time></trkpt><trkpt lat="39.92066" lon="-8.42471"><time>2022-01-15T11:32:01.000Z</time></trkpt><trkpt lat="39.92064" lon="-8.42468"><time>2022-01-15T11:32:11.000Z</time></trkpt><trkpt lat="39.92058" lon="-8.42462"><time>2022-01-15T11:32:21.000Z</time></trkpt><trkpt lat="39.92058" lon="-8.42458"><time>2022-01-15T11:32:31.000Z</time></trkpt><trkpt lat="39.92056" lon="-8.42454"><time>2022-01-15T11:32:41.000Z</time></trkpt><trkpt lat="39.92055" lon="-8.42454"><time>2022-01-15T11:32:51.000Z</time></trkpt><trkpt lat="39.92058" lon="-8.42443"><ele>227</ele><time>2022-01-15T11:33:01.000Z</time></trkpt><trkpt lat="39.92057" lon="-8.4244"><time>2022-01-15T11:33:11.000Z</time></trkpt><trkpt lat="39.92055" lon="-8.42435"><time>2022-01-15T11:33:21.000Z</time></trkpt><trkpt lat="39.92052" lon="-8.42432"><time>2022-01-15T11:33:31.000Z</time></trkpt><trkpt lat="39.92051" lon="-8.4243"><time>2022-01-15T11:33:41.000Z</time></trkpt><trkpt lat="39.92047" lon="-8.42426"><time>2022-01-15T11:33:51.000Z</time></trkpt><trkpt lat="39.92047" lon="-8.42423"><time>2022-01-15T11:34:01.000Z</time></trkpt><trkpt lat="39.92047" lon="-8.42418"><ele>237</ele><time>2022-01-15T11:34:11.000Z</time></trkpt><trkpt lat="39.92046" lon="-8.42416"><time>2022-01-15T11:34:21.000Z</time></trkpt><trkpt lat="39.92033" lon="-8.42409"><time>2022-01-15T11:34:31.000Z</time></trkpt><trkpt lat="39.92031" lon="-8.4241"><time>2022-01-15T11:34:41.000Z</time></trkpt><trkpt lat="39.92026" lon="-8.42403"><ele>237</ele><time>2022-01-15T11:34:51.000Z</time></trkpt><trkpt lat="39.92026" lon="-8.42397"><time>2022-01-15T11:35:01.000Z</time></trkpt><trkpt lat="39.92025" lon="-8.42395"><time>2022-01-15T11:35:11.000Z</time></trkpt><trkpt lat="39.92025" lon="-8.42393"><time>2022-01-15T11:35:21.000Z</time></trkpt><trkpt lat="39.92035" lon="-8.42386"><time>2022-01-15T11:35:31.000Z</time></trkpt><trkpt lat="39.9204" lon="-8.42382"><ele>240</ele><time>2022-01-15T11:35:41.000Z</time></trkpt><trkpt lat="39.92043" lon="-8.42376"><time>2022-01-15T11:35:51.000Z</time></trkpt><trkpt lat="39.92041" lon="-8.42376"><time>2022-01-15T11:36:01.000Z</time></trkpt><trkpt lat="39.92045" lon="-8.42374"><time>2022-01-15T11:36:11.000Z</time></trkpt><trkpt lat="39.92046" lon="-8.42368"><time>2022-01-15T11:36:21.000Z</time></trkpt><trkpt lat="39.9204" lon="-8.42352"><ele>242</ele><time>2022-01-15T11:34:09.000Z</time></trkpt><trkpt lat="39.92039" lon="-8.42344"><time>2022-01-15T11:34:19.000Z</time></trkpt><trkpt lat="39.92038" lon="-8.42341"><time>2022-01-15T11:34:29.000Z</time></trkpt><trkpt lat="39.92035" lon="-8.42338"><time>2022-01-15T11:34:39.000Z</time></trkpt><trkpt lat="39.92034" lon="-8.42335"><time>2022-01-15T11:34:49.000Z</time></trkpt><trkpt lat="39.92034" lon="-8.42332"><time>2022-01-15T11:34:59.000Z</time></trkpt><trkpt lat="39.92035" lon="-8.42329"><ele>246</ele><time>2022-01-15T11:35:09.000Z</time></trkpt><trkpt lat="39.92036" lon="-8.42321"><time>2022-01-15T11:35:19.000Z</time></trkpt><trkpt lat="39.92035" lon="-8.42313"><time>2022-01-15T11:35:29.000Z</time></trkpt><trkpt lat="39.92035" lon="-8.42309"><time>2022-01-15T11:35:39.000Z</time></trkpt><trkpt lat="39.92039" lon="-8.42303"><ele>251</ele><time>2022-01-15T11:35:49.000Z</time></trkpt><trkpt lat="39.92039" lon="-8.42302"><time>2022-01-15T11:35:59.000Z</time></trkpt><trkpt lat="39.92041" lon="-8.42296"><time>2022-01-15T11:36:09.000Z</time></trkpt><trkpt lat="39.92043" lon="-8.4229"><time>2022-01-15T11:36:19.000Z</time></trkpt><trkpt lat="39.92048" lon="-8.42281"><time>2022-01-15T11:36:29.000Z</time></trkpt><trkpt lat="39.92051" lon="-8.42272"><ele>253</ele><time>2022-01-15T11:36:39.000Z</time></trkpt><trkpt lat="39.92054" lon="-8.42269"><time>2022-01-15T11:36:49.000Z</time></trkpt><trkpt lat="39.92058" lon="-8.42266"><time>2022-01-15T11:36:59.000Z</time></trkpt><trkpt lat="39.92063" lon="-8.42255"><time>2022-01-15T11:37:09.000Z</time></trkpt><trkpt lat="39.92067" lon="-8.42252"><ele>255</ele><time>2022-01-15T11:37:19.000Z</time></trkpt><trkpt lat="39.92066" lon="-8.42249"><time>2022-01-15T11:37:29.000Z</time></trkpt><trkpt lat="39.9207" lon="-8.4224"><time>2022-01-15T11:37:39.000Z</time></trkpt><trkpt lat="39.92075" lon="-8.42233"><time>2022-01-15T11:37:49.000Z</time></trkpt><trkpt lat="39.92082" lon="-8.42229"><ele>259</ele><time>2022-01-15T11:37:59.000Z</time></trkpt><trkpt lat="39.92086" lon="-8.42228"><time>2022-01-15T11:38:09.000Z</time></trkpt><trkpt lat="39.92089" lon="-8.42227"><time>2022-01-15T11:38:19.000Z</time></trkpt><trkpt lat="39.92096" lon="-8.42226"><time>2022-01-15T11:38:29.000Z</time></trkpt><trkpt lat="39.92109" lon="-8.42218"><ele>260</ele><time>2022-01-15T11:38:03.000Z</time></trkpt><trkpt lat="39.92114" lon="-8.42211"><time>2022-01-15T11:38:13.000Z</time></trkpt><trkpt lat="39.92121" lon="-8.42206"><time>2022-01-15T11:38:23.000Z</time></trkpt><trkpt lat="39.92125" lon="-8.42199"><ele>260</ele><time>2022-01-15T11:38:22.000Z</time></trkpt><trkpt lat="39.92126" lon="-8.42194"><time>2022-01-15T11:38:32.000Z</time></trkpt><trkpt lat="39.92129" lon="-8.4219"><time>2022-01-15T11:38:42.000Z</time></trkpt><trkpt lat="39.9213" lon="-8.42188"><time>2022-01-15T11:38:52.000Z</time></trkpt><trkpt lat="39.9213" lon="-8.42184"><time>2022-01-15T11:39:02.000Z</time></trkpt><trkpt lat="39.92128" lon="-8.42176"><time>2022-01-15T11:39:12.000Z</time></trkpt><trkpt lat="39.92125" lon="-8.42172"><ele>260</ele><time>2022-01-15T11:38:54.000Z</time></trkpt><trkpt lat="39.9212" lon="-8.4216"><time>2022-01-15T11:39:04.000Z</time></trkpt><trkpt lat="39.92114" lon="-8.42146"><ele>262</ele><time>2022-01-15T11:39:15.000Z</time></trkpt><trkpt lat="39.92114" lon="-8.42141"><time>2022-01-15T11:39:25.000Z</time></trkpt><trkpt lat="39.92113" lon="-8.42138"><time>2022-01-15T11:39:35.000Z</time></trkpt><trkpt lat="39.92113" lon="-8.42134"><time>2022-01-15T11:39:45.000Z</time></trkpt><trkpt lat="39.92114" lon="-8.42131"><time>2022-01-15T11:39:55.000Z</time></trkpt><trkpt lat="39.92114" lon="-8.42118"><ele>265</ele><time>2022-01-15T11:39:36.000Z</time></trkpt><trkpt lat="39.92116" lon="-8.42111"><time>2022-01-15T11:39:46.000Z</time></trkpt><trkpt lat="39.92116" lon="-8.42108"><time>2022-01-15T11:39:56.000Z</time></trkpt><trkpt lat="39.92115" lon="-8.42103"><time>2022-01-15T11:40:06.000Z</time></trkpt><trkpt lat="39.92112" lon="-8.42094"><time>2022-01-15T11:40:16.000Z</time></trkpt><trkpt lat="39.92108" lon="-8.42087"><ele>265</ele><time>2022-01-15T11:40:00.000Z</time></trkpt><trkpt lat="39.92099" lon="-8.42061"><ele>266</ele><time>2022-01-15T11:40:24.000Z</time></trkpt><trkpt lat="39.92095" lon="-8.42051"><time>2022-01-15T11:40:34.000Z</time></trkpt><trkpt lat="39.92092" lon="-8.42042"><time>2022-01-15T11:40:44.000Z</time></trkpt><trkpt lat="39.92087" lon="-8.42035"><ele>270</ele><time>2022-01-15T11:40:44.000Z</time></trkpt><trkpt lat="39.92078" lon="-8.4203"><time>2022-01-15T11:40:54.000Z</time></trkpt><trkpt lat="39.92077" lon="-8.42025"><time>2022-01-15T11:41:04.000Z</time></trkpt><trkpt lat="39.92076" lon="-8.42021"><time>2022-01-15T11:41:14.000Z</time></trkpt><trkpt lat="39.92075" lon="-8.42017"><time>2022-01-15T11:41:24.000Z</time></trkpt><trkpt lat="39.92073" lon="-8.42015"><ele>270</ele><time>2022-01-15T11:41:04.000Z</time></trkpt><trkpt lat="39.9207" lon="-8.42008"><time>2022-01-15T11:41:14.000Z</time></trkpt><trkpt lat="39.92069" lon="-8.41998"><time>2022-01-15T11:41:24.000Z</time></trkpt><trkpt lat="39.92067" lon="-8.41989"><ele>273</ele><time>2022-01-15T11:41:34.000Z</time></trkpt><trkpt lat="39.92067" lon="-8.41983"><time>2022-01-15T11:41:44.000Z</time></trkpt><trkpt lat="39.92066" lon="-8.41975"><time>2022-01-15T11:41:54.000Z</time></trkpt><trkpt lat="39.92066" lon="-8.41973"><time>2022-01-15T11:42:04.000Z</time></trkpt><trkpt lat="39.92067" lon="-8.41973"><time>2022-01-15T11:42:14.000Z</time></trkpt><trkpt lat="39.9207" lon="-8.41968"><time>2022-01-15T11:42:24.000Z</time></trkpt><trkpt lat="39.92074" lon="-8.41958"><ele>275</ele><time>2022-01-15T11:41:54.000Z</time></trkpt><trkpt lat="39.92073" lon="-8.41949"><time>2022-01-15T11:42:04.000Z</time></trkpt><trkpt lat="39.92076" lon="-8.41941"><time>2022-01-15T11:42:14.000Z</time></trkpt><trkpt lat="39.92077" lon="-8.41931"><ele>277</ele><time>2022-01-15T11:42:24.000Z</time></trkpt><trkpt lat="39.92077" lon="-8.41928"><time>2022-01-15T11:42:34.000Z</time></trkpt><trkpt lat="39.92072" lon="-8.41916"><time>2022-01-15T11:42:44.000Z</time></trkpt><trkpt lat="39.9207" lon="-8.41903"><ele>279</ele><time>2022-01-15T11:42:54.000Z</time></trkpt><trkpt lat="39.92068" lon="-8.41896"><time>2022-01-15T11:43:04.000Z</time></trkpt><trkpt lat="39.92066" lon="-8.41885"><time>2022-01-15T11:43:14.000Z</time></trkpt><trkpt lat="39.92063" lon="-8.41885"><time>2022-01-15T11:43:24.000Z</time></trkpt><trkpt lat="39.9206" lon="-8.41866"><ele>284</ele><time>2022-01-15T11:45:09.000Z</time></trkpt><trkpt lat="39.92057" lon="-8.41855"><time>2022-01-15T11:45:19.000Z</time></trkpt><trkpt lat="39.92052" lon="-8.41844"><time>2022-01-15T11:45:29.000Z</time></trkpt><trkpt lat="39.92051" lon="-8.41842"><ele>284</ele><time>2022-01-15T11:45:39.000Z</time></trkpt><trkpt lat="39.92051" lon="-8.41838"><time>2022-01-15T11:45:49.000Z</time></trkpt><trkpt lat="39.92049" lon="-8.4183"><time>2022-01-15T11:45:59.000Z</time></trkpt><trkpt lat="39.92048" lon="-8.41823"><time>2022-01-15T11:46:09.000Z</time></trkpt><trkpt lat="39.92047" lon="-8.41818"><time>2022-01-15T11:46:19.000Z</time></trkpt><trkpt lat="39.92047" lon="-8.41812"><ele>284</ele><time>2022-01-15T11:46:29.000Z</time></trkpt><trkpt lat="39.92045" lon="-8.41809"><time>2022-01-15T11:46:39.000Z</time></trkpt><trkpt lat="39.92032" lon="-8.41803"><time>2022-01-15T11:46:49.000Z</time></trkpt><trkpt lat="39.92016" lon="-8.41791"><ele>285</ele><time>2022-01-15T11:46:59.000Z</time></trkpt><trkpt lat="39.92002" lon="-8.41784"><time>2022-01-15T11:47:09.000Z</time></trkpt><trkpt lat="39.91999" lon="-8.41783"><time>2022-01-15T11:47:19.000Z</time></trkpt><trkpt lat="39.91994" lon="-8.41786"><ele>285</ele><time>2022-01-15T11:47:29.000Z</time></trkpt><trkpt lat="39.9199" lon="-8.41785"><time>2022-01-15T11:47:39.000Z</time></trkpt><trkpt lat="39.91983" lon="-8.41789"><time>2022-01-15T11:47:49.000Z</time></trkpt><trkpt lat="39.91982" lon="-8.41792"><time>2022-01-15T11:47:59.000Z</time></trkpt><trkpt lat="39.9197" lon="-8.41799"><ele>285</ele><time>2022-01-15T11:48:09.000Z</time></trkpt><trkpt lat="39.91953" lon="-8.41814"><ele>285</ele><time>2022-01-15T11:49:10.000Z</time></trkpt><trkpt lat="39.91944" lon="-8.41822"><time>2022-01-15T11:49:20.000Z</time></trkpt><trkpt lat="39.91931" lon="-8.41838"><ele>284</ele><time>2022-01-15T11:49:33.000Z</time></trkpt><trkpt lat="39.91924" lon="-8.41849"><time>2022-01-15T11:49:43.000Z</time></trkpt><trkpt lat="39.91915" lon="-8.41862"><ele>283</ele><time>2022-01-15T11:49:50.000Z</time></trkpt><trkpt lat="39.91903" lon="-8.41873"><time>2022-01-15T11:50:00.000Z</time></trkpt><trkpt lat="39.91895" lon="-8.41876"><ele>279</ele><time>2022-01-15T11:50:07.000Z</time></trkpt><trkpt lat="39.91873" lon="-8.41876"><ele>277</ele><time>2022-01-15T11:50:24.000Z</time></trkpt><trkpt lat="39.91852" lon="-8.41881"><ele>277</ele><time>2022-01-15T11:50:34.000Z</time></trkpt><trkpt lat="39.91842" lon="-8.41889"><time>2022-01-15T11:50:44.000Z</time></trkpt><trkpt lat="39.91843" lon="-8.41888"><time>2022-01-15T11:50:54.000Z</time></trkpt><trkpt lat="39.91843" lon="-8.41886"><time>2022-01-15T11:51:04.000Z</time></trkpt><trkpt lat="39.91828" lon="-8.41888"><ele>279</ele><time>2022-01-15T11:51:14.000Z</time></trkpt><trkpt lat="39.91818" lon="-8.41887"><time>2022-01-15T11:51:24.000Z</time></trkpt><trkpt lat="39.91813" lon="-8.41888"><time>2022-01-15T11:51:34.000Z</time></trkpt><trkpt lat="39.91809" lon="-8.4189"><time>2022-01-15T11:51:44.000Z</time></trkpt><trkpt lat="39.9179" lon="-8.41892"><ele>277</ele><time>2022-01-15T11:51:54.000Z</time></trkpt><trkpt lat="39.91785" lon="-8.41894"><time>2022-01-15T11:52:04.000Z</time></trkpt><trkpt lat="39.91779" lon="-8.41898"><time>2022-01-15T11:52:14.000Z</time></trkpt><trkpt lat="39.91761" lon="-8.41902"><ele>275</ele><time>2022-01-15T11:52:42.000Z</time></trkpt><trkpt lat="39.91726" lon="-8.41902"><ele>278</ele><time>2022-01-15T11:52:52.000Z</time></trkpt><trkpt lat="39.9171" lon="-8.41903"><time>2022-01-15T11:53:02.000Z</time></trkpt><trkpt lat="39.91699" lon="-8.41907"><ele>281</ele><time>2022-01-15T11:53:12.000Z</time></trkpt><trkpt lat="39.91688" lon="-8.41912"><time>2022-01-15T11:53:22.000Z</time></trkpt><trkpt lat="39.9168" lon="-8.41915"><time>2022-01-15T11:53:32.000Z</time></trkpt><trkpt lat="39.91666" lon="-8.41918"><ele>281</ele><time>2022-01-15T11:53:26.000Z</time></trkpt><trkpt lat="39.91658" lon="-8.41918"><time>2022-01-15T11:53:36.000Z</time></trkpt><trkpt lat="39.91646" lon="-8.41913"><ele>279</ele><time>2022-01-15T11:53:36.000Z</time></trkpt><trkpt lat="39.9164" lon="-8.41912"><time>2022-01-15T11:53:46.000Z</time></trkpt><trkpt lat="39.91633" lon="-8.41912"><time>2022-01-15T11:53:56.000Z</time></trkpt><trkpt lat="39.91623" lon="-8.4191"><ele>279</ele><time>2022-01-15T11:53:48.000Z</time></trkpt><trkpt lat="39.91606" lon="-8.41912"><time>2022-01-15T11:53:58.000Z</time></trkpt><trkpt lat="39.91595" lon="-8.41919"><ele>274</ele><time>2022-01-15T11:54:03.000Z</time></trkpt><trkpt lat="39.91583" lon="-8.41922"><time>2022-01-15T11:54:13.000Z</time></trkpt><trkpt lat="39.91564" lon="-8.41919"><ele>271</ele><time>2022-01-15T11:54:19.000Z</time></trkpt><trkpt lat="39.91556" lon="-8.4192"><time>2022-01-15T11:54:29.000Z</time></trkpt><trkpt lat="39.91541" lon="-8.41915"><ele>272</ele><time>2022-01-15T11:54:32.000Z</time></trkpt><trkpt lat="39.91527" lon="-8.41911"><time>2022-01-15T11:54:42.000Z</time></trkpt><trkpt lat="39.9152" lon="-8.41908"><ele>273</ele><time>2022-01-15T11:54:52.000Z</time></trkpt><trkpt lat="39.91517" lon="-8.41906"><time>2022-01-15T11:55:02.000Z</time></trkpt><trkpt lat="39.91508" lon="-8.41903"><time>2022-01-15T11:55:12.000Z</time></trkpt><trkpt lat="39.9149" lon="-8.4189"><ele>277</ele><time>2022-01-15T11:55:22.000Z</time></trkpt><trkpt lat="39.91486" lon="-8.4189"><time>2022-01-15T11:55:32.000Z</time></trkpt><trkpt lat="39.91477" lon="-8.41891"><time>2022-01-15T11:55:42.000Z</time></trkpt><trkpt lat="39.91472" lon="-8.41892"><time>2022-01-15T11:55:52.000Z</time></trkpt><trkpt lat="39.91427" lon="-8.41919"><ele>281</ele><time>2022-01-15T11:56:02.000Z</time></trkpt><trkpt lat="39.91423" lon="-8.41919"><time>2022-01-15T11:56:12.000Z</time></trkpt><trkpt lat="39.91414" lon="-8.41921"><time>2022-01-15T11:56:22.000Z</time></trkpt><trkpt lat="39.91396" lon="-8.41921"><ele>282</ele><time>2022-01-15T11:56:00.000Z</time></trkpt><trkpt lat="39.9136" lon="-8.41921"><ele>283</ele><time>2022-01-15T11:56:10.000Z</time></trkpt><trkpt lat="39.91353" lon="-8.4192"><time>2022-01-15T11:56:20.000Z</time></trkpt><trkpt lat="39.9134" lon="-8.41921"><time>2022-01-15T11:56:30.000Z</time></trkpt><trkpt lat="39.91322" lon="-8.4192"><ele>284</ele><time>2022-01-15T11:56:34.000Z</time></trkpt><trkpt lat="39.91286" lon="-8.4192"><ele>285</ele><time>2022-01-15T11:56:50.000Z</time></trkpt><trkpt lat="39.91272" lon="-8.41922"><time>2022-01-15T11:57:00.000Z</time></trkpt><trkpt lat="39.9126" lon="-8.41921"><ele>286</ele><time>2022-01-15T11:57:02.000Z</time></trkpt><trkpt lat="39.91245" lon="-8.41923"><time>2022-01-15T11:57:12.000Z</time></trkpt><trkpt lat="39.9123" lon="-8.41926"><ele>285</ele><time>2022-01-15T11:57:16.000Z</time></trkpt><trkpt lat="39.91225" lon="-8.41927"><time>2022-01-15T11:57:26.000Z</time></trkpt><trkpt lat="39.91206" lon="-8.41937"><ele>285</ele><time>2022-01-15T11:57:27.000Z</time></trkpt><trkpt lat="39.9118" lon="-8.41947"><ele>284</ele><time>2022-01-15T11:57:37.000Z</time></trkpt><trkpt lat="39.91169" lon="-8.41954"><time>2022-01-15T11:57:47.000Z</time></trkpt><trkpt lat="39.91153" lon="-8.41969"><ele>284</ele><time>2022-01-15T11:57:57.000Z</time></trkpt><trkpt lat="39.91142" lon="-8.41978"><time>2022-01-15T11:58:07.000Z</time></trkpt><trkpt lat="39.91131" lon="-8.42005"><ele>285</ele><time>2022-01-15T11:58:17.000Z</time></trkpt><trkpt lat="39.91126" lon="-8.4201"><time>2022-01-15T11:58:27.000Z</time></trkpt><trkpt lat="39.91115" lon="-8.42019"><time>2022-01-15T11:58:37.000Z</time></trkpt><trkpt lat="39.91109" lon="-8.42037"><ele>283</ele><time>2022-01-15T11:58:47.000Z</time></trkpt><trkpt lat="39.91104" lon="-8.42056"><time>2022-01-15T11:58:57.000Z</time></trkpt><trkpt lat="39.91102" lon="-8.4206"><time>2022-01-15T11:59:07.000Z</time></trkpt><trkpt lat="39.91101" lon="-8.42061"><time>2022-01-15T11:59:17.000Z</time></trkpt><trkpt lat="39.91098" lon="-8.42062"><ele>282</ele><time>2022-01-15T11:59:27.000Z</time></trkpt><trkpt lat="39.9108" lon="-8.42061"><time>2022-01-15T11:59:37.000Z</time></trkpt><trkpt lat="39.9107" lon="-8.42062"><ele>282</ele><time>2022-01-15T11:59:47.000Z</time></trkpt><trkpt lat="39.91064" lon="-8.42065"><time>2022-01-15T11:59:57.000Z</time></trkpt><trkpt lat="39.91053" lon="-8.42065"><time>2022-01-15T12:00:07.000Z</time></trkpt><trkpt lat="39.91039" lon="-8.42055"><ele>283</ele><time>2022-01-15T12:00:17.000Z</time></trkpt><trkpt lat="39.91025" lon="-8.42043"><time>2022-01-15T12:00:27.000Z</time></trkpt><trkpt lat="39.91015" lon="-8.42037"><ele>286</ele><time>2022-01-15T12:00:37.000Z</time></trkpt><trkpt lat="39.91005" lon="-8.42036"><time>2022-01-15T12:00:47.000Z</time></trkpt><trkpt lat="39.90999" lon="-8.42036"><time>2022-01-15T12:00:57.000Z</time></trkpt><trkpt lat="39.90993" lon="-8.42035"><ele>286</ele><time>2022-01-15T12:01:07.000Z</time></trkpt><trkpt lat="39.90988" lon="-8.42029"><time>2022-01-15T12:01:17.000Z</time></trkpt><trkpt lat="39.90987" lon="-8.42027"><time>2022-01-15T12:01:27.000Z</time></trkpt><trkpt lat="39.90985" lon="-8.42009"><ele>287</ele><time>2022-01-15T12:01:37.000Z</time></trkpt><trkpt lat="39.90979" lon="-8.42001"><time>2022-01-15T12:01:47.000Z</time></trkpt><trkpt lat="39.90977" lon="-8.41993"><time>2022-01-15T12:01:57.000Z</time></trkpt><trkpt lat="39.90977" lon="-8.41987"><time>2022-01-15T12:02:07.000Z</time></trkpt><trkpt lat="39.90975" lon="-8.41977"><ele>287</ele><time>2022-01-15T12:02:17.000Z</time></trkpt><trkpt lat="39.90972" lon="-8.41965"><time>2022-01-15T12:02:27.000Z</time></trkpt><trkpt lat="39.9097" lon="-8.41959"><time>2022-01-15T12:02:37.000Z</time></trkpt><trkpt lat="39.90968" lon="-8.41956"><time>2022-01-15T12:02:47.000Z</time></trkpt><trkpt lat="39.90967" lon="-8.41954"><time>2022-01-15T12:02:57.000Z</time></trkpt><trkpt lat="39.90964" lon="-8.41953"><ele>287</ele><time>2022-01-15T12:03:07.000Z</time></trkpt><trkpt lat="39.9096" lon="-8.41953"><time>2022-01-15T12:03:17.000Z</time></trkpt><trkpt lat="39.90952" lon="-8.41957"><time>2022-01-15T12:03:27.000Z</time></trkpt><trkpt lat="39.90931" lon="-8.4197"><ele>283</ele><time>2022-01-15T12:03:37.000Z</time></trkpt><trkpt lat="39.90919" lon="-8.4198"><time>2022-01-15T12:03:47.000Z</time></trkpt><trkpt lat="39.90906" lon="-8.41999"><ele>284</ele><time>2022-01-15T12:03:57.000Z</time></trkpt><trkpt lat="39.90901" lon="-8.42001"><time>2022-01-15T12:04:07.000Z</time></trkpt><trkpt lat="39.90869" lon="-8.42003"><ele>284</ele><time>2022-01-15T12:01:20.000Z</time></trkpt><trkpt lat="39.90861" lon="-8.42009"><time>2022-01-15T12:01:30.000Z</time></trkpt><trkpt lat="39.90858" lon="-8.42012"><time>2022-01-15T12:01:40.000Z</time></trkpt><trkpt lat="39.90856" lon="-8.42016"><time>2022-01-15T12:01:50.000Z</time></trkpt><trkpt lat="39.90855" lon="-8.42024"><ele>284</ele><time>2022-01-15T12:02:00.000Z</time></trkpt><trkpt lat="39.90854" lon="-8.42026"><time>2022-01-15T12:02:10.000Z</time></trkpt><trkpt lat="39.90853" lon="-8.42027"><time>2022-01-15T12:02:20.000Z</time></trkpt><trkpt lat="39.90846" lon="-8.42022"><time>2022-01-15T12:02:30.000Z</time></trkpt><trkpt lat="39.90839" lon="-8.42008"><ele>290</ele><time>2022-01-15T12:01:55.000Z</time></trkpt><trkpt lat="39.90838" lon="-8.42005"><time>2022-01-15T12:02:05.000Z</time></trkpt><trkpt lat="39.90838" lon="-8.41998"><time>2022-01-15T12:02:15.000Z</time></trkpt><trkpt lat="39.90839" lon="-8.41989"><time>2022-01-15T12:02:25.000Z</time></trkpt><trkpt lat="39.90842" lon="-8.41979"><ele>294</ele><time>2022-01-15T12:02:15.000Z</time></trkpt><trkpt lat="39.90844" lon="-8.41974"><time>2022-01-15T12:02:25.000Z</time></trkpt><trkpt lat="39.90847" lon="-8.41961"><time>2022-01-15T12:02:35.000Z</time></trkpt><trkpt lat="39.90846" lon="-8.41954"><ele>294</ele><time>2022-01-15T12:02:45.000Z</time></trkpt><trkpt lat="39.90843" lon="-8.41954"><time>2022-01-15T12:02:55.000Z</time></trkpt><trkpt lat="39.90843" lon="-8.41953"><time>2022-01-15T12:03:05.000Z</time></trkpt><trkpt lat="39.90844" lon="-8.41953"><time>2022-01-15T12:03:15.000Z</time></trkpt><trkpt lat="39.90838" lon="-8.41957"><time>2022-01-15T12:03:25.000Z</time></trkpt><trkpt lat="39.90838" lon="-8.41959"><time>2022-01-15T12:03:35.000Z</time></trkpt><trkpt lat="39.90836" lon="-8.41961"><time>2022-01-15T12:03:45.000Z</time></trkpt><trkpt lat="39.90833" lon="-8.41964"><time>2022-01-15T12:03:55.000Z</time></trkpt><trkpt lat="39.90827" lon="-8.41969"><ele>294</ele><time>2022-01-15T12:04:05.000Z</time></trkpt><trkpt lat="39.90825" lon="-8.41971"><time>2022-01-15T12:04:15.000Z</time></trkpt><trkpt lat="39.9082" lon="-8.41971"><time>2022-01-15T12:04:25.000Z</time></trkpt><trkpt lat="39.9082" lon="-8.4197"><time>2022-01-15T12:04:35.000Z</time></trkpt><trkpt lat="39.90821" lon="-8.41965"><time>2022-01-15T12:04:45.000Z</time></trkpt><trkpt lat="39.9082" lon="-8.41963"><time>2022-01-15T12:04:55.000Z</time></trkpt><trkpt lat="39.90819" lon="-8.41947"><ele>299</ele><time>2022-01-15T12:05:05.000Z</time></trkpt><trkpt lat="39.90818" lon="-8.41946"><time>2022-01-15T12:05:15.000Z</time></trkpt><trkpt lat="39.90819" lon="-8.4194"><time>2022-01-15T12:05:25.000Z</time></trkpt><trkpt lat="39.90819" lon="-8.41936"><time>2022-01-15T12:05:35.000Z</time></trkpt><trkpt lat="39.90817" lon="-8.41929"><time>2022-01-15T12:05:45.000Z</time></trkpt><trkpt lat="39.90817" lon="-8.41924"><time>2022-01-15T12:05:55.000Z</time></trkpt><trkpt lat="39.90815" lon="-8.41916"><ele>300</ele><time>2022-01-15T12:04:17.000Z</time></trkpt><trkpt lat="39.90812" lon="-8.41909"><time>2022-01-15T12:04:27.000Z</time></trkpt><trkpt lat="39.90809" lon="-8.41907"><time>2022-01-15T12:04:37.000Z</time></trkpt><trkpt lat="39.90806" lon="-8.4191"><time>2022-01-15T12:04:47.000Z</time></trkpt><trkpt lat="39.90802" lon="-8.41924"><ele>300</ele><time>2022-01-15T12:04:45.000Z</time></trkpt><trkpt lat="39.90798" lon="-8.41943"><time>2022-01-15T12:04:55.000Z</time></trkpt><trkpt lat="39.90795" lon="-8.41954"><ele>301</ele><time>2022-01-15T12:04:59.000Z</time></trkpt><trkpt lat="39.90788" lon="-8.41975"><time>2022-01-15T12:05:09.000Z</time></trkpt><trkpt lat="39.90783" lon="-8.41993"><ele>301</ele><time>2022-01-15T12:05:14.000Z</time></trkpt><trkpt lat="39.90773" lon="-8.42041"><ele>303</ele><time>2022-01-15T12:05:30.000Z</time></trkpt><trkpt lat="39.90764" lon="-8.42071"><ele>303</ele><time>2022-01-15T12:05:40.000Z</time></trkpt><trkpt lat="39.90753" lon="-8.42084"><time>2022-01-15T12:05:50.000Z</time></trkpt><trkpt lat="39.9075" lon="-8.42085"><time>2022-01-15T12:06:00.000Z</time></trkpt><trkpt lat="39.90725" lon="-8.42091"><ele>304</ele><time>2022-01-15T12:06:10.000Z</time></trkpt><trkpt lat="39.90709" lon="-8.42097"><time>2022-01-15T12:06:20.000Z</time></trkpt><trkpt lat="39.90682" lon="-8.4211"><ele>304</ele><time>2022-01-15T12:06:17.000Z</time></trkpt><trkpt lat="39.90673" lon="-8.42114"><time>2022-01-15T12:06:27.000Z</time></trkpt><trkpt lat="39.90657" lon="-8.42117"><ele>305</ele><time>2022-01-15T12:06:28.000Z</time></trkpt><trkpt lat="39.90646" lon="-8.42118"><time>2022-01-15T12:06:38.000Z</time></trkpt><trkpt lat="39.90644" lon="-8.42117"><time>2022-01-15T12:06:48.000Z</time></trkpt><trkpt lat="39.90636" lon="-8.42111"><ele>305</ele><time>2022-01-15T12:06:38.000Z</time></trkpt><trkpt lat="39.90626" lon="-8.42098"><time>2022-01-15T12:06:48.000Z</time></trkpt><trkpt lat="39.9062" lon="-8.42093"><ele>301</ele><time>2022-01-15T12:06:48.000Z</time></trkpt><trkpt lat="39.9061" lon="-8.42087"><time>2022-01-15T12:06:58.000Z</time></trkpt><trkpt lat="39.90603" lon="-8.42085"><time>2022-01-15T12:07:08.000Z</time></trkpt><trkpt lat="39.90591" lon="-8.42082"><ele>301</ele><time>2022-01-15T12:07:02.000Z</time></trkpt><trkpt lat="39.90569" lon="-8.42079"><ele>304</ele><time>2022-01-15T12:07:12.000Z</time></trkpt><trkpt lat="39.9056" lon="-8.42079"><time>2022-01-15T12:07:22.000Z</time></trkpt><trkpt lat="39.90536" lon="-8.42075"><ele>304</ele><time>2022-01-15T12:07:27.000Z</time></trkpt><trkpt lat="39.90527" lon="-8.42071"><time>2022-01-15T12:07:37.000Z</time></trkpt><trkpt lat="39.9052" lon="-8.4207"><time>2022-01-15T12:07:47.000Z</time></trkpt><trkpt lat="39.90511" lon="-8.4207"><ele>302</ele><time>2022-01-15T12:07:40.000Z</time></trkpt><trkpt lat="39.905" lon="-8.42066"><time>2022-01-15T12:07:50.000Z</time></trkpt><trkpt lat="39.9049" lon="-8.42065"><ele>302</ele><time>2022-01-15T12:07:51.000Z</time></trkpt><trkpt lat="39.90483" lon="-8.42062"><time>2022-01-15T12:08:01.000Z</time></trkpt><trkpt lat="39.90473" lon="-8.42058"><time>2022-01-15T12:08:11.000Z</time></trkpt><trkpt lat="39.90465" lon="-8.42053"><ele>304</ele><time>2022-01-15T12:08:07.000Z</time></trkpt><trkpt lat="39.90458" lon="-8.4205"><time>2022-01-15T12:08:17.000Z</time></trkpt><trkpt lat="39.90445" lon="-8.42039"><ele>311</ele><time>2022-01-15T12:08:27.000Z</time></trkpt><trkpt lat="39.90444" lon="-8.42036"><time>2022-01-15T12:08:37.000Z</time></trkpt><trkpt lat="39.90432" lon="-8.42019"><time>2022-01-15T12:08:47.000Z</time></trkpt><trkpt lat="39.90427" lon="-8.42016"><ele>311</ele><time>2022-01-15T12:08:57.000Z</time></trkpt><trkpt lat="39.90413" lon="-8.42012"><time>2022-01-15T12:09:07.000Z</time></trkpt><trkpt lat="39.9041" lon="-8.4201"><time>2022-01-15T12:09:17.000Z</time></trkpt><trkpt lat="39.90405" lon="-8.42006"><ele>311</ele><time>2022-01-15T12:09:27.000Z</time></trkpt><trkpt lat="39.90394" lon="-8.42001"><time>2022-01-15T12:09:37.000Z</time></trkpt><trkpt lat="39.90366" lon="-8.42"><ele>311</ele><time>2022-01-15T12:09:26.000Z</time></trkpt><trkpt lat="39.90354" lon="-8.41994"><time>2022-01-15T12:09:36.000Z</time></trkpt><trkpt lat="39.90339" lon="-8.41979"><ele>310</ele><time>2022-01-15T12:09:47.000Z</time></trkpt><trkpt lat="39.9033" lon="-8.41968"><time>2022-01-15T12:09:57.000Z</time></trkpt><trkpt lat="39.90325" lon="-8.4196"><ele>310</ele><time>2022-01-15T12:10:07.000Z</time></trkpt><trkpt lat="39.90323" lon="-8.41955"><time>2022-01-15T12:10:17.000Z</time></trkpt><trkpt lat="39.90308" lon="-8.41935"><ele>311</ele><time>2022-01-15T12:10:27.000Z</time></trkpt><trkpt lat="39.90303" lon="-8.41932"><time>2022-01-15T12:10:37.000Z</time></trkpt><trkpt lat="39.90295" lon="-8.41928"><time>2022-01-15T12:10:47.000Z</time></trkpt><trkpt lat="39.90288" lon="-8.41925"><ele>312</ele><time>2022-01-15T12:10:57.000Z</time></trkpt><trkpt lat="39.90277" lon="-8.41925"><time>2022-01-15T12:11:07.000Z</time></trkpt><trkpt lat="39.90274" lon="-8.41924"><time>2022-01-15T12:11:17.000Z</time></trkpt><trkpt lat="39.90275" lon="-8.41919"><time>2022-01-15T12:11:27.000Z</time></trkpt><trkpt lat="39.90278" lon="-8.41914"><ele>312</ele><time>2022-01-15T12:11:37.000Z</time></trkpt><trkpt lat="39.90282" lon="-8.41905"><time>2022-01-15T12:11:47.000Z</time></trkpt><trkpt lat="39.90282" lon="-8.41901"><time>2022-01-15T12:11:57.000Z</time></trkpt><trkpt lat="39.90281" lon="-8.419"><time>2022-01-15T12:12:07.000Z</time></trkpt><trkpt lat="39.90281" lon="-8.41897"><time>2022-01-15T12:12:17.000Z</time></trkpt><trkpt lat="39.90279" lon="-8.4189"><time>2022-01-15T12:12:27.000Z</time></trkpt><trkpt lat="39.90277" lon="-8.41866"><ele>317</ele><time>2022-01-15T12:12:37.000Z</time></trkpt><trkpt lat="39.90273" lon="-8.41855"><time>2022-01-15T12:12:47.000Z</time></trkpt><trkpt lat="39.90264" lon="-8.41838"><ele>320</ele><time>2022-01-15T12:12:57.000Z</time></trkpt><trkpt lat="39.90261" lon="-8.41822"><time>2022-01-15T12:13:07.000Z</time></trkpt><trkpt lat="39.90256" lon="-8.41802"><ele>324</ele><time>2022-01-15T12:13:17.000Z</time></trkpt><trkpt lat="39.90255" lon="-8.4179"><time>2022-01-15T12:13:27.000Z</time></trkpt><trkpt lat="39.90253" lon="-8.41784"><time>2022-01-15T12:13:37.000Z</time></trkpt><trkpt lat="39.90252" lon="-8.41783"><time>2022-01-15T12:13:47.000Z</time></trkpt><trkpt lat="39.90242" lon="-8.41783"><ele>328</ele><time>2022-01-15T12:13:57.000Z</time></trkpt><trkpt lat="39.90225" lon="-8.41785"><time>2022-01-15T12:14:07.000Z</time></trkpt><trkpt lat="39.90217" lon="-8.41785"><ele>330</ele><time>2022-01-15T12:14:17.000Z</time></trkpt><trkpt lat="39.90211" lon="-8.41785"><time>2022-01-15T12:14:27.000Z</time></trkpt><trkpt lat="39.902" lon="-8.41779"><time>2022-01-15T12:14:37.000Z</time></trkpt><trkpt lat="39.90195" lon="-8.41775"><ele>333</ele><time>2022-01-15T12:14:47.000Z</time></trkpt><trkpt lat="39.90191" lon="-8.41774"><time>2022-01-15T12:14:57.000Z</time></trkpt><trkpt lat="39.90184" lon="-8.41774"><time>2022-01-15T12:15:07.000Z</time></trkpt><trkpt lat="39.90179" lon="-8.41777"><time>2022-01-15T12:15:17.000Z</time></trkpt><trkpt lat="39.90169" lon="-8.4179"><ele>339</ele><time>2022-01-15T12:15:27.000Z</time></trkpt><trkpt lat="39.90162" lon="-8.41795"><time>2022-01-15T12:15:37.000Z</time></trkpt><trkpt lat="39.90143" lon="-8.41806"><ele>342</ele><time>2022-01-15T12:15:47.000Z</time></trkpt><trkpt lat="39.90135" lon="-8.41813"><time>2022-01-15T12:15:57.000Z</time></trkpt><trkpt lat="39.90115" lon="-8.41824"><ele>344</ele><time>2022-01-15T12:13:58.000Z</time></trkpt><trkpt lat="39.90091" lon="-8.4183"><ele>348</ele><time>2022-01-15T12:14:08.000Z</time></trkpt><trkpt lat="39.90066" lon="-8.41829"><ele>348</ele><time>2022-01-15T12:14:18.000Z</time></trkpt><trkpt lat="39.90048" lon="-8.41824"><time>2022-01-15T12:14:28.000Z</time></trkpt><trkpt lat="39.90037" lon="-8.41822"><ele>346</ele><time>2022-01-15T12:14:31.000Z</time></trkpt><trkpt lat="39.90024" lon="-8.41824"><time>2022-01-15T12:14:41.000Z</time></trkpt><trkpt lat="39.90016" lon="-8.4182"><ele>345</ele><time>2022-01-15T12:14:40.000Z</time></trkpt><trkpt lat="39.90012" lon="-8.41815"><time>2022-01-15T12:14:50.000Z</time></trkpt><trkpt lat="39.90011" lon="-8.41809"><time>2022-01-15T12:15:00.000Z</time></trkpt><trkpt lat="39.90006" lon="-8.41797"><ele>345</ele><time>2022-01-15T12:15:10.000Z</time></trkpt><trkpt lat="39.89995" lon="-8.41788"><time>2022-01-15T12:15:20.000Z</time></trkpt><trkpt lat="39.89984" lon="-8.41782"><ele>343</ele><time>2022-01-15T12:15:30.000Z</time></trkpt><trkpt lat="39.89969" lon="-8.41775"><time>2022-01-15T12:15:40.000Z</time></trkpt><trkpt lat="39.89951" lon="-8.4177"><ele>342</ele><time>2022-01-15T12:15:50.000Z</time></trkpt><trkpt lat="39.89932" lon="-8.4176"><ele>343</ele><time>2022-01-15T12:15:25.000Z</time></trkpt><trkpt lat="39.89913" lon="-8.41745"><ele>344</ele><time>2022-01-15T12:15:35.000Z</time></trkpt><trkpt lat="39.89908" lon="-8.41733"><time>2022-01-15T12:15:45.000Z</time></trkpt><trkpt lat="39.89907" lon="-8.41719"><ele>347</ele><time>2022-01-15T12:15:45.000Z</time></trkpt><trkpt lat="39.89908" lon="-8.41704"><time>2022-01-15T12:15:55.000Z</time></trkpt><trkpt lat="39.8991" lon="-8.41678"><ele>353</ele><time>2022-01-15T12:16:01.000Z</time></trkpt><trkpt lat="39.89911" lon="-8.41639"><ele>355</ele><time>2022-01-15T12:16:11.000Z</time></trkpt><trkpt lat="39.8991" lon="-8.41634"><time>2022-01-15T12:16:21.000Z</time></trkpt><trkpt lat="39.89903" lon="-8.41597"><ele>357</ele><time>2022-01-15T12:16:31.000Z</time></trkpt><trkpt lat="39.89888" lon="-8.41568"><ele>356</ele><time>2022-01-15T12:16:41.000Z</time></trkpt><trkpt lat="39.89873" lon="-8.41536"><ele>356</ele><time>2022-01-15T12:16:51.000Z</time></trkpt><trkpt lat="39.89865" lon="-8.41525"><time>2022-01-15T12:17:01.000Z</time></trkpt><trkpt lat="39.89846" lon="-8.41504"><ele>356</ele><time>2022-01-15T12:17:11.000Z</time></trkpt><trkpt lat="39.89831" lon="-8.41493"><time>2022-01-15T12:17:21.000Z</time></trkpt><trkpt lat="39.89796" lon="-8.41473"><ele>355</ele><time>2022-01-15T12:17:31.000Z</time></trkpt><trkpt lat="39.89754" lon="-8.41447"><ele>355</ele><time>2022-01-15T12:17:50.000Z</time></trkpt><trkpt lat="39.8973" lon="-8.41435"><ele>354</ele><time>2022-01-15T12:18:01.000Z</time></trkpt><trkpt lat="39.89711" lon="-8.41428"><time>2022-01-15T12:18:11.000Z</time></trkpt><trkpt lat="39.89699" lon="-8.41428"><ele>354</ele><time>2022-01-15T12:18:16.000Z</time></trkpt><trkpt lat="39.89677" lon="-8.41433"><ele>360</ele><time>2022-01-15T12:18:26.000Z</time></trkpt><trkpt lat="39.89666" lon="-8.41431"><time>2022-01-15T12:18:36.000Z</time></trkpt><trkpt lat="39.89657" lon="-8.41414"><ele>362</ele><time>2022-01-15T12:18:46.000Z</time></trkpt><trkpt lat="39.89655" lon="-8.41411"><time>2022-01-15T12:18:56.000Z</time></trkpt><trkpt lat="39.89642" lon="-8.41399"><time>2022-01-15T12:19:06.000Z</time></trkpt><trkpt lat="39.89638" lon="-8.41393"><ele>366</ele><time>2022-01-15T12:19:16.000Z</time></trkpt><trkpt lat="39.89632" lon="-8.41385"><time>2022-01-15T12:19:26.000Z</time></trkpt><trkpt lat="39.89627" lon="-8.41378"><time>2022-01-15T12:19:36.000Z</time></trkpt><trkpt lat="39.89607" lon="-8.4136"><ele>368</ele><time>2022-01-15T12:19:11.000Z</time></trkpt><trkpt lat="39.89591" lon="-8.41346"><time>2022-01-15T12:19:21.000Z</time></trkpt><trkpt lat="39.89581" lon="-8.4134"><ele>367</ele><time>2022-01-15T12:19:31.000Z</time></trkpt><trkpt lat="39.89572" lon="-8.41337"><time>2022-01-15T12:19:41.000Z</time></trkpt><trkpt lat="39.89553" lon="-8.41341"><ele>367</ele><time>2022-01-15T12:19:51.000Z</time></trkpt><trkpt lat="39.8954" lon="-8.41341"><time>2022-01-15T12:20:01.000Z</time></trkpt><trkpt lat="39.89534" lon="-8.41337"><time>2022-01-15T12:20:11.000Z</time></trkpt><trkpt lat="39.89524" lon="-8.41324"><ele>368</ele><time>2022-01-15T12:20:21.000Z</time></trkpt><trkpt lat="39.89521" lon="-8.41324"><time>2022-01-15T12:20:31.000Z</time></trkpt><trkpt lat="39.89516" lon="-8.41327"><time>2022-01-15T12:20:41.000Z</time></trkpt><trkpt lat="39.89508" lon="-8.41329"><time>2022-01-15T12:20:51.000Z</time></trkpt><trkpt lat="39.89501" lon="-8.41333"><ele>367</ele><time>2022-01-15T12:20:22.000Z</time></trkpt><trkpt lat="39.89492" lon="-8.41336"><time>2022-01-15T12:20:32.000Z</time></trkpt><trkpt lat="39.89475" lon="-8.41337"><ele>366</ele><time>2022-01-15T12:20:37.000Z</time></trkpt><trkpt lat="39.89465" lon="-8.41334"><time>2022-01-15T12:20:47.000Z</time></trkpt><trkpt lat="39.8946" lon="-8.4133"><time>2022-01-15T12:20:57.000Z</time></trkpt><trkpt lat="39.89455" lon="-8.41325"><ele>362</ele><time>2022-01-15T12:20:48.000Z</time></trkpt><trkpt lat="39.89441" lon="-8.41308"><time>2022-01-15T12:20:58.000Z</time></trkpt><trkpt lat="39.89431" lon="-8.413"><ele>360</ele><time>2022-01-15T12:21:02.000Z</time></trkpt><trkpt lat="39.89406" lon="-8.41274"><ele>360</ele><time>2022-01-15T12:21:16.000Z</time></trkpt><trkpt lat="39.89384" lon="-8.41253"><ele>357</ele><time>2022-01-15T12:21:27.000Z</time></trkpt><trkpt lat="39.89349" lon="-8.41227"><ele>354</ele><time>2022-01-15T12:21:44.000Z</time></trkpt><trkpt lat="39.89329" lon="-8.41215"><ele>354</ele><time>2022-01-15T12:21:54.000Z</time></trkpt><trkpt lat="39.89313" lon="-8.41207"><time>2022-01-15T12:22:04.000Z</time></trkpt><trkpt lat="39.89275" lon="-8.41192"><ele>355</ele><time>2022-01-15T12:22:14.000Z</time></trkpt><trkpt lat="39.89261" lon="-8.41189"><time>2022-01-15T12:22:24.000Z</time></trkpt><trkpt lat="39.89242" lon="-8.41189"><ele>354</ele><time>2022-01-15T12:22:34.000Z</time></trkpt><trkpt lat="39.89239" lon="-8.4119"><time>2022-01-15T12:22:44.000Z</time></trkpt><trkpt lat="39.8921" lon="-8.41203"><ele>354</ele><time>2022-01-15T12:22:44.000Z</time></trkpt><trkpt lat="39.89199" lon="-8.41206"><time>2022-01-15T12:22:54.000Z</time></trkpt><trkpt lat="39.89182" lon="-8.41215"><ele>353</ele><time>2022-01-15T12:22:56.000Z</time></trkpt><trkpt lat="39.89166" lon="-8.41233"><time>2022-01-15T12:23:06.000Z</time></trkpt><trkpt lat="39.89158" lon="-8.41247"><ele>353</ele><time>2022-01-15T12:23:16.000Z</time></trkpt><trkpt lat="39.89158" lon="-8.4125"><time>2022-01-15T12:23:26.000Z</time></trkpt><trkpt lat="39.8916" lon="-8.41272"><time>2022-01-15T12:23:36.000Z</time></trkpt><trkpt lat="39.89167" lon="-8.41284"><ele>353</ele><time>2022-01-15T12:23:24.000Z</time></trkpt><trkpt lat="39.89187" lon="-8.41312"><ele>352</ele><time>2022-01-15T12:23:34.000Z</time></trkpt><trkpt lat="39.89194" lon="-8.41317"><time>2022-01-15T12:23:44.000Z</time></trkpt><trkpt lat="39.89201" lon="-8.41322"><time>2022-01-15T12:23:54.000Z</time></trkpt><trkpt lat="39.89214" lon="-8.41332"><ele>355</ele><time>2022-01-15T12:23:48.000Z</time></trkpt><trkpt lat="39.89228" lon="-8.4134"><time>2022-01-15T12:23:58.000Z</time></trkpt><trkpt lat="39.89244" lon="-8.41351"><ele>354</ele><time>2022-01-15T12:24:01.000Z</time></trkpt><trkpt lat="39.89263" lon="-8.41359"><time>2022-01-15T12:24:11.000Z</time></trkpt><trkpt lat="39.89272" lon="-8.41365"><ele>356</ele><time>2022-01-15T12:24:21.000Z</time></trkpt><trkpt lat="39.89279" lon="-8.41369"><time>2022-01-15T12:24:31.000Z</time></trkpt><trkpt lat="39.89286" lon="-8.41375"><time>2022-01-15T12:24:41.000Z</time></trkpt><trkpt lat="39.8929" lon="-8.41381"><ele>359</ele><time>2022-01-15T12:24:51.000Z</time></trkpt><trkpt lat="39.89289" lon="-8.41378"><time>2022-01-15T12:25:01.000Z</time></trkpt><trkpt lat="39.89289" lon="-8.41381"><time>2022-01-15T12:25:11.000Z</time></trkpt><trkpt lat="39.89287" lon="-8.41383"><time>2022-01-15T12:25:21.000Z</time></trkpt><trkpt lat="39.89274" lon="-8.41383"><time>2022-01-15T12:25:31.000Z</time></trkpt><trkpt lat="39.89265" lon="-8.4138"><ele>362</ele><time>2022-01-15T12:25:23.000Z</time></trkpt><trkpt lat="39.89257" lon="-8.41378"><time>2022-01-15T12:25:33.000Z</time></trkpt><trkpt lat="39.89244" lon="-8.41377"><ele>362</ele><time>2022-01-15T12:25:43.000Z</time></trkpt><trkpt lat="39.89242" lon="-8.41377"><time>2022-01-15T12:25:53.000Z</time></trkpt><trkpt lat="39.89232" lon="-8.41376"><time>2022-01-15T12:26:03.000Z</time></trkpt><trkpt lat="39.89225" lon="-8.41375"><time>2022-01-15T12:26:13.000Z</time></trkpt><trkpt lat="39.89218" lon="-8.41376"><ele>366</ele><time>2022-01-15T12:25:57.000Z</time></trkpt><trkpt lat="39.89194" lon="-8.41383"><ele>370</ele><time>2022-01-15T12:26:16.000Z</time></trkpt><trkpt lat="39.89172" lon="-8.41383"><ele>372</ele><time>2022-01-15T12:26:26.000Z</time></trkpt><trkpt lat="39.89161" lon="-8.41385"><time>2022-01-15T12:26:36.000Z</time></trkpt><trkpt lat="39.89149" lon="-8.41386"><ele>372</ele><time>2022-01-15T12:26:46.000Z</time></trkpt><trkpt lat="39.89147" lon="-8.41388"><time>2022-01-15T12:26:56.000Z</time></trkpt><trkpt lat="39.89142" lon="-8.41389"><time>2022-01-15T12:27:06.000Z</time></trkpt><trkpt lat="39.89131" lon="-8.41395"><time>2022-01-15T12:27:16.000Z</time></trkpt><trkpt lat="39.89103" lon="-8.41405"><ele>376</ele><time>2022-01-15T12:27:26.000Z</time></trkpt><trkpt lat="39.89089" lon="-8.41408"><time>2022-01-15T12:27:36.000Z</time></trkpt><trkpt lat="39.89083" lon="-8.41412"><time>2022-01-15T12:27:46.000Z</time></trkpt><trkpt lat="39.89069" lon="-8.41416"><ele>378</ele><time>2022-01-15T12:27:56.000Z</time></trkpt><trkpt lat="39.89059" lon="-8.41421"><time>2022-01-15T12:28:06.000Z</time></trkpt><trkpt lat="39.89043" lon="-8.41426"><ele>380</ele><time>2022-01-15T12:28:16.000Z</time></trkpt><trkpt lat="39.89033" lon="-8.41431"><time>2022-01-15T12:28:26.000Z</time></trkpt><trkpt lat="39.89009" lon="-8.4144"><ele>390</ele><time>2022-01-15T12:28:36.000Z</time></trkpt><trkpt lat="39.89005" lon="-8.41442"><time>2022-01-15T12:28:46.000Z</time></trkpt><trkpt lat="39.88995" lon="-8.4145"><time>2022-01-15T12:28:56.000Z</time></trkpt><trkpt lat="39.88993" lon="-8.41452"><time>2022-01-15T12:29:06.000Z</time></trkpt><trkpt lat="39.8898" lon="-8.41463"><ele>391</ele><time>2022-01-15T12:29:16.000Z</time></trkpt><trkpt lat="39.88964" lon="-8.41475"><time>2022-01-15T12:29:26.000Z</time></trkpt><trkpt lat="39.88948" lon="-8.41482"><ele>391</ele><time>2022-01-15T12:29:36.000Z</time></trkpt><trkpt lat="39.88942" lon="-8.41487"><time>2022-01-15T12:29:46.000Z</time></trkpt><trkpt lat="39.8893" lon="-8.41495"><time>2022-01-15T12:29:56.000Z</time></trkpt><trkpt lat="39.8891" lon="-8.41509"><ele>393</ele><time>2022-01-15T12:30:06.000Z</time></trkpt><trkpt lat="39.88903" lon="-8.41513"><time>2022-01-15T12:30:16.000Z</time></trkpt><trkpt lat="39.88886" lon="-8.41516"><ele>398</ele><time>2022-01-15T12:30:26.000Z</time></trkpt><trkpt lat="39.88883" lon="-8.41516"><time>2022-01-15T12:30:36.000Z</time></trkpt><trkpt lat="39.88874" lon="-8.41511"><time>2022-01-15T12:30:46.000Z</time></trkpt><trkpt lat="39.88869" lon="-8.41506"><time>2022-01-15T12:30:56.000Z</time></trkpt><trkpt lat="39.88849" lon="-8.41489"><ele>410</ele><time>2022-01-15T12:31:06.000Z</time></trkpt><trkpt lat="39.88844" lon="-8.41481"><time>2022-01-15T12:31:16.000Z</time></trkpt><trkpt lat="39.88837" lon="-8.41475"><time>2022-01-15T12:31:26.000Z</time></trkpt><trkpt lat="39.88832" lon="-8.41472"><ele>410</ele><time>2022-01-15T12:31:36.000Z</time></trkpt><trkpt lat="39.88829" lon="-8.41471"><time>2022-01-15T12:31:46.000Z</time></trkpt><trkpt lat="39.88821" lon="-8.41469"><time>2022-01-15T12:31:56.000Z</time></trkpt><trkpt lat="39.88818" lon="-8.4147"><time>2022-01-15T12:32:06.000Z</time></trkpt><trkpt lat="39.88811" lon="-8.41467"><ele>412</ele><time>2022-01-15T12:32:16.000Z</time></trkpt><trkpt lat="39.88804" lon="-8.41467"><time>2022-01-15T12:32:26.000Z</time></trkpt><trkpt lat="39.88801" lon="-8.41469"><time>2022-01-15T12:32:36.000Z</time></trkpt><trkpt lat="39.888" lon="-8.41473"><time>2022-01-15T12:32:46.000Z</time></trkpt><trkpt lat="39.88801" lon="-8.41509"><ele>414</ele><time>2022-01-15T12:32:56.000Z</time></trkpt><trkpt lat="39.88795" lon="-8.4153"><time>2022-01-15T12:33:06.000Z</time></trkpt><trkpt lat="39.88789" lon="-8.41541"><ele>426</ele><time>2022-01-15T12:33:16.000Z</time></trkpt><trkpt lat="39.88775" lon="-8.41547"><time>2022-01-15T12:33:26.000Z</time></trkpt><trkpt lat="39.88773" lon="-8.41549"><time>2022-01-15T12:33:36.000Z</time></trkpt><trkpt lat="39.88754" lon="-8.4156"><ele>434</ele><time>2022-01-15T12:33:46.000Z</time></trkpt><trkpt lat="39.88744" lon="-8.41569"><time>2022-01-15T12:33:56.000Z</time></trkpt><trkpt lat="39.88733" lon="-8.41576"><ele>433</ele><time>2022-01-15T12:34:06.000Z</time></trkpt><trkpt lat="39.88724" lon="-8.41581"><time>2022-01-15T12:34:16.000Z</time></trkpt><trkpt lat="39.88715" lon="-8.41586"><time>2022-01-15T12:34:26.000Z</time></trkpt><trkpt lat="39.88684" lon="-8.41597"><ele>433</ele><time>2022-01-15T12:34:36.000Z</time></trkpt><trkpt lat="39.88677" lon="-8.41602"><time>2022-01-15T12:34:46.000Z</time></trkpt><trkpt lat="39.88674" lon="-8.41604"><time>2022-01-15T12:34:56.000Z</time></trkpt><trkpt lat="39.88637" lon="-8.41632"><ele>433</ele><time>2022-01-15T12:35:06.000Z</time></trkpt><trkpt lat="39.88634" lon="-8.41634"><time>2022-01-15T12:35:16.000Z</time></trkpt><trkpt lat="39.88626" lon="-8.41639"><time>2022-01-15T12:35:26.000Z</time></trkpt><trkpt lat="39.88609" lon="-8.41653"><ele>434</ele><time>2022-01-15T12:35:36.000Z</time></trkpt><trkpt lat="39.88604" lon="-8.41655"><time>2022-01-15T12:35:46.000Z</time></trkpt><trkpt lat="39.8858" lon="-8.41659"><ele>434</ele><time>2022-01-15T12:34:44.000Z</time></trkpt><trkpt lat="39.88558" lon="-8.4166"><ele>431</ele><time>2022-01-15T12:35:00.000Z</time></trkpt><trkpt lat="39.88521" lon="-8.41665"><ele>434</ele><time>2022-01-15T12:35:10.000Z</time></trkpt><trkpt lat="39.8851" lon="-8.41669"><time>2022-01-15T12:35:20.000Z</time></trkpt><trkpt lat="39.88469" lon="-8.41677"><ele>429</ele><time>2022-01-15T12:36:01.000Z</time></trkpt><trkpt lat="39.88431" lon="-8.41682"><ele>427</ele><time>2022-01-15T12:36:26.000Z</time></trkpt><trkpt lat="39.88419" lon="-8.41683"><time>2022-01-15T12:36:36.000Z</time></trkpt><trkpt lat="39.88399" lon="-8.41681"><ele>431</ele><time>2022-01-15T12:36:45.000Z</time></trkpt><trkpt lat="39.88385" lon="-8.41678"><time>2022-01-15T12:36:55.000Z</time></trkpt><trkpt lat="39.88371" lon="-8.41677"><ele>431</ele><time>2022-01-15T12:36:59.000Z</time></trkpt><trkpt lat="39.88367" lon="-8.41676"><time>2022-01-15T12:37:09.000Z</time></trkpt><trkpt lat="39.88348" lon="-8.41673"><ele>432</ele><time>2022-01-15T12:37:10.000Z</time></trkpt><trkpt lat="39.88311" lon="-8.41671"><ele>437</ele><time>2022-01-15T12:37:28.000Z</time></trkpt><trkpt lat="39.8829" lon="-8.41672"><ele>445</ele><time>2022-01-15T12:37:38.000Z</time></trkpt><trkpt lat="39.88278" lon="-8.4167"><time>2022-01-15T12:37:48.000Z</time></trkpt><trkpt lat="39.88275" lon="-8.4167"><time>2022-01-15T12:37:58.000Z</time></trkpt><trkpt lat="39.88274" lon="-8.41671"><time>2022-01-15T12:38:08.000Z</time></trkpt><trkpt lat="39.88272" lon="-8.4167"><time>2022-01-15T12:38:18.000Z</time></trkpt><trkpt lat="39.88264" lon="-8.4167"><ele>445</ele><time>2022-01-15T12:38:28.000Z</time></trkpt><trkpt lat="39.88262" lon="-8.41671"><time>2022-01-15T12:38:38.000Z</time></trkpt><trkpt lat="39.88263" lon="-8.41672"><time>2022-01-15T12:38:48.000Z</time></trkpt><trkpt lat="39.88258" lon="-8.41672"><time>2022-01-15T12:38:58.000Z</time></trkpt><trkpt lat="39.88254" lon="-8.4167"><time>2022-01-15T12:39:08.000Z</time></trkpt><trkpt lat="39.88255" lon="-8.41669"><time>2022-01-15T12:39:18.000Z</time></trkpt><trkpt lat="39.88237" lon="-8.4167"><ele>441</ele><time>2022-01-15T12:39:08.000Z</time></trkpt><trkpt lat="39.88213" lon="-8.41674"><ele>441</ele><time>2022-01-15T12:39:18.000Z</time></trkpt><trkpt lat="39.88208" lon="-8.41673"><time>2022-01-15T12:39:28.000Z</time></trkpt><trkpt lat="39.88199" lon="-8.41676"><time>2022-01-15T12:39:38.000Z</time></trkpt><trkpt lat="39.88186" lon="-8.41676"><ele>435</ele><time>2022-01-15T12:39:48.000Z</time></trkpt><trkpt lat="39.88166" lon="-8.41677"><time>2022-01-15T12:39:58.000Z</time></trkpt><trkpt lat="39.88161" lon="-8.41677"><ele>435</ele><time>2022-01-15T12:40:08.000Z</time></trkpt><trkpt lat="39.88155" lon="-8.41678"><time>2022-01-15T12:40:18.000Z</time></trkpt><trkpt lat="39.88152" lon="-8.41679"><time>2022-01-15T12:40:28.000Z</time></trkpt><trkpt lat="39.88146" lon="-8.41678"><time>2022-01-15T12:40:38.000Z</time></trkpt><trkpt lat="39.88109" lon="-8.41677"><ele>436</ele><time>2022-01-15T12:40:38.000Z</time></trkpt><trkpt lat="39.88073" lon="-8.41673"><ele>435</ele><time>2022-01-15T12:41:01.000Z</time></trkpt><trkpt lat="39.88041" lon="-8.41677"><ele>435</ele><time>2022-01-15T12:41:22.000Z</time></trkpt><trkpt lat="39.8802" lon="-8.41678"><ele>436</ele><time>2022-01-15T12:41:35.000Z</time></trkpt><trkpt lat="39.88011" lon="-8.41667"><time>2022-01-15T12:41:45.000Z</time></trkpt><trkpt lat="39.87996" lon="-8.41652"><ele>436</ele><time>2022-01-15T12:41:55.000Z</time></trkpt><trkpt lat="39.87987" lon="-8.41647"><time>2022-01-15T12:42:05.000Z</time></trkpt><trkpt lat="39.87974" lon="-8.4164"><ele>444</ele><time>2022-01-15T12:42:11.000Z</time></trkpt><trkpt lat="39.8797" lon="-8.41637"><time>2022-01-15T12:42:21.000Z</time></trkpt><trkpt lat="39.87965" lon="-8.41631"><time>2022-01-15T12:42:31.000Z</time></trkpt><trkpt lat="39.87957" lon="-8.41622"><ele>445</ele><time>2022-01-15T12:42:28.000Z</time></trkpt><trkpt lat="39.87951" lon="-8.41618"><time>2022-01-15T12:42:38.000Z</time></trkpt><trkpt lat="39.87946" lon="-8.41616"><time>2022-01-15T12:42:48.000Z</time></trkpt><trkpt lat="39.87933" lon="-8.41611"><ele>452</ele><time>2022-01-15T12:42:45.000Z</time></trkpt><trkpt lat="39.87899" lon="-8.41605"><ele>455</ele><time>2022-01-15T12:43:08.000Z</time></trkpt><trkpt lat="39.87886" lon="-8.41608"><time>2022-01-15T12:43:18.000Z</time></trkpt><trkpt lat="39.87872" lon="-8.41606"><ele>455</ele><time>2022-01-15T12:43:25.000Z</time></trkpt><trkpt lat="39.87867" lon="-8.41606"><time>2022-01-15T12:43:35.000Z</time></trkpt><trkpt lat="39.8786" lon="-8.41612"><time>2022-01-15T12:43:45.000Z</time></trkpt><trkpt lat="39.87858" lon="-8.41615"><time>2022-01-15T12:43:55.000Z</time></trkpt><trkpt lat="39.87852" lon="-8.41614"><ele>455</ele><time>2022-01-15T12:43:39.000Z</time></trkpt><trkpt lat="39.87828" lon="-8.416"><ele>450</ele><time>2022-01-15T12:43:57.000Z</time></trkpt><trkpt lat="39.87818" lon="-8.416"><time>2022-01-15T12:44:07.000Z</time></trkpt><trkpt lat="39.87817" lon="-8.416"><time>2022-01-15T12:44:17.000Z</time></trkpt><trkpt lat="39.87809" lon="-8.41598"><time>2022-01-15T12:44:27.000Z</time></trkpt><trkpt lat="39.87807" lon="-8.41596"><ele>448</ele><time>2022-01-15T12:44:19.000Z</time></trkpt><trkpt lat="39.87795" lon="-8.41576"><time>2022-01-15T12:44:29.000Z</time></trkpt><trkpt lat="39.87783" lon="-8.41563"><ele>444</ele><time>2022-01-15T12:44:43.000Z</time></trkpt><trkpt lat="39.87768" lon="-8.41551"><time>2022-01-15T12:44:53.000Z</time></trkpt><trkpt lat="39.87759" lon="-8.41541"><ele>444</ele><time>2022-01-15T12:45:02.000Z</time></trkpt><trkpt lat="39.87746" lon="-8.41531"><time>2022-01-15T12:45:12.000Z</time></trkpt><trkpt lat="39.87738" lon="-8.41526"><ele>444</ele><time>2022-01-15T12:45:18.000Z</time></trkpt><trkpt lat="39.87734" lon="-8.41525"><time>2022-01-15T12:45:28.000Z</time></trkpt><trkpt lat="39.87721" lon="-8.41522"><time>2022-01-15T12:45:38.000Z</time></trkpt><trkpt lat="39.87715" lon="-8.41518"><ele>444</ele><time>2022-01-15T12:45:31.000Z</time></trkpt><trkpt lat="39.87706" lon="-8.41498"><time>2022-01-15T12:45:41.000Z</time></trkpt><trkpt lat="39.87703" lon="-8.41492"><ele>444</ele><time>2022-01-15T12:45:43.000Z</time></trkpt><trkpt lat="39.87691" lon="-8.41476"><time>2022-01-15T12:45:53.000Z</time></trkpt><trkpt lat="39.87687" lon="-8.41473"><ele>445</ele><time>2022-01-15T12:46:03.000Z</time></trkpt><trkpt lat="39.87676" lon="-8.41461"><time>2022-01-15T12:46:13.000Z</time></trkpt><trkpt lat="39.87663" lon="-8.41448"><ele>447</ele><time>2022-01-15T12:46:23.000Z</time></trkpt><trkpt lat="39.87656" lon="-8.41438"><time>2022-01-15T12:46:33.000Z</time></trkpt><trkpt lat="39.87653" lon="-8.41428"><time>2022-01-15T12:46:43.000Z</time></trkpt><trkpt lat="39.87652" lon="-8.41425"><ele>448</ele><time>2022-01-15T12:46:53.000Z</time></trkpt><trkpt lat="39.87654" lon="-8.41414"><time>2022-01-15T12:47:03.000Z</time></trkpt><trkpt lat="39.87656" lon="-8.41412"><time>2022-01-15T12:47:13.000Z</time></trkpt><trkpt lat="39.87686" lon="-8.41408"><ele>448</ele><time>2022-01-15T12:47:23.000Z</time></trkpt><trkpt lat="39.87692" lon="-8.41404"><time>2022-01-15T12:47:33.000Z</time></trkpt><trkpt lat="39.87695" lon="-8.414"><time>2022-01-15T12:47:43.000Z</time></trkpt><trkpt lat="39.87697" lon="-8.41395"><time>2022-01-15T12:47:53.000Z</time></trkpt><trkpt lat="39.87698" lon="-8.41379"><ele>452</ele><time>2022-01-15T12:46:47.000Z</time></trkpt><trkpt lat="39.87703" lon="-8.41352"><ele>450</ele><time>2022-01-15T12:46:57.000Z</time></trkpt><trkpt lat="39.87703" lon="-8.41334"><time>2022-01-15T12:47:07.000Z</time></trkpt><trkpt lat="39.87706" lon="-8.41318"><ele>450</ele><time>2022-01-15T12:47:17.000Z</time></trkpt><trkpt lat="39.87711" lon="-8.41302"><time>2022-01-15T12:47:27.000Z</time></trkpt><trkpt lat="39.87723" lon="-8.41283"><ele>450</ele><time>2022-01-15T12:47:37.000Z</time></trkpt><trkpt lat="39.87726" lon="-8.41274"><time>2022-01-15T12:47:47.000Z</time></trkpt><trkpt lat="39.87733" lon="-8.41246"><ele>451</ele><time>2022-01-15T12:47:57.000Z</time></trkpt><trkpt lat="39.87738" lon="-8.41234"><time>2022-01-15T12:48:07.000Z</time></trkpt><trkpt lat="39.87741" lon="-8.41222"><time>2022-01-15T12:48:17.000Z</time></trkpt><trkpt lat="39.87744" lon="-8.41212"><ele>453</ele><time>2022-01-15T12:48:27.000Z</time></trkpt><trkpt lat="39.8775" lon="-8.41205"><time>2022-01-15T12:48:37.000Z</time></trkpt><trkpt lat="39.87776" lon="-8.41178"><ele>454</ele><time>2022-01-15T12:48:47.000Z</time></trkpt><trkpt lat="39.87787" lon="-8.41169"><time>2022-01-15T12:48:57.000Z</time></trkpt><trkpt lat="39.87806" lon="-8.41135"><ele>454</ele><time>2022-01-15T12:48:11.000Z</time></trkpt><trkpt lat="39.87822" lon="-8.41123"><time>2022-01-15T12:48:21.000Z</time></trkpt><trkpt lat="39.87827" lon="-8.41118"><ele>456</ele><time>2022-01-15T12:48:31.000Z</time></trkpt><trkpt lat="39.87831" lon="-8.41115"><time>2022-01-15T12:48:41.000Z</time></trkpt><trkpt lat="39.87836" lon="-8.41111"><time>2022-01-15T12:48:51.000Z</time></trkpt><trkpt lat="39.87835" lon="-8.41108"><time>2022-01-15T12:49:01.000Z</time></trkpt><trkpt lat="39.87833" lon="-8.41103"><time>2022-01-15T12:49:11.000Z</time></trkpt><trkpt lat="39.87823" lon="-8.41091"><ele>456</ele><time>2022-01-15T12:48:35.000Z</time></trkpt><trkpt lat="39.87808" lon="-8.41074"><time>2022-01-15T12:48:45.000Z</time></trkpt><trkpt lat="39.87799" lon="-8.41062"><ele>458</ele><time>2022-01-15T12:48:55.000Z</time></trkpt><trkpt lat="39.87796" lon="-8.41056"><time>2022-01-15T12:49:05.000Z</time></trkpt><trkpt lat="39.87792" lon="-8.41046"><time>2022-01-15T12:49:15.000Z</time></trkpt><trkpt lat="39.8779" lon="-8.41036"><ele>461</ele><time>2022-01-15T12:49:25.000Z</time></trkpt><trkpt lat="39.87789" lon="-8.41022"><time>2022-01-15T12:49:35.000Z</time></trkpt><trkpt lat="39.87786" lon="-8.41008"><ele>466</ele><time>2022-01-15T12:49:45.000Z</time></trkpt><trkpt lat="39.87777" lon="-8.40991"><time>2022-01-15T12:49:55.000Z</time></trkpt><trkpt lat="39.87756" lon="-8.40963"><ele>467</ele><time>2022-01-15T12:50:05.000Z</time></trkpt><trkpt lat="39.87746" lon="-8.40945"><time>2022-01-15T12:50:15.000Z</time></trkpt><trkpt lat="39.87736" lon="-8.40921"><ele>471</ele><time>2022-01-15T12:50:25.000Z</time></trkpt><trkpt lat="39.87727" lon="-8.40904"><time>2022-01-15T12:50:35.000Z</time></trkpt><trkpt lat="39.87716" lon="-8.40885"><ele>476</ele><time>2022-01-15T12:50:45.000Z</time></trkpt><trkpt lat="39.87706" lon="-8.4087"><time>2022-01-15T12:50:55.000Z</time></trkpt><trkpt lat="39.87694" lon="-8.4085"><ele>482</ele><time>2022-01-15T12:51:05.000Z</time></trkpt><trkpt lat="39.87688" lon="-8.40842"><time>2022-01-15T12:51:15.000Z</time></trkpt><trkpt lat="39.87681" lon="-8.40829"><ele>482</ele><time>2022-01-15T12:51:25.000Z</time></trkpt><trkpt lat="39.8767" lon="-8.40811"><time>2022-01-15T12:51:35.000Z</time></trkpt><trkpt lat="39.8766" lon="-8.40792"><ele>482</ele><time>2022-01-15T12:51:45.000Z</time></trkpt><trkpt lat="39.87653" lon="-8.40782"><time>2022-01-15T12:51:55.000Z</time></trkpt><trkpt lat="39.87648" lon="-8.40774"><time>2022-01-15T12:52:05.000Z</time></trkpt><trkpt lat="39.87638" lon="-8.40762"><ele>486</ele><time>2022-01-15T12:52:15.000Z</time></trkpt><trkpt lat="39.87626" lon="-8.40745"><time>2022-01-15T12:52:25.000Z</time></trkpt><trkpt lat="39.87619" lon="-8.40735"><ele>490</ele><time>2022-01-15T12:52:35.000Z</time></trkpt><trkpt lat="39.87606" lon="-8.40715"><time>2022-01-15T12:52:45.000Z</time></trkpt><trkpt lat="39.87602" lon="-8.40707"><ele>491</ele><time>2022-01-15T12:52:55.000Z</time></trkpt><trkpt lat="39.87599" lon="-8.40696"><time>2022-01-15T12:53:05.000Z</time></trkpt><trkpt lat="39.87597" lon="-8.4069"><time>2022-01-15T12:53:15.000Z</time></trkpt><trkpt lat="39.87593" lon="-8.40672"><ele>492</ele><time>2022-01-15T12:53:25.000Z</time></trkpt><trkpt lat="39.8759" lon="-8.40661"><time>2022-01-15T12:53:35.000Z</time></trkpt><trkpt lat="39.87584" lon="-8.4065"><time>2022-01-15T12:53:45.000Z</time></trkpt><trkpt lat="39.87573" lon="-8.40636"><ele>492</ele><time>2022-01-15T12:53:55.000Z</time></trkpt><trkpt lat="39.8757" lon="-8.40634"><time>2022-01-15T12:54:05.000Z</time></trkpt><trkpt lat="39.87554" lon="-8.40628"><time>2022-01-15T12:54:15.000Z</time></trkpt><trkpt lat="39.87528" lon="-8.40623"><ele>493</ele><time>2022-01-15T12:54:25.000Z</time></trkpt><trkpt lat="39.87523" lon="-8.4062"><time>2022-01-15T12:54:35.000Z</time></trkpt><trkpt lat="39.87519" lon="-8.40609"><time>2022-01-15T12:54:45.000Z</time></trkpt><trkpt lat="39.87515" lon="-8.40595"><ele>495</ele><time>2022-01-15T12:54:55.000Z</time></trkpt><trkpt lat="39.87513" lon="-8.40587"><time>2022-01-15T12:55:05.000Z</time></trkpt><trkpt lat="39.87508" lon="-8.4057"><time>2022-01-15T12:55:15.000Z</time></trkpt><trkpt lat="39.87502" lon="-8.40562"><ele>501</ele><time>2022-01-15T12:53:11.000Z</time></trkpt><trkpt lat="39.87497" lon="-8.40551"><time>2022-01-15T12:53:21.000Z</time></trkpt><trkpt lat="39.87496" lon="-8.40546"><time>2022-01-15T12:53:31.000Z</time></trkpt><trkpt lat="39.87491" lon="-8.40532"><ele>501</ele><time>2022-01-15T12:53:24.000Z</time></trkpt><trkpt lat="39.87482" lon="-8.40511"><time>2022-01-15T12:53:34.000Z</time></trkpt><trkpt lat="39.87479" lon="-8.40507"><ele>504</ele><time>2022-01-15T12:53:36.000Z</time></trkpt><trkpt lat="39.87469" lon="-8.40493"><time>2022-01-15T12:53:46.000Z</time></trkpt><trkpt lat="39.87465" lon="-8.40489"><time>2022-01-15T12:53:56.000Z</time></trkpt><trkpt lat="39.87452" lon="-8.40483"><ele>504</ele><time>2022-01-15T12:53:51.000Z</time></trkpt><trkpt lat="39.8743" lon="-8.40463"><ele>506</ele><time>2022-01-15T12:54:01.000Z</time></trkpt><trkpt lat="39.87428" lon="-8.40464"><time>2022-01-15T12:54:11.000Z</time></trkpt><trkpt lat="39.8743" lon="-8.40463"><time>2022-01-15T12:54:21.000Z</time></trkpt><trkpt lat="39.87431" lon="-8.40459"><time>2022-01-15T12:54:31.000Z</time></trkpt><trkpt lat="39.87433" lon="-8.40455"><time>2022-01-15T12:54:41.000Z</time></trkpt><trkpt lat="39.87435" lon="-8.40444"><time>2022-01-15T12:54:51.000Z</time></trkpt><trkpt lat="39.87433" lon="-8.40441"><ele>508</ele><time>2022-01-15T12:55:01.000Z</time></trkpt><trkpt lat="39.87432" lon="-8.40434"><time>2022-01-15T12:55:11.000Z</time></trkpt><trkpt lat="39.87432" lon="-8.40433"><time>2022-01-15T12:55:21.000Z</time></trkpt><trkpt lat="39.87429" lon="-8.40428"><time>2022-01-15T12:55:31.000Z</time></trkpt><trkpt lat="39.87429" lon="-8.40415"><ele>510</ele><time>2022-01-15T12:55:41.000Z</time></trkpt><trkpt lat="39.87426" lon="-8.40409"><time>2022-01-15T12:55:51.000Z</time></trkpt><trkpt lat="39.87417" lon="-8.4038"><ele>515</ele><time>2022-01-15T12:56:01.000Z</time></trkpt><trkpt lat="39.87409" lon="-8.40362"><time>2022-01-15T12:56:11.000Z</time></trkpt><trkpt lat="39.87402" lon="-8.4035"><ele>520</ele><time>2022-01-15T12:56:21.000Z</time></trkpt><trkpt lat="39.87403" lon="-8.40344"><time>2022-01-15T12:56:31.000Z</time></trkpt><trkpt lat="39.87402" lon="-8.40339"><time>2022-01-15T12:56:41.000Z</time></trkpt><trkpt lat="39.87392" lon="-8.40315"><ele>522</ele><time>2022-01-15T12:56:50.000Z</time></trkpt><trkpt lat="39.87384" lon="-8.40299"><time>2022-01-15T12:57:00.000Z</time></trkpt><trkpt lat="39.8738" lon="-8.40288"><ele>524</ele><time>2022-01-15T12:57:10.000Z</time></trkpt><trkpt lat="39.8738" lon="-8.40289"><time>2022-01-15T12:57:20.000Z</time></trkpt><trkpt lat="39.87377" lon="-8.40284"><time>2022-01-15T12:57:30.000Z</time></trkpt><trkpt lat="39.87368" lon="-8.40268"><time>2022-01-15T12:57:40.000Z</time></trkpt><trkpt lat="39.87363" lon="-8.40258"><ele>526</ele><time>2022-01-15T12:57:38.000Z</time></trkpt><trkpt lat="39.87361" lon="-8.40251"><time>2022-01-15T12:57:48.000Z</time></trkpt><trkpt lat="39.87357" lon="-8.40237"><time>2022-01-15T12:57:58.000Z</time></trkpt><trkpt lat="39.87353" lon="-8.40231"><ele>526</ele><time>2022-01-15T12:57:53.000Z</time></trkpt><trkpt lat="39.87347" lon="-8.40225"><time>2022-01-15T12:58:03.000Z</time></trkpt><trkpt lat="39.87337" lon="-8.40203"><ele>526</ele><time>2022-01-15T12:58:23.000Z</time></trkpt><trkpt lat="39.87336" lon="-8.40182"><time>2022-01-15T12:58:33.000Z</time></trkpt><trkpt lat="39.87337" lon="-8.40178"><time>2022-01-15T12:58:43.000Z</time></trkpt><trkpt lat="39.87337" lon="-8.40171"><ele>525</ele><time>2022-01-15T12:58:53.000Z</time></trkpt><trkpt lat="39.87333" lon="-8.40158"><time>2022-01-15T12:59:03.000Z</time></trkpt><trkpt lat="39.87331" lon="-8.40146"><time>2022-01-15T12:59:13.000Z</time></trkpt><trkpt lat="39.87331" lon="-8.40139"><ele>526</ele><time>2022-01-15T12:59:23.000Z</time></trkpt><trkpt lat="39.87328" lon="-8.40135"><time>2022-01-15T12:59:33.000Z</time></trkpt><trkpt lat="39.87331" lon="-8.40132"><time>2022-01-15T12:59:43.000Z</time></trkpt><trkpt lat="39.87331" lon="-8.40135"><time>2022-01-15T12:59:53.000Z</time></trkpt><trkpt lat="39.87331" lon="-8.40133"><time>2022-01-15T13:00:03.000Z</time></trkpt><trkpt lat="39.87339" lon="-8.40157"><ele>526</ele><time>2022-01-15T13:00:13.000Z</time></trkpt><trkpt lat="39.87342" lon="-8.40161"><time>2022-01-15T13:00:23.000Z</time></trkpt><trkpt lat="39.87344" lon="-8.40163"><time>2022-01-15T13:00:33.000Z</time></trkpt><trkpt lat="39.87346" lon="-8.40163"><time>2022-01-15T13:00:43.000Z</time></trkpt><trkpt lat="39.87368" lon="-8.40159"><ele>526</ele><time>2022-01-15T13:00:53.000Z</time></trkpt><trkpt lat="39.87374" lon="-8.40154"><time>2022-01-15T13:01:03.000Z</time></trkpt><trkpt lat="39.87386" lon="-8.40143"><ele>526</ele><time>2022-01-15T13:01:13.000Z</time></trkpt><trkpt lat="39.87396" lon="-8.40128"><time>2022-01-15T13:01:23.000Z</time></trkpt><trkpt lat="39.87399" lon="-8.40122"><ele>526</ele><time>2022-01-15T13:01:33.000Z</time></trkpt><trkpt lat="39.87405" lon="-8.40103"><time>2022-01-15T13:01:43.000Z</time></trkpt><trkpt lat="39.87405" lon="-8.401"><time>2022-01-15T13:01:53.000Z</time></trkpt><trkpt lat="39.87403" lon="-8.40083"><ele>521</ele><time>2022-01-15T13:02:03.000Z</time></trkpt><trkpt lat="39.87398" lon="-8.40066"><time>2022-01-15T13:02:13.000Z</time></trkpt><trkpt lat="39.87393" lon="-8.40055"><ele>518</ele><time>2022-01-15T13:02:23.000Z</time></trkpt><trkpt lat="39.87389" lon="-8.4005"><time>2022-01-15T13:02:33.000Z</time></trkpt><trkpt lat="39.87378" lon="-8.4004"><time>2022-01-15T13:02:43.000Z</time></trkpt><trkpt lat="39.87361" lon="-8.40029"><ele>515</ele><time>2022-01-15T13:02:53.000Z</time></trkpt><trkpt lat="39.87352" lon="-8.40025"><time>2022-01-15T13:03:03.000Z</time></trkpt><trkpt lat="39.87325" lon="-8.4002"><ele>512</ele><time>2022-01-15T13:03:13.000Z</time></trkpt><trkpt lat="39.87316" lon="-8.4002"><time>2022-01-15T13:03:23.000Z</time></trkpt><trkpt lat="39.87307" lon="-8.40023"><time>2022-01-15T13:03:33.000Z</time></trkpt><trkpt lat="39.87298" lon="-8.40024"><ele>508</ele><time>2022-01-15T13:03:43.000Z</time></trkpt><trkpt lat="39.87287" lon="-8.40022"><time>2022-01-15T13:03:53.000Z</time></trkpt><trkpt lat="39.87281" lon="-8.40017"><time>2022-01-15T13:04:03.000Z</time></trkpt><trkpt lat="39.87279" lon="-8.40015"><time>2022-01-15T13:04:13.000Z</time></trkpt><trkpt lat="39.87275" lon="-8.40007"><ele>507</ele><time>2022-01-15T13:04:23.000Z</time></trkpt><trkpt lat="39.87273" lon="-8.39998"><time>2022-01-15T13:04:33.000Z</time></trkpt><trkpt lat="39.87271" lon="-8.39991"><time>2022-01-15T13:04:43.000Z</time></trkpt><trkpt lat="39.87266" lon="-8.39984"><ele>506</ele><time>2022-01-15T13:04:53.000Z</time></trkpt><trkpt lat="39.87263" lon="-8.39983"><time>2022-01-15T13:05:03.000Z</time></trkpt><trkpt lat="39.87258" lon="-8.39982"><time>2022-01-15T13:05:13.000Z</time></trkpt><trkpt lat="39.87251" lon="-8.39985"><time>2022-01-15T13:05:23.000Z</time></trkpt><trkpt lat="39.87228" lon="-8.39999"><ele>504</ele><time>2022-01-15T13:03:39.000Z</time></trkpt><trkpt lat="39.87186" lon="-8.40032"><ele>497</ele><time>2022-01-15T13:03:56.000Z</time></trkpt><trkpt lat="39.87171" lon="-8.40037"><time>2022-01-15T13:04:06.000Z</time></trkpt><trkpt lat="39.87156" lon="-8.40036"><ele>496</ele><time>2022-01-15T13:04:16.000Z</time></trkpt><trkpt lat="39.87153" lon="-8.40037"><time>2022-01-15T13:04:26.000Z</time></trkpt><trkpt lat="39.87147" lon="-8.40038"><time>2022-01-15T13:04:36.000Z</time></trkpt><trkpt lat="39.87132" lon="-8.40045"><ele>496</ele><time>2022-01-15T13:04:17.000Z</time></trkpt><trkpt lat="39.8711" lon="-8.40052"><ele>493</ele><time>2022-01-15T13:04:25.000Z</time></trkpt><trkpt lat="39.87087" lon="-8.40058"><ele>490</ele><time>2022-01-15T13:04:33.000Z</time></trkpt><trkpt lat="39.87062" lon="-8.40068"><ele>487</ele><time>2022-01-15T13:04:43.000Z</time></trkpt><trkpt lat="39.87037" lon="-8.40077"><ele>486</ele><time>2022-01-15T13:04:51.000Z</time></trkpt><trkpt lat="39.87014" lon="-8.40081"><ele>486</ele><time>2022-01-15T13:05:01.000Z</time></trkpt><trkpt lat="39.87006" lon="-8.40083"><time>2022-01-15T13:05:11.000Z</time></trkpt><trkpt lat="39.86971" lon="-8.40088"><ele>487</ele><time>2022-01-15T13:05:21.000Z</time></trkpt><trkpt lat="39.86966" lon="-8.40091"><time>2022-01-15T13:05:31.000Z</time></trkpt><trkpt lat="39.86947" lon="-8.40107"><ele>488</ele><time>2022-01-15T13:05:24.000Z</time></trkpt><trkpt lat="39.86918" lon="-8.40134"><ele>488</ele><time>2022-01-15T13:05:36.000Z</time></trkpt><trkpt lat="39.86893" lon="-8.40161"><ele>489</ele><time>2022-01-15T13:05:46.000Z</time></trkpt><trkpt lat="39.86852" lon="-8.40206"><ele>488</ele><time>2022-01-15T13:05:56.000Z</time></trkpt><trkpt lat="39.86848" lon="-8.40211"><time>2022-01-15T13:06:06.000Z</time></trkpt><trkpt lat="39.86832" lon="-8.40235"><ele>488</ele><time>2022-01-15T13:06:16.000Z</time></trkpt><trkpt lat="39.86829" lon="-8.40241"><time>2022-01-15T13:06:26.000Z</time></trkpt><trkpt lat="39.86816" lon="-8.40266"><ele>488</ele><time>2022-01-15T13:06:26.000Z</time></trkpt><trkpt lat="39.868" lon="-8.40304"><ele>487</ele><time>2022-01-15T13:06:36.000Z</time></trkpt><trkpt lat="39.86793" lon="-8.40314"><time>2022-01-15T13:06:46.000Z</time></trkpt><trkpt lat="39.86789" lon="-8.40316"><time>2022-01-15T13:06:56.000Z</time></trkpt><trkpt lat="39.86769" lon="-8.40313"><ele>475</ele><time>2022-01-15T13:06:51.000Z</time></trkpt><trkpt lat="39.86748" lon="-8.40306"><ele>475</ele><time>2022-01-15T13:06:59.000Z</time></trkpt><trkpt lat="39.86725" lon="-8.40301"><ele>473</ele><time>2022-01-15T13:07:07.000Z</time></trkpt><trkpt lat="39.86699" lon="-8.40296"><ele>471</ele><time>2022-01-15T13:07:17.000Z</time></trkpt><trkpt lat="39.86682" lon="-8.40294"><time>2022-01-15T13:07:27.000Z</time></trkpt><trkpt lat="39.8665" lon="-8.4029"><ele>470</ele><time>2022-01-15T13:07:34.000Z</time></trkpt><trkpt lat="39.86612" lon="-8.40281"><ele>467</ele><time>2022-01-15T13:07:44.000Z</time></trkpt><trkpt lat="39.86603" lon="-8.40282"><time>2022-01-15T13:07:54.000Z</time></trkpt><trkpt lat="39.86588" lon="-8.40291"><ele>461</ele><time>2022-01-15T13:08:04.000Z</time></trkpt><trkpt lat="39.86573" lon="-8.40297"><time>2022-01-15T13:08:14.000Z</time></trkpt><trkpt lat="39.86547" lon="-8.40302"><ele>457</ele><time>2022-01-15T13:08:24.000Z</time></trkpt><trkpt lat="39.86542" lon="-8.40299"><time>2022-01-15T13:08:34.000Z</time></trkpt><trkpt lat="39.86529" lon="-8.40288"><time>2022-01-15T13:08:44.000Z</time></trkpt><trkpt lat="39.86518" lon="-8.40282"><ele>454</ele><time>2022-01-15T13:08:26.000Z</time></trkpt><trkpt lat="39.86499" lon="-8.40282"><time>2022-01-15T13:08:36.000Z</time></trkpt><trkpt lat="39.86492" lon="-8.40274"><ele>454</ele><time>2022-01-15T13:08:39.000Z</time></trkpt><trkpt lat="39.86481" lon="-8.40248"><ele>454</ele><time>2022-01-15T13:08:49.000Z</time></trkpt><trkpt lat="39.86471" lon="-8.40229"><time>2022-01-15T13:08:59.000Z</time></trkpt><trkpt lat="39.86429" lon="-8.40194"><ele>452</ele><time>2022-01-15T13:09:09.000Z</time></trkpt><trkpt lat="39.86424" lon="-8.40189"><time>2022-01-15T13:09:19.000Z</time></trkpt><trkpt lat="39.86399" lon="-8.40171"><ele>450</ele><time>2022-01-15T13:09:29.000Z</time></trkpt><trkpt lat="39.86384" lon="-8.40159"><time>2022-01-15T13:09:39.000Z</time></trkpt><trkpt lat="39.86378" lon="-8.40157"><ele>453</ele><time>2022-01-15T13:09:49.000Z</time></trkpt><trkpt lat="39.86371" lon="-8.40163"><time>2022-01-15T13:09:59.000Z</time></trkpt><trkpt lat="39.86368" lon="-8.40164"><time>2022-01-15T13:10:09.000Z</time></trkpt><trkpt lat="39.86367" lon="-8.40166"><time>2022-01-15T13:10:19.000Z</time></trkpt><trkpt lat="39.86361" lon="-8.40166"><time>2022-01-15T13:10:29.000Z</time></trkpt><trkpt lat="39.86361" lon="-8.40167"><time>2022-01-15T13:10:39.000Z</time></trkpt><trkpt lat="39.86322" lon="-8.40164"><ele>457</ele><time>2022-01-15T13:10:49.000Z</time></trkpt><trkpt lat="39.8631" lon="-8.40162"><time>2022-01-15T13:10:59.000Z</time></trkpt><trkpt lat="39.86288" lon="-8.40157"><ele>457</ele><time>2022-01-15T13:11:09.000Z</time></trkpt><trkpt lat="39.86283" lon="-8.40157"><time>2022-01-15T13:11:19.000Z</time></trkpt><trkpt lat="39.86273" lon="-8.40154"><time>2022-01-15T13:11:29.000Z</time></trkpt><trkpt lat="39.86261" lon="-8.40153"><ele>457</ele><time>2022-01-15T13:11:39.000Z</time></trkpt><trkpt lat="39.86244" lon="-8.40155"><time>2022-01-15T13:11:49.000Z</time></trkpt><trkpt lat="39.8622" lon="-8.40161"><ele>457</ele><time>2022-01-15T13:11:59.000Z</time></trkpt><trkpt lat="39.86213" lon="-8.40161"><time>2022-01-15T13:12:09.000Z</time></trkpt><trkpt lat="39.86202" lon="-8.40165"><time>2022-01-15T13:12:19.000Z</time></trkpt><trkpt lat="39.86192" lon="-8.40172"><ele>448</ele><time>2022-01-15T13:12:29.000Z</time></trkpt><trkpt lat="39.86186" lon="-8.4018"><time>2022-01-15T13:12:39.000Z</time></trkpt><trkpt lat="39.86182" lon="-8.40186"><time>2022-01-15T13:12:49.000Z</time></trkpt><trkpt lat="39.86182" lon="-8.40186"><time>2022-01-15T13:12:59.000Z</time></trkpt><trkpt lat="39.86181" lon="-8.40196"><ele>445</ele><time>2022-01-15T13:13:09.000Z</time></trkpt><trkpt lat="39.86177" lon="-8.40208"><time>2022-01-15T13:13:19.000Z</time></trkpt><trkpt lat="39.86164" lon="-8.40238"><ele>443</ele><time>2022-01-15T13:13:29.000Z</time></trkpt><trkpt lat="39.8616" lon="-8.40245"><time>2022-01-15T13:13:39.000Z</time></trkpt><trkpt lat="39.86155" lon="-8.40251"><time>2022-01-15T13:13:49.000Z</time></trkpt><trkpt lat="39.86146" lon="-8.4026"><ele>441</ele><time>2022-01-15T13:13:59.000Z</time></trkpt><trkpt lat="39.86134" lon="-8.40271"><time>2022-01-15T13:14:09.000Z</time></trkpt><trkpt lat="39.86109" lon="-8.4029"><ele>446</ele><time>2022-01-15T13:17:48.000Z</time></trkpt><trkpt lat="39.86066" lon="-8.40314"><ele>445</ele><time>2022-01-15T13:17:58.000Z</time></trkpt><trkpt lat="39.86049" lon="-8.40327"><time>2022-01-15T13:18:08.000Z</time></trkpt><trkpt lat="39.8603" lon="-8.4034"><ele>444</ele><time>2022-01-15T13:18:18.000Z</time></trkpt><trkpt lat="39.86011" lon="-8.4035"><time>2022-01-15T13:18:28.000Z</time></trkpt><trkpt lat="39.85985" lon="-8.40365"><ele>444</ele><time>2022-01-15T13:18:42.000Z</time></trkpt><trkpt lat="39.85953" lon="-8.40391"><ele>444</ele><time>2022-01-15T13:18:55.000Z</time></trkpt><trkpt lat="39.85937" lon="-8.40399"><time>2022-01-15T13:19:05.000Z</time></trkpt><trkpt lat="39.85929" lon="-8.40402"><ele>444</ele><time>2022-01-15T13:19:04.000Z</time></trkpt><trkpt lat="39.85907" lon="-8.40412"><ele>435</ele><time>2022-01-15T13:19:12.000Z</time></trkpt><trkpt lat="39.85881" lon="-8.40428"><ele>435</ele><time>2022-01-15T13:19:21.000Z</time></trkpt><trkpt lat="39.85872" lon="-8.40436"><time>2022-01-15T13:19:31.000Z</time></trkpt><trkpt lat="39.85859" lon="-8.40445"><ele>435</ele><time>2022-01-15T13:19:29.000Z</time></trkpt><trkpt lat="39.85822" lon="-8.40476"><ele>435</ele><time>2022-01-15T13:19:45.000Z</time></trkpt><trkpt lat="39.85787" lon="-8.40503"><ele>440</ele><time>2022-01-15T13:19:55.000Z</time></trkpt><trkpt lat="39.8577" lon="-8.40518"><time>2022-01-15T13:20:05.000Z</time></trkpt><trkpt lat="39.85737" lon="-8.40541"><ele>441</ele><time>2022-01-15T13:20:24.000Z</time></trkpt><trkpt lat="39.85709" lon="-8.40556"><ele>444</ele><time>2022-01-15T13:20:37.000Z</time></trkpt><trkpt lat="39.85674" lon="-8.40573"><ele>445</ele><time>2022-01-15T13:20:55.000Z</time></trkpt><trkpt lat="39.85653" lon="-8.40576"><ele>446</ele><time>2022-01-15T13:21:05.000Z</time></trkpt><trkpt lat="39.85645" lon="-8.40575"><time>2022-01-15T13:21:15.000Z</time></trkpt><trkpt lat="39.85635" lon="-8.40572"><time>2022-01-15T13:21:25.000Z</time></trkpt><trkpt lat="39.85622" lon="-8.40565"><ele>448</ele><time>2022-01-15T13:21:35.000Z</time></trkpt><trkpt lat="39.8561" lon="-8.40557"><time>2022-01-15T13:21:45.000Z</time></trkpt><trkpt lat="39.856" lon="-8.40554"><ele>448</ele><time>2022-01-15T13:21:55.000Z</time></trkpt><trkpt lat="39.85589" lon="-8.40554"><time>2022-01-15T13:22:05.000Z</time></trkpt><trkpt lat="39.85574" lon="-8.40561"><ele>448</ele><time>2022-01-15T13:22:15.000Z</time></trkpt><trkpt lat="39.85567" lon="-8.40568"><time>2022-01-15T13:22:25.000Z</time></trkpt><trkpt lat="39.85566" lon="-8.40573"><time>2022-01-15T13:22:35.000Z</time></trkpt><trkpt lat="39.85566" lon="-8.40581"><time>2022-01-15T13:22:45.000Z</time></trkpt><trkpt lat="39.8557" lon="-8.40591"><ele>447</ele><time>2022-01-15T13:22:55.000Z</time></trkpt><trkpt lat="39.85574" lon="-8.40597"><time>2022-01-15T13:23:05.000Z</time></trkpt><trkpt lat="39.85582" lon="-8.4061"><time>2022-01-15T13:23:15.000Z</time></trkpt><trkpt lat="39.85591" lon="-8.40635"><ele>447</ele><time>2022-01-15T13:23:25.000Z</time></trkpt><trkpt lat="39.85596" lon="-8.40653"><time>2022-01-15T13:23:35.000Z</time></trkpt><trkpt lat="39.85598" lon="-8.40669"><ele>448</ele><time>2022-01-15T13:23:45.000Z</time></trkpt><trkpt lat="39.85598" lon="-8.40674"><time>2022-01-15T13:23:55.000Z</time></trkpt><trkpt lat="39.85597" lon="-8.40676"><time>2022-01-15T13:24:05.000Z</time></trkpt><trkpt lat="39.85593" lon="-8.4068"><time>2022-01-15T13:24:15.000Z</time></trkpt><trkpt lat="39.85586" lon="-8.40682"><time>2022-01-15T13:24:25.000Z</time></trkpt><trkpt lat="39.85574" lon="-8.40682"><ele>447</ele><time>2022-01-15T13:24:35.000Z</time></trkpt><trkpt lat="39.85569" lon="-8.40683"><time>2022-01-15T13:24:45.000Z</time></trkpt><trkpt lat="39.85524" lon="-8.40673"><ele>446</ele><time>2022-01-15T13:23:24.000Z</time></trkpt><trkpt lat="39.85516" lon="-8.40672"><time>2022-01-15T13:23:34.000Z</time></trkpt><trkpt lat="39.85497" lon="-8.40672"><ele>444</ele><time>2022-01-15T13:23:34.000Z</time></trkpt><trkpt lat="39.85487" lon="-8.40673"><time>2022-01-15T13:23:44.000Z</time></trkpt><trkpt lat="39.85476" lon="-8.40676"><ele>445</ele><time>2022-01-15T13:23:42.000Z</time></trkpt><trkpt lat="39.85461" lon="-8.40682"><time>2022-01-15T13:23:52.000Z</time></trkpt><trkpt lat="39.8545" lon="-8.40687"><ele>447</ele><time>2022-01-15T13:23:52.000Z</time></trkpt><trkpt lat="39.85423" lon="-8.40716"><ele>447</ele><time>2022-01-15T13:24:02.000Z</time></trkpt><trkpt lat="39.85414" lon="-8.40726"><time>2022-01-15T13:24:12.000Z</time></trkpt><trkpt lat="39.85391" lon="-8.40748"><ele>449</ele><time>2022-01-15T13:24:19.000Z</time></trkpt><trkpt lat="39.85366" lon="-8.40763"><ele>447</ele><time>2022-01-15T13:24:29.000Z</time></trkpt><trkpt lat="39.85356" lon="-8.40769"><time>2022-01-15T13:24:39.000Z</time></trkpt><trkpt lat="39.85334" lon="-8.40779"><ele>445</ele><time>2022-01-15T13:24:43.000Z</time></trkpt><trkpt lat="39.85313" lon="-8.40786"><ele>446</ele><time>2022-01-15T13:24:51.000Z</time></trkpt><trkpt lat="39.85287" lon="-8.40795"><ele>443</ele><time>2022-01-15T13:25:00.000Z</time></trkpt><trkpt lat="39.85268" lon="-8.40807"><ele>445</ele><time>2022-01-15T13:25:08.000Z</time></trkpt><trkpt lat="39.85262" lon="-8.40813"><time>2022-01-15T13:25:18.000Z</time></trkpt><trkpt lat="39.85245" lon="-8.40821"><ele>444</ele><time>2022-01-15T13:25:22.000Z</time></trkpt><trkpt lat="39.85223" lon="-8.40828"><ele>443</ele><time>2022-01-15T13:25:30.000Z</time></trkpt><trkpt lat="39.85195" lon="-8.40846"><ele>439</ele><time>2022-01-15T13:25:40.000Z</time></trkpt><trkpt lat="39.85191" lon="-8.40848"><time>2022-01-15T13:25:50.000Z</time></trkpt><trkpt lat="39.85186" lon="-8.4085"><time>2022-01-15T13:26:00.000Z</time></trkpt><trkpt lat="39.85167" lon="-8.40857"><ele>433</ele><time>2022-01-15T13:25:54.000Z</time></trkpt><trkpt lat="39.85139" lon="-8.40864"><ele>431</ele><time>2022-01-15T13:26:04.000Z</time></trkpt><trkpt lat="39.85135" lon="-8.40865"><time>2022-01-15T13:26:14.000Z</time></trkpt><trkpt lat="39.85108" lon="-8.40878"><ele>429</ele><time>2022-01-15T13:26:24.000Z</time></trkpt><trkpt lat="39.85101" lon="-8.40883"><time>2022-01-15T13:26:34.000Z</time></trkpt><trkpt lat="39.85079" lon="-8.40905"><ele>426</ele><time>2022-01-15T13:26:34.000Z</time></trkpt><trkpt lat="39.85068" lon="-8.40918"><time>2022-01-15T13:26:44.000Z</time></trkpt><trkpt lat="39.8506" lon="-8.40931"><ele>425</ele><time>2022-01-15T13:26:45.000Z</time></trkpt><trkpt lat="39.85048" lon="-8.40942"><time>2022-01-15T13:26:55.000Z</time></trkpt><trkpt lat="39.85035" lon="-8.40953"><ele>419</ele><time>2022-01-15T13:26:57.000Z</time></trkpt><trkpt lat="39.8502" lon="-8.40962"><time>2022-01-15T13:27:07.000Z</time></trkpt><trkpt lat="39.85013" lon="-8.40964"><ele>406</ele><time>2022-01-15T13:27:07.000Z</time></trkpt><trkpt lat="39.85" lon="-8.4097"><time>2022-01-15T13:27:17.000Z</time></trkpt><trkpt lat="39.84989" lon="-8.40973"><ele>402</ele><time>2022-01-15T13:27:17.000Z</time></trkpt><trkpt lat="39.8497" lon="-8.40975"><time>2022-01-15T13:27:27.000Z</time></trkpt><trkpt lat="39.8496" lon="-8.4098"><ele>402</ele><time>2022-01-15T13:27:28.000Z</time></trkpt><trkpt lat="39.84954" lon="-8.40984"><time>2022-01-15T13:27:38.000Z</time></trkpt><trkpt lat="39.84943" lon="-8.40986"><time>2022-01-15T13:27:48.000Z</time></trkpt><trkpt lat="39.84939" lon="-8.40988"><ele>394</ele><time>2022-01-15T13:27:37.000Z</time></trkpt><trkpt lat="39.84922" lon="-8.41003"><ele>394</ele><time>2022-01-15T13:27:47.000Z</time></trkpt><trkpt lat="39.84907" lon="-8.41007"><time>2022-01-15T13:27:57.000Z</time></trkpt><trkpt lat="39.8489" lon="-8.41016"><ele>400</ele><time>2022-01-15T13:28:07.000Z</time></trkpt><trkpt lat="39.84884" lon="-8.41023"><time>2022-01-15T13:28:17.000Z</time></trkpt><trkpt lat="39.84869" lon="-8.41046"><ele>406</ele><time>2022-01-15T13:28:11.000Z</time></trkpt><trkpt lat="39.84864" lon="-8.41058"><time>2022-01-15T13:28:21.000Z</time></trkpt><trkpt lat="39.84853" lon="-8.41076"><ele>414</ele><time>2022-01-15T13:28:24.000Z</time></trkpt><trkpt lat="39.84841" lon="-8.41093"><time>2022-01-15T13:28:34.000Z</time></trkpt><trkpt lat="39.84836" lon="-8.41097"><ele>413</ele><time>2022-01-15T13:28:44.000Z</time></trkpt><trkpt lat="39.84828" lon="-8.41105"><time>2022-01-15T13:28:54.000Z</time></trkpt><trkpt lat="39.84813" lon="-8.41117"><ele>412</ele><time>2022-01-15T13:29:04.000Z</time></trkpt><trkpt lat="39.84795" lon="-8.41131"><time>2022-01-15T13:29:14.000Z</time></trkpt><trkpt lat="39.84782" lon="-8.41138"><ele>408</ele><time>2022-01-15T13:29:24.000Z</time></trkpt><trkpt lat="39.84774" lon="-8.4114"><time>2022-01-15T13:29:34.000Z</time></trkpt><trkpt lat="39.84762" lon="-8.41146"><time>2022-01-15T13:29:44.000Z</time></trkpt><trkpt lat="39.8474" lon="-8.41162"><ele>395</ele><time>2022-01-15T13:29:54.000Z</time></trkpt><trkpt lat="39.84721" lon="-8.4117"><time>2022-01-15T13:30:04.000Z</time></trkpt><trkpt lat="39.84709" lon="-8.41168"><ele>386</ele><time>2022-01-15T13:30:14.000Z</time></trkpt><trkpt lat="39.84699" lon="-8.41164"><time>2022-01-15T13:30:24.000Z</time></trkpt><trkpt lat="39.8469" lon="-8.41162"><time>2022-01-15T13:30:34.000Z</time></trkpt><trkpt lat="39.84684" lon="-8.41162"><ele>384</ele><time>2022-01-15T13:30:44.000Z</time></trkpt><trkpt lat="39.84679" lon="-8.41168"><time>2022-01-15T13:30:54.000Z</time></trkpt><trkpt lat="39.84671" lon="-8.41168"><time>2022-01-15T13:31:04.000Z</time></trkpt><trkpt lat="39.84651" lon="-8.41176"><ele>379</ele><time>2022-01-15T13:30:24.000Z</time></trkpt><trkpt lat="39.84636" lon="-8.41186"><time>2022-01-15T13:30:34.000Z</time></trkpt><trkpt lat="39.84628" lon="-8.41195"><ele>382</ele><time>2022-01-15T13:30:36.000Z</time></trkpt><trkpt lat="39.84624" lon="-8.41198"><time>2022-01-15T13:30:46.000Z</time></trkpt><trkpt lat="39.84615" lon="-8.41204"><time>2022-01-15T13:30:56.000Z</time></trkpt><trkpt lat="39.84609" lon="-8.41209"><ele>381</ele><time>2022-01-15T13:30:46.000Z</time></trkpt><trkpt lat="39.84594" lon="-8.41219"><time>2022-01-15T13:30:56.000Z</time></trkpt><trkpt lat="39.84577" lon="-8.41234"><ele>381</ele><time>2022-01-15T13:31:02.000Z</time></trkpt><trkpt lat="39.84552" lon="-8.4125"><ele>373</ele><time>2022-01-15T13:31:13.000Z</time></trkpt><trkpt lat="39.84539" lon="-8.41256"><time>2022-01-15T13:31:23.000Z</time></trkpt><trkpt lat="39.84528" lon="-8.41255"><ele>372</ele><time>2022-01-15T13:31:33.000Z</time></trkpt><trkpt lat="39.84522" lon="-8.41253"><time>2022-01-15T13:31:43.000Z</time></trkpt><trkpt lat="39.84518" lon="-8.4126"><time>2022-01-15T13:31:53.000Z</time></trkpt><trkpt lat="39.84519" lon="-8.41259"><time>2022-01-15T13:32:03.000Z</time></trkpt><trkpt lat="39.8452" lon="-8.41259"><time>2022-01-15T13:32:13.000Z</time></trkpt><trkpt lat="39.84518" lon="-8.4126"><time>2022-01-15T13:32:23.000Z</time></trkpt><trkpt lat="39.84518" lon="-8.41259"><time>2022-01-15T13:32:33.000Z</time></trkpt><trkpt lat="39.84517" lon="-8.41259"><time>2022-01-15T13:32:43.000Z</time></trkpt><trkpt lat="39.8451" lon="-8.41275"><ele>372</ele><time>2022-01-15T13:32:53.000Z</time></trkpt><trkpt lat="39.84503" lon="-8.41282"><time>2022-01-15T13:33:03.000Z</time></trkpt><trkpt lat="39.84495" lon="-8.41287"><time>2022-01-15T13:33:13.000Z</time></trkpt><trkpt lat="39.84487" lon="-8.41295"><ele>374</ele><time>2022-01-15T13:33:23.000Z</time></trkpt><trkpt lat="39.84485" lon="-8.41299"><time>2022-01-15T13:33:33.000Z</time></trkpt><trkpt lat="39.84473" lon="-8.41304"><time>2022-01-15T13:33:43.000Z</time></trkpt><trkpt lat="39.84468" lon="-8.4131"><ele>374</ele><time>2022-01-15T13:33:53.000Z</time></trkpt><trkpt lat="39.84463" lon="-8.41318"><time>2022-01-15T13:34:03.000Z</time></trkpt><trkpt lat="39.84457" lon="-8.41321"><time>2022-01-15T13:34:13.000Z</time></trkpt><trkpt lat="39.84454" lon="-8.41327"><time>2022-01-15T13:34:23.000Z</time></trkpt><trkpt lat="39.84454" lon="-8.4133"><ele>377</ele><time>2022-01-15T13:34:33.000Z</time></trkpt><trkpt lat="39.84455" lon="-8.4133"><time>2022-01-15T13:34:43.000Z</time></trkpt><trkpt lat="39.84455" lon="-8.41332"><time>2022-01-15T13:34:53.000Z</time></trkpt><trkpt lat="39.84455" lon="-8.41333"><time>2022-01-15T13:35:03.000Z</time></trkpt><trkpt lat="39.84455" lon="-8.41335"><time>2022-01-15T13:35:13.000Z</time></trkpt><trkpt lat="39.84454" lon="-8.41336"><time>2022-01-15T13:35:23.000Z</time></trkpt><trkpt lat="39.84451" lon="-8.41336"><time>2022-01-15T13:35:33.000Z</time></trkpt><trkpt lat="39.84449" lon="-8.41337"><time>2022-01-15T13:35:43.000Z</time></trkpt><trkpt lat="39.8444" lon="-8.41346"><ele>382</ele><time>2022-01-15T13:35:53.000Z</time></trkpt><trkpt lat="39.84438" lon="-8.41351"><time>2022-01-15T13:36:03.000Z</time></trkpt><trkpt lat="39.84421" lon="-8.41373"><ele>378</ele><time>2022-01-15T13:36:13.000Z</time></trkpt><trkpt lat="39.84416" lon="-8.41373"><time>2022-01-15T13:36:23.000Z</time></trkpt><trkpt lat="39.84415" lon="-8.41374"><time>2022-01-15T13:36:33.000Z</time></trkpt><trkpt lat="39.84409" lon="-8.41381"><time>2022-01-15T13:36:43.000Z</time></trkpt><trkpt lat="39.84405" lon="-8.41381"><time>2022-01-15T13:36:53.000Z</time></trkpt><trkpt lat="39.84401" lon="-8.41383"><ele>380</ele><time>2022-01-15T13:37:03.000Z</time></trkpt><trkpt lat="39.84392" lon="-8.4139"><time>2022-01-15T13:37:13.000Z</time></trkpt><trkpt lat="39.84383" lon="-8.41402"><ele>376</ele><time>2022-01-15T13:37:23.000Z</time></trkpt><trkpt lat="39.84375" lon="-8.41402"><time>2022-01-15T13:37:33.000Z</time></trkpt><trkpt lat="39.84364" lon="-8.41408"><time>2022-01-15T13:37:43.000Z</time></trkpt><trkpt lat="39.84356" lon="-8.4141"><ele>373</ele><time>2022-01-15T13:37:53.000Z</time></trkpt><trkpt lat="39.84345" lon="-8.41424"><time>2022-01-15T13:38:03.000Z</time></trkpt><trkpt lat="39.84341" lon="-8.41428"><ele>372</ele><time>2022-01-15T13:38:13.000Z</time></trkpt><trkpt lat="39.84334" lon="-8.41436"><time>2022-01-15T13:38:23.000Z</time></trkpt><trkpt lat="39.84327" lon="-8.41443"><time>2022-01-15T13:38:33.000Z</time></trkpt><trkpt lat="39.84324" lon="-8.41448"><ele>372</ele><time>2022-01-15T13:38:43.000Z</time></trkpt><trkpt lat="39.84326" lon="-8.41452"><time>2022-01-15T13:38:53.000Z</time></trkpt><trkpt lat="39.84326" lon="-8.41452"><time>2022-01-15T13:39:03.000Z</time></trkpt><trkpt lat="39.84323" lon="-8.41455"><time>2022-01-15T13:39:13.000Z</time></trkpt><trkpt lat="39.84321" lon="-8.41462"><time>2022-01-15T13:39:23.000Z</time></trkpt><trkpt lat="39.84321" lon="-8.41468"><time>2022-01-15T13:39:33.000Z</time></trkpt><trkpt lat="39.8432" lon="-8.41471"><ele>372</ele><time>2022-01-15T13:39:43.000Z</time></trkpt><trkpt lat="39.84319" lon="-8.41472"><time>2022-01-15T13:39:53.000Z</time></trkpt><trkpt lat="39.84313" lon="-8.41472"><time>2022-01-15T13:40:03.000Z</time></trkpt><trkpt lat="39.84309" lon="-8.41476"><time>2022-01-15T13:40:13.000Z</time></trkpt><trkpt lat="39.84307" lon="-8.41477"><time>2022-01-15T13:40:23.000Z</time></trkpt><trkpt lat="39.84303" lon="-8.41476"><time>2022-01-15T13:40:33.000Z</time></trkpt><trkpt lat="39.84298" lon="-8.41474"><ele>369</ele><time>2022-01-15T13:40:43.000Z</time></trkpt><trkpt lat="39.84288" lon="-8.41472"><time>2022-01-15T13:40:53.000Z</time></trkpt><trkpt lat="39.84285" lon="-8.4147"><time>2022-01-15T13:41:03.000Z</time></trkpt><trkpt lat="39.84283" lon="-8.41471"><time>2022-01-15T13:41:13.000Z</time></trkpt><trkpt lat="39.84267" lon="-8.41465"><ele>362</ele><time>2022-01-15T13:41:23.000Z</time></trkpt><trkpt lat="39.84263" lon="-8.41465"><time>2022-01-15T13:41:33.000Z</time></trkpt><trkpt lat="39.84251" lon="-8.41467"><time>2022-01-15T13:41:43.000Z</time></trkpt><trkpt lat="39.84248" lon="-8.41469"><time>2022-01-15T13:41:53.000Z</time></trkpt><trkpt lat="39.84244" lon="-8.41473"><ele>362</ele><time>2022-01-15T13:42:03.000Z</time></trkpt><trkpt lat="39.84239" lon="-8.41476"><time>2022-01-15T13:42:13.000Z</time></trkpt><trkpt lat="39.84232" lon="-8.41478"><time>2022-01-15T13:42:23.000Z</time></trkpt><trkpt lat="39.84231" lon="-8.41482"><time>2022-01-15T13:42:33.000Z</time></trkpt><trkpt lat="39.84229" lon="-8.41484"><time>2022-01-15T13:42:43.000Z</time></trkpt><trkpt lat="39.84229" lon="-8.41486"><time>2022-01-15T13:42:53.000Z</time></trkpt><trkpt lat="39.84224" lon="-8.41488"><ele>363</ele><time>2022-01-15T13:43:03.000Z</time></trkpt><trkpt lat="39.8422" lon="-8.4149"><time>2022-01-15T13:43:13.000Z</time></trkpt><trkpt lat="39.84215" lon="-8.41498"><time>2022-01-15T13:43:23.000Z</time></trkpt><trkpt lat="39.84213" lon="-8.41498"><time>2022-01-15T13:43:33.000Z</time></trkpt><trkpt lat="39.84202" lon="-8.41509"><ele>361</ele><time>2022-01-15T13:43:43.000Z</time></trkpt><trkpt lat="39.84197" lon="-8.41514"><time>2022-01-15T13:43:53.000Z</time></trkpt><trkpt lat="39.84194" lon="-8.41518"><time>2022-01-15T13:44:03.000Z</time></trkpt><trkpt lat="39.8419" lon="-8.41521"><time>2022-01-15T13:44:13.000Z</time></trkpt><trkpt lat="39.84179" lon="-8.41528"><ele>361</ele><time>2022-01-15T13:44:23.000Z</time></trkpt><trkpt lat="39.84177" lon="-8.4153"><time>2022-01-15T13:44:33.000Z</time></trkpt><trkpt lat="39.84172" lon="-8.41537"><time>2022-01-15T13:44:43.000Z</time></trkpt><trkpt lat="39.84169" lon="-8.41539"><time>2022-01-15T13:44:53.000Z</time></trkpt><trkpt lat="39.84166" lon="-8.41544"><time>2022-01-15T13:45:03.000Z</time></trkpt><trkpt lat="39.84163" lon="-8.41554"><ele>361</ele><time>2022-01-15T13:45:13.000Z</time></trkpt><trkpt lat="39.8416" lon="-8.41559"><time>2022-01-15T13:45:23.000Z</time></trkpt><trkpt lat="39.84153" lon="-8.41567"><time>2022-01-15T13:45:33.000Z</time></trkpt><trkpt lat="39.84139" lon="-8.41574"><ele>357</ele><time>2022-01-15T13:47:46.000Z</time></trkpt><trkpt lat="39.84135" lon="-8.41574"><time>2022-01-15T13:47:56.000Z</time></trkpt><trkpt lat="39.84133" lon="-8.41575"><time>2022-01-15T13:48:06.000Z</time></trkpt><trkpt lat="39.8413" lon="-8.41577"><time>2022-01-15T13:48:16.000Z</time></trkpt><trkpt lat="39.84118" lon="-8.41583"><ele>357</ele><time>2022-01-15T13:48:03.000Z</time></trkpt><trkpt lat="39.84108" lon="-8.41584"><time>2022-01-15T13:48:13.000Z</time></trkpt><trkpt lat="39.84102" lon="-8.41587"><time>2022-01-15T13:48:23.000Z</time></trkpt><trkpt lat="39.84099" lon="-8.41587"><time>2022-01-15T13:48:33.000Z</time></trkpt><trkpt lat="39.84095" lon="-8.41588"><ele>356</ele><time>2022-01-15T13:48:21.000Z</time></trkpt><trkpt lat="39.84085" lon="-8.41594"><time>2022-01-15T13:48:31.000Z</time></trkpt><trkpt lat="39.84079" lon="-8.416"><time>2022-01-15T13:48:41.000Z</time></trkpt><trkpt lat="39.84075" lon="-8.41602"><ele>355</ele><time>2022-01-15T13:48:51.000Z</time></trkpt><trkpt lat="39.84071" lon="-8.41605"><time>2022-01-15T13:49:01.000Z</time></trkpt><trkpt lat="39.84065" lon="-8.41608"><time>2022-01-15T13:49:11.000Z</time></trkpt><trkpt lat="39.84056" lon="-8.41616"><ele>352</ele><time>2022-01-15T13:49:21.000Z</time></trkpt><trkpt lat="39.84049" lon="-8.41623"><time>2022-01-15T13:49:31.000Z</time></trkpt><trkpt lat="39.84042" lon="-8.41633"><time>2022-01-15T13:49:41.000Z</time></trkpt><trkpt lat="39.84036" lon="-8.41638"><ele>349</ele><time>2022-01-15T13:49:51.000Z</time></trkpt><trkpt lat="39.84034" lon="-8.41643"><time>2022-01-15T13:50:01.000Z</time></trkpt><trkpt lat="39.8403" lon="-8.41647"><time>2022-01-15T13:50:11.000Z</time></trkpt><trkpt lat="39.84014" lon="-8.41662"><ele>347</ele><time>2022-01-15T13:50:21.000Z</time></trkpt><trkpt lat="39.84005" lon="-8.41672"><time>2022-01-15T13:50:31.000Z</time></trkpt><trkpt lat="39.84003" lon="-8.41673"><time>2022-01-15T13:50:41.000Z</time></trkpt><trkpt lat="39.83986" lon="-8.41679"><ele>345</ele><time>2022-01-15T13:50:51.000Z</time></trkpt><trkpt lat="39.83982" lon="-8.41684"><time>2022-01-15T13:51:01.000Z</time></trkpt><trkpt lat="39.83975" lon="-8.41695"><time>2022-01-15T13:51:11.000Z</time></trkpt><trkpt lat="39.83972" lon="-8.41699"><ele>336</ele><time>2022-01-15T13:51:21.000Z</time></trkpt><trkpt lat="39.83971" lon="-8.417"><time>2022-01-15T13:51:31.000Z</time></trkpt><trkpt lat="39.83967" lon="-8.41706"><time>2022-01-15T13:51:41.000Z</time></trkpt><trkpt lat="39.83962" lon="-8.4171"><time>2022-01-15T13:51:51.000Z</time></trkpt><trkpt lat="39.8396" lon="-8.4171"><time>2022-01-15T13:52:01.000Z</time></trkpt><trkpt lat="39.83955" lon="-8.41709"><time>2022-01-15T13:52:11.000Z</time></trkpt><trkpt lat="39.8395" lon="-8.41706"><ele>343</ele><time>2022-01-15T13:52:21.000Z</time></trkpt><trkpt lat="39.83947" lon="-8.41703"><time>2022-01-15T13:52:31.000Z</time></trkpt><trkpt lat="39.83944" lon="-8.41702"><time>2022-01-15T13:52:41.000Z</time></trkpt><trkpt lat="39.83941" lon="-8.41698"><time>2022-01-15T13:52:51.000Z</time></trkpt><trkpt lat="39.8394" lon="-8.41694"><time>2022-01-15T13:53:01.000Z</time></trkpt><trkpt lat="39.83938" lon="-8.41692"><time>2022-01-15T13:53:11.000Z</time></trkpt><trkpt lat="39.83936" lon="-8.4169"><time>2022-01-15T13:53:21.000Z</time></trkpt><trkpt lat="39.83929" lon="-8.41689"><ele>350</ele><time>2022-01-15T13:50:55.000Z</time></trkpt><trkpt lat="39.83922" lon="-8.41692"><time>2022-01-15T13:51:05.000Z</time></trkpt><trkpt lat="39.83913" lon="-8.41692"><time>2022-01-15T13:51:15.000Z</time></trkpt><trkpt lat="39.83902" lon="-8.41695"><ele>354</ele><time>2022-01-15T13:51:17.000Z</time></trkpt><trkpt lat="39.83891" lon="-8.41703"><time>2022-01-15T13:51:27.000Z</time></trkpt><trkpt lat="39.83888" lon="-8.41705"><time>2022-01-15T13:51:37.000Z</time></trkpt><trkpt lat="39.83885" lon="-8.4171"><ele>359</ele><time>2022-01-15T13:51:47.000Z</time></trkpt><trkpt lat="39.83876" lon="-8.41711"><time>2022-01-15T13:51:57.000Z</time></trkpt><trkpt lat="39.83866" lon="-8.41714"><time>2022-01-15T13:52:07.000Z</time></trkpt><trkpt lat="39.83856" lon="-8.41714"><ele>360</ele><time>2022-01-15T13:52:17.000Z</time></trkpt><trkpt lat="39.83854" lon="-8.41716"><time>2022-01-15T13:52:27.000Z</time></trkpt><trkpt lat="39.83848" lon="-8.41719"><time>2022-01-15T13:52:37.000Z</time></trkpt><trkpt lat="39.83845" lon="-8.41723"><time>2022-01-15T13:52:47.000Z</time></trkpt><trkpt lat="39.8384" lon="-8.41725"><time>2022-01-15T13:52:57.000Z</time></trkpt><trkpt lat="39.83835" lon="-8.4173"><ele>361</ele><time>2022-01-15T13:53:07.000Z</time></trkpt><trkpt lat="39.83832" lon="-8.41732"><time>2022-01-15T13:53:17.000Z</time></trkpt><trkpt lat="39.83832" lon="-8.41738"><time>2022-01-15T13:53:27.000Z</time></trkpt><trkpt lat="39.83835" lon="-8.41748"><time>2022-01-15T13:53:37.000Z</time></trkpt><trkpt lat="39.83836" lon="-8.41755"><ele>361</ele><time>2022-01-15T13:53:47.000Z</time></trkpt><trkpt lat="39.83834" lon="-8.41756"><time>2022-01-15T13:53:57.000Z</time></trkpt><trkpt lat="39.83828" lon="-8.41755"><time>2022-01-15T13:54:07.000Z</time></trkpt><trkpt lat="39.83816" lon="-8.41747"><ele>364</ele><time>2022-01-15T13:54:17.000Z</time></trkpt><trkpt lat="39.83808" lon="-8.41745"><time>2022-01-15T13:54:27.000Z</time></trkpt><trkpt lat="39.83805" lon="-8.41743"><time>2022-01-15T13:54:37.000Z</time></trkpt><trkpt lat="39.83802" lon="-8.41735"><time>2022-01-15T13:54:47.000Z</time></trkpt><trkpt lat="39.83801" lon="-8.41734"><time>2022-01-15T13:54:57.000Z</time></trkpt><trkpt lat="39.83792" lon="-8.41732"><ele>378</ele><time>2022-01-15T13:55:07.000Z</time></trkpt><trkpt lat="39.83782" lon="-8.41735"><time>2022-01-15T13:55:17.000Z</time></trkpt><trkpt lat="39.83786" lon="-8.41735"><time>2022-01-15T13:55:27.000Z</time></trkpt><trkpt lat="39.83775" lon="-8.41737"><ele>378</ele><time>2022-01-15T13:55:37.000Z</time></trkpt><trkpt lat="39.8377" lon="-8.41737"><time>2022-01-15T13:55:47.000Z</time></trkpt><trkpt lat="39.83764" lon="-8.41739"><time>2022-01-15T13:55:57.000Z</time></trkpt><trkpt lat="39.83755" lon="-8.41745"><ele>391</ele><time>2022-01-15T13:56:07.000Z</time></trkpt><trkpt lat="39.83746" lon="-8.41748"><time>2022-01-15T13:56:17.000Z</time></trkpt><trkpt lat="39.83743" lon="-8.41748"><time>2022-01-15T13:56:27.000Z</time></trkpt><trkpt lat="39.83735" lon="-8.41752"><ele>390</ele><time>2022-01-15T13:56:37.000Z</time></trkpt><trkpt lat="39.8373" lon="-8.41754"><time>2022-01-15T13:56:47.000Z</time></trkpt><trkpt lat="39.83727" lon="-8.41758"><time>2022-01-15T13:56:57.000Z</time></trkpt><trkpt lat="39.83716" lon="-8.41763"><time>2022-01-15T13:57:07.000Z</time></trkpt><trkpt lat="39.83698" lon="-8.4178"><ele>393</ele><time>2022-01-15T13:57:17.000Z</time></trkpt><trkpt lat="39.83693" lon="-8.41787"><time>2022-01-15T13:57:27.000Z</time></trkpt><trkpt lat="39.83688" lon="-8.41794"><time>2022-01-15T13:57:37.000Z</time></trkpt><trkpt lat="39.83673" lon="-8.41799"><ele>397</ele><time>2022-01-15T13:57:47.000Z</time></trkpt><trkpt lat="39.83665" lon="-8.41803"><time>2022-01-15T13:57:57.000Z</time></trkpt><trkpt lat="39.83658" lon="-8.41808"><time>2022-01-15T13:58:07.000Z</time></trkpt><trkpt lat="39.83652" lon="-8.41811"><ele>397</ele><time>2022-01-15T13:58:17.000Z</time></trkpt><trkpt lat="39.83641" lon="-8.41818"><time>2022-01-15T13:58:27.000Z</time></trkpt><trkpt lat="39.83632" lon="-8.41825"><ele>397</ele><time>2022-01-15T13:58:37.000Z</time></trkpt><trkpt lat="39.83617" lon="-8.4183"><time>2022-01-15T13:58:47.000Z</time></trkpt><trkpt lat="39.83598" lon="-8.41839"><ele>403</ele><time>2022-01-15T13:58:57.000Z</time></trkpt><trkpt lat="39.8359" lon="-8.41845"><time>2022-01-15T13:59:07.000Z</time></trkpt><trkpt lat="39.83581" lon="-8.41847"><time>2022-01-15T13:59:17.000Z</time></trkpt><trkpt lat="39.83574" lon="-8.4185"><ele>409</ele><time>2022-01-15T13:59:27.000Z</time></trkpt><trkpt lat="39.83561" lon="-8.41859"><time>2022-01-15T13:59:37.000Z</time></trkpt><trkpt lat="39.83557" lon="-8.41861"><time>2022-01-15T13:59:47.000Z</time></trkpt><trkpt lat="39.83542" lon="-8.41866"><ele>415</ele><time>2022-01-15T13:59:57.000Z</time></trkpt><trkpt lat="39.83537" lon="-8.41865"><time>2022-01-15T14:00:07.000Z</time></trkpt><trkpt lat="39.83536" lon="-8.41866"><time>2022-01-15T14:00:17.000Z</time></trkpt><trkpt lat="39.83526" lon="-8.41866"><time>2022-01-15T14:00:27.000Z</time></trkpt><trkpt lat="39.83514" lon="-8.41861"><ele>416</ele><time>2022-01-15T14:00:37.000Z</time></trkpt><trkpt lat="39.83506" lon="-8.41857"><time>2022-01-15T14:00:47.000Z</time></trkpt><trkpt lat="39.83495" lon="-8.41854"><time>2022-01-15T14:00:57.000Z</time></trkpt><trkpt lat="39.83486" lon="-8.41854"><ele>418</ele><time>2022-01-15T14:01:07.000Z</time></trkpt><trkpt lat="39.83481" lon="-8.41851"><time>2022-01-15T14:01:17.000Z</time></trkpt><trkpt lat="39.83467" lon="-8.41852"><time>2022-01-15T14:01:27.000Z</time></trkpt><trkpt lat="39.83462" lon="-8.41849"><ele>418</ele><time>2022-01-15T14:01:37.000Z</time></trkpt><trkpt lat="39.83457" lon="-8.41844"><time>2022-01-15T14:01:47.000Z</time></trkpt><trkpt lat="39.83456" lon="-8.41842"><time>2022-01-15T14:01:57.000Z</time></trkpt><trkpt lat="39.83455" lon="-8.41837"><time>2022-01-15T14:02:07.000Z</time></trkpt><trkpt lat="39.83451" lon="-8.41842"><time>2022-01-15T14:02:17.000Z</time></trkpt><trkpt lat="39.83443" lon="-8.41863"><ele>422</ele><time>2022-01-15T14:02:27.000Z</time></trkpt><trkpt lat="39.83439" lon="-8.41867"><time>2022-01-15T14:02:37.000Z</time></trkpt><trkpt lat="39.83436" lon="-8.41869"><time>2022-01-15T14:02:47.000Z</time></trkpt><trkpt lat="39.83435" lon="-8.41871"><time>2022-01-15T14:02:57.000Z</time></trkpt><trkpt lat="39.83428" lon="-8.41873"><time>2022-01-15T14:03:07.000Z</time></trkpt><trkpt lat="39.83427" lon="-8.41873"><time>2022-01-15T14:03:17.000Z</time></trkpt><trkpt lat="39.83428" lon="-8.41864"><ele>424</ele><time>2022-01-15T14:03:27.000Z</time></trkpt><trkpt lat="39.83428" lon="-8.41853"><time>2022-01-15T14:03:37.000Z</time></trkpt><trkpt lat="39.83432" lon="-8.4183"><ele>430</ele><time>2022-01-15T14:03:47.000Z</time></trkpt><trkpt lat="39.83436" lon="-8.4182"><time>2022-01-15T14:03:57.000Z</time></trkpt><trkpt lat="39.83439" lon="-8.41817"><time>2022-01-15T14:04:07.000Z</time></trkpt><trkpt lat="39.83446" lon="-8.41804"><ele>430</ele><time>2022-01-15T14:04:17.000Z</time></trkpt><trkpt lat="39.83455" lon="-8.4179"><time>2022-01-15T14:04:27.000Z</time></trkpt><trkpt lat="39.83457" lon="-8.41789"><time>2022-01-15T14:04:37.000Z</time></trkpt><trkpt lat="39.83461" lon="-8.41788"><time>2022-01-15T14:04:47.000Z</time></trkpt><trkpt lat="39.83467" lon="-8.41783"><ele>432</ele><time>2022-01-15T14:04:57.000Z</time></trkpt><trkpt lat="39.83471" lon="-8.41775"><time>2022-01-15T14:05:07.000Z</time></trkpt><trkpt lat="39.83471" lon="-8.4177"><time>2022-01-15T14:05:17.000Z</time></trkpt><trkpt lat="39.83476" lon="-8.41761"><time>2022-01-15T14:05:27.000Z</time></trkpt><trkpt lat="39.83484" lon="-8.41754"><ele>439</ele><time>2022-11-28T10:38:28.000Z</time></trkpt><trkpt lat="39.83489" lon="-8.41747"><time>2022-11-28T10:38:38.000Z</time></trkpt><trkpt lat="39.83493" lon="-8.41737"><time>2022-11-28T10:38:48.000Z</time></trkpt><trkpt lat="39.83497" lon="-8.41724"><ele>447</ele><time>2022-11-28T10:38:34.000Z</time></trkpt><trkpt lat="39.83502" lon="-8.41717"><time>2022-11-28T10:38:44.000Z</time></trkpt><trkpt lat="39.83504" lon="-8.41716"><time>2022-11-28T10:38:54.000Z</time></trkpt><trkpt lat="39.83508" lon="-8.41707"><time>2022-11-28T10:39:04.000Z</time></trkpt><trkpt lat="39.83513" lon="-8.417"><ele>447</ele><time>2022-11-28T10:39:14.000Z</time></trkpt><trkpt lat="39.83514" lon="-8.41697"><time>2022-11-28T10:39:24.000Z</time></trkpt><trkpt lat="39.83517" lon="-8.41691"><time>2022-11-28T10:39:34.000Z</time></trkpt><trkpt lat="39.83521" lon="-8.41683"><time>2022-11-28T10:39:44.000Z</time></trkpt><trkpt lat="39.83524" lon="-8.41681"><time>2022-11-28T10:39:54.000Z</time></trkpt><trkpt lat="39.83524" lon="-8.41681"><time>2022-11-28T10:40:04.000Z</time></trkpt><trkpt lat="39.8353" lon="-8.41673"><ele>456</ele><time>2022-11-28T10:38:46.000Z</time></trkpt><trkpt lat="39.83539" lon="-8.41656"><time>2022-11-28T10:38:56.000Z</time></trkpt><trkpt lat="39.83544" lon="-8.41649"><ele>460</ele><time>2022-11-28T10:39:06.000Z</time></trkpt><trkpt lat="39.83549" lon="-8.41641"><time>2022-11-28T10:39:16.000Z</time></trkpt><trkpt lat="39.83549" lon="-8.4164"><time>2022-11-28T10:39:26.000Z</time></trkpt><trkpt lat="39.83551" lon="-8.41637"><time>2022-11-28T10:39:36.000Z</time></trkpt><trkpt lat="39.83554" lon="-8.41635"><time>2022-11-28T10:39:46.000Z</time></trkpt><trkpt lat="39.83553" lon="-8.41637"><time>2022-11-28T10:39:56.000Z</time></trkpt><trkpt lat="39.83557" lon="-8.41631"><ele>464</ele><time>2022-11-28T10:40:06.000Z</time></trkpt><trkpt lat="39.83559" lon="-8.41626"><time>2022-11-28T10:40:16.000Z</time></trkpt><trkpt lat="39.83562" lon="-8.41623"><time>2022-11-28T10:40:26.000Z</time></trkpt><trkpt lat="39.83564" lon="-8.41616"><time>2022-11-28T10:40:36.000Z</time></trkpt><trkpt lat="39.83565" lon="-8.4161"><time>2022-11-28T10:40:46.000Z</time></trkpt><trkpt lat="39.83568" lon="-8.41599"><ele>474</ele><time>2022-11-28T10:40:56.000Z</time></trkpt><trkpt lat="39.83569" lon="-8.41596"><time>2022-11-28T10:41:06.000Z</time></trkpt><trkpt lat="39.83578" lon="-8.41584"><time>2022-11-28T10:41:16.000Z</time></trkpt><trkpt lat="39.83578" lon="-8.41577"><ele>481</ele><time>2022-11-28T10:41:26.000Z</time></trkpt><trkpt lat="39.83581" lon="-8.41572"><time>2022-11-28T10:41:36.000Z</time></trkpt><trkpt lat="39.83587" lon="-8.41566"><time>2022-11-28T10:41:46.000Z</time></trkpt><trkpt lat="39.83589" lon="-8.41565"><time>2022-11-28T10:41:56.000Z</time></trkpt><trkpt lat="39.83591" lon="-8.41566"><time>2022-11-28T10:42:06.000Z</time></trkpt><trkpt lat="39.8359" lon="-8.41566"><time>2022-11-28T10:42:16.000Z</time></trkpt><trkpt lat="39.83594" lon="-8.41553"><ele>489</ele><time>2022-11-28T10:39:22.000Z</time></trkpt><trkpt lat="39.83596" lon="-8.41548"><time>2022-11-28T10:39:32.000Z</time></trkpt><trkpt lat="39.83597" lon="-8.41541"><time>2022-11-28T10:39:42.000Z</time></trkpt><trkpt lat="39.83597" lon="-8.41536"><time>2022-11-28T10:39:52.000Z</time></trkpt><trkpt lat="39.83603" lon="-8.41525"><ele>493</ele><time>2022-11-28T10:39:26.000Z</time></trkpt><trkpt lat="39.83604" lon="-8.41516"><time>2022-11-28T10:39:36.000Z</time></trkpt><trkpt lat="39.83608" lon="-8.41511"><time>2022-11-28T10:39:46.000Z</time></trkpt><trkpt lat="39.83607" lon="-8.41505"><time>2022-11-28T10:39:56.000Z</time></trkpt><trkpt lat="39.83609" lon="-8.41499"><ele>500</ele><time>2022-11-28T10:39:32.000Z</time></trkpt><trkpt lat="39.83609" lon="-8.41495"><time>2022-11-28T10:39:42.000Z</time></trkpt><trkpt lat="39.8361" lon="-8.41492"><time>2022-11-28T10:39:52.000Z</time></trkpt><trkpt lat="39.83613" lon="-8.4149"><time>2022-11-28T10:40:02.000Z</time></trkpt><trkpt lat="39.83614" lon="-8.41478"><time>2022-11-28T10:40:12.000Z</time></trkpt><trkpt lat="39.83616" lon="-8.41471"><ele>509</ele><time>2022-11-28T10:39:38.000Z</time></trkpt><trkpt lat="39.83617" lon="-8.41462"><time>2022-11-28T10:39:48.000Z</time></trkpt><trkpt lat="39.83619" lon="-8.41462"><time>2022-11-28T10:39:58.000Z</time></trkpt><trkpt lat="39.83619" lon="-8.41463"><time>2022-11-28T10:40:08.000Z</time></trkpt><trkpt lat="39.83619" lon="-8.41462"><time>2022-11-28T10:40:18.000Z</time></trkpt><trkpt lat="39.83622" lon="-8.41447"><ele>515</ele><time>2022-11-28T10:39:46.000Z</time></trkpt><trkpt lat="39.83621" lon="-8.4141"><ele>522</ele><time>2022-11-28T10:39:56.000Z</time></trkpt><trkpt lat="39.83623" lon="-8.41406"><time>2022-11-28T10:40:06.000Z</time></trkpt><trkpt lat="39.83622" lon="-8.41402"><time>2022-11-28T10:40:16.000Z</time></trkpt><trkpt lat="39.83623" lon="-8.41397"><time>2022-11-28T10:40:26.000Z</time></trkpt><trkpt lat="39.83625" lon="-8.41394"><time>2022-11-28T10:40:36.000Z</time></trkpt><trkpt lat="39.83624" lon="-8.41392"><time>2022-11-28T10:40:46.000Z</time></trkpt><trkpt lat="39.83627" lon="-8.41387"><time>2022-11-28T10:40:56.000Z</time></trkpt><trkpt lat="39.83632" lon="-8.41372"><ele>526</ele><time>2022-11-28T10:41:06.000Z</time></trkpt><trkpt lat="39.83633" lon="-8.4137"><time>2022-11-28T10:41:16.000Z</time></trkpt><trkpt lat="39.83637" lon="-8.41363"><time>2022-11-28T10:41:26.000Z</time></trkpt><trkpt lat="39.83638" lon="-8.41358"><time>2022-11-28T10:41:36.000Z</time></trkpt><trkpt lat="39.83639" lon="-8.41353"><time>2022-11-28T10:41:46.000Z</time></trkpt><trkpt lat="39.83639" lon="-8.4135"><time>2022-11-28T10:41:56.000Z</time></trkpt><trkpt lat="39.83644" lon="-8.41333"><ele>533</ele><time>2022-11-28T10:42:06.000Z</time></trkpt><trkpt lat="39.83648" lon="-8.41328"><time>2022-11-28T10:42:16.000Z</time></trkpt><trkpt lat="39.8365" lon="-8.41315"><time>2022-11-28T10:42:26.000Z</time></trkpt><trkpt lat="39.83653" lon="-8.41307"><ele>540</ele><time>2022-11-28T10:42:36.000Z</time></trkpt><trkpt lat="39.83654" lon="-8.41298"><time>2022-11-28T10:42:46.000Z</time></trkpt><trkpt lat="39.83655" lon="-8.41292"><time>2022-11-28T10:42:56.000Z</time></trkpt><trkpt lat="39.83658" lon="-8.41287"><time>2022-11-28T10:43:06.000Z</time></trkpt><trkpt lat="39.8366" lon="-8.41278"><ele>541</ele><time>2022-11-28T10:43:16.000Z</time></trkpt><trkpt lat="39.83661" lon="-8.41272"><time>2022-11-28T10:43:26.000Z</time></trkpt><trkpt lat="39.83661" lon="-8.41266"><time>2022-11-28T10:43:36.000Z</time></trkpt><trkpt lat="39.83664" lon="-8.4126"><time>2022-11-28T10:43:46.000Z</time></trkpt><trkpt lat="39.83664" lon="-8.41258"><time>2022-11-28T10:43:56.000Z</time></trkpt><trkpt lat="39.83667" lon="-8.4125"><ele>549</ele><time>2022-11-28T10:44:06.000Z</time></trkpt><trkpt lat="39.83667" lon="-8.4125"><time>2022-11-28T10:44:16.000Z</time></trkpt><trkpt lat="39.83667" lon="-8.4125"><time>2022-11-28T10:44:26.000Z</time></trkpt><trkpt lat="39.83668" lon="-8.41244"><time>2022-11-28T10:44:36.000Z</time></trkpt><trkpt lat="39.83668" lon="-8.41235"><time>2022-11-28T10:44:46.000Z</time></trkpt><trkpt lat="39.83668" lon="-8.41229"><time>2022-11-28T10:44:56.000Z</time></trkpt><trkpt lat="39.83667" lon="-8.4122"><ele>555</ele><time>2022-11-28T10:45:06.000Z</time></trkpt><trkpt lat="39.83667" lon="-8.41217"><time>2022-11-28T10:45:16.000Z</time></trkpt><trkpt lat="39.83666" lon="-8.41218"><time>2022-11-28T10:45:26.000Z</time></trkpt><trkpt lat="39.83666" lon="-8.41211"><time>2022-11-28T10:45:36.000Z</time></trkpt><trkpt lat="39.83668" lon="-8.41208"><time>2022-11-28T10:45:46.000Z</time></trkpt><trkpt lat="39.83668" lon="-8.41202"><time>2022-11-28T10:45:56.000Z</time></trkpt><trkpt lat="39.83669" lon="-8.41197"><time>2022-11-28T10:46:06.000Z</time></trkpt><trkpt lat="39.83669" lon="-8.41194"><ele>559</ele><time>2022-11-28T10:46:16.000Z</time></trkpt><trkpt lat="39.83671" lon="-8.41189"><time>2022-11-28T10:46:26.000Z</time></trkpt><trkpt lat="39.83671" lon="-8.41183"><time>2022-11-28T10:46:36.000Z</time></trkpt><trkpt lat="39.83673" lon="-8.4118"><time>2022-11-28T10:46:46.000Z</time></trkpt><trkpt lat="39.83674" lon="-8.41176"><time>2022-11-28T10:46:56.000Z</time></trkpt><trkpt lat="39.83676" lon="-8.41167"><ele>566</ele><time>2022-11-28T10:47:06.000Z</time></trkpt><trkpt lat="39.83681" lon="-8.41161"><time>2022-11-28T10:47:16.000Z</time></trkpt><trkpt lat="39.83681" lon="-8.41159"><time>2022-11-28T10:47:26.000Z</time></trkpt><trkpt lat="39.8368" lon="-8.41159"><time>2022-11-28T10:47:36.000Z</time></trkpt><trkpt lat="39.83683" lon="-8.41155"><time>2022-11-28T10:47:46.000Z</time></trkpt><trkpt lat="39.83685" lon="-8.41152"><time>2022-11-28T10:47:56.000Z</time></trkpt><trkpt lat="39.83688" lon="-8.41138"><ele>572</ele><time>2022-11-28T10:48:06.000Z</time></trkpt><trkpt lat="39.8369" lon="-8.41132"><time>2022-11-28T10:48:16.000Z</time></trkpt><trkpt lat="39.83689" lon="-8.41122"><time>2022-11-28T10:48:26.000Z</time></trkpt><trkpt lat="39.83689" lon="-8.4112"><time>2022-11-28T10:48:36.000Z</time></trkpt><trkpt lat="39.83693" lon="-8.41113"><time>2022-11-28T10:48:46.000Z</time></trkpt><trkpt lat="39.83693" lon="-8.41109"><ele>572</ele><time>2022-11-28T10:48:56.000Z</time></trkpt><trkpt lat="39.83694" lon="-8.41105"><time>2022-11-28T10:49:06.000Z</time></trkpt><trkpt lat="39.83694" lon="-8.41097"><time>2022-11-28T10:49:16.000Z</time></trkpt><trkpt lat="39.83697" lon="-8.41095"><time>2022-11-28T10:49:26.000Z</time></trkpt><trkpt lat="39.83701" lon="-8.41091"><time>2022-11-28T10:49:36.000Z</time></trkpt><trkpt lat="39.8371" lon="-8.41082"><ele>579</ele><time>2022-11-28T10:41:23.000Z</time></trkpt><trkpt lat="39.83708" lon="-8.41079"><time>2022-11-28T10:41:33.000Z</time></trkpt><trkpt lat="39.83708" lon="-8.41077"><time>2022-11-28T10:41:43.000Z</time></trkpt><trkpt lat="39.83706" lon="-8.41075"><time>2022-11-28T10:41:53.000Z</time></trkpt><trkpt lat="39.83695" lon="-8.41073"><time>2022-11-28T10:42:03.000Z</time></trkpt><trkpt lat="39.83693" lon="-8.41074"><time>2022-11-28T10:42:13.000Z</time></trkpt><trkpt lat="39.83693" lon="-8.41075"><ele>579</ele><time>2022-11-28T10:41:31.000Z</time></trkpt><trkpt lat="39.83668" lon="-8.41075"><ele>576</ele><time>2022-11-28T10:41:35.000Z</time></trkpt><trkpt lat="39.83652" lon="-8.41078"><time>2022-11-28T10:41:45.000Z</time></trkpt><trkpt lat="39.83651" lon="-8.41079"><time>2022-11-28T10:41:55.000Z</time></trkpt><trkpt lat="39.83649" lon="-8.4108"><time>2022-11-28T10:42:05.000Z</time></trkpt><trkpt lat="39.83632" lon="-8.41084"><ele>573</ele><time>2022-11-28T10:41:42.000Z</time></trkpt><trkpt lat="39.8362" lon="-8.41085"><time>2022-11-28T10:41:52.000Z</time></trkpt><trkpt lat="39.83607" lon="-8.41087"><ele>566</ele><time>2022-11-28T10:41:43.000Z</time></trkpt><trkpt lat="39.83595" lon="-8.41085"><time>2022-11-28T10:41:53.000Z</time></trkpt><trkpt lat="39.83582" lon="-8.41084"><ele>570</ele><time>2022-11-28T10:41:47.000Z</time></trkpt><trkpt lat="39.83538" lon="-8.41072"><ele>574</ele><time>2022-11-28T10:41:53.000Z</time></trkpt><trkpt lat="39.83531" lon="-8.41071"><time>2022-11-28T10:42:03.000Z</time></trkpt><trkpt lat="39.83524" lon="-8.41067"><time>2022-11-28T10:42:13.000Z</time></trkpt><trkpt lat="39.83522" lon="-8.41065"><time>2022-11-28T10:42:23.000Z</time></trkpt><trkpt lat="39.83512" lon="-8.41063"><ele>580</ele><time>2022-11-28T10:42:00.000Z</time></trkpt><trkpt lat="39.83499" lon="-8.41063"><time>2022-11-28T10:42:10.000Z</time></trkpt><trkpt lat="39.8349" lon="-8.41064"><ele>585</ele><time>2022-11-28T10:42:20.000Z</time></trkpt><trkpt lat="39.83484" lon="-8.41063"><time>2022-11-28T10:42:30.000Z</time></trkpt><trkpt lat="39.83474" lon="-8.41063"><time>2022-11-28T10:42:40.000Z</time></trkpt><trkpt lat="39.83467" lon="-8.41061"><ele>585</ele><time>2022-11-28T10:42:50.000Z</time></trkpt><trkpt lat="39.83458" lon="-8.41059"><time>2022-11-28T10:43:00.000Z</time></trkpt><trkpt lat="39.83427" lon="-8.4106"><ele>586</ele><time>2022-11-28T10:43:10.000Z</time></trkpt><trkpt lat="39.83425" lon="-8.4106"><time>2022-11-28T10:43:20.000Z</time></trkpt><trkpt lat="39.83415" lon="-8.41056"><time>2022-11-28T10:43:30.000Z</time></trkpt><trkpt lat="39.8341" lon="-8.41055"><time>2022-11-28T10:43:40.000Z</time></trkpt><trkpt lat="39.83401" lon="-8.4105"><ele>588</ele><time>2022-11-28T10:43:50.000Z</time></trkpt><trkpt lat="39.83395" lon="-8.41049"><time>2022-11-28T10:44:00.000Z</time></trkpt><trkpt lat="39.83382" lon="-8.41051"><time>2022-11-28T10:44:10.000Z</time></trkpt><trkpt lat="39.83381" lon="-8.41051"><time>2022-11-28T10:44:20.000Z</time></trkpt><trkpt lat="39.83363" lon="-8.41042"><ele>590</ele><time>2022-11-28T10:44:30.000Z</time></trkpt><trkpt lat="39.83357" lon="-8.4104"><time>2022-11-28T10:44:40.000Z</time></trkpt><trkpt lat="39.83353" lon="-8.41041"><time>2022-11-28T10:44:50.000Z</time></trkpt><trkpt lat="39.83336" lon="-8.4104"><ele>593</ele><time>2022-11-28T10:45:00.000Z</time></trkpt><trkpt lat="39.83324" lon="-8.41043"><time>2022-11-28T10:45:10.000Z</time></trkpt><trkpt lat="39.83316" lon="-8.41042"><time>2022-11-28T10:45:20.000Z</time></trkpt><trkpt lat="39.83304" lon="-8.41041"><ele>599</ele><time>2022-11-28T10:45:30.000Z</time></trkpt><trkpt lat="39.83298" lon="-8.41041"><time>2022-11-28T10:45:40.000Z</time></trkpt><trkpt lat="39.83294" lon="-8.41043"><time>2022-11-28T10:45:50.000Z</time></trkpt><trkpt lat="39.83288" lon="-8.41046"><time>2022-11-28T10:46:00.000Z</time></trkpt><trkpt lat="39.83273" lon="-8.41049"><ele>600</ele><time>2022-11-28T10:46:10.000Z</time></trkpt><trkpt lat="39.83264" lon="-8.41052"><time>2022-11-28T10:46:20.000Z</time></trkpt><trkpt lat="39.8325" lon="-8.41059"><ele>599</ele><time>2022-11-28T10:46:30.000Z</time></trkpt><trkpt lat="39.83245" lon="-8.41063"><time>2022-11-28T10:46:40.000Z</time></trkpt><trkpt lat="39.8324" lon="-8.41066"><time>2022-11-28T10:46:50.000Z</time></trkpt><trkpt lat="39.83206" lon="-8.41075"><ele>599</ele><time>2022-11-28T10:42:57.000Z</time></trkpt><trkpt lat="39.83186" lon="-8.41082"><ele>602</ele><time>2022-11-28T10:43:07.000Z</time></trkpt><trkpt lat="39.83168" lon="-8.41086"><time>2022-11-28T10:43:17.000Z</time></trkpt><trkpt lat="39.83169" lon="-8.41087"><time>2022-11-28T10:43:27.000Z</time></trkpt><trkpt lat="39.83161" lon="-8.41085"><ele>602</ele><time>2022-11-28T10:43:37.000Z</time></trkpt><trkpt lat="39.8315" lon="-8.41085"><time>2022-11-28T10:43:47.000Z</time></trkpt><trkpt lat="39.83144" lon="-8.41086"><time>2022-11-28T10:43:57.000Z</time></trkpt><trkpt lat="39.83138" lon="-8.41084"><ele>602</ele><time>2022-11-28T10:44:07.000Z</time></trkpt><trkpt lat="39.83134" lon="-8.41087"><time>2022-11-28T10:44:17.000Z</time></trkpt><trkpt lat="39.8313" lon="-8.41088"><time>2022-11-28T10:44:27.000Z</time></trkpt><trkpt lat="39.83125" lon="-8.41088"><time>2022-11-28T10:44:37.000Z</time></trkpt><trkpt lat="39.83119" lon="-8.41088"><time>2022-11-28T10:44:47.000Z</time></trkpt><trkpt lat="39.831" lon="-8.41094"><ele>603</ele><time>2022-11-28T10:44:57.000Z</time></trkpt><trkpt lat="39.83095" lon="-8.41096"><time>2022-11-28T10:45:07.000Z</time></trkpt><trkpt lat="39.83089" lon="-8.41095"><time>2022-11-28T10:45:17.000Z</time></trkpt><trkpt lat="39.83074" lon="-8.41096"><ele>603</ele><time>2022-11-28T10:43:43.000Z</time></trkpt><trkpt lat="39.8305" lon="-8.411"><ele>601</ele><time>2022-11-28T10:43:53.000Z</time></trkpt><trkpt lat="39.83052" lon="-8.41101"><time>2022-11-28T10:44:03.000Z</time></trkpt><trkpt lat="39.83052" lon="-8.411"><time>2022-11-28T10:44:13.000Z</time></trkpt><trkpt lat="39.83051" lon="-8.41101"><time>2022-11-28T10:44:23.000Z</time></trkpt><trkpt lat="39.83041" lon="-8.41097"><time>2022-11-28T10:44:33.000Z</time></trkpt><trkpt lat="39.83027" lon="-8.41099"><ele>602</ele><time>2022-11-28T10:44:43.000Z</time></trkpt><trkpt lat="39.83022" lon="-8.41098"><time>2022-11-28T10:44:53.000Z</time></trkpt><trkpt lat="39.83013" lon="-8.41098"><time>2022-11-28T10:45:03.000Z</time></trkpt><trkpt lat="39.83003" lon="-8.41102"><ele>603</ele><time>2022-11-28T10:45:13.000Z</time></trkpt><trkpt lat="39.82995" lon="-8.41103"><time>2022-11-28T10:45:23.000Z</time></trkpt><trkpt lat="39.82926" lon="-8.41142"><ele>614</ele><time>2022-11-28T10:45:33.000Z</time></trkpt><trkpt lat="39.82924" lon="-8.41144"><time>2022-11-28T10:45:43.000Z</time></trkpt><trkpt lat="39.82917" lon="-8.41145"><time>2022-11-28T10:45:53.000Z</time></trkpt><trkpt lat="39.82914" lon="-8.41147"><time>2022-11-28T10:46:03.000Z</time></trkpt><trkpt lat="39.82906" lon="-8.41147"><ele>614</ele><time>2022-11-28T10:46:13.000Z</time></trkpt><trkpt lat="39.82902" lon="-8.41145"><time>2022-11-28T10:46:23.000Z</time></trkpt><trkpt lat="39.82896" lon="-8.41148"><time>2022-11-28T10:46:33.000Z</time></trkpt><trkpt lat="39.82892" lon="-8.4115"><time>2022-11-28T10:46:43.000Z</time></trkpt><trkpt lat="39.8289" lon="-8.41151"><time>2022-11-28T10:46:53.000Z</time></trkpt><trkpt lat="39.82885" lon="-8.41151"><ele>614</ele><time>2022-11-28T10:47:03.000Z</time></trkpt><trkpt lat="39.82881" lon="-8.41149"><time>2022-11-28T10:47:13.000Z</time></trkpt><trkpt lat="39.82877" lon="-8.41143"><time>2022-11-28T10:47:23.000Z</time></trkpt><trkpt lat="39.82876" lon="-8.4114"><time>2022-11-28T10:47:33.000Z</time></trkpt><trkpt lat="39.82872" lon="-8.41131"><ele>614</ele><time>2022-11-28T10:47:43.000Z</time></trkpt><trkpt lat="39.82866" lon="-8.41125"><time>2022-11-28T10:47:53.000Z</time></trkpt><trkpt lat="39.8286" lon="-8.41117"><time>2022-11-28T10:48:03.000Z</time></trkpt><trkpt lat="39.82858" lon="-8.41116"><time>2022-11-28T10:48:13.000Z</time></trkpt><trkpt lat="39.82841" lon="-8.41123"><ele>612</ele><time>2022-11-28T10:48:23.000Z</time></trkpt><trkpt lat="39.82831" lon="-8.41129"><time>2022-11-28T10:48:33.000Z</time></trkpt><trkpt lat="39.82823" lon="-8.41132"><time>2022-11-28T10:48:43.000Z</time></trkpt><trkpt lat="39.82795" lon="-8.41151"><ele>611</ele><time>2022-11-28T10:48:53.000Z</time></trkpt><trkpt lat="39.82787" lon="-8.41155"><time>2022-11-28T10:49:03.000Z</time></trkpt><trkpt lat="39.82766" lon="-8.41162"><ele>611</ele><time>2022-11-28T10:49:13.000Z</time></trkpt><trkpt lat="39.82761" lon="-8.41163"><time>2022-11-28T10:49:23.000Z</time></trkpt><trkpt lat="39.82755" lon="-8.41163"><time>2022-11-28T10:49:33.000Z</time></trkpt><trkpt lat="39.82722" lon="-8.41169"><ele>608</ele><time>2022-11-28T10:49:43.000Z</time></trkpt><trkpt lat="39.82676" lon="-8.41181"><ele>608</ele><time>2022-11-28T10:49:53.000Z</time></trkpt><trkpt lat="39.82672" lon="-8.41181"><time>2022-11-28T10:50:03.000Z</time></trkpt><trkpt lat="39.8267" lon="-8.4118"><time>2022-11-28T10:50:13.000Z</time></trkpt><trkpt lat="39.82667" lon="-8.41177"><time>2022-11-28T10:50:23.000Z</time></trkpt><trkpt lat="39.82665" lon="-8.41175"><time>2022-11-28T10:50:33.000Z</time></trkpt><trkpt lat="39.82662" lon="-8.41163"><ele>608</ele><time>2022-11-28T10:50:43.000Z</time></trkpt><trkpt lat="39.8266" lon="-8.41159"><time>2022-11-28T10:50:53.000Z</time></trkpt><trkpt lat="39.82653" lon="-8.41152"><time>2022-11-28T10:51:03.000Z</time></trkpt><trkpt lat="39.82649" lon="-8.4115"><time>2022-11-28T10:51:13.000Z</time></trkpt><trkpt lat="39.82647" lon="-8.41147"><time>2022-11-28T10:51:23.000Z</time></trkpt><trkpt lat="39.82644" lon="-8.41141"><ele>604</ele><time>2022-11-28T10:51:33.000Z</time></trkpt><trkpt lat="39.82638" lon="-8.4114"><time>2022-11-28T10:51:43.000Z</time></trkpt><trkpt lat="39.82637" lon="-8.41138"><time>2022-11-28T10:51:53.000Z</time></trkpt><trkpt lat="39.82635" lon="-8.4113"><time>2022-11-28T10:52:03.000Z</time></trkpt><trkpt lat="39.82634" lon="-8.41127"><time>2022-11-28T10:52:13.000Z</time></trkpt><trkpt lat="39.82635" lon="-8.41124"><time>2022-11-28T10:52:23.000Z</time></trkpt><trkpt lat="39.82638" lon="-8.41119"><ele>603</ele><time>2022-11-28T10:52:33.000Z</time></trkpt><trkpt lat="39.82639" lon="-8.41113"><time>2022-11-28T10:52:43.000Z</time></trkpt><trkpt lat="39.82638" lon="-8.41102"><time>2022-11-28T10:52:53.000Z</time></trkpt><trkpt lat="39.82641" lon="-8.41096"><time>2022-11-28T10:53:03.000Z</time></trkpt><trkpt lat="39.82642" lon="-8.41091"><ele>603</ele><time>2022-11-28T10:53:13.000Z</time></trkpt><trkpt lat="39.82643" lon="-8.41086"><time>2022-11-28T10:53:23.000Z</time></trkpt><trkpt lat="39.82643" lon="-8.41079"><time>2022-11-28T10:53:33.000Z</time></trkpt><trkpt lat="39.82644" lon="-8.41076"><time>2022-11-28T10:53:43.000Z</time></trkpt><trkpt lat="39.82648" lon="-8.41071"><time>2022-11-28T10:53:53.000Z</time></trkpt><trkpt lat="39.82649" lon="-8.41069"><time>2022-11-28T10:54:03.000Z</time></trkpt><trkpt lat="39.8265" lon="-8.41064"><ele>600</ele><time>2022-11-28T10:54:13.000Z</time></trkpt><trkpt lat="39.82649" lon="-8.41062"><time>2022-11-28T10:54:23.000Z</time></trkpt><trkpt lat="39.82651" lon="-8.41061"><time>2022-11-28T10:54:33.000Z</time></trkpt><trkpt lat="39.8265" lon="-8.41058"><time>2022-11-28T10:54:43.000Z</time></trkpt><trkpt lat="39.82647" lon="-8.41055"><time>2022-11-28T10:54:53.000Z</time></trkpt><trkpt lat="39.82642" lon="-8.41053"><time>2022-11-28T10:55:03.000Z</time></trkpt><trkpt lat="39.82639" lon="-8.41054"><time>2022-11-28T10:55:13.000Z</time></trkpt><trkpt lat="39.82637" lon="-8.41053"><ele>594</ele><time>2022-11-28T10:55:23.000Z</time></trkpt><trkpt lat="39.82633" lon="-8.41046"><time>2022-11-28T10:55:33.000Z</time></trkpt><trkpt lat="39.82631" lon="-8.41041"><time>2022-11-28T10:55:43.000Z</time></trkpt><trkpt lat="39.82626" lon="-8.41032"><time>2022-11-28T10:55:53.000Z</time></trkpt><trkpt lat="39.82626" lon="-8.41029"><ele>591</ele><time>2022-11-28T10:56:03.000Z</time></trkpt><trkpt lat="39.82627" lon="-8.41026"><time>2022-11-28T10:56:13.000Z</time></trkpt><trkpt lat="39.82628" lon="-8.41024"><time>2022-11-28T10:56:23.000Z</time></trkpt><trkpt lat="39.82631" lon="-8.41022"><time>2022-11-28T10:56:33.000Z</time></trkpt><trkpt lat="39.82634" lon="-8.41018"><time>2022-11-28T10:56:43.000Z</time></trkpt><trkpt lat="39.82635" lon="-8.41014"><time>2022-11-28T10:56:53.000Z</time></trkpt><trkpt lat="39.82635" lon="-8.41006"><ele>588</ele><time>2022-11-28T10:57:03.000Z</time></trkpt><trkpt lat="39.82634" lon="-8.41"><time>2022-11-28T10:57:13.000Z</time></trkpt><trkpt lat="39.82632" lon="-8.40999"><time>2022-11-28T10:57:23.000Z</time></trkpt><trkpt lat="39.82623" lon="-8.40995"><time>2022-11-28T10:57:33.000Z</time></trkpt><trkpt lat="39.82616" lon="-8.40989"><ele>581</ele><time>2022-11-28T10:57:43.000Z</time></trkpt><trkpt lat="39.82614" lon="-8.40983"><time>2022-11-28T10:57:53.000Z</time></trkpt><trkpt lat="39.82611" lon="-8.40981"><time>2022-11-28T10:58:03.000Z</time></trkpt><trkpt lat="39.82604" lon="-8.4098"><time>2022-11-28T10:58:13.000Z</time></trkpt><trkpt lat="39.82602" lon="-8.40978"><time>2022-11-28T10:58:23.000Z</time></trkpt><trkpt lat="39.82599" lon="-8.4097"><ele>572</ele><time>2022-11-28T10:58:33.000Z</time></trkpt><trkpt lat="39.82597" lon="-8.40967"><time>2022-11-28T10:58:43.000Z</time></trkpt><trkpt lat="39.82593" lon="-8.40965"><time>2022-11-28T10:58:53.000Z</time></trkpt><trkpt lat="39.82592" lon="-8.40953"><time>2022-11-28T10:59:03.000Z</time></trkpt><trkpt lat="39.82595" lon="-8.40947"><ele>566</ele><time>2022-11-28T10:59:13.000Z</time></trkpt><trkpt lat="39.82595" lon="-8.40943"><time>2022-11-28T10:59:23.000Z</time></trkpt><trkpt lat="39.82593" lon="-8.40941"><time>2022-11-28T10:59:33.000Z</time></trkpt><trkpt lat="39.82588" lon="-8.40933"><time>2022-11-28T10:59:43.000Z</time></trkpt><trkpt lat="39.82584" lon="-8.4092"><ele>562</ele><time>2022-11-28T10:59:53.000Z</time></trkpt><trkpt lat="39.82583" lon="-8.40916"><time>2022-11-28T11:00:03.000Z</time></trkpt><trkpt lat="39.82581" lon="-8.40908"><time>2022-11-28T11:00:13.000Z</time></trkpt><trkpt lat="39.82581" lon="-8.40902"><time>2022-11-28T11:00:23.000Z</time></trkpt><trkpt lat="39.82578" lon="-8.40885"><ele>557</ele><time>2022-11-28T11:00:33.000Z</time></trkpt><trkpt lat="39.8257" lon="-8.40878"><time>2022-11-28T11:00:43.000Z</time></trkpt><trkpt lat="39.82565" lon="-8.40866"><time>2022-11-28T11:00:53.000Z</time></trkpt><trkpt lat="39.82564" lon="-8.40855"><ele>543</ele><time>2022-11-28T11:01:03.000Z</time></trkpt><trkpt lat="39.82564" lon="-8.40853"><time>2022-11-28T11:01:13.000Z</time></trkpt><trkpt lat="39.82567" lon="-8.40851"><time>2022-11-28T11:01:23.000Z</time></trkpt><trkpt lat="39.82568" lon="-8.40849"><time>2022-11-28T11:01:33.000Z</time></trkpt><trkpt lat="39.8257" lon="-8.40842"><time>2022-11-28T11:01:43.000Z</time></trkpt><trkpt lat="39.82571" lon="-8.40834"><time>2022-11-28T11:01:53.000Z</time></trkpt><trkpt lat="39.8257" lon="-8.40826"><ele>543</ele><time>2022-11-28T11:02:03.000Z</time></trkpt><trkpt lat="39.82569" lon="-8.40823"><time>2022-11-28T11:02:13.000Z</time></trkpt><trkpt lat="39.82568" lon="-8.40821"><time>2022-11-28T11:02:23.000Z</time></trkpt><trkpt lat="39.82558" lon="-8.40812"><time>2022-11-28T11:02:33.000Z</time></trkpt><trkpt lat="39.82555" lon="-8.40808"><ele>537</ele><time>2022-11-28T11:02:43.000Z</time></trkpt><trkpt lat="39.82551" lon="-8.40793"><time>2022-11-28T11:02:53.000Z</time></trkpt><trkpt lat="39.82551" lon="-8.40775"><ele>535</ele><time>2022-11-28T11:03:03.000Z</time></trkpt><trkpt lat="39.82552" lon="-8.40766"><time>2022-11-28T11:03:13.000Z</time></trkpt><trkpt lat="39.82555" lon="-8.40758"><time>2022-11-28T11:03:23.000Z</time></trkpt><trkpt lat="39.8256" lon="-8.40751"><ele>532</ele><time>2022-11-28T11:03:33.000Z</time></trkpt><trkpt lat="39.82565" lon="-8.40745"><time>2022-11-28T11:03:43.000Z</time></trkpt><trkpt lat="39.82571" lon="-8.40739"><time>2022-11-28T11:03:53.000Z</time></trkpt><trkpt lat="39.82579" lon="-8.40724"><ele>526</ele><time>2022-11-28T11:04:03.000Z</time></trkpt><trkpt lat="39.8258" lon="-8.40717"><time>2022-11-28T11:04:13.000Z</time></trkpt><trkpt lat="39.82579" lon="-8.40713"><time>2022-11-28T11:04:23.000Z</time></trkpt><trkpt lat="39.82578" lon="-8.4071"><time>2022-11-28T11:04:33.000Z</time></trkpt><trkpt lat="39.82576" lon="-8.40708"><time>2022-11-28T11:04:43.000Z</time></trkpt><trkpt lat="39.82572" lon="-8.40701"><time>2022-11-28T11:04:53.000Z</time></trkpt><trkpt lat="39.82523" lon="-8.40698"><ele>518</ele><time>2022-11-28T11:05:03.000Z</time></trkpt><trkpt lat="39.82489" lon="-8.40697"><ele>512</ele><time>2022-11-28T11:05:13.000Z</time></trkpt><trkpt lat="39.82453" lon="-8.40697"><ele>510</ele><time>2022-11-28T11:05:23.000Z</time></trkpt><trkpt lat="39.82438" lon="-8.40699"><time>2022-11-28T11:05:33.000Z</time></trkpt><trkpt lat="39.82397" lon="-8.40697"><ele>505</ele><time>2022-11-28T11:05:43.000Z</time></trkpt><trkpt lat="39.82372" lon="-8.40698"><ele>502</ele><time>2022-11-28T11:05:53.000Z</time></trkpt><trkpt lat="39.82357" lon="-8.407"><time>2022-11-28T11:06:03.000Z</time></trkpt><trkpt lat="39.82307" lon="-8.40699"><ele>501</ele><time>2022-11-28T11:06:13.000Z</time></trkpt><trkpt lat="39.82298" lon="-8.40699"><time>2022-11-28T11:06:23.000Z</time></trkpt><trkpt lat="39.82286" lon="-8.40699"><ele>495</ele><time>2022-11-28T11:06:33.000Z</time></trkpt><trkpt lat="39.82271" lon="-8.40697"><time>2022-11-28T11:06:43.000Z</time></trkpt><trkpt lat="39.82235" lon="-8.40695"><ele>491</ele><time>2022-11-28T11:06:53.000Z</time></trkpt><trkpt lat="39.82228" lon="-8.40694"><time>2022-11-28T11:07:03.000Z</time></trkpt><trkpt lat="39.8221" lon="-8.4069"><ele>487</ele><time>2022-11-28T11:07:13.000Z</time></trkpt><trkpt lat="39.82204" lon="-8.40688"><time>2022-11-28T11:07:23.000Z</time></trkpt><trkpt lat="39.82173" lon="-8.40676"><ele>479</ele><time>2022-11-28T11:07:33.000Z</time></trkpt><trkpt lat="39.82141" lon="-8.40663"><ele>476</ele><time>2022-11-28T11:07:43.000Z</time></trkpt><trkpt lat="39.82112" lon="-8.40654"><ele>474</ele><time>2022-11-28T11:07:53.000Z</time></trkpt><trkpt lat="39.82084" lon="-8.40642"><ele>472</ele><time>2022-11-28T11:08:03.000Z</time></trkpt><trkpt lat="39.82045" lon="-8.40625"><ele>468</ele><time>2022-11-28T11:08:13.000Z</time></trkpt><trkpt lat="39.82011" lon="-8.40609"><ele>464</ele><time>2022-11-28T11:08:23.000Z</time></trkpt><trkpt lat="39.82008" lon="-8.4061"><time>2022-11-28T11:08:33.000Z</time></trkpt><trkpt lat="39.82005" lon="-8.40611"><time>2022-11-28T11:08:43.000Z</time></trkpt><trkpt lat="39.82" lon="-8.40617"><time>2022-11-28T11:08:53.000Z</time></trkpt><trkpt lat="39.81988" lon="-8.40623"><ele>464</ele><time>2022-11-28T11:09:03.000Z</time></trkpt><trkpt lat="39.81976" lon="-8.40627"><time>2022-11-28T11:09:13.000Z</time></trkpt><trkpt lat="39.81972" lon="-8.4063"><time>2022-11-28T11:09:23.000Z</time></trkpt><trkpt lat="39.81968" lon="-8.4063"><time>2022-11-28T11:09:33.000Z</time></trkpt><trkpt lat="39.81948" lon="-8.4064"><ele>464</ele><time>2022-11-28T11:09:43.000Z</time></trkpt><trkpt lat="39.81928" lon="-8.40647"><ele>460</ele><time>2022-11-28T11:09:53.000Z</time></trkpt><trkpt lat="39.81912" lon="-8.40654"><time>2022-11-28T11:10:03.000Z</time></trkpt><trkpt lat="39.81901" lon="-8.40658"><ele>458</ele><time>2022-11-28T11:10:13.000Z</time></trkpt><trkpt lat="39.81897" lon="-8.4066"><time>2022-11-28T11:10:23.000Z</time></trkpt><trkpt lat="39.81895" lon="-8.40661"><time>2022-11-28T11:10:33.000Z</time></trkpt><trkpt lat="39.8189" lon="-8.4066"><time>2022-11-28T11:10:43.000Z</time></trkpt><trkpt lat="39.81883" lon="-8.40661"><time>2022-11-28T11:10:53.000Z</time></trkpt><trkpt lat="39.81865" lon="-8.4066"><ele>457</ele><time>2022-11-28T11:11:03.000Z</time></trkpt><trkpt lat="39.81848" lon="-8.40662"><time>2022-11-28T11:11:13.000Z</time></trkpt><trkpt lat="39.8184" lon="-8.40661"><ele>456</ele><time>2022-11-28T11:11:23.000Z</time></trkpt><trkpt lat="39.81831" lon="-8.40658"><time>2022-11-28T11:11:33.000Z</time></trkpt><trkpt lat="39.81822" lon="-8.40653"><time>2022-11-28T11:11:43.000Z</time></trkpt><trkpt lat="39.81809" lon="-8.40643"><ele>452</ele><time>2022-11-28T11:11:53.000Z</time></trkpt><trkpt lat="39.81801" lon="-8.40639"><time>2022-11-28T11:12:03.000Z</time></trkpt><trkpt lat="39.81793" lon="-8.40636"><time>2022-11-28T11:12:13.000Z</time></trkpt><trkpt lat="39.81787" lon="-8.40637"><ele>449</ele><time>2022-11-28T11:12:23.000Z</time></trkpt><trkpt lat="39.81764" lon="-8.40646"><ele>446</ele><time>2022-11-28T11:12:33.000Z</time></trkpt><trkpt lat="39.81754" lon="-8.40647"><time>2022-11-28T11:12:43.000Z</time></trkpt><trkpt lat="39.81744" lon="-8.40647"><time>2022-11-28T11:12:53.000Z</time></trkpt><trkpt lat="39.81732" lon="-8.40649"><ele>444</ele><time>2022-11-28T11:13:03.000Z</time></trkpt><trkpt lat="39.81718" lon="-8.40654"><time>2022-11-28T11:13:13.000Z</time></trkpt><trkpt lat="39.81708" lon="-8.40656"><ele>443</ele><time>2022-11-28T11:13:23.000Z</time></trkpt><trkpt lat="39.817" lon="-8.40656"><time>2022-11-28T11:13:33.000Z</time></trkpt><trkpt lat="39.81688" lon="-8.40653"><time>2022-11-28T11:13:43.000Z</time></trkpt><trkpt lat="39.81669" lon="-8.40645"><ele>443</ele><time>2022-11-28T11:13:53.000Z</time></trkpt><trkpt lat="39.81661" lon="-8.40642"><time>2022-11-28T11:14:03.000Z</time></trkpt><trkpt lat="39.81647" lon="-8.40641"><ele>444</ele><time>2022-11-28T11:14:13.000Z</time></trkpt><trkpt lat="39.8164" lon="-8.40641"><time>2022-11-28T11:14:23.000Z</time></trkpt><trkpt lat="39.81629" lon="-8.40644"><time>2022-11-28T11:14:33.000Z</time></trkpt><trkpt lat="39.81623" lon="-8.4065"><ele>447</ele><time>2022-11-28T11:14:43.000Z</time></trkpt><trkpt lat="39.81615" lon="-8.40661"><time>2022-11-28T11:14:53.000Z</time></trkpt><trkpt lat="39.81607" lon="-8.4067"><ele>447</ele><time>2022-11-28T11:15:03.000Z</time></trkpt><trkpt lat="39.81601" lon="-8.40676"><time>2022-11-28T11:15:13.000Z</time></trkpt><trkpt lat="39.81594" lon="-8.4068"><time>2022-11-28T11:15:23.000Z</time></trkpt><trkpt lat="39.81587" lon="-8.40686"><ele>445</ele><time>2022-11-28T11:15:33.000Z</time></trkpt><trkpt lat="39.81578" lon="-8.40698"><time>2022-11-28T11:15:43.000Z</time></trkpt><trkpt lat="39.81571" lon="-8.40709"><ele>442</ele><time>2022-11-28T11:15:53.000Z</time></trkpt><trkpt lat="39.81554" lon="-8.40731"><ele>439</ele><time>2022-11-28T11:16:03.000Z</time></trkpt><trkpt lat="39.81549" lon="-8.40739"><time>2022-11-28T11:16:13.000Z</time></trkpt><trkpt lat="39.81541" lon="-8.40752"><time>2022-11-28T11:16:23.000Z</time></trkpt><trkpt lat="39.81535" lon="-8.4076"><ele>437</ele><time>2022-11-28T11:16:33.000Z</time></trkpt><trkpt lat="39.81532" lon="-8.40762"><time>2022-11-28T11:16:43.000Z</time></trkpt><trkpt lat="39.81516" lon="-8.40769"><time>2022-11-28T11:16:53.000Z</time></trkpt><trkpt lat="39.81488" lon="-8.40779"><ele>429</ele><time>2022-11-28T11:17:03.000Z</time></trkpt><trkpt lat="39.81478" lon="-8.40784"><time>2022-11-28T11:17:13.000Z</time></trkpt><trkpt lat="39.81469" lon="-8.40792"><ele>426</ele><time>2022-11-28T11:17:23.000Z</time></trkpt><trkpt lat="39.8146" lon="-8.40804"><time>2022-11-28T11:17:33.000Z</time></trkpt><trkpt lat="39.81456" lon="-8.4081"><time>2022-11-28T11:17:43.000Z</time></trkpt><trkpt lat="39.81454" lon="-8.40816"><ele>418</ele><time>2022-11-28T11:17:53.000Z</time></trkpt><trkpt lat="39.81453" lon="-8.40823"><time>2022-11-28T11:18:03.000Z</time></trkpt><trkpt lat="39.81452" lon="-8.40826"><time>2022-11-28T11:18:13.000Z</time></trkpt><trkpt lat="39.8145" lon="-8.40828"><time>2022-11-28T11:18:23.000Z</time></trkpt><trkpt lat="39.81445" lon="-8.40831"><time>2022-11-28T11:18:33.000Z</time></trkpt><trkpt lat="39.81418" lon="-8.40842"><ele>416</ele><time>2022-11-28T11:18:43.000Z</time></trkpt><trkpt lat="39.81413" lon="-8.40843"><time>2022-11-28T11:18:53.000Z</time></trkpt><trkpt lat="39.81405" lon="-8.40842"><time>2022-11-28T11:19:03.000Z</time></trkpt><trkpt lat="39.81394" lon="-8.40844"><ele>415</ele><time>2022-11-28T11:19:13.000Z</time></trkpt><trkpt lat="39.81391" lon="-8.40845"><time>2022-11-28T11:19:23.000Z</time></trkpt><trkpt lat="39.81383" lon="-8.4085"><time>2022-11-28T11:19:33.000Z</time></trkpt><trkpt lat="39.81379" lon="-8.40855"><time>2022-11-28T11:19:43.000Z</time></trkpt><trkpt lat="39.81371" lon="-8.40861"><ele>414</ele><time>2022-11-28T11:19:53.000Z</time></trkpt><trkpt lat="39.81368" lon="-8.40864"><time>2022-11-28T11:20:03.000Z</time></trkpt><trkpt lat="39.81359" lon="-8.40879"><time>2022-11-28T11:20:13.000Z</time></trkpt><trkpt lat="39.81353" lon="-8.40892"><ele>408</ele><time>2022-11-28T11:20:23.000Z</time></trkpt><trkpt lat="39.81346" lon="-8.40903"><time>2022-11-28T11:20:33.000Z</time></trkpt><trkpt lat="39.81339" lon="-8.40914"><ele>404</ele><time>2022-11-28T11:20:43.000Z</time></trkpt><trkpt lat="39.8133" lon="-8.40924"><time>2022-11-28T11:20:53.000Z</time></trkpt><trkpt lat="39.81318" lon="-8.40935"><ele>402</ele><time>2022-11-28T11:21:03.000Z</time></trkpt><trkpt lat="39.81307" lon="-8.40947"><time>2022-11-28T11:21:13.000Z</time></trkpt><trkpt lat="39.81284" lon="-8.40965"><ele>397</ele><time>2022-11-28T11:21:23.000Z</time></trkpt><trkpt lat="39.81269" lon="-8.40978"><time>2022-11-28T11:21:33.000Z</time></trkpt><trkpt lat="39.81262" lon="-8.40986"><ele>391</ele><time>2022-11-28T11:21:43.000Z</time></trkpt><trkpt lat="39.81247" lon="-8.40998"><time>2022-11-28T11:21:53.000Z</time></trkpt><trkpt lat="39.81228" lon="-8.41017"><ele>385</ele><time>2022-11-28T11:22:03.000Z</time></trkpt><trkpt lat="39.81214" lon="-8.41031"><time>2022-11-28T11:22:13.000Z</time></trkpt><trkpt lat="39.81207" lon="-8.41037"><ele>385</ele><time>2022-11-28T11:22:23.000Z</time></trkpt><trkpt lat="39.81197" lon="-8.41044"><time>2022-11-28T11:22:33.000Z</time></trkpt><trkpt lat="39.81188" lon="-8.41053"><ele>380</ele><time>2022-11-28T11:22:43.000Z</time></trkpt><trkpt lat="39.81181" lon="-8.41057"><time>2022-11-28T11:22:53.000Z</time></trkpt><trkpt lat="39.81176" lon="-8.41058"><time>2022-11-28T11:23:03.000Z</time></trkpt><trkpt lat="39.81174" lon="-8.41056"><time>2022-11-28T11:23:13.000Z</time></trkpt><trkpt lat="39.81166" lon="-8.4105"><ele>380</ele><time>2022-11-28T11:23:23.000Z</time></trkpt><trkpt lat="39.81157" lon="-8.41045"><time>2022-11-28T11:23:33.000Z</time></trkpt><trkpt lat="39.81153" lon="-8.4104"><time>2022-11-28T11:23:43.000Z</time></trkpt><trkpt lat="39.81149" lon="-8.41032"><ele>376</ele><time>2022-11-28T11:23:53.000Z</time></trkpt><trkpt lat="39.81147" lon="-8.41025"><time>2022-11-28T11:24:03.000Z</time></trkpt><trkpt lat="39.81146" lon="-8.41017"><time>2022-11-28T11:24:13.000Z</time></trkpt><trkpt lat="39.81146" lon="-8.41002"><ele>374</ele><time>2022-11-28T11:24:23.000Z</time></trkpt><trkpt lat="39.81145" lon="-8.40999"><time>2022-11-28T11:24:33.000Z</time></trkpt><trkpt lat="39.81143" lon="-8.40997"><time>2022-11-28T11:24:43.000Z</time></trkpt><trkpt lat="39.8114" lon="-8.40995"><time>2022-11-28T11:24:53.000Z</time></trkpt><trkpt lat="39.81135" lon="-8.40995"><time>2022-11-28T11:25:03.000Z</time></trkpt><trkpt lat="39.81129" lon="-8.40996"><time>2022-11-28T11:25:13.000Z</time></trkpt><trkpt lat="39.81122" lon="-8.41"><ele>370</ele><time>2022-11-28T11:25:23.000Z</time></trkpt><trkpt lat="39.81111" lon="-8.41003"><time>2022-11-28T11:25:33.000Z</time></trkpt><trkpt lat="39.81087" lon="-8.41003"><ele>365</ele><time>2022-11-28T11:25:43.000Z</time></trkpt><trkpt lat="39.81076" lon="-8.41002"><time>2022-11-28T11:25:53.000Z</time></trkpt><trkpt lat="39.81071" lon="-8.41002"><time>2022-11-28T11:26:03.000Z</time></trkpt><trkpt lat="39.81065" lon="-8.41003"><ele>363</ele><time>2022-11-28T11:26:13.000Z</time></trkpt><trkpt lat="39.81056" lon="-8.41011"><time>2022-11-28T11:26:23.000Z</time></trkpt><trkpt lat="39.81054" lon="-8.41012"><time>2022-11-28T11:26:33.000Z</time></trkpt><trkpt lat="39.81049" lon="-8.41012"><time>2022-11-28T11:26:43.000Z</time></trkpt><trkpt lat="39.81044" lon="-8.4101"><ele>362</ele><time>2022-11-28T11:26:53.000Z</time></trkpt><trkpt lat="39.81043" lon="-8.41008"><time>2022-11-28T11:27:03.000Z</time></trkpt><trkpt lat="39.81036" lon="-8.40996"><time>2022-11-28T11:27:13.000Z</time></trkpt><trkpt lat="39.81031" lon="-8.40992"><time>2022-11-28T11:27:23.000Z</time></trkpt><trkpt lat="39.81019" lon="-8.40988"><ele>353</ele><time>2022-11-28T11:27:33.000Z</time></trkpt><trkpt lat="39.80992" lon="-8.40977"><ele>353</ele><time>2022-11-28T11:27:43.000Z</time></trkpt><trkpt lat="39.80975" lon="-8.40973"><time>2022-11-28T11:27:53.000Z</time></trkpt><trkpt lat="39.80963" lon="-8.40972"><ele>351</ele><time>2022-11-28T11:28:03.000Z</time></trkpt><trkpt lat="39.80952" lon="-8.40969"><time>2022-11-28T11:28:13.000Z</time></trkpt><trkpt lat="39.80941" lon="-8.40966"><ele>349</ele><time>2022-11-28T11:28:23.000Z</time></trkpt><trkpt lat="39.80936" lon="-8.40963"><time>2022-11-28T11:28:33.000Z</time></trkpt><trkpt lat="39.80931" lon="-8.4096"><time>2022-11-28T11:28:43.000Z</time></trkpt><trkpt lat="39.80911" lon="-8.40955"><ele>348</ele><time>2022-11-28T11:28:53.000Z</time></trkpt><trkpt lat="39.80883" lon="-8.40941"><ele>347</ele><time>2022-11-28T11:29:03.000Z</time></trkpt><trkpt lat="39.80877" lon="-8.40935"><time>2022-11-28T11:29:13.000Z</time></trkpt><trkpt lat="39.80875" lon="-8.40932"><time>2022-11-28T11:29:23.000Z</time></trkpt><trkpt lat="39.80874" lon="-8.40928"><time>2022-11-28T11:29:33.000Z</time></trkpt><trkpt lat="39.80873" lon="-8.4092"><time>2022-11-28T11:29:43.000Z</time></trkpt><trkpt lat="39.80875" lon="-8.40912"><ele>347</ele><time>2022-11-28T11:29:53.000Z</time></trkpt><trkpt lat="39.80879" lon="-8.40903"><time>2022-11-28T11:30:03.000Z</time></trkpt><trkpt lat="39.80889" lon="-8.40883"><ele>347</ele><time>2022-11-28T11:30:13.000Z</time></trkpt><trkpt lat="39.80895" lon="-8.40863"><time>2022-11-28T11:30:23.000Z</time></trkpt><trkpt lat="39.80901" lon="-8.40851"><ele>346</ele><time>2022-11-28T11:30:33.000Z</time></trkpt><trkpt lat="39.80902" lon="-8.40841"><time>2022-11-28T11:30:43.000Z</time></trkpt><trkpt lat="39.809" lon="-8.40822"><ele>346</ele><time>2022-11-28T11:30:53.000Z</time></trkpt><trkpt lat="39.80897" lon="-8.40807"><time>2022-11-28T11:31:03.000Z</time></trkpt><trkpt lat="39.80885" lon="-8.4078"><ele>349</ele><time>2022-11-28T11:31:13.000Z</time></trkpt><trkpt lat="39.80884" lon="-8.40778"><time>2022-11-28T11:31:23.000Z</time></trkpt><trkpt lat="39.80879" lon="-8.40772"><time>2022-11-28T11:31:33.000Z</time></trkpt><trkpt lat="39.80873" lon="-8.40768"><time>2022-11-28T11:31:43.000Z</time></trkpt><trkpt lat="39.80871" lon="-8.40765"><time>2022-11-28T11:31:53.000Z</time></trkpt><trkpt lat="39.80864" lon="-8.4075"><ele>348</ele><time>2022-11-28T11:32:03.000Z</time></trkpt><trkpt lat="39.80859" lon="-8.40734"><time>2022-11-28T11:32:13.000Z</time></trkpt><trkpt lat="39.80857" lon="-8.40718"><ele>347</ele><time>2022-11-28T11:32:23.000Z</time></trkpt><trkpt lat="39.80856" lon="-8.40708"><time>2022-11-28T11:32:33.000Z</time></trkpt><trkpt lat="39.80854" lon="-8.40701"><time>2022-11-28T11:32:43.000Z</time></trkpt><trkpt lat="39.80853" lon="-8.40698"><time>2022-11-28T11:32:53.000Z</time></trkpt><trkpt lat="39.80844" lon="-8.4068"><ele>344</ele><time>2022-11-28T11:33:03.000Z</time></trkpt><trkpt lat="39.80839" lon="-8.40667"><time>2022-11-28T11:33:13.000Z</time></trkpt><trkpt lat="39.80839" lon="-8.4066"><time>2022-11-28T11:33:23.000Z</time></trkpt><trkpt lat="39.8084" lon="-8.40653"><ele>344</ele><time>2022-11-28T11:33:33.000Z</time></trkpt><trkpt lat="39.80846" lon="-8.40629"><time>2022-11-28T11:33:43.000Z</time></trkpt><trkpt lat="39.80855" lon="-8.40599"><ele>343</ele><time>2022-11-28T11:33:53.000Z</time></trkpt><trkpt lat="39.80857" lon="-8.40586"><time>2022-11-28T11:34:03.000Z</time></trkpt><trkpt lat="39.80861" lon="-8.40571"><ele>343</ele><time>2022-11-28T11:34:13.000Z</time></trkpt><trkpt lat="39.80865" lon="-8.4056"><time>2022-11-28T11:34:23.000Z</time></trkpt><trkpt lat="39.80868" lon="-8.40554"><time>2022-11-28T11:34:33.000Z</time></trkpt><trkpt lat="39.80871" lon="-8.40549"><time>2022-11-28T11:34:43.000Z</time></trkpt><trkpt lat="39.80877" lon="-8.40542"><ele>343</ele><time>2022-11-28T11:34:53.000Z</time></trkpt><trkpt lat="39.80882" lon="-8.40537"><time>2022-11-28T11:35:03.000Z</time></trkpt><trkpt lat="39.80886" lon="-8.40534"><time>2022-11-28T11:35:13.000Z</time></trkpt><trkpt lat="39.80901" lon="-8.40519"><ele>344</ele><time>2022-11-28T11:35:23.000Z</time></trkpt><trkpt lat="39.80926" lon="-8.40494"><ele>344</ele><time>2022-11-28T11:35:33.000Z</time></trkpt><trkpt lat="39.80938" lon="-8.40482"><time>2022-11-28T11:35:43.000Z</time></trkpt><trkpt lat="39.80947" lon="-8.40472"><ele>344</ele><time>2022-11-28T11:35:53.000Z</time></trkpt><trkpt lat="39.80955" lon="-8.40466"><time>2022-11-28T11:36:03.000Z</time></trkpt><trkpt lat="39.80959" lon="-8.4046"><time>2022-11-28T11:36:13.000Z</time></trkpt><trkpt lat="39.80963" lon="-8.40454"><ele>340</ele><time>2022-11-28T11:36:23.000Z</time></trkpt><trkpt lat="39.80968" lon="-8.40446"><time>2022-11-28T11:36:33.000Z</time></trkpt><trkpt lat="39.80972" lon="-8.40431"><time>2022-11-28T11:36:43.000Z</time></trkpt><trkpt lat="39.80984" lon="-8.404"><ele>342</ele><time>2022-11-28T11:36:53.000Z</time></trkpt><trkpt lat="39.80986" lon="-8.40393"><time>2022-11-28T11:37:03.000Z</time></trkpt><trkpt lat="39.80991" lon="-8.40379"><time>2022-11-28T11:37:13.000Z</time></trkpt><trkpt lat="39.80992" lon="-8.40372"><ele>340</ele><time>2022-11-28T11:37:23.000Z</time></trkpt><trkpt lat="39.80992" lon="-8.40366"><time>2022-11-28T11:37:33.000Z</time></trkpt><trkpt lat="39.8099" lon="-8.4036"><time>2022-11-28T11:37:43.000Z</time></trkpt><trkpt lat="39.80982" lon="-8.40349"><ele>340</ele><time>2022-11-28T11:37:53.000Z</time></trkpt><trkpt lat="39.80969" lon="-8.40333"><time>2022-11-28T11:38:03.000Z</time></trkpt><trkpt lat="39.80958" lon="-8.40323"><ele>340</ele><time>2022-11-28T11:38:13.000Z</time></trkpt><trkpt lat="39.80944" lon="-8.4031"><time>2022-11-28T11:38:23.000Z</time></trkpt><trkpt lat="39.80937" lon="-8.40303"><ele>342</ele><time>2022-11-28T11:38:33.000Z</time></trkpt><trkpt lat="39.80936" lon="-8.403"><time>2022-11-28T11:38:43.000Z</time></trkpt><trkpt lat="39.80935" lon="-8.40297"><time>2022-11-28T11:38:53.000Z</time></trkpt><trkpt lat="39.80933" lon="-8.40294"><time>2022-11-28T11:39:03.000Z</time></trkpt><trkpt lat="39.80933" lon="-8.40293"><time>2022-11-28T11:39:13.000Z</time></trkpt><trkpt lat="39.80927" lon="-8.40297"><time>2022-11-28T11:39:23.000Z</time></trkpt><trkpt lat="39.80916" lon="-8.403"><ele>342</ele><time>2022-11-28T11:39:33.000Z</time></trkpt><trkpt lat="39.8091" lon="-8.40303"><time>2022-11-28T11:39:43.000Z</time></trkpt><trkpt lat="39.80905" lon="-8.40311"><time>2022-11-28T11:39:53.000Z</time></trkpt><trkpt lat="39.80902" lon="-8.40316"><time>2022-11-28T11:40:03.000Z</time></trkpt><trkpt lat="39.80899" lon="-8.40322"><ele>342</ele><time>2022-11-28T11:40:13.000Z</time></trkpt><trkpt lat="39.80898" lon="-8.40325"><time>2022-11-28T11:40:23.000Z</time></trkpt><trkpt lat="39.80896" lon="-8.40329"><time>2022-11-28T11:40:33.000Z</time></trkpt><trkpt lat="39.80884" lon="-8.40333"><time>2022-11-28T11:40:43.000Z</time></trkpt><trkpt lat="39.80869" lon="-8.40336"><ele>343</ele><time>2022-11-28T11:40:53.000Z</time></trkpt><trkpt lat="39.80861" lon="-8.40338"><time>2022-11-28T11:41:03.000Z</time></trkpt><trkpt lat="39.80846" lon="-8.40337"><ele>344</ele><time>2022-11-28T11:41:13.000Z</time></trkpt><trkpt lat="39.80841" lon="-8.40339"><time>2022-11-28T11:41:23.000Z</time></trkpt><trkpt lat="39.80831" lon="-8.40344"><time>2022-11-28T11:41:33.000Z</time></trkpt><trkpt lat="39.80826" lon="-8.40349"><ele>342</ele><time>2022-11-28T11:41:43.000Z</time></trkpt><trkpt lat="39.80818" lon="-8.40357"><time>2022-11-28T11:41:53.000Z</time></trkpt><trkpt lat="39.808" lon="-8.40372"><ele>341</ele><time>2022-11-28T11:42:03.000Z</time></trkpt><trkpt lat="39.80798" lon="-8.40377"><time>2022-11-28T11:42:13.000Z</time></trkpt><trkpt lat="39.80795" lon="-8.40381"><time>2022-11-28T11:42:23.000Z</time></trkpt><trkpt lat="39.80793" lon="-8.40382"><time>2022-11-28T11:42:33.000Z</time></trkpt><trkpt lat="39.80787" lon="-8.40384"><time>2022-11-28T11:42:43.000Z</time></trkpt><trkpt lat="39.80765" lon="-8.40385"><ele>338</ele><time>2022-11-28T11:42:53.000Z</time></trkpt><trkpt lat="39.80757" lon="-8.40388"><time>2022-11-28T11:43:03.000Z</time></trkpt><trkpt lat="39.80749" lon="-8.40392"><time>2022-11-28T11:43:13.000Z</time></trkpt><trkpt lat="39.80743" lon="-8.40397"><ele>338</ele><time>2022-11-28T11:43:23.000Z</time></trkpt><trkpt lat="39.80737" lon="-8.40404"><time>2022-11-28T11:43:33.000Z</time></trkpt><trkpt lat="39.8073" lon="-8.40409"><time>2022-11-28T11:43:43.000Z</time></trkpt><trkpt lat="39.80727" lon="-8.40411"><time>2022-11-28T11:43:53.000Z</time></trkpt><trkpt lat="39.8072" lon="-8.4041"><ele>334</ele><time>2022-11-28T11:44:03.000Z</time></trkpt><trkpt lat="39.80711" lon="-8.40407"><time>2022-11-28T11:44:13.000Z</time></trkpt><trkpt lat="39.80708" lon="-8.40407"><time>2022-11-28T11:44:23.000Z</time></trkpt><trkpt lat="39.80705" lon="-8.40408"><time>2022-11-28T11:44:33.000Z</time></trkpt><trkpt lat="39.80699" lon="-8.40414"><ele>331</ele><time>2022-11-28T11:44:43.000Z</time></trkpt><trkpt lat="39.80694" lon="-8.40416"><time>2022-11-28T11:44:53.000Z</time></trkpt><trkpt lat="39.80693" lon="-8.40418"><time>2022-11-28T11:45:03.000Z</time></trkpt><trkpt lat="39.80686" lon="-8.40419"><time>2022-11-28T11:45:13.000Z</time></trkpt><trkpt lat="39.80676" lon="-8.40422"><ele>330</ele><time>2022-11-28T11:45:23.000Z</time></trkpt><trkpt lat="39.80669" lon="-8.40424"><time>2022-11-28T11:45:33.000Z</time></trkpt><trkpt lat="39.8066" lon="-8.40422"><time>2022-11-28T11:45:43.000Z</time></trkpt><trkpt lat="39.80653" lon="-8.40423"><ele>327</ele><time>2022-11-28T11:45:53.000Z</time></trkpt><trkpt lat="39.80649" lon="-8.40426"><time>2022-11-28T11:46:03.000Z</time></trkpt><trkpt lat="39.80648" lon="-8.40428"><time>2022-11-28T11:46:13.000Z</time></trkpt><trkpt lat="39.80646" lon="-8.40434"><time>2022-11-28T11:46:23.000Z</time></trkpt><trkpt lat="39.80639" lon="-8.40439"><time>2022-11-28T11:46:33.000Z</time></trkpt><trkpt lat="39.80637" lon="-8.40441"><ele>324</ele><time>2022-11-28T11:46:43.000Z</time></trkpt><trkpt lat="39.80634" lon="-8.4045"><time>2022-11-28T11:46:53.000Z</time></trkpt><trkpt lat="39.80633" lon="-8.40453"><time>2022-11-28T11:47:03.000Z</time></trkpt><trkpt lat="39.80635" lon="-8.4046"><time>2022-11-28T11:47:13.000Z</time></trkpt><trkpt lat="39.80635" lon="-8.40462"><time>2022-11-28T11:47:23.000Z</time></trkpt><trkpt lat="39.80637" lon="-8.40464"><time>2022-11-28T11:47:33.000Z</time></trkpt><trkpt lat="39.80636" lon="-8.40472"><ele>319</ele><time>2022-11-28T11:47:43.000Z</time></trkpt><trkpt lat="39.80636" lon="-8.40475"><time>2022-11-28T11:47:53.000Z</time></trkpt><trkpt lat="39.80634" lon="-8.40476"><time>2022-11-28T11:48:03.000Z</time></trkpt><trkpt lat="39.80632" lon="-8.40477"><time>2022-11-28T11:48:13.000Z</time></trkpt><trkpt lat="39.80626" lon="-8.40474"><time>2022-11-28T11:48:23.000Z</time></trkpt><trkpt lat="39.80625" lon="-8.40475"><time>2022-11-28T11:48:33.000Z</time></trkpt><trkpt lat="39.80623" lon="-8.40473"><time>2022-11-28T11:48:43.000Z</time></trkpt><trkpt lat="39.80611" lon="-8.40479"><ele>315</ele><time>2022-11-28T11:48:53.000Z</time></trkpt><trkpt lat="39.80605" lon="-8.4048"><time>2022-11-28T11:49:03.000Z</time></trkpt><trkpt lat="39.80603" lon="-8.40482"><time>2022-11-28T11:49:13.000Z</time></trkpt><trkpt lat="39.806" lon="-8.40486"><time>2022-11-28T11:49:23.000Z</time></trkpt><trkpt lat="39.806" lon="-8.40492"><time>2022-11-28T11:49:33.000Z</time></trkpt><trkpt lat="39.80599" lon="-8.40494"><time>2022-11-28T11:49:43.000Z</time></trkpt><trkpt lat="39.80598" lon="-8.40499"><ele>302</ele><time>2022-11-28T11:49:53.000Z</time></trkpt><trkpt lat="39.80596" lon="-8.40505"><time>2022-11-28T11:50:03.000Z</time></trkpt><trkpt lat="39.80597" lon="-8.40508"><time>2022-11-28T11:50:13.000Z</time></trkpt><trkpt lat="39.80597" lon="-8.4051"><time>2022-11-28T11:50:23.000Z</time></trkpt><trkpt lat="39.80596" lon="-8.40518"><time>2022-11-28T11:50:33.000Z</time></trkpt><trkpt lat="39.80598" lon="-8.40523"><time>2022-11-28T11:50:43.000Z</time></trkpt><trkpt lat="39.80595" lon="-8.40534"><ele>303</ele><time>2022-11-28T11:50:53.000Z</time></trkpt><trkpt lat="39.80595" lon="-8.40538"><time>2022-11-28T11:51:03.000Z</time></trkpt><trkpt lat="39.80596" lon="-8.40545"><time>2022-11-28T11:51:13.000Z</time></trkpt><trkpt lat="39.80598" lon="-8.40548"><time>2022-11-28T11:51:23.000Z</time></trkpt><trkpt lat="39.806" lon="-8.4055"><time>2022-11-28T11:51:33.000Z</time></trkpt><trkpt lat="39.80603" lon="-8.40551"><time>2022-11-28T11:51:43.000Z</time></trkpt><trkpt lat="39.80606" lon="-8.4055"><time>2022-11-28T11:51:53.000Z</time></trkpt><trkpt lat="39.80608" lon="-8.40551"><ele>305</ele><time>2022-11-28T11:52:03.000Z</time></trkpt><trkpt lat="39.8061" lon="-8.40553"><time>2022-11-28T11:52:13.000Z</time></trkpt><trkpt lat="39.80609" lon="-8.40558"><time>2022-11-28T11:52:23.000Z</time></trkpt><trkpt lat="39.80606" lon="-8.40565"><time>2022-11-28T11:52:33.000Z</time></trkpt><trkpt lat="39.80604" lon="-8.4057"><time>2022-11-28T11:52:43.000Z</time></trkpt><trkpt lat="39.80604" lon="-8.40573"><time>2022-11-28T11:52:53.000Z</time></trkpt><trkpt lat="39.80609" lon="-8.4058"><ele>309</ele><time>2022-11-28T11:53:03.000Z</time></trkpt><trkpt lat="39.80615" lon="-8.40583"><time>2022-11-28T11:53:13.000Z</time></trkpt><trkpt lat="39.8062" lon="-8.40587"><time>2022-11-28T11:53:23.000Z</time></trkpt><trkpt lat="39.80623" lon="-8.40587"><time>2022-11-28T11:53:33.000Z</time></trkpt><trkpt lat="39.80627" lon="-8.4059"><time>2022-11-28T11:53:43.000Z</time></trkpt><trkpt lat="39.80619" lon="-8.40596"><ele>307</ele><time>2022-11-28T11:53:53.000Z</time></trkpt><trkpt lat="39.80613" lon="-8.40601"><time>2022-11-28T11:54:03.000Z</time></trkpt><trkpt lat="39.80605" lon="-8.40602"><time>2022-11-28T11:54:13.000Z</time></trkpt><trkpt lat="39.80595" lon="-8.40608"><ele>308</ele><time>2022-11-28T11:54:23.000Z</time></trkpt><trkpt lat="39.80588" lon="-8.40615"><time>2022-11-28T11:54:33.000Z</time></trkpt><trkpt lat="39.80579" lon="-8.40625"><time>2022-11-28T11:54:43.000Z</time></trkpt><trkpt lat="39.80576" lon="-8.40628"><ele>306</ele><time>2022-11-28T11:54:53.000Z</time></trkpt><trkpt lat="39.80576" lon="-8.40631"><time>2022-11-28T11:55:03.000Z</time></trkpt><trkpt lat="39.80571" lon="-8.40629"><time>2022-11-28T11:55:13.000Z</time></trkpt><trkpt lat="39.80565" lon="-8.40629"><time>2022-11-28T11:55:23.000Z</time></trkpt><trkpt lat="39.80559" lon="-8.40631"><time>2022-11-28T11:55:33.000Z</time></trkpt><trkpt lat="39.80555" lon="-8.40634"><ele>304</ele><time>2022-11-28T11:55:43.000Z</time></trkpt><trkpt lat="39.80552" lon="-8.40639"><time>2022-11-28T11:55:53.000Z</time></trkpt><trkpt lat="39.8055" lon="-8.40646"><time>2022-11-28T11:56:03.000Z</time></trkpt><trkpt lat="39.80548" lon="-8.40659"><time>2022-11-28T11:56:13.000Z</time></trkpt><trkpt lat="39.80547" lon="-8.40663"><ele>304</ele><time>2022-11-28T11:56:23.000Z</time></trkpt><trkpt lat="39.80546" lon="-8.40666"><time>2022-11-28T11:56:33.000Z</time></trkpt><trkpt lat="39.80546" lon="-8.40669"><time>2022-11-28T11:56:43.000Z</time></trkpt><trkpt lat="39.80547" lon="-8.40672"><time>2022-11-28T11:56:53.000Z</time></trkpt><trkpt lat="39.80552" lon="-8.4068"><time>2022-11-28T11:57:03.000Z</time></trkpt><trkpt lat="39.80552" lon="-8.40683"><time>2022-11-28T11:57:13.000Z</time></trkpt><trkpt lat="39.80552" lon="-8.40686"><time>2022-11-28T11:57:23.000Z</time></trkpt><trkpt lat="39.80551" lon="-8.40689"><ele>301</ele><time>2022-11-28T11:57:33.000Z</time></trkpt><trkpt lat="39.8055" lon="-8.40691"><time>2022-11-28T11:57:43.000Z</time></trkpt><trkpt lat="39.80548" lon="-8.40692"><time>2022-11-28T11:57:53.000Z</time></trkpt><trkpt lat="39.80544" lon="-8.40694"><time>2022-11-28T11:58:03.000Z</time></trkpt><trkpt lat="39.80535" lon="-8.40695"><time>2022-11-28T11:58:13.000Z</time></trkpt><trkpt lat="39.80533" lon="-8.40694"><time>2022-11-28T11:58:23.000Z</time></trkpt><trkpt lat="39.80527" lon="-8.40696"><ele>298</ele><time>2022-11-28T11:58:33.000Z</time></trkpt><trkpt lat="39.80517" lon="-8.40701"><time>2022-11-28T11:58:43.000Z</time></trkpt><trkpt lat="39.80506" lon="-8.40705"><ele>295</ele><time>2022-11-28T11:58:53.000Z</time></trkpt><trkpt lat="39.80501" lon="-8.40708"><time>2022-11-28T11:59:03.000Z</time></trkpt><trkpt lat="39.80495" lon="-8.4071"><time>2022-11-28T11:59:13.000Z</time></trkpt><trkpt lat="39.80482" lon="-8.40715"><ele>293</ele><time>2022-11-28T11:59:23.000Z</time></trkpt><trkpt lat="39.80478" lon="-8.4072"><time>2022-11-28T11:59:33.000Z</time></trkpt><trkpt lat="39.80476" lon="-8.40727"><time>2022-11-28T11:59:43.000Z</time></trkpt><trkpt lat="39.80473" lon="-8.40733"><time>2022-11-28T11:59:53.000Z</time></trkpt><trkpt lat="39.80467" lon="-8.40746"><ele>291</ele><time>2022-11-28T12:00:03.000Z</time></trkpt><trkpt lat="39.80461" lon="-8.40755"><time>2022-11-28T12:00:13.000Z</time></trkpt><trkpt lat="39.80457" lon="-8.40758"><time>2022-11-28T12:00:23.000Z</time></trkpt><trkpt lat="39.80445" lon="-8.40764"><ele>286</ele><time>2022-11-28T12:00:33.000Z</time></trkpt><trkpt lat="39.80442" lon="-8.40766"><time>2022-11-28T12:00:43.000Z</time></trkpt><trkpt lat="39.80439" lon="-8.40769"><time>2022-11-28T12:00:53.000Z</time></trkpt><trkpt lat="39.80435" lon="-8.40779"><time>2022-11-28T12:01:03.000Z</time></trkpt><trkpt lat="39.80431" lon="-8.40789"><ele>281</ele><time>2022-11-28T12:01:13.000Z</time></trkpt><trkpt lat="39.8043" lon="-8.40793"><time>2022-11-28T12:01:23.000Z</time></trkpt><trkpt lat="39.80423" lon="-8.40808"><time>2022-11-28T12:01:33.000Z</time></trkpt><trkpt lat="39.80421" lon="-8.40815"><ele>279</ele><time>2022-11-28T12:01:43.000Z</time></trkpt><trkpt lat="39.8042" lon="-8.40826"><time>2022-11-28T12:01:53.000Z</time></trkpt><trkpt lat="39.80418" lon="-8.40833"><time>2022-11-28T12:02:03.000Z</time></trkpt><trkpt lat="39.80413" lon="-8.40844"><ele>277</ele><time>2022-11-28T12:02:13.000Z</time></trkpt><trkpt lat="39.8041" lon="-8.40849"><time>2022-11-28T12:02:23.000Z</time></trkpt><trkpt lat="39.80405" lon="-8.40869"><ele>272</ele><time>2022-11-28T12:02:33.000Z</time></trkpt><trkpt lat="39.80404" lon="-8.40879"><time>2022-11-28T12:02:43.000Z</time></trkpt><trkpt lat="39.80404" lon="-8.40889"><time>2022-11-28T12:02:53.000Z</time></trkpt><trkpt lat="39.80404" lon="-8.40896"><ele>271</ele><time>2022-11-28T12:03:03.000Z</time></trkpt><trkpt lat="39.80403" lon="-8.40902"><time>2022-11-28T12:03:13.000Z</time></trkpt><trkpt lat="39.80402" lon="-8.40905"><time>2022-11-28T12:03:23.000Z</time></trkpt><trkpt lat="39.80401" lon="-8.40909"><time>2022-11-28T12:03:33.000Z</time></trkpt><trkpt lat="39.80401" lon="-8.40916"><time>2022-11-28T12:03:43.000Z</time></trkpt><trkpt lat="39.804" lon="-8.40927"><ele>271</ele><time>2022-11-28T12:03:53.000Z</time></trkpt><trkpt lat="39.80401" lon="-8.4093"><time>2022-11-28T12:04:03.000Z</time></trkpt><trkpt lat="39.804" lon="-8.40939"><time>2022-11-28T12:04:13.000Z</time></trkpt><trkpt lat="39.80397" lon="-8.40947"><time>2022-11-28T12:04:23.000Z</time></trkpt><trkpt lat="39.80397" lon="-8.40954"><ele>276</ele><time>2022-11-28T12:04:33.000Z</time></trkpt><trkpt lat="39.80397" lon="-8.40963"><time>2022-11-28T12:04:43.000Z</time></trkpt><trkpt lat="39.80398" lon="-8.40969"><time>2022-11-28T12:04:53.000Z</time></trkpt><trkpt lat="39.804" lon="-8.40971"><time>2022-11-28T12:05:03.000Z</time></trkpt><trkpt lat="39.80402" lon="-8.40973"><time>2022-11-28T12:05:13.000Z</time></trkpt><trkpt lat="39.80406" lon="-8.40975"><ele>276</ele><time>2022-11-28T12:05:23.000Z</time></trkpt><trkpt lat="39.80411" lon="-8.40975"><time>2022-11-28T12:05:33.000Z</time></trkpt><trkpt lat="39.80413" lon="-8.40974"><time>2022-11-28T12:05:43.000Z</time></trkpt><trkpt lat="39.80416" lon="-8.4097"><time>2022-11-28T12:05:53.000Z</time></trkpt><trkpt lat="39.80418" lon="-8.40969"><time>2022-11-28T12:06:03.000Z</time></trkpt><trkpt lat="39.80422" lon="-8.40968"><time>2022-11-28T12:06:13.000Z</time></trkpt><trkpt lat="39.80425" lon="-8.40966"><ele>284</ele><time>2022-11-28T12:06:23.000Z</time></trkpt><trkpt lat="39.80433" lon="-8.40967"><time>2022-11-28T12:06:33.000Z</time></trkpt><trkpt lat="39.80436" lon="-8.40969"><time>2022-11-28T12:06:43.000Z</time></trkpt><trkpt lat="39.80438" lon="-8.40971"><time>2022-11-28T12:06:53.000Z</time></trkpt><trkpt lat="39.80439" lon="-8.40974"><time>2022-11-28T12:07:03.000Z</time></trkpt><trkpt lat="39.8044" lon="-8.40981"><ele>286</ele><time>2022-11-28T12:07:13.000Z</time></trkpt><trkpt lat="39.8044" lon="-8.40984"><time>2022-11-28T12:07:23.000Z</time></trkpt><trkpt lat="39.8044" lon="-8.4099"><time>2022-11-28T12:07:33.000Z</time></trkpt><trkpt lat="39.80438" lon="-8.40993"><time>2022-11-28T12:07:43.000Z</time></trkpt><trkpt lat="39.80436" lon="-8.40993"><time>2022-11-28T12:07:53.000Z</time></trkpt><trkpt lat="39.80435" lon="-8.40995"><time>2022-11-28T12:08:03.000Z</time></trkpt><trkpt lat="39.80434" lon="-8.41001"><time>2022-11-28T12:08:13.000Z</time></trkpt><trkpt lat="39.80433" lon="-8.41013"><ele>288</ele><time>2022-11-28T12:08:23.000Z</time></trkpt><trkpt lat="39.80433" lon="-8.41016"><time>2022-11-28T12:08:33.000Z</time></trkpt><trkpt lat="39.80434" lon="-8.41019"><time>2022-11-28T12:08:43.000Z</time></trkpt><trkpt lat="39.80436" lon="-8.41025"><time>2022-11-28T12:08:53.000Z</time></trkpt><trkpt lat="39.80438" lon="-8.41027"><time>2022-11-28T12:09:03.000Z</time></trkpt><trkpt lat="39.80449" lon="-8.41038"><ele>291</ele><time>2022-11-28T12:09:13.000Z</time></trkpt><trkpt lat="39.80451" lon="-8.4104"><time>2022-11-28T12:09:23.000Z</time></trkpt><trkpt lat="39.80455" lon="-8.41048"><time>2022-11-28T12:09:33.000Z</time></trkpt><trkpt lat="39.80459" lon="-8.41052"><time>2022-11-28T12:09:43.000Z</time></trkpt><trkpt lat="39.80466" lon="-8.41057"><ele>295</ele><time>2022-11-28T12:09:53.000Z</time></trkpt><trkpt lat="39.8047" lon="-8.41056"><time>2022-11-28T12:10:03.000Z</time></trkpt><trkpt lat="39.80472" lon="-8.41057"><time>2022-11-28T12:10:13.000Z</time></trkpt><trkpt lat="39.80477" lon="-8.41057"><time>2022-11-28T12:10:23.000Z</time></trkpt><trkpt lat="39.80496" lon="-8.41062"><ele>298</ele><time>2022-11-28T12:10:33.000Z</time></trkpt><trkpt lat="39.80504" lon="-8.41063"><time>2022-11-28T12:10:43.000Z</time></trkpt><trkpt lat="39.80515" lon="-8.41065"><time>2022-11-28T12:10:53.000Z</time></trkpt><trkpt lat="39.80523" lon="-8.41065"><ele>299</ele><time>2022-11-28T12:11:03.000Z</time></trkpt><trkpt lat="39.80529" lon="-8.41066"><time>2022-11-28T12:11:13.000Z</time></trkpt><trkpt lat="39.80533" lon="-8.4107"><time>2022-11-28T12:11:23.000Z</time></trkpt><trkpt lat="39.80534" lon="-8.41073"><time>2022-11-28T12:11:33.000Z</time></trkpt><trkpt lat="39.80536" lon="-8.41085"><ele>299</ele><time>2022-11-28T12:11:43.000Z</time></trkpt><trkpt lat="39.80535" lon="-8.41078"><time>2022-11-28T12:11:53.000Z</time></trkpt><trkpt lat="39.80537" lon="-8.41081"><time>2022-11-28T12:12:03.000Z</time></trkpt><trkpt lat="39.80538" lon="-8.41093"><time>2022-11-28T12:12:13.000Z</time></trkpt><trkpt lat="39.80536" lon="-8.41121"><ele>300</ele><time>2022-11-28T12:12:23.000Z</time></trkpt><trkpt lat="39.80536" lon="-8.41128"><time>2022-11-28T12:12:33.000Z</time></trkpt><trkpt lat="39.80538" lon="-8.41139"><time>2022-11-28T12:12:43.000Z</time></trkpt><trkpt lat="39.80547" lon="-8.41169"><ele>300</ele><time>2022-11-28T12:12:53.000Z</time></trkpt><trkpt lat="39.80547" lon="-8.41172"><time>2022-11-28T12:13:03.000Z</time></trkpt><trkpt lat="39.80546" lon="-8.41177"><time>2022-11-28T12:13:13.000Z</time></trkpt><trkpt lat="39.80544" lon="-8.4118"><time>2022-11-28T12:13:23.000Z</time></trkpt><trkpt lat="39.80537" lon="-8.41187"><time>2022-11-28T12:13:33.000Z</time></trkpt><trkpt lat="39.8053" lon="-8.41191"><ele>298</ele><time>2022-11-28T12:13:43.000Z</time></trkpt><trkpt lat="39.80525" lon="-8.41193"><time>2022-11-28T12:13:53.000Z</time></trkpt><trkpt lat="39.80525" lon="-8.41194"><time>2022-11-28T12:14:03.000Z</time></trkpt><trkpt lat="39.8052" lon="-8.41197"><time>2022-11-28T12:14:13.000Z</time></trkpt><trkpt lat="39.80511" lon="-8.41198"><time>2022-11-28T12:14:23.000Z</time></trkpt><trkpt lat="39.80491" lon="-8.41198"><ele>292</ele><time>2022-11-28T12:14:33.000Z</time></trkpt><trkpt lat="39.80475" lon="-8.41204"><time>2022-11-28T12:14:43.000Z</time></trkpt><trkpt lat="39.80458" lon="-8.41207"><ele>280</ele><time>2022-11-28T12:14:53.000Z</time></trkpt><trkpt lat="39.80449" lon="-8.41208"><time>2022-11-28T12:15:03.000Z</time></trkpt><trkpt lat="39.80444" lon="-8.4121"><time>2022-11-28T12:15:13.000Z</time></trkpt><trkpt lat="39.80438" lon="-8.41213"><time>2022-11-28T12:15:23.000Z</time></trkpt><trkpt lat="39.80429" lon="-8.41223"><ele>276</ele><time>2022-11-28T12:15:33.000Z</time></trkpt><trkpt lat="39.8042" lon="-8.41237"><time>2022-11-28T12:15:43.000Z</time></trkpt><trkpt lat="39.80412" lon="-8.41244"><ele>274</ele><time>2022-11-28T12:15:53.000Z</time></trkpt><trkpt lat="39.80402" lon="-8.41254"><time>2022-11-28T12:16:03.000Z</time></trkpt><trkpt lat="39.804" lon="-8.41255"><time>2022-11-28T12:16:13.000Z</time></trkpt><trkpt lat="39.80399" lon="-8.41255"><time>2022-11-28T12:16:23.000Z</time></trkpt><trkpt lat="39.80397" lon="-8.41253"><time>2022-11-28T12:16:33.000Z</time></trkpt><trkpt lat="39.80399" lon="-8.41252"><time>2022-11-28T12:16:43.000Z</time></trkpt><trkpt lat="39.80398" lon="-8.41252"><time>2022-11-28T12:16:53.000Z</time></trkpt><trkpt lat="39.80395" lon="-8.41255"><ele>269</ele><time>2022-11-28T12:17:03.000Z</time></trkpt><trkpt lat="39.80383" lon="-8.4126"><time>2022-11-28T12:17:13.000Z</time></trkpt><trkpt lat="39.80378" lon="-8.41264"><time>2022-11-28T12:17:23.000Z</time></trkpt><trkpt lat="39.80376" lon="-8.41265"><time>2022-11-28T12:17:33.000Z</time></trkpt><trkpt lat="39.80372" lon="-8.41268"><ele>260</ele><time>2022-11-28T12:17:43.000Z</time></trkpt><trkpt lat="39.80366" lon="-8.41271"><time>2022-11-28T12:17:53.000Z</time></trkpt><trkpt lat="39.80364" lon="-8.41273"><time>2022-11-28T12:18:03.000Z</time></trkpt><trkpt lat="39.80363" lon="-8.41276"><time>2022-11-28T12:18:13.000Z</time></trkpt><trkpt lat="39.80362" lon="-8.4128"><time>2022-11-28T12:18:23.000Z</time></trkpt><trkpt lat="39.80364" lon="-8.41291"><ele>257</ele><time>2022-11-28T12:18:33.000Z</time></trkpt><trkpt lat="39.80369" lon="-8.41307"><time>2022-11-28T12:18:43.000Z</time></trkpt><trkpt lat="39.8037" lon="-8.41314"><time>2022-11-28T12:18:53.000Z</time></trkpt><trkpt lat="39.80369" lon="-8.41335"><ele>254</ele><time>2022-11-28T12:19:03.000Z</time></trkpt><trkpt lat="39.80366" lon="-8.4135"><time>2022-11-28T12:19:13.000Z</time></trkpt><trkpt lat="39.80364" lon="-8.41393"><ele>253</ele><time>2022-01-15T11:04:53.000Z</time></trkpt><trkpt lat="39.80362" lon="-8.41423"><ele>253</ele><time>2022-01-15T11:05:03.000Z</time></trkpt><trkpt lat="39.8036" lon="-8.4144"><time>2022-01-15T11:05:13.000Z</time></trkpt><trkpt lat="39.80356" lon="-8.41472"><ele>253</ele><time>2022-01-15T11:05:20.000Z</time></trkpt><trkpt lat="39.80344" lon="-8.41529"><ele>252</ele><time>2022-01-15T11:05:30.000Z</time></trkpt><trkpt lat="39.80343" lon="-8.41539"><time>2022-01-15T11:05:40.000Z</time></trkpt><trkpt lat="39.80339" lon="-8.41581"><ele>252</ele><time>2022-01-15T11:05:50.000Z</time></trkpt><trkpt lat="39.8034" lon="-8.41606"><time>2022-01-15T11:06:00.000Z</time></trkpt><trkpt lat="39.80345" lon="-8.41637"><ele>253</ele><time>2022-01-15T11:06:13.000Z</time></trkpt><trkpt lat="39.8035" lon="-8.41696"><ele>253</ele><time>2022-01-15T11:06:31.000Z</time></trkpt><trkpt lat="39.80352" lon="-8.41726"><ele>249</ele><time>2022-01-15T11:06:40.000Z</time></trkpt><trkpt lat="39.80356" lon="-8.4177"><ele>246</ele><time>2022-01-15T11:06:53.000Z</time></trkpt><trkpt lat="39.80363" lon="-8.41819"><ele>246</ele><time>2022-01-15T11:07:03.000Z</time></trkpt><trkpt lat="39.80367" lon="-8.41836"><time>2022-01-15T11:07:13.000Z</time></trkpt><trkpt lat="39.80376" lon="-8.41862"><ele>246</ele><time>2022-01-15T11:07:23.000Z</time></trkpt><trkpt lat="39.80382" lon="-8.41873"><time>2022-01-15T11:07:33.000Z</time></trkpt><trkpt lat="39.80389" lon="-8.41882"><time>2022-01-15T11:07:43.000Z</time></trkpt><trkpt lat="39.80406" lon="-8.41897"><ele>247</ele><time>2022-01-15T11:07:36.000Z</time></trkpt><trkpt lat="39.80428" lon="-8.41915"><ele>249</ele><time>2022-01-15T11:07:46.000Z</time></trkpt><trkpt lat="39.80444" lon="-8.41925"><time>2022-01-15T11:07:56.000Z</time></trkpt><trkpt lat="39.80477" lon="-8.41949"><ele>256</ele><time>2022-01-15T11:08:06.000Z</time></trkpt><trkpt lat="39.80482" lon="-8.41952"><time>2022-01-15T11:08:16.000Z</time></trkpt><trkpt lat="39.80488" lon="-8.41958"><time>2022-01-15T11:08:26.000Z</time></trkpt><trkpt lat="39.80496" lon="-8.41964"><ele>256</ele><time>2022-01-15T11:08:36.000Z</time></trkpt><trkpt lat="39.8051" lon="-8.41972"><time>2022-01-15T11:08:46.000Z</time></trkpt><trkpt lat="39.80531" lon="-8.41989"><ele>256</ele><time>2022-01-15T11:08:56.000Z</time></trkpt><trkpt lat="39.80545" lon="-8.41997"><time>2022-01-15T11:09:06.000Z</time></trkpt><trkpt lat="39.80566" lon="-8.42014"><ele>254</ele><time>2022-01-15T11:09:55.000Z</time></trkpt><trkpt lat="39.80593" lon="-8.42031"><ele>252</ele><time>2022-01-15T11:10:19.000Z</time></trkpt><trkpt lat="39.80603" lon="-8.42038"><time>2022-01-15T11:10:29.000Z</time></trkpt><trkpt lat="39.80613" lon="-8.42043"><ele>247</ele><time>2022-01-15T11:10:36.000Z</time></trkpt><trkpt lat="39.80621" lon="-8.4205"><time>2022-01-15T11:10:46.000Z</time></trkpt><trkpt lat="39.80632" lon="-8.42056"><ele>245</ele><time>2022-01-15T11:10:53.000Z</time></trkpt><trkpt lat="39.80636" lon="-8.42067"><time>2022-01-15T11:11:03.000Z</time></trkpt><trkpt lat="39.80646" lon="-8.42075"><ele>245</ele><time>2022-01-15T11:11:05.000Z</time></trkpt><trkpt lat="39.80669" lon="-8.42108"><ele>245</ele><time>2022-01-15T11:11:17.000Z</time></trkpt><trkpt lat="39.80684" lon="-8.42126"><ele>245</ele><time>2022-01-15T11:11:25.000Z</time></trkpt><trkpt lat="39.80697" lon="-8.42144"><time>2022-01-15T11:11:35.000Z</time></trkpt><trkpt lat="39.80705" lon="-8.4216"><ele>246</ele><time>2022-01-15T11:11:41.000Z</time></trkpt><trkpt lat="39.8071" lon="-8.42174"><time>2022-01-15T11:11:51.000Z</time></trkpt><trkpt lat="39.80715" lon="-8.42184"><ele>246</ele><time>2022-01-15T11:11:50.000Z</time></trkpt><trkpt lat="39.80722" lon="-8.42202"><time>2022-01-15T11:12:00.000Z</time></trkpt><trkpt lat="39.80726" lon="-8.42216"><ele>244</ele><time>2022-01-15T11:12:00.000Z</time></trkpt><trkpt lat="39.80739" lon="-8.42247"><ele>244</ele><time>2022-01-15T11:12:11.000Z</time></trkpt><trkpt lat="39.80748" lon="-8.42263"><time>2022-01-15T11:12:21.000Z</time></trkpt><trkpt lat="39.8075" lon="-8.42269"><time>2022-01-15T11:12:31.000Z</time></trkpt><trkpt lat="39.80755" lon="-8.42277"><ele>242</ele><time>2022-01-15T11:12:22.000Z</time></trkpt><trkpt lat="39.8076" lon="-8.42289"><time>2022-01-15T11:12:32.000Z</time></trkpt><trkpt lat="39.80767" lon="-8.42304"><ele>240</ele><time>2022-01-15T11:12:31.000Z</time></trkpt><trkpt lat="39.80775" lon="-8.42326"><time>2022-01-15T11:12:41.000Z</time></trkpt><trkpt lat="39.80784" lon="-8.42345"><ele>238</ele><time>2022-01-15T11:12:45.000Z</time></trkpt><trkpt lat="39.80797" lon="-8.42374"><ele>236</ele><time>2022-01-15T11:12:55.000Z</time></trkpt><trkpt lat="39.8081" lon="-8.42404"><ele>235</ele><time>2022-01-15T11:13:06.000Z</time></trkpt><trkpt lat="39.80817" lon="-8.42425"><time>2022-01-15T11:13:16.000Z</time></trkpt><trkpt lat="39.80822" lon="-8.4244"><ele>234</ele><time>2022-01-15T11:13:19.000Z</time></trkpt><trkpt lat="39.80831" lon="-8.42465"><ele>231</ele><time>2022-01-15T11:13:29.000Z</time></trkpt><trkpt lat="39.80847" lon="-8.42504"><ele>230</ele><time>2022-01-15T11:13:39.000Z</time></trkpt><trkpt lat="39.80853" lon="-8.42515"><time>2022-01-15T11:13:49.000Z</time></trkpt><trkpt lat="39.80864" lon="-8.42531"><ele>229</ele><time>2022-01-15T11:13:59.000Z</time></trkpt><trkpt lat="39.80872" lon="-8.42539"><time>2022-01-15T11:14:09.000Z</time></trkpt><trkpt lat="39.80916" lon="-8.42577"><ele>224</ele><time>2022-01-15T11:14:20.000Z</time></trkpt><trkpt lat="39.80925" lon="-8.42586"><time>2022-01-15T11:14:30.000Z</time></trkpt><trkpt lat="39.80926" lon="-8.42589"><time>2022-01-15T11:14:40.000Z</time></trkpt><trkpt lat="39.80932" lon="-8.4261"><ele>224</ele><time>2022-01-15T11:14:33.000Z</time></trkpt><trkpt lat="39.80937" lon="-8.42632"><time>2022-01-15T11:14:43.000Z</time></trkpt><trkpt lat="39.80943" lon="-8.42647"><ele>225</ele><time>2022-01-15T11:14:45.000Z</time></trkpt><trkpt lat="39.80953" lon="-8.42665"><time>2022-01-15T11:14:55.000Z</time></trkpt><trkpt lat="39.80955" lon="-8.42671"><ele>225</ele><time>2022-01-15T11:15:05.000Z</time></trkpt><trkpt lat="39.80957" lon="-8.42682"><time>2022-01-15T11:15:15.000Z</time></trkpt><trkpt lat="39.80959" lon="-8.42691"><time>2022-01-15T11:15:25.000Z</time></trkpt><trkpt lat="39.80959" lon="-8.42714"><ele>222</ele><time>2022-01-15T11:15:35.000Z</time></trkpt><trkpt lat="39.80964" lon="-8.42738"><time>2022-01-15T11:15:45.000Z</time></trkpt><trkpt lat="39.80969" lon="-8.42784"><ele>222</ele><time>2022-01-15T11:15:55.000Z</time></trkpt><trkpt lat="39.80973" lon="-8.42806"><time>2022-01-15T11:16:05.000Z</time></trkpt><trkpt lat="39.80982" lon="-8.42833"><ele>219</ele><time>2022-01-15T11:16:15.000Z</time></trkpt><trkpt lat="39.80986" lon="-8.42841"><time>2022-01-15T11:16:25.000Z</time></trkpt><trkpt lat="39.80992" lon="-8.4286"><ele>217</ele><time>2022-01-15T11:16:35.000Z</time></trkpt><trkpt lat="39.80993" lon="-8.42866"><time>2022-01-15T11:16:45.000Z</time></trkpt><trkpt lat="39.80993" lon="-8.42872"><time>2022-01-15T11:16:55.000Z</time></trkpt><trkpt lat="39.80991" lon="-8.42925"><ele>212</ele><time>2022-01-15T11:17:05.000Z</time></trkpt><trkpt lat="39.80985" lon="-8.42948"><time>2022-01-15T11:17:15.000Z</time></trkpt><trkpt lat="39.80978" lon="-8.4297"><ele>211</ele><time>2022-01-15T11:17:25.000Z</time></trkpt><trkpt lat="39.80968" lon="-8.42992"><time>2022-01-15T11:17:35.000Z</time></trkpt><trkpt lat="39.80955" lon="-8.43009"><ele>213</ele><time>2022-01-15T11:17:45.000Z</time></trkpt><trkpt lat="39.80947" lon="-8.43016"><time>2022-01-15T11:17:55.000Z</time></trkpt><trkpt lat="39.8094" lon="-8.4302"><time>2022-01-15T11:18:05.000Z</time></trkpt><trkpt lat="39.80924" lon="-8.43024"><ele>213</ele><time>2022-01-15T11:17:01.000Z</time></trkpt><trkpt lat="39.80904" lon="-8.4303"><ele>208</ele><time>2022-01-15T11:17:11.000Z</time></trkpt><trkpt lat="39.8089" lon="-8.43037"><time>2022-01-15T11:17:21.000Z</time></trkpt><trkpt lat="39.80876" lon="-8.43043"><ele>206</ele><time>2022-01-15T11:17:31.000Z</time></trkpt><trkpt lat="39.80865" lon="-8.43044"><time>2022-01-15T11:17:41.000Z</time></trkpt><trkpt lat="39.80858" lon="-8.43048"><time>2022-01-15T11:17:51.000Z</time></trkpt><trkpt lat="39.80838" lon="-8.43055"><ele>205</ele><time>2022-01-15T11:17:37.000Z</time></trkpt><trkpt lat="39.80815" lon="-8.43065"><ele>198</ele><time>2022-01-15T11:17:47.000Z</time></trkpt><trkpt lat="39.80804" lon="-8.43067"><time>2022-01-15T11:17:57.000Z</time></trkpt><trkpt lat="39.80786" lon="-8.43068"><ele>192</ele><time>2022-01-15T11:18:07.000Z</time></trkpt><trkpt lat="39.80781" lon="-8.43066"><time>2022-01-15T11:18:17.000Z</time></trkpt><trkpt lat="39.80763" lon="-8.43064"><ele>183</ele><time>2022-01-15T11:18:27.000Z</time></trkpt><trkpt lat="39.80748" lon="-8.43061"><time>2022-01-15T11:18:37.000Z</time></trkpt><trkpt lat="39.80743" lon="-8.43059"><time>2022-01-15T11:18:47.000Z</time></trkpt><trkpt lat="39.80727" lon="-8.43057"><ele>180</ele><time>2022-01-15T11:18:57.000Z</time></trkpt><trkpt lat="39.80715" lon="-8.43053"><time>2022-01-15T11:19:07.000Z</time></trkpt><trkpt lat="39.80685" lon="-8.43037"><ele>178</ele><time>2022-01-15T11:18:36.000Z</time></trkpt><trkpt lat="39.80672" lon="-8.43029"><time>2022-01-15T11:18:46.000Z</time></trkpt><trkpt lat="39.80664" lon="-8.43024"><ele>178</ele><time>2022-01-15T11:18:44.000Z</time></trkpt><trkpt lat="39.80652" lon="-8.43011"><time>2022-01-15T11:18:54.000Z</time></trkpt><trkpt lat="39.8064" lon="-8.43005"><ele>175</ele><time>2022-01-15T11:18:53.000Z</time></trkpt><trkpt lat="39.80635" lon="-8.43007"><time>2022-01-15T11:19:03.000Z</time></trkpt><trkpt lat="39.80631" lon="-8.43012"><time>2022-01-15T11:19:13.000Z</time></trkpt><trkpt lat="39.80629" lon="-8.43015"><time>2022-01-15T11:19:23.000Z</time></trkpt><trkpt lat="39.80626" lon="-8.43022"><time>2022-01-15T11:19:33.000Z</time></trkpt><trkpt lat="39.80625" lon="-8.43029"><ele>173</ele><time>2022-01-15T11:19:02.000Z</time></trkpt><trkpt lat="39.80624" lon="-8.4304"><time>2022-01-15T11:19:12.000Z</time></trkpt><trkpt lat="39.80623" lon="-8.43063"><ele>173</ele><time>2022-01-15T11:19:11.000Z</time></trkpt><trkpt lat="39.80626" lon="-8.43084"><time>2022-01-15T11:19:21.000Z</time></trkpt><trkpt lat="39.80629" lon="-8.43092"><ele>173</ele><time>2022-01-15T11:19:31.000Z</time></trkpt><trkpt lat="39.80631" lon="-8.43097"><time>2022-01-15T11:19:41.000Z</time></trkpt><trkpt lat="39.80641" lon="-8.43112"><time>2022-01-15T11:19:51.000Z</time></trkpt><trkpt lat="39.80649" lon="-8.43129"><ele>173</ele><time>2022-01-15T11:19:35.000Z</time></trkpt><trkpt lat="39.80671" lon="-8.43155"><ele>174</ele><time>2022-01-15T11:19:45.000Z</time></trkpt><trkpt lat="39.80674" lon="-8.4316"><time>2022-01-15T11:19:55.000Z</time></trkpt><trkpt lat="39.80682" lon="-8.43178"><time>2022-01-15T11:20:05.000Z</time></trkpt><trkpt lat="39.807" lon="-8.4321"><ele>173</ele><time>2022-01-15T11:20:12.000Z</time></trkpt><trkpt lat="39.80712" lon="-8.4324"><ele>175</ele><time>2022-01-15T11:20:22.000Z</time></trkpt><trkpt lat="39.80715" lon="-8.43245"><time>2022-01-15T11:20:32.000Z</time></trkpt><trkpt lat="39.80732" lon="-8.43261"><ele>173</ele><time>2022-01-15T11:20:42.000Z</time></trkpt><trkpt lat="39.80741" lon="-8.43266"><time>2022-01-15T11:20:52.000Z</time></trkpt><trkpt lat="39.80752" lon="-8.43276"><ele>174</ele><time>2022-01-15T11:21:02.000Z</time></trkpt><trkpt lat="39.80759" lon="-8.43281"><time>2022-01-15T11:21:12.000Z</time></trkpt><trkpt lat="39.80768" lon="-8.43288"><time>2022-01-15T11:21:22.000Z</time></trkpt><trkpt lat="39.80776" lon="-8.43294"><ele>176</ele><time>2022-01-15T11:21:32.000Z</time></trkpt><trkpt lat="39.8079" lon="-8.43302"><time>2022-01-15T11:21:42.000Z</time></trkpt><trkpt lat="39.80807" lon="-8.4331"><ele>178</ele><time>2022-01-15T11:21:52.000Z</time></trkpt><trkpt lat="39.80821" lon="-8.43316"><time>2022-01-15T11:22:02.000Z</time></trkpt><trkpt lat="39.80836" lon="-8.43319"><ele>177</ele><time>2022-01-15T11:22:12.000Z</time></trkpt><trkpt lat="39.80854" lon="-8.43325"><time>2022-01-15T11:22:22.000Z</time></trkpt><trkpt lat="39.80883" lon="-8.43331"><ele>177</ele><time>2022-01-15T11:21:42.000Z</time></trkpt><trkpt lat="39.80906" lon="-8.43339"><ele>177</ele><time>2022-01-15T11:21:52.000Z</time></trkpt><trkpt lat="39.8091" lon="-8.43342"><time>2022-01-15T11:22:02.000Z</time></trkpt><trkpt lat="39.80912" lon="-8.43344"><time>2022-01-15T11:22:12.000Z</time></trkpt><trkpt lat="39.80918" lon="-8.43349"><time>2022-01-15T11:22:22.000Z</time></trkpt><trkpt lat="39.80921" lon="-8.43347"><time>2022-01-15T11:22:32.000Z</time></trkpt><trkpt lat="39.80924" lon="-8.4335"><ele>174</ele><time>2022-01-15T11:22:42.000Z</time></trkpt><trkpt lat="39.80923" lon="-8.43351"><time>2022-01-15T11:22:52.000Z</time></trkpt><trkpt lat="39.80921" lon="-8.4335"><time>2022-01-15T11:23:02.000Z</time></trkpt><trkpt lat="39.80921" lon="-8.43349"><time>2022-01-15T11:23:12.000Z</time></trkpt><trkpt lat="39.80925" lon="-8.43356"><time>2022-01-15T11:23:22.000Z</time></trkpt><trkpt lat="39.80934" lon="-8.43368"><ele>174</ele><time>2022-01-15T11:23:32.000Z</time></trkpt><trkpt lat="39.80939" lon="-8.43378"><time>2022-01-15T11:23:42.000Z</time></trkpt><trkpt lat="39.80944" lon="-8.43386"><time>2022-01-15T11:23:52.000Z</time></trkpt><trkpt lat="39.80946" lon="-8.43394"><ele>173</ele><time>2022-01-15T11:24:02.000Z</time></trkpt><trkpt lat="39.80946" lon="-8.43403"><time>2022-01-15T11:24:12.000Z</time></trkpt><trkpt lat="39.80949" lon="-8.4341"><time>2022-01-15T11:24:22.000Z</time></trkpt><trkpt lat="39.80959" lon="-8.43427"><ele>173</ele><time>2022-01-15T11:24:32.000Z</time></trkpt><trkpt lat="39.80963" lon="-8.43433"><time>2022-01-15T11:24:42.000Z</time></trkpt><trkpt lat="39.80969" lon="-8.4344"><time>2022-01-15T11:24:52.000Z</time></trkpt><trkpt lat="39.80978" lon="-8.43446"><ele>176</ele><time>2022-01-15T11:25:02.000Z</time></trkpt><trkpt lat="39.80985" lon="-8.43457"><time>2022-01-15T11:25:12.000Z</time></trkpt><trkpt lat="39.80991" lon="-8.43462"><time>2022-01-15T11:25:22.000Z</time></trkpt><trkpt lat="39.80996" lon="-8.43465"><ele>176</ele><time>2022-01-15T11:25:32.000Z</time></trkpt><trkpt lat="39.81003" lon="-8.43466"><time>2022-01-15T11:25:42.000Z</time></trkpt><trkpt lat="39.81012" lon="-8.4347"><time>2022-01-15T11:25:52.000Z</time></trkpt><trkpt lat="39.81021" lon="-8.4347"><ele>163</ele><time>2022-01-15T11:26:02.000Z</time></trkpt><trkpt lat="39.81024" lon="-8.43468"><time>2022-01-15T11:26:12.000Z</time></trkpt><trkpt lat="39.81035" lon="-8.43464"><time>2022-01-15T11:26:22.000Z</time></trkpt><trkpt lat="39.81045" lon="-8.43458"><ele>163</ele><time>2022-01-15T11:26:32.000Z</time></trkpt><trkpt lat="39.81053" lon="-8.43456"><time>2022-01-15T11:26:42.000Z</time></trkpt><trkpt lat="39.81059" lon="-8.43458"><time>2022-01-15T11:26:52.000Z</time></trkpt><trkpt lat="39.81061" lon="-8.43463"><time>2022-01-15T11:27:02.000Z</time></trkpt><trkpt lat="39.81062" lon="-8.4347"><ele>162</ele><time>2022-01-15T11:27:12.000Z</time></trkpt><trkpt lat="39.81062" lon="-8.43481"><time>2022-01-15T11:27:22.000Z</time></trkpt><trkpt lat="39.81061" lon="-8.4349"><time>2022-01-15T11:27:32.000Z</time></trkpt><trkpt lat="39.81061" lon="-8.43495"><time>2022-01-15T11:27:42.000Z</time></trkpt><trkpt lat="39.81063" lon="-8.43508"><ele>162</ele><time>2022-01-15T11:27:52.000Z</time></trkpt><trkpt lat="39.81063" lon="-8.43517"><time>2022-01-15T11:28:02.000Z</time></trkpt><trkpt lat="39.81063" lon="-8.43538"><ele>159</ele><time>2022-01-15T11:28:12.000Z</time></trkpt><trkpt lat="39.81065" lon="-8.43545"><time>2022-01-15T11:28:22.000Z</time></trkpt><trkpt lat="39.81072" lon="-8.43564"><ele>160</ele><time>2022-01-15T11:28:32.000Z</time></trkpt><trkpt lat="39.81079" lon="-8.43576"><time>2022-01-15T11:28:42.000Z</time></trkpt><trkpt lat="39.81085" lon="-8.43584"><time>2022-01-15T11:28:52.000Z</time></trkpt><trkpt lat="39.81092" lon="-8.4359"><ele>159</ele><time>2022-01-15T11:29:02.000Z</time></trkpt><trkpt lat="39.8111" lon="-8.43598"><time>2022-01-15T11:29:12.000Z</time></trkpt><trkpt lat="39.81121" lon="-8.43606"><ele>158</ele><time>2022-01-15T11:29:22.000Z</time></trkpt><trkpt lat="39.81127" lon="-8.43607"><time>2022-01-15T11:29:32.000Z</time></trkpt><trkpt lat="39.81133" lon="-8.43609"><time>2022-01-15T11:29:42.000Z</time></trkpt><trkpt lat="39.81137" lon="-8.43613"><time>2022-01-15T11:29:52.000Z</time></trkpt><trkpt lat="39.81145" lon="-8.43621"><ele>152</ele><time>2022-01-15T11:30:02.000Z</time></trkpt><trkpt lat="39.81151" lon="-8.43631"><time>2022-01-15T11:30:12.000Z</time></trkpt><trkpt lat="39.81157" lon="-8.4364"><time>2022-01-15T11:30:22.000Z</time></trkpt><trkpt lat="39.81159" lon="-8.43645"><ele>152</ele><time>2022-01-15T11:30:32.000Z</time></trkpt><trkpt lat="39.81164" lon="-8.43658"><time>2022-01-15T11:30:42.000Z</time></trkpt><trkpt lat="39.81163" lon="-8.4366"><time>2022-01-15T11:30:52.000Z</time></trkpt><trkpt lat="39.81164" lon="-8.43662"><time>2022-01-15T11:31:02.000Z</time></trkpt><trkpt lat="39.81166" lon="-8.43668"><time>2022-01-15T11:31:12.000Z</time></trkpt><trkpt lat="39.8119" lon="-8.43709"><ele>150</ele><time>2022-01-15T11:31:22.000Z</time></trkpt><trkpt lat="39.81194" lon="-8.43717"><time>2022-01-15T11:31:32.000Z</time></trkpt><trkpt lat="39.81208" lon="-8.43741"><ele>152</ele><time>2022-01-15T11:31:42.000Z</time></trkpt><trkpt lat="39.81209" lon="-8.43744"><time>2022-01-15T11:31:52.000Z</time></trkpt><trkpt lat="39.8122" lon="-8.43769"><ele>154</ele><time>2022-01-15T11:28:28.000Z</time></trkpt><trkpt lat="39.81224" lon="-8.43775"><time>2022-01-15T11:28:38.000Z</time></trkpt><trkpt lat="39.81225" lon="-8.43777"><time>2022-01-15T11:28:48.000Z</time></trkpt><trkpt lat="39.81226" lon="-8.43777"><time>2022-01-15T11:28:58.000Z</time></trkpt><trkpt lat="39.81229" lon="-8.43783"><time>2022-01-15T11:29:08.000Z</time></trkpt><trkpt lat="39.81238" lon="-8.43785"><ele>154</ele><time>2022-01-15T11:29:18.000Z</time></trkpt><trkpt lat="39.81241" lon="-8.43786"><time>2022-01-15T11:29:28.000Z</time></trkpt><trkpt lat="39.81263" lon="-8.43793"><ele>166</ele><time>2022-01-15T11:29:17.000Z</time></trkpt><trkpt lat="39.81271" lon="-8.43794"><time>2022-01-15T11:29:27.000Z</time></trkpt><trkpt lat="39.81281" lon="-8.43795"><time>2022-01-15T11:29:37.000Z</time></trkpt><trkpt lat="39.81288" lon="-8.43797"><ele>177</ele><time>2022-01-15T11:29:36.000Z</time></trkpt><trkpt lat="39.81311" lon="-8.43797"><ele>180</ele><time>2022-01-15T11:29:46.000Z</time></trkpt><trkpt lat="39.81317" lon="-8.43796"><time>2022-01-15T11:29:56.000Z</time></trkpt><trkpt lat="39.81327" lon="-8.43791"><time>2022-01-15T11:30:06.000Z</time></trkpt><trkpt lat="39.81332" lon="-8.4379"><ele>181</ele><time>2022-01-15T11:30:16.000Z</time></trkpt><trkpt lat="39.81336" lon="-8.43789"><time>2022-01-15T11:30:26.000Z</time></trkpt><trkpt lat="39.81351" lon="-8.43789"><time>2022-01-15T11:30:36.000Z</time></trkpt><trkpt lat="39.81372" lon="-8.43792"><ele>182</ele><time>2022-01-15T11:30:46.000Z</time></trkpt><trkpt lat="39.81387" lon="-8.43793"><time>2022-01-15T11:30:56.000Z</time></trkpt><trkpt lat="39.81402" lon="-8.43799"><ele>180</ele><time>2022-01-15T11:31:06.000Z</time></trkpt><trkpt lat="39.81408" lon="-8.438"><time>2022-01-15T11:31:16.000Z</time></trkpt><trkpt lat="39.81416" lon="-8.43803"><time>2022-01-15T11:31:26.000Z</time></trkpt><trkpt lat="39.81457" lon="-8.43837"><ele>179</ele><time>2022-01-15T11:31:36.000Z</time></trkpt><trkpt lat="39.81468" lon="-8.43842"><time>2022-01-15T11:31:46.000Z</time></trkpt><trkpt lat="39.81482" lon="-8.43852"><ele>177</ele><time>2022-01-15T11:31:56.000Z</time></trkpt><trkpt lat="39.81491" lon="-8.43858"><time>2022-01-15T11:32:06.000Z</time></trkpt><trkpt lat="39.81502" lon="-8.43868"><ele>175</ele><time>2022-01-15T11:32:16.000Z</time></trkpt><trkpt lat="39.8151" lon="-8.43878"><time>2022-01-15T11:32:26.000Z</time></trkpt><trkpt lat="39.81527" lon="-8.43895"><ele>169</ele><time>2022-01-15T11:32:36.000Z</time></trkpt><trkpt lat="39.81533" lon="-8.43907"><time>2022-01-15T11:32:46.000Z</time></trkpt><trkpt lat="39.81538" lon="-8.43919"><ele>166</ele><time>2022-01-15T11:32:56.000Z</time></trkpt><trkpt lat="39.81544" lon="-8.43935"><time>2022-01-15T11:33:06.000Z</time></trkpt><trkpt lat="39.81551" lon="-8.4395"><ele>167</ele><time>2022-01-15T11:33:16.000Z</time></trkpt><trkpt lat="39.8156" lon="-8.43958"><time>2022-01-15T11:33:26.000Z</time></trkpt><trkpt lat="39.81583" lon="-8.43966"><ele>168</ele><time>2022-01-15T11:32:27.000Z</time></trkpt><trkpt lat="39.81599" lon="-8.43975"><time>2022-01-15T11:32:37.000Z</time></trkpt><trkpt lat="39.81616" lon="-8.43979"><ele>170</ele><time>2022-01-15T11:32:42.000Z</time></trkpt><trkpt lat="39.81635" lon="-8.43985"><time>2022-01-15T11:32:52.000Z</time></trkpt><trkpt lat="39.81647" lon="-8.43983"><ele>170</ele><time>2022-01-15T11:33:02.000Z</time></trkpt><trkpt lat="39.81652" lon="-8.43984"><time>2022-01-15T11:33:12.000Z</time></trkpt><trkpt lat="39.81678" lon="-8.43984"><ele>169</ele><time>2022-01-15T11:33:22.000Z</time></trkpt><trkpt lat="39.81687" lon="-8.4399"><time>2022-01-15T11:33:32.000Z</time></trkpt><trkpt lat="39.81699" lon="-8.43996"><ele>168</ele><time>2022-01-15T11:33:42.000Z</time></trkpt><trkpt lat="39.81713" lon="-8.44005"><time>2022-01-15T11:33:52.000Z</time></trkpt><trkpt lat="39.81727" lon="-8.44012"><ele>168</ele><time>2022-01-15T11:34:02.000Z</time></trkpt><trkpt lat="39.81734" lon="-8.44018"><time>2022-01-15T11:34:12.000Z</time></trkpt><trkpt lat="39.81736" lon="-8.44021"><time>2022-01-15T11:34:22.000Z</time></trkpt><trkpt lat="39.81738" lon="-8.44023"><time>2022-01-15T11:34:32.000Z</time></trkpt><trkpt lat="39.81739" lon="-8.44029"><time>2022-01-15T11:34:42.000Z</time></trkpt><trkpt lat="39.81737" lon="-8.44052"><ele>168</ele><time>2022-01-15T11:33:52.000Z</time></trkpt><trkpt lat="39.81735" lon="-8.441"><ele>168</ele><time>2022-01-15T11:34:02.000Z</time></trkpt><trkpt lat="39.81732" lon="-8.44113"><time>2022-01-15T11:34:12.000Z</time></trkpt><trkpt lat="39.81726" lon="-8.44131"><ele>167</ele><time>2022-01-15T11:34:22.000Z</time></trkpt><trkpt lat="39.8172" lon="-8.44144"><time>2022-01-15T11:34:32.000Z</time></trkpt><trkpt lat="39.81714" lon="-8.44153"><ele>167</ele><time>2022-01-15T11:34:42.000Z</time></trkpt><trkpt lat="39.81713" lon="-8.44156"><time>2022-01-15T11:34:52.000Z</time></trkpt><trkpt lat="39.81715" lon="-8.44164"><time>2022-01-15T11:35:02.000Z</time></trkpt><trkpt lat="39.81717" lon="-8.44167"><time>2022-01-15T11:35:12.000Z</time></trkpt><trkpt lat="39.81726" lon="-8.44175"><ele>167</ele><time>2022-01-15T11:35:22.000Z</time></trkpt><trkpt lat="39.81738" lon="-8.44182"><time>2022-01-15T11:35:32.000Z</time></trkpt><trkpt lat="39.81741" lon="-8.44186"><time>2022-01-15T11:35:42.000Z</time></trkpt><trkpt lat="39.8175" lon="-8.44185"><ele>167</ele><time>2022-01-15T11:35:52.000Z</time></trkpt><trkpt lat="39.81763" lon="-8.44177"><time>2022-01-15T11:36:02.000Z</time></trkpt><trkpt lat="39.8178" lon="-8.4417"><ele>167</ele><time>2022-01-15T11:36:12.000Z</time></trkpt><trkpt lat="39.81791" lon="-8.4417"><time>2022-01-15T11:36:22.000Z</time></trkpt><trkpt lat="39.81801" lon="-8.44172"><ele>166</ele><time>2022-01-15T11:36:32.000Z</time></trkpt><trkpt lat="39.81812" lon="-8.44176"><time>2022-01-15T11:36:42.000Z</time></trkpt><trkpt lat="39.81829" lon="-8.44187"><ele>166</ele><time>2022-01-15T11:36:52.000Z</time></trkpt><trkpt lat="39.81835" lon="-8.44191"><time>2022-01-15T11:37:02.000Z</time></trkpt><trkpt lat="39.81842" lon="-8.44201"><time>2022-01-15T11:37:12.000Z</time></trkpt><trkpt lat="39.81847" lon="-8.44215"><ele>167</ele><time>2022-01-15T11:37:22.000Z</time></trkpt><trkpt lat="39.8185" lon="-8.4422"><time>2022-01-15T11:37:32.000Z</time></trkpt><trkpt lat="39.81855" lon="-8.44226"><time>2022-01-15T11:37:42.000Z</time></trkpt><trkpt lat="39.81858" lon="-8.44229"><time>2022-01-15T11:37:52.000Z</time></trkpt><trkpt lat="39.81862" lon="-8.44235"><ele>171</ele><time>2022-01-15T11:38:02.000Z</time></trkpt><trkpt lat="39.81871" lon="-8.44255"><time>2022-01-15T11:38:12.000Z</time></trkpt><trkpt lat="39.81881" lon="-8.44266"><ele>171</ele><time>2022-01-15T11:38:22.000Z</time></trkpt><trkpt lat="39.81893" lon="-8.44278"><time>2022-01-15T11:38:32.000Z</time></trkpt><trkpt lat="39.81894" lon="-8.4428"><time>2022-01-15T11:38:42.000Z</time></trkpt><trkpt lat="39.8191" lon="-8.44301"><ele>170</ele><time>2022-01-15T11:36:55.000Z</time></trkpt><trkpt lat="39.81925" lon="-8.44306"><time>2022-01-15T11:37:05.000Z</time></trkpt><trkpt lat="39.81935" lon="-8.44311"><ele>170</ele><time>2022-01-15T11:37:15.000Z</time></trkpt><trkpt lat="39.81942" lon="-8.44314"><time>2022-01-15T11:37:25.000Z</time></trkpt><trkpt lat="39.81952" lon="-8.4432"><time>2022-01-15T11:37:35.000Z</time></trkpt><trkpt lat="39.81969" lon="-8.44326"><ele>168</ele><time>2022-01-15T11:37:29.000Z</time></trkpt><trkpt lat="39.81987" lon="-8.44329"><time>2022-01-15T11:37:39.000Z</time></trkpt><trkpt lat="39.81997" lon="-8.44327"><ele>168</ele><time>2022-01-15T11:37:41.000Z</time></trkpt><trkpt lat="39.8201" lon="-8.44321"><time>2022-01-15T11:37:51.000Z</time></trkpt><trkpt lat="39.82024" lon="-8.44309"><ele>169</ele><time>2022-01-15T11:37:53.000Z</time></trkpt><trkpt lat="39.82028" lon="-8.44303"><time>2022-01-15T11:38:03.000Z</time></trkpt><trkpt lat="39.8203" lon="-8.44297"><time>2022-01-15T11:38:13.000Z</time></trkpt><trkpt lat="39.82036" lon="-8.44278"><ele>170</ele><time>2022-01-15T11:38:05.000Z</time></trkpt><trkpt lat="39.82044" lon="-8.4426"><time>2022-01-15T11:38:15.000Z</time></trkpt><trkpt lat="39.82051" lon="-8.44245"><ele>174</ele><time>2022-01-15T11:38:25.000Z</time></trkpt><trkpt lat="39.82052" lon="-8.44244"><time>2022-01-15T11:38:35.000Z</time></trkpt><trkpt lat="39.82057" lon="-8.44242"><time>2022-01-15T11:38:45.000Z</time></trkpt><trkpt lat="39.82066" lon="-8.44239"><time>2022-01-15T11:38:55.000Z</time></trkpt><trkpt lat="39.82075" lon="-8.44239"><ele>176</ele><time>2022-01-15T11:39:05.000Z</time></trkpt><trkpt lat="39.82083" lon="-8.4424"><time>2022-01-15T11:39:15.000Z</time></trkpt><trkpt lat="39.82096" lon="-8.44244"><time>2022-01-15T11:39:25.000Z</time></trkpt><trkpt lat="39.82112" lon="-8.44246"><ele>178</ele><time>2022-01-15T11:38:58.000Z</time></trkpt><trkpt lat="39.82119" lon="-8.44249"><time>2022-01-15T11:39:08.000Z</time></trkpt><trkpt lat="39.82136" lon="-8.4425"><ele>178</ele><time>2022-01-15T11:39:13.000Z</time></trkpt><trkpt lat="39.82154" lon="-8.44246"><time>2022-01-15T11:39:23.000Z</time></trkpt><trkpt lat="39.82169" lon="-8.44239"><ele>178</ele><time>2022-01-15T11:39:32.000Z</time></trkpt><trkpt lat="39.82193" lon="-8.44223"><ele>178</ele><time>2022-01-15T11:39:44.000Z</time></trkpt><trkpt lat="39.82215" lon="-8.442"><ele>185</ele><time>2022-01-15T11:39:54.000Z</time></trkpt><trkpt lat="39.82244" lon="-8.4417"><ele>187</ele><time>2022-01-15T11:40:04.000Z</time></trkpt><trkpt lat="39.82258" lon="-8.44156"><time>2022-01-15T11:40:14.000Z</time></trkpt><trkpt lat="39.82279" lon="-8.44137"><ele>185</ele><time>2022-01-15T11:40:24.000Z</time></trkpt><trkpt lat="39.82294" lon="-8.4412"><time>2022-01-15T11:40:34.000Z</time></trkpt><trkpt lat="39.82303" lon="-8.44109"><ele>184</ele><time>2022-01-15T11:40:44.000Z</time></trkpt><trkpt lat="39.82309" lon="-8.44091"><time>2022-01-15T11:40:54.000Z</time></trkpt><trkpt lat="39.82315" lon="-8.44063"><ele>183</ele><time>2022-01-15T11:41:04.000Z</time></trkpt><trkpt lat="39.82316" lon="-8.44059"><time>2022-01-15T11:41:14.000Z</time></trkpt><trkpt lat="39.82328" lon="-8.44013"><ele>182</ele><time>2022-01-15T11:41:11.000Z</time></trkpt><trkpt lat="39.82335" lon="-8.43983"><ele>180</ele><time>2022-01-15T11:41:20.000Z</time></trkpt><trkpt lat="39.82343" lon="-8.43961"><time>2022-01-15T11:41:30.000Z</time></trkpt><trkpt lat="39.82352" lon="-8.43941"><ele>180</ele><time>2022-01-15T11:41:40.000Z</time></trkpt><trkpt lat="39.82354" lon="-8.43939"><time>2022-01-15T11:41:50.000Z</time></trkpt><trkpt lat="39.82358" lon="-8.43929"><time>2022-01-15T11:42:00.000Z</time></trkpt><trkpt lat="39.82367" lon="-8.43912"><ele>175</ele><time>2022-01-15T11:41:46.000Z</time></trkpt><trkpt lat="39.82378" lon="-8.43879"><ele>176</ele><time>2022-01-15T11:41:56.000Z</time></trkpt><trkpt lat="39.82391" lon="-8.43841"><ele>177</ele><time>2022-01-15T11:42:06.000Z</time></trkpt><trkpt lat="39.82393" lon="-8.43833"><time>2022-01-15T11:42:16.000Z</time></trkpt><trkpt lat="39.8241" lon="-8.43795"><ele>178</ele><time>2022-01-15T11:42:26.000Z</time></trkpt><trkpt lat="39.82418" lon="-8.43781"><time>2022-01-15T11:42:36.000Z</time></trkpt><trkpt lat="39.82434" lon="-8.43762"><ele>178</ele><time>2022-01-15T11:42:45.000Z</time></trkpt><trkpt lat="39.82461" lon="-8.43732"><ele>186</ele><time>2022-01-15T11:43:00.000Z</time></trkpt><trkpt lat="39.82475" lon="-8.43714"><time>2022-01-15T11:43:10.000Z</time></trkpt><trkpt lat="39.82488" lon="-8.43702"><ele>185</ele><time>2022-01-15T11:43:15.000Z</time></trkpt><trkpt lat="39.825" lon="-8.43687"><time>2022-01-15T11:43:25.000Z</time></trkpt><trkpt lat="39.82514" lon="-8.43673"><ele>185</ele><time>2022-01-15T11:43:31.000Z</time></trkpt><trkpt lat="39.82525" lon="-8.43662"><time>2022-01-15T11:43:41.000Z</time></trkpt><trkpt lat="39.82531" lon="-8.43655"><ele>185</ele><time>2022-01-15T11:43:51.000Z</time></trkpt><trkpt lat="39.82537" lon="-8.43648"><time>2022-01-15T11:44:01.000Z</time></trkpt><trkpt lat="39.82559" lon="-8.43631"><ele>188</ele><time>2022-01-15T11:43:59.000Z</time></trkpt><trkpt lat="39.82583" lon="-8.43618"><ele>189</ele><time>2022-01-15T11:44:09.000Z</time></trkpt><trkpt lat="39.82607" lon="-8.43604"><ele>190</ele><time>2022-01-15T11:44:19.000Z</time></trkpt><trkpt lat="39.82624" lon="-8.43594"><time>2022-01-15T11:44:29.000Z</time></trkpt><trkpt lat="39.82665" lon="-8.43571"><ele>192</ele><time>2022-01-15T11:44:52.000Z</time></trkpt><trkpt lat="39.82703" lon="-8.43552"><ele>195</ele><time>2022-01-15T11:45:10.000Z</time></trkpt><trkpt lat="39.82725" lon="-8.43546"><ele>193</ele><time>2022-01-15T11:45:20.000Z</time></trkpt><trkpt lat="39.82744" lon="-8.43545"><time>2022-01-15T11:45:30.000Z</time></trkpt><trkpt lat="39.82763" lon="-8.43547"><ele>195</ele><time>2022-01-15T11:45:37.000Z</time></trkpt><trkpt lat="39.82792" lon="-8.43552"><ele>198</ele><time>2022-01-15T11:45:47.000Z</time></trkpt><trkpt lat="39.82799" lon="-8.43552"><time>2022-01-15T11:45:57.000Z</time></trkpt><trkpt lat="39.82822" lon="-8.43554"><ele>199</ele><time>2022-01-15T11:46:04.000Z</time></trkpt><trkpt lat="39.82858" lon="-8.43562"><ele>201</ele><time>2022-01-15T11:46:22.000Z</time></trkpt><trkpt lat="39.82892" lon="-8.43568"><ele>206</ele><time>2022-01-15T11:46:32.000Z</time></trkpt><trkpt lat="39.8291" lon="-8.43567"><time>2022-01-15T11:46:42.000Z</time></trkpt><trkpt lat="39.82928" lon="-8.43562"><ele>207</ele><time>2022-01-15T11:46:52.000Z</time></trkpt><trkpt lat="39.82945" lon="-8.43554"><time>2022-01-15T11:47:02.000Z</time></trkpt><trkpt lat="39.82979" lon="-8.43543"><ele>209</ele><time>2022-01-15T11:47:22.000Z</time></trkpt><trkpt lat="39.83006" lon="-8.43536"><ele>213</ele><time>2022-01-15T11:47:32.000Z</time></trkpt><trkpt lat="39.83035" lon="-8.43527"><ele>213</ele><time>2022-01-15T11:47:50.000Z</time></trkpt><trkpt lat="39.83049" lon="-8.43525"><time>2022-01-15T11:48:00.000Z</time></trkpt><trkpt lat="39.83066" lon="-8.43519"><ele>215</ele><time>2022-01-15T11:48:05.000Z</time></trkpt><trkpt lat="39.83096" lon="-8.43511"><ele>215</ele><time>2022-01-15T11:48:20.000Z</time></trkpt><trkpt lat="39.83124" lon="-8.435"><ele>216</ele><time>2022-01-15T11:48:33.000Z</time></trkpt><trkpt lat="39.83151" lon="-8.43491"><ele>216</ele><time>2022-01-15T11:48:43.000Z</time></trkpt><trkpt lat="39.83182" lon="-8.4348"><ele>221</ele><time>2022-01-15T11:49:01.000Z</time></trkpt><trkpt lat="39.83204" lon="-8.4347"><ele>222</ele><time>2022-01-15T11:49:11.000Z</time></trkpt><trkpt lat="39.8322" lon="-8.43457"><time>2022-01-15T11:49:21.000Z</time></trkpt><trkpt lat="39.83234" lon="-8.43441"><ele>223</ele><time>2022-01-15T11:49:27.000Z</time></trkpt><trkpt lat="39.83269" lon="-8.43407"><ele>224</ele><time>2022-01-15T11:49:45.000Z</time></trkpt><trkpt lat="39.83292" lon="-8.43378"><ele>226</ele><time>2022-01-15T11:50:01.000Z</time></trkpt><trkpt lat="39.83321" lon="-8.43345"><ele>227</ele><time>2022-01-15T11:50:11.000Z</time></trkpt><trkpt lat="39.83338" lon="-8.4333"><time>2022-01-15T11:50:21.000Z</time></trkpt><trkpt lat="39.83342" lon="-8.43329"><ele>226</ele><time>2022-01-15T11:50:31.000Z</time></trkpt><trkpt lat="39.83361" lon="-8.43328"><time>2022-01-15T11:50:41.000Z</time></trkpt><trkpt lat="39.83393" lon="-8.4333"><ele>226</ele><time>2022-01-15T11:50:51.000Z</time></trkpt><trkpt lat="39.83395" lon="-8.43332"><time>2022-01-15T11:51:01.000Z</time></trkpt><trkpt lat="39.83404" lon="-8.43334"><time>2022-01-15T11:51:11.000Z</time></trkpt><trkpt lat="39.83429" lon="-8.43335"><ele>232</ele><time>2022-01-15T11:51:08.000Z</time></trkpt><trkpt lat="39.83445" lon="-8.43337"><time>2022-01-15T11:51:18.000Z</time></trkpt><trkpt lat="39.83461" lon="-8.43341"><ele>231</ele><time>2022-01-15T11:51:22.000Z</time></trkpt><trkpt lat="39.83479" lon="-8.43343"><time>2022-01-15T11:51:32.000Z</time></trkpt><trkpt lat="39.8349" lon="-8.43345"><ele>231</ele><time>2022-01-15T11:51:35.000Z</time></trkpt><trkpt lat="39.83499" lon="-8.43347"><time>2022-01-15T11:51:45.000Z</time></trkpt><trkpt lat="39.83514" lon="-8.43355"><ele>231</ele><time>2022-01-15T11:51:46.000Z</time></trkpt><trkpt lat="39.83522" lon="-8.43363"><time>2022-01-15T11:51:56.000Z</time></trkpt><trkpt lat="39.83535" lon="-8.43373"><ele>231</ele><time>2022-01-15T11:51:57.000Z</time></trkpt><trkpt lat="39.83566" lon="-8.43401"><ele>231</ele><time>2022-01-15T11:52:12.000Z</time></trkpt><trkpt lat="39.83576" lon="-8.4341"><time>2022-01-15T11:52:22.000Z</time></trkpt><trkpt lat="39.83591" lon="-8.43421"><ele>232</ele><time>2022-01-15T11:52:25.000Z</time></trkpt><trkpt lat="39.8361" lon="-8.43441"><ele>232</ele><time>2022-01-15T11:52:35.000Z</time></trkpt><trkpt lat="39.83624" lon="-8.43451"><time>2022-01-15T11:52:45.000Z</time></trkpt><trkpt lat="39.83627" lon="-8.4345"><time>2022-01-15T11:52:55.000Z</time></trkpt><trkpt lat="39.83628" lon="-8.4345"><time>2022-01-15T11:53:05.000Z</time></trkpt><trkpt lat="39.83632" lon="-8.43451"><ele>241</ele><time>2022-01-15T11:53:15.000Z</time></trkpt><trkpt lat="39.83633" lon="-8.43453"><time>2022-01-15T11:53:25.000Z</time></trkpt><trkpt lat="39.8364" lon="-8.43454"><time>2022-01-15T11:53:35.000Z</time></trkpt><trkpt lat="39.8364" lon="-8.43458"><time>2022-01-15T11:53:45.000Z</time></trkpt><trkpt lat="39.8364" lon="-8.43461"><time>2022-01-15T11:53:55.000Z</time></trkpt><trkpt lat="39.83643" lon="-8.4347"><ele>241</ele><time>2022-01-15T11:54:05.000Z</time></trkpt><trkpt lat="39.83644" lon="-8.43472"><time>2022-01-15T11:54:15.000Z</time></trkpt><trkpt lat="39.83658" lon="-8.43482"><time>2022-01-15T11:54:25.000Z</time></trkpt><trkpt lat="39.8366" lon="-8.43486"><ele>243</ele><time>2022-01-15T11:54:35.000Z</time></trkpt><trkpt lat="39.83664" lon="-8.43488"><time>2022-01-15T11:54:45.000Z</time></trkpt><trkpt lat="39.83664" lon="-8.43489"><time>2022-01-15T11:54:55.000Z</time></trkpt><trkpt lat="39.83668" lon="-8.43493"><time>2022-01-15T11:55:05.000Z</time></trkpt><trkpt lat="39.83675" lon="-8.43496"><time>2022-01-15T11:55:15.000Z</time></trkpt><trkpt lat="39.83679" lon="-8.43502"><ele>243</ele><time>2022-01-15T11:55:25.000Z</time></trkpt><trkpt lat="39.83693" lon="-8.43517"><time>2022-01-15T11:55:35.000Z</time></trkpt><trkpt lat="39.83711" lon="-8.43534"><ele>245</ele><time>2022-01-15T11:55:45.000Z</time></trkpt><trkpt lat="39.8372" lon="-8.43541"><time>2022-01-15T11:55:55.000Z</time></trkpt><trkpt lat="39.83744" lon="-8.43552"><ele>245</ele><time>2022-01-15T11:54:36.000Z</time></trkpt><trkpt lat="39.83752" lon="-8.43554"><time>2022-01-15T11:54:46.000Z</time></trkpt><trkpt lat="39.83756" lon="-8.43557"><time>2022-01-15T11:54:56.000Z</time></trkpt><trkpt lat="39.83763" lon="-8.43566"><ele>245</ele><time>2022-01-15T11:54:47.000Z</time></trkpt><trkpt lat="39.83792" lon="-8.43582"><ele>250</ele><time>2022-01-15T11:54:57.000Z</time></trkpt><trkpt lat="39.838" lon="-8.43588"><time>2022-01-15T11:55:07.000Z</time></trkpt><trkpt lat="39.83812" lon="-8.43589"><ele>250</ele><time>2022-01-15T11:55:17.000Z</time></trkpt><trkpt lat="39.83822" lon="-8.43581"><time>2022-01-15T11:55:27.000Z</time></trkpt><trkpt lat="39.83827" lon="-8.4358"><time>2022-01-15T11:55:37.000Z</time></trkpt><trkpt lat="39.83834" lon="-8.43576"><ele>250</ele><time>2022-01-15T11:55:47.000Z</time></trkpt><trkpt lat="39.83845" lon="-8.43569"><time>2022-01-15T11:55:57.000Z</time></trkpt><trkpt lat="39.83851" lon="-8.43566"><time>2022-01-15T11:56:07.000Z</time></trkpt><trkpt lat="39.83868" lon="-8.43562"><ele>252</ele><time>2022-01-15T11:56:17.000Z</time></trkpt><trkpt lat="39.83877" lon="-8.43562"><time>2022-01-15T11:56:27.000Z</time></trkpt><trkpt lat="39.83886" lon="-8.43561"><time>2022-01-15T11:56:37.000Z</time></trkpt><trkpt lat="39.83893" lon="-8.43559"><ele>254</ele><time>2022-01-15T11:56:47.000Z</time></trkpt><trkpt lat="39.83906" lon="-8.4355"><time>2022-01-15T11:56:57.000Z</time></trkpt><trkpt lat="39.83918" lon="-8.43538"><ele>261</ele><time>2022-01-15T11:57:07.000Z</time></trkpt><trkpt lat="39.8393" lon="-8.4353"><time>2022-01-15T11:57:17.000Z</time></trkpt><trkpt lat="39.8395" lon="-8.43515"><ele>261</ele><time>2022-01-15T11:57:27.000Z</time></trkpt><trkpt lat="39.83954" lon="-8.43513"><time>2022-01-15T11:57:37.000Z</time></trkpt><trkpt lat="39.83964" lon="-8.4351"><time>2022-01-15T11:57:47.000Z</time></trkpt><trkpt lat="39.83966" lon="-8.43509"><time>2022-01-15T11:57:57.000Z</time></trkpt><trkpt lat="39.83968" lon="-8.43509"><time>2022-01-15T11:58:07.000Z</time></trkpt><trkpt lat="39.8397" lon="-8.43509"><ele>260</ele><time>2022-01-15T11:58:17.000Z</time></trkpt><trkpt lat="39.83969" lon="-8.43509"><time>2022-01-15T11:58:27.000Z</time></trkpt><trkpt lat="39.83973" lon="-8.43511"><time>2022-01-15T11:58:37.000Z</time></trkpt><trkpt lat="39.83984" lon="-8.43513"><time>2022-01-15T11:58:47.000Z</time></trkpt><trkpt lat="39.83995" lon="-8.43514"><ele>260</ele><time>2022-01-15T11:58:11.000Z</time></trkpt><trkpt lat="39.84006" lon="-8.43514"><time>2022-01-15T11:58:21.000Z</time></trkpt><trkpt lat="39.84014" lon="-8.43516"><time>2022-01-15T11:58:31.000Z</time></trkpt><trkpt lat="39.84024" lon="-8.43516"><ele>262</ele><time>2022-01-15T11:58:34.000Z</time></trkpt><trkpt lat="39.84035" lon="-8.43514"><time>2022-01-15T11:58:44.000Z</time></trkpt><trkpt lat="39.84043" lon="-8.43512"><time>2022-01-15T11:58:54.000Z</time></trkpt><trkpt lat="39.84049" lon="-8.43511"><ele>262</ele><time>2022-01-15T11:58:56.000Z</time></trkpt><trkpt lat="39.84055" lon="-8.43509"><time>2022-01-15T11:59:06.000Z</time></trkpt><trkpt lat="39.84059" lon="-8.43508"><time>2022-01-15T11:59:16.000Z</time></trkpt><trkpt lat="39.84062" lon="-8.43505"><time>2022-01-15T11:59:26.000Z</time></trkpt><trkpt lat="39.84071" lon="-8.43501"><ele>265</ele><time>2022-01-15T11:59:14.000Z</time></trkpt><trkpt lat="39.84082" lon="-8.435"><time>2022-01-15T11:59:24.000Z</time></trkpt><trkpt lat="39.84099" lon="-8.435"><ele>265</ele><time>2022-01-15T11:59:33.000Z</time></trkpt><trkpt lat="39.84116" lon="-8.43499"><time>2022-01-15T11:59:43.000Z</time></trkpt><trkpt lat="39.84124" lon="-8.435"><ele>262</ele><time>2022-01-15T11:59:52.000Z</time></trkpt><trkpt lat="39.84136" lon="-8.435"><time>2022-01-15T12:00:02.000Z</time></trkpt><trkpt lat="39.8414" lon="-8.43501"><time>2022-01-15T12:00:12.000Z</time></trkpt><trkpt lat="39.84147" lon="-8.43503"><ele>262</ele><time>2022-01-15T12:00:15.000Z</time></trkpt><trkpt lat="39.84157" lon="-8.43512"><time>2022-01-15T12:00:25.000Z</time></trkpt><trkpt lat="39.84164" lon="-8.43525"><ele>261</ele><time>2022-01-15T12:00:34.000Z</time></trkpt><trkpt lat="39.84168" lon="-8.43536"><time>2022-01-15T12:00:44.000Z</time></trkpt><trkpt lat="39.8417" lon="-8.43554"><ele>261</ele><time>2022-01-15T12:00:51.000Z</time></trkpt><trkpt lat="39.8417" lon="-8.43566"><time>2022-01-15T12:01:01.000Z</time></trkpt><trkpt lat="39.84175" lon="-8.4359"><ele>261</ele><time>2022-01-15T12:01:12.000Z</time></trkpt><trkpt lat="39.84178" lon="-8.43591"><time>2022-01-15T12:01:22.000Z</time></trkpt><trkpt lat="39.84184" lon="-8.43588"><time>2022-01-15T12:01:32.000Z</time></trkpt><trkpt lat="39.84197" lon="-8.43586"><ele>261</ele><time>2022-01-15T12:01:27.000Z</time></trkpt><trkpt lat="39.84213" lon="-8.43585"><time>2022-01-15T12:01:37.000Z</time></trkpt><trkpt lat="39.84232" lon="-8.4358"><ele>262</ele><time>2022-01-15T12:01:48.000Z</time></trkpt><trkpt lat="39.84245" lon="-8.43578"><time>2022-01-15T12:01:58.000Z</time></trkpt><trkpt lat="39.84254" lon="-8.43583"><ele>261</ele><time>2022-01-15T12:02:08.000Z</time></trkpt><trkpt lat="39.84255" lon="-8.43585"><time>2022-01-15T12:02:18.000Z</time></trkpt><trkpt lat="39.84258" lon="-8.43591"><time>2022-01-15T12:02:28.000Z</time></trkpt><trkpt lat="39.84258" lon="-8.43601"><time>2022-01-15T12:02:38.000Z</time></trkpt><trkpt lat="39.84259" lon="-8.43605"><time>2022-01-15T12:02:48.000Z</time></trkpt><trkpt lat="39.84262" lon="-8.43612"><ele>261</ele><time>2022-01-15T12:02:15.000Z</time></trkpt><trkpt lat="39.84279" lon="-8.43619"><time>2022-01-15T12:02:25.000Z</time></trkpt><trkpt lat="39.84282" lon="-8.43634"><ele>261</ele><time>2022-01-15T12:02:28.000Z</time></trkpt><trkpt lat="39.84282" lon="-8.43667"><ele>258</ele><time>2022-01-15T12:02:38.000Z</time></trkpt><trkpt lat="39.84284" lon="-8.43687"><time>2022-01-15T12:02:48.000Z</time></trkpt><trkpt lat="39.84283" lon="-8.43693"><time>2022-01-15T12:02:58.000Z</time></trkpt><trkpt lat="39.84285" lon="-8.43704"><ele>258</ele><time>2022-01-15T12:03:08.000Z</time></trkpt><trkpt lat="39.84285" lon="-8.43719"><time>2022-01-15T12:03:18.000Z</time></trkpt><trkpt lat="39.84282" lon="-8.43746"><ele>259</ele><time>2022-01-15T12:03:02.000Z</time></trkpt><trkpt lat="39.84275" lon="-8.43772"><ele>256</ele><time>2022-01-15T12:03:12.000Z</time></trkpt><trkpt lat="39.8427" lon="-8.43798"><time>2022-01-15T12:03:22.000Z</time></trkpt><trkpt lat="39.8426" lon="-8.43838"><ele>253</ele><time>2022-01-15T12:03:32.000Z</time></trkpt><trkpt lat="39.84254" lon="-8.43863"><time>2022-01-15T12:03:42.000Z</time></trkpt><trkpt lat="39.84251" lon="-8.43885"><ele>248</ele><time>2022-01-15T12:03:52.000Z</time></trkpt><trkpt lat="39.84251" lon="-8.43896"><time>2022-01-15T12:04:02.000Z</time></trkpt><trkpt lat="39.84254" lon="-8.43918"><ele>246</ele><time>2022-01-15T12:04:12.000Z</time></trkpt><trkpt lat="39.84254" lon="-8.4393"><time>2022-01-15T12:04:22.000Z</time></trkpt><trkpt lat="39.84255" lon="-8.43946"><ele>244</ele><time>2022-01-15T12:04:32.000Z</time></trkpt><trkpt lat="39.84254" lon="-8.43958"><time>2022-01-15T12:04:42.000Z</time></trkpt><trkpt lat="39.84254" lon="-8.43966"><time>2022-01-15T12:04:52.000Z</time></trkpt><trkpt lat="39.84252" lon="-8.43982"><ele>241</ele><time>2022-01-15T12:05:02.000Z</time></trkpt><trkpt lat="39.84252" lon="-8.43993"><time>2022-01-15T12:05:12.000Z</time></trkpt><trkpt lat="39.84253" lon="-8.4401"><ele>239</ele><time>2022-01-15T12:05:22.000Z</time></trkpt><trkpt lat="39.84257" lon="-8.44031"><time>2022-01-15T12:05:32.000Z</time></trkpt><trkpt lat="39.84258" lon="-8.44045"><ele>238</ele><time>2022-01-15T12:05:42.000Z</time></trkpt><trkpt lat="39.8426" lon="-8.44069"><time>2022-01-15T12:05:52.000Z</time></trkpt><trkpt lat="39.84252" lon="-8.44098"><ele>237</ele><time>2022-01-15T12:06:02.000Z</time></trkpt><trkpt lat="39.8425" lon="-8.44111"><time>2022-01-15T12:06:12.000Z</time></trkpt><trkpt lat="39.84248" lon="-8.4412"><time>2022-01-15T12:06:22.000Z</time></trkpt><trkpt lat="39.84246" lon="-8.44127"><ele>233</ele><time>2022-01-15T12:06:32.000Z</time></trkpt><trkpt lat="39.84244" lon="-8.44144"><time>2022-01-15T12:06:42.000Z</time></trkpt><trkpt lat="39.84244" lon="-8.44158"><ele>231</ele><time>2022-01-15T12:06:52.000Z</time></trkpt><trkpt lat="39.84246" lon="-8.44176"><time>2022-01-15T12:07:02.000Z</time></trkpt><trkpt lat="39.84253" lon="-8.44201"><ele>231</ele><time>2022-01-15T12:07:12.000Z</time></trkpt><trkpt lat="39.84254" lon="-8.44203"><time>2022-01-15T12:07:22.000Z</time></trkpt><trkpt lat="39.84255" lon="-8.44207"><time>2022-01-15T12:07:32.000Z</time></trkpt><trkpt lat="39.84256" lon="-8.44216"><time>2022-01-15T12:07:42.000Z</time></trkpt><trkpt lat="39.84259" lon="-8.4423"><ele>231</ele><time>2022-01-15T12:07:52.000Z</time></trkpt><trkpt lat="39.84264" lon="-8.44233"><time>2022-01-15T12:08:02.000Z</time></trkpt><trkpt lat="39.84277" lon="-8.44233"><time>2022-01-15T12:08:12.000Z</time></trkpt><trkpt lat="39.84281" lon="-8.44232"><ele>231</ele><time>2022-01-15T12:08:22.000Z</time></trkpt><trkpt lat="39.84292" lon="-8.44226"><time>2022-01-15T12:08:32.000Z</time></trkpt><trkpt lat="39.8431" lon="-8.44218"><ele>224</ele><time>2022-01-15T12:08:42.000Z</time></trkpt><trkpt lat="39.84315" lon="-8.44217"><time>2022-01-15T12:08:52.000Z</time></trkpt><trkpt lat="39.84329" lon="-8.44217"><time>2022-01-15T12:09:02.000Z</time></trkpt><trkpt lat="39.8435" lon="-8.44214"><ele>224</ele><time>2022-01-15T12:09:12.000Z</time></trkpt><trkpt lat="39.84367" lon="-8.44213"><time>2022-01-15T12:09:22.000Z</time></trkpt><trkpt lat="39.84397" lon="-8.4421"><ele>215</ele><time>2022-01-15T12:09:32.000Z</time></trkpt><trkpt lat="39.84405" lon="-8.44209"><time>2022-01-15T12:09:42.000Z</time></trkpt><trkpt lat="39.84413" lon="-8.44206"><time>2022-01-15T12:09:52.000Z</time></trkpt><trkpt lat="39.8442" lon="-8.44201"><ele>212</ele><time>2022-01-15T12:10:02.000Z</time></trkpt><trkpt lat="39.84431" lon="-8.44196"><time>2022-01-15T12:10:12.000Z</time></trkpt><trkpt lat="39.84439" lon="-8.44193"><time>2022-01-15T12:10:22.000Z</time></trkpt><trkpt lat="39.84444" lon="-8.44193"><ele>211</ele><time>2022-01-15T12:10:32.000Z</time></trkpt><trkpt lat="39.84454" lon="-8.44193"><time>2022-01-15T12:10:42.000Z</time></trkpt><trkpt lat="39.84462" lon="-8.44196"><time>2022-01-15T12:10:52.000Z</time></trkpt><trkpt lat="39.8447" lon="-8.44196"><ele>213</ele><time>2022-01-15T12:11:02.000Z</time></trkpt><trkpt lat="39.84475" lon="-8.44199"><time>2022-01-15T12:11:12.000Z</time></trkpt><trkpt lat="39.84484" lon="-8.44205"><time>2022-01-15T12:11:22.000Z</time></trkpt><trkpt lat="39.845" lon="-8.44214"><ele>215</ele><time>2022-01-15T12:07:09.000Z</time></trkpt><trkpt lat="39.84511" lon="-8.4423"><time>2022-01-15T12:07:19.000Z</time></trkpt><trkpt lat="39.84518" lon="-8.44245"><ele>213</ele><time>2022-01-15T12:07:20.000Z</time></trkpt><trkpt lat="39.84529" lon="-8.44263"><time>2022-01-15T12:07:30.000Z</time></trkpt><trkpt lat="39.84534" lon="-8.44272"><ele>212</ele><time>2022-01-15T12:07:30.000Z</time></trkpt><trkpt lat="39.84549" lon="-8.44291"><ele>207</ele><time>2022-01-15T12:07:40.000Z</time></trkpt><trkpt lat="39.84552" lon="-8.44298"><time>2022-01-15T12:07:50.000Z</time></trkpt><trkpt lat="39.84564" lon="-8.44322"><ele>204</ele><time>2022-01-15T12:08:00.000Z</time></trkpt><trkpt lat="39.84571" lon="-8.44332"><time>2022-01-15T12:08:10.000Z</time></trkpt><trkpt lat="39.84589" lon="-8.44353"><ele>198</ele><time>2022-01-15T12:08:20.000Z</time></trkpt><trkpt lat="39.846" lon="-8.44358"><time>2022-01-15T12:08:30.000Z</time></trkpt><trkpt lat="39.84603" lon="-8.4436"><time>2022-01-15T12:08:40.000Z</time></trkpt><trkpt lat="39.8463" lon="-8.444"><ele>197</ele><time>2022-01-15T12:08:50.000Z</time></trkpt><trkpt lat="39.8463" lon="-8.44405"><time>2022-01-15T12:09:00.000Z</time></trkpt><trkpt lat="39.84631" lon="-8.44411"><time>2022-01-15T12:09:10.000Z</time></trkpt><trkpt lat="39.84635" lon="-8.44415"><time>2022-01-15T12:09:20.000Z</time></trkpt><trkpt lat="39.84638" lon="-8.44425"><ele>193</ele><time>2022-01-15T12:09:30.000Z</time></trkpt><trkpt lat="39.84638" lon="-8.44433"><time>2022-01-15T12:09:40.000Z</time></trkpt><trkpt lat="39.84654" lon="-8.44459"><ele>188</ele><time>2022-01-15T12:08:39.000Z</time></trkpt><trkpt lat="39.84661" lon="-8.44481"><time>2022-01-15T12:08:49.000Z</time></trkpt><trkpt lat="39.84661" lon="-8.4449"><ele>187</ele><time>2022-01-15T12:08:59.000Z</time></trkpt><trkpt lat="39.8466" lon="-8.44496"><time>2022-01-15T12:09:09.000Z</time></trkpt><trkpt lat="39.84659" lon="-8.44502"><time>2022-01-15T12:09:19.000Z</time></trkpt><trkpt lat="39.84655" lon="-8.44519"><ele>186</ele><time>2022-01-15T12:09:29.000Z</time></trkpt><trkpt lat="39.84648" lon="-8.44522"><time>2022-01-15T12:09:39.000Z</time></trkpt><trkpt lat="39.84644" lon="-8.44526"><time>2022-01-15T12:09:49.000Z</time></trkpt><trkpt lat="39.84649" lon="-8.44526"><time>2022-01-15T12:09:59.000Z</time></trkpt><trkpt lat="39.84653" lon="-8.4453"><ele>186</ele><time>2022-01-15T12:10:09.000Z</time></trkpt><trkpt lat="39.84657" lon="-8.44547"><time>2022-01-15T12:10:19.000Z</time></trkpt><trkpt lat="39.84657" lon="-8.4455"><time>2022-01-15T12:10:29.000Z</time></trkpt><trkpt lat="39.84657" lon="-8.44571"><ele>183</ele><time>2022-01-15T12:10:39.000Z</time></trkpt><trkpt lat="39.84656" lon="-8.44585"><time>2022-01-15T12:10:49.000Z</time></trkpt><trkpt lat="39.84654" lon="-8.44591"><time>2022-01-15T12:10:59.000Z</time></trkpt><trkpt lat="39.84652" lon="-8.44604"><ele>183</ele><time>2022-01-15T12:11:09.000Z</time></trkpt><trkpt lat="39.84654" lon="-8.4462"><time>2022-01-15T12:11:19.000Z</time></trkpt><trkpt lat="39.84658" lon="-8.44629"><time>2022-01-15T12:11:29.000Z</time></trkpt><trkpt lat="39.84667" lon="-8.44644"><ele>181</ele><time>2022-01-15T12:11:39.000Z</time></trkpt><trkpt lat="39.84668" lon="-8.44646"><time>2022-01-15T12:11:49.000Z</time></trkpt><trkpt lat="39.84664" lon="-8.44654"><time>2022-01-15T12:11:59.000Z</time></trkpt><trkpt lat="39.84651" lon="-8.44669"><ele>184</ele><time>2022-01-15T12:10:25.000Z</time></trkpt><trkpt lat="39.84646" lon="-8.44678"><time>2022-01-15T12:10:35.000Z</time></trkpt><trkpt lat="39.84642" lon="-8.44682"><time>2022-01-15T12:10:45.000Z</time></trkpt><trkpt lat="39.84634" lon="-8.44688"><ele>182</ele><time>2022-01-15T12:10:35.000Z</time></trkpt><trkpt lat="39.84613" lon="-8.447"><ele>183</ele><time>2022-01-15T12:10:45.000Z</time></trkpt><trkpt lat="39.84603" lon="-8.44708"><time>2022-01-15T12:10:55.000Z</time></trkpt><trkpt lat="39.84587" lon="-8.4474"><ele>182</ele><time>2022-01-15T12:11:01.000Z</time></trkpt><trkpt lat="39.84564" lon="-8.44789"><ele>183</ele><time>2022-01-15T12:11:11.000Z</time></trkpt><trkpt lat="39.8456" lon="-8.44805"><time>2022-01-15T12:11:21.000Z</time></trkpt><trkpt lat="39.84549" lon="-8.44838"><ele>182</ele><time>2022-01-15T12:11:38.000Z</time></trkpt><trkpt lat="39.84548" lon="-8.44845"><time>2022-01-15T12:11:48.000Z</time></trkpt><trkpt lat="39.84544" lon="-8.44851"><time>2022-01-15T12:11:58.000Z</time></trkpt><trkpt lat="39.84545" lon="-8.44853"><time>2022-01-15T12:12:08.000Z</time></trkpt><trkpt lat="39.84541" lon="-8.44865"><ele>182</ele><time>2022-01-15T12:11:57.000Z</time></trkpt><trkpt lat="39.84532" lon="-8.44884"><time>2022-01-15T12:12:07.000Z</time></trkpt><trkpt lat="39.84527" lon="-8.44892"><ele>182</ele><time>2022-01-15T12:12:07.000Z</time></trkpt><trkpt lat="39.84512" lon="-8.44911"><ele>183</ele><time>2022-01-15T12:12:16.000Z</time></trkpt><trkpt lat="39.84499" lon="-8.44933"><ele>183</ele><time>2022-01-15T12:12:25.000Z</time></trkpt><trkpt lat="39.84499" lon="-8.44947"><time>2022-01-15T12:12:35.000Z</time></trkpt><trkpt lat="39.84503" lon="-8.44954"><time>2022-01-15T12:12:45.000Z</time></trkpt><trkpt lat="39.84505" lon="-8.44959"><ele>184</ele><time>2022-01-15T12:12:55.000Z</time></trkpt><trkpt lat="39.84513" lon="-8.44964"><time>2022-01-15T12:13:05.000Z</time></trkpt><trkpt lat="39.84519" lon="-8.4497"><time>2022-01-15T12:13:15.000Z</time></trkpt><trkpt lat="39.8453" lon="-8.44973"><ele>186</ele><time>2022-01-15T12:13:25.000Z</time></trkpt><trkpt lat="39.84535" lon="-8.44972"><time>2022-01-15T12:13:35.000Z</time></trkpt><trkpt lat="39.84542" lon="-8.44975"><time>2022-01-15T12:13:45.000Z</time></trkpt><trkpt lat="39.84543" lon="-8.44976"><time>2022-01-15T12:13:55.000Z</time></trkpt><trkpt lat="39.84547" lon="-8.44977"><time>2022-01-15T12:14:05.000Z</time></trkpt><trkpt lat="39.84552" lon="-8.44976"><ele>190</ele><time>2022-01-15T12:14:15.000Z</time></trkpt><trkpt lat="39.84554" lon="-8.44975"><time>2022-01-15T12:14:25.000Z</time></trkpt><trkpt lat="39.84558" lon="-8.44974"><time>2022-01-15T12:14:35.000Z</time></trkpt><trkpt lat="39.84577" lon="-8.44962"><ele>193</ele><time>2022-01-15T12:14:45.000Z</time></trkpt><trkpt lat="39.84585" lon="-8.44959"><time>2022-01-15T12:14:55.000Z</time></trkpt><trkpt lat="39.84594" lon="-8.44954"><time>2022-01-15T12:15:05.000Z</time></trkpt><trkpt lat="39.84603" lon="-8.44943"><ele>195</ele><time>2022-01-15T12:15:15.000Z</time></trkpt><trkpt lat="39.8461" lon="-8.44933"><time>2022-01-15T12:15:25.000Z</time></trkpt><trkpt lat="39.84612" lon="-8.44924"><time>2022-01-15T12:15:35.000Z</time></trkpt><trkpt lat="39.84614" lon="-8.44921"><ele>195</ele><time>2022-01-15T12:15:45.000Z</time></trkpt><trkpt lat="39.84623" lon="-8.44904"><time>2022-01-15T12:15:55.000Z</time></trkpt><trkpt lat="39.84628" lon="-8.44893"><ele>196</ele><time>2022-01-15T12:16:05.000Z</time></trkpt><trkpt lat="39.84628" lon="-8.44891"><time>2022-01-15T12:16:15.000Z</time></trkpt><trkpt lat="39.84631" lon="-8.4489"><time>2022-01-15T12:16:25.000Z</time></trkpt><trkpt lat="39.84636" lon="-8.44884"><time>2022-01-15T12:16:35.000Z</time></trkpt><trkpt lat="39.84641" lon="-8.44883"><time>2022-01-15T12:16:45.000Z</time></trkpt><trkpt lat="39.84653" lon="-8.44882"><ele>203</ele><time>2022-01-15T12:16:55.000Z</time></trkpt><trkpt lat="39.84658" lon="-8.44884"><time>2022-01-15T12:17:05.000Z</time></trkpt><trkpt lat="39.84665" lon="-8.44889"><time>2022-01-15T12:17:15.000Z</time></trkpt><trkpt lat="39.84676" lon="-8.44898"><ele>210</ele><time>2022-01-15T12:36:59.000Z</time></trkpt><trkpt lat="39.84679" lon="-8.44904"><time>2022-01-15T12:37:09.000Z</time></trkpt><trkpt lat="39.84685" lon="-8.44909"><time>2022-01-15T12:37:19.000Z</time></trkpt><trkpt lat="39.84694" lon="-8.44916"><ele>211</ele><time>2022-01-15T12:37:17.000Z</time></trkpt><trkpt lat="39.84699" lon="-8.44919"><time>2022-01-15T12:37:27.000Z</time></trkpt><trkpt lat="39.84704" lon="-8.44923"><time>2022-01-15T12:37:37.000Z</time></trkpt><trkpt lat="39.84709" lon="-8.44933"><ele>213</ele><time>2022-01-15T12:37:47.000Z</time></trkpt><trkpt lat="39.84713" lon="-8.44934"><time>2022-01-15T12:37:57.000Z</time></trkpt><trkpt lat="39.84718" lon="-8.44938"><time>2022-01-15T12:38:07.000Z</time></trkpt><trkpt lat="39.84725" lon="-8.44949"><time>2022-01-15T12:38:17.000Z</time></trkpt><trkpt lat="39.8473" lon="-8.44952"><ele>214</ele><time>2022-01-15T12:38:01.000Z</time></trkpt><trkpt lat="39.84741" lon="-8.44989"><ele>215</ele><time>2022-01-15T12:38:11.000Z</time></trkpt><trkpt lat="39.84746" lon="-8.45003"><time>2022-01-15T12:38:21.000Z</time></trkpt><trkpt lat="39.84747" lon="-8.45007"><time>2022-01-15T12:38:31.000Z</time></trkpt><trkpt lat="39.84749" lon="-8.45016"><ele>215</ele><time>2022-01-15T12:38:41.000Z</time></trkpt><trkpt lat="39.84754" lon="-8.45027"><time>2022-01-15T12:38:51.000Z</time></trkpt><trkpt lat="39.8476" lon="-8.45037"><time>2022-01-15T12:39:01.000Z</time></trkpt><trkpt lat="39.84783" lon="-8.45065"><ele>215</ele><time>2022-01-15T12:39:29.000Z</time></trkpt><trkpt lat="39.84787" lon="-8.45072"><time>2022-01-15T12:39:39.000Z</time></trkpt><trkpt lat="39.84791" lon="-8.45088"><time>2022-01-15T12:39:49.000Z</time></trkpt><trkpt lat="39.84792" lon="-8.45097"><ele>215</ele><time>2022-01-15T12:39:48.000Z</time></trkpt><trkpt lat="39.84796" lon="-8.45118"><time>2022-01-15T12:39:58.000Z</time></trkpt><trkpt lat="39.84797" lon="-8.45124"><ele>215</ele><time>2022-01-15T12:40:08.000Z</time></trkpt><trkpt lat="39.84795" lon="-8.4514"><time>2022-01-15T12:40:18.000Z</time></trkpt><trkpt lat="39.84791" lon="-8.45159"><ele>216</ele><time>2022-01-15T12:40:28.000Z</time></trkpt><trkpt lat="39.84792" lon="-8.45165"><time>2022-01-15T12:40:38.000Z</time></trkpt><trkpt lat="39.84793" lon="-8.45171"><time>2022-01-15T12:40:48.000Z</time></trkpt><trkpt lat="39.84797" lon="-8.45179"><time>2022-01-15T12:40:58.000Z</time></trkpt><trkpt lat="39.84802" lon="-8.45188"><ele>218</ele><time>2022-01-15T12:41:08.000Z</time></trkpt><trkpt lat="39.84804" lon="-8.45205"><time>2022-01-15T12:41:18.000Z</time></trkpt><trkpt lat="39.84803" lon="-8.4522"><ele>219</ele><time>2022-01-15T12:41:28.000Z</time></trkpt><trkpt lat="39.84804" lon="-8.45238"><time>2022-01-15T12:41:38.000Z</time></trkpt><trkpt lat="39.84807" lon="-8.45254"><ele>220</ele><time>2022-01-15T12:41:48.000Z</time></trkpt><trkpt lat="39.84807" lon="-8.4526"><time>2022-01-15T12:41:58.000Z</time></trkpt><trkpt lat="39.84807" lon="-8.45277"><time>2022-01-15T12:42:08.000Z</time></trkpt><trkpt lat="39.84806" lon="-8.45291"><ele>224</ele><time>2022-01-15T12:42:18.000Z</time></trkpt><trkpt lat="39.84806" lon="-8.45312"><time>2022-01-15T12:42:28.000Z</time></trkpt><trkpt lat="39.84809" lon="-8.45336"><ele>224</ele><time>2022-01-15T12:42:38.000Z</time></trkpt><trkpt lat="39.84812" lon="-8.45352"><time>2022-01-15T12:42:48.000Z</time></trkpt><trkpt lat="39.84814" lon="-8.45356"><time>2022-01-15T12:42:58.000Z</time></trkpt><trkpt lat="39.84826" lon="-8.4538"><ele>227</ele><time>2022-01-15T12:43:08.000Z</time></trkpt><trkpt lat="39.84832" lon="-8.45389"><time>2022-01-15T12:43:18.000Z</time></trkpt><trkpt lat="39.84864" lon="-8.45418"><ele>227</ele><time>2022-01-15T12:42:49.000Z</time></trkpt><trkpt lat="39.84883" lon="-8.45446"><ele>226</ele><time>2022-01-15T12:42:59.000Z</time></trkpt><trkpt lat="39.84886" lon="-8.45455"><time>2022-01-15T12:43:09.000Z</time></trkpt><trkpt lat="39.84893" lon="-8.45469"><time>2022-01-15T12:43:19.000Z</time></trkpt><trkpt lat="39.84902" lon="-8.45483"><ele>226</ele><time>2022-01-15T12:43:29.000Z</time></trkpt><trkpt lat="39.84915" lon="-8.45501"><time>2022-01-15T12:43:39.000Z</time></trkpt><trkpt lat="39.8493" lon="-8.45517"><ele>225</ele><time>2022-01-15T12:43:49.000Z</time></trkpt><trkpt lat="39.84937" lon="-8.45522"><time>2022-01-15T12:43:59.000Z</time></trkpt><trkpt lat="39.84954" lon="-8.45538"><ele>225</ele><time>2022-01-15T12:44:09.000Z</time></trkpt><trkpt lat="39.84966" lon="-8.45552"><time>2022-01-15T12:44:19.000Z</time></trkpt><trkpt lat="39.8498" lon="-8.45575"><ele>223</ele><time>2022-01-15T12:44:29.000Z</time></trkpt><trkpt lat="39.84991" lon="-8.45597"><time>2022-01-15T12:44:39.000Z</time></trkpt><trkpt lat="39.85002" lon="-8.45616"><ele>222</ele><time>2022-01-15T12:44:49.000Z</time></trkpt><trkpt lat="39.85015" lon="-8.45631"><time>2022-01-15T12:44:59.000Z</time></trkpt><trkpt lat="39.8503" lon="-8.45663"><ele>216</ele><time>2022-01-15T12:44:35.000Z</time></trkpt><trkpt lat="39.85035" lon="-8.45675"><time>2022-01-15T12:44:45.000Z</time></trkpt><trkpt lat="39.85034" lon="-8.45697"><ele>215</ele><time>2022-01-15T12:44:46.000Z</time></trkpt><trkpt lat="39.85023" lon="-8.45727"><ele>215</ele><time>2022-01-15T12:44:55.000Z</time></trkpt><trkpt lat="39.85019" lon="-8.45748"><time>2022-01-15T12:45:05.000Z</time></trkpt><trkpt lat="39.85017" lon="-8.45762"><ele>214</ele><time>2022-01-15T12:45:05.000Z</time></trkpt><trkpt lat="39.85017" lon="-8.45766"><time>2022-01-15T12:45:15.000Z</time></trkpt><trkpt lat="39.85019" lon="-8.45783"><time>2022-01-15T12:45:25.000Z</time></trkpt><trkpt lat="39.8502" lon="-8.45789"><ele>214</ele><time>2022-01-15T12:45:13.000Z</time></trkpt><trkpt lat="39.85027" lon="-8.45822"><ele>213</ele><time>2022-01-15T12:45:23.000Z</time></trkpt><trkpt lat="39.85034" lon="-8.45856"><ele>210</ele><time>2022-01-15T12:45:33.000Z</time></trkpt><trkpt lat="39.85036" lon="-8.45881"><time>2022-01-15T12:45:43.000Z</time></trkpt><trkpt lat="39.85041" lon="-8.45904"><ele>210</ele><time>2022-01-15T12:45:53.000Z</time></trkpt><trkpt lat="39.85043" lon="-8.4592"><time>2022-01-15T12:46:03.000Z</time></trkpt><trkpt lat="39.85049" lon="-8.45946"><ele>210</ele><time>2022-01-15T12:45:59.000Z</time></trkpt><trkpt lat="39.8506" lon="-8.45959"><time>2022-01-15T12:46:09.000Z</time></trkpt><trkpt lat="39.85068" lon="-8.45968"><ele>210</ele><time>2022-01-15T12:46:09.000Z</time></trkpt><trkpt lat="39.85081" lon="-8.45986"><time>2022-01-15T12:46:19.000Z</time></trkpt><trkpt lat="39.85085" lon="-8.45996"><ele>214</ele><time>2022-01-15T12:46:22.000Z</time></trkpt><trkpt lat="39.85093" lon="-8.46025"><ele>211</ele><time>2022-01-15T12:46:32.000Z</time></trkpt><trkpt lat="39.85109" lon="-8.46063"><ele>211</ele><time>2022-01-15T12:46:42.000Z</time></trkpt><trkpt lat="39.85119" lon="-8.46081"><time>2022-01-15T12:46:52.000Z</time></trkpt><trkpt lat="39.85123" lon="-8.46097"><ele>208</ele><time>2022-01-15T12:47:02.000Z</time></trkpt><trkpt lat="39.85125" lon="-8.46109"><time>2022-01-15T12:47:12.000Z</time></trkpt><trkpt lat="39.85143" lon="-8.46143"><ele>206</ele><time>2022-01-15T12:47:22.000Z</time></trkpt><trkpt lat="39.85144" lon="-8.46146"><time>2022-01-15T12:47:32.000Z</time></trkpt><trkpt lat="39.85148" lon="-8.46166"><time>2022-01-15T12:47:42.000Z</time></trkpt><trkpt lat="39.85158" lon="-8.46189"><ele>199</ele><time>2022-01-15T12:47:52.000Z</time></trkpt><trkpt lat="39.85162" lon="-8.462"><time>2022-01-15T12:48:02.000Z</time></trkpt><trkpt lat="39.8517" lon="-8.46215"><ele>196</ele><time>2022-01-15T12:48:12.000Z</time></trkpt><trkpt lat="39.8518" lon="-8.46225"><time>2022-01-15T12:48:22.000Z</time></trkpt><trkpt lat="39.85187" lon="-8.46228"><time>2022-01-15T12:48:32.000Z</time></trkpt><trkpt lat="39.8519" lon="-8.46232"><ele>195</ele><time>2022-01-15T12:48:42.000Z</time></trkpt><trkpt lat="39.85201" lon="-8.46238"><time>2022-01-15T12:48:52.000Z</time></trkpt><trkpt lat="39.85218" lon="-8.46244"><ele>190</ele><time>2022-01-15T12:49:02.000Z</time></trkpt><trkpt lat="39.85223" lon="-8.46244"><time>2022-01-15T12:49:12.000Z</time></trkpt><trkpt lat="39.85229" lon="-8.46243"><time>2022-01-15T12:49:22.000Z</time></trkpt><trkpt lat="39.8525" lon="-8.46232"><ele>178</ele><time>2022-01-15T12:49:32.000Z</time></trkpt><trkpt lat="39.85258" lon="-8.46229"><time>2022-01-15T12:49:42.000Z</time></trkpt><trkpt lat="39.85265" lon="-8.4623"><time>2022-01-15T12:49:52.000Z</time></trkpt><trkpt lat="39.85268" lon="-8.46232"><time>2022-01-15T12:50:02.000Z</time></trkpt><trkpt lat="39.85272" lon="-8.46235"><ele>173</ele><time>2022-01-15T12:50:12.000Z</time></trkpt><trkpt lat="39.8528" lon="-8.46246"><time>2022-01-15T12:50:22.000Z</time></trkpt><trkpt lat="39.85286" lon="-8.46257"><ele>173</ele><time>2022-01-15T12:50:32.000Z</time></trkpt><trkpt lat="39.85291" lon="-8.46268"><time>2022-01-15T12:50:42.000Z</time></trkpt><trkpt lat="39.85296" lon="-8.46276"><time>2022-01-15T12:50:52.000Z</time></trkpt><trkpt lat="39.85314" lon="-8.46281"><ele>172</ele><time>2022-01-15T12:51:02.000Z</time></trkpt><trkpt lat="39.85323" lon="-8.46285"><time>2022-01-15T12:51:12.000Z</time></trkpt><trkpt lat="39.85325" lon="-8.46287"><time>2022-01-15T12:51:22.000Z</time></trkpt><trkpt lat="39.8533" lon="-8.46294"><time>2022-01-15T12:51:32.000Z</time></trkpt><trkpt lat="39.85336" lon="-8.46307"><ele>173</ele><time>2022-01-15T12:49:24.000Z</time></trkpt><trkpt lat="39.8534" lon="-8.46337"><ele>175</ele><time>2022-01-15T12:49:42.000Z</time></trkpt><trkpt lat="39.85347" lon="-8.46356"><time>2022-01-15T12:49:52.000Z</time></trkpt><trkpt lat="39.85355" lon="-8.46367"><ele>176</ele><time>2022-01-15T12:49:54.000Z</time></trkpt><trkpt lat="39.85361" lon="-8.46371"><time>2022-01-15T12:50:04.000Z</time></trkpt><trkpt lat="39.85378" lon="-8.46382"><ele>175</ele><time>2022-01-15T12:50:05.000Z</time></trkpt><trkpt lat="39.85401" lon="-8.46399"><ele>176</ele><time>2022-01-15T12:50:14.000Z</time></trkpt><trkpt lat="39.8542" lon="-8.46411"><ele>176</ele><time>2022-01-15T12:50:24.000Z</time></trkpt><trkpt lat="39.85437" lon="-8.46424"><time>2022-01-15T12:50:34.000Z</time></trkpt><trkpt lat="39.85459" lon="-8.46446"><ele>176</ele><time>2022-01-15T12:50:44.000Z</time></trkpt><trkpt lat="39.85473" lon="-8.46462"><time>2022-01-15T12:50:54.000Z</time></trkpt><trkpt lat="39.85484" lon="-8.46478"><ele>164</ele><time>2022-01-15T12:51:04.000Z</time></trkpt><trkpt lat="39.85492" lon="-8.46497"><time>2022-01-15T12:51:14.000Z</time></trkpt><trkpt lat="39.85504" lon="-8.46517"><ele>160</ele><time>2022-01-15T12:51:24.000Z</time></trkpt><trkpt lat="39.85513" lon="-8.46531"><time>2022-01-15T12:51:34.000Z</time></trkpt><trkpt lat="39.85514" lon="-8.46538"><time>2022-01-15T12:51:44.000Z</time></trkpt><trkpt lat="39.85521" lon="-8.46552"><ele>160</ele><time>2022-01-15T12:51:54.000Z</time></trkpt><trkpt lat="39.85525" lon="-8.46569"><time>2022-01-15T12:52:04.000Z</time></trkpt><trkpt lat="39.8553" lon="-8.46606"><ele>160</ele><time>2022-01-15T12:52:14.000Z</time></trkpt><trkpt lat="39.85533" lon="-8.46615"><time>2022-01-15T12:52:24.000Z</time></trkpt><trkpt lat="39.85541" lon="-8.46633"><ele>159</ele><time>2022-01-15T12:52:34.000Z</time></trkpt><trkpt lat="39.85548" lon="-8.46645"><time>2022-01-15T12:52:44.000Z</time></trkpt><trkpt lat="39.85551" lon="-8.46653"><time>2022-01-15T12:52:54.000Z</time></trkpt><trkpt lat="39.85553" lon="-8.46671"><ele>159</ele><time>2022-01-15T12:53:04.000Z</time></trkpt><trkpt lat="39.85559" lon="-8.46695"><time>2022-01-15T12:53:14.000Z</time></trkpt><trkpt lat="39.85571" lon="-8.46755"><ele>163</ele><time>2022-01-15T12:53:24.000Z</time></trkpt><trkpt lat="39.85573" lon="-8.46764"><time>2022-01-15T12:53:34.000Z</time></trkpt><trkpt lat="39.85575" lon="-8.46793"><ele>163</ele><time>2022-01-15T12:52:49.000Z</time></trkpt><trkpt lat="39.8556" lon="-8.46844"><ele>168</ele><time>2022-01-15T12:52:59.000Z</time></trkpt><trkpt lat="39.85553" lon="-8.46862"><time>2022-01-15T12:53:09.000Z</time></trkpt><trkpt lat="39.85551" lon="-8.46864"><time>2022-01-15T12:53:19.000Z</time></trkpt><trkpt lat="39.85541" lon="-8.46876"><ele>164</ele><time>2022-01-15T12:53:29.000Z</time></trkpt><trkpt lat="39.85537" lon="-8.46886"><time>2022-01-15T12:53:39.000Z</time></trkpt><trkpt lat="39.85523" lon="-8.46941"><ele>160</ele><time>2022-01-15T12:53:42.000Z</time></trkpt><trkpt lat="39.85516" lon="-8.46959"><time>2022-01-15T12:53:52.000Z</time></trkpt><trkpt lat="39.85512" lon="-8.46971"><ele>160</ele><time>2022-01-15T12:54:02.000Z</time></trkpt><trkpt lat="39.85507" lon="-8.46983"><time>2022-01-15T12:54:12.000Z</time></trkpt><trkpt lat="39.85501" lon="-8.47014"><ele>161</ele><time>2022-01-15T12:54:06.000Z</time></trkpt><trkpt lat="39.85488" lon="-8.47058"><ele>159</ele><time>2022-01-15T12:54:16.000Z</time></trkpt><trkpt lat="39.85486" lon="-8.47072"><time>2022-01-15T12:54:26.000Z</time></trkpt><trkpt lat="39.85487" lon="-8.47081"><time>2022-01-15T12:54:36.000Z</time></trkpt><trkpt lat="39.85493" lon="-8.47124"><ele>157</ele><time>2022-01-15T12:54:41.000Z</time></trkpt><trkpt lat="39.85493" lon="-8.47149"><time>2022-01-15T12:54:51.000Z</time></trkpt><trkpt lat="39.85492" lon="-8.47153"><ele>156</ele><time>2022-01-15T12:54:50.000Z</time></trkpt><trkpt lat="39.85491" lon="-8.47183"><ele>155</ele><time>2022-01-15T12:55:00.000Z</time></trkpt><trkpt lat="39.85492" lon="-8.47192"><time>2022-01-15T12:55:10.000Z</time></trkpt><trkpt lat="39.85492" lon="-8.47199"><time>2022-01-15T12:55:20.000Z</time></trkpt><trkpt lat="39.85495" lon="-8.4723"><ele>155</ele><time>2022-01-15T12:55:13.000Z</time></trkpt><trkpt lat="39.85496" lon="-8.4728"><ele>155</ele><time>2022-01-15T12:55:29.000Z</time></trkpt><trkpt lat="39.85493" lon="-8.47321"><ele>153</ele><time>2022-01-15T12:55:39.000Z</time></trkpt><trkpt lat="39.85492" lon="-8.47333"><time>2022-01-15T12:55:49.000Z</time></trkpt><trkpt lat="39.85491" lon="-8.4734"><time>2022-01-15T12:55:59.000Z</time></trkpt><trkpt lat="39.85491" lon="-8.47361"><ele>152</ele><time>2022-01-15T12:55:54.000Z</time></trkpt><trkpt lat="39.85494" lon="-8.47398"><ele>150</ele><time>2022-01-15T12:56:05.000Z</time></trkpt><trkpt lat="39.85495" lon="-8.47427"><ele>150</ele><time>2022-01-15T12:56:14.000Z</time></trkpt><trkpt lat="39.85497" lon="-8.47458"><ele>150</ele><time>2022-01-15T12:56:23.000Z</time></trkpt><trkpt lat="39.855" lon="-8.4747"><time>2022-01-15T12:56:33.000Z</time></trkpt><trkpt lat="39.85508" lon="-8.4749"><ele>151</ele><time>2022-01-15T12:56:34.000Z</time></trkpt><trkpt lat="39.85514" lon="-8.47507"><time>2022-01-15T12:56:44.000Z</time></trkpt><trkpt lat="39.85516" lon="-8.47527"><ele>153</ele><time>2022-01-15T12:56:46.000Z</time></trkpt><trkpt lat="39.85517" lon="-8.47594"><ele>156</ele><time>2022-01-15T12:57:07.000Z</time></trkpt><trkpt lat="39.85516" lon="-8.47607"><time>2022-01-15T12:57:17.000Z</time></trkpt><trkpt lat="39.85516" lon="-8.47624"><ele>157</ele><time>2022-01-15T12:57:16.000Z</time></trkpt><trkpt lat="39.85518" lon="-8.47634"><time>2022-01-15T12:57:26.000Z</time></trkpt><trkpt lat="39.85518" lon="-8.47655"><ele>157</ele><time>2022-01-15T12:57:25.000Z</time></trkpt><trkpt lat="39.8552" lon="-8.47674"><time>2022-01-15T12:57:35.000Z</time></trkpt><trkpt lat="39.85521" lon="-8.47697"><ele>149</ele><time>2022-01-15T12:57:38.000Z</time></trkpt><trkpt lat="39.85523" lon="-8.47728"><ele>148</ele><time>2022-01-15T12:57:47.000Z</time></trkpt><trkpt lat="39.85521" lon="-8.47783"><ele>146</ele><time>2022-01-15T12:58:05.000Z</time></trkpt><trkpt lat="39.85521" lon="-8.47811"><ele>146</ele><time>2022-01-15T12:58:15.000Z</time></trkpt><trkpt lat="39.8552" lon="-8.47837"><time>2022-01-15T12:58:25.000Z</time></trkpt><trkpt lat="39.8551" lon="-8.47926"><ele>149</ele><time>2022-01-15T12:58:35.000Z</time></trkpt><trkpt lat="39.85508" lon="-8.47936"><time>2022-01-15T12:58:45.000Z</time></trkpt><trkpt lat="39.85502" lon="-8.47958"><ele>153</ele><time>2022-01-15T12:58:55.000Z</time></trkpt><trkpt lat="39.855" lon="-8.47968"><time>2022-01-15T12:59:05.000Z</time></trkpt><trkpt lat="39.85498" lon="-8.47983"><time>2022-01-15T12:59:15.000Z</time></trkpt><trkpt lat="39.85499" lon="-8.48002"><ele>169</ele><time>2022-01-15T12:59:12.000Z</time></trkpt><trkpt lat="39.85491" lon="-8.48021"><time>2022-01-15T12:59:22.000Z</time></trkpt><trkpt lat="39.85481" lon="-8.48044"><ele>170</ele><time>2022-01-15T12:59:27.000Z</time></trkpt><trkpt lat="39.85471" lon="-8.48073"><ele>172</ele><time>2022-01-15T12:59:36.000Z</time></trkpt><trkpt lat="39.85463" lon="-8.48102"><ele>172</ele><time>2022-01-15T12:59:46.000Z</time></trkpt><trkpt lat="39.85461" lon="-8.48128"><time>2022-01-15T12:59:56.000Z</time></trkpt><trkpt lat="39.85455" lon="-8.48152"><ele>170</ele><time>2022-01-15T13:00:06.000Z</time></trkpt><trkpt lat="39.8545" lon="-8.48171"><time>2022-01-15T13:00:16.000Z</time></trkpt><trkpt lat="39.85447" lon="-8.48213"><ele>164</ele><time>2022-01-15T13:00:19.000Z</time></trkpt><trkpt lat="39.85444" lon="-8.48236"><time>2022-01-15T13:00:29.000Z</time></trkpt><trkpt lat="39.85436" lon="-8.48258"><ele>160</ele><time>2022-01-15T13:00:34.000Z</time></trkpt><trkpt lat="39.85426" lon="-8.48281"><ele>156</ele><time>2022-01-15T13:00:42.000Z</time></trkpt><trkpt lat="39.8542" lon="-8.48299"><time>2022-01-15T13:00:52.000Z</time></trkpt><trkpt lat="39.85419" lon="-8.48324"><ele>147</ele><time>2022-01-15T13:00:55.000Z</time></trkpt><trkpt lat="39.85418" lon="-8.48359"><ele>146</ele><time>2022-01-15T13:01:05.000Z</time></trkpt><trkpt lat="39.85416" lon="-8.48368"><time>2022-01-15T13:01:15.000Z</time></trkpt><trkpt lat="39.8541" lon="-8.48387"><ele>146</ele><time>2022-01-15T13:01:25.000Z</time></trkpt><trkpt lat="39.8541" lon="-8.48397"><time>2022-01-15T13:01:35.000Z</time></trkpt><trkpt lat="39.85412" lon="-8.484"><time>2022-01-15T13:01:45.000Z</time></trkpt><trkpt lat="39.85428" lon="-8.4841"><ele>146</ele><time>2022-01-15T13:01:55.000Z</time></trkpt><trkpt lat="39.85446" lon="-8.48408"><time>2022-01-15T13:02:05.000Z</time></trkpt><trkpt lat="39.85485" lon="-8.48403"><ele>148</ele><time>2022-01-15T13:02:15.000Z</time></trkpt><trkpt lat="39.85501" lon="-8.48398"><time>2022-01-15T13:02:25.000Z</time></trkpt><trkpt lat="39.85528" lon="-8.48386"><ele>145</ele><time>2022-01-15T13:02:10.000Z</time></trkpt><trkpt lat="39.85547" lon="-8.48379"><time>2022-01-15T13:02:20.000Z</time></trkpt><trkpt lat="39.85562" lon="-8.4838"><ele>146</ele><time>2022-01-15T13:02:25.000Z</time></trkpt><trkpt lat="39.85584" lon="-8.48387"><ele>146</ele><time>2022-01-15T13:02:35.000Z</time></trkpt><trkpt lat="39.856" lon="-8.48384"><time>2022-01-15T13:02:45.000Z</time></trkpt><trkpt lat="39.85621" lon="-8.48378"><ele>145</ele><time>2022-01-15T13:02:49.000Z</time></trkpt><trkpt lat="39.85644" lon="-8.48377"><ele>145</ele><time>2022-01-15T13:02:59.000Z</time></trkpt><trkpt lat="39.85662" lon="-8.48375"><time>2022-01-15T13:03:09.000Z</time></trkpt><trkpt lat="39.85691" lon="-8.48376"><ele>144</ele><time>2022-01-15T13:03:19.000Z</time></trkpt><trkpt lat="39.85714" lon="-8.48377"><ele>143</ele><time>2022-01-15T13:03:28.000Z</time></trkpt><trkpt lat="39.85735" lon="-8.48376"><ele>143</ele><time>2022-01-15T13:03:38.000Z</time></trkpt><trkpt lat="39.8575" lon="-8.48373"><time>2022-01-15T13:03:48.000Z</time></trkpt><trkpt lat="39.85789" lon="-8.48358"><ele>143</ele><time>2022-01-15T13:03:58.000Z</time></trkpt><trkpt lat="39.85816" lon="-8.48344"><ele>143</ele><time>2022-01-15T13:04:13.000Z</time></trkpt><trkpt lat="39.85835" lon="-8.48335"><time>2022-01-15T13:04:23.000Z</time></trkpt><trkpt lat="39.85855" lon="-8.48337"><ele>149</ele><time>2022-01-15T13:04:32.000Z</time></trkpt><trkpt lat="39.85869" lon="-8.48341"><time>2022-01-15T13:04:42.000Z</time></trkpt><trkpt lat="39.8588" lon="-8.48343"><ele>152</ele><time>2022-01-15T13:04:42.000Z</time></trkpt><trkpt lat="39.85903" lon="-8.4835"><ele>152</ele><time>2022-01-15T13:04:51.000Z</time></trkpt><trkpt lat="39.85924" lon="-8.4836"><ele>154</ele><time>2022-01-15T13:04:59.000Z</time></trkpt><trkpt lat="39.8595" lon="-8.48369"><ele>156</ele><time>2022-01-15T13:05:11.000Z</time></trkpt><trkpt lat="39.85965" lon="-8.48372"><time>2022-01-15T13:05:21.000Z</time></trkpt><trkpt lat="39.85978" lon="-8.48378"><ele>156</ele><time>2022-01-15T13:05:23.000Z</time></trkpt><trkpt lat="39.85987" lon="-8.48379"><time>2022-01-15T13:05:33.000Z</time></trkpt><trkpt lat="39.86004" lon="-8.48378"><ele>156</ele><time>2022-01-15T13:05:34.000Z</time></trkpt><trkpt lat="39.86025" lon="-8.48368"><ele>154</ele><time>2022-01-15T13:05:44.000Z</time></trkpt><trkpt lat="39.86027" lon="-8.48367"><time>2022-01-15T13:05:54.000Z</time></trkpt><trkpt lat="39.86033" lon="-8.48363"><time>2022-01-15T13:06:04.000Z</time></trkpt><trkpt lat="39.86048" lon="-8.48345"><ele>154</ele><time>2022-01-15T13:06:14.000Z</time></trkpt><trkpt lat="39.86057" lon="-8.4833"><time>2022-01-15T13:06:24.000Z</time></trkpt><trkpt lat="39.86068" lon="-8.48316"><ele>155</ele><time>2022-01-15T13:06:34.000Z</time></trkpt><trkpt lat="39.86076" lon="-8.48315"><time>2022-01-15T13:06:44.000Z</time></trkpt><trkpt lat="39.86079" lon="-8.48314"><time>2022-01-15T13:06:54.000Z</time></trkpt><trkpt lat="39.86086" lon="-8.48314"><time>2022-01-15T13:07:04.000Z</time></trkpt><trkpt lat="39.86093" lon="-8.48312"><ele>152</ele><time>2022-01-15T13:07:14.000Z</time></trkpt><trkpt lat="39.86097" lon="-8.48308"><time>2022-01-15T13:07:24.000Z</time></trkpt><trkpt lat="39.86114" lon="-8.48286"><ele>152</ele><time>2022-01-15T13:07:34.000Z</time></trkpt><trkpt lat="39.86115" lon="-8.48286"><time>2022-01-15T13:07:44.000Z</time></trkpt><trkpt lat="39.86124" lon="-8.48283"><time>2022-01-15T13:07:54.000Z</time></trkpt><trkpt lat="39.86128" lon="-8.48284"><time>2022-01-15T13:08:04.000Z</time></trkpt><trkpt lat="39.86132" lon="-8.48283"><time>2022-01-15T13:08:14.000Z</time></trkpt><trkpt lat="39.86139" lon="-8.48282"><ele>153</ele><time>2022-01-15T13:08:24.000Z</time></trkpt><trkpt lat="39.86147" lon="-8.48284"><time>2022-01-15T13:08:34.000Z</time></trkpt><trkpt lat="39.8617" lon="-8.4829"><ele>157</ele><time>2022-01-15T13:08:44.000Z</time></trkpt><trkpt lat="39.86179" lon="-8.48291"><time>2022-01-15T13:08:54.000Z</time></trkpt><trkpt lat="39.86186" lon="-8.48294"><time>2022-01-15T13:09:04.000Z</time></trkpt><trkpt lat="39.86193" lon="-8.48301"><ele>160</ele><time>2022-01-15T13:09:14.000Z</time></trkpt><trkpt lat="39.862" lon="-8.48305"><time>2022-01-15T13:09:24.000Z</time></trkpt><trkpt lat="39.8621" lon="-8.48308"><time>2022-01-15T13:09:34.000Z</time></trkpt><trkpt lat="39.86214" lon="-8.48311"><ele>163</ele><time>2022-01-15T13:09:44.000Z</time></trkpt><trkpt lat="39.86216" lon="-8.48315"><time>2022-01-15T13:09:54.000Z</time></trkpt><trkpt lat="39.86222" lon="-8.48325"><time>2022-01-15T13:10:04.000Z</time></trkpt><trkpt lat="39.86237" lon="-8.48355"><ele>165</ele><time>2022-01-15T13:10:14.000Z</time></trkpt><trkpt lat="39.86244" lon="-8.48364"><time>2022-01-15T13:10:24.000Z</time></trkpt><trkpt lat="39.86251" lon="-8.48373"><time>2022-01-15T13:10:34.000Z</time></trkpt><trkpt lat="39.8626" lon="-8.48394"><ele>168</ele><time>2022-01-15T13:10:14.000Z</time></trkpt><trkpt lat="39.86261" lon="-8.4841"><time>2022-01-15T13:10:24.000Z</time></trkpt><trkpt lat="39.86264" lon="-8.48422"><ele>178</ele><time>2022-01-15T13:10:33.000Z</time></trkpt><trkpt lat="39.8627" lon="-8.48439"><time>2022-01-15T13:10:43.000Z</time></trkpt><trkpt lat="39.86271" lon="-8.48453"><ele>181</ele><time>2022-01-15T13:10:53.000Z</time></trkpt><trkpt lat="39.8627" lon="-8.48456"><time>2022-01-15T13:11:03.000Z</time></trkpt><trkpt lat="39.86268" lon="-8.48472"><time>2022-01-15T13:11:13.000Z</time></trkpt><trkpt lat="39.86268" lon="-8.48483"><ele>180</ele><time>2022-01-15T13:11:23.000Z</time></trkpt><trkpt lat="39.86267" lon="-8.48497"><time>2022-01-15T13:11:33.000Z</time></trkpt><trkpt lat="39.86267" lon="-8.48517"><ele>180</ele><time>2022-01-15T13:11:43.000Z</time></trkpt><trkpt lat="39.86266" lon="-8.48526"><time>2022-01-15T13:11:53.000Z</time></trkpt><trkpt lat="39.86262" lon="-8.48542"><time>2022-01-15T13:12:03.000Z</time></trkpt><trkpt lat="39.86261" lon="-8.48575"><ele>180</ele><time>2022-01-15T13:12:13.000Z</time></trkpt><trkpt lat="39.86261" lon="-8.48581"><time>2022-01-15T13:12:23.000Z</time></trkpt><trkpt lat="39.86262" lon="-8.48591"><time>2022-01-15T13:12:33.000Z</time></trkpt><trkpt lat="39.8627" lon="-8.48616"><ele>180</ele><time>2022-01-15T13:12:43.000Z</time></trkpt><trkpt lat="39.86278" lon="-8.48632"><time>2022-01-15T13:12:53.000Z</time></trkpt><trkpt lat="39.86283" lon="-8.4864"><ele>184</ele><time>2022-01-15T13:13:03.000Z</time></trkpt><trkpt lat="39.86288" lon="-8.48653"><time>2022-01-15T13:13:13.000Z</time></trkpt><trkpt lat="39.86291" lon="-8.48659"><time>2022-01-15T13:13:23.000Z</time></trkpt><trkpt lat="39.86306" lon="-8.48677"><ele>184</ele><time>2022-01-15T13:13:33.000Z</time></trkpt><trkpt lat="39.86319" lon="-8.48696"><time>2022-01-15T13:13:43.000Z</time></trkpt><trkpt lat="39.86328" lon="-8.48718"><ele>184</ele><time>2022-01-15T13:13:53.000Z</time></trkpt><trkpt lat="39.86338" lon="-8.48734"><time>2022-01-15T13:14:03.000Z</time></trkpt><trkpt lat="39.86344" lon="-8.48752"><ele>185</ele><time>2022-01-15T13:14:13.000Z</time></trkpt><trkpt lat="39.86346" lon="-8.48758"><time>2022-01-15T13:14:23.000Z</time></trkpt><trkpt lat="39.86349" lon="-8.48767"><time>2022-01-15T13:14:33.000Z</time></trkpt><trkpt lat="39.8635" lon="-8.48772"><time>2022-01-15T13:14:43.000Z</time></trkpt><trkpt lat="39.86349" lon="-8.48793"><ele>185</ele><time>2022-01-15T13:14:53.000Z</time></trkpt><trkpt lat="39.86344" lon="-8.48814"><time>2022-01-15T13:15:03.000Z</time></trkpt><trkpt lat="39.86338" lon="-8.48834"><ele>185</ele><time>2022-01-15T13:15:13.000Z</time></trkpt><trkpt lat="39.86326" lon="-8.48854"><time>2022-01-15T13:15:23.000Z</time></trkpt><trkpt lat="39.86326" lon="-8.48871"><ele>182</ele><time>2022-01-15T13:15:33.000Z</time></trkpt><trkpt lat="39.86329" lon="-8.48894"><time>2022-01-15T13:15:43.000Z</time></trkpt><trkpt lat="39.86332" lon="-8.4891"><ele>182</ele><time>2022-01-15T13:15:53.000Z</time></trkpt><trkpt lat="39.86331" lon="-8.48919"><time>2022-01-15T13:16:03.000Z</time></trkpt><trkpt lat="39.86329" lon="-8.48933"><time>2022-01-15T13:16:13.000Z</time></trkpt><trkpt lat="39.8633" lon="-8.48938"><ele>183</ele><time>2022-01-15T13:16:23.000Z</time></trkpt><trkpt lat="39.8633" lon="-8.48944"><time>2022-01-15T13:16:33.000Z</time></trkpt><trkpt lat="39.86331" lon="-8.48946"><time>2022-01-15T13:16:43.000Z</time></trkpt><trkpt lat="39.86331" lon="-8.48964"><time>2022-01-15T13:16:53.000Z</time></trkpt><trkpt lat="39.8633" lon="-8.4898"><ele>186</ele><time>2022-01-15T13:17:03.000Z</time></trkpt><trkpt lat="39.86329" lon="-8.48986"><time>2022-01-15T13:17:13.000Z</time></trkpt><trkpt lat="39.86328" lon="-8.49006"><time>2022-01-15T13:17:23.000Z</time></trkpt><trkpt lat="39.86333" lon="-8.49043"><ele>186</ele><time>2022-01-15T13:17:33.000Z</time></trkpt><trkpt lat="39.86334" lon="-8.49045"><time>2022-01-15T13:17:43.000Z</time></trkpt><trkpt lat="39.86337" lon="-8.49062"><time>2022-01-15T13:17:53.000Z</time></trkpt><trkpt lat="39.86338" lon="-8.49083"><ele>186</ele><time>2022-01-15T13:18:03.000Z</time></trkpt><trkpt lat="39.86335" lon="-8.49108"><time>2022-01-15T13:18:13.000Z</time></trkpt><trkpt lat="39.86329" lon="-8.49136"><ele>181</ele><time>2022-01-15T13:15:43.000Z</time></trkpt><trkpt lat="39.86323" lon="-8.49171"><ele>181</ele><time>2022-01-15T13:15:54.000Z</time></trkpt><trkpt lat="39.86323" lon="-8.49178"><time>2022-01-15T13:16:04.000Z</time></trkpt><trkpt lat="39.86322" lon="-8.49203"><ele>179</ele><time>2022-01-15T13:16:03.000Z</time></trkpt><trkpt lat="39.86324" lon="-8.4923"><time>2022-01-15T13:16:13.000Z</time></trkpt><trkpt lat="39.86321" lon="-8.4924"><ele>179</ele><time>2022-01-15T13:16:14.000Z</time></trkpt><trkpt lat="39.86304" lon="-8.4927"><ele>177</ele><time>2022-01-15T13:16:25.000Z</time></trkpt><trkpt lat="39.86289" lon="-8.49299"><ele>176</ele><time>2022-01-15T13:16:35.000Z</time></trkpt><trkpt lat="39.86286" lon="-8.49307"><time>2022-01-15T13:16:45.000Z</time></trkpt><trkpt lat="39.86282" lon="-8.49326"><ele>176</ele><time>2022-01-15T13:16:44.000Z</time></trkpt><trkpt lat="39.8628" lon="-8.49347"><time>2022-01-15T13:16:54.000Z</time></trkpt><trkpt lat="39.86279" lon="-8.49357"><ele>176</ele><time>2022-01-15T13:16:53.000Z</time></trkpt><trkpt lat="39.86283" lon="-8.49389"><ele>176</ele><time>2022-01-15T13:17:03.000Z</time></trkpt><trkpt lat="39.86282" lon="-8.49399"><time>2022-01-15T13:17:13.000Z</time></trkpt><trkpt lat="39.86285" lon="-8.49439"><ele>179</ele><time>2022-01-15T13:17:32.000Z</time></trkpt><trkpt lat="39.86285" lon="-8.49456"><time>2022-01-15T13:17:42.000Z</time></trkpt><trkpt lat="39.86285" lon="-8.49469"><ele>179</ele><time>2022-01-15T13:17:48.000Z</time></trkpt><trkpt lat="39.86287" lon="-8.49495"><time>2022-01-15T13:17:58.000Z</time></trkpt><trkpt lat="39.86287" lon="-8.49506"><ele>181</ele><time>2022-01-15T13:18:08.000Z</time></trkpt><trkpt lat="39.86285" lon="-8.49517"><time>2022-01-15T13:18:18.000Z</time></trkpt><trkpt lat="39.86283" lon="-8.49529"><time>2022-01-15T13:18:28.000Z</time></trkpt><trkpt lat="39.8628" lon="-8.49549"><ele>183</ele><time>2022-01-15T13:18:38.000Z</time></trkpt><trkpt lat="39.86281" lon="-8.49556"><time>2022-01-15T13:18:48.000Z</time></trkpt><trkpt lat="39.86279" lon="-8.49571"><time>2022-01-15T13:18:58.000Z</time></trkpt><trkpt lat="39.8628" lon="-8.49579"><ele>186</ele><time>2022-01-15T13:18:54.000Z</time></trkpt><trkpt lat="39.86281" lon="-8.49585"><time>2022-01-15T13:19:04.000Z</time></trkpt><trkpt lat="39.8628" lon="-8.49593"><time>2022-01-15T13:19:14.000Z</time></trkpt><trkpt lat="39.86279" lon="-8.49599"><time>2022-01-15T13:19:24.000Z</time></trkpt><trkpt lat="39.86278" lon="-8.49611"><ele>186</ele><time>2022-01-15T13:19:14.000Z</time></trkpt><trkpt lat="39.86275" lon="-8.4963"><time>2022-01-15T13:19:24.000Z</time></trkpt><trkpt lat="39.86272" lon="-8.49635"><time>2022-01-15T13:19:34.000Z</time></trkpt><trkpt lat="39.86268" lon="-8.49637"><ele>187</ele><time>2022-01-15T13:19:33.000Z</time></trkpt><trkpt lat="39.86256" lon="-8.49643"><time>2022-01-15T13:19:43.000Z</time></trkpt><trkpt lat="39.86249" lon="-8.49648"><time>2022-01-15T13:19:53.000Z</time></trkpt><trkpt lat="39.86245" lon="-8.49652"><ele>189</ele><time>2022-01-15T13:19:52.000Z</time></trkpt><trkpt lat="39.86237" lon="-8.49665"><time>2022-01-15T13:20:02.000Z</time></trkpt><trkpt lat="39.86227" lon="-8.49678"><ele>189</ele><time>2022-01-15T13:20:11.000Z</time></trkpt><trkpt lat="39.8621" lon="-8.49707"><ele>190</ele><time>2022-01-15T13:20:32.000Z</time></trkpt><trkpt lat="39.86205" lon="-8.49716"><time>2022-01-15T13:20:42.000Z</time></trkpt><trkpt lat="39.862" lon="-8.49733"><ele>194</ele><time>2022-01-15T13:20:52.000Z</time></trkpt><trkpt lat="39.86198" lon="-8.49742"><time>2022-01-15T13:21:02.000Z</time></trkpt><trkpt lat="39.86199" lon="-8.49754"><time>2022-01-15T13:21:12.000Z</time></trkpt><trkpt lat="39.86206" lon="-8.49767"><ele>194</ele><time>2022-01-15T13:21:08.000Z</time></trkpt><trkpt lat="39.8621" lon="-8.49772"><time>2022-01-15T13:21:18.000Z</time></trkpt><trkpt lat="39.86217" lon="-8.4978"><time>2022-01-15T13:21:28.000Z</time></trkpt><trkpt lat="39.86221" lon="-8.4979"><ele>195</ele><time>2022-01-15T13:21:26.000Z</time></trkpt><trkpt lat="39.86219" lon="-8.49816"><time>2022-01-15T13:21:36.000Z</time></trkpt><trkpt lat="39.86218" lon="-8.49819"><ele>196</ele><time>2022-01-15T13:21:46.000Z</time></trkpt><trkpt lat="39.86215" lon="-8.49842"><time>2022-01-15T13:21:56.000Z</time></trkpt><trkpt lat="39.86208" lon="-8.49878"><ele>199</ele><time>2022-01-15T13:22:15.000Z</time></trkpt><trkpt lat="39.86204" lon="-8.49899"><time>2022-01-15T13:22:25.000Z</time></trkpt><trkpt lat="39.86201" lon="-8.49905"><ele>202</ele><time>2022-01-15T13:22:33.000Z</time></trkpt><trkpt lat="39.86195" lon="-8.49918"><time>2022-01-15T13:22:43.000Z</time></trkpt><trkpt lat="39.86183" lon="-8.49937"><ele>208</ele><time>2022-01-15T13:22:59.000Z</time></trkpt><trkpt lat="39.8617" lon="-8.4996"><ele>214</ele><time>2022-01-15T13:23:15.000Z</time></trkpt><trkpt lat="39.86158" lon="-8.49985"><ele>225</ele><time>2022-01-15T13:23:33.000Z</time></trkpt><trkpt lat="39.86148" lon="-8.49999"><time>2022-01-15T13:23:43.000Z</time></trkpt><trkpt lat="39.86144" lon="-8.50008"><ele>225</ele><time>2022-01-15T13:23:51.000Z</time></trkpt><trkpt lat="39.86136" lon="-8.50023"><time>2022-01-15T13:24:01.000Z</time></trkpt><trkpt lat="39.86133" lon="-8.50031"><ele>227</ele><time>2022-01-15T13:24:10.000Z</time></trkpt><trkpt lat="39.86126" lon="-8.5004"><time>2022-01-15T13:24:20.000Z</time></trkpt><trkpt lat="39.86122" lon="-8.50048"><time>2022-01-15T13:24:30.000Z</time></trkpt><trkpt lat="39.86117" lon="-8.5006"><ele>235</ele><time>2022-01-15T13:24:33.000Z</time></trkpt><trkpt lat="39.86098" lon="-8.50086"><ele>241</ele><time>2022-01-15T13:24:43.000Z</time></trkpt><trkpt lat="39.86084" lon="-8.50101"><time>2022-01-15T13:24:53.000Z</time></trkpt><trkpt lat="39.86075" lon="-8.50111"><ele>240</ele><time>2022-01-15T13:25:03.000Z</time></trkpt><trkpt lat="39.86068" lon="-8.50118"><time>2022-01-15T13:25:13.000Z</time></trkpt><trkpt lat="39.86063" lon="-8.50122"><time>2022-01-15T13:25:23.000Z</time></trkpt><trkpt lat="39.86044" lon="-8.50142"><ele>241</ele><time>2022-01-15T13:25:47.000Z</time></trkpt><trkpt lat="39.86035" lon="-8.50157"><time>2022-01-15T13:25:57.000Z</time></trkpt><trkpt lat="39.86034" lon="-8.50165"><ele>243</ele><time>2022-01-15T13:26:07.000Z</time></trkpt><trkpt lat="39.86042" lon="-8.50171"><time>2022-01-15T13:26:17.000Z</time></trkpt><trkpt lat="39.86064" lon="-8.50182"><ele>243</ele><time>2022-01-15T13:26:21.000Z</time></trkpt><trkpt lat="39.86069" lon="-8.50184"><time>2022-01-15T13:26:31.000Z</time></trkpt><trkpt lat="39.86083" lon="-8.50195"><ele>245</ele><time>2022-01-15T13:26:40.000Z</time></trkpt><trkpt lat="39.86099" lon="-8.50223"><ele>245</ele><time>2022-01-15T13:26:50.000Z</time></trkpt><trkpt lat="39.86105" lon="-8.50235"><time>2022-01-15T13:27:00.000Z</time></trkpt><trkpt lat="39.86115" lon="-8.50254"><ele>247</ele><time>2022-01-15T13:27:10.000Z</time></trkpt><trkpt lat="39.86121" lon="-8.50263"><time>2022-01-15T13:27:20.000Z</time></trkpt><trkpt lat="39.86129" lon="-8.50272"><time>2022-01-15T13:27:30.000Z</time></trkpt><trkpt lat="39.86138" lon="-8.5028"><ele>250</ele><time>2022-01-15T13:27:40.000Z</time></trkpt><trkpt lat="39.86142" lon="-8.50284"><time>2022-01-15T13:27:50.000Z</time></trkpt><trkpt lat="39.86152" lon="-8.5029"><time>2022-01-15T13:28:00.000Z</time></trkpt><trkpt lat="39.86167" lon="-8.50295"><ele>251</ele><time>2022-01-15T13:28:10.000Z</time></trkpt><trkpt lat="39.86177" lon="-8.50299"><time>2022-01-15T13:28:20.000Z</time></trkpt><trkpt lat="39.86204" lon="-8.50315"><ele>258</ele><time>2022-01-15T13:28:34.000Z</time></trkpt><trkpt lat="39.8624" lon="-8.50347"><ele>254</ele><time>2022-01-15T13:28:44.000Z</time></trkpt><trkpt lat="39.86253" lon="-8.50366"><time>2022-01-15T13:28:54.000Z</time></trkpt><trkpt lat="39.86271" lon="-8.504"><ele>255</ele><time>2022-01-15T13:29:04.000Z</time></trkpt><trkpt lat="39.86279" lon="-8.50418"><time>2022-01-15T13:29:14.000Z</time></trkpt><trkpt lat="39.86282" lon="-8.50422"><time>2022-01-15T13:29:24.000Z</time></trkpt><trkpt lat="39.86286" lon="-8.50432"><ele>255</ele><time>2022-01-15T13:29:34.000Z</time></trkpt><trkpt lat="39.86287" lon="-8.50439"><time>2022-01-15T13:29:44.000Z</time></trkpt><trkpt lat="39.86288" lon="-8.50455"><time>2022-01-15T13:29:54.000Z</time></trkpt><trkpt lat="39.86288" lon="-8.50474"><ele>255</ele><time>2022-01-15T13:30:04.000Z</time></trkpt><trkpt lat="39.86286" lon="-8.50474"><time>2022-01-15T13:30:14.000Z</time></trkpt><trkpt lat="39.86283" lon="-8.50481"><time>2022-01-15T13:30:24.000Z</time></trkpt><trkpt lat="39.86281" lon="-8.50488"><time>2022-01-15T13:30:34.000Z</time></trkpt><trkpt lat="39.86279" lon="-8.50497"><time>2022-01-15T13:30:44.000Z</time></trkpt><trkpt lat="39.86278" lon="-8.50521"><ele>249</ele><time>2022-01-15T13:30:54.000Z</time></trkpt><trkpt lat="39.86279" lon="-8.50526"><time>2022-01-15T13:31:04.000Z</time></trkpt><trkpt lat="39.86287" lon="-8.50545"><time>2022-01-15T13:31:14.000Z</time></trkpt><trkpt lat="39.86295" lon="-8.50582"><ele>249</ele><time>2022-01-15T13:31:24.000Z</time></trkpt><trkpt lat="39.86299" lon="-8.5059"><time>2022-01-15T13:31:34.000Z</time></trkpt><trkpt lat="39.86302" lon="-8.50594"><time>2022-01-15T13:31:44.000Z</time></trkpt><trkpt lat="39.86326" lon="-8.50612"><ele>247</ele><time>2022-01-15T13:31:55.000Z</time></trkpt><trkpt lat="39.86344" lon="-8.5062"><time>2022-01-15T13:32:05.000Z</time></trkpt><trkpt lat="39.8635" lon="-8.50624"><ele>249</ele><time>2022-01-15T13:32:07.000Z</time></trkpt><trkpt lat="39.86361" lon="-8.50641"><time>2022-01-15T13:32:17.000Z</time></trkpt><trkpt lat="39.86365" lon="-8.50648"><ele>247</ele><time>2022-01-15T13:32:27.000Z</time></trkpt><trkpt lat="39.86371" lon="-8.50661"><time>2022-01-15T13:32:37.000Z</time></trkpt><trkpt lat="39.86385" lon="-8.50682"><ele>245</ele><time>2022-01-15T13:32:33.000Z</time></trkpt><trkpt lat="39.86408" lon="-8.50713"><ele>240</ele><time>2022-01-15T13:32:43.000Z</time></trkpt><trkpt lat="39.86415" lon="-8.50718"><time>2022-01-15T13:32:53.000Z</time></trkpt><trkpt lat="39.86419" lon="-8.5072"><time>2022-01-15T13:33:03.000Z</time></trkpt><trkpt lat="39.86432" lon="-8.50726"><ele>240</ele><time>2022-01-15T13:33:13.000Z</time></trkpt><trkpt lat="39.86437" lon="-8.50729"><time>2022-01-15T13:33:23.000Z</time></trkpt><trkpt lat="39.86448" lon="-8.50734"><time>2022-01-15T13:33:33.000Z</time></trkpt><trkpt lat="39.86467" lon="-8.50739"><ele>239</ele><time>2022-01-15T13:33:43.000Z</time></trkpt><trkpt lat="39.86481" lon="-8.50739"><time>2022-01-15T13:33:53.000Z</time></trkpt><trkpt lat="39.86492" lon="-8.50737"><ele>239</ele><time>2022-01-15T13:34:03.000Z</time></trkpt><trkpt lat="39.865" lon="-8.50737"><time>2022-01-15T13:34:13.000Z</time></trkpt><trkpt lat="39.86502" lon="-8.50735"><time>2022-01-15T13:34:23.000Z</time></trkpt><trkpt lat="39.86501" lon="-8.50736"><time>2022-01-15T13:34:33.000Z</time></trkpt><trkpt lat="39.86512" lon="-8.50739"><ele>239</ele><time>2022-01-15T13:34:43.000Z</time></trkpt><trkpt lat="39.8652" lon="-8.50743"><time>2022-01-15T13:34:53.000Z</time></trkpt><trkpt lat="39.86536" lon="-8.50746"><ele>240</ele><time>2022-01-15T13:35:03.000Z</time></trkpt><trkpt lat="39.8655" lon="-8.50752"><time>2022-01-15T13:35:13.000Z</time></trkpt><trkpt lat="39.86551" lon="-8.50756"><time>2022-01-15T13:35:23.000Z</time></trkpt><trkpt lat="39.86551" lon="-8.50759"><time>2022-01-15T13:35:33.000Z</time></trkpt><trkpt lat="39.8655" lon="-8.50764"><ele>240</ele><time>2022-01-15T13:35:43.000Z</time></trkpt><trkpt lat="39.86546" lon="-8.50779"><time>2022-01-15T13:35:53.000Z</time></trkpt><trkpt lat="39.86543" lon="-8.50782"><time>2022-01-15T13:36:03.000Z</time></trkpt><trkpt lat="39.86533" lon="-8.50782"><ele>238</ele><time>2022-01-15T13:36:13.000Z</time></trkpt><trkpt lat="39.86524" lon="-8.50778"><time>2022-01-15T13:36:23.000Z</time></trkpt><trkpt lat="39.86516" lon="-8.50776"><time>2022-01-15T13:36:33.000Z</time></trkpt><trkpt lat="39.86498" lon="-8.50782"><ele>238</ele><time>2022-01-15T13:35:07.000Z</time></trkpt><trkpt lat="39.86488" lon="-8.50783"><time>2022-01-15T13:35:17.000Z</time></trkpt><trkpt lat="39.86477" lon="-8.50786"><ele>237</ele><time>2022-01-15T13:35:17.000Z</time></trkpt><trkpt lat="39.86453" lon="-8.50805"><ele>238</ele><time>2022-01-15T13:35:27.000Z</time></trkpt><trkpt lat="39.86443" lon="-8.50809"><time>2022-01-15T13:35:37.000Z</time></trkpt><trkpt lat="39.86435" lon="-8.50813"><time>2022-01-15T13:35:47.000Z</time></trkpt><trkpt lat="39.86427" lon="-8.50819"><ele>240</ele><time>2022-01-15T13:35:57.000Z</time></trkpt><trkpt lat="39.86422" lon="-8.50824"><time>2022-01-15T13:36:07.000Z</time></trkpt><trkpt lat="39.86417" lon="-8.50827"><time>2022-01-15T13:36:17.000Z</time></trkpt><trkpt lat="39.86415" lon="-8.50831"><time>2022-01-15T13:36:27.000Z</time></trkpt><trkpt lat="39.86394" lon="-8.50849"><ele>240</ele><time>2022-01-15T13:36:37.000Z</time></trkpt><trkpt lat="39.86385" lon="-8.50862"><time>2022-01-15T13:36:47.000Z</time></trkpt><trkpt lat="39.86383" lon="-8.50864"><time>2022-01-15T13:36:57.000Z</time></trkpt><trkpt lat="39.8637" lon="-8.50869"><ele>240</ele><time>2022-01-15T13:37:07.000Z</time></trkpt><trkpt lat="39.8636" lon="-8.50869"><time>2022-01-15T13:37:17.000Z</time></trkpt><trkpt lat="39.8634" lon="-8.50871"><ele>244</ele><time>2022-01-15T13:37:27.000Z</time></trkpt><trkpt lat="39.86332" lon="-8.50868"><time>2022-01-15T13:37:37.000Z</time></trkpt><trkpt lat="39.86329" lon="-8.50865"><time>2022-01-15T13:37:47.000Z</time></trkpt><trkpt lat="39.86326" lon="-8.5086"><time>2022-01-15T13:37:57.000Z</time></trkpt><trkpt lat="39.86323" lon="-8.50857"><time>2022-01-15T13:38:07.000Z</time></trkpt><trkpt lat="39.86314" lon="-8.50849"><ele>244</ele><time>2022-01-15T13:38:17.000Z</time></trkpt><trkpt lat="39.86295" lon="-8.50839"><time>2022-01-15T13:38:27.000Z</time></trkpt><trkpt lat="39.86284" lon="-8.50837"><ele>244</ele><time>2022-01-15T13:38:37.000Z</time></trkpt><trkpt lat="39.86272" lon="-8.50832"><time>2022-01-15T13:38:47.000Z</time></trkpt><trkpt lat="39.86262" lon="-8.50832"><ele>246</ele><time>2022-01-15T13:38:57.000Z</time></trkpt><trkpt lat="39.86244" lon="-8.50838"><time>2022-01-15T13:39:07.000Z</time></trkpt><trkpt lat="39.86219" lon="-8.50843"><ele>250</ele><time>2022-01-15T13:38:14.000Z</time></trkpt><trkpt lat="39.86182" lon="-8.50863"><ele>252</ele><time>2022-01-15T13:38:34.000Z</time></trkpt><trkpt lat="39.86168" lon="-8.50872"><time>2022-01-15T13:38:44.000Z</time></trkpt><trkpt lat="39.86167" lon="-8.50875"><time>2022-01-15T13:38:54.000Z</time></trkpt><trkpt lat="39.86167" lon="-8.50882"><ele>256</ele><time>2022-01-15T13:39:04.000Z</time></trkpt><trkpt lat="39.86168" lon="-8.50884"><time>2022-01-15T13:39:14.000Z</time></trkpt><trkpt lat="39.86173" lon="-8.50889"><time>2022-01-15T13:39:24.000Z</time></trkpt><trkpt lat="39.86177" lon="-8.50892"><time>2022-01-15T13:39:34.000Z</time></trkpt><trkpt lat="39.86188" lon="-8.50896"><ele>256</ele><time>2022-01-15T13:39:44.000Z</time></trkpt><trkpt lat="39.86196" lon="-8.50902"><time>2022-01-15T13:39:54.000Z</time></trkpt><trkpt lat="39.86198" lon="-8.50905"><time>2022-01-15T13:40:04.000Z</time></trkpt><trkpt lat="39.86198" lon="-8.5091"><time>2022-01-15T13:40:14.000Z</time></trkpt><trkpt lat="39.86197" lon="-8.50917"><ele>264</ele><time>2022-01-15T13:40:24.000Z</time></trkpt><trkpt lat="39.86192" lon="-8.50928"><time>2022-01-15T13:40:34.000Z</time></trkpt><trkpt lat="39.86185" lon="-8.50937"><time>2022-01-15T13:40:44.000Z</time></trkpt><trkpt lat="39.8618" lon="-8.50945"><ele>266</ele><time>2022-01-15T13:40:54.000Z</time></trkpt><trkpt lat="39.86172" lon="-8.50954"><time>2022-01-15T13:41:04.000Z</time></trkpt><trkpt lat="39.86156" lon="-8.50977"><ele>268</ele><time>2022-01-15T13:41:14.000Z</time></trkpt><trkpt lat="39.86153" lon="-8.50985"><time>2022-01-15T13:41:24.000Z</time></trkpt><trkpt lat="39.86149" lon="-8.50991"><time>2022-01-15T13:41:34.000Z</time></trkpt><trkpt lat="39.86154" lon="-8.50998"><time>2022-01-15T13:41:44.000Z</time></trkpt><trkpt lat="39.86165" lon="-8.51001"><ele>268</ele><time>2022-01-15T13:41:54.000Z</time></trkpt><trkpt lat="39.86166" lon="-8.50999"><time>2022-01-15T13:42:04.000Z</time></trkpt><trkpt lat="39.86167" lon="-8.50999"><time>2022-01-15T13:42:14.000Z</time></trkpt><trkpt lat="39.86166" lon="-8.50998"><time>2022-01-15T13:42:24.000Z</time></trkpt><trkpt lat="39.86176" lon="-8.51"><time>2022-01-15T13:42:34.000Z</time></trkpt><trkpt lat="39.86216" lon="-8.51003"><ele>268</ele><time>2022-01-15T13:42:44.000Z</time></trkpt><trkpt lat="39.86226" lon="-8.51003"><time>2022-01-15T13:42:54.000Z</time></trkpt><trkpt lat="39.86232" lon="-8.51002"><time>2022-01-15T13:43:04.000Z</time></trkpt><trkpt lat="39.86251" lon="-8.51001"><ele>273</ele><time>2022-01-15T13:42:28.000Z</time></trkpt><trkpt lat="39.86265" lon="-8.51005"><time>2022-01-15T13:42:38.000Z</time></trkpt><trkpt lat="39.86279" lon="-8.5102"><ele>277</ele><time>2022-01-15T13:42:42.000Z</time></trkpt><trkpt lat="39.86289" lon="-8.51039"><time>2022-01-15T13:42:52.000Z</time></trkpt><trkpt lat="39.86295" lon="-8.51053"><ele>277</ele><time>2022-01-15T13:42:56.000Z</time></trkpt><trkpt lat="39.86311" lon="-8.5108"><ele>284</ele><time>2022-01-15T13:43:06.000Z</time></trkpt><trkpt lat="39.86315" lon="-8.51086"><time>2022-01-15T13:43:16.000Z</time></trkpt><trkpt lat="39.86324" lon="-8.51093"><time>2022-01-15T13:43:26.000Z</time></trkpt><trkpt lat="39.86341" lon="-8.51101"><ele>284</ele><time>2022-01-15T13:43:24.000Z</time></trkpt><trkpt lat="39.86382" lon="-8.51113"><ele>283</ele><time>2022-01-15T13:43:42.000Z</time></trkpt><trkpt lat="39.86408" lon="-8.51118"><ele>283</ele><time>2022-01-15T13:43:52.000Z</time></trkpt><trkpt lat="39.86435" lon="-8.51124"><ele>282</ele><time>2022-01-15T13:44:03.000Z</time></trkpt><trkpt lat="39.86448" lon="-8.51131"><time>2022-01-15T13:44:13.000Z</time></trkpt><trkpt lat="39.86459" lon="-8.51135"><ele>282</ele><time>2022-01-15T13:44:15.000Z</time></trkpt><trkpt lat="39.86477" lon="-8.51143"><time>2022-01-15T13:44:25.000Z</time></trkpt><trkpt lat="39.86479" lon="-8.51144"><ele>282</ele><time>2022-01-15T13:44:35.000Z</time></trkpt><trkpt lat="39.86486" lon="-8.5115"><time>2022-01-15T13:44:45.000Z</time></trkpt><trkpt lat="39.86503" lon="-8.51175"><ele>282</ele><time>2022-01-15T13:44:55.000Z</time></trkpt><trkpt lat="39.86514" lon="-8.51188"><time>2022-01-15T13:45:05.000Z</time></trkpt><trkpt lat="39.86533" lon="-8.51207"><ele>280</ele><time>2022-01-15T13:45:15.000Z</time></trkpt><trkpt lat="39.8654" lon="-8.51213"><time>2022-01-15T13:45:25.000Z</time></trkpt><trkpt lat="39.86548" lon="-8.51218"><time>2022-01-15T13:45:35.000Z</time></trkpt><trkpt lat="39.86559" lon="-8.51225"><ele>280</ele><time>2022-01-15T13:45:06.000Z</time></trkpt><trkpt lat="39.86577" lon="-8.51231"><time>2022-01-15T13:45:16.000Z</time></trkpt><trkpt lat="39.86589" lon="-8.51234"><ele>281</ele><time>2022-01-15T13:45:20.000Z</time></trkpt><trkpt lat="39.8661" lon="-8.51243"><ele>284</ele><time>2022-01-15T13:45:30.000Z</time></trkpt><trkpt lat="39.86622" lon="-8.51249"><time>2022-01-15T13:45:40.000Z</time></trkpt><trkpt lat="39.8664" lon="-8.51257"><ele>285</ele><time>2022-01-15T13:45:50.000Z</time></trkpt><trkpt lat="39.86645" lon="-8.51258"><time>2022-01-15T13:46:00.000Z</time></trkpt><trkpt lat="39.86654" lon="-8.51264"><time>2022-01-15T13:46:10.000Z</time></trkpt><trkpt lat="39.86663" lon="-8.51275"><ele>287</ele><time>2022-01-15T13:46:20.000Z</time></trkpt><trkpt lat="39.86669" lon="-8.51289"><time>2022-01-15T13:46:30.000Z</time></trkpt><trkpt lat="39.86671" lon="-8.51295"><time>2022-01-15T13:46:40.000Z</time></trkpt><trkpt lat="39.86675" lon="-8.5132"><ele>290</ele><time>2022-01-15T13:46:17.000Z</time></trkpt><trkpt lat="39.86676" lon="-8.51351"><ele>290</ele><time>2022-01-15T13:46:27.000Z</time></trkpt><trkpt lat="39.86674" lon="-8.51403"><ele>290</ele><time>2022-01-15T13:46:45.000Z</time></trkpt><trkpt lat="39.86677" lon="-8.51427"><time>2022-01-15T13:46:55.000Z</time></trkpt><trkpt lat="39.8668" lon="-8.51439"><ele>290</ele><time>2022-01-15T13:46:57.000Z</time></trkpt><trkpt lat="39.8669" lon="-8.51469"><ele>290</ele><time>2022-01-15T13:47:07.000Z</time></trkpt><trkpt lat="39.8669" lon="-8.51475"><time>2022-01-15T13:47:17.000Z</time></trkpt><trkpt lat="39.86687" lon="-8.51486"><time>2022-01-15T13:47:27.000Z</time></trkpt><trkpt lat="39.86682" lon="-8.51498"><ele>290</ele><time>2022-01-15T13:47:37.000Z</time></trkpt><trkpt lat="39.86678" lon="-8.51507"><time>2022-01-15T13:47:47.000Z</time></trkpt><trkpt lat="39.8667" lon="-8.51522"><ele>288</ele><time>2022-01-15T13:47:57.000Z</time></trkpt><trkpt lat="39.86664" lon="-8.51534"><time>2022-01-15T13:48:07.000Z</time></trkpt><trkpt lat="39.86661" lon="-8.51541"><time>2022-01-15T13:48:17.000Z</time></trkpt><trkpt lat="39.86657" lon="-8.51555"><ele>285</ele><time>2022-01-15T13:48:27.000Z</time></trkpt><trkpt lat="39.86651" lon="-8.51569"><time>2022-01-15T13:48:37.000Z</time></trkpt><trkpt lat="39.86646" lon="-8.51578"><time>2022-01-15T13:48:47.000Z</time></trkpt><trkpt lat="39.86634" lon="-8.51587"><ele>282</ele><time>2022-01-15T13:48:57.000Z</time></trkpt><trkpt lat="39.86629" lon="-8.51592"><time>2022-01-15T13:49:07.000Z</time></trkpt><trkpt lat="39.86624" lon="-8.516"><time>2022-01-15T13:49:17.000Z</time></trkpt><trkpt lat="39.86621" lon="-8.51607"><time>2022-01-15T13:49:27.000Z</time></trkpt><trkpt lat="39.86621" lon="-8.51611"><ele>278</ele><time>2022-01-15T13:49:37.000Z</time></trkpt><trkpt lat="39.86621" lon="-8.51623"><time>2022-01-15T13:49:47.000Z</time></trkpt><trkpt lat="39.86623" lon="-8.5163"><time>2022-01-15T13:49:57.000Z</time></trkpt><trkpt lat="39.8663" lon="-8.51651"><ele>276</ele><time>2022-01-15T13:48:20.000Z</time></trkpt><trkpt lat="39.86637" lon="-8.5167"><time>2022-01-15T13:48:30.000Z</time></trkpt><trkpt lat="39.86649" lon="-8.51691"><ele>273</ele><time>2022-01-15T13:48:33.000Z</time></trkpt><trkpt lat="39.86666" lon="-8.51713"><ele>270</ele><time>2022-01-15T13:48:43.000Z</time></trkpt><trkpt lat="39.86678" lon="-8.51723"><time>2022-01-15T13:48:53.000Z</time></trkpt><trkpt lat="39.86689" lon="-8.51736"><ele>267</ele><time>2022-01-15T13:49:03.000Z</time></trkpt><trkpt lat="39.86698" lon="-8.5175"><time>2022-01-15T13:49:13.000Z</time></trkpt><trkpt lat="39.86702" lon="-8.51768"><ele>257</ele><time>2022-01-15T13:49:23.000Z</time></trkpt><trkpt lat="39.86703" lon="-8.51778"><time>2022-01-15T13:49:33.000Z</time></trkpt><trkpt lat="39.86703" lon="-8.51794"><time>2022-01-15T13:49:43.000Z</time></trkpt><trkpt lat="39.86699" lon="-8.51809"><ele>255</ele><time>2022-01-15T13:49:53.000Z</time></trkpt><trkpt lat="39.86696" lon="-8.51815"><time>2022-01-15T13:50:03.000Z</time></trkpt><trkpt lat="39.86689" lon="-8.51822"><time>2022-01-15T13:50:13.000Z</time></trkpt><trkpt lat="39.86656" lon="-8.51854"><ele>251</ele><time>2022-01-15T13:50:23.000Z</time></trkpt><trkpt lat="39.86649" lon="-8.51862"><time>2022-01-15T13:50:33.000Z</time></trkpt><trkpt lat="39.86624" lon="-8.51893"><ele>244</ele><time>2022-01-15T13:49:50.000Z</time></trkpt><trkpt lat="39.86617" lon="-8.51906"><time>2022-01-15T13:50:00.000Z</time></trkpt><trkpt lat="39.86607" lon="-8.51919"><ele>240</ele><time>2022-01-15T13:49:59.000Z</time></trkpt><trkpt lat="39.86594" lon="-8.51941"><ele>239</ele><time>2022-01-15T13:50:09.000Z</time></trkpt><trkpt lat="39.86591" lon="-8.51948"><time>2022-01-15T13:50:19.000Z</time></trkpt><trkpt lat="39.86591" lon="-8.51952"><time>2022-01-15T13:50:29.000Z</time></trkpt><trkpt lat="39.86593" lon="-8.51954"><time>2022-01-15T13:50:39.000Z</time></trkpt><trkpt lat="39.86595" lon="-8.51957"><time>2022-01-15T13:50:49.000Z</time></trkpt><trkpt lat="39.86597" lon="-8.51958"><time>2022-01-15T13:50:59.000Z</time></trkpt><trkpt lat="39.86627" lon="-8.51952"><ele>234</ele><time>2022-01-15T13:50:23.000Z</time></trkpt><trkpt lat="39.86636" lon="-8.51953"><time>2022-01-15T13:50:33.000Z</time></trkpt><trkpt lat="39.8665" lon="-8.51957"><ele>230</ele><time>2022-01-15T13:50:31.000Z</time></trkpt><trkpt lat="39.86667" lon="-8.51966"><time>2022-01-15T13:50:41.000Z</time></trkpt><trkpt lat="39.86671" lon="-8.51972"><ele>230</ele><time>2022-01-15T13:50:51.000Z</time></trkpt><trkpt lat="39.86672" lon="-8.51971"><time>2022-01-15T13:51:01.000Z</time></trkpt><trkpt lat="39.86703" lon="-8.51985"><ele>226</ele><time>2022-01-15T13:51:25.000Z</time></trkpt><trkpt lat="39.86724" lon="-8.51993"><ele>225</ele><time>2022-01-15T13:51:32.000Z</time></trkpt><trkpt lat="39.8675" lon="-8.52002"><ele>225</ele><time>2022-01-15T13:51:42.000Z</time></trkpt><trkpt lat="39.8678" lon="-8.52012"><ele>223</ele><time>2022-01-15T13:51:52.000Z</time></trkpt><trkpt lat="39.86783" lon="-8.52018"><time>2022-01-15T13:52:02.000Z</time></trkpt><trkpt lat="39.86792" lon="-8.52048"><ele>221</ele><time>2022-01-15T13:52:12.000Z</time></trkpt><trkpt lat="39.86797" lon="-8.5207"><time>2022-01-15T13:52:22.000Z</time></trkpt><trkpt lat="39.86802" lon="-8.52102"><ele>221</ele><time>2022-01-15T13:52:32.000Z</time></trkpt><trkpt lat="39.86808" lon="-8.52128"><time>2022-01-15T13:52:42.000Z</time></trkpt><trkpt lat="39.86811" lon="-8.52143"><ele>221</ele><time>2022-01-15T13:52:52.000Z</time></trkpt><trkpt lat="39.86816" lon="-8.52161"><time>2022-01-15T13:53:02.000Z</time></trkpt><trkpt lat="39.86827" lon="-8.52186"><ele>222</ele><time>2022-01-15T13:52:49.000Z</time></trkpt><trkpt lat="39.86838" lon="-8.52204"><time>2022-01-15T13:52:59.000Z</time></trkpt><trkpt lat="39.86846" lon="-8.52223"><ele>223</ele><time>2022-01-15T13:53:04.000Z</time></trkpt><trkpt lat="39.86854" lon="-8.52269"><ele>229</ele><time>2022-01-15T13:53:14.000Z</time></trkpt><trkpt lat="39.86857" lon="-8.52278"><time>2022-01-15T13:53:24.000Z</time></trkpt><trkpt lat="39.86866" lon="-8.52302"><ele>231</ele><time>2022-01-15T13:53:34.000Z</time></trkpt><trkpt lat="39.86867" lon="-8.52307"><time>2022-01-15T13:53:44.000Z</time></trkpt><trkpt lat="39.86868" lon="-8.52322"><time>2022-01-15T13:53:54.000Z</time></trkpt><trkpt lat="39.86868" lon="-8.52332"><ele>234</ele><time>2022-01-15T13:54:04.000Z</time></trkpt><trkpt lat="39.86867" lon="-8.52335"><time>2022-01-15T13:54:14.000Z</time></trkpt><trkpt lat="39.86861" lon="-8.52348"><time>2022-01-15T13:54:24.000Z</time></trkpt><trkpt lat="39.86858" lon="-8.52359"><ele>238</ele><time>2022-01-15T13:54:34.000Z</time></trkpt><trkpt lat="39.86857" lon="-8.52362"><time>2022-01-15T13:54:44.000Z</time></trkpt><trkpt lat="39.86859" lon="-8.52375"><time>2022-01-15T13:54:54.000Z</time></trkpt><trkpt lat="39.86864" lon="-8.52389"><ele>238</ele><time>2022-01-15T13:54:35.000Z</time></trkpt><trkpt lat="39.86869" lon="-8.52399"><time>2022-01-15T13:54:45.000Z</time></trkpt><trkpt lat="39.86879" lon="-8.5241"><ele>239</ele><time>2022-01-15T13:54:44.000Z</time></trkpt><trkpt lat="39.86886" lon="-8.52413"><time>2022-01-15T13:54:54.000Z</time></trkpt><trkpt lat="39.86901" lon="-8.52417"><ele>242</ele><time>2022-01-15T13:54:54.000Z</time></trkpt><trkpt lat="39.8691" lon="-8.52421"><time>2022-01-15T13:55:04.000Z</time></trkpt><trkpt lat="39.8692" lon="-8.52429"><ele>242</ele><time>2022-01-15T13:55:03.000Z</time></trkpt><trkpt lat="39.86926" lon="-8.52439"><time>2022-01-15T13:55:13.000Z</time></trkpt><trkpt lat="39.86929" lon="-8.5245"><time>2022-01-15T13:55:23.000Z</time></trkpt><trkpt lat="39.86932" lon="-8.52464"><ele>242</ele><time>2022-01-15T13:55:16.000Z</time></trkpt><trkpt lat="39.86934" lon="-8.52482"><time>2022-01-15T13:55:26.000Z</time></trkpt><trkpt lat="39.86931" lon="-8.52499"><ele>246</ele><time>2022-01-15T13:55:28.000Z</time></trkpt><trkpt lat="39.86924" lon="-8.52528"><ele>249</ele><time>2022-01-15T13:55:38.000Z</time></trkpt><trkpt lat="39.86925" lon="-8.52549"><time>2022-01-15T13:55:48.000Z</time></trkpt><trkpt lat="39.86931" lon="-8.52565"><ele>249</ele><time>2022-01-15T13:55:51.000Z</time></trkpt><trkpt lat="39.86939" lon="-8.52576"><time>2022-01-15T13:56:01.000Z</time></trkpt><trkpt lat="39.86951" lon="-8.52587"><ele>249</ele><time>2022-01-15T13:56:03.000Z</time></trkpt><trkpt lat="39.86958" lon="-8.52597"><time>2022-01-15T13:56:13.000Z</time></trkpt><trkpt lat="39.86962" lon="-8.52605"><time>2022-01-15T13:56:23.000Z</time></trkpt><trkpt lat="39.86962" lon="-8.52606"><time>2022-01-15T13:56:33.000Z</time></trkpt><trkpt lat="39.86959" lon="-8.52609"><ele>253</ele><time>2022-01-15T13:56:43.000Z</time></trkpt><trkpt lat="39.86952" lon="-8.52609"><time>2022-01-15T13:56:53.000Z</time></trkpt><trkpt lat="39.86945" lon="-8.52609"><time>2022-01-15T13:57:03.000Z</time></trkpt><trkpt lat="39.86929" lon="-8.52606"><ele>254</ele><time>2022-01-15T13:56:30.000Z</time></trkpt><trkpt lat="39.86895" lon="-8.52604"><ele>255</ele><time>2022-01-15T13:56:40.000Z</time></trkpt><trkpt lat="39.86891" lon="-8.52605"><time>2022-01-15T13:56:50.000Z</time></trkpt><trkpt lat="39.86883" lon="-8.52606"><time>2022-01-15T13:57:00.000Z</time></trkpt><trkpt lat="39.86881" lon="-8.52607"><time>2022-01-15T13:57:10.000Z</time></trkpt><trkpt lat="39.86868" lon="-8.52615"><ele>256</ele><time>2022-01-15T13:57:20.000Z</time></trkpt><trkpt lat="39.86862" lon="-8.52625"><time>2022-01-15T13:57:30.000Z</time></trkpt><trkpt lat="39.86867" lon="-8.52637"><time>2022-01-15T13:57:40.000Z</time></trkpt><trkpt lat="39.86874" lon="-8.52644"><ele>256</ele><time>2022-01-15T13:57:50.000Z</time></trkpt><trkpt lat="39.86884" lon="-8.52651"><time>2022-01-15T13:58:00.000Z</time></trkpt><trkpt lat="39.86905" lon="-8.52663"><ele>258</ele><time>2022-01-15T13:58:10.000Z</time></trkpt><trkpt lat="39.86921" lon="-8.5267"><time>2022-01-15T13:58:20.000Z</time></trkpt><trkpt lat="39.86936" lon="-8.52683"><ele>261</ele><time>2022-01-15T13:58:30.000Z</time></trkpt><trkpt lat="39.86943" lon="-8.52699"><time>2022-01-15T13:58:40.000Z</time></trkpt><trkpt lat="39.86954" lon="-8.52725"><ele>256</ele><time>2022-01-15T13:58:50.000Z</time></trkpt><trkpt lat="39.86959" lon="-8.52743"><time>2022-01-15T13:59:00.000Z</time></trkpt><trkpt lat="39.86963" lon="-8.52758"><ele>252</ele><time>2022-01-15T13:59:10.000Z</time></trkpt><trkpt lat="39.86965" lon="-8.52775"><time>2022-01-15T13:59:20.000Z</time></trkpt><trkpt lat="39.86965" lon="-8.5281"><ele>242</ele><time>2022-01-15T13:59:30.000Z</time></trkpt><trkpt lat="39.86967" lon="-8.5282"><time>2022-01-15T13:59:40.000Z</time></trkpt><trkpt lat="39.86968" lon="-8.52823"><time>2022-01-15T13:59:50.000Z</time></trkpt><trkpt lat="39.86974" lon="-8.52833"><time>2022-01-15T14:00:00.000Z</time></trkpt><trkpt lat="39.86998" lon="-8.52856"><ele>242</ele><time>2022-01-15T14:00:10.000Z</time></trkpt><trkpt lat="39.86999" lon="-8.52859"><time>2022-01-15T14:00:20.000Z</time></trkpt><trkpt lat="39.87001" lon="-8.52874"><time>2022-01-15T14:00:30.000Z</time></trkpt><trkpt lat="39.87003" lon="-8.52892"><ele>238</ele><time>2022-01-15T14:00:40.000Z</time></trkpt><trkpt lat="39.87007" lon="-8.52905"><time>2022-01-15T14:00:50.000Z</time></trkpt><trkpt lat="39.8701" lon="-8.52909"><time>2022-01-15T14:01:00.000Z</time></trkpt><trkpt lat="39.87018" lon="-8.52916"><ele>238</ele><time>2022-01-15T14:01:10.000Z</time></trkpt><trkpt lat="39.87016" lon="-8.52916"><time>2022-01-15T14:01:20.000Z</time></trkpt><trkpt lat="39.87014" lon="-8.5292"><time>2022-01-15T14:01:30.000Z</time></trkpt><trkpt lat="39.87008" lon="-8.52927"><time>2022-01-15T14:01:40.000Z</time></trkpt><trkpt lat="39.87" lon="-8.52933"><ele>236</ele><time>2022-01-15T14:01:50.000Z</time></trkpt><trkpt lat="39.86994" lon="-8.52941"><time>2022-01-15T14:02:00.000Z</time></trkpt><trkpt lat="39.86988" lon="-8.52946"><time>2022-01-15T14:02:10.000Z</time></trkpt><trkpt lat="39.86985" lon="-8.52954"><ele>229</ele><time>2022-01-15T14:02:20.000Z</time></trkpt><trkpt lat="39.86984" lon="-8.52958"><time>2022-01-15T14:02:30.000Z</time></trkpt><trkpt lat="39.86984" lon="-8.52961"><time>2022-01-15T14:02:40.000Z</time></trkpt><trkpt lat="39.86985" lon="-8.52971"><time>2022-01-15T14:02:50.000Z</time></trkpt><trkpt lat="39.86988" lon="-8.5298"><time>2022-01-15T14:03:00.000Z</time></trkpt><trkpt lat="39.86992" lon="-8.52991"><ele>227</ele><time>2022-01-15T14:03:10.000Z</time></trkpt><trkpt lat="39.87" lon="-8.52999"><time>2022-01-15T14:03:20.000Z</time></trkpt><trkpt lat="39.87002" lon="-8.53001"><time>2022-01-15T14:03:30.000Z</time></trkpt><trkpt lat="39.87018" lon="-8.53006"><ele>227</ele><time>2022-01-15T14:03:40.000Z</time></trkpt><trkpt lat="39.87026" lon="-8.5301"><time>2022-01-15T14:03:50.000Z</time></trkpt><trkpt lat="39.87033" lon="-8.53015"><time>2022-01-15T14:04:00.000Z</time></trkpt><trkpt lat="39.87043" lon="-8.53026"><ele>224</ele><time>2022-01-15T14:04:10.000Z</time></trkpt><trkpt lat="39.87046" lon="-8.53031"><time>2022-01-15T14:04:20.000Z</time></trkpt><trkpt lat="39.87048" lon="-8.53037"><time>2022-01-15T14:04:30.000Z</time></trkpt><trkpt lat="39.87048" lon="-8.53046"><time>2022-01-15T14:04:40.000Z</time></trkpt><trkpt lat="39.87042" lon="-8.53053"><ele>219</ele><time>2022-01-15T14:04:50.000Z</time></trkpt><trkpt lat="39.87039" lon="-8.53055"><time>2022-01-15T14:05:00.000Z</time></trkpt><trkpt lat="39.87027" lon="-8.5306"><time>2022-01-15T14:05:10.000Z</time></trkpt><trkpt lat="39.87013" lon="-8.53068"><ele>217</ele><time>2022-01-15T14:01:18.000Z</time></trkpt><trkpt lat="39.87007" lon="-8.53074"><time>2022-01-15T14:01:28.000Z</time></trkpt><trkpt lat="39.87001" lon="-8.53084"><time>2022-01-15T14:01:38.000Z</time></trkpt><trkpt lat="39.86999" lon="-8.53091"><ele>214</ele><time>2022-01-15T14:01:48.000Z</time></trkpt><trkpt lat="39.86999" lon="-8.53097"><time>2022-01-15T14:01:58.000Z</time></trkpt><trkpt lat="39.87014" lon="-8.53104"><ele>214</ele><time>2022-01-15T14:02:08.000Z</time></trkpt><trkpt lat="39.87024" lon="-8.53109"><time>2022-01-15T14:02:18.000Z</time></trkpt><trkpt lat="39.87032" lon="-8.53118"><time>2022-01-15T14:02:28.000Z</time></trkpt><trkpt lat="39.8704" lon="-8.53135"><ele>210</ele><time>2022-01-15T14:02:03.000Z</time></trkpt><trkpt lat="39.87046" lon="-8.53152"><time>2022-01-15T14:02:13.000Z</time></trkpt><trkpt lat="39.87051" lon="-8.53171"><ele>209</ele><time>2022-01-15T14:02:15.000Z</time></trkpt><trkpt lat="39.87056" lon="-8.53194"><time>2022-01-15T14:02:25.000Z</time></trkpt><trkpt lat="39.8706" lon="-8.53206"><ele>201</ele><time>2022-01-15T14:02:26.000Z</time></trkpt><trkpt lat="39.87063" lon="-8.53215"><time>2022-01-15T14:02:36.000Z</time></trkpt><trkpt lat="39.87072" lon="-8.53232"><ele>200</ele><time>2022-01-15T14:02:35.000Z</time></trkpt><trkpt lat="39.87084" lon="-8.5325"><time>2022-01-15T14:02:45.000Z</time></trkpt><trkpt lat="39.8709" lon="-8.53256"><ele>200</ele><time>2022-01-15T14:02:55.000Z</time></trkpt><trkpt lat="39.87099" lon="-8.53264"><time>2022-01-15T14:03:05.000Z</time></trkpt><trkpt lat="39.87109" lon="-8.53266"><ele>198</ele><time>2022-01-15T14:03:15.000Z</time></trkpt><trkpt lat="39.87122" lon="-8.53268"><time>2022-01-15T14:03:25.000Z</time></trkpt><trkpt lat="39.87142" lon="-8.53268"><ele>200</ele><time>2022-01-15T14:03:35.000Z</time></trkpt><trkpt lat="39.87158" lon="-8.5327"><time>2022-01-15T14:03:45.000Z</time></trkpt><trkpt lat="39.87168" lon="-8.53272"><ele>200</ele><time>2022-01-15T14:03:55.000Z</time></trkpt><trkpt lat="39.87181" lon="-8.53277"><time>2022-01-15T14:04:05.000Z</time></trkpt><trkpt lat="39.8719" lon="-8.53285"><ele>200</ele><time>2022-01-15T14:04:15.000Z</time></trkpt><trkpt lat="39.87197" lon="-8.53295"><time>2022-01-15T14:04:25.000Z</time></trkpt><trkpt lat="39.87205" lon="-8.53312"><ele>199</ele><time>2022-01-15T14:04:35.000Z</time></trkpt><trkpt lat="39.87208" lon="-8.53321"><time>2022-01-15T14:04:45.000Z</time></trkpt><trkpt lat="39.87212" lon="-8.5336"><ele>198</ele><time>2022-01-15T14:04:55.000Z</time></trkpt><trkpt lat="39.87214" lon="-8.53383"><time>2022-01-15T14:05:05.000Z</time></trkpt><trkpt lat="39.87217" lon="-8.5341"><ele>197</ele><time>2022-01-15T14:05:15.000Z</time></trkpt><trkpt lat="39.87219" lon="-8.53433"><time>2022-01-15T14:05:25.000Z</time></trkpt><trkpt lat="39.87222" lon="-8.53462"><ele>190</ele><time>2022-01-15T14:05:35.000Z</time></trkpt><trkpt lat="39.87225" lon="-8.53488"><time>2022-01-15T14:05:45.000Z</time></trkpt><trkpt lat="39.87229" lon="-8.53524"><ele>182</ele><time>2022-01-15T14:04:43.000Z</time></trkpt><trkpt lat="39.87234" lon="-8.53556"><ele>182</ele><time>2022-01-15T14:04:54.000Z</time></trkpt><trkpt lat="39.87242" lon="-8.53584"><ele>182</ele><time>2022-01-15T14:05:04.000Z</time></trkpt><trkpt lat="39.87244" lon="-8.53598"><time>2022-01-15T14:05:14.000Z</time></trkpt><trkpt lat="39.87255" lon="-8.53657"><ele>182</ele><time>2022-01-15T14:05:29.000Z</time></trkpt><trkpt lat="39.87265" lon="-8.53698"><ele>187</ele><time>2022-01-15T14:05:39.000Z</time></trkpt><trkpt lat="39.87286" lon="-8.53775"><ele>188</ele><time>2022-02-12T16:14:34.000Z</time></trkpt><trkpt lat="39.87289" lon="-8.53773"><time>2022-02-12T16:14:44.000Z</time></trkpt><trkpt lat="39.87299" lon="-8.5375"><ele>190</ele><time>2022-02-12T16:14:34.000Z</time></trkpt><trkpt lat="39.87312" lon="-8.53718"><ele>197</ele><time>2022-02-12T16:14:34.000Z</time></trkpt><trkpt lat="39.8732" lon="-8.53703"><time>2022-02-12T16:14:44.000Z</time></trkpt><trkpt lat="39.87323" lon="-8.53694"><ele>205</ele><time>2022-02-12T16:14:34.000Z</time></trkpt><trkpt lat="39.87341" lon="-8.53659"><ele>204</ele><time>2022-02-12T16:14:44.000Z</time></trkpt><trkpt lat="39.87346" lon="-8.53644"><time>2022-02-12T16:14:54.000Z</time></trkpt><trkpt lat="39.87346" lon="-8.53641"><time>2022-02-12T16:15:04.000Z</time></trkpt><trkpt lat="39.87353" lon="-8.53621"><ele>204</ele><time>2022-02-12T16:15:14.000Z</time></trkpt><trkpt lat="39.87354" lon="-8.53611"><time>2022-02-12T16:15:24.000Z</time></trkpt><trkpt lat="39.87361" lon="-8.53563"><ele>211</ele><time>2022-02-12T16:14:34.000Z</time></trkpt><trkpt lat="39.87373" lon="-8.53531"><ele>210</ele><time>2022-02-12T16:14:44.000Z</time></trkpt><trkpt lat="39.87382" lon="-8.53525"><time>2022-02-12T16:14:54.000Z</time></trkpt><trkpt lat="39.8738" lon="-8.53554"><ele>210</ele><time>2022-02-12T16:14:35.000Z</time></trkpt><trkpt lat="39.87383" lon="-8.53585"><ele>209</ele><time>2022-02-12T16:14:35.000Z</time></trkpt><trkpt lat="39.87383" lon="-8.53603"><time>2022-02-12T16:14:45.000Z</time></trkpt><trkpt lat="39.87381" lon="-8.53604"><time>2022-02-12T16:14:55.000Z</time></trkpt><trkpt lat="39.8739" lon="-8.53612"><ele>205</ele><time>2022-02-12T16:15:05.000Z</time></trkpt><trkpt lat="39.87396" lon="-8.53613"><time>2022-02-12T16:15:15.000Z</time></trkpt><trkpt lat="39.87401" lon="-8.53619"><time>2022-02-12T16:15:25.000Z</time></trkpt><trkpt lat="39.87402" lon="-8.5362"><time>2022-02-12T16:15:35.000Z</time></trkpt><trkpt lat="39.87404" lon="-8.53627"><time>2022-02-12T16:15:45.000Z</time></trkpt><trkpt lat="39.87407" lon="-8.5363"><ele>202</ele><time>2022-02-12T16:15:55.000Z</time></trkpt><trkpt lat="39.8741" lon="-8.53637"><time>2022-02-12T16:16:05.000Z</time></trkpt><trkpt lat="39.87408" lon="-8.53686"><ele>198</ele><time>2022-02-12T16:16:15.000Z</time></trkpt><trkpt lat="39.87411" lon="-8.5371"><time>2022-02-12T16:16:25.000Z</time></trkpt><trkpt lat="39.87421" lon="-8.53743"><ele>193</ele><time>2022-02-12T16:14:38.000Z</time></trkpt><trkpt lat="39.87426" lon="-8.53753"><time>2022-02-12T16:14:48.000Z</time></trkpt><trkpt lat="39.87435" lon="-8.53775"><ele>191</ele><time>2022-02-12T16:14:38.000Z</time></trkpt><trkpt lat="39.87439" lon="-8.538"><time>2022-02-12T16:14:48.000Z</time></trkpt><trkpt lat="39.87444" lon="-8.5381"><ele>191</ele><time>2022-02-12T16:14:39.000Z</time></trkpt><trkpt lat="39.87453" lon="-8.53832"><time>2022-02-12T16:14:49.000Z</time></trkpt><trkpt lat="39.8745" lon="-8.53837"><ele>190</ele><time>2022-02-12T16:14:39.000Z</time></trkpt><trkpt lat="39.87425" lon="-8.53855"><ele>190</ele><time>2022-02-12T16:14:49.000Z</time></trkpt><trkpt lat="39.8742" lon="-8.53864"><time>2022-02-12T16:14:59.000Z</time></trkpt><trkpt lat="39.87403" lon="-8.53882"><ele>191</ele><time>2022-02-12T16:15:09.000Z</time></trkpt><trkpt lat="39.87392" lon="-8.53885"><time>2022-02-12T16:15:19.000Z</time></trkpt><trkpt lat="39.8738" lon="-8.53879"><ele>190</ele><time>2022-02-12T16:15:29.000Z</time></trkpt><trkpt lat="39.87362" lon="-8.53881"><time>2022-02-12T16:15:39.000Z</time></trkpt><trkpt lat="39.87343" lon="-8.53885"><ele>190</ele><time>2022-02-12T16:15:49.000Z</time></trkpt><trkpt lat="39.87326" lon="-8.53883"><time>2022-02-12T16:15:59.000Z</time></trkpt><trkpt lat="39.8731" lon="-8.53883"><ele>186</ele><time>2022-02-12T16:16:09.000Z</time></trkpt><trkpt lat="39.87306" lon="-8.53893"><time>2022-02-12T16:16:19.000Z</time></trkpt><trkpt lat="39.87299" lon="-8.53904"><time>2022-02-12T16:16:29.000Z</time></trkpt><trkpt lat="39.873" lon="-8.53905"><time>2022-02-12T16:16:39.000Z</time></trkpt><trkpt lat="39.87289" lon="-8.53926"><ele>182</ele><time>2022-02-12T16:16:49.000Z</time></trkpt><trkpt lat="39.87289" lon="-8.53926"><time>2022-02-12T16:16:59.000Z</time></trkpt><trkpt lat="39.87284" lon="-8.53933"><time>2022-02-12T16:17:09.000Z</time></trkpt><trkpt lat="39.87275" lon="-8.53943"><time>2022-02-12T16:17:19.000Z</time></trkpt><trkpt lat="39.87271" lon="-8.53951"><ele>178</ele><time>2022-02-12T16:17:29.000Z</time></trkpt><trkpt lat="39.8727" lon="-8.53954"><time>2022-02-12T16:17:39.000Z</time></trkpt><trkpt lat="39.87261" lon="-8.53967"><time>2022-02-12T16:17:49.000Z</time></trkpt><trkpt lat="39.87251" lon="-8.53986"><ele>173</ele><time>2022-02-12T16:17:59.000Z</time></trkpt><trkpt lat="39.87249" lon="-8.53991"><time>2022-02-12T16:18:09.000Z</time></trkpt><trkpt lat="39.87248" lon="-8.53997"><time>2022-02-12T16:18:19.000Z</time></trkpt><trkpt lat="39.87245" lon="-8.54006"><time>2022-02-12T16:18:29.000Z</time></trkpt><trkpt lat="39.87231" lon="-8.54028"><ele>171</ele><time>2022-01-15T10:14:21.000Z</time></trkpt><trkpt lat="39.87215" lon="-8.54066"><ele>168</ele><time>2022-01-15T10:14:31.000Z</time></trkpt><trkpt lat="39.87212" lon="-8.54069"><time>2022-01-15T10:14:41.000Z</time></trkpt><trkpt lat="39.87209" lon="-8.54069"><time>2022-01-15T10:14:51.000Z</time></trkpt><trkpt lat="39.87206" lon="-8.54068"><time>2022-01-15T10:15:01.000Z</time></trkpt><trkpt lat="39.87198" lon="-8.54047"><ele>167</ele><time>2022-01-15T10:15:11.000Z</time></trkpt><trkpt lat="39.87195" lon="-8.5404"><time>2022-01-15T10:15:21.000Z</time></trkpt><trkpt lat="39.87191" lon="-8.54037"><time>2022-01-15T10:15:31.000Z</time></trkpt><trkpt lat="39.87183" lon="-8.54033"><time>2022-01-15T10:15:41.000Z</time></trkpt><trkpt lat="39.87175" lon="-8.54029"><ele>166</ele><time>2022-01-15T10:15:51.000Z</time></trkpt><trkpt lat="39.8717" lon="-8.54029"><time>2022-01-15T10:16:01.000Z</time></trkpt><trkpt lat="39.87167" lon="-8.54033"><time>2022-01-15T10:16:11.000Z</time></trkpt><trkpt lat="39.87165" lon="-8.54037"><time>2022-01-15T10:16:21.000Z</time></trkpt><trkpt lat="39.87164" lon="-8.54044"><time>2022-01-15T10:16:31.000Z</time></trkpt><trkpt lat="39.87164" lon="-8.54055"><ele>165</ele><time>2022-01-15T10:16:41.000Z</time></trkpt><trkpt lat="39.87162" lon="-8.54062"><time>2022-01-15T10:16:51.000Z</time></trkpt><trkpt lat="39.87161" lon="-8.54077"><time>2022-01-15T10:17:01.000Z</time></trkpt><trkpt lat="39.87154" lon="-8.54099"><ele>165</ele><time>2022-01-15T10:15:17.000Z</time></trkpt><trkpt lat="39.87148" lon="-8.54115"><time>2022-01-15T10:15:27.000Z</time></trkpt><trkpt lat="39.87147" lon="-8.54118"><time>2022-01-15T10:15:37.000Z</time></trkpt><trkpt lat="39.87144" lon="-8.54126"><ele>162</ele><time>2022-01-15T10:15:47.000Z</time></trkpt><trkpt lat="39.87138" lon="-8.54133"><time>2022-01-15T10:15:57.000Z</time></trkpt><trkpt lat="39.87125" lon="-8.54147"><ele>159</ele><time>2022-01-15T10:16:07.000Z</time></trkpt><trkpt lat="39.87118" lon="-8.54158"><time>2022-01-15T10:16:17.000Z</time></trkpt><trkpt lat="39.87114" lon="-8.54168"><time>2022-01-15T10:16:27.000Z</time></trkpt><trkpt lat="39.87107" lon="-8.54189"><ele>153</ele><time>2022-01-15T10:15:49.000Z</time></trkpt><trkpt lat="39.87102" lon="-8.54202"><time>2022-01-15T10:15:59.000Z</time></trkpt><trkpt lat="39.87098" lon="-8.54208"><time>2022-01-15T10:16:09.000Z</time></trkpt><trkpt lat="39.87087" lon="-8.54218"><ele>148</ele><time>2022-01-15T10:16:00.000Z</time></trkpt><trkpt lat="39.87083" lon="-8.54226"><time>2022-01-15T10:16:10.000Z</time></trkpt><trkpt lat="39.87083" lon="-8.54232"><time>2022-01-15T10:16:20.000Z</time></trkpt><trkpt lat="39.87083" lon="-8.54242"><time>2022-01-15T10:16:30.000Z</time></trkpt><trkpt lat="39.87082" lon="-8.54248"><ele>147</ele><time>2022-01-15T10:16:10.000Z</time></trkpt><trkpt lat="39.87078" lon="-8.5426"><time>2022-01-15T10:16:20.000Z</time></trkpt><trkpt lat="39.87077" lon="-8.54274"><time>2022-01-15T10:16:30.000Z</time></trkpt><trkpt lat="39.87077" lon="-8.54277"><ele>146</ele><time>2022-01-15T10:16:18.000Z</time></trkpt><trkpt lat="39.87078" lon="-8.54292"><time>2022-01-15T10:16:28.000Z</time></trkpt><trkpt lat="39.87081" lon="-8.54302"><time>2022-01-15T10:16:38.000Z</time></trkpt><trkpt lat="39.87084" lon="-8.54307"><ele>146</ele><time>2022-01-15T10:16:27.000Z</time></trkpt><trkpt lat="39.87089" lon="-8.54311"><time>2022-01-15T10:16:37.000Z</time></trkpt><trkpt lat="39.87097" lon="-8.54316"><time>2022-01-15T10:16:47.000Z</time></trkpt><trkpt lat="39.87104" lon="-8.54319"><ele>147</ele><time>2022-01-15T10:16:36.000Z</time></trkpt><trkpt lat="39.87114" lon="-8.54321"><time>2022-01-15T10:16:46.000Z</time></trkpt><trkpt lat="39.8712" lon="-8.54323"><time>2022-01-15T10:16:56.000Z</time></trkpt><trkpt lat="39.87131" lon="-8.54323"><ele>149</ele><time>2022-01-15T10:16:49.000Z</time></trkpt><trkpt lat="39.87149" lon="-8.54324"><time>2022-01-15T10:16:59.000Z</time></trkpt><trkpt lat="39.87156" lon="-8.54326"><ele>149</ele><time>2022-01-15T10:17:02.000Z</time></trkpt><trkpt lat="39.87181" lon="-8.54334"><ele>152</ele><time>2022-01-15T10:17:12.000Z</time></trkpt><trkpt lat="39.87187" lon="-8.54339"><time>2022-01-15T10:17:22.000Z</time></trkpt><trkpt lat="39.87191" lon="-8.54342"><time>2022-01-15T10:17:32.000Z</time></trkpt><trkpt lat="39.87198" lon="-8.54348"><time>2022-01-15T10:17:42.000Z</time></trkpt><trkpt lat="39.87206" lon="-8.54357"><ele>160</ele><time>2022-01-15T10:17:29.000Z</time></trkpt><trkpt lat="39.87224" lon="-8.5437"><time>2022-01-15T10:17:39.000Z</time></trkpt><trkpt lat="39.87234" lon="-8.54383"><ele>163</ele><time>2022-01-15T10:17:48.000Z</time></trkpt><trkpt lat="39.87238" lon="-8.54386"><time>2022-01-15T10:17:58.000Z</time></trkpt><trkpt lat="39.8724" lon="-8.54389"><time>2022-01-15T10:18:08.000Z</time></trkpt><trkpt lat="39.87246" lon="-8.54396"><time>2022-01-15T10:18:18.000Z</time></trkpt><trkpt lat="39.87253" lon="-8.54401"><ele>164</ele><time>2022-01-15T10:18:03.000Z</time></trkpt><trkpt lat="39.87262" lon="-8.54409"><time>2022-01-15T10:18:13.000Z</time></trkpt><trkpt lat="39.87263" lon="-8.54411"><time>2022-01-15T10:18:23.000Z</time></trkpt><trkpt lat="39.87265" lon="-8.54412"><time>2022-01-15T10:18:33.000Z</time></trkpt><trkpt lat="39.87271" lon="-8.54421"><ele>166</ele><time>2022-01-15T10:18:43.000Z</time></trkpt><trkpt lat="39.87276" lon="-8.54426"><time>2022-01-15T10:18:53.000Z</time></trkpt><trkpt lat="39.87286" lon="-8.54438"><time>2022-01-15T10:19:03.000Z</time></trkpt><trkpt lat="39.87288" lon="-8.5444"><ele>168</ele><time>2022-01-15T10:19:13.000Z</time></trkpt><trkpt lat="39.87289" lon="-8.54443"><time>2022-01-15T10:19:23.000Z</time></trkpt><trkpt lat="39.87288" lon="-8.54452"><time>2022-01-15T10:19:33.000Z</time></trkpt><trkpt lat="39.87286" lon="-8.54462"><time>2022-01-15T10:19:43.000Z</time></trkpt><trkpt lat="39.87279" lon="-8.54482"><ele>172</ele><time>2022-01-15T10:18:46.000Z</time></trkpt><trkpt lat="39.87269" lon="-8.54507"><ele>173</ele><time>2022-01-15T10:18:55.000Z</time></trkpt><trkpt lat="39.87266" lon="-8.54517"><time>2022-01-15T10:19:05.000Z</time></trkpt><trkpt lat="39.87265" lon="-8.54523"><time>2022-01-15T10:19:15.000Z</time></trkpt><trkpt lat="39.87259" lon="-8.54538"><ele>174</ele><time>2022-01-15T10:19:05.000Z</time></trkpt><trkpt lat="39.87256" lon="-8.5455"><time>2022-01-15T10:19:15.000Z</time></trkpt><trkpt lat="39.87253" lon="-8.54557"><time>2022-01-15T10:19:25.000Z</time></trkpt><trkpt lat="39.8725" lon="-8.54569"><ele>174</ele><time>2022-01-15T10:19:15.000Z</time></trkpt><trkpt lat="39.87245" lon="-8.54582"><time>2022-01-15T10:19:25.000Z</time></trkpt><trkpt lat="39.87242" lon="-8.54594"><ele>175</ele><time>2022-01-15T10:19:23.000Z</time></trkpt><trkpt lat="39.87229" lon="-8.54636"><ele>177</ele><time>2022-01-15T10:19:33.000Z</time></trkpt><trkpt lat="39.87227" lon="-8.54648"><time>2022-01-15T10:19:43.000Z</time></trkpt><trkpt lat="39.87225" lon="-8.54651"><time>2022-01-15T10:19:53.000Z</time></trkpt><trkpt lat="39.87223" lon="-8.54668"><ele>177</ele><time>2022-01-15T10:20:03.000Z</time></trkpt><trkpt lat="39.87223" lon="-8.54676"><time>2022-01-15T10:20:13.000Z</time></trkpt><trkpt lat="39.87224" lon="-8.54689"><time>2022-01-15T10:20:23.000Z</time></trkpt><trkpt lat="39.87224" lon="-8.54696"><ele>173</ele><time>2022-01-15T10:20:33.000Z</time></trkpt><trkpt lat="39.87225" lon="-8.54701"><time>2022-01-15T10:20:43.000Z</time></trkpt><trkpt lat="39.87225" lon="-8.54704"><time>2022-01-15T10:20:53.000Z</time></trkpt><trkpt lat="39.87225" lon="-8.54754"><ele>167</ele><time>2022-01-15T10:20:12.000Z</time></trkpt><trkpt lat="39.87226" lon="-8.54768"><time>2022-01-15T10:20:22.000Z</time></trkpt><trkpt lat="39.87227" lon="-8.54777"><time>2022-01-15T10:20:32.000Z</time></trkpt><trkpt lat="39.87226" lon="-8.54787"><ele>164</ele><time>2022-01-15T10:20:22.000Z</time></trkpt><trkpt lat="39.87225" lon="-8.54793"><time>2022-01-15T10:20:32.000Z</time></trkpt><trkpt lat="39.87222" lon="-8.54803"><time>2022-01-15T10:20:42.000Z</time></trkpt><trkpt lat="39.87217" lon="-8.54815"><ele>160</ele><time>2022-01-15T10:20:31.000Z</time></trkpt><trkpt lat="39.87193" lon="-8.54845"><ele>159</ele><time>2022-01-15T10:20:44.000Z</time></trkpt><trkpt lat="39.87177" lon="-8.54868"><ele>159</ele><time>2022-01-15T10:20:54.000Z</time></trkpt><trkpt lat="39.87172" lon="-8.5488"><time>2022-01-15T10:21:04.000Z</time></trkpt><trkpt lat="39.87171" lon="-8.54887"><time>2022-01-15T10:21:14.000Z</time></trkpt><trkpt lat="39.87171" lon="-8.54906"><ele>156</ele><time>2022-01-15T10:21:24.000Z</time></trkpt><trkpt lat="39.87173" lon="-8.54914"><time>2022-01-15T10:21:34.000Z</time></trkpt><trkpt lat="39.87173" lon="-8.54921"><time>2022-01-15T10:21:44.000Z</time></trkpt><trkpt lat="39.87174" lon="-8.54927"><time>2022-01-15T10:21:54.000Z</time></trkpt><trkpt lat="39.87178" lon="-8.54944"><ele>156</ele><time>2022-01-15T10:22:04.000Z</time></trkpt><trkpt lat="39.87178" lon="-8.5495"><time>2022-01-15T10:22:14.000Z</time></trkpt><trkpt lat="39.87179" lon="-8.54952"><time>2022-01-15T10:22:24.000Z</time></trkpt><trkpt lat="39.8718" lon="-8.54956"><time>2022-01-15T10:22:34.000Z</time></trkpt><trkpt lat="39.87181" lon="-8.54961"><time>2022-01-15T10:22:44.000Z</time></trkpt><trkpt lat="39.87183" lon="-8.54965"><time>2022-01-15T10:22:54.000Z</time></trkpt><trkpt lat="39.87184" lon="-8.5498"><ele>157</ele><time>2022-01-15T10:23:04.000Z</time></trkpt><trkpt lat="39.87185" lon="-8.54982"><time>2022-01-15T10:23:14.000Z</time></trkpt><trkpt lat="39.87186" lon="-8.54991"><time>2022-01-15T10:23:24.000Z</time></trkpt><trkpt lat="39.87187" lon="-8.54993"><time>2022-01-15T10:23:34.000Z</time></trkpt><trkpt lat="39.87188" lon="-8.55"><time>2022-01-15T10:23:44.000Z</time></trkpt><trkpt lat="39.87189" lon="-8.55009"><ele>157</ele><time>2022-01-15T10:23:54.000Z</time></trkpt><trkpt lat="39.8719" lon="-8.55011"><time>2022-01-15T10:24:04.000Z</time></trkpt><trkpt lat="39.87191" lon="-8.55016"><time>2022-01-15T10:24:14.000Z</time></trkpt><trkpt lat="39.87193" lon="-8.55025"><time>2022-01-15T10:24:24.000Z</time></trkpt><trkpt lat="39.87198" lon="-8.55042"><ele>162</ele><time>2022-01-15T10:24:34.000Z</time></trkpt><trkpt lat="39.87199" lon="-8.5505"><time>2022-01-15T10:24:44.000Z</time></trkpt><trkpt lat="39.872" lon="-8.55052"><time>2022-01-15T10:24:54.000Z</time></trkpt><trkpt lat="39.87204" lon="-8.55089"><ele>162</ele><time>2022-01-15T10:25:04.000Z</time></trkpt><trkpt lat="39.87206" lon="-8.55102"><time>2022-01-15T10:25:14.000Z</time></trkpt><trkpt lat="39.87207" lon="-8.55107"><time>2022-01-15T10:25:24.000Z</time></trkpt><trkpt lat="39.87209" lon="-8.55109"><time>2022-01-15T10:25:34.000Z</time></trkpt><trkpt lat="39.87211" lon="-8.55109"><time>2022-01-15T10:25:44.000Z</time></trkpt><trkpt lat="39.87214" lon="-8.5511"><ele>163</ele><time>2022-01-15T10:25:54.000Z</time></trkpt><trkpt lat="39.87225" lon="-8.55108"><time>2022-01-15T10:26:04.000Z</time></trkpt><trkpt lat="39.87229" lon="-8.55109"><time>2022-01-15T10:26:14.000Z</time></trkpt><trkpt lat="39.87237" lon="-8.55107"><ele>163</ele><time>2022-01-15T10:26:24.000Z</time></trkpt><trkpt lat="39.87243" lon="-8.55108"><time>2022-01-15T10:26:34.000Z</time></trkpt><trkpt lat="39.87251" lon="-8.55108"><time>2022-01-15T10:26:44.000Z</time></trkpt><trkpt lat="39.87257" lon="-8.55107"><time>2022-01-15T10:26:54.000Z</time></trkpt><trkpt lat="39.87263" lon="-8.55104"><ele>169</ele><time>2022-01-15T10:27:04.000Z</time></trkpt><trkpt lat="39.87274" lon="-8.55103"><time>2022-01-15T10:27:14.000Z</time></trkpt><trkpt lat="39.87289" lon="-8.55099"><ele>178</ele><time>2022-01-15T10:27:24.000Z</time></trkpt><trkpt lat="39.87302" lon="-8.55097"><time>2022-01-15T10:27:34.000Z</time></trkpt><trkpt lat="39.87305" lon="-8.55095"><time>2022-01-15T10:27:44.000Z</time></trkpt><trkpt lat="39.87319" lon="-8.55093"><ele>182</ele><time>2022-01-15T10:27:54.000Z</time></trkpt><trkpt lat="39.87334" lon="-8.55088"><time>2022-01-15T10:28:04.000Z</time></trkpt><trkpt lat="39.87346" lon="-8.55087"><ele>185</ele><time>2022-01-15T10:28:14.000Z</time></trkpt><trkpt lat="39.87351" lon="-8.55088"><time>2022-01-15T10:28:24.000Z</time></trkpt><trkpt lat="39.87354" lon="-8.55088"><time>2022-01-15T10:28:34.000Z</time></trkpt><trkpt lat="39.87363" lon="-8.55085"><time>2022-01-15T10:28:44.000Z</time></trkpt><trkpt lat="39.87376" lon="-8.55083"><ele>190</ele><time>2022-01-15T10:28:54.000Z</time></trkpt><trkpt lat="39.8738" lon="-8.55083"><time>2022-01-15T10:29:04.000Z</time></trkpt><trkpt lat="39.87382" lon="-8.55082"><time>2022-01-15T10:29:14.000Z</time></trkpt><trkpt lat="39.87384" lon="-8.55083"><time>2022-01-15T10:29:24.000Z</time></trkpt><trkpt lat="39.87386" lon="-8.55081"><time>2022-01-15T10:29:34.000Z</time></trkpt><trkpt lat="39.87387" lon="-8.55082"><time>2022-01-15T10:29:44.000Z</time></trkpt><trkpt lat="39.87392" lon="-8.55088"><time>2022-01-15T10:29:54.000Z</time></trkpt><trkpt lat="39.87394" lon="-8.55086"><ele>192</ele><time>2022-01-15T10:30:04.000Z</time></trkpt><trkpt lat="39.87397" lon="-8.5508"><time>2022-01-15T10:30:14.000Z</time></trkpt><trkpt lat="39.87402" lon="-8.55077"><time>2022-01-15T10:30:24.000Z</time></trkpt><trkpt lat="39.87404" lon="-8.55078"><time>2022-01-15T10:30:34.000Z</time></trkpt><trkpt lat="39.87413" lon="-8.55079"><ele>195</ele><time>2022-01-15T10:30:44.000Z</time></trkpt><trkpt lat="39.87425" lon="-8.55078"><time>2022-01-15T10:30:54.000Z</time></trkpt><trkpt lat="39.87427" lon="-8.55078"><time>2022-01-15T10:31:04.000Z</time></trkpt><trkpt lat="39.87429" lon="-8.55081"><time>2022-01-15T10:31:14.000Z</time></trkpt><trkpt lat="39.87432" lon="-8.55081"><time>2022-01-15T10:31:24.000Z</time></trkpt><trkpt lat="39.87436" lon="-8.55086"><ele>195</ele><time>2022-01-15T10:31:34.000Z</time></trkpt><trkpt lat="39.87438" lon="-8.55087"><time>2022-01-15T10:31:44.000Z</time></trkpt><trkpt lat="39.87447" lon="-8.55089"><time>2022-01-15T10:31:54.000Z</time></trkpt><trkpt lat="39.87452" lon="-8.55088"><time>2022-01-15T10:32:04.000Z</time></trkpt><trkpt lat="39.87454" lon="-8.55089"><time>2022-01-15T10:32:14.000Z</time></trkpt><trkpt lat="39.87467" lon="-8.55093"><ele>196</ele><time>2022-01-15T10:32:24.000Z</time></trkpt><trkpt lat="39.8747" lon="-8.55094"><time>2022-01-15T10:32:34.000Z</time></trkpt><trkpt lat="39.87481" lon="-8.55102"><time>2022-01-15T10:32:44.000Z</time></trkpt><trkpt lat="39.87489" lon="-8.55111"><ele>196</ele><time>2022-01-15T10:32:54.000Z</time></trkpt><trkpt lat="39.8749" lon="-8.55113"><time>2022-01-15T10:33:04.000Z</time></trkpt><trkpt lat="39.87491" lon="-8.55116"><time>2022-01-15T10:33:14.000Z</time></trkpt><trkpt lat="39.87499" lon="-8.55124"><time>2022-01-15T10:33:24.000Z</time></trkpt><trkpt lat="39.87505" lon="-8.55132"><ele>206</ele><time>2022-01-15T10:33:34.000Z</time></trkpt><trkpt lat="39.87509" lon="-8.55141"><time>2022-01-15T10:33:44.000Z</time></trkpt><trkpt lat="39.87515" lon="-8.55151"><time>2022-01-15T10:33:54.000Z</time></trkpt><trkpt lat="39.87518" lon="-8.55155"><ele>206</ele><time>2022-01-15T10:34:04.000Z</time></trkpt><trkpt lat="39.87523" lon="-8.55164"><time>2022-01-15T10:34:14.000Z</time></trkpt><trkpt lat="39.87531" lon="-8.55175"><time>2022-01-15T10:34:24.000Z</time></trkpt><trkpt lat="39.8754" lon="-8.5518"><ele>207</ele><time>2022-01-15T10:34:34.000Z</time></trkpt><trkpt lat="39.87548" lon="-8.55182"><time>2022-01-15T10:34:44.000Z</time></trkpt><trkpt lat="39.8755" lon="-8.55183"><time>2022-01-15T10:34:54.000Z</time></trkpt><trkpt lat="39.87552" lon="-8.55185"><time>2022-01-15T10:35:04.000Z</time></trkpt><trkpt lat="39.87552" lon="-8.55189"><time>2022-01-15T10:35:14.000Z</time></trkpt><trkpt lat="39.8755" lon="-8.552"><ele>207</ele><time>2022-01-15T10:35:24.000Z</time></trkpt><trkpt lat="39.87549" lon="-8.55203"><time>2022-01-15T10:35:34.000Z</time></trkpt><trkpt lat="39.87547" lon="-8.55214"><time>2022-01-15T10:35:44.000Z</time></trkpt><trkpt lat="39.87545" lon="-8.55235"><ele>206</ele><time>2022-01-15T10:35:54.000Z</time></trkpt><trkpt lat="39.87545" lon="-8.55249"><time>2022-01-15T10:36:04.000Z</time></trkpt><trkpt lat="39.87546" lon="-8.5526"><time>2022-01-15T10:36:14.000Z</time></trkpt><trkpt lat="39.87547" lon="-8.55298"><ele>205</ele><time>2022-01-15T10:36:24.000Z</time></trkpt><trkpt lat="39.87548" lon="-8.55309"><time>2022-01-15T10:36:34.000Z</time></trkpt><trkpt lat="39.87548" lon="-8.55328"><ele>203</ele><time>2022-01-15T10:36:44.000Z</time></trkpt><trkpt lat="39.87546" lon="-8.55337"><time>2022-01-15T10:36:54.000Z</time></trkpt><trkpt lat="39.87543" lon="-8.55345"><time>2022-01-15T10:37:04.000Z</time></trkpt><trkpt lat="39.87541" lon="-8.55347"><time>2022-01-15T10:37:14.000Z</time></trkpt><trkpt lat="39.87538" lon="-8.55352"><ele>202</ele><time>2022-01-15T10:37:24.000Z</time></trkpt><trkpt lat="39.87534" lon="-8.55364"><time>2022-01-15T10:37:34.000Z</time></trkpt><trkpt lat="39.87531" lon="-8.5537"><time>2022-01-15T10:37:44.000Z</time></trkpt><trkpt lat="39.87528" lon="-8.5538"><ele>201</ele><time>2022-01-15T10:37:54.000Z</time></trkpt><trkpt lat="39.87525" lon="-8.55385"><time>2022-01-15T10:38:04.000Z</time></trkpt><trkpt lat="39.87523" lon="-8.55395"><time>2022-01-15T10:38:14.000Z</time></trkpt><trkpt lat="39.87514" lon="-8.5542"><ele>199</ele><time>2022-01-15T10:38:24.000Z</time></trkpt><trkpt lat="39.8751" lon="-8.55434"><time>2022-01-15T10:38:34.000Z</time></trkpt><trkpt lat="39.87508" lon="-8.55439"><time>2022-01-15T10:38:44.000Z</time></trkpt><trkpt lat="39.87501" lon="-8.55453"><ele>200</ele><time>2022-01-15T10:38:54.000Z</time></trkpt><trkpt lat="39.87498" lon="-8.55462"><time>2022-01-15T10:39:04.000Z</time></trkpt><trkpt lat="39.87494" lon="-8.55471"><time>2022-01-15T10:39:14.000Z</time></trkpt><trkpt lat="39.87493" lon="-8.55474"><time>2022-01-15T10:39:24.000Z</time></trkpt><trkpt lat="39.87483" lon="-8.55486"><ele>202</ele><time>2022-01-15T10:29:34.000Z</time></trkpt><trkpt lat="39.87466" lon="-8.55501"><ele>202</ele><time>2022-01-15T10:29:42.000Z</time></trkpt><trkpt lat="39.87452" lon="-8.55517"><time>2022-01-15T10:29:52.000Z</time></trkpt><trkpt lat="39.87449" lon="-8.55521"><ele>200</ele><time>2022-01-15T10:30:02.000Z</time></trkpt><trkpt lat="39.87448" lon="-8.55524"><time>2022-01-15T10:30:12.000Z</time></trkpt><trkpt lat="39.87446" lon="-8.55533"><time>2022-01-15T10:30:22.000Z</time></trkpt><trkpt lat="39.87447" lon="-8.55536"><time>2022-01-15T10:30:32.000Z</time></trkpt><trkpt lat="39.87449" lon="-8.55539"><time>2022-01-15T10:30:42.000Z</time></trkpt><trkpt lat="39.87468" lon="-8.55542"><ele>198</ele><time>2022-01-15T10:30:52.000Z</time></trkpt><trkpt lat="39.87475" lon="-8.55545"><time>2022-01-15T10:31:02.000Z</time></trkpt><trkpt lat="39.87483" lon="-8.55556"><time>2022-01-15T10:31:12.000Z</time></trkpt><trkpt lat="39.87492" lon="-8.55574"><ele>182</ele><time>2022-01-16T21:15:40.000Z</time></trkpt><trkpt lat="39.87497" lon="-8.55581"><time>2022-01-16T21:15:50.000Z</time></trkpt><trkpt lat="39.87503" lon="-8.55588"><time>2022-01-16T21:16:00.000Z</time></trkpt><trkpt lat="39.87511" lon="-8.55599"><ele>177</ele><time>2022-01-16T21:15:40.000Z</time></trkpt><trkpt lat="39.87513" lon="-8.55608"><time>2022-01-16T21:15:50.000Z</time></trkpt><trkpt lat="39.87505" lon="-8.55617"><time>2022-01-16T21:16:00.000Z</time></trkpt><trkpt lat="39.87502" lon="-8.55623"><ele>174</ele><time>2022-01-16T21:15:41.000Z</time></trkpt><trkpt lat="39.87503" lon="-8.55633"><time>2022-01-16T21:15:51.000Z</time></trkpt><trkpt lat="39.87507" lon="-8.55644"><time>2022-01-16T21:16:01.000Z</time></trkpt><trkpt lat="39.87512" lon="-8.55651"><ele>174</ele><time>2022-01-16T21:15:41.000Z</time></trkpt><trkpt lat="39.87534" lon="-8.55669"><ele>174</ele><time>2022-01-16T21:15:41.000Z</time></trkpt><trkpt lat="39.8755" lon="-8.55685"><time>2022-01-16T21:15:51.000Z</time></trkpt><trkpt lat="39.87568" lon="-8.55695"><ele>174</ele><time>2022-01-16T21:15:42.000Z</time></trkpt><trkpt lat="39.87579" lon="-8.55704"><time>2022-01-16T21:15:52.000Z</time></trkpt><trkpt lat="39.87581" lon="-8.55703"><time>2022-01-16T21:16:02.000Z</time></trkpt><trkpt lat="39.87588" lon="-8.55699"><ele>174</ele><time>2022-01-16T21:15:42.000Z</time></trkpt><trkpt lat="39.87598" lon="-8.55695"><time>2022-01-16T21:15:52.000Z</time></trkpt><trkpt lat="39.87605" lon="-8.55698"><time>2022-01-16T21:16:02.000Z</time></trkpt><trkpt lat="39.87608" lon="-8.55703"><ele>174</ele><time>2022-01-16T21:15:43.000Z</time></trkpt><trkpt lat="39.87606" lon="-8.55707"><time>2022-01-16T21:15:53.000Z</time></trkpt><trkpt lat="39.87606" lon="-8.5571"><time>2022-01-16T21:16:03.000Z</time></trkpt><trkpt lat="39.87618" lon="-8.55727"><ele>174</ele><time>2022-01-16T21:15:43.000Z</time></trkpt><trkpt lat="39.87626" lon="-8.55738"><time>2022-01-16T21:15:53.000Z</time></trkpt><trkpt lat="39.87638" lon="-8.55758"><ele>173</ele><time>2022-01-16T21:15:43.000Z</time></trkpt><trkpt lat="39.87638" lon="-8.55785"><ele>173</ele><time>2022-01-16T21:15:43.000Z</time></trkpt><trkpt lat="39.87638" lon="-8.5581"><time>2022-01-16T21:15:53.000Z</time></trkpt><trkpt lat="39.87641" lon="-8.55815"><ele>168</ele><time>2022-01-16T21:16:03.000Z</time></trkpt><trkpt lat="39.87642" lon="-8.55815"><time>2022-01-16T21:16:13.000Z</time></trkpt><trkpt lat="39.87644" lon="-8.55818"><time>2022-01-16T21:16:23.000Z</time></trkpt><trkpt lat="39.87646" lon="-8.55824"><time>2022-01-16T21:16:33.000Z</time></trkpt><trkpt lat="39.87647" lon="-8.5583"><time>2022-01-16T21:16:43.000Z</time></trkpt><trkpt lat="39.87646" lon="-8.55851"><ele>165</ele><time>2022-01-16T21:15:45.000Z</time></trkpt><trkpt lat="39.87646" lon="-8.55875"><time>2022-01-16T21:15:55.000Z</time></trkpt><trkpt lat="39.87649" lon="-8.55898"><ele>164</ele><time>2022-01-16T21:15:45.000Z</time></trkpt><trkpt lat="39.87649" lon="-8.55924"><time>2022-01-16T21:15:55.000Z</time></trkpt><trkpt lat="39.87646" lon="-8.5595"><ele>164</ele><time>2022-01-16T21:15:46.000Z</time></trkpt><trkpt lat="39.87629" lon="-8.55978"><ele>161</ele><time>2022-01-16T21:15:56.000Z</time></trkpt><trkpt lat="39.87625" lon="-8.55989"><time>2022-01-16T21:16:06.000Z</time></trkpt><trkpt lat="39.8762" lon="-8.56013"><ele>160</ele><time>2022-01-16T21:16:16.000Z</time></trkpt><trkpt lat="39.8762" lon="-8.56037"><time>2022-01-16T21:16:26.000Z</time></trkpt><trkpt lat="39.87619" lon="-8.56066"><ele>160</ele><time>2022-01-16T21:16:36.000Z</time></trkpt><trkpt lat="39.87617" lon="-8.56076"><time>2022-01-16T21:16:46.000Z</time></trkpt><trkpt lat="39.87622" lon="-8.56098"><ele>162</ele><time>2022-01-16T21:16:56.000Z</time></trkpt><trkpt lat="39.8763" lon="-8.56107"><time>2022-01-16T21:17:06.000Z</time></trkpt><trkpt lat="39.87634" lon="-8.56115"><time>2022-01-16T21:17:16.000Z</time></trkpt><trkpt lat="39.8764" lon="-8.56122"><ele>165</ele><time>2022-01-16T21:17:26.000Z</time></trkpt><trkpt lat="39.87645" lon="-8.56133"><time>2022-01-16T21:17:36.000Z</time></trkpt><trkpt lat="39.87675" lon="-8.56153"><ele>167</ele><time>2022-01-16T21:15:52.000Z</time></trkpt><trkpt lat="39.87698" lon="-8.56166"><ele>170</ele><time>2022-01-16T21:15:52.000Z</time></trkpt><trkpt lat="39.87726" lon="-8.56175"><ele>171</ele><time>2022-01-16T21:15:53.000Z</time></trkpt><trkpt lat="39.87754" lon="-8.56178"><ele>171</ele><time>2022-01-16T21:15:54.000Z</time></trkpt><trkpt lat="39.87775" lon="-8.5618"><ele>173</ele><time>2022-01-16T21:15:54.000Z</time></trkpt><trkpt lat="39.87794" lon="-8.5618"><time>2022-01-16T21:16:04.000Z</time></trkpt><trkpt lat="39.87792" lon="-8.56178"><ele>175</ele><time>2022-01-16T21:16:14.000Z</time></trkpt><trkpt lat="39.87803" lon="-8.56204"><ele>175</ele><time>2022-01-16T21:16:24.000Z</time></trkpt><trkpt lat="39.87808" lon="-8.56213"><time>2022-01-16T21:16:34.000Z</time></trkpt><trkpt lat="39.8782" lon="-8.56236"><ele>172</ele><time>2022-01-16T21:16:44.000Z</time></trkpt><trkpt lat="39.87828" lon="-8.5624"><time>2022-01-16T21:16:54.000Z</time></trkpt><trkpt lat="39.87834" lon="-8.56241"><time>2022-01-16T21:17:04.000Z</time></trkpt><trkpt lat="39.87838" lon="-8.56244"><time>2022-01-16T21:17:14.000Z</time></trkpt><trkpt lat="39.8785" lon="-8.56249"><ele>172</ele><time>2022-01-16T21:17:24.000Z</time></trkpt><trkpt lat="39.87852" lon="-8.56249"><time>2022-01-16T21:17:34.000Z</time></trkpt><trkpt lat="39.87869" lon="-8.5625"><time>2022-01-16T21:17:44.000Z</time></trkpt><trkpt lat="39.87888" lon="-8.56256"><ele>168</ele><time>2022-01-15T19:09:37.000Z</time></trkpt><trkpt lat="39.87903" lon="-8.56263"><time>2022-01-15T19:09:47.000Z</time></trkpt><trkpt lat="39.87916" lon="-8.56268"><ele>163</ele><time>2022-01-15T19:09:41.000Z</time></trkpt><trkpt lat="39.87926" lon="-8.56268"><time>2022-01-15T19:09:51.000Z</time></trkpt><trkpt lat="39.87939" lon="-8.56268"><ele>163</ele><time>2022-01-15T19:09:46.000Z</time></trkpt><trkpt lat="39.87953" lon="-8.56261"><time>2022-01-15T19:09:56.000Z</time></trkpt><trkpt lat="39.87965" lon="-8.56251"><ele>164</ele><time>2022-01-15T19:09:50.000Z</time></trkpt><trkpt lat="39.87981" lon="-8.56238"><time>2022-01-15T19:10:00.000Z</time></trkpt><trkpt lat="39.87985" lon="-8.56244"><ele>164</ele><time>2022-01-15T19:10:10.000Z</time></trkpt><trkpt lat="39.87982" lon="-8.56262"><time>2022-01-15T19:10:20.000Z</time></trkpt><trkpt lat="39.87973" lon="-8.56284"><ele>163</ele><time>2022-01-15T19:10:30.000Z</time></trkpt><trkpt lat="39.87964" lon="-8.563"><time>2022-01-15T19:10:40.000Z</time></trkpt><trkpt lat="39.87954" lon="-8.56324"><ele>163</ele><time>2022-01-15T19:10:50.000Z</time></trkpt><trkpt lat="39.87953" lon="-8.56329"><time>2022-01-15T19:11:00.000Z</time></trkpt><trkpt lat="39.87949" lon="-8.56348"><time>2022-01-15T19:11:10.000Z</time></trkpt><trkpt lat="39.87942" lon="-8.56355"><ele>163</ele><time>2022-01-15T19:10:18.000Z</time></trkpt><trkpt lat="39.87903" lon="-8.56354"><ele>161</ele><time>2022-01-15T19:10:22.000Z</time></trkpt><trkpt lat="39.87891" lon="-8.56367"><time>2022-01-15T19:10:32.000Z</time></trkpt><trkpt lat="39.87889" lon="-8.56378"><ele>161</ele><time>2022-01-15T19:10:27.000Z</time></trkpt><trkpt lat="39.87888" lon="-8.56403"><time>2022-01-15T19:10:37.000Z</time></trkpt><trkpt lat="39.87888" lon="-8.56427"><ele>159</ele><time>2022-01-15T19:10:32.000Z</time></trkpt><trkpt lat="39.87899" lon="-8.56478"><ele>157</ele><time>2022-01-15T19:10:42.000Z</time></trkpt><trkpt lat="39.87902" lon="-8.56502"><time>2022-01-15T19:10:52.000Z</time></trkpt><trkpt lat="39.87902" lon="-8.56504"><time>2022-01-15T19:11:02.000Z</time></trkpt><trkpt lat="39.879" lon="-8.56529"><ele>152</ele><time>2022-01-15T19:10:46.000Z</time></trkpt><trkpt lat="39.87899" lon="-8.56557"><ele>153</ele><time>2022-01-15T19:10:56.000Z</time></trkpt><trkpt lat="39.87899" lon="-8.56569"><time>2022-01-15T19:11:06.000Z</time></trkpt><trkpt lat="39.879" lon="-8.56581"><time>2022-01-15T19:11:16.000Z</time></trkpt><trkpt lat="39.87905" lon="-8.56599"><ele>154</ele><time>2022-01-15T19:10:59.000Z</time></trkpt><trkpt lat="39.87914" lon="-8.5662"><time>2022-01-15T19:11:09.000Z</time></trkpt><trkpt lat="39.87919" lon="-8.56629"><ele>159</ele><time>2022-01-15T19:11:19.000Z</time></trkpt><trkpt lat="39.87921" lon="-8.56631"><time>2022-01-15T19:11:29.000Z</time></trkpt><trkpt lat="39.87926" lon="-8.56641"><time>2022-01-15T19:11:39.000Z</time></trkpt><trkpt lat="39.87934" lon="-8.56651"><ele>160</ele><time>2022-01-15T19:11:49.000Z</time></trkpt><trkpt lat="39.87938" lon="-8.56663"><time>2022-01-15T19:11:59.000Z</time></trkpt><trkpt lat="39.87941" lon="-8.56679"><ele>162</ele><time>2022-01-15T19:12:09.000Z</time></trkpt><trkpt lat="39.87941" lon="-8.56701"><time>2022-01-15T19:12:19.000Z</time></trkpt><trkpt lat="39.87942" lon="-8.56718"><ele>171</ele><time>2022-01-15T19:12:29.000Z</time></trkpt><trkpt lat="39.87947" lon="-8.56726"><time>2022-01-15T19:12:39.000Z</time></trkpt><trkpt lat="39.87952" lon="-8.56727"><time>2022-01-15T19:12:49.000Z</time></trkpt><trkpt lat="39.87957" lon="-8.56727"><time>2022-01-15T19:12:59.000Z</time></trkpt><trkpt lat="39.87963" lon="-8.5672"><ele>172</ele><time>2022-01-15T19:13:09.000Z</time></trkpt><trkpt lat="39.87967" lon="-8.56719"><time>2022-01-15T19:13:19.000Z</time></trkpt><trkpt lat="39.8797" lon="-8.56718"><time>2022-01-15T19:13:29.000Z</time></trkpt><trkpt lat="39.87983" lon="-8.56722"><time>2022-01-15T19:13:39.000Z</time></trkpt><trkpt lat="39.87988" lon="-8.56725"><ele>172</ele><time>2022-01-15T19:13:49.000Z</time></trkpt><trkpt lat="39.88001" lon="-8.56739"><time>2022-01-15T19:13:59.000Z</time></trkpt><trkpt lat="39.88018" lon="-8.56757"><ele>180</ele><time>2022-01-15T19:14:09.000Z</time></trkpt><trkpt lat="39.88024" lon="-8.56771"><time>2022-01-15T19:14:19.000Z</time></trkpt><trkpt lat="39.88023" lon="-8.56779"><time>2022-01-15T19:14:29.000Z</time></trkpt><trkpt lat="39.88018" lon="-8.56792"><ele>184</ele><time>2022-01-15T19:14:39.000Z</time></trkpt><trkpt lat="39.8801" lon="-8.5681"><time>2022-01-15T19:14:49.000Z</time></trkpt><trkpt lat="39.87994" lon="-8.56842"><ele>184</ele><time>2022-01-15T19:12:38.000Z</time></trkpt><trkpt lat="39.87988" lon="-8.56857"><time>2022-01-15T19:12:48.000Z</time></trkpt><trkpt lat="39.8798" lon="-8.56876"><ele>185</ele><time>2022-01-15T19:12:43.000Z</time></trkpt><trkpt lat="39.87977" lon="-8.56888"><time>2022-01-15T19:12:53.000Z</time></trkpt><trkpt lat="39.87967" lon="-8.5691"><ele>186</ele><time>2022-01-15T19:12:48.000Z</time></trkpt><trkpt lat="39.8795" lon="-8.56927"><ele>191</ele><time>2022-01-15T19:12:51.000Z</time></trkpt><trkpt lat="39.87934" lon="-8.56946"><ele>188</ele><time>2022-01-15T19:12:56.000Z</time></trkpt><trkpt lat="39.87906" lon="-8.56972"><ele>185</ele><time>2022-01-15T19:13:02.000Z</time></trkpt><trkpt lat="39.87892" lon="-8.56992"><time>2022-01-15T19:13:12.000Z</time></trkpt><trkpt lat="39.87881" lon="-8.57014"><ele>183</ele><time>2022-01-15T19:13:07.000Z</time></trkpt><trkpt lat="39.87864" lon="-8.57035"><ele>181</ele><time>2022-01-15T19:13:17.000Z</time></trkpt><trkpt lat="39.87857" lon="-8.57041"><time>2022-01-15T19:13:27.000Z</time></trkpt><trkpt lat="39.87851" lon="-8.57047"><time>2022-01-15T19:13:37.000Z</time></trkpt><trkpt lat="39.87839" lon="-8.57057"><ele>180</ele><time>2022-01-15T19:13:24.000Z</time></trkpt><trkpt lat="39.87822" lon="-8.57075"><ele>180</ele><time>2022-01-15T19:13:34.000Z</time></trkpt><trkpt lat="39.87813" lon="-8.57083"><time>2022-01-15T19:13:44.000Z</time></trkpt><trkpt lat="39.87806" lon="-8.57089"><time>2022-01-15T19:13:54.000Z</time></trkpt><trkpt lat="39.87798" lon="-8.571"><ele>178</ele><time>2022-01-15T19:14:04.000Z</time></trkpt><trkpt lat="39.87789" lon="-8.57111"><time>2022-01-15T19:14:14.000Z</time></trkpt><trkpt lat="39.87779" lon="-8.57136"><ele>177</ele><time>2022-01-15T19:14:24.000Z</time></trkpt><trkpt lat="39.87769" lon="-8.57157"><time>2022-01-15T19:14:34.000Z</time></trkpt><trkpt lat="39.87745" lon="-8.5719"><ele>172</ele><time>2022-01-15T19:14:44.000Z</time></trkpt><trkpt lat="39.87734" lon="-8.57201"><time>2022-01-15T19:14:54.000Z</time></trkpt><trkpt lat="39.87722" lon="-8.57216"><ele>166</ele><time>2022-01-15T19:15:04.000Z</time></trkpt><trkpt lat="39.87716" lon="-8.57221"><time>2022-01-15T19:15:14.000Z</time></trkpt><trkpt lat="39.87714" lon="-8.57221"><time>2022-01-15T19:15:24.000Z</time></trkpt><trkpt lat="39.87717" lon="-8.57229"><time>2022-01-15T19:15:34.000Z</time></trkpt><trkpt lat="39.87717" lon="-8.57232"><time>2022-01-15T19:15:44.000Z</time></trkpt><trkpt lat="39.87715" lon="-8.57238"><ele>166</ele><time>2022-01-15T19:15:54.000Z</time></trkpt><trkpt lat="39.87705" lon="-8.57248"><time>2022-01-15T19:16:04.000Z</time></trkpt><trkpt lat="39.87695" lon="-8.57262"><ele>161</ele><time>2022-01-15T19:16:14.000Z</time></trkpt><trkpt lat="39.87684" lon="-8.57284"><time>2022-01-15T19:16:24.000Z</time></trkpt><trkpt lat="39.87673" lon="-8.57303"><ele>157</ele><time>2022-01-15T19:16:34.000Z</time></trkpt><trkpt lat="39.87671" lon="-8.57313"><time>2022-01-15T19:16:44.000Z</time></trkpt><trkpt lat="39.87672" lon="-8.57318"><time>2022-01-15T19:16:54.000Z</time></trkpt><trkpt lat="39.8766" lon="-8.57336"><ele>156</ele><time>2022-01-15T19:14:58.000Z</time></trkpt><trkpt lat="39.87645" lon="-8.5735"><time>2022-01-15T19:15:08.000Z</time></trkpt><trkpt lat="39.87638" lon="-8.57354"><ele>156</ele><time>2022-01-15T19:15:04.000Z</time></trkpt><trkpt lat="39.87625" lon="-8.5737"><time>2022-01-15T19:15:14.000Z</time></trkpt><trkpt lat="39.87613" lon="-8.57389"><ele>156</ele><time>2022-01-15T19:15:10.000Z</time></trkpt><trkpt lat="39.87581" lon="-8.57423"><ele>156</ele><time>2022-01-15T19:15:19.000Z</time></trkpt><trkpt lat="39.87567" lon="-8.57439"><time>2022-01-15T19:15:29.000Z</time></trkpt><trkpt lat="39.87554" lon="-8.57458"><ele>155</ele><time>2022-01-15T19:15:25.000Z</time></trkpt><trkpt lat="39.87535" lon="-8.57489"><ele>154</ele><time>2022-01-15T19:15:35.000Z</time></trkpt><trkpt lat="39.87541" lon="-8.57496"><time>2022-01-15T19:15:45.000Z</time></trkpt><trkpt lat="39.87569" lon="-8.57518"><ele>153</ele><time>2022-01-15T19:15:55.000Z</time></trkpt><trkpt lat="39.87582" lon="-8.57527"><time>2022-01-15T19:16:05.000Z</time></trkpt><trkpt lat="39.87607" lon="-8.57541"><ele>151</ele><time>2022-01-15T19:16:15.000Z</time></trkpt><trkpt lat="39.87622" lon="-8.57552"><time>2022-01-15T19:16:25.000Z</time></trkpt><trkpt lat="39.8764" lon="-8.57569"><ele>147</ele><time>2022-01-15T19:16:35.000Z</time></trkpt><trkpt lat="39.87652" lon="-8.57582"><time>2022-01-15T19:16:45.000Z</time></trkpt><trkpt lat="39.87676" lon="-8.57606"><ele>144</ele><time>2022-01-15T19:16:55.000Z</time></trkpt><trkpt lat="39.87692" lon="-8.57622"><time>2022-01-15T19:17:05.000Z</time></trkpt><trkpt lat="39.87716" lon="-8.57639"><ele>144</ele><time>2022-01-15T19:17:15.000Z</time></trkpt><trkpt lat="39.87725" lon="-8.57647"><time>2022-01-15T19:17:25.000Z</time></trkpt><trkpt lat="39.87738" lon="-8.57662"><ele>142</ele><time>2022-01-15T19:17:35.000Z</time></trkpt><trkpt lat="39.87752" lon="-8.5768"><time>2022-01-15T19:17:45.000Z</time></trkpt><trkpt lat="39.87775" lon="-8.577"><ele>142</ele><time>2022-01-15T19:16:43.000Z</time></trkpt><trkpt lat="39.87799" lon="-8.5774"><ele>143</ele><time>2022-01-15T19:16:49.000Z</time></trkpt><trkpt lat="39.87831" lon="-8.57782"><ele>147</ele><time>2022-01-15T19:16:59.000Z</time></trkpt><trkpt lat="39.87838" lon="-8.5779"><time>2022-01-15T19:17:09.000Z</time></trkpt><trkpt lat="39.8784" lon="-8.57794"><time>2022-01-15T19:17:19.000Z</time></trkpt><trkpt lat="39.87855" lon="-8.57808"><ele>149</ele><time>2022-01-15T19:17:29.000Z</time></trkpt><trkpt lat="39.87862" lon="-8.57816"><time>2022-01-15T19:17:39.000Z</time></trkpt><trkpt lat="39.87897" lon="-8.57849"><ele>152</ele><time>2022-01-15T19:17:22.000Z</time></trkpt><trkpt lat="39.87914" lon="-8.57863"><time>2022-01-15T19:17:32.000Z</time></trkpt><trkpt lat="39.87919" lon="-8.57866"><ele>152</ele><time>2022-01-15T19:17:29.000Z</time></trkpt><trkpt lat="39.87955" lon="-8.57882"><ele>154</ele><time>2022-01-15T19:17:36.000Z</time></trkpt><trkpt lat="39.87987" lon="-8.57891"><ele>153</ele><time>2022-01-15T19:17:46.000Z</time></trkpt><trkpt lat="39.88005" lon="-8.57895"><time>2022-01-15T19:17:56.000Z</time></trkpt><trkpt lat="39.88025" lon="-8.57902"><ele>152</ele><time>2022-01-15T19:18:06.000Z</time></trkpt><trkpt lat="39.88045" lon="-8.57904"><time>2022-01-15T19:18:16.000Z</time></trkpt><trkpt lat="39.88067" lon="-8.57908"><ele>152</ele><time>2022-01-15T19:18:26.000Z</time></trkpt><trkpt lat="39.88082" lon="-8.5791"><time>2022-01-15T19:18:36.000Z</time></trkpt><trkpt lat="39.881" lon="-8.57919"><ele>151</ele><time>2022-01-15T19:18:46.000Z</time></trkpt><trkpt lat="39.88102" lon="-8.57922"><time>2022-01-15T19:18:56.000Z</time></trkpt><trkpt lat="39.8811" lon="-8.57951"><ele>151</ele><time>2022-01-15T19:18:17.000Z</time></trkpt><trkpt lat="39.88123" lon="-8.57978"><ele>151</ele><time>2022-01-15T19:18:23.000Z</time></trkpt><trkpt lat="39.88138" lon="-8.58016"><ele>146</ele><time>2022-01-15T19:18:33.000Z</time></trkpt><trkpt lat="39.88152" lon="-8.58036"><time>2022-01-15T19:18:43.000Z</time></trkpt><trkpt lat="39.88171" lon="-8.58051"><ele>146</ele><time>2022-01-15T19:18:44.000Z</time></trkpt><trkpt lat="39.88204" lon="-8.58076"><ele>146</ele><time>2022-01-15T19:18:52.000Z</time></trkpt><trkpt lat="39.88223" lon="-8.58085"><time>2022-01-15T19:19:02.000Z</time></trkpt><trkpt lat="39.88225" lon="-8.58086"><ele>147</ele><time>2022-01-15T19:19:12.000Z</time></trkpt><trkpt lat="39.8824" lon="-8.58087"><time>2022-01-15T19:19:22.000Z</time></trkpt><trkpt lat="39.88263" lon="-8.58086"><ele>149</ele><time>2022-01-15T19:19:32.000Z</time></trkpt><trkpt lat="39.88274" lon="-8.58088"><time>2022-01-15T19:19:42.000Z</time></trkpt><trkpt lat="39.88298" lon="-8.58096"><ele>152</ele><time>2022-01-15T19:19:24.000Z</time></trkpt><trkpt lat="39.88308" lon="-8.5811"><time>2022-01-15T19:19:34.000Z</time></trkpt><trkpt lat="39.88301" lon="-8.58133"><ele>156</ele><time>2022-01-15T19:19:31.000Z</time></trkpt><trkpt lat="39.88285" lon="-8.58182"><ele>155</ele><time>2022-01-15T19:19:42.000Z</time></trkpt><trkpt lat="39.88279" lon="-8.58205"><time>2022-01-15T19:19:52.000Z</time></trkpt><trkpt lat="39.8828" lon="-8.58215"><ele>155</ele><time>2022-01-15T19:19:49.000Z</time></trkpt><trkpt lat="39.88291" lon="-8.58246"><ele>153</ele><time>2022-01-15T19:19:59.000Z</time></trkpt><trkpt lat="39.88294" lon="-8.58267"><time>2022-01-15T19:20:09.000Z</time></trkpt><trkpt lat="39.88297" lon="-8.58311"><ele>147</ele><time>2022-01-15T19:20:11.000Z</time></trkpt><trkpt lat="39.88296" lon="-8.58341"><ele>145</ele><time>2022-01-15T19:20:18.000Z</time></trkpt><trkpt lat="39.88292" lon="-8.58363"><time>2022-01-15T19:20:28.000Z</time></trkpt><trkpt lat="39.88297" lon="-8.58386"><ele>143</ele><time>2022-01-15T19:20:26.000Z</time></trkpt><trkpt lat="39.88299" lon="-8.58388"><time>2022-01-15T19:20:36.000Z</time></trkpt><trkpt lat="39.88316" lon="-8.58398"><ele>141</ele><time>2022-01-15T19:20:33.000Z</time></trkpt><trkpt lat="39.88324" lon="-8.58401"><time>2022-01-15T19:20:43.000Z</time></trkpt><trkpt lat="39.88329" lon="-8.58406"><time>2022-01-15T19:20:53.000Z</time></trkpt><trkpt lat="39.88333" lon="-8.58417"><ele>140</ele><time>2022-01-15T19:20:45.000Z</time></trkpt><trkpt lat="39.88339" lon="-8.58443"><ele>137</ele><time>2022-01-15T19:20:55.000Z</time></trkpt><trkpt lat="39.8834" lon="-8.58454"><time>2022-01-15T19:21:05.000Z</time></trkpt><trkpt lat="39.88341" lon="-8.58468"><time>2022-01-15T19:21:15.000Z</time></trkpt><trkpt lat="39.88335" lon="-8.58514"><ele>135</ele><time>2022-01-15T19:21:25.000Z</time></trkpt><trkpt lat="39.88333" lon="-8.58536"><time>2022-01-15T19:21:35.000Z</time></trkpt><trkpt lat="39.88333" lon="-8.58575"><ele>135</ele><time>2022-01-15T19:21:45.000Z</time></trkpt><trkpt lat="39.88329" lon="-8.58589"><time>2022-01-15T19:21:55.000Z</time></trkpt><trkpt lat="39.88301" lon="-8.58622"><ele>134</ele><time>2022-01-15T19:22:05.000Z</time></trkpt><trkpt lat="39.88297" lon="-8.58634"><time>2022-01-15T19:22:15.000Z</time></trkpt><trkpt lat="39.88299" lon="-8.58638"><time>2022-01-15T19:22:25.000Z</time></trkpt><trkpt lat="39.88305" lon="-8.58642"><ele>134</ele><time>2022-01-15T19:22:35.000Z</time></trkpt><trkpt lat="39.88313" lon="-8.58644"><time>2022-01-15T19:22:45.000Z</time></trkpt><trkpt lat="39.88315" lon="-8.58645"><time>2022-01-15T19:22:55.000Z</time></trkpt><trkpt lat="39.88318" lon="-8.58649"><time>2022-01-15T19:23:05.000Z</time></trkpt><trkpt lat="39.88327" lon="-8.58665"><ele>127</ele><time>2022-01-15T19:23:15.000Z</time></trkpt><trkpt lat="39.88324" lon="-8.58682"><time>2022-01-15T19:23:25.000Z</time></trkpt><trkpt lat="39.88324" lon="-8.58693"><ele>125</ele><time>2022-01-15T19:23:35.000Z</time></trkpt><trkpt lat="39.88333" lon="-8.58716"><time>2022-01-15T19:23:45.000Z</time></trkpt><trkpt lat="39.88336" lon="-8.58741"><ele>119</ele><time>2022-01-15T19:23:55.000Z</time></trkpt><trkpt lat="39.88326" lon="-8.58761"><time>2022-01-15T19:24:05.000Z</time></trkpt><trkpt lat="39.88324" lon="-8.5878"><ele>119</ele><time>2022-01-15T19:24:15.000Z</time></trkpt><trkpt lat="39.88327" lon="-8.58785"><time>2022-01-15T19:24:25.000Z</time></trkpt><trkpt lat="39.88329" lon="-8.58787"><time>2022-01-15T19:24:35.000Z</time></trkpt><trkpt lat="39.88337" lon="-8.58788"><time>2022-01-15T19:24:45.000Z</time></trkpt><trkpt lat="39.88351" lon="-8.58794"><ele>119</ele><time>2022-01-15T19:24:55.000Z</time></trkpt><trkpt lat="39.88361" lon="-8.58803"><time>2022-01-15T19:25:05.000Z</time></trkpt><trkpt lat="39.88367" lon="-8.58806"><time>2022-01-15T19:25:15.000Z</time></trkpt><trkpt lat="39.88373" lon="-8.58811"><ele>121</ele><time>2022-01-15T19:25:25.000Z</time></trkpt><trkpt lat="39.8838" lon="-8.58819"><time>2022-01-15T19:25:35.000Z</time></trkpt><trkpt lat="39.88387" lon="-8.5883"><time>2022-01-15T19:25:45.000Z</time></trkpt><trkpt lat="39.88402" lon="-8.58868"><ele>124</ele><time>2022-01-15T19:23:36.000Z</time></trkpt><trkpt lat="39.88417" lon="-8.58883"><time>2022-01-15T19:23:46.000Z</time></trkpt><trkpt lat="39.88431" lon="-8.58889"><ele>134</ele><time>2022-01-15T19:23:44.000Z</time></trkpt><trkpt lat="39.88444" lon="-8.58889"><time>2022-01-15T19:23:54.000Z</time></trkpt><trkpt lat="39.8845" lon="-8.58885"><time>2022-01-15T19:24:04.000Z</time></trkpt><trkpt lat="39.88457" lon="-8.58876"><ele>142</ele><time>2022-01-15T19:23:56.000Z</time></trkpt><trkpt lat="39.88466" lon="-8.58863"><time>2022-01-15T19:24:06.000Z</time></trkpt><trkpt lat="39.88471" lon="-8.58852"><ele>146</ele><time>2022-01-15T19:24:16.000Z</time></trkpt><trkpt lat="39.88473" lon="-8.58844"><time>2022-01-15T19:24:26.000Z</time></trkpt><trkpt lat="39.88475" lon="-8.58842"><time>2022-01-15T19:24:36.000Z</time></trkpt><trkpt lat="39.88479" lon="-8.58834"><time>2022-01-15T19:24:46.000Z</time></trkpt><trkpt lat="39.88486" lon="-8.58818"><ele>145</ele><time>2022-01-15T19:24:20.000Z</time></trkpt><trkpt lat="39.885" lon="-8.588"><time>2022-01-15T19:24:30.000Z</time></trkpt><trkpt lat="39.88506" lon="-8.58796"><ele>144</ele><time>2022-01-15T19:24:28.000Z</time></trkpt><trkpt lat="39.88525" lon="-8.58789"><time>2022-01-15T19:24:38.000Z</time></trkpt><trkpt lat="39.88543" lon="-8.5879"><ele>142</ele><time>2022-01-15T19:24:36.000Z</time></trkpt><trkpt lat="39.8855" lon="-8.5879"><time>2022-01-15T19:24:46.000Z</time></trkpt><trkpt lat="39.88564" lon="-8.58788"><ele>144</ele><time>2022-01-15T19:24:45.000Z</time></trkpt><trkpt lat="39.88578" lon="-8.58784"><time>2022-01-15T19:24:55.000Z</time></trkpt><trkpt lat="39.88596" lon="-8.58777"><ele>147</ele><time>2022-01-15T19:24:57.000Z</time></trkpt><trkpt lat="39.88618" lon="-8.58765"><ele>149</ele><time>2022-01-15T19:25:07.000Z</time></trkpt><trkpt lat="39.88625" lon="-8.58759"><time>2022-01-15T19:25:17.000Z</time></trkpt><trkpt lat="39.88646" lon="-8.58749"><ele>150</ele><time>2022-01-15T19:25:18.000Z</time></trkpt><trkpt lat="39.88649" lon="-8.58748"><time>2022-01-15T19:25:28.000Z</time></trkpt><trkpt lat="39.88658" lon="-8.58746"><time>2022-01-15T19:25:38.000Z</time></trkpt><trkpt lat="39.88669" lon="-8.58747"><ele>151</ele><time>2022-01-15T19:25:30.000Z</time></trkpt><trkpt lat="39.88687" lon="-8.58754"><time>2022-01-15T19:25:40.000Z</time></trkpt><trkpt lat="39.88705" lon="-8.58754"><ele>152</ele><time>2022-01-15T19:25:39.000Z</time></trkpt><trkpt lat="39.88712" lon="-8.58743"><time>2022-01-15T19:25:49.000Z</time></trkpt><trkpt lat="39.88721" lon="-8.58718"><ele>157</ele><time>2022-01-15T19:25:47.000Z</time></trkpt><trkpt lat="39.88728" lon="-8.58682"><ele>160</ele><time>2022-01-15T19:26:00.000Z</time></trkpt><trkpt lat="39.8874" lon="-8.58661"><time>2022-01-15T19:26:10.000Z</time></trkpt><trkpt lat="39.88752" lon="-8.58651"><ele>160</ele><time>2022-01-15T19:26:13.000Z</time></trkpt><trkpt lat="39.88791" lon="-8.58631"><ele>161</ele><time>2022-01-15T19:26:23.000Z</time></trkpt><trkpt lat="39.88808" lon="-8.58621"><time>2022-01-15T19:26:33.000Z</time></trkpt><trkpt lat="39.88813" lon="-8.58615"><ele>161</ele><time>2022-01-15T19:26:43.000Z</time></trkpt><trkpt lat="39.88822" lon="-8.58607"><time>2022-01-15T19:26:53.000Z</time></trkpt><trkpt lat="39.88826" lon="-8.58607"><time>2022-01-15T19:27:03.000Z</time></trkpt><trkpt lat="39.88847" lon="-8.58588"><ele>162</ele><time>2022-01-15T19:27:13.000Z</time></trkpt><trkpt lat="39.88866" lon="-8.58581"><time>2022-01-15T19:27:23.000Z</time></trkpt><trkpt lat="39.88905" lon="-8.58578"><ele>165</ele><time>2022-01-15T19:27:13.000Z</time></trkpt><trkpt lat="39.88929" lon="-8.58573"><ele>165</ele><time>2022-01-15T19:27:23.000Z</time></trkpt><trkpt lat="39.88937" lon="-8.58571"><time>2022-01-15T19:27:33.000Z</time></trkpt><trkpt lat="39.88966" lon="-8.58559"><ele>178</ele><time>2022-01-15T19:27:43.000Z</time></trkpt><trkpt lat="39.88981" lon="-8.58552"><time>2022-01-15T19:27:53.000Z</time></trkpt><trkpt lat="39.89011" lon="-8.58541"><ele>184</ele><time>2022-01-15T19:28:01.000Z</time></trkpt><trkpt lat="39.89039" lon="-8.5852"><ele>188</ele><time>2022-01-15T19:28:15.000Z</time></trkpt><trkpt lat="39.89053" lon="-8.58512"><time>2022-01-15T19:28:25.000Z</time></trkpt><trkpt lat="39.8906" lon="-8.5851"><ele>188</ele><time>2022-01-15T19:28:35.000Z</time></trkpt><trkpt lat="39.89072" lon="-8.58508"><time>2022-01-15T19:28:45.000Z</time></trkpt><trkpt lat="39.89092" lon="-8.58504"><ele>188</ele><time>2022-01-15T19:28:55.000Z</time></trkpt><trkpt lat="39.89101" lon="-8.58501"><time>2022-01-15T19:29:05.000Z</time></trkpt><trkpt lat="39.8911" lon="-8.58495"><time>2022-01-15T19:29:15.000Z</time></trkpt><trkpt lat="39.89121" lon="-8.58485"><ele>189</ele><time>2022-01-15T19:29:25.000Z</time></trkpt><trkpt lat="39.89125" lon="-8.58481"><time>2022-01-15T19:29:35.000Z</time></trkpt><trkpt lat="39.89137" lon="-8.58455"><ele>190</ele><time>2022-01-15T19:29:08.000Z</time></trkpt><trkpt lat="39.89143" lon="-8.58434"><time>2022-01-15T19:29:18.000Z</time></trkpt><trkpt lat="39.89146" lon="-8.58426"><ele>191</ele><time>2022-01-15T19:29:17.000Z</time></trkpt><trkpt lat="39.89158" lon="-8.58414"><time>2022-01-15T19:29:27.000Z</time></trkpt><trkpt lat="39.89176" lon="-8.58403"><ele>190</ele><time>2022-01-15T19:29:31.000Z</time></trkpt><trkpt lat="39.89186" lon="-8.58401"><time>2022-01-15T19:29:41.000Z</time></trkpt><trkpt lat="39.89188" lon="-8.58397"><time>2022-01-15T19:29:51.000Z</time></trkpt><trkpt lat="39.89191" lon="-8.58388"><ele>190</ele><time>2022-01-15T19:29:45.000Z</time></trkpt><trkpt lat="39.89204" lon="-8.58363"><ele>189</ele><time>2022-01-15T19:29:55.000Z</time></trkpt><trkpt lat="39.89206" lon="-8.58356"><time>2022-01-15T19:30:05.000Z</time></trkpt><trkpt lat="39.89211" lon="-8.58337"><ele>185</ele><time>2022-01-15T19:30:15.000Z</time></trkpt><trkpt lat="39.89214" lon="-8.58327"><time>2022-01-15T19:30:25.000Z</time></trkpt><trkpt lat="39.89225" lon="-8.58319"><time>2022-01-15T19:30:35.000Z</time></trkpt><trkpt lat="39.89237" lon="-8.5832"><ele>185</ele><time>2022-01-15T19:30:21.000Z</time></trkpt><trkpt lat="39.8925" lon="-8.58323"><time>2022-01-15T19:30:31.000Z</time></trkpt><trkpt lat="39.89259" lon="-8.58323"><ele>183</ele><time>2022-01-15T19:30:30.000Z</time></trkpt><trkpt lat="39.89272" lon="-8.58323"><time>2022-01-15T19:30:40.000Z</time></trkpt><trkpt lat="39.89279" lon="-8.58326"><time>2022-01-15T19:30:50.000Z</time></trkpt><trkpt lat="39.89284" lon="-8.58325"><ele>179</ele><time>2022-01-15T19:31:31.000Z</time></trkpt><trkpt lat="39.89293" lon="-8.58319"><time>2022-01-15T19:31:41.000Z</time></trkpt><trkpt lat="39.89305" lon="-8.58307"><ele>176</ele><time>2022-01-15T19:31:45.000Z</time></trkpt><trkpt lat="39.89318" lon="-8.58288"><time>2022-01-15T19:31:55.000Z</time></trkpt><trkpt lat="39.89322" lon="-8.58284"><ele>173</ele><time>2022-01-15T19:32:05.000Z</time></trkpt><trkpt lat="39.89328" lon="-8.58276"><time>2022-01-15T19:32:15.000Z</time></trkpt><trkpt lat="39.89333" lon="-8.58274"><time>2022-01-15T19:32:25.000Z</time></trkpt><trkpt lat="39.89334" lon="-8.58282"><time>2022-01-15T19:32:35.000Z</time></trkpt><trkpt lat="39.89343" lon="-8.58306"><ele>173</ele><time>2022-01-15T19:32:13.000Z</time></trkpt><trkpt lat="39.89346" lon="-8.58317"><time>2022-01-15T19:32:23.000Z</time></trkpt><trkpt lat="39.89342" lon="-8.58337"><ele>175</ele><time>2022-01-15T19:32:22.000Z</time></trkpt><trkpt lat="39.89328" lon="-8.58356"><time>2022-01-15T19:32:32.000Z</time></trkpt><trkpt lat="39.89318" lon="-8.58376"><ele>176</ele><time>2022-01-15T19:32:32.000Z</time></trkpt><trkpt lat="39.89317" lon="-8.58388"><time>2022-01-15T19:32:42.000Z</time></trkpt><trkpt lat="39.89309" lon="-8.58409"><ele>177</ele><time>2022-01-15T19:32:41.000Z</time></trkpt><trkpt lat="39.89303" lon="-8.58417"><time>2022-01-15T19:32:51.000Z</time></trkpt><trkpt lat="39.89299" lon="-8.58441"><ele>178</ele><time>2022-01-15T19:32:51.000Z</time></trkpt><trkpt lat="39.89308" lon="-8.58475"><ele>178</ele><time>2022-01-15T19:33:10.000Z</time></trkpt><trkpt lat="39.89323" lon="-8.58517"><ele>178</ele><time>2022-01-15T19:33:25.000Z</time></trkpt><trkpt lat="39.89334" lon="-8.58508"><time>2022-01-15T19:33:35.000Z</time></trkpt><trkpt lat="39.89345" lon="-8.58495"><ele>177</ele><time>2022-01-15T19:33:34.000Z</time></trkpt><trkpt lat="39.89361" lon="-8.58486"><time>2022-01-15T19:33:44.000Z</time></trkpt><trkpt lat="39.89368" lon="-8.58484"><ele>177</ele><time>2022-01-15T19:33:44.000Z</time></trkpt><trkpt lat="39.89375" lon="-8.58484"><time>2022-01-15T19:33:54.000Z</time></trkpt><trkpt lat="39.89382" lon="-8.58486"><time>2022-01-15T19:34:04.000Z</time></trkpt><trkpt lat="39.8939" lon="-8.5849"><ele>177</ele><time>2022-01-15T19:33:59.000Z</time></trkpt><trkpt lat="39.89397" lon="-8.58502"><time>2022-01-15T19:34:09.000Z</time></trkpt><trkpt lat="39.89404" lon="-8.58524"><ele>177</ele><time>2022-01-15T19:34:08.000Z</time></trkpt><trkpt lat="39.89408" lon="-8.58548"><time>2022-01-15T19:34:18.000Z</time></trkpt><trkpt lat="39.89411" lon="-8.58574"><ele>177</ele><time>2022-01-15T19:34:18.000Z</time></trkpt><trkpt lat="39.89408" lon="-8.586"><ele>177</ele><time>2022-01-15T19:34:28.000Z</time></trkpt><trkpt lat="39.89409" lon="-8.58604"><time>2022-01-15T19:34:38.000Z</time></trkpt><trkpt lat="39.8942" lon="-8.58613"><time>2022-01-15T19:34:48.000Z</time></trkpt><trkpt lat="39.89426" lon="-8.58621"><ele>170</ele><time>2022-01-15T19:34:58.000Z</time></trkpt><trkpt lat="39.89431" lon="-8.5863"><time>2022-01-15T19:35:08.000Z</time></trkpt><trkpt lat="39.89432" lon="-8.5864"><time>2022-01-15T19:35:18.000Z</time></trkpt><trkpt lat="39.89427" lon="-8.5866"><ele>167</ele><time>2022-01-15T19:35:28.000Z</time></trkpt><trkpt lat="39.89426" lon="-8.58669"><time>2022-01-15T19:35:38.000Z</time></trkpt><trkpt lat="39.89429" lon="-8.58681"><time>2022-01-15T19:35:48.000Z</time></trkpt><trkpt lat="39.89447" lon="-8.58687"><ele>164</ele><time>2022-01-15T19:35:58.000Z</time></trkpt><trkpt lat="39.89467" lon="-8.58687"><time>2022-01-15T19:36:08.000Z</time></trkpt><trkpt lat="39.89473" lon="-8.58688"><ele>163</ele><time>2022-01-15T19:36:18.000Z</time></trkpt><trkpt lat="39.89489" lon="-8.58697"><time>2022-01-15T19:36:28.000Z</time></trkpt><trkpt lat="39.89493" lon="-8.58731"><ele>163</ele><time>2022-01-15T19:36:38.000Z</time></trkpt><trkpt lat="39.89498" lon="-8.5875"><time>2022-01-15T19:36:48.000Z</time></trkpt><trkpt lat="39.89508" lon="-8.58772"><ele>160</ele><time>2022-01-15T19:36:58.000Z</time></trkpt><trkpt lat="39.89523" lon="-8.58788"><time>2022-01-15T19:37:08.000Z</time></trkpt><trkpt lat="39.8954" lon="-8.58811"><ele>154</ele><time>2022-01-15T19:36:12.000Z</time></trkpt><trkpt lat="39.89553" lon="-8.58828"><time>2022-01-15T19:36:22.000Z</time></trkpt><trkpt lat="39.89562" lon="-8.58849"><ele>154</ele><time>2022-01-15T19:36:23.000Z</time></trkpt><trkpt lat="39.89573" lon="-8.58869"><time>2022-01-15T19:36:33.000Z</time></trkpt><trkpt lat="39.89585" lon="-8.58887"><ele>153</ele><time>2022-01-15T19:36:33.000Z</time></trkpt><trkpt lat="39.896" lon="-8.58902"><time>2022-01-15T19:36:43.000Z</time></trkpt><trkpt lat="39.89618" lon="-8.5891"><ele>152</ele><time>2022-01-15T19:36:43.000Z</time></trkpt><trkpt lat="39.89644" lon="-8.58942"><ele>152</ele><time>2022-01-15T19:36:53.000Z</time></trkpt><trkpt lat="39.8966" lon="-8.58955"><time>2022-01-15T19:37:03.000Z</time></trkpt><trkpt lat="39.89675" lon="-8.58971"><ele>152</ele><time>2022-01-15T19:37:13.000Z</time></trkpt><trkpt lat="39.89692" lon="-8.58979"><time>2022-01-15T19:37:23.000Z</time></trkpt><trkpt lat="39.897" lon="-8.5898"><ele>154</ele><time>2022-01-15T19:37:33.000Z</time></trkpt><trkpt lat="39.89719" lon="-8.58972"><time>2022-01-15T19:37:43.000Z</time></trkpt><trkpt lat="39.89723" lon="-8.58969"><ele>162</ele><time>2022-01-15T19:37:53.000Z</time></trkpt><trkpt lat="39.89737" lon="-8.5898"><time>2022-01-15T19:38:03.000Z</time></trkpt><trkpt lat="39.89751" lon="-8.59006"><ele>159</ele><time>2022-01-15T19:38:13.000Z</time></trkpt><trkpt lat="39.89752" lon="-8.59032"><time>2022-01-15T19:38:23.000Z</time></trkpt><trkpt lat="39.89759" lon="-8.59055"><ele>156</ele><time>2022-01-15T19:38:33.000Z</time></trkpt><trkpt lat="39.89764" lon="-8.59065"><time>2022-01-15T19:38:43.000Z</time></trkpt><trkpt lat="39.89777" lon="-8.59087"><ele>154</ele><time>2022-01-15T19:38:32.000Z</time></trkpt><trkpt lat="39.89775" lon="-8.59111"><time>2022-01-15T19:38:42.000Z</time></trkpt><trkpt lat="39.89775" lon="-8.59131"><ele>157</ele><time>2022-01-15T19:38:52.000Z</time></trkpt><trkpt lat="39.89776" lon="-8.59132"><time>2022-01-15T19:39:02.000Z</time></trkpt><trkpt lat="39.8978" lon="-8.59144"><time>2022-01-15T19:39:12.000Z</time></trkpt><trkpt lat="39.89788" lon="-8.59151"><ele>158</ele><time>2022-01-15T19:39:22.000Z</time></trkpt><trkpt lat="39.89794" lon="-8.59151"><time>2022-01-15T19:39:32.000Z</time></trkpt><trkpt lat="39.89805" lon="-8.59154"><time>2022-01-15T19:39:42.000Z</time></trkpt><trkpt lat="39.89807" lon="-8.59157"><time>2022-01-15T19:39:52.000Z</time></trkpt><trkpt lat="39.89807" lon="-8.5916"><ele>160</ele><time>2022-01-15T19:40:02.000Z</time></trkpt><trkpt lat="39.89807" lon="-8.59167"><time>2022-01-15T19:40:12.000Z</time></trkpt><trkpt lat="39.89806" lon="-8.59171"><time>2022-01-15T19:40:22.000Z</time></trkpt><trkpt lat="39.89809" lon="-8.59177"><time>2022-01-15T19:40:32.000Z</time></trkpt><trkpt lat="39.89811" lon="-8.59178"><time>2022-01-15T19:40:42.000Z</time></trkpt><trkpt lat="39.89819" lon="-8.59179"><ele>160</ele><time>2022-01-15T19:40:52.000Z</time></trkpt><trkpt lat="39.89823" lon="-8.59179"><time>2022-01-15T19:41:02.000Z</time></trkpt><trkpt lat="39.89847" lon="-8.59186"><ele>161</ele><time>2022-01-15T19:40:50.000Z</time></trkpt><trkpt lat="39.89853" lon="-8.59192"><time>2022-01-15T19:41:00.000Z</time></trkpt><trkpt lat="39.89863" lon="-8.59206"><ele>158</ele><time>2022-01-15T19:41:33.000Z</time></trkpt><trkpt lat="39.8987" lon="-8.59211"><time>2022-01-15T19:41:43.000Z</time></trkpt><trkpt lat="39.89874" lon="-8.59216"><time>2022-01-15T19:41:53.000Z</time></trkpt><trkpt lat="39.89877" lon="-8.59222"><time>2022-01-15T19:42:03.000Z</time></trkpt><trkpt lat="39.89882" lon="-8.59226"><ele>163</ele><time>2022-01-15T19:42:05.000Z</time></trkpt><trkpt lat="39.89887" lon="-8.59228"><time>2022-01-15T19:42:15.000Z</time></trkpt><trkpt lat="39.89888" lon="-8.5923"><time>2022-01-15T19:42:25.000Z</time></trkpt><trkpt lat="39.89885" lon="-8.59235"><time>2022-01-15T19:42:35.000Z</time></trkpt><trkpt lat="39.89883" lon="-8.59238"><time>2022-01-15T19:42:45.000Z</time></trkpt><trkpt lat="39.89877" lon="-8.59243"><ele>168</ele><time>2022-01-15T19:42:48.000Z</time></trkpt><trkpt lat="39.89874" lon="-8.59247"><time>2022-01-15T19:42:58.000Z</time></trkpt><trkpt lat="39.89875" lon="-8.59254"><time>2022-01-15T19:43:08.000Z</time></trkpt><trkpt lat="39.89875" lon="-8.5926"><time>2022-01-15T19:43:18.000Z</time></trkpt><trkpt lat="39.89878" lon="-8.59266"><time>2022-01-15T19:43:28.000Z</time></trkpt><trkpt lat="39.8988" lon="-8.59265"><ele>169</ele><time>2022-01-15T19:43:31.000Z</time></trkpt><trkpt lat="39.89897" lon="-8.59274"><time>2022-01-15T19:43:41.000Z</time></trkpt><trkpt lat="39.899" lon="-8.59278"><ele>171</ele><time>2022-01-15T19:43:42.000Z</time></trkpt><trkpt lat="39.89906" lon="-8.59281"><time>2022-01-15T19:43:52.000Z</time></trkpt><trkpt lat="39.89909" lon="-8.59284"><time>2022-01-15T19:44:02.000Z</time></trkpt><trkpt lat="39.89907" lon="-8.59291"><time>2022-01-15T19:44:12.000Z</time></trkpt><trkpt lat="39.89909" lon="-8.59294"><time>2022-01-15T19:44:22.000Z</time></trkpt><trkpt lat="39.89912" lon="-8.59295"><ele>178</ele><time>2022-01-15T19:44:14.000Z</time></trkpt><trkpt lat="39.89921" lon="-8.59305"><time>2022-01-15T19:44:24.000Z</time></trkpt><trkpt lat="39.89926" lon="-8.59318"><ele>190</ele><time>2022-01-15T19:44:25.000Z</time></trkpt><trkpt lat="39.89935" lon="-8.5935"><ele>196</ele><time>2022-01-15T19:44:35.000Z</time></trkpt><trkpt lat="39.89935" lon="-8.59374"><time>2022-01-15T19:44:45.000Z</time></trkpt><trkpt lat="39.89934" lon="-8.59397"><ele>194</ele><time>2022-01-15T19:44:55.000Z</time></trkpt><trkpt lat="39.89932" lon="-8.59407"><time>2022-01-15T19:45:05.000Z</time></trkpt><trkpt lat="39.8993" lon="-8.5942"><time>2022-01-15T19:45:15.000Z</time></trkpt><trkpt lat="39.89926" lon="-8.59431"><ele>193</ele><time>2022-01-15T19:45:25.000Z</time></trkpt><trkpt lat="39.89923" lon="-8.59434"><time>2022-01-15T19:45:35.000Z</time></trkpt><trkpt lat="39.89921" lon="-8.59441"><time>2022-01-15T19:45:45.000Z</time></trkpt><trkpt lat="39.89915" lon="-8.59453"><time>2022-01-15T19:45:55.000Z</time></trkpt><trkpt lat="39.89911" lon="-8.59458"><ele>194</ele><time>2022-01-15T19:46:05.000Z</time></trkpt><trkpt lat="39.89906" lon="-8.59464"><time>2022-01-15T19:46:15.000Z</time></trkpt><trkpt lat="39.89896" lon="-8.59472"><time>2022-01-15T19:46:25.000Z</time></trkpt><trkpt lat="39.8989" lon="-8.59475"><ele>195</ele><time>2022-01-15T19:46:35.000Z</time></trkpt><trkpt lat="39.89876" lon="-8.5948"><time>2022-01-15T19:46:45.000Z</time></trkpt><trkpt lat="39.89864" lon="-8.59486"><ele>199</ele><time>2022-01-15T19:46:55.000Z</time></trkpt><trkpt lat="39.89858" lon="-8.59487"><time>2022-01-15T19:47:05.000Z</time></trkpt><trkpt lat="39.89849" lon="-8.59487"><time>2022-01-15T19:47:15.000Z</time></trkpt><trkpt lat="39.89852" lon="-8.59496"><ele>199</ele><time>2022-01-15T19:47:25.000Z</time></trkpt><trkpt lat="39.89865" lon="-8.5951"><time>2022-01-15T19:47:35.000Z</time></trkpt><trkpt lat="39.8988" lon="-8.59531"><ele>199</ele><time>2022-01-15T19:47:16.000Z</time></trkpt><trkpt lat="39.89891" lon="-8.59551"><time>2022-01-15T19:47:26.000Z</time></trkpt><trkpt lat="39.89907" lon="-8.59564"><ele>199</ele><time>2022-01-15T19:47:27.000Z</time></trkpt><trkpt lat="39.89925" lon="-8.59574"><time>2022-01-15T19:47:37.000Z</time></trkpt><trkpt lat="39.89943" lon="-8.59586"><ele>197</ele><time>2022-01-15T19:47:38.000Z</time></trkpt><trkpt lat="39.89955" lon="-8.59594"><time>2022-01-15T19:47:48.000Z</time></trkpt><trkpt lat="39.8996" lon="-8.59599"><time>2022-01-15T19:47:58.000Z</time></trkpt><trkpt lat="39.8996" lon="-8.59601"><ele>195</ele><time>2022-01-15T19:47:55.000Z</time></trkpt><trkpt lat="39.89965" lon="-8.59605"><time>2022-01-15T19:48:05.000Z</time></trkpt><trkpt lat="39.89977" lon="-8.59622"><ele>194</ele><time>2022-01-15T19:48:06.000Z</time></trkpt><trkpt lat="39.89992" lon="-8.59638"><time>2022-01-15T19:48:16.000Z</time></trkpt><trkpt lat="39.89999" lon="-8.5965"><ele>195</ele><time>2022-01-15T19:48:18.000Z</time></trkpt><trkpt lat="39.90006" lon="-8.59673"><time>2022-01-15T19:48:28.000Z</time></trkpt><trkpt lat="39.90012" lon="-8.59688"><ele>194</ele><time>2022-01-15T19:48:29.000Z</time></trkpt><trkpt lat="39.90025" lon="-8.59708"><time>2022-01-15T19:48:39.000Z</time></trkpt><trkpt lat="39.90042" lon="-8.59721"><ele>194</ele><time>2022-01-15T19:48:40.000Z</time></trkpt><trkpt lat="39.90046" lon="-8.59726"><time>2022-01-15T19:48:50.000Z</time></trkpt><trkpt lat="39.90057" lon="-8.59746"><ele>194</ele><time>2022-01-15T19:48:52.000Z</time></trkpt><trkpt lat="39.90065" lon="-8.59757"><time>2022-01-15T19:49:02.000Z</time></trkpt><trkpt lat="39.90075" lon="-8.59767"><ele>197</ele><time>2022-01-15T19:49:03.000Z</time></trkpt><trkpt lat="39.90092" lon="-8.5978"><time>2022-01-15T19:49:13.000Z</time></trkpt><trkpt lat="39.90105" lon="-8.598"><ele>200</ele><time>2022-01-15T19:49:20.000Z</time></trkpt><trkpt lat="39.90112" lon="-8.59815"><time>2022-01-15T19:49:30.000Z</time></trkpt><trkpt lat="39.90124" lon="-8.59833"><ele>200</ele><time>2022-01-15T19:49:32.000Z</time></trkpt><trkpt lat="39.90142" lon="-8.59849"><ele>200</ele><time>2022-01-15T19:49:42.000Z</time></trkpt><trkpt lat="39.90153" lon="-8.59868"><time>2022-01-15T19:49:52.000Z</time></trkpt><trkpt lat="39.90157" lon="-8.59884"><ele>196</ele><time>2022-01-15T19:50:02.000Z</time></trkpt><trkpt lat="39.90159" lon="-8.59908"><time>2022-01-15T19:50:12.000Z</time></trkpt><trkpt lat="39.90171" lon="-8.59925"><ele>194</ele><time>2022-01-15T19:50:22.000Z</time></trkpt><trkpt lat="39.90181" lon="-8.59947"><time>2022-01-15T19:50:32.000Z</time></trkpt><trkpt lat="39.90184" lon="-8.59957"><ele>194</ele><time>2022-01-15T19:50:42.000Z</time></trkpt><trkpt lat="39.9019" lon="-8.59972"><time>2022-01-15T19:50:52.000Z</time></trkpt><trkpt lat="39.90205" lon="-8.59988"><ele>195</ele><time>2022-01-15T19:51:02.000Z</time></trkpt><trkpt lat="39.9022" lon="-8.60001"><time>2022-01-15T19:51:12.000Z</time></trkpt><trkpt lat="39.90239" lon="-8.60027"><ele>196</ele><time>2022-01-15T19:51:22.000Z</time></trkpt><trkpt lat="39.90254" lon="-8.60041"><time>2022-01-15T19:51:32.000Z</time></trkpt><trkpt lat="39.90278" lon="-8.60052"><ele>196</ele><time>2022-01-15T19:51:42.000Z</time></trkpt><trkpt lat="39.90293" lon="-8.60061"><time>2022-01-15T19:51:52.000Z</time></trkpt><trkpt lat="39.90305" lon="-8.6007"><ele>196</ele><time>2022-01-15T19:52:02.000Z</time></trkpt><trkpt lat="39.90314" lon="-8.60083"><time>2022-01-15T19:52:12.000Z</time></trkpt><trkpt lat="39.90317" lon="-8.60087"><time>2022-01-15T19:52:22.000Z</time></trkpt><trkpt lat="39.90316" lon="-8.60112"><ele>194</ele><time>2022-01-15T19:51:35.000Z</time></trkpt><trkpt lat="39.90329" lon="-8.60132"><time>2022-01-15T19:51:45.000Z</time></trkpt><trkpt lat="39.90342" lon="-8.60149"><ele>193</ele><time>2022-01-15T19:51:47.000Z</time></trkpt><trkpt lat="39.90363" lon="-8.60198"><ele>187</ele><time>2022-01-15T19:51:57.000Z</time></trkpt><trkpt lat="39.90372" lon="-8.60211"><time>2022-01-15T19:52:07.000Z</time></trkpt><trkpt lat="39.9038" lon="-8.60226"><ele>185</ele><time>2022-01-15T19:52:17.000Z</time></trkpt><trkpt lat="39.90382" lon="-8.6024"><time>2022-01-15T19:52:27.000Z</time></trkpt><trkpt lat="39.90385" lon="-8.60266"><ele>180</ele><time>2022-01-15T19:52:37.000Z</time></trkpt><trkpt lat="39.90391" lon="-8.60291"><time>2022-01-15T19:52:47.000Z</time></trkpt><trkpt lat="39.90402" lon="-8.60311"><ele>180</ele><time>2022-01-15T19:52:57.000Z</time></trkpt><trkpt lat="39.90409" lon="-8.60333"><time>2022-01-15T19:53:07.000Z</time></trkpt><trkpt lat="39.90408" lon="-8.60363"><ele>180</ele><time>2022-01-15T19:53:17.000Z</time></trkpt><trkpt lat="39.90409" lon="-8.60368"><time>2022-01-15T19:53:27.000Z</time></trkpt><trkpt lat="39.90412" lon="-8.60381"><time>2022-01-15T19:53:37.000Z</time></trkpt><trkpt lat="39.90413" lon="-8.60394"><ele>180</ele><time>2022-01-15T19:53:17.000Z</time></trkpt><trkpt lat="39.90412" lon="-8.6041"><time>2022-01-15T19:53:27.000Z</time></trkpt><trkpt lat="39.90418" lon="-8.60433"><ele>180</ele><time>2022-01-15T19:53:29.000Z</time></trkpt><trkpt lat="39.90422" lon="-8.60468"><ele>178</ele><time>2022-01-15T19:53:39.000Z</time></trkpt><trkpt lat="39.90427" lon="-8.60487"><time>2022-01-15T19:53:49.000Z</time></trkpt><trkpt lat="39.90429" lon="-8.6049"><time>2022-01-15T19:53:59.000Z</time></trkpt><trkpt lat="39.90437" lon="-8.60507"><ele>173</ele><time>2022-01-15T19:54:09.000Z</time></trkpt><trkpt lat="39.90444" lon="-8.60518"><time>2022-01-15T19:54:19.000Z</time></trkpt><trkpt lat="39.9047" lon="-8.60541"><ele>162</ele><time>2022-01-15T19:54:37.000Z</time></trkpt><trkpt lat="39.90484" lon="-8.60558"><time>2022-01-15T19:54:47.000Z</time></trkpt><trkpt lat="39.90498" lon="-8.60576"><ele>162</ele><time>2022-01-15T19:54:49.000Z</time></trkpt><trkpt lat="39.90507" lon="-8.60598"><time>2022-01-15T19:54:59.000Z</time></trkpt><trkpt lat="39.90517" lon="-8.60618"><ele>161</ele><time>2022-01-15T19:55:01.000Z</time></trkpt><trkpt lat="39.90533" lon="-8.60631"><time>2022-01-15T19:55:11.000Z</time></trkpt><trkpt lat="39.90542" lon="-8.6064"><ele>156</ele><time>2022-01-15T19:55:20.000Z</time></trkpt><trkpt lat="39.90548" lon="-8.60658"><time>2022-01-15T19:55:30.000Z</time></trkpt><trkpt lat="39.90556" lon="-8.60673"><ele>151</ele><time>2022-01-15T19:55:39.000Z</time></trkpt><trkpt lat="39.90564" lon="-8.60683"><time>2022-01-15T19:55:49.000Z</time></trkpt><trkpt lat="39.90568" lon="-8.60688"><time>2022-01-15T19:55:59.000Z</time></trkpt><trkpt lat="39.90579" lon="-8.60697"><ele>147</ele><time>2022-01-15T19:56:10.000Z</time></trkpt><trkpt lat="39.90581" lon="-8.60702"><time>2022-01-15T19:56:20.000Z</time></trkpt><trkpt lat="39.90581" lon="-8.60716"><time>2022-01-15T19:56:30.000Z</time></trkpt><trkpt lat="39.90581" lon="-8.60727"><ele>146</ele><time>2022-01-15T19:56:35.000Z</time></trkpt><trkpt lat="39.90583" lon="-8.60731"><time>2022-01-15T19:56:45.000Z</time></trkpt><trkpt lat="39.90589" lon="-8.60737"><time>2022-01-15T19:56:55.000Z</time></trkpt><trkpt lat="39.9059" lon="-8.60742"><time>2022-01-15T19:57:05.000Z</time></trkpt><trkpt lat="39.90592" lon="-8.60751"><ele>146</ele><time>2022-01-15T19:57:13.000Z</time></trkpt><trkpt lat="39.90592" lon="-8.60761"><time>2022-01-15T19:57:23.000Z</time></trkpt><trkpt lat="39.90595" lon="-8.60769"><time>2022-01-15T19:57:33.000Z</time></trkpt><trkpt lat="39.90605" lon="-8.60773"><ele>145</ele><time>2022-01-15T19:57:38.000Z</time></trkpt><trkpt lat="39.90623" lon="-8.60771"><time>2022-01-15T19:57:48.000Z</time></trkpt><trkpt lat="39.90632" lon="-8.60774"><ele>145</ele><time>2022-01-15T19:57:58.000Z</time></trkpt><trkpt lat="39.90639" lon="-8.60772"><time>2022-01-15T19:58:08.000Z</time></trkpt><trkpt lat="39.90649" lon="-8.60775"><time>2022-01-15T19:58:18.000Z</time></trkpt><trkpt lat="39.90657" lon="-8.60774"><ele>145</ele><time>2022-01-15T19:58:28.000Z</time></trkpt><trkpt lat="39.90663" lon="-8.60773"><time>2022-01-15T19:58:38.000Z</time></trkpt><trkpt lat="39.90682" lon="-8.60776"><ele>145</ele><time>2022-01-15T19:58:48.000Z</time></trkpt><trkpt lat="39.9069" lon="-8.60779"><time>2022-01-15T19:58:58.000Z</time></trkpt><trkpt lat="39.90705" lon="-8.60787"><ele>142</ele><time>2022-01-15T19:59:08.000Z</time></trkpt><trkpt lat="39.90724" lon="-8.60788"><time>2022-01-15T19:59:18.000Z</time></trkpt><trkpt lat="39.90742" lon="-8.60795"><ele>140</ele><time>2022-01-15T19:59:28.000Z</time></trkpt><trkpt lat="39.90749" lon="-8.60796"><time>2022-01-15T19:59:38.000Z</time></trkpt><trkpt lat="39.90763" lon="-8.60811"><ele>140</ele><time>2022-01-15T19:59:48.000Z</time></trkpt><trkpt lat="39.90775" lon="-8.60832"><time>2022-01-15T19:59:58.000Z</time></trkpt><trkpt lat="39.90777" lon="-8.60855"><ele>138</ele><time>2022-01-15T20:00:08.000Z</time></trkpt><trkpt lat="39.90776" lon="-8.60871"><time>2022-01-15T20:00:18.000Z</time></trkpt><trkpt lat="39.90775" lon="-8.60904"><ele>138</ele><time>2022-01-15T20:00:04.000Z</time></trkpt><trkpt lat="39.90775" lon="-8.60933"><ele>139</ele><time>2022-01-15T20:00:14.000Z</time></trkpt><trkpt lat="39.90776" lon="-8.60958"><time>2022-01-15T20:00:24.000Z</time></trkpt><trkpt lat="39.90775" lon="-8.60983"><ele>140</ele><time>2022-01-15T20:00:34.000Z</time></trkpt><trkpt lat="39.9078" lon="-8.60972"><time>2022-01-15T20:00:44.000Z</time></trkpt><trkpt lat="39.90787" lon="-8.60968"><time>2022-01-15T20:00:54.000Z</time></trkpt><trkpt lat="39.90805" lon="-8.60967"><ele>143</ele><time>2022-01-15T20:01:04.000Z</time></trkpt><trkpt lat="39.90814" lon="-8.60962"><time>2022-01-15T20:01:14.000Z</time></trkpt><trkpt lat="39.90818" lon="-8.60962"><time>2022-01-15T20:01:24.000Z</time></trkpt><trkpt lat="39.90833" lon="-8.60955"><ele>144</ele><time>2022-01-15T20:01:34.000Z</time></trkpt><trkpt lat="39.90844" lon="-8.60949"><time>2022-01-15T20:01:44.000Z</time></trkpt><trkpt lat="39.90861" lon="-8.60946"><ele>145</ele><time>2022-01-15T20:01:54.000Z</time></trkpt><trkpt lat="39.90873" lon="-8.60937"><time>2022-01-15T20:02:04.000Z</time></trkpt><trkpt lat="39.9088" lon="-8.60934"><ele>143</ele><time>2022-01-15T20:02:14.000Z</time></trkpt><trkpt lat="39.90879" lon="-8.60928"><time>2022-01-15T20:02:24.000Z</time></trkpt><trkpt lat="39.90879" lon="-8.60922"><time>2022-01-15T20:02:34.000Z</time></trkpt><trkpt lat="39.9088" lon="-8.60922"><time>2022-01-15T20:02:44.000Z</time></trkpt><trkpt lat="39.90886" lon="-8.60922"><time>2022-01-15T20:02:54.000Z</time></trkpt><trkpt lat="39.90891" lon="-8.60923"><ele>142</ele><time>2022-01-15T20:03:04.000Z</time></trkpt><trkpt lat="39.909" lon="-8.60911"><time>2022-01-15T20:03:14.000Z</time></trkpt><trkpt lat="39.90903" lon="-8.60904"><time>2022-01-15T20:03:24.000Z</time></trkpt><trkpt lat="39.90905" lon="-8.60894"><ele>138</ele><time>2022-01-15T20:03:34.000Z</time></trkpt><trkpt lat="39.90909" lon="-8.60896"><time>2022-01-15T20:03:44.000Z</time></trkpt><trkpt lat="39.90909" lon="-8.60895"><time>2022-01-15T20:03:54.000Z</time></trkpt><trkpt lat="39.9091" lon="-8.60882"><time>2022-01-15T20:04:04.000Z</time></trkpt><trkpt lat="39.90929" lon="-8.60864"><ele>136</ele><time>2022-01-15T20:05:11.000Z</time></trkpt><trkpt lat="39.90945" lon="-8.60864"><time>2022-01-15T20:05:21.000Z</time></trkpt><trkpt lat="39.90947" lon="-8.60862"><time>2022-01-15T20:05:31.000Z</time></trkpt><trkpt lat="39.90952" lon="-8.60861"><ele>136</ele><time>2022-01-15T20:05:44.000Z</time></trkpt><trkpt lat="39.90956" lon="-8.60861"><time>2022-01-15T20:05:54.000Z</time></trkpt><trkpt lat="39.90957" lon="-8.6086"><time>2022-01-15T20:06:04.000Z</time></trkpt><trkpt lat="39.90965" lon="-8.60851"><time>2022-01-15T20:06:14.000Z</time></trkpt><trkpt lat="39.90968" lon="-8.60851"><time>2022-01-15T20:06:24.000Z</time></trkpt><trkpt lat="39.90971" lon="-8.60852"><ele>134</ele><time>2022-01-15T20:06:17.000Z</time></trkpt><trkpt lat="39.90975" lon="-8.60852"><time>2022-01-15T20:06:27.000Z</time></trkpt><trkpt lat="39.90992" lon="-8.60847"><ele>130</ele><time>2022-01-15T20:06:37.000Z</time></trkpt><trkpt lat="39.90993" lon="-8.60846"><time>2022-01-15T20:06:47.000Z</time></trkpt><trkpt lat="39.90999" lon="-8.60843"><time>2022-01-15T20:06:57.000Z</time></trkpt><trkpt lat="39.91018" lon="-8.60842"><ele>130</ele><time>2022-01-15T20:06:57.000Z</time></trkpt><trkpt lat="39.91039" lon="-8.60841"><ele>134</ele><time>2022-01-15T20:07:07.000Z</time></trkpt><trkpt lat="39.91053" lon="-8.60845"><time>2022-01-15T20:07:17.000Z</time></trkpt><trkpt lat="39.91065" lon="-8.6085"><ele>136</ele><time>2022-01-15T20:07:27.000Z</time></trkpt><trkpt lat="39.91076" lon="-8.60852"><time>2022-01-15T20:07:37.000Z</time></trkpt><trkpt lat="39.91084" lon="-8.60851"><time>2022-01-15T20:07:47.000Z</time></trkpt><trkpt lat="39.91091" lon="-8.60849"><ele>136</ele><time>2022-01-15T20:07:57.000Z</time></trkpt><trkpt lat="39.91093" lon="-8.60849"><time>2022-01-15T20:08:07.000Z</time></trkpt><trkpt lat="39.91097" lon="-8.60851"><time>2022-01-15T20:08:17.000Z</time></trkpt><trkpt lat="39.91107" lon="-8.60852"><time>2022-01-15T20:08:27.000Z</time></trkpt><trkpt lat="39.91109" lon="-8.60849"><time>2022-01-15T20:08:37.000Z</time></trkpt><trkpt lat="39.91108" lon="-8.60839"><ele>137</ele><time>2022-01-15T20:08:47.000Z</time></trkpt><trkpt lat="39.91107" lon="-8.60836"><time>2022-01-15T20:08:57.000Z</time></trkpt><trkpt lat="39.91111" lon="-8.60831"><time>2022-01-15T20:09:07.000Z</time></trkpt><trkpt lat="39.91128" lon="-8.60829"><ele>137</ele><time>2022-01-15T20:08:57.000Z</time></trkpt><trkpt lat="39.91137" lon="-8.60829"><time>2022-01-15T20:09:07.000Z</time></trkpt><trkpt lat="39.91148" lon="-8.60834"><ele>131</ele><time>2022-01-15T20:09:11.000Z</time></trkpt><trkpt lat="39.91172" lon="-8.60848"><ele>119</ele><time>2022-01-15T20:09:21.000Z</time></trkpt><trkpt lat="39.9119" lon="-8.60852"><time>2022-01-15T20:09:31.000Z</time></trkpt><trkpt lat="39.9123" lon="-8.60856"><ele>118</ele><time>2022-01-15T20:09:58.000Z</time></trkpt><trkpt lat="39.9125" lon="-8.60862"><time>2022-01-15T20:10:08.000Z</time></trkpt><trkpt lat="39.91268" lon="-8.60873"><ele>118</ele><time>2022-01-15T20:10:12.000Z</time></trkpt><trkpt lat="39.91285" lon="-8.60885"><time>2022-01-15T20:10:22.000Z</time></trkpt><trkpt lat="39.91304" lon="-8.60891"><ele>118</ele><time>2022-01-15T20:10:25.000Z</time></trkpt><trkpt lat="39.91315" lon="-8.60892"><time>2022-01-15T20:10:35.000Z</time></trkpt><trkpt lat="39.91334" lon="-8.60897"><ele>113</ele><time>2022-01-15T20:10:39.000Z</time></trkpt><trkpt lat="39.91354" lon="-8.60909"><ele>112</ele><time>2022-01-15T20:10:49.000Z</time></trkpt><trkpt lat="39.91369" lon="-8.60911"><time>2022-01-15T20:10:59.000Z</time></trkpt><trkpt lat="39.91379" lon="-8.60914"><ele>112</ele><time>2022-01-15T20:11:09.000Z</time></trkpt><trkpt lat="39.91396" lon="-8.60922"><time>2022-01-15T20:11:19.000Z</time></trkpt><trkpt lat="39.91421" lon="-8.60935"><ele>106</ele><time>2022-01-15T20:11:41.000Z</time></trkpt><trkpt lat="39.91438" lon="-8.60943"><time>2022-01-15T20:11:51.000Z</time></trkpt><trkpt lat="39.91449" lon="-8.60949"><ele>105</ele><time>2022-01-15T20:12:02.000Z</time></trkpt><trkpt lat="39.91455" lon="-8.60954"><time>2022-01-15T20:12:12.000Z</time></trkpt><trkpt lat="39.91461" lon="-8.60961"><time>2022-01-15T20:12:22.000Z</time></trkpt><trkpt lat="39.91465" lon="-8.60966"><ele>105</ele><time>2022-01-15T20:12:22.000Z</time></trkpt><trkpt lat="39.91477" lon="-8.6097"><time>2022-01-15T20:12:32.000Z</time></trkpt><trkpt lat="39.91487" lon="-8.60981"><ele>104</ele><time>2022-01-15T20:12:36.000Z</time></trkpt><trkpt lat="39.91487" lon="-8.60999"><time>2022-01-15T20:12:46.000Z</time></trkpt><trkpt lat="39.91485" lon="-8.61009"><ele>104</ele><time>2022-01-15T20:12:56.000Z</time></trkpt><trkpt lat="39.91484" lon="-8.61019"><time>2022-01-15T20:13:06.000Z</time></trkpt><trkpt lat="39.91485" lon="-8.6103"><time>2022-01-15T20:13:16.000Z</time></trkpt><trkpt lat="39.9149" lon="-8.61038"><ele>103</ele><time>2022-01-15T20:13:26.000Z</time></trkpt><trkpt lat="39.91499" lon="-8.61048"><time>2022-01-15T20:13:36.000Z</time></trkpt><trkpt lat="39.91511" lon="-8.61063"><ele>97</ele><time>2022-01-15T20:13:46.000Z</time></trkpt><trkpt lat="39.91524" lon="-8.61082"><time>2022-01-15T20:13:56.000Z</time></trkpt><trkpt lat="39.91534" lon="-8.61102"><ele>90</ele><time>2022-01-15T20:14:06.000Z</time></trkpt><trkpt lat="39.91535" lon="-8.61103"><time>2022-01-15T20:14:16.000Z</time></trkpt><trkpt lat="39.91551" lon="-8.61114"><time>2022-01-15T20:14:26.000Z</time></trkpt><trkpt lat="39.91572" lon="-8.61125"><ele>90</ele><time>2022-01-15T20:14:36.000Z</time></trkpt><trkpt lat="39.9159" lon="-8.61116"><time>2022-01-15T20:14:46.000Z</time></trkpt><trkpt lat="39.91594" lon="-8.61106"><ele>91</ele><time>2022-01-15T20:14:56.000Z</time></trkpt><trkpt lat="39.91603" lon="-8.61087"><time>2022-01-15T20:15:06.000Z</time></trkpt><trkpt lat="39.91612" lon="-8.61046"><ele>98</ele><time>2022-01-15T20:15:16.000Z</time></trkpt><trkpt lat="39.91615" lon="-8.61041"><time>2022-01-15T20:15:26.000Z</time></trkpt><trkpt lat="39.91616" lon="-8.61042"><time>2022-01-15T20:15:36.000Z</time></trkpt><trkpt lat="39.91618" lon="-8.61038"><time>2022-01-15T20:15:46.000Z</time></trkpt><trkpt lat="39.91608" lon="-8.61045"><time>2022-01-15T20:15:56.000Z</time></trkpt><trkpt lat="39.91611" lon="-8.61043"><ele>98</ele><time>2022-01-15T20:16:06.000Z</time></trkpt><trkpt lat="39.91612" lon="-8.6104"><time>2022-01-15T20:16:16.000Z</time></trkpt><trkpt lat="39.91621" lon="-8.61034"><time>2022-01-15T20:16:26.000Z</time></trkpt><trkpt lat="39.91625" lon="-8.61033"><time>2022-01-15T20:16:36.000Z</time></trkpt><trkpt lat="39.91629" lon="-8.6103"><ele>100</ele><time>2022-01-15T20:16:46.000Z</time></trkpt><trkpt lat="39.91635" lon="-8.61027"><time>2022-01-15T20:16:56.000Z</time></trkpt><trkpt lat="39.91643" lon="-8.6102"><time>2022-01-15T20:17:06.000Z</time></trkpt><trkpt lat="39.91659" lon="-8.6101"><ele>101</ele><time>2022-01-15T20:17:16.000Z</time></trkpt><trkpt lat="39.91666" lon="-8.61004"><time>2022-01-15T20:17:26.000Z</time></trkpt><trkpt lat="39.91672" lon="-8.60995"><time>2022-01-15T20:17:36.000Z</time></trkpt><trkpt lat="39.91674" lon="-8.60993"><time>2022-01-15T20:17:46.000Z</time></trkpt><trkpt lat="39.91691" lon="-8.60991"><ele>103</ele><time>2023-01-14T08:45:23.000Z</time></trkpt><trkpt lat="39.91713" lon="-8.6099"><ele>103</ele><time>2023-01-14T08:45:33.000Z</time></trkpt><trkpt lat="39.91715" lon="-8.60988"><time>2023-01-14T08:45:43.000Z</time></trkpt><trkpt lat="39.91716" lon="-8.60972"><time>2023-01-14T08:45:53.000Z</time></trkpt><trkpt lat="39.91717" lon="-8.60968"><time>2023-01-14T08:46:03.000Z</time></trkpt><trkpt lat="39.91719" lon="-8.60962"><ele>103</ele><time>2023-01-14T08:46:13.000Z</time></trkpt><trkpt lat="39.9172" lon="-8.60958"><time>2023-01-14T08:46:23.000Z</time></trkpt><trkpt lat="39.91722" lon="-8.60952"><time>2023-01-14T08:46:33.000Z</time></trkpt><trkpt lat="39.91723" lon="-8.60945"><time>2023-01-14T08:46:43.000Z</time></trkpt><trkpt lat="39.9173" lon="-8.60918"><ele>104</ele><time>2023-01-14T08:46:53.000Z</time></trkpt><trkpt lat="39.91731" lon="-8.60917"><time>2023-01-14T08:47:03.000Z</time></trkpt><trkpt lat="39.91736" lon="-8.6092"><time>2023-01-14T08:47:13.000Z</time></trkpt><trkpt lat="39.91746" lon="-8.60929"><time>2023-01-14T08:47:23.000Z</time></trkpt><trkpt lat="39.91749" lon="-8.60931"><ele>104</ele><time>2023-01-14T08:47:33.000Z</time></trkpt><trkpt lat="39.91751" lon="-8.60932"><time>2023-01-14T08:47:43.000Z</time></trkpt><trkpt lat="39.91756" lon="-8.60931"><time>2023-01-14T08:47:53.000Z</time></trkpt><trkpt lat="39.9176" lon="-8.60931"><time>2023-01-14T08:48:03.000Z</time></trkpt><trkpt lat="39.91784" lon="-8.60924"><ele>104</ele><time>2023-01-14T08:48:13.000Z</time></trkpt><trkpt lat="39.91794" lon="-8.60918"><time>2023-01-14T08:48:23.000Z</time></trkpt><trkpt lat="39.91808" lon="-8.60912"><ele>105</ele><time>2023-01-14T08:48:33.000Z</time></trkpt><trkpt lat="39.91808" lon="-8.60909"><time>2023-01-14T08:48:43.000Z</time></trkpt><trkpt lat="39.91802" lon="-8.60899"><time>2023-01-14T08:48:53.000Z</time></trkpt><trkpt lat="39.9179" lon="-8.60886"><ele>106</ele><time>2023-01-14T08:49:03.000Z</time></trkpt><trkpt lat="39.91784" lon="-8.60879"><time>2023-01-14T08:49:13.000Z</time></trkpt><trkpt lat="39.91779" lon="-8.6087"><time>2023-01-14T08:49:23.000Z</time></trkpt><trkpt lat="39.91778" lon="-8.60869"><time>2023-01-14T08:49:33.000Z</time></trkpt><trkpt lat="39.91776" lon="-8.60867"><ele>109</ele><time>2023-01-14T08:49:43.000Z</time></trkpt><trkpt lat="39.91776" lon="-8.60864"><time>2023-01-14T08:49:53.000Z</time></trkpt><trkpt lat="39.91779" lon="-8.60856"><time>2023-01-14T08:50:03.000Z</time></trkpt><trkpt lat="39.91778" lon="-8.6085"><time>2023-01-14T08:50:13.000Z</time></trkpt><trkpt lat="39.91774" lon="-8.60846"><time>2023-01-14T08:50:23.000Z</time></trkpt><trkpt lat="39.91772" lon="-8.60841"><ele>109</ele><time>2023-01-14T08:50:33.000Z</time></trkpt><trkpt lat="39.91771" lon="-8.60835"><time>2023-01-14T08:50:43.000Z</time></trkpt><trkpt lat="39.91772" lon="-8.60828"><time>2023-01-14T08:50:53.000Z</time></trkpt><trkpt lat="39.91772" lon="-8.6081"><ele>113</ele><time>2023-01-14T08:51:03.000Z</time></trkpt><trkpt lat="39.91772" lon="-8.60807"><time>2023-01-14T08:51:13.000Z</time></trkpt><trkpt lat="39.91769" lon="-8.60801"><time>2023-01-14T08:51:23.000Z</time></trkpt><trkpt lat="39.91768" lon="-8.60796"><time>2023-01-14T08:51:33.000Z</time></trkpt><trkpt lat="39.91768" lon="-8.60793"><time>2023-01-14T08:51:43.000Z</time></trkpt><trkpt lat="39.91769" lon="-8.60787"><time>2023-01-14T08:51:53.000Z</time></trkpt><trkpt lat="39.91767" lon="-8.60784"><ele>118</ele><time>2023-01-14T08:52:03.000Z</time></trkpt><trkpt lat="39.91765" lon="-8.60783"><time>2023-01-14T08:52:13.000Z</time></trkpt><trkpt lat="39.91765" lon="-8.6078"><time>2023-01-14T08:52:23.000Z</time></trkpt><trkpt lat="39.91766" lon="-8.60776"><time>2023-01-14T08:52:33.000Z</time></trkpt><trkpt lat="39.91765" lon="-8.60772"><time>2023-01-14T08:52:43.000Z</time></trkpt><trkpt lat="39.91764" lon="-8.60761"><time>2023-01-14T08:52:53.000Z</time></trkpt><trkpt lat="39.91763" lon="-8.6075"><ele>121</ele><time>2023-01-14T08:53:03.000Z</time></trkpt><trkpt lat="39.91764" lon="-8.60743"><time>2023-01-14T08:53:13.000Z</time></trkpt><trkpt lat="39.91766" lon="-8.60715"><ele>123</ele><time>2023-01-14T08:53:23.000Z</time></trkpt><trkpt lat="39.91766" lon="-8.60708"><time>2023-01-14T08:53:33.000Z</time></trkpt><trkpt lat="39.91765" lon="-8.60701"><time>2023-01-14T08:53:43.000Z</time></trkpt><trkpt lat="39.91765" lon="-8.60695"><time>2023-01-14T08:53:53.000Z</time></trkpt><trkpt lat="39.91766" lon="-8.60671"><ele>128</ele><time>2023-01-14T08:54:03.000Z</time></trkpt><trkpt lat="39.91766" lon="-8.60657"><time>2023-01-14T08:54:13.000Z</time></trkpt><trkpt lat="39.91766" lon="-8.60647"><time>2023-01-14T08:54:23.000Z</time></trkpt><trkpt lat="39.91765" lon="-8.60636"><ele>131</ele><time>2023-01-14T08:54:33.000Z</time></trkpt><trkpt lat="39.91765" lon="-8.60621"><time>2023-01-14T08:54:43.000Z</time></trkpt><trkpt lat="39.91763" lon="-8.60602"><ele>134</ele><time>2023-01-14T08:54:53.000Z</time></trkpt><trkpt lat="39.91764" lon="-8.60587"><time>2023-01-14T08:55:03.000Z</time></trkpt><trkpt lat="39.91763" lon="-8.60576"><time>2023-01-14T08:55:13.000Z</time></trkpt><trkpt lat="39.91764" lon="-8.60557"><ele>142</ele><time>2023-01-14T08:51:57.000Z</time></trkpt><trkpt lat="39.91764" lon="-8.60523"><ele>143</ele><time>2023-01-14T08:52:07.000Z</time></trkpt><trkpt lat="39.91765" lon="-8.60517"><time>2023-01-14T08:52:17.000Z</time></trkpt><trkpt lat="39.91764" lon="-8.60504"><time>2023-01-14T08:52:27.000Z</time></trkpt><trkpt lat="39.91765" lon="-8.60492"><ele>143</ele><time>2023-01-14T08:52:37.000Z</time></trkpt><trkpt lat="39.91764" lon="-8.60486"><time>2023-01-14T08:52:47.000Z</time></trkpt><trkpt lat="39.9176" lon="-8.60479"><time>2023-01-14T08:52:57.000Z</time></trkpt><trkpt lat="39.91759" lon="-8.60473"><time>2023-01-14T08:53:07.000Z</time></trkpt><trkpt lat="39.91758" lon="-8.6047"><time>2023-01-14T08:53:17.000Z</time></trkpt><trkpt lat="39.91755" lon="-8.60467"><ele>143</ele><time>2023-01-14T08:53:27.000Z</time></trkpt><trkpt lat="39.91751" lon="-8.60465"><time>2023-01-14T08:53:37.000Z</time></trkpt><trkpt lat="39.91747" lon="-8.60462"><time>2023-01-14T08:53:47.000Z</time></trkpt><trkpt lat="39.91742" lon="-8.60456"><time>2023-01-14T08:53:57.000Z</time></trkpt><trkpt lat="39.91741" lon="-8.60454"><time>2023-01-14T08:54:07.000Z</time></trkpt><trkpt lat="39.91741" lon="-8.60447"><ele>143</ele><time>2023-01-14T08:54:17.000Z</time></trkpt><trkpt lat="39.91739" lon="-8.6044"><time>2023-01-14T08:54:27.000Z</time></trkpt><trkpt lat="39.91739" lon="-8.60434"><time>2023-01-14T08:54:37.000Z</time></trkpt><trkpt lat="39.91742" lon="-8.60429"><time>2023-01-14T08:54:47.000Z</time></trkpt><trkpt lat="39.91742" lon="-8.60426"><time>2023-01-14T08:54:57.000Z</time></trkpt><trkpt lat="39.91743" lon="-8.60423"><time>2023-01-14T08:55:07.000Z</time></trkpt><trkpt lat="39.91748" lon="-8.60415"><ele>141</ele><time>2023-01-14T08:55:17.000Z</time></trkpt><trkpt lat="39.91751" lon="-8.60409"><time>2023-01-14T08:55:27.000Z</time></trkpt><trkpt lat="39.91753" lon="-8.60407"><time>2023-01-14T08:55:37.000Z</time></trkpt><trkpt lat="39.91754" lon="-8.604"><time>2023-01-14T08:55:47.000Z</time></trkpt><trkpt lat="39.91754" lon="-8.60397"><time>2023-01-14T08:55:57.000Z</time></trkpt><trkpt lat="39.91748" lon="-8.60388"><ele>146</ele><time>2023-01-14T08:56:07.000Z</time></trkpt><trkpt lat="39.91746" lon="-8.60387"><time>2023-01-14T08:56:17.000Z</time></trkpt><trkpt lat="39.91744" lon="-8.60388"><time>2023-01-14T08:56:27.000Z</time></trkpt><trkpt lat="39.91732" lon="-8.60394"><time>2023-01-14T08:56:37.000Z</time></trkpt><trkpt lat="39.91726" lon="-8.60396"><ele>148</ele><time>2023-01-14T08:56:47.000Z</time></trkpt><trkpt lat="39.91717" lon="-8.604"><time>2023-01-14T08:56:57.000Z</time></trkpt><trkpt lat="39.91714" lon="-8.60399"><time>2023-01-14T08:57:07.000Z</time></trkpt><trkpt lat="39.91711" lon="-8.60398"><time>2023-01-14T08:57:17.000Z</time></trkpt><trkpt lat="39.9171" lon="-8.60394"><time>2023-01-14T08:57:27.000Z</time></trkpt><trkpt lat="39.91709" lon="-8.60378"><ele>148</ele><time>2023-01-14T08:57:37.000Z</time></trkpt><trkpt lat="39.91709" lon="-8.6037"><time>2023-01-14T08:57:47.000Z</time></trkpt><trkpt lat="39.9171" lon="-8.60367"><time>2023-01-14T08:57:57.000Z</time></trkpt><trkpt lat="39.91721" lon="-8.60346"><ele>149</ele><time>2023-01-14T08:55:04.000Z</time></trkpt><trkpt lat="39.91722" lon="-8.60339"><time>2023-01-14T08:55:14.000Z</time></trkpt><trkpt lat="39.91721" lon="-8.60331"><time>2023-01-14T08:55:24.000Z</time></trkpt><trkpt lat="39.91719" lon="-8.60328"><time>2023-01-14T08:55:34.000Z</time></trkpt><trkpt lat="39.91713" lon="-8.6032"><ele>150</ele><time>2023-01-14T08:55:20.000Z</time></trkpt><trkpt lat="39.91706" lon="-8.60305"><time>2023-01-14T08:55:30.000Z</time></trkpt><trkpt lat="39.91701" lon="-8.60295"><ele>149</ele><time>2023-01-14T08:55:34.000Z</time></trkpt><trkpt lat="39.91696" lon="-8.60291"><time>2023-01-14T08:55:44.000Z</time></trkpt><trkpt lat="39.91694" lon="-8.60288"><time>2023-01-14T08:55:54.000Z</time></trkpt><trkpt lat="39.91685" lon="-8.60271"><ele>148</ele><time>2023-01-14T08:55:51.000Z</time></trkpt><trkpt lat="39.91673" lon="-8.60254"><time>2023-01-14T08:56:01.000Z</time></trkpt><trkpt lat="39.91671" lon="-8.60252"><time>2023-01-14T08:56:11.000Z</time></trkpt><trkpt lat="39.91667" lon="-8.6025"><ele>148</ele><time>2023-01-14T08:56:14.000Z</time></trkpt><trkpt lat="39.91658" lon="-8.60243"><time>2023-01-14T08:56:24.000Z</time></trkpt><trkpt lat="39.91654" lon="-8.60239"><time>2023-01-14T08:56:34.000Z</time></trkpt><trkpt lat="39.9165" lon="-8.60233"><ele>148</ele><time>2023-01-14T08:56:33.000Z</time></trkpt><trkpt lat="39.91645" lon="-8.60228"><time>2023-01-14T08:56:43.000Z</time></trkpt><trkpt lat="39.91628" lon="-8.60215"><ele>149</ele><time>2023-01-14T08:56:50.000Z</time></trkpt><trkpt lat="39.91614" lon="-8.60202"><time>2023-01-14T08:57:00.000Z</time></trkpt><trkpt lat="39.91603" lon="-8.60193"><ele>149</ele><time>2023-01-14T08:57:10.000Z</time></trkpt><trkpt lat="39.91602" lon="-8.60191"><time>2023-01-14T08:57:20.000Z</time></trkpt><trkpt lat="39.91602" lon="-8.60184"><time>2023-01-14T08:57:30.000Z</time></trkpt><trkpt lat="39.91601" lon="-8.6018"><time>2023-01-14T08:57:40.000Z</time></trkpt><trkpt lat="39.91597" lon="-8.60174"><time>2023-01-14T08:57:50.000Z</time></trkpt><trkpt lat="39.91595" lon="-8.60171"><time>2023-01-14T08:58:00.000Z</time></trkpt><trkpt lat="39.91589" lon="-8.60169"><ele>148</ele><time>2023-01-14T08:57:33.000Z</time></trkpt><trkpt lat="39.91585" lon="-8.60164"><time>2023-01-14T08:57:43.000Z</time></trkpt><trkpt lat="39.91583" lon="-8.60161"><time>2023-01-14T08:57:53.000Z</time></trkpt><trkpt lat="39.91578" lon="-8.60145"><ele>148</ele><time>2023-01-14T08:57:47.000Z</time></trkpt><trkpt lat="39.91573" lon="-8.60133"><time>2023-01-14T08:57:57.000Z</time></trkpt><trkpt lat="39.9157" lon="-8.60127"><time>2023-01-14T08:58:07.000Z</time></trkpt><trkpt lat="39.91566" lon="-8.60121"><ele>148</ele><time>2023-01-14T08:58:02.000Z</time></trkpt><trkpt lat="39.91557" lon="-8.60113"><time>2023-01-14T08:58:12.000Z</time></trkpt><trkpt lat="39.91552" lon="-8.60104"><time>2023-01-14T08:58:22.000Z</time></trkpt><trkpt lat="39.91545" lon="-8.60096"><ele>148</ele><time>2023-01-14T08:58:21.000Z</time></trkpt><trkpt lat="39.91543" lon="-8.60094"><time>2023-01-14T08:58:31.000Z</time></trkpt><trkpt lat="39.91537" lon="-8.60091"><time>2023-01-14T08:58:41.000Z</time></trkpt><trkpt lat="39.91539" lon="-8.60093"><time>2023-01-14T08:58:51.000Z</time></trkpt><trkpt lat="39.91537" lon="-8.60091"><time>2023-01-14T08:59:01.000Z</time></trkpt><trkpt lat="39.9153" lon="-8.60085"><ele>149</ele><time>2023-01-14T08:58:52.000Z</time></trkpt><trkpt lat="39.91528" lon="-8.6008"><time>2023-01-14T08:59:02.000Z</time></trkpt><trkpt lat="39.91527" lon="-8.60071"><time>2023-01-14T08:59:12.000Z</time></trkpt><trkpt lat="39.91525" lon="-8.60068"><time>2023-01-14T08:59:22.000Z</time></trkpt><trkpt lat="39.91522" lon="-8.60067"><time>2023-01-14T08:59:32.000Z</time></trkpt><trkpt lat="39.91518" lon="-8.60061"><ele>151</ele><time>2023-01-14T08:59:12.000Z</time></trkpt><trkpt lat="39.91511" lon="-8.60049"><time>2023-01-14T08:59:22.000Z</time></trkpt><trkpt lat="39.91509" lon="-8.60046"><time>2023-01-14T08:59:32.000Z</time></trkpt><trkpt lat="39.91507" lon="-8.60038"><ele>151</ele><time>2023-01-14T08:59:42.000Z</time></trkpt><trkpt lat="39.91504" lon="-8.60035"><time>2023-01-14T08:59:52.000Z</time></trkpt><trkpt lat="39.91499" lon="-8.60032"><time>2023-01-14T09:00:02.000Z</time></trkpt><trkpt lat="39.91488" lon="-8.60024"><ele>151</ele><time>2023-01-14T09:00:12.000Z</time></trkpt><trkpt lat="39.91485" lon="-8.60023"><time>2023-01-14T09:00:22.000Z</time></trkpt><trkpt lat="39.91482" lon="-8.60023"><time>2023-01-14T09:00:32.000Z</time></trkpt><trkpt lat="39.91478" lon="-8.60022"><time>2023-01-14T09:00:42.000Z</time></trkpt><trkpt lat="39.91473" lon="-8.60012"><time>2023-01-14T09:00:52.000Z</time></trkpt><trkpt lat="39.91469" lon="-8.6001"><ele>152</ele><time>2023-01-14T09:01:02.000Z</time></trkpt><trkpt lat="39.91465" lon="-8.60004"><time>2023-01-14T09:01:12.000Z</time></trkpt><trkpt lat="39.91459" lon="-8.59997"><time>2023-01-14T09:01:22.000Z</time></trkpt><trkpt lat="39.91456" lon="-8.59991"><time>2023-01-14T09:01:32.000Z</time></trkpt><trkpt lat="39.91453" lon="-8.59984"><ele>153</ele><time>2023-01-14T09:01:42.000Z</time></trkpt><trkpt lat="39.91446" lon="-8.59972"><time>2023-01-14T09:01:52.000Z</time></trkpt><trkpt lat="39.9144" lon="-8.5996"><ele>157</ele><time>2023-01-14T09:02:02.000Z</time></trkpt><trkpt lat="39.91434" lon="-8.59951"><time>2023-01-14T09:02:12.000Z</time></trkpt><trkpt lat="39.91421" lon="-8.59924"><ele>158</ele><time>2023-01-14T09:02:22.000Z</time></trkpt><trkpt lat="39.91415" lon="-8.59916"><time>2023-01-14T09:02:32.000Z</time></trkpt><trkpt lat="39.9141" lon="-8.59906"><time>2023-01-14T09:02:42.000Z</time></trkpt><trkpt lat="39.91406" lon="-8.599"><ele>157</ele><time>2023-01-14T09:02:52.000Z</time></trkpt><trkpt lat="39.91404" lon="-8.59897"><time>2023-01-14T09:03:02.000Z</time></trkpt><trkpt lat="39.91403" lon="-8.59892"><time>2023-01-14T09:03:12.000Z</time></trkpt><trkpt lat="39.914" lon="-8.59888"><time>2023-01-14T09:03:22.000Z</time></trkpt><trkpt lat="39.91391" lon="-8.59869"><ele>157</ele><time>2023-01-14T09:03:32.000Z</time></trkpt><trkpt lat="39.91385" lon="-8.59861"><time>2023-01-14T09:03:42.000Z</time></trkpt><trkpt lat="39.91372" lon="-8.59838"><ele>160</ele><time>2023-01-14T09:02:05.000Z</time></trkpt><trkpt lat="39.91353" lon="-8.59813"><ele>160</ele><time>2023-01-14T09:02:15.000Z</time></trkpt><trkpt lat="39.91349" lon="-8.59807"><time>2023-01-14T09:02:25.000Z</time></trkpt><trkpt lat="39.9134" lon="-8.59798"><time>2023-01-14T09:02:35.000Z</time></trkpt><trkpt lat="39.91319" lon="-8.59781"><ele>159</ele><time>2023-01-14T09:02:45.000Z</time></trkpt><trkpt lat="39.91317" lon="-8.59778"><time>2023-01-14T09:02:55.000Z</time></trkpt><trkpt lat="39.91315" lon="-8.59776"><time>2023-01-14T09:03:05.000Z</time></trkpt><trkpt lat="39.91313" lon="-8.59769"><time>2023-01-14T09:03:15.000Z</time></trkpt><trkpt lat="39.9131" lon="-8.59766"><time>2023-01-14T09:03:25.000Z</time></trkpt><trkpt lat="39.913" lon="-8.59756"><ele>161</ele><time>2023-01-14T09:03:09.000Z</time></trkpt><trkpt lat="39.91282" lon="-8.59741"><ele>161</ele><time>2023-01-14T09:03:19.000Z</time></trkpt><trkpt lat="39.91278" lon="-8.59736"><time>2023-01-14T09:03:29.000Z</time></trkpt><trkpt lat="39.91272" lon="-8.59729"><time>2023-01-14T09:03:39.000Z</time></trkpt><trkpt lat="39.91267" lon="-8.5972"><ele>161</ele><time>2023-01-14T09:03:49.000Z</time></trkpt><trkpt lat="39.91253" lon="-8.59704"><time>2023-01-14T09:03:59.000Z</time></trkpt><trkpt lat="39.91249" lon="-8.59698"><ele>161</ele><time>2023-01-14T09:04:09.000Z</time></trkpt><trkpt lat="39.91243" lon="-8.59686"><time>2023-01-14T09:04:19.000Z</time></trkpt><trkpt lat="39.91237" lon="-8.59677"><time>2023-01-14T09:04:29.000Z</time></trkpt><trkpt lat="39.91231" lon="-8.59665"><ele>162</ele><time>2023-01-14T09:04:39.000Z</time></trkpt><trkpt lat="39.9123" lon="-8.59662"><time>2023-01-14T09:04:49.000Z</time></trkpt><trkpt lat="39.91224" lon="-8.59653"><time>2023-01-14T09:04:59.000Z</time></trkpt><trkpt lat="39.91212" lon="-8.59637"><ele>166</ele><time>2023-01-14T09:05:09.000Z</time></trkpt><trkpt lat="39.91206" lon="-8.59628"><time>2023-01-14T09:05:19.000Z</time></trkpt><trkpt lat="39.91198" lon="-8.59604"><ele>169</ele><time>2023-01-14T09:05:29.000Z</time></trkpt><trkpt lat="39.91197" lon="-8.59598"><time>2023-01-14T09:05:39.000Z</time></trkpt><trkpt lat="39.91189" lon="-8.59584"><time>2023-01-14T09:05:49.000Z</time></trkpt><trkpt lat="39.91185" lon="-8.59573"><ele>169</ele><time>2023-01-14T09:05:59.000Z</time></trkpt><trkpt lat="39.91187" lon="-8.59572"><time>2023-01-14T09:06:09.000Z</time></trkpt><trkpt lat="39.9119" lon="-8.59573"><time>2023-01-14T09:06:19.000Z</time></trkpt><trkpt lat="39.91191" lon="-8.59575"><time>2023-01-14T09:06:29.000Z</time></trkpt><trkpt lat="39.91191" lon="-8.59572"><time>2023-01-14T09:06:39.000Z</time></trkpt><trkpt lat="39.91192" lon="-8.59575"><time>2023-01-14T09:06:49.000Z</time></trkpt><trkpt lat="39.91201" lon="-8.59586"><ele>169</ele><time>2023-01-14T09:06:59.000Z</time></trkpt><trkpt lat="39.91204" lon="-8.59587"><time>2023-01-14T09:07:09.000Z</time></trkpt><trkpt lat="39.91207" lon="-8.59587"><time>2023-01-14T09:07:19.000Z</time></trkpt><trkpt lat="39.91212" lon="-8.59585"><time>2023-01-14T09:07:29.000Z</time></trkpt><trkpt lat="39.91214" lon="-8.59586"><time>2023-01-14T09:07:39.000Z</time></trkpt><trkpt lat="39.91223" lon="-8.59601"><ele>164</ele><time>2023-01-14T09:07:49.000Z</time></trkpt><trkpt lat="39.9123" lon="-8.59604"><time>2023-01-14T09:07:59.000Z</time></trkpt><trkpt lat="39.91233" lon="-8.59608"><time>2023-01-14T09:08:09.000Z</time></trkpt><trkpt lat="39.91242" lon="-8.59611"><time>2023-01-14T09:08:19.000Z</time></trkpt><trkpt lat="39.91248" lon="-8.59621"><ele>152</ele><time>2023-01-14T09:07:25.000Z</time></trkpt><trkpt lat="39.91251" lon="-8.59626"><time>2023-01-14T09:07:35.000Z</time></trkpt><trkpt lat="39.91253" lon="-8.59628"><time>2023-01-14T09:07:45.000Z</time></trkpt><trkpt lat="39.91254" lon="-8.59629"><time>2023-01-14T09:07:55.000Z</time></trkpt><trkpt lat="39.91259" lon="-8.59631"><time>2023-01-14T09:08:05.000Z</time></trkpt><trkpt lat="39.91266" lon="-8.5964"><ele>152</ele><time>2023-01-14T09:07:45.000Z</time></trkpt><trkpt lat="39.9127" lon="-8.59641"><time>2023-01-14T09:07:55.000Z</time></trkpt><trkpt lat="39.91274" lon="-8.59644"><time>2023-01-14T09:08:05.000Z</time></trkpt><trkpt lat="39.91276" lon="-8.59644"><time>2023-01-14T09:08:15.000Z</time></trkpt><trkpt lat="39.9128" lon="-8.59646"><time>2023-01-14T09:08:25.000Z</time></trkpt><trkpt lat="39.91284" lon="-8.59652"><ele>151</ele><time>2023-01-14T09:09:08.000Z</time></trkpt><trkpt lat="39.91291" lon="-8.59657"><time>2023-01-14T09:09:18.000Z</time></trkpt><trkpt lat="39.91292" lon="-8.59662"><time>2023-01-14T09:09:28.000Z</time></trkpt><trkpt lat="39.91296" lon="-8.59663"><time>2023-01-14T09:09:38.000Z</time></trkpt><trkpt lat="39.91303" lon="-8.59669"><ele>134</ele><time>2023-01-14T09:09:45.000Z</time></trkpt><trkpt lat="39.91311" lon="-8.59675"><time>2023-01-14T09:09:55.000Z</time></trkpt><trkpt lat="39.91316" lon="-8.59679"><time>2023-01-14T09:10:05.000Z</time></trkpt><trkpt lat="39.91317" lon="-8.59682"><time>2023-01-14T09:10:15.000Z</time></trkpt><trkpt lat="39.91322" lon="-8.59686"><ele>128</ele><time>2023-01-14T09:10:25.000Z</time></trkpt><trkpt lat="39.91324" lon="-8.59692"><time>2023-01-14T09:10:35.000Z</time></trkpt><trkpt lat="39.91334" lon="-8.59705"><time>2023-01-14T09:10:45.000Z</time></trkpt><trkpt lat="39.91336" lon="-8.59706"><ele>122</ele><time>2023-01-14T09:10:55.000Z</time></trkpt><trkpt lat="39.91342" lon="-8.59705"><time>2023-01-14T09:11:05.000Z</time></trkpt><trkpt lat="39.91344" lon="-8.59705"><time>2023-01-14T09:11:15.000Z</time></trkpt><trkpt lat="39.91349" lon="-8.59709"><time>2023-01-14T09:11:25.000Z</time></trkpt><trkpt lat="39.91352" lon="-8.5971"><time>2023-01-14T09:11:35.000Z</time></trkpt><trkpt lat="39.91354" lon="-8.59712"><time>2023-01-14T09:11:45.000Z</time></trkpt><trkpt lat="39.9136" lon="-8.59714"><ele>114</ele><time>2023-01-14T09:11:55.000Z</time></trkpt><trkpt lat="39.91362" lon="-8.59716"><time>2023-01-14T09:12:05.000Z</time></trkpt><trkpt lat="39.91367" lon="-8.59723"><time>2023-01-14T09:12:15.000Z</time></trkpt><trkpt lat="39.9137" lon="-8.59727"><time>2023-01-14T09:12:25.000Z</time></trkpt><trkpt lat="39.91375" lon="-8.59727"><time>2023-01-14T09:12:35.000Z</time></trkpt><trkpt lat="39.91377" lon="-8.59728"><ele>114</ele><time>2023-01-14T09:12:45.000Z</time></trkpt><trkpt lat="39.9138" lon="-8.59735"><time>2023-01-14T09:12:55.000Z</time></trkpt><trkpt lat="39.91387" lon="-8.59739"><time>2023-01-14T09:13:05.000Z</time></trkpt><trkpt lat="39.91396" lon="-8.59742"><ele>114</ele><time>2023-01-14T09:13:15.000Z</time></trkpt><trkpt lat="39.91401" lon="-8.59747"><time>2023-01-14T09:13:25.000Z</time></trkpt><trkpt lat="39.91406" lon="-8.59754"><time>2023-01-14T09:13:35.000Z</time></trkpt><trkpt lat="39.91412" lon="-8.59761"><ele>113</ele><time>2023-01-14T09:13:45.000Z</time></trkpt><trkpt lat="39.91414" lon="-8.59763"><time>2023-01-14T09:13:55.000Z</time></trkpt><trkpt lat="39.91421" lon="-8.59772"><time>2023-01-14T09:14:05.000Z</time></trkpt><trkpt lat="39.91425" lon="-8.59776"><time>2023-01-14T09:14:15.000Z</time></trkpt><trkpt lat="39.91431" lon="-8.59779"><ele>113</ele><time>2023-01-14T09:14:25.000Z</time></trkpt><trkpt lat="39.91434" lon="-8.59782"><time>2023-01-14T09:14:35.000Z</time></trkpt><trkpt lat="39.91436" lon="-8.59785"><time>2023-01-14T09:14:45.000Z</time></trkpt><trkpt lat="39.91437" lon="-8.5979"><time>2023-01-14T09:14:55.000Z</time></trkpt><trkpt lat="39.9144" lon="-8.59795"><time>2023-01-14T09:15:05.000Z</time></trkpt><trkpt lat="39.91442" lon="-8.59796"><time>2023-01-14T09:15:15.000Z</time></trkpt><trkpt lat="39.91453" lon="-8.59793"><ele>119</ele><time>2023-01-14T09:15:25.000Z</time></trkpt><trkpt lat="39.91455" lon="-8.59795"><time>2023-01-14T09:15:35.000Z</time></trkpt><trkpt lat="39.9146" lon="-8.59802"><time>2023-01-14T09:15:45.000Z</time></trkpt><trkpt lat="39.91466" lon="-8.59811"><time>2023-01-14T09:15:55.000Z</time></trkpt><trkpt lat="39.91471" lon="-8.59816"><ele>126</ele><time>2023-01-14T09:16:05.000Z</time></trkpt><trkpt lat="39.91475" lon="-8.59818"><time>2023-01-14T09:16:15.000Z</time></trkpt><trkpt lat="39.91477" lon="-8.5982"><time>2023-01-14T09:16:25.000Z</time></trkpt><trkpt lat="39.91478" lon="-8.59822"><time>2023-01-14T09:16:35.000Z</time></trkpt><trkpt lat="39.9148" lon="-8.59825"><time>2023-01-14T09:16:45.000Z</time></trkpt><trkpt lat="39.91487" lon="-8.59832"><ele>126</ele><time>2023-01-14T09:16:55.000Z</time></trkpt><trkpt lat="39.9149" lon="-8.59839"><time>2023-01-14T09:17:05.000Z</time></trkpt><trkpt lat="39.91493" lon="-8.5984"><time>2023-01-14T09:17:15.000Z</time></trkpt><trkpt lat="39.91496" lon="-8.59845"><time>2023-01-14T09:17:25.000Z</time></trkpt><trkpt lat="39.91501" lon="-8.59852"><ele>124</ele><time>2023-01-14T09:17:35.000Z</time></trkpt><trkpt lat="39.91502" lon="-8.59853"><time>2023-01-14T09:17:45.000Z</time></trkpt><trkpt lat="39.91505" lon="-8.59858"><time>2023-01-14T09:17:55.000Z</time></trkpt><trkpt lat="39.91506" lon="-8.59866"><time>2023-01-14T09:18:05.000Z</time></trkpt><trkpt lat="39.91512" lon="-8.59871"><time>2023-01-14T09:18:15.000Z</time></trkpt><trkpt lat="39.91518" lon="-8.59874"><ele>123</ele><time>2023-01-14T09:18:25.000Z</time></trkpt><trkpt lat="39.91522" lon="-8.59881"><time>2023-01-14T09:18:35.000Z</time></trkpt><trkpt lat="39.91527" lon="-8.59887"><time>2023-01-14T09:18:45.000Z</time></trkpt><trkpt lat="39.91529" lon="-8.59887"><time>2023-01-14T09:18:55.000Z</time></trkpt><trkpt lat="39.91531" lon="-8.59887"><time>2023-01-14T09:19:05.000Z</time></trkpt><trkpt lat="39.91532" lon="-8.59886"><time>2023-01-14T09:19:15.000Z</time></trkpt><trkpt lat="39.91533" lon="-8.59889"><ele>121</ele><time>2023-01-14T09:19:25.000Z</time></trkpt><trkpt lat="39.91535" lon="-8.5989"><time>2023-01-14T09:19:35.000Z</time></trkpt><trkpt lat="39.91537" lon="-8.5989"><time>2023-01-14T09:19:45.000Z</time></trkpt><trkpt lat="39.9154" lon="-8.59891"><time>2023-01-14T09:19:55.000Z</time></trkpt><trkpt lat="39.91541" lon="-8.59893"><time>2023-01-14T09:20:05.000Z</time></trkpt><trkpt lat="39.9154" lon="-8.5989"><time>2023-01-14T09:20:15.000Z</time></trkpt><trkpt lat="39.91541" lon="-8.59893"><time>2023-01-14T09:20:25.000Z</time></trkpt><trkpt lat="39.91545" lon="-8.59897"><time>2023-01-14T09:20:35.000Z</time></trkpt><trkpt lat="39.91547" lon="-8.59903"><ele>120</ele><time>2023-01-14T09:20:45.000Z</time></trkpt><trkpt lat="39.91549" lon="-8.59904"><time>2023-01-14T09:20:55.000Z</time></trkpt><trkpt lat="39.91549" lon="-8.59907"><time>2023-01-14T09:21:05.000Z</time></trkpt><trkpt lat="39.91557" lon="-8.59914"><time>2023-01-14T09:21:15.000Z</time></trkpt><trkpt lat="39.91559" lon="-8.59919"><time>2023-01-14T09:21:25.000Z</time></trkpt><trkpt lat="39.91559" lon="-8.59922"><time>2023-01-14T09:21:35.000Z</time></trkpt><trkpt lat="39.91571" lon="-8.59938"><ele>117</ele><time>2023-01-14T09:21:07.000Z</time></trkpt><trkpt lat="39.91574" lon="-8.59946"><time>2023-01-14T09:21:17.000Z</time></trkpt><trkpt lat="39.91579" lon="-8.59961"><time>2023-01-14T09:21:27.000Z</time></trkpt><trkpt lat="39.91581" lon="-8.59971"><ele>117</ele><time>2023-01-14T09:21:30.000Z</time></trkpt><trkpt lat="39.91583" lon="-8.59975"><time>2023-01-14T09:21:40.000Z</time></trkpt><trkpt lat="39.91583" lon="-8.59979"><time>2023-01-14T09:21:50.000Z</time></trkpt><trkpt lat="39.91585" lon="-8.59983"><time>2023-01-14T09:22:00.000Z</time></trkpt><trkpt lat="39.91587" lon="-8.59989"><time>2023-01-14T09:22:10.000Z</time></trkpt><trkpt lat="39.91591" lon="-8.59996"><ele>114</ele><time>2023-01-14T09:21:55.000Z</time></trkpt><trkpt lat="39.91596" lon="-8.60009"><time>2023-01-14T09:22:05.000Z</time></trkpt><trkpt lat="39.91602" lon="-8.60016"><time>2023-01-14T09:22:15.000Z</time></trkpt><trkpt lat="39.91608" lon="-8.60025"><ele>112</ele><time>2023-01-14T09:22:22.000Z</time></trkpt><trkpt lat="39.91613" lon="-8.60031"><time>2023-01-14T09:22:32.000Z</time></trkpt><trkpt lat="39.91618" lon="-8.60031"><time>2023-01-14T09:22:42.000Z</time></trkpt><trkpt lat="39.91622" lon="-8.60035"><time>2023-01-14T09:22:52.000Z</time></trkpt><trkpt lat="39.91619" lon="-8.60035"><time>2023-01-14T09:23:02.000Z</time></trkpt><trkpt lat="39.91618" lon="-8.60033"><time>2023-01-14T09:23:12.000Z</time></trkpt><trkpt lat="39.91617" lon="-8.60031"><ele>112</ele><time>2023-01-14T09:23:34.000Z</time></trkpt><trkpt lat="39.91626" lon="-8.6004"><time>2023-01-14T09:23:44.000Z</time></trkpt><trkpt lat="39.91627" lon="-8.60042"><time>2023-01-14T09:23:54.000Z</time></trkpt><trkpt lat="39.9163" lon="-8.60047"><time>2023-01-14T09:24:04.000Z</time></trkpt><trkpt lat="39.91635" lon="-8.60057"><ele>112</ele><time>2023-01-14T09:25:20.000Z</time></trkpt><trkpt lat="39.91641" lon="-8.60063"><time>2023-01-14T09:25:30.000Z</time></trkpt><trkpt lat="39.91646" lon="-8.60065"><time>2023-01-14T09:25:40.000Z</time></trkpt><trkpt lat="39.9165" lon="-8.60069"><time>2023-01-14T09:25:50.000Z</time></trkpt><trkpt lat="39.91653" lon="-8.60073"><ele>115</ele><time>2023-01-14T09:25:38.000Z</time></trkpt><trkpt lat="39.9167" lon="-8.6009"><ele>114</ele><time>2023-01-14T09:25:48.000Z</time></trkpt><trkpt lat="39.91677" lon="-8.60094"><time>2023-01-14T09:25:58.000Z</time></trkpt><trkpt lat="39.91683" lon="-8.60097"><time>2023-01-14T09:26:08.000Z</time></trkpt><trkpt lat="39.91693" lon="-8.60104"><ele>113</ele><time>2023-01-14T09:26:18.000Z</time></trkpt><trkpt lat="39.917" lon="-8.60108"><time>2023-01-14T09:26:28.000Z</time></trkpt><trkpt lat="39.91709" lon="-8.60115"><time>2023-01-14T09:26:38.000Z</time></trkpt><trkpt lat="39.91716" lon="-8.60121"><ele>110</ele><time>2023-01-14T09:26:48.000Z</time></trkpt><trkpt lat="39.91722" lon="-8.60128"><time>2023-01-14T09:26:58.000Z</time></trkpt><trkpt lat="39.91733" lon="-8.60133"><time>2023-01-14T09:27:08.000Z</time></trkpt><trkpt lat="39.91743" lon="-8.60141"><ele>109</ele><time>2023-01-14T09:27:18.000Z</time></trkpt><trkpt lat="39.91748" lon="-8.60142"><time>2023-01-14T09:27:28.000Z</time></trkpt><trkpt lat="39.91759" lon="-8.60153"><time>2023-01-14T09:27:38.000Z</time></trkpt><trkpt lat="39.91764" lon="-8.60156"><ele>109</ele><time>2023-01-14T09:27:48.000Z</time></trkpt><trkpt lat="39.91772" lon="-8.60163"><time>2023-01-14T09:27:58.000Z</time></trkpt><trkpt lat="39.91776" lon="-8.60169"><time>2023-01-14T09:28:08.000Z</time></trkpt><trkpt lat="39.91778" lon="-8.60176"><ele>107</ele><time>2023-01-14T09:28:18.000Z</time></trkpt><trkpt lat="39.91781" lon="-8.60178"><time>2023-01-14T09:28:28.000Z</time></trkpt><trkpt lat="39.91793" lon="-8.60186"><time>2023-01-14T09:28:38.000Z</time></trkpt><trkpt lat="39.91802" lon="-8.6019"><ele>107</ele><time>2023-01-14T09:28:48.000Z</time></trkpt><trkpt lat="39.91807" lon="-8.60189"><time>2023-01-14T09:28:58.000Z</time></trkpt><trkpt lat="39.91811" lon="-8.60187"><time>2023-01-14T09:29:08.000Z</time></trkpt><trkpt lat="39.91812" lon="-8.60185"><time>2023-01-14T09:29:18.000Z</time></trkpt><trkpt lat="39.91814" lon="-8.60185"><time>2023-01-14T09:29:28.000Z</time></trkpt><trkpt lat="39.91813" lon="-8.60183"><time>2023-01-14T09:29:38.000Z</time></trkpt><trkpt lat="39.91811" lon="-8.60183"><time>2023-01-14T09:29:48.000Z</time></trkpt><trkpt lat="39.91812" lon="-8.60181"><time>2023-01-14T09:29:58.000Z</time></trkpt><trkpt lat="39.91819" lon="-8.60179"><ele>108</ele><time>2023-01-14T09:30:08.000Z</time></trkpt><trkpt lat="39.91818" lon="-8.60176"><time>2023-01-14T09:30:18.000Z</time></trkpt><trkpt lat="39.91818" lon="-8.60171"><time>2023-01-14T09:30:28.000Z</time></trkpt><trkpt lat="39.91818" lon="-8.60167"><time>2023-01-14T09:30:38.000Z</time></trkpt><trkpt lat="39.91816" lon="-8.60165"><time>2023-01-14T09:30:48.000Z</time></trkpt><trkpt lat="39.91814" lon="-8.60157"><time>2023-01-14T09:30:58.000Z</time></trkpt><trkpt lat="39.91808" lon="-8.60145"><ele>105</ele><time>2023-01-14T09:31:08.000Z</time></trkpt><trkpt lat="39.91806" lon="-8.60144"><time>2023-01-14T09:31:18.000Z</time></trkpt><trkpt lat="39.91805" lon="-8.60142"><time>2023-01-14T09:31:28.000Z</time></trkpt><trkpt lat="39.91804" lon="-8.60137"><time>2023-01-14T09:31:38.000Z</time></trkpt><trkpt lat="39.91796" lon="-8.60126"><time>2023-01-14T09:31:48.000Z</time></trkpt><trkpt lat="39.91777" lon="-8.60114"><ele>103</ele><time>2023-01-14T09:31:58.000Z</time></trkpt><trkpt lat="39.91774" lon="-8.60113"><time>2023-01-14T09:32:08.000Z</time></trkpt><trkpt lat="39.91765" lon="-8.60112"><time>2023-01-14T09:32:18.000Z</time></trkpt><trkpt lat="39.91754" lon="-8.60107"><ele>103</ele><time>2023-01-14T09:32:28.000Z</time></trkpt><trkpt lat="39.91752" lon="-8.60105"><time>2023-01-14T09:32:38.000Z</time></trkpt><trkpt lat="39.9175" lon="-8.60102"><time>2023-01-14T09:32:48.000Z</time></trkpt><trkpt lat="39.91744" lon="-8.60094"><time>2023-01-14T09:32:58.000Z</time></trkpt><trkpt lat="39.91734" lon="-8.60084"><ele>107</ele><time>2023-01-14T09:33:08.000Z</time></trkpt><trkpt lat="39.91731" lon="-8.60082"><time>2023-01-14T09:33:18.000Z</time></trkpt><trkpt lat="39.91725" lon="-8.6008"><time>2023-01-14T09:33:28.000Z</time></trkpt><trkpt lat="39.91717" lon="-8.60072"><time>2023-01-14T09:33:38.000Z</time></trkpt><trkpt lat="39.91709" lon="-8.60067"><ele>109</ele><time>2023-01-14T09:37:19.000Z</time></trkpt><trkpt lat="39.91698" lon="-8.60057"><time>2023-01-14T09:37:29.000Z</time></trkpt><trkpt lat="39.91692" lon="-8.60051"><ele>108</ele><time>2023-01-14T09:37:37.000Z</time></trkpt><trkpt lat="39.91683" lon="-8.60032"><time>2023-01-14T09:37:47.000Z</time></trkpt><trkpt lat="39.91678" lon="-8.60028"><ele>108</ele><time>2023-01-14T09:37:52.000Z</time></trkpt><trkpt lat="39.91668" lon="-8.60016"><time>2023-01-14T09:38:02.000Z</time></trkpt><trkpt lat="39.9166" lon="-8.60011"><ele>108</ele><time>2023-01-14T09:38:10.000Z</time></trkpt><trkpt lat="39.91649" lon="-8.6"><time>2023-01-14T09:38:20.000Z</time></trkpt><trkpt lat="39.91645" lon="-8.59996"><time>2023-01-14T09:38:30.000Z</time></trkpt><trkpt lat="39.91641" lon="-8.59993"><ele>109</ele><time>2023-01-14T09:38:40.000Z</time></trkpt><trkpt lat="39.9164" lon="-8.59994"><time>2023-01-14T09:38:50.000Z</time></trkpt><trkpt lat="39.91638" lon="-8.59988"><time>2023-01-14T09:39:00.000Z</time></trkpt><trkpt lat="39.91631" lon="-8.59976"><time>2023-01-14T09:39:10.000Z</time></trkpt><trkpt lat="39.91626" lon="-8.59972"><ele>110</ele><time>2023-01-14T09:39:20.000Z</time></trkpt><trkpt lat="39.91618" lon="-8.59968"><time>2023-01-14T09:39:30.000Z</time></trkpt><trkpt lat="39.91616" lon="-8.59966"><time>2023-01-14T09:39:40.000Z</time></trkpt><trkpt lat="39.91614" lon="-8.59965"><time>2023-01-14T09:39:50.000Z</time></trkpt><trkpt lat="39.91616" lon="-8.59967"><time>2023-01-14T09:40:00.000Z</time></trkpt><trkpt lat="39.91614" lon="-8.59962"><time>2023-01-14T09:40:10.000Z</time></trkpt><trkpt lat="39.91606" lon="-8.59953"><ele>110</ele><time>2023-01-14T09:40:57.000Z</time></trkpt><trkpt lat="39.91602" lon="-8.59945"><time>2023-01-14T09:41:07.000Z</time></trkpt><trkpt lat="39.91602" lon="-8.59942"><time>2023-01-14T09:41:17.000Z</time></trkpt><trkpt lat="39.916" lon="-8.59927"><ele>104</ele><time>2023-01-14T09:41:14.000Z</time></trkpt><trkpt lat="39.916" lon="-8.59914"><time>2023-01-14T09:41:24.000Z</time></trkpt><trkpt lat="39.91597" lon="-8.59897"><ele>104</ele><time>2023-01-14T09:41:32.000Z</time></trkpt><trkpt lat="39.91588" lon="-8.5987"><ele>103</ele><time>2023-01-14T09:41:42.000Z</time></trkpt><trkpt lat="39.91585" lon="-8.59863"><time>2023-01-14T09:41:52.000Z</time></trkpt><trkpt lat="39.91581" lon="-8.59856"><time>2023-01-14T09:42:02.000Z</time></trkpt><trkpt lat="39.91575" lon="-8.59846"><ele>103</ele><time>2023-01-14T09:42:12.000Z</time></trkpt><trkpt lat="39.91568" lon="-8.59827"><time>2023-01-14T09:42:22.000Z</time></trkpt><trkpt lat="39.91562" lon="-8.59815"><ele>106</ele><time>2023-01-14T09:42:32.000Z</time></trkpt><trkpt lat="39.9156" lon="-8.59812"><time>2023-01-14T09:42:42.000Z</time></trkpt><trkpt lat="39.91546" lon="-8.59799"><time>2023-01-14T09:42:52.000Z</time></trkpt><trkpt lat="39.91539" lon="-8.59785"><ele>112</ele><time>2023-01-14T09:43:02.000Z</time></trkpt><trkpt lat="39.91535" lon="-8.59779"><time>2023-01-14T09:43:12.000Z</time></trkpt><trkpt lat="39.91531" lon="-8.59775"><time>2023-01-14T09:43:22.000Z</time></trkpt><trkpt lat="39.91524" lon="-8.59762"><ele>112</ele><time>2023-01-14T09:43:32.000Z</time></trkpt><trkpt lat="39.91521" lon="-8.59758"><time>2023-01-14T09:43:42.000Z</time></trkpt><trkpt lat="39.91516" lon="-8.5975"><time>2023-01-14T09:43:52.000Z</time></trkpt><trkpt lat="39.9151" lon="-8.59737"><ele>111</ele><time>2023-01-14T09:44:02.000Z</time></trkpt><trkpt lat="39.91503" lon="-8.59728"><time>2023-01-14T09:44:12.000Z</time></trkpt><trkpt lat="39.91471" lon="-8.59705"><ele>105</ele><time>2023-01-14T09:44:22.000Z</time></trkpt><trkpt lat="39.91459" lon="-8.59698"><time>2023-01-14T09:44:32.000Z</time></trkpt><trkpt lat="39.91454" lon="-8.59693"><time>2023-01-14T09:44:42.000Z</time></trkpt><trkpt lat="39.9145" lon="-8.5969"><ele>105</ele><time>2023-01-14T09:44:52.000Z</time></trkpt><trkpt lat="39.91443" lon="-8.59683"><time>2023-01-14T09:45:02.000Z</time></trkpt><trkpt lat="39.91438" lon="-8.59676"><time>2023-01-14T09:45:12.000Z</time></trkpt><trkpt lat="39.91419" lon="-8.59659"><ele>104</ele><time>2023-01-14T09:45:22.000Z</time></trkpt><trkpt lat="39.91414" lon="-8.59652"><time>2023-01-14T09:45:32.000Z</time></trkpt><trkpt lat="39.91405" lon="-8.59643"><time>2023-01-14T09:45:42.000Z</time></trkpt><trkpt lat="39.91402" lon="-8.59637"><ele>103</ele><time>2023-01-14T09:45:52.000Z</time></trkpt><trkpt lat="39.91397" lon="-8.5962"><time>2023-01-14T09:46:02.000Z</time></trkpt><trkpt lat="39.91387" lon="-8.59598"><ele>103</ele><time>2023-01-14T09:46:12.000Z</time></trkpt><trkpt lat="39.91383" lon="-8.59593"><time>2023-01-14T09:46:22.000Z</time></trkpt><trkpt lat="39.91371" lon="-8.59581"><time>2023-01-14T09:46:32.000Z</time></trkpt><trkpt lat="39.91365" lon="-8.59569"><ele>104</ele><time>2023-01-14T09:45:41.000Z</time></trkpt><trkpt lat="39.9136" lon="-8.59559"><time>2023-01-14T09:45:51.000Z</time></trkpt><trkpt lat="39.91352" lon="-8.59546"><ele>104</ele><time>2023-01-14T09:45:57.000Z</time></trkpt><trkpt lat="39.9133" lon="-8.59517"><ele>105</ele><time>2023-01-14T09:46:21.000Z</time></trkpt><trkpt lat="39.91316" lon="-8.59494"><ele>113</ele><time>2023-01-14T09:46:31.000Z</time></trkpt><trkpt lat="39.9131" lon="-8.59482"><time>2023-01-14T09:46:41.000Z</time></trkpt><trkpt lat="39.91293" lon="-8.59443"><ele>114</ele><time>2023-01-14T09:46:51.000Z</time></trkpt><trkpt lat="39.91292" lon="-8.5944"><time>2023-01-14T09:47:01.000Z</time></trkpt><trkpt lat="39.91294" lon="-8.59426"><time>2023-01-14T09:47:11.000Z</time></trkpt><trkpt lat="39.91291" lon="-8.59419"><time>2023-01-14T09:47:21.000Z</time></trkpt><trkpt lat="39.91289" lon="-8.59415"><ele>114</ele><time>2023-01-14T09:47:31.000Z</time></trkpt><trkpt lat="39.91288" lon="-8.59412"><time>2023-01-14T09:47:41.000Z</time></trkpt><trkpt lat="39.91287" lon="-8.59403"><time>2023-01-14T09:47:51.000Z</time></trkpt><trkpt lat="39.91285" lon="-8.59402"><time>2023-01-14T09:48:01.000Z</time></trkpt><trkpt lat="39.91284" lon="-8.59404"><time>2023-01-14T09:48:11.000Z</time></trkpt><trkpt lat="39.91278" lon="-8.59401"><time>2023-01-14T09:48:21.000Z</time></trkpt><trkpt lat="39.91269" lon="-8.59387"><ele>114</ele><time>2023-01-14T09:48:46.000Z</time></trkpt><trkpt lat="39.91267" lon="-8.59385"><time>2023-01-14T09:48:56.000Z</time></trkpt><trkpt lat="39.91263" lon="-8.5938"><time>2023-01-14T09:49:06.000Z</time></trkpt><trkpt lat="39.91258" lon="-8.59377"><time>2023-01-14T09:49:16.000Z</time></trkpt><trkpt lat="39.91256" lon="-8.59375"><time>2023-01-14T09:49:26.000Z</time></trkpt><trkpt lat="39.91254" lon="-8.5937"><time>2023-01-14T09:49:36.000Z</time></trkpt><trkpt lat="39.91252" lon="-8.59367"><ele>116</ele><time>2023-01-14T09:49:04.000Z</time></trkpt><trkpt lat="39.91251" lon="-8.59364"><time>2023-01-14T09:49:14.000Z</time></trkpt><trkpt lat="39.91248" lon="-8.59351"><time>2023-01-14T09:49:24.000Z</time></trkpt><trkpt lat="39.91248" lon="-8.5934"><ele>117</ele><time>2023-01-14T09:49:19.000Z</time></trkpt><trkpt lat="39.91252" lon="-8.59326"><time>2023-01-14T09:49:29.000Z</time></trkpt><trkpt lat="39.91253" lon="-8.59313"><ele>117</ele><time>2023-01-14T09:49:36.000Z</time></trkpt><trkpt lat="39.91255" lon="-8.59303"><time>2023-01-14T09:49:46.000Z</time></trkpt><trkpt lat="39.91256" lon="-8.59299"><time>2023-01-14T09:49:56.000Z</time></trkpt><trkpt lat="39.91251" lon="-8.59277"><ele>116</ele><time>2023-01-14T09:49:55.000Z</time></trkpt><trkpt lat="39.91245" lon="-8.59257"><time>2023-01-14T09:50:05.000Z</time></trkpt><trkpt lat="39.91237" lon="-8.59238"><ele>116</ele><time>2023-01-14T09:50:20.000Z</time></trkpt><trkpt lat="39.91233" lon="-8.59233"><time>2023-01-14T09:50:30.000Z</time></trkpt><trkpt lat="39.91224" lon="-8.59222"><time>2023-01-14T09:50:40.000Z</time></trkpt><trkpt lat="39.91221" lon="-8.59217"><ele>116</ele><time>2023-01-14T09:50:35.000Z</time></trkpt><trkpt lat="39.91202" lon="-8.59198"><ele>125</ele><time>2023-01-14T09:50:45.000Z</time></trkpt><trkpt lat="39.91188" lon="-8.59186"><time>2023-01-14T09:50:55.000Z</time></trkpt><trkpt lat="39.91177" lon="-8.59173"><ele>123</ele><time>2023-01-14T09:51:05.000Z</time></trkpt><trkpt lat="39.91175" lon="-8.59172"><time>2023-01-14T09:51:15.000Z</time></trkpt><trkpt lat="39.91168" lon="-8.59169"><time>2023-01-14T09:51:25.000Z</time></trkpt><trkpt lat="39.91166" lon="-8.59167"><time>2023-01-14T09:51:35.000Z</time></trkpt><trkpt lat="39.91163" lon="-8.59163"><time>2023-01-14T09:51:45.000Z</time></trkpt><trkpt lat="39.91151" lon="-8.59149"><ele>121</ele><time>2023-01-14T09:51:40.000Z</time></trkpt><trkpt lat="39.91146" lon="-8.59146"><time>2023-01-14T09:51:50.000Z</time></trkpt><trkpt lat="39.91144" lon="-8.59144"><time>2023-01-14T09:52:00.000Z</time></trkpt><trkpt lat="39.9114" lon="-8.59138"><time>2023-01-14T09:52:10.000Z</time></trkpt><trkpt lat="39.91133" lon="-8.59128"><ele>121</ele><time>2023-01-14T09:51:58.000Z</time></trkpt><trkpt lat="39.9112" lon="-8.59114"><time>2023-01-14T09:52:08.000Z</time></trkpt><trkpt lat="39.91118" lon="-8.59111"><time>2023-01-14T09:52:18.000Z</time></trkpt><trkpt lat="39.91116" lon="-8.59104"><ele>120</ele><time>2023-01-14T09:52:14.000Z</time></trkpt><trkpt lat="39.91102" lon="-8.59081"><ele>120</ele><time>2023-01-14T09:52:24.000Z</time></trkpt><trkpt lat="39.91098" lon="-8.59072"><time>2023-01-14T09:52:34.000Z</time></trkpt><trkpt lat="39.91096" lon="-8.59063"><time>2023-01-14T09:52:44.000Z</time></trkpt><trkpt lat="39.91092" lon="-8.59054"><ele>122</ele><time>2023-01-14T09:52:54.000Z</time></trkpt><trkpt lat="39.9109" lon="-8.59052"><time>2023-01-14T09:53:04.000Z</time></trkpt><trkpt lat="39.91086" lon="-8.59048"><time>2023-01-14T09:53:14.000Z</time></trkpt><trkpt lat="39.91082" lon="-8.59042"><time>2023-01-14T09:53:24.000Z</time></trkpt><trkpt lat="39.91074" lon="-8.59023"><ele>124</ele><time>2023-01-14T09:53:34.000Z</time></trkpt><trkpt lat="39.9107" lon="-8.59018"><time>2023-01-14T09:53:44.000Z</time></trkpt><trkpt lat="39.91052" lon="-8.58992"><ele>126</ele><time>2023-01-14T09:53:54.000Z</time></trkpt><trkpt lat="39.91048" lon="-8.58988"><time>2023-01-14T09:54:04.000Z</time></trkpt><trkpt lat="39.9104" lon="-8.58979"><time>2023-01-14T09:54:14.000Z</time></trkpt><trkpt lat="39.91033" lon="-8.58973"><ele>126</ele><time>2023-01-14T09:54:24.000Z</time></trkpt><trkpt lat="39.91029" lon="-8.58968"><time>2023-01-14T09:54:34.000Z</time></trkpt><trkpt lat="39.91022" lon="-8.58962"><time>2023-01-14T09:54:44.000Z</time></trkpt><trkpt lat="39.91019" lon="-8.5896"><time>2023-01-14T09:54:54.000Z</time></trkpt><trkpt lat="39.91015" lon="-8.5896"><ele>126</ele><time>2023-01-14T09:55:04.000Z</time></trkpt><trkpt lat="39.91011" lon="-8.58957"><time>2023-01-14T09:55:14.000Z</time></trkpt><trkpt lat="39.91007" lon="-8.58954"><time>2023-01-14T09:55:24.000Z</time></trkpt><trkpt lat="39.91" lon="-8.58943"><time>2023-01-14T09:55:34.000Z</time></trkpt><trkpt lat="39.90991" lon="-8.58934"><ele>126</ele><time>2023-01-14T09:55:07.000Z</time></trkpt><trkpt lat="39.90985" lon="-8.58926"><time>2023-01-14T09:55:17.000Z</time></trkpt><trkpt lat="39.90981" lon="-8.58916"><time>2023-01-14T09:55:27.000Z</time></trkpt><trkpt lat="39.90979" lon="-8.58914"><time>2023-01-14T09:55:37.000Z</time></trkpt><trkpt lat="39.90977" lon="-8.58912"><ele>126</ele><time>2023-01-14T09:55:47.000Z</time></trkpt><trkpt lat="39.90973" lon="-8.58906"><time>2023-01-14T09:55:57.000Z</time></trkpt><trkpt lat="39.90969" lon="-8.58903"><time>2023-01-14T09:56:07.000Z</time></trkpt><trkpt lat="39.90964" lon="-8.58896"><time>2023-01-14T09:56:17.000Z</time></trkpt><trkpt lat="39.90961" lon="-8.58892"><ele>131</ele><time>2023-01-14T09:56:27.000Z</time></trkpt><trkpt lat="39.90959" lon="-8.58886"><time>2023-01-14T09:56:37.000Z</time></trkpt><trkpt lat="39.90957" lon="-8.58875"><time>2023-01-14T09:56:47.000Z</time></trkpt><trkpt lat="39.90955" lon="-8.58866"><ele>132</ele><time>2023-01-14T09:56:57.000Z</time></trkpt><trkpt lat="39.90953" lon="-8.58864"><time>2023-01-14T09:57:07.000Z</time></trkpt><trkpt lat="39.90949" lon="-8.58852"><time>2023-01-14T09:57:17.000Z</time></trkpt><trkpt lat="39.90947" lon="-8.58834"><ele>134</ele><time>2023-01-14T09:57:27.000Z</time></trkpt><trkpt lat="39.90944" lon="-8.58822"><time>2023-01-14T09:57:37.000Z</time></trkpt><trkpt lat="39.90935" lon="-8.58801"><ele>137</ele><time>2023-01-14T09:57:47.000Z</time></trkpt><trkpt lat="39.90933" lon="-8.58798"><time>2023-01-14T09:57:57.000Z</time></trkpt><trkpt lat="39.90924" lon="-8.58788"><time>2023-01-14T09:58:07.000Z</time></trkpt><trkpt lat="39.90916" lon="-8.58781"><ele>141</ele><time>2023-01-14T09:57:08.000Z</time></trkpt><trkpt lat="39.90905" lon="-8.58775"><time>2023-01-14T09:57:18.000Z</time></trkpt><trkpt lat="39.90901" lon="-8.58774"><time>2023-01-14T09:57:28.000Z</time></trkpt><trkpt lat="39.9089" lon="-8.58772"><ele>141</ele><time>2023-01-14T09:57:38.000Z</time></trkpt><trkpt lat="39.90887" lon="-8.58773"><time>2023-01-14T09:57:48.000Z</time></trkpt><trkpt lat="39.90872" lon="-8.58778"><time>2023-01-14T09:57:58.000Z</time></trkpt><trkpt lat="39.90863" lon="-8.58781"><ele>138</ele><time>2023-01-14T09:58:08.000Z</time></trkpt><trkpt lat="39.90856" lon="-8.58779"><time>2023-01-14T09:58:18.000Z</time></trkpt><trkpt lat="39.90847" lon="-8.58777"><time>2023-01-14T09:58:28.000Z</time></trkpt><trkpt lat="39.9084" lon="-8.58772"><ele>135</ele><time>2023-01-14T09:58:38.000Z</time></trkpt><trkpt lat="39.90838" lon="-8.58771"><time>2023-01-14T09:58:48.000Z</time></trkpt><trkpt lat="39.90833" lon="-8.58765"><time>2023-01-14T09:58:58.000Z</time></trkpt><trkpt lat="39.90826" lon="-8.58757"><time>2023-01-14T09:59:08.000Z</time></trkpt><trkpt lat="39.90816" lon="-8.58746"><ele>134</ele><time>2023-01-14T09:59:18.000Z</time></trkpt><trkpt lat="39.90814" lon="-8.58742"><time>2023-01-14T09:59:28.000Z</time></trkpt><trkpt lat="39.90813" lon="-8.58736"><time>2023-01-14T09:59:38.000Z</time></trkpt><trkpt lat="39.90815" lon="-8.58742"><time>2023-01-14T09:59:48.000Z</time></trkpt><trkpt lat="39.90813" lon="-8.58735"><time>2023-01-14T09:59:58.000Z</time></trkpt><trkpt lat="39.90814" lon="-8.58727"><ele>134</ele><time>2023-01-14T09:59:01.000Z</time></trkpt><trkpt lat="39.90813" lon="-8.58719"><time>2023-01-14T09:59:11.000Z</time></trkpt><trkpt lat="39.90813" lon="-8.58706"><time>2023-01-14T09:59:21.000Z</time></trkpt><trkpt lat="39.90814" lon="-8.58699"><ele>140</ele><time>2023-01-14T09:59:21.000Z</time></trkpt><trkpt lat="39.90812" lon="-8.5869"><time>2023-01-14T09:59:31.000Z</time></trkpt><trkpt lat="39.90805" lon="-8.58675"><ele>136</ele><time>2023-01-14T09:59:36.000Z</time></trkpt><trkpt lat="39.90801" lon="-8.58669"><time>2023-01-14T09:59:46.000Z</time></trkpt><trkpt lat="39.90786" lon="-8.58658"><ele>132</ele><time>2023-01-14T09:59:55.000Z</time></trkpt><trkpt lat="39.90783" lon="-8.58655"><time>2023-01-14T10:00:05.000Z</time></trkpt><trkpt lat="39.90779" lon="-8.58651"><time>2023-01-14T10:00:15.000Z</time></trkpt><trkpt lat="39.90769" lon="-8.58638"><ele>132</ele><time>2023-01-14T10:00:13.000Z</time></trkpt><trkpt lat="39.90763" lon="-8.5863"><time>2023-01-14T10:00:23.000Z</time></trkpt><trkpt lat="39.90761" lon="-8.58623"><time>2023-01-14T10:00:33.000Z</time></trkpt><trkpt lat="39.90757" lon="-8.58613"><ele>132</ele><time>2023-01-14T10:00:43.000Z</time></trkpt><trkpt lat="39.90757" lon="-8.58611"><time>2023-01-14T10:00:53.000Z</time></trkpt><trkpt lat="39.90755" lon="-8.58606"><time>2023-01-14T10:01:03.000Z</time></trkpt><trkpt lat="39.90755" lon="-8.58603"><time>2023-01-14T10:01:13.000Z</time></trkpt><trkpt lat="39.90754" lon="-8.58582"><ele>133</ele><time>2023-01-14T10:01:01.000Z</time></trkpt><trkpt lat="39.90754" lon="-8.58565"><time>2023-01-14T10:01:11.000Z</time></trkpt><trkpt lat="39.90752" lon="-8.58551"><ele>134</ele><time>2023-01-14T10:01:22.000Z</time></trkpt><trkpt lat="39.90751" lon="-8.58547"><time>2023-01-14T10:01:32.000Z</time></trkpt><trkpt lat="39.90751" lon="-8.5855"><time>2023-01-14T10:01:42.000Z</time></trkpt><trkpt lat="39.90751" lon="-8.58546"><time>2023-01-14T10:01:52.000Z</time></trkpt><trkpt lat="39.90746" lon="-8.58531"><ele>136</ele><time>2023-01-14T10:01:52.000Z</time></trkpt><trkpt lat="39.90739" lon="-8.58518"><time>2023-01-14T10:02:02.000Z</time></trkpt><trkpt lat="39.90737" lon="-8.5851"><time>2023-01-14T10:02:12.000Z</time></trkpt><trkpt lat="39.90733" lon="-8.58503"><ele>140</ele><time>2023-01-14T10:02:07.000Z</time></trkpt><trkpt lat="39.90726" lon="-8.58487"><time>2023-01-14T10:02:17.000Z</time></trkpt><trkpt lat="39.90729" lon="-8.58495"><ele>140</ele><time>2023-01-14T10:02:27.000Z</time></trkpt><trkpt lat="39.90727" lon="-8.5849"><time>2023-01-14T10:02:37.000Z</time></trkpt><trkpt lat="39.90724" lon="-8.58482"><time>2023-01-14T10:02:47.000Z</time></trkpt><trkpt lat="39.90722" lon="-8.58474"><time>2023-01-14T10:02:57.000Z</time></trkpt><trkpt lat="39.90715" lon="-8.58451"><ele>141</ele><time>2023-01-14T10:03:35.000Z</time></trkpt><trkpt lat="39.90716" lon="-8.58437"><time>2023-01-14T10:03:45.000Z</time></trkpt><trkpt lat="39.90714" lon="-8.58431"><time>2023-01-14T10:03:55.000Z</time></trkpt><trkpt lat="39.90715" lon="-8.5842"><ele>143</ele><time>2023-01-14T10:03:53.000Z</time></trkpt><trkpt lat="39.90714" lon="-8.58414"><time>2023-01-14T10:04:03.000Z</time></trkpt><trkpt lat="39.90714" lon="-8.58404"><time>2023-01-14T10:04:13.000Z</time></trkpt><trkpt lat="39.90714" lon="-8.584"><time>2023-01-14T10:04:23.000Z</time></trkpt><trkpt lat="39.9071" lon="-8.58391"><ele>139</ele><time>2023-01-14T10:04:11.000Z</time></trkpt><trkpt lat="39.90705" lon="-8.58382"><time>2023-01-14T10:04:21.000Z</time></trkpt><trkpt lat="39.90702" lon="-8.58379"><time>2023-01-14T10:04:31.000Z</time></trkpt><trkpt lat="39.90699" lon="-8.58373"><time>2023-01-14T10:04:41.000Z</time></trkpt><trkpt lat="39.90695" lon="-8.58368"><ele>135</ele><time>2023-01-14T10:04:26.000Z</time></trkpt><trkpt lat="39.90694" lon="-8.58364"><time>2023-01-14T10:04:36.000Z</time></trkpt><trkpt lat="39.90689" lon="-8.58358"><time>2023-01-14T10:04:46.000Z</time></trkpt><trkpt lat="39.90682" lon="-8.58343"><ele>135</ele><time>2023-01-14T10:04:42.000Z</time></trkpt><trkpt lat="39.90676" lon="-8.58333"><time>2023-01-14T10:04:52.000Z</time></trkpt><trkpt lat="39.90671" lon="-8.58327"><time>2023-01-14T10:05:02.000Z</time></trkpt><trkpt lat="39.90666" lon="-8.58323"><ele>136</ele><time>2023-01-14T10:04:59.000Z</time></trkpt><trkpt lat="39.90654" lon="-8.58318"><time>2023-01-14T10:05:09.000Z</time></trkpt><trkpt lat="39.90644" lon="-8.58315"><ele>135</ele><time>2023-01-14T10:05:19.000Z</time></trkpt><trkpt lat="39.9064" lon="-8.58313"><time>2023-01-14T10:05:29.000Z</time></trkpt><trkpt lat="39.90638" lon="-8.5831"><time>2023-01-14T10:05:39.000Z</time></trkpt><trkpt lat="39.9063" lon="-8.58302"><time>2023-01-14T10:05:49.000Z</time></trkpt><trkpt lat="39.9063" lon="-8.58296"><ele>136</ele><time>2023-01-14T10:05:59.000Z</time></trkpt><trkpt lat="39.90628" lon="-8.58291"><time>2023-01-14T10:06:09.000Z</time></trkpt><trkpt lat="39.90628" lon="-8.58285"><time>2023-01-14T10:06:19.000Z</time></trkpt><trkpt lat="39.90625" lon="-8.58271"><time>2023-01-14T10:06:29.000Z</time></trkpt><trkpt lat="39.90624" lon="-8.58273"><ele>136</ele><time>2023-01-14T10:06:39.000Z</time></trkpt><trkpt lat="39.90623" lon="-8.58271"><time>2023-01-14T10:06:49.000Z</time></trkpt><trkpt lat="39.90623" lon="-8.58267"><time>2023-01-14T10:06:59.000Z</time></trkpt><trkpt lat="39.90622" lon="-8.58264"><time>2023-01-14T10:07:09.000Z</time></trkpt><trkpt lat="39.9062" lon="-8.58258"><time>2023-01-14T10:07:19.000Z</time></trkpt><trkpt lat="39.90617" lon="-8.58252"><time>2023-01-14T10:07:29.000Z</time></trkpt><trkpt lat="39.90615" lon="-8.5825"><time>2023-01-14T10:07:39.000Z</time></trkpt><trkpt lat="39.90612" lon="-8.58245"><ele>137</ele><time>2023-01-14T10:07:49.000Z</time></trkpt><trkpt lat="39.90607" lon="-8.58236"><time>2023-01-14T10:07:59.000Z</time></trkpt><trkpt lat="39.90606" lon="-8.58231"><time>2023-01-14T10:08:09.000Z</time></trkpt><trkpt lat="39.90596" lon="-8.58216"><ele>136</ele><time>2023-01-14T10:08:19.000Z</time></trkpt><trkpt lat="39.90593" lon="-8.5821"><time>2023-01-14T10:08:29.000Z</time></trkpt><trkpt lat="39.90587" lon="-8.58189"><ele>137</ele><time>2023-01-14T10:08:39.000Z</time></trkpt><trkpt lat="39.90585" lon="-8.5818"><time>2023-01-14T10:08:49.000Z</time></trkpt><trkpt lat="39.90582" lon="-8.58171"><time>2023-01-14T10:08:59.000Z</time></trkpt><trkpt lat="39.9058" lon="-8.58163"><ele>138</ele><time>2023-01-14T10:09:09.000Z</time></trkpt><trkpt lat="39.90576" lon="-8.58155"><time>2023-01-14T10:09:19.000Z</time></trkpt><trkpt lat="39.90574" lon="-8.58147"><time>2023-01-14T10:09:29.000Z</time></trkpt><trkpt lat="39.90573" lon="-8.5814"><time>2023-01-14T10:09:39.000Z</time></trkpt><trkpt lat="39.90571" lon="-8.5813"><ele>142</ele><time>2023-01-14T10:09:49.000Z</time></trkpt><trkpt lat="39.90571" lon="-8.58126"><time>2023-01-14T10:09:59.000Z</time></trkpt><trkpt lat="39.90574" lon="-8.58108"><time>2023-01-14T10:10:09.000Z</time></trkpt><trkpt lat="39.90572" lon="-8.58098"><ele>146</ele><time>2023-01-14T10:10:19.000Z</time></trkpt><trkpt lat="39.90573" lon="-8.58092"><time>2023-01-14T10:10:29.000Z</time></trkpt><trkpt lat="39.90573" lon="-8.58088"><time>2023-01-14T10:10:39.000Z</time></trkpt><trkpt lat="39.90571" lon="-8.58062"><ele>145</ele><time>2023-01-14T10:10:49.000Z</time></trkpt><trkpt lat="39.90573" lon="-8.58054"><time>2023-01-14T10:10:59.000Z</time></trkpt><trkpt lat="39.90572" lon="-8.58047"><time>2023-01-14T10:11:09.000Z</time></trkpt><trkpt lat="39.90569" lon="-8.58037"><time>2023-01-14T10:11:19.000Z</time></trkpt><trkpt lat="39.90561" lon="-8.58023"><ele>146</ele><time>2023-01-14T10:09:47.000Z</time></trkpt><trkpt lat="39.90557" lon="-8.58017"><time>2023-01-14T10:09:57.000Z</time></trkpt><trkpt lat="39.90553" lon="-8.58009"><time>2023-01-14T10:10:07.000Z</time></trkpt><trkpt lat="39.90547" lon="-8.58001"><ele>147</ele><time>2023-01-14T10:10:04.000Z</time></trkpt><trkpt lat="39.90543" lon="-8.57997"><time>2023-01-14T10:10:14.000Z</time></trkpt><trkpt lat="39.90539" lon="-8.57991"><time>2023-01-14T10:10:24.000Z</time></trkpt><trkpt lat="39.90535" lon="-8.57989"><time>2023-01-14T10:10:34.000Z</time></trkpt><trkpt lat="39.90535" lon="-8.57986"><time>2023-01-14T10:10:44.000Z</time></trkpt><trkpt lat="39.90531" lon="-8.57984"><ele>147</ele><time>2023-01-14T10:10:54.000Z</time></trkpt><trkpt lat="39.90529" lon="-8.57981"><time>2023-01-14T10:11:04.000Z</time></trkpt><trkpt lat="39.90515" lon="-8.57972"><time>2023-01-14T10:11:14.000Z</time></trkpt><trkpt lat="39.90509" lon="-8.57965"><ele>147</ele><time>2023-01-14T10:12:18.000Z</time></trkpt><trkpt lat="39.905" lon="-8.57952"><time>2023-01-14T10:12:28.000Z</time></trkpt><trkpt lat="39.90497" lon="-8.57946"><time>2023-01-14T10:12:38.000Z</time></trkpt><trkpt lat="39.90496" lon="-8.57944"><ele>150</ele><time>2023-01-14T10:12:48.000Z</time></trkpt><trkpt lat="39.90493" lon="-8.57942"><time>2023-01-14T10:12:58.000Z</time></trkpt><trkpt lat="39.90475" lon="-8.57935"><ele>154</ele><time>2023-01-14T10:13:08.000Z</time></trkpt><trkpt lat="39.9047" lon="-8.57932"><time>2023-01-14T10:13:18.000Z</time></trkpt><trkpt lat="39.90457" lon="-8.57926"><time>2023-01-14T10:13:28.000Z</time></trkpt><trkpt lat="39.90452" lon="-8.57925"><ele>154</ele><time>2023-01-14T10:13:38.000Z</time></trkpt><trkpt lat="39.90448" lon="-8.57922"><time>2023-01-14T10:13:48.000Z</time></trkpt><trkpt lat="39.90442" lon="-8.57922"><time>2023-01-14T10:13:58.000Z</time></trkpt><trkpt lat="39.9043" lon="-8.57918"><ele>153</ele><time>2023-01-14T10:14:08.000Z</time></trkpt><trkpt lat="39.90425" lon="-8.57916"><time>2023-01-14T10:14:18.000Z</time></trkpt><trkpt lat="39.90421" lon="-8.57915"><time>2023-01-14T10:14:28.000Z</time></trkpt><trkpt lat="39.90413" lon="-8.57914"><time>2023-01-14T10:14:38.000Z</time></trkpt><trkpt lat="39.90398" lon="-8.57908"><ele>153</ele><time>2023-01-14T10:14:48.000Z</time></trkpt><trkpt lat="39.90393" lon="-8.57907"><time>2023-01-14T10:14:58.000Z</time></trkpt><trkpt lat="39.90385" lon="-8.57902"><time>2023-01-14T10:15:08.000Z</time></trkpt><trkpt lat="39.90379" lon="-8.579"><time>2023-01-14T10:15:18.000Z</time></trkpt><trkpt lat="39.90375" lon="-8.57898"><ele>153</ele><time>2023-01-14T10:15:28.000Z</time></trkpt><trkpt lat="39.90373" lon="-8.57898"><time>2023-01-14T10:15:38.000Z</time></trkpt><trkpt lat="39.90365" lon="-8.57898"><time>2023-01-14T10:15:48.000Z</time></trkpt><trkpt lat="39.90357" lon="-8.57896"><time>2023-01-14T10:15:58.000Z</time></trkpt><trkpt lat="39.90352" lon="-8.57898"><ele>153</ele><time>2023-01-14T10:16:08.000Z</time></trkpt><trkpt lat="39.90346" lon="-8.57898"><time>2023-01-14T10:16:18.000Z</time></trkpt><trkpt lat="39.90339" lon="-8.57894"><time>2023-01-14T10:16:28.000Z</time></trkpt><trkpt lat="39.90338" lon="-8.57891"><time>2023-01-14T10:16:38.000Z</time></trkpt><trkpt lat="39.90338" lon="-8.57886"><time>2023-01-14T10:16:48.000Z</time></trkpt><trkpt lat="39.90337" lon="-8.57871"><ele>153</ele><time>2023-01-14T10:16:58.000Z</time></trkpt><trkpt lat="39.90335" lon="-8.57862"><time>2023-01-14T10:17:08.000Z</time></trkpt><trkpt lat="39.90335" lon="-8.5786"><time>2023-01-14T10:17:18.000Z</time></trkpt><trkpt lat="39.90333" lon="-8.57856"><time>2023-01-14T10:17:28.000Z</time></trkpt><trkpt lat="39.90328" lon="-8.57849"><time>2023-01-14T10:17:38.000Z</time></trkpt><trkpt lat="39.90321" lon="-8.57841"><ele>153</ele><time>2023-01-14T10:17:48.000Z</time></trkpt><trkpt lat="39.90311" lon="-8.57838"><time>2023-01-14T10:17:58.000Z</time></trkpt><trkpt lat="39.9031" lon="-8.57835"><time>2023-01-14T10:18:08.000Z</time></trkpt><trkpt lat="39.9031" lon="-8.57827"><time>2023-01-14T10:18:18.000Z</time></trkpt><trkpt lat="39.90312" lon="-8.5782"><ele>152</ele><time>2023-01-14T10:18:28.000Z</time></trkpt><trkpt lat="39.90314" lon="-8.57818"><time>2023-01-14T10:18:38.000Z</time></trkpt><trkpt lat="39.90315" lon="-8.57815"><time>2023-01-14T10:18:48.000Z</time></trkpt><trkpt lat="39.90316" lon="-8.57807"><time>2023-01-14T10:18:58.000Z</time></trkpt><trkpt lat="39.90312" lon="-8.57794"><ele>152</ele><time>2023-01-14T10:19:08.000Z</time></trkpt><trkpt lat="39.90312" lon="-8.57787"><time>2023-01-14T10:19:18.000Z</time></trkpt><trkpt lat="39.90315" lon="-8.5778"><time>2023-01-14T10:19:28.000Z</time></trkpt><trkpt lat="39.90315" lon="-8.57773"><time>2023-01-14T10:19:38.000Z</time></trkpt><trkpt lat="39.90314" lon="-8.57768"><time>2023-01-14T10:19:48.000Z</time></trkpt><trkpt lat="39.90312" lon="-8.57762"><ele>155</ele><time>2023-01-14T10:19:58.000Z</time></trkpt><trkpt lat="39.90314" lon="-8.57752"><time>2023-01-14T10:20:08.000Z</time></trkpt><trkpt lat="39.90314" lon="-8.57742"><time>2023-01-14T10:20:18.000Z</time></trkpt><trkpt lat="39.9031" lon="-8.57716"><ele>155</ele><time>2023-01-14T10:20:28.000Z</time></trkpt><trkpt lat="39.9031" lon="-8.57709"><time>2023-01-14T10:20:38.000Z</time></trkpt><trkpt lat="39.90309" lon="-8.57701"><time>2023-01-14T10:20:48.000Z</time></trkpt><trkpt lat="39.9031" lon="-8.57693"><time>2023-01-14T10:20:58.000Z</time></trkpt><trkpt lat="39.90309" lon="-8.57686"><ele>154</ele><time>2023-01-14T10:21:08.000Z</time></trkpt><trkpt lat="39.90306" lon="-8.57676"><time>2023-01-14T10:21:18.000Z</time></trkpt><trkpt lat="39.90301" lon="-8.57666"><time>2023-01-14T10:21:28.000Z</time></trkpt><trkpt lat="39.90295" lon="-8.57662"><ele>145</ele><time>2023-01-14T10:21:38.000Z</time></trkpt><trkpt lat="39.90282" lon="-8.57658"><time>2023-01-14T10:21:48.000Z</time></trkpt><trkpt lat="39.90275" lon="-8.57653"><ele>145</ele><time>2023-01-14T10:21:58.000Z</time></trkpt><trkpt lat="39.90273" lon="-8.5765"><time>2023-01-14T10:22:08.000Z</time></trkpt><trkpt lat="39.90266" lon="-8.57644"><time>2023-01-14T10:22:18.000Z</time></trkpt><trkpt lat="39.90261" lon="-8.57636"><time>2023-01-14T10:22:28.000Z</time></trkpt><trkpt lat="39.90245" lon="-8.5762"><ele>146</ele><time>2023-01-14T10:22:38.000Z</time></trkpt><trkpt lat="39.90234" lon="-8.57602"><time>2023-01-14T10:22:48.000Z</time></trkpt><trkpt lat="39.90206" lon="-8.57573"><ele>148</ele><time>2023-01-14T10:22:58.000Z</time></trkpt><trkpt lat="39.90191" lon="-8.57556"><time>2023-01-14T10:23:08.000Z</time></trkpt><trkpt lat="39.90175" lon="-8.57547"><ele>151</ele><time>2023-01-14T10:23:18.000Z</time></trkpt><trkpt lat="39.90158" lon="-8.57544"><time>2023-01-14T10:23:28.000Z</time></trkpt><trkpt lat="39.90135" lon="-8.57543"><ele>151</ele><time>2023-01-14T10:23:38.000Z</time></trkpt><trkpt lat="39.90133" lon="-8.57543"><time>2023-01-14T10:23:48.000Z</time></trkpt><trkpt lat="39.90131" lon="-8.57545"><time>2023-01-14T10:23:58.000Z</time></trkpt><trkpt lat="39.9013" lon="-8.57543"><time>2023-01-14T10:24:08.000Z</time></trkpt><trkpt lat="39.90114" lon="-8.57542"><ele>151</ele><time>2023-01-14T10:24:18.000Z</time></trkpt><trkpt lat="39.90096" lon="-8.57545"><time>2023-01-14T10:24:28.000Z</time></trkpt><trkpt lat="39.90084" lon="-8.57542"><ele>152</ele><time>2023-01-14T10:24:38.000Z</time></trkpt><trkpt lat="39.90082" lon="-8.57541"><time>2023-01-14T10:24:48.000Z</time></trkpt><trkpt lat="39.90077" lon="-8.57536"><time>2023-01-14T10:24:58.000Z</time></trkpt><trkpt lat="39.9007" lon="-8.57531"><time>2023-01-14T10:25:08.000Z</time></trkpt><trkpt lat="39.90063" lon="-8.57526"><ele>153</ele><time>2023-01-14T10:25:18.000Z</time></trkpt><trkpt lat="39.90052" lon="-8.57511"><time>2023-01-14T10:25:28.000Z</time></trkpt><trkpt lat="39.90039" lon="-8.5749"><ele>154</ele><time>2023-01-14T10:25:38.000Z</time></trkpt><trkpt lat="39.90034" lon="-8.57481"><time>2023-01-14T10:25:48.000Z</time></trkpt><trkpt lat="39.90022" lon="-8.57452"><ele>157</ele><time>2023-01-14T10:25:58.000Z</time></trkpt><trkpt lat="39.9002" lon="-8.57446"><time>2023-01-14T10:26:08.000Z</time></trkpt><trkpt lat="39.90017" lon="-8.57443"><time>2023-01-14T10:26:18.000Z</time></trkpt><trkpt lat="39.90012" lon="-8.57433"><time>2023-01-14T10:26:28.000Z</time></trkpt><trkpt lat="39.90009" lon="-8.57426"><ele>157</ele><time>2023-01-14T10:26:38.000Z</time></trkpt><trkpt lat="39.90006" lon="-8.57419"><time>2023-01-14T10:26:48.000Z</time></trkpt><trkpt lat="39.89992" lon="-8.57392"><ele>157</ele><time>2023-01-14T10:23:38.000Z</time></trkpt><trkpt lat="39.89985" lon="-8.57381"><time>2023-01-14T10:23:48.000Z</time></trkpt><trkpt lat="39.89983" lon="-8.5738"><time>2023-01-14T10:23:58.000Z</time></trkpt><trkpt lat="39.89978" lon="-8.57372"><ele>158</ele><time>2023-01-14T10:23:55.000Z</time></trkpt><trkpt lat="39.89973" lon="-8.57359"><time>2023-01-14T10:24:05.000Z</time></trkpt><trkpt lat="39.89969" lon="-8.57348"><time>2023-01-14T10:24:15.000Z</time></trkpt><trkpt lat="39.89969" lon="-8.57345"><ele>160</ele><time>2023-01-14T10:24:25.000Z</time></trkpt><trkpt lat="39.89968" lon="-8.57342"><time>2023-01-14T10:24:35.000Z</time></trkpt><trkpt lat="39.89968" lon="-8.57337"><time>2023-01-14T10:24:45.000Z</time></trkpt><trkpt lat="39.89959" lon="-8.57316"><ele>161</ele><time>2023-01-14T10:24:55.000Z</time></trkpt><trkpt lat="39.89956" lon="-8.57311"><time>2023-01-14T10:25:05.000Z</time></trkpt><trkpt lat="39.89954" lon="-8.57309"><time>2023-01-14T10:25:15.000Z</time></trkpt><trkpt lat="39.89943" lon="-8.57302"><time>2023-01-14T10:25:25.000Z</time></trkpt><trkpt lat="39.89941" lon="-8.573"><ele>167</ele><time>2023-01-14T10:25:35.000Z</time></trkpt><trkpt lat="39.89939" lon="-8.57294"><time>2023-01-14T10:25:45.000Z</time></trkpt><trkpt lat="39.89932" lon="-8.57287"><time>2023-01-14T10:25:55.000Z</time></trkpt><trkpt lat="39.89931" lon="-8.57283"><time>2023-01-14T10:26:05.000Z</time></trkpt><trkpt lat="39.8993" lon="-8.57281"><time>2023-01-14T10:26:15.000Z</time></trkpt><trkpt lat="39.89917" lon="-8.57271"><ele>168</ele><time>2023-01-14T10:26:46.000Z</time></trkpt><trkpt lat="39.8991" lon="-8.57263"><time>2023-01-14T10:26:56.000Z</time></trkpt><trkpt lat="39.89902" lon="-8.57251"><ele>174</ele><time>2023-01-14T10:27:03.000Z</time></trkpt><trkpt lat="39.89894" lon="-8.57232"><time>2023-01-14T10:27:13.000Z</time></trkpt><trkpt lat="39.89888" lon="-8.57223"><ele>177</ele><time>2023-01-14T10:27:23.000Z</time></trkpt><trkpt lat="39.89881" lon="-8.57215"><time>2023-01-14T10:27:33.000Z</time></trkpt><trkpt lat="39.89877" lon="-8.57212"><time>2023-01-14T10:27:43.000Z</time></trkpt><trkpt lat="39.89862" lon="-8.57195"><ele>177</ele><time>2023-01-14T10:28:03.000Z</time></trkpt><trkpt lat="39.89859" lon="-8.5719"><time>2023-01-14T10:28:13.000Z</time></trkpt><trkpt lat="39.89853" lon="-8.57182"><time>2023-01-14T10:28:23.000Z</time></trkpt><trkpt lat="39.89846" lon="-8.57171"><ele>177</ele><time>2023-01-14T10:28:22.000Z</time></trkpt><trkpt lat="39.89837" lon="-8.57163"><time>2023-01-14T10:28:32.000Z</time></trkpt><trkpt lat="39.89834" lon="-8.57159"><time>2023-01-14T10:28:42.000Z</time></trkpt><trkpt lat="39.8983" lon="-8.57154"><ele>177</ele><time>2023-01-14T10:28:52.000Z</time></trkpt><trkpt lat="39.89827" lon="-8.57149"><time>2023-01-14T10:29:02.000Z</time></trkpt><trkpt lat="39.89823" lon="-8.57146"><time>2023-01-14T10:29:12.000Z</time></trkpt><trkpt lat="39.89814" lon="-8.57141"><time>2023-01-14T10:29:22.000Z</time></trkpt><trkpt lat="39.89806" lon="-8.57136"><ele>179</ele><time>2023-01-14T10:29:02.000Z</time></trkpt><trkpt lat="39.89792" lon="-8.57123"><time>2023-01-14T10:29:12.000Z</time></trkpt><trkpt lat="39.89788" lon="-8.57118"><ele>184</ele><time>2023-01-14T10:29:22.000Z</time></trkpt><trkpt lat="39.89786" lon="-8.5711"><time>2023-01-14T10:29:32.000Z</time></trkpt><trkpt lat="39.89784" lon="-8.57108"><time>2023-01-14T10:29:42.000Z</time></trkpt><trkpt lat="39.89779" lon="-8.57105"><time>2023-01-14T10:29:52.000Z</time></trkpt><trkpt lat="39.89775" lon="-8.57101"><time>2023-01-14T10:30:02.000Z</time></trkpt><trkpt lat="39.89773" lon="-8.57099"><ele>184</ele><time>2023-01-14T10:30:12.000Z</time></trkpt><trkpt lat="39.89769" lon="-8.57092"><time>2023-01-14T10:30:22.000Z</time></trkpt><trkpt lat="39.8977" lon="-8.57078"><time>2023-01-14T10:30:32.000Z</time></trkpt><trkpt lat="39.89776" lon="-8.57054"><ele>185</ele><time>2023-01-14T10:30:42.000Z</time></trkpt><trkpt lat="39.89777" lon="-8.57043"><time>2023-01-14T10:30:52.000Z</time></trkpt><trkpt lat="39.89779" lon="-8.57037"><time>2023-01-14T10:31:02.000Z</time></trkpt><trkpt lat="39.89779" lon="-8.57033"><time>2023-01-14T10:31:12.000Z</time></trkpt><trkpt lat="39.89779" lon="-8.5703"><time>2023-01-14T10:31:22.000Z</time></trkpt><trkpt lat="39.8978" lon="-8.57016"><ele>186</ele><time>2023-01-14T10:31:32.000Z</time></trkpt><trkpt lat="39.8978" lon="-8.57005"><time>2023-01-14T10:31:42.000Z</time></trkpt><trkpt lat="39.89777" lon="-8.56985"><ele>184</ele><time>2023-01-14T10:31:52.000Z</time></trkpt><trkpt lat="39.8977" lon="-8.56961"><time>2023-01-14T10:32:02.000Z</time></trkpt><trkpt lat="39.8976" lon="-8.56949"><ele>184</ele><time>2023-01-14T10:32:12.000Z</time></trkpt><trkpt lat="39.89755" lon="-8.5694"><time>2023-01-14T10:32:22.000Z</time></trkpt><trkpt lat="39.89752" lon="-8.56928"><time>2023-01-14T10:32:32.000Z</time></trkpt><trkpt lat="39.89755" lon="-8.56925"><ele>185</ele><time>2023-01-14T10:32:42.000Z</time></trkpt><trkpt lat="39.89759" lon="-8.56918"><time>2023-01-14T10:32:52.000Z</time></trkpt><trkpt lat="39.89764" lon="-8.56918"><time>2023-01-14T10:33:02.000Z</time></trkpt><trkpt lat="39.89765" lon="-8.56917"><time>2023-01-14T10:33:12.000Z</time></trkpt><trkpt lat="39.89768" lon="-8.56915"><time>2023-01-14T10:33:22.000Z</time></trkpt><trkpt lat="39.89781" lon="-8.56912"><ele>189</ele><time>2023-01-14T10:33:32.000Z</time></trkpt><trkpt lat="39.89786" lon="-8.56912"><time>2023-01-14T10:33:42.000Z</time></trkpt><trkpt lat="39.89808" lon="-8.5692"><ele>191</ele><time>2023-01-14T10:33:52.000Z</time></trkpt><trkpt lat="39.89817" lon="-8.56921"><time>2023-01-14T10:34:02.000Z</time></trkpt><trkpt lat="39.89821" lon="-8.56921"><time>2023-01-14T10:34:12.000Z</time></trkpt><trkpt lat="39.89828" lon="-8.56916"><ele>195</ele><time>2023-01-14T10:34:22.000Z</time></trkpt><trkpt lat="39.89829" lon="-8.56915"><time>2023-01-14T10:34:32.000Z</time></trkpt><trkpt lat="39.89837" lon="-8.56912"><time>2023-01-14T10:34:42.000Z</time></trkpt><trkpt lat="39.89845" lon="-8.56907"><time>2023-01-14T10:34:52.000Z</time></trkpt><trkpt lat="39.89849" lon="-8.569"><ele>195</ele><time>2023-01-14T10:35:02.000Z</time></trkpt><trkpt lat="39.89853" lon="-8.56895"><time>2023-01-14T10:35:12.000Z</time></trkpt><trkpt lat="39.89861" lon="-8.56887"><time>2023-01-14T10:35:22.000Z</time></trkpt><trkpt lat="39.89866" lon="-8.56877"><ele>208</ele><time>2023-01-14T10:35:32.000Z</time></trkpt><trkpt lat="39.8987" lon="-8.56873"><time>2023-01-14T10:35:42.000Z</time></trkpt><trkpt lat="39.89882" lon="-8.56869"><time>2023-01-14T10:35:52.000Z</time></trkpt><trkpt lat="39.89892" lon="-8.56868"><ele>209</ele><time>2023-01-14T10:36:02.000Z</time></trkpt><trkpt lat="39.89895" lon="-8.56865"><time>2023-01-14T10:36:12.000Z</time></trkpt><trkpt lat="39.89897" lon="-8.56862"><time>2023-01-14T10:36:22.000Z</time></trkpt><trkpt lat="39.89898" lon="-8.56857"><time>2023-01-14T10:36:32.000Z</time></trkpt><trkpt lat="39.89892" lon="-8.56822"><ele>208</ele><time>2022-01-15T21:32:40.000Z</time></trkpt><trkpt lat="39.89895" lon="-8.56811"><time>2022-01-15T21:32:50.000Z</time></trkpt><trkpt lat="39.89896" lon="-8.56801"><time>2022-01-15T21:33:00.000Z</time></trkpt><trkpt lat="39.89895" lon="-8.56799"><time>2022-01-15T21:33:10.000Z</time></trkpt><trkpt lat="39.89895" lon="-8.56792"><ele>208</ele><time>2022-01-15T21:33:20.000Z</time></trkpt><trkpt lat="39.89894" lon="-8.56783"><time>2022-01-15T21:33:30.000Z</time></trkpt><trkpt lat="39.89892" lon="-8.56779"><time>2022-01-15T21:33:40.000Z</time></trkpt><trkpt lat="39.89891" lon="-8.56761"><ele>209</ele><time>2022-01-15T21:34:01.000Z</time></trkpt><trkpt lat="39.8989" lon="-8.56754"><time>2022-01-15T21:34:11.000Z</time></trkpt><trkpt lat="39.89881" lon="-8.56734"><ele>208</ele><time>2022-01-15T21:34:21.000Z</time></trkpt><trkpt lat="39.89865" lon="-8.56722"><time>2022-01-15T21:34:31.000Z</time></trkpt><trkpt lat="39.89862" lon="-8.56717"><ele>210</ele><time>2022-01-15T21:34:41.000Z</time></trkpt><trkpt lat="39.89863" lon="-8.5671"><time>2022-01-15T21:34:51.000Z</time></trkpt><trkpt lat="39.89865" lon="-8.56701"><time>2022-01-15T21:35:01.000Z</time></trkpt><trkpt lat="39.8987" lon="-8.56692"><ele>212</ele><time>2022-01-15T21:35:11.000Z</time></trkpt><trkpt lat="39.89871" lon="-8.56681"><time>2022-01-15T21:35:21.000Z</time></trkpt><trkpt lat="39.89869" lon="-8.56677"><time>2022-01-15T21:35:31.000Z</time></trkpt><trkpt lat="39.89867" lon="-8.56667"><time>2022-01-15T21:35:41.000Z</time></trkpt><trkpt lat="39.89875" lon="-8.56645"><ele>219</ele><time>2022-01-15T21:35:51.000Z</time></trkpt><trkpt lat="39.89875" lon="-8.56635"><time>2022-01-15T21:36:01.000Z</time></trkpt><trkpt lat="39.89875" lon="-8.56617"><ele>222</ele><time>2022-01-15T21:36:11.000Z</time></trkpt><trkpt lat="39.89869" lon="-8.56596"><time>2022-01-15T21:36:21.000Z</time></trkpt><trkpt lat="39.89866" lon="-8.5659"><ele>222</ele><time>2022-01-15T21:36:31.000Z</time></trkpt><trkpt lat="39.89857" lon="-8.56568"><time>2022-01-15T21:36:41.000Z</time></trkpt><trkpt lat="39.89848" lon="-8.56524"><ele>220</ele><time>2022-01-15T21:38:17.000Z</time></trkpt><trkpt lat="39.89846" lon="-8.56499"><time>2022-01-15T21:38:27.000Z</time></trkpt><trkpt lat="39.89843" lon="-8.56474"><ele>219</ele><time>2022-01-15T21:38:38.000Z</time></trkpt><trkpt lat="39.89843" lon="-8.56429"><ele>219</ele><time>2022-01-15T21:38:48.000Z</time></trkpt><trkpt lat="39.89844" lon="-8.56414"><time>2022-01-15T21:38:58.000Z</time></trkpt><trkpt lat="39.89849" lon="-8.56391"><ele>222</ele><time>2022-01-15T21:39:08.000Z</time></trkpt><trkpt lat="39.89857" lon="-8.56378"><time>2022-01-15T21:39:18.000Z</time></trkpt><trkpt lat="39.89871" lon="-8.5636"><ele>228</ele><time>2022-01-15T21:39:28.000Z</time></trkpt><trkpt lat="39.89873" lon="-8.56358"><time>2022-01-15T21:39:38.000Z</time></trkpt><trkpt lat="39.89878" lon="-8.56356"><time>2022-01-15T21:39:48.000Z</time></trkpt><trkpt lat="39.89876" lon="-8.56354"><time>2022-01-15T21:39:58.000Z</time></trkpt><trkpt lat="39.89878" lon="-8.56344"><time>2022-01-15T21:40:08.000Z</time></trkpt><trkpt lat="39.8988" lon="-8.5634"><ele>228</ele><time>2022-01-15T21:40:18.000Z</time></trkpt><trkpt lat="39.89868" lon="-8.56341"><time>2022-01-15T21:40:28.000Z</time></trkpt><trkpt lat="39.89834" lon="-8.56353"><ele>228</ele><time>2022-01-15T21:41:35.000Z</time></trkpt><trkpt lat="39.8981" lon="-8.56377"><ele>228</ele><time>2022-01-15T21:41:45.000Z</time></trkpt><trkpt lat="39.89804" lon="-8.56379"><time>2022-01-15T21:41:55.000Z</time></trkpt><trkpt lat="39.89791" lon="-8.56393"><ele>233</ele><time>2022-01-15T21:42:05.000Z</time></trkpt><trkpt lat="39.89786" lon="-8.56394"><time>2022-01-15T21:42:15.000Z</time></trkpt><trkpt lat="39.89785" lon="-8.56392"><time>2022-01-15T21:42:25.000Z</time></trkpt><trkpt lat="39.89786" lon="-8.5638"><time>2022-01-15T21:42:35.000Z</time></trkpt><trkpt lat="39.89788" lon="-8.56364"><ele>236</ele><time>2022-01-15T21:44:22.000Z</time></trkpt><trkpt lat="39.89793" lon="-8.56349"><time>2022-01-15T21:44:32.000Z</time></trkpt><trkpt lat="39.89793" lon="-8.56341"><time>2022-01-15T21:44:42.000Z</time></trkpt><trkpt lat="39.89791" lon="-8.56336"><ele>238</ele><time>2022-01-15T21:45:25.000Z</time></trkpt><trkpt lat="39.89794" lon="-8.56318"><time>2022-01-15T21:45:35.000Z</time></trkpt><trkpt lat="39.89798" lon="-8.56311"><time>2022-01-15T21:45:45.000Z</time></trkpt><trkpt lat="39.89798" lon="-8.56308"><ele>240</ele><time>2022-01-15T21:46:39.000Z</time></trkpt><trkpt lat="39.89804" lon="-8.563"><time>2022-01-15T21:46:49.000Z</time></trkpt><trkpt lat="39.89813" lon="-8.56283"><ele>245</ele><time>2022-01-15T21:46:59.000Z</time></trkpt><trkpt lat="39.89815" lon="-8.56281"><time>2022-01-15T21:47:09.000Z</time></trkpt><trkpt lat="39.89836" lon="-8.56257"><ele>246</ele><time>2022-01-15T21:48:14.000Z</time></trkpt><trkpt lat="39.89853" lon="-8.56231"><ele>249</ele><time>2022-01-15T21:48:24.000Z</time></trkpt><trkpt lat="39.89861" lon="-8.56223"><time>2022-01-15T21:48:34.000Z</time></trkpt><trkpt lat="39.89879" lon="-8.562"><ele>253</ele><time>2022-01-15T21:49:17.000Z</time></trkpt><trkpt lat="39.89886" lon="-8.56191"><time>2022-01-15T21:49:27.000Z</time></trkpt><trkpt lat="39.89888" lon="-8.56187"><time>2022-01-15T21:49:37.000Z</time></trkpt><trkpt lat="39.89896" lon="-8.56179"><ele>264</ele><time>2022-01-15T21:49:49.000Z</time></trkpt><trkpt lat="39.89898" lon="-8.56175"><time>2022-01-15T21:49:59.000Z</time></trkpt><trkpt lat="39.89914" lon="-8.56157"><ele>268</ele><time>2022-01-15T21:50:31.000Z</time></trkpt><trkpt lat="39.89919" lon="-8.56148"><time>2022-01-15T21:50:41.000Z</time></trkpt><trkpt lat="39.89921" lon="-8.56145"><time>2022-01-15T21:50:51.000Z</time></trkpt><trkpt lat="39.89927" lon="-8.56137"><ele>269</ele><time>2022-01-15T21:51:14.000Z</time></trkpt><trkpt lat="39.89935" lon="-8.56129"><time>2022-01-15T21:51:24.000Z</time></trkpt><trkpt lat="39.89937" lon="-8.56125"><time>2022-01-15T21:51:34.000Z</time></trkpt><trkpt lat="39.89945" lon="-8.56119"><ele>271</ele><time>2022-01-15T21:52:07.000Z</time></trkpt><trkpt lat="39.89956" lon="-8.56107"><time>2022-01-15T21:52:17.000Z</time></trkpt><trkpt lat="39.89966" lon="-8.56092"><ele>271</ele><time>2022-01-15T21:52:49.000Z</time></trkpt><trkpt lat="39.89973" lon="-8.56084"><time>2022-01-15T21:52:59.000Z</time></trkpt><trkpt lat="39.89975" lon="-8.5608"><time>2022-01-15T21:53:09.000Z</time></trkpt><trkpt lat="39.89978" lon="-8.56076"><time>2022-01-15T21:53:19.000Z</time></trkpt><trkpt lat="39.8998" lon="-8.56072"><ele>271</ele><time>2022-01-15T21:53:43.000Z</time></trkpt><trkpt lat="39.89985" lon="-8.56066"><time>2022-01-15T21:53:53.000Z</time></trkpt><trkpt lat="39.89989" lon="-8.56056"><time>2022-01-15T21:54:03.000Z</time></trkpt><trkpt lat="39.89995" lon="-8.56048"><ele>275</ele><time>2022-01-15T21:54:13.000Z</time></trkpt><trkpt lat="39.89997" lon="-8.56045"><time>2022-01-15T21:54:23.000Z</time></trkpt><trkpt lat="39.90004" lon="-8.5603"><time>2022-01-15T21:54:33.000Z</time></trkpt><trkpt lat="39.90003" lon="-8.5602"><ele>276</ele><time>2022-01-15T21:55:30.000Z</time></trkpt><trkpt lat="39.90007" lon="-8.56014"><time>2022-01-15T21:55:40.000Z</time></trkpt><trkpt lat="39.90012" lon="-8.5601"><time>2022-01-15T21:55:50.000Z</time></trkpt><trkpt lat="39.90013" lon="-8.56005"><time>2022-01-15T21:56:00.000Z</time></trkpt><trkpt lat="39.90012" lon="-8.56002"><time>2022-01-15T21:56:10.000Z</time></trkpt><trkpt lat="39.90011" lon="-8.55999"><ele>276</ele><time>2022-01-15T21:56:34.000Z</time></trkpt><trkpt lat="39.89994" lon="-8.55985"><time>2022-01-15T21:56:44.000Z</time></trkpt><trkpt lat="39.89985" lon="-8.55978"><ele>278</ele><time>2022-01-15T21:58:42.000Z</time></trkpt><trkpt lat="39.89978" lon="-8.55968"><time>2022-01-15T21:58:52.000Z</time></trkpt><trkpt lat="39.89977" lon="-8.55962"><time>2022-01-15T21:59:02.000Z</time></trkpt><trkpt lat="39.89975" lon="-8.55958"><time>2022-01-15T21:59:12.000Z</time></trkpt><trkpt lat="39.89975" lon="-8.5595"><ele>278</ele><time>2022-01-15T21:59:47.000Z</time></trkpt><trkpt lat="39.89974" lon="-8.55934"><time>2022-01-15T21:59:57.000Z</time></trkpt><trkpt lat="39.89968" lon="-8.55923"><ele>286</ele><time>2022-01-15T22:00:19.000Z</time></trkpt><trkpt lat="39.89965" lon="-8.55909"><time>2022-01-15T22:00:29.000Z</time></trkpt><trkpt lat="39.89961" lon="-8.55897"><ele>288</ele><time>2022-01-15T22:00:39.000Z</time></trkpt><trkpt lat="39.89959" lon="-8.55889"><time>2022-01-15T22:00:49.000Z</time></trkpt><trkpt lat="39.89958" lon="-8.55873"><time>2022-01-15T22:00:59.000Z</time></trkpt><trkpt lat="39.89949" lon="-8.55854"><ele>292</ele><time>2022-01-15T22:01:13.000Z</time></trkpt><trkpt lat="39.89947" lon="-8.55819"><ele>290</ele><time>2022-01-15T22:01:23.000Z</time></trkpt><trkpt lat="39.89946" lon="-8.5578"><ele>289</ele><time>2022-01-15T22:01:33.000Z</time></trkpt><trkpt lat="39.89947" lon="-8.55776"><time>2022-01-15T22:01:43.000Z</time></trkpt><trkpt lat="39.89954" lon="-8.55769"><time>2022-01-15T22:01:53.000Z</time></trkpt><trkpt lat="39.89966" lon="-8.5576"><ele>286</ele><time>2022-01-15T22:02:03.000Z</time></trkpt><trkpt lat="39.89968" lon="-8.5576"><time>2022-01-15T22:02:13.000Z</time></trkpt><trkpt lat="39.89974" lon="-8.55757"><time>2022-01-15T22:02:23.000Z</time></trkpt><trkpt lat="39.89994" lon="-8.55745"><ele>284</ele><time>2022-01-15T22:04:06.000Z</time></trkpt><trkpt lat="39.90018" lon="-8.55735"><ele>284</ele><time>2022-01-15T22:04:16.000Z</time></trkpt><trkpt lat="39.90023" lon="-8.55732"><time>2022-01-15T22:04:26.000Z</time></trkpt><trkpt lat="39.90026" lon="-8.55731"><time>2022-01-15T22:04:36.000Z</time></trkpt><trkpt lat="39.90039" lon="-8.55724"><ele>286</ele><time>2022-01-15T22:04:46.000Z</time></trkpt><trkpt lat="39.90046" lon="-8.55716"><time>2022-01-15T22:04:56.000Z</time></trkpt><trkpt lat="39.90057" lon="-8.55703"><ele>286</ele><time>2022-01-15T22:05:06.000Z</time></trkpt><trkpt lat="39.9007" lon="-8.55702"><time>2022-01-15T22:05:16.000Z</time></trkpt><trkpt lat="39.90077" lon="-8.55699"><time>2022-01-15T22:05:26.000Z</time></trkpt><trkpt lat="39.90082" lon="-8.55694"><ele>287</ele><time>2022-01-15T22:05:36.000Z</time></trkpt><trkpt lat="39.90097" lon="-8.55684"><time>2022-01-15T22:05:46.000Z</time></trkpt><trkpt lat="39.90109" lon="-8.55659"><ele>290</ele><time>2022-01-15T22:08:38.000Z</time></trkpt><trkpt lat="39.90118" lon="-8.55644"><time>2022-01-15T22:08:48.000Z</time></trkpt><trkpt lat="39.90123" lon="-8.55629"><ele>293</ele><time>2022-01-15T22:09:33.000Z</time></trkpt><trkpt lat="39.90126" lon="-8.55624"><time>2022-01-15T22:09:43.000Z</time></trkpt><trkpt lat="39.90133" lon="-8.55617"><time>2022-01-15T22:09:53.000Z</time></trkpt><trkpt lat="39.9014" lon="-8.55612"><ele>303</ele><time>2022-01-15T22:10:06.000Z</time></trkpt><trkpt lat="39.90159" lon="-8.55595"><ele>303</ele><time>2022-01-15T22:10:16.000Z</time></trkpt><trkpt lat="39.90165" lon="-8.55591"><time>2022-01-15T22:10:26.000Z</time></trkpt><trkpt lat="39.90174" lon="-8.55583"><time>2022-01-15T22:10:36.000Z</time></trkpt><trkpt lat="39.90181" lon="-8.55574"><ele>309</ele><time>2022-01-15T22:10:46.000Z</time></trkpt><trkpt lat="39.90188" lon="-8.55569"><time>2022-01-15T22:10:56.000Z</time></trkpt><trkpt lat="39.90195" lon="-8.55562"><time>2022-01-15T22:11:06.000Z</time></trkpt><trkpt lat="39.90201" lon="-8.55557"><ele>310</ele><time>2022-01-15T22:11:16.000Z</time></trkpt><trkpt lat="39.90205" lon="-8.55556"><time>2022-01-15T22:11:26.000Z</time></trkpt><trkpt lat="39.9021" lon="-8.5555"><time>2022-01-15T22:11:36.000Z</time></trkpt><trkpt lat="39.90223" lon="-8.55546"><ele>314</ele><time>2022-01-15T22:11:46.000Z</time></trkpt><trkpt lat="39.90233" lon="-8.5554"><time>2022-01-15T22:11:56.000Z</time></trkpt><trkpt lat="39.90243" lon="-8.55534"><ele>317</ele><time>2022-01-15T22:12:06.000Z</time></trkpt><trkpt lat="39.90248" lon="-8.55528"><time>2022-01-15T22:12:16.000Z</time></trkpt><trkpt lat="39.90257" lon="-8.55527"><time>2022-01-15T22:12:26.000Z</time></trkpt><trkpt lat="39.9028" lon="-8.5552"><ele>319</ele><time>2022-01-15T22:12:36.000Z</time></trkpt><trkpt lat="39.90283" lon="-8.55518"><time>2022-01-15T22:12:46.000Z</time></trkpt><trkpt lat="39.90299" lon="-8.55512"><time>2022-01-15T22:12:56.000Z</time></trkpt><trkpt lat="39.9031" lon="-8.55512"><ele>319</ele><time>2022-01-15T22:15:03.000Z</time></trkpt><trkpt lat="39.90343" lon="-8.55496"><ele>322</ele><time>2022-01-15T22:15:47.000Z</time></trkpt><trkpt lat="39.90366" lon="-8.55488"><ele>325</ele><time>2022-01-15T22:16:10.000Z</time></trkpt><trkpt lat="39.90371" lon="-8.55482"><time>2022-01-15T22:16:20.000Z</time></trkpt><trkpt lat="39.90389" lon="-8.55474"><ele>331</ele><time>2022-01-15T22:16:54.000Z</time></trkpt><trkpt lat="39.90417" lon="-8.55466"><ele>333</ele><time>2022-01-15T22:17:04.000Z</time></trkpt><trkpt lat="39.90432" lon="-8.55455"><time>2022-01-15T22:17:14.000Z</time></trkpt><trkpt lat="39.90448" lon="-8.55441"><ele>336</ele><time>2022-01-15T22:17:24.000Z</time></trkpt><trkpt lat="39.90464" lon="-8.55427"><time>2022-01-15T22:17:34.000Z</time></trkpt><trkpt lat="39.90481" lon="-8.55413"><ele>337</ele><time>2022-01-15T22:17:44.000Z</time></trkpt><trkpt lat="39.90494" lon="-8.55394"><time>2022-01-15T22:17:54.000Z</time></trkpt><trkpt lat="39.90509" lon="-8.5538"><ele>337</ele><time>2022-01-15T22:18:04.000Z</time></trkpt><trkpt lat="39.90512" lon="-8.55376"><time>2022-01-15T22:18:14.000Z</time></trkpt><trkpt lat="39.90518" lon="-8.55376"><time>2022-01-15T22:18:24.000Z</time></trkpt><trkpt lat="39.90546" lon="-8.5535"><ele>337</ele><time>2022-01-15T22:19:19.000Z</time></trkpt><trkpt lat="39.90559" lon="-8.55332"><time>2022-01-15T22:19:29.000Z</time></trkpt><trkpt lat="39.90571" lon="-8.55312"><ele>333</ele><time>2022-01-15T22:19:42.000Z</time></trkpt><trkpt lat="39.90584" lon="-8.55296"><time>2022-01-15T22:19:52.000Z</time></trkpt><trkpt lat="39.90589" lon="-8.55282"><ele>335</ele><time>2022-01-15T22:20:16.000Z</time></trkpt><trkpt lat="39.90608" lon="-8.5524"><ele>333</ele><time>2022-01-15T22:20:26.000Z</time></trkpt><trkpt lat="39.9061" lon="-8.55229"><time>2022-01-15T22:20:36.000Z</time></trkpt><trkpt lat="39.90607" lon="-8.5522"><time>2022-01-15T22:20:46.000Z</time></trkpt><trkpt lat="39.90615" lon="-8.55198"><ele>331</ele><time>2022-01-15T22:21:12.000Z</time></trkpt><trkpt lat="39.90619" lon="-8.55175"><time>2022-01-15T22:21:22.000Z</time></trkpt><trkpt lat="39.9062" lon="-8.55168"><ele>331</ele><time>2022-01-15T22:21:35.000Z</time></trkpt><trkpt lat="39.90627" lon="-8.55146"><time>2022-01-15T22:21:45.000Z</time></trkpt><trkpt lat="39.90636" lon="-8.55131"><ele>331</ele><time>2022-01-15T22:21:55.000Z</time></trkpt><trkpt lat="39.90634" lon="-8.55127"><time>2022-01-15T22:22:05.000Z</time></trkpt><trkpt lat="39.90632" lon="-8.55117"><time>2022-01-15T22:22:15.000Z</time></trkpt><trkpt lat="39.90633" lon="-8.55114"><time>2022-01-15T22:22:25.000Z</time></trkpt><trkpt lat="39.90638" lon="-8.55092"><ele>331</ele><time>2022-01-15T22:22:43.000Z</time></trkpt><trkpt lat="39.9064" lon="-8.55086"><time>2022-01-15T22:22:53.000Z</time></trkpt><trkpt lat="39.90652" lon="-8.55068"><ele>331</ele><time>2022-01-15T22:23:05.000Z</time></trkpt><trkpt lat="39.90658" lon="-8.55043"><time>2022-01-15T22:23:15.000Z</time></trkpt><trkpt lat="39.90668" lon="-8.55021"><ele>331</ele><time>2022-01-15T22:23:28.000Z</time></trkpt><trkpt lat="39.90679" lon="-8.55003"><time>2022-01-15T22:23:38.000Z</time></trkpt><trkpt lat="39.90686" lon="-8.54999"><ele>330</ele><time>2022-01-15T22:23:48.000Z</time></trkpt><trkpt lat="39.90687" lon="-8.54998"><time>2022-01-15T22:23:58.000Z</time></trkpt><trkpt lat="39.90691" lon="-8.5499"><time>2022-01-15T22:24:08.000Z</time></trkpt><trkpt lat="39.90689" lon="-8.54966"><ele>329</ele><time>2022-01-15T22:24:48.000Z</time></trkpt><trkpt lat="39.90698" lon="-8.54946"><time>2022-01-15T22:24:58.000Z</time></trkpt><trkpt lat="39.90706" lon="-8.54934"><ele>329</ele><time>2022-01-15T22:25:22.000Z</time></trkpt><trkpt lat="39.9071" lon="-8.54932"><time>2022-01-15T22:25:32.000Z</time></trkpt><trkpt lat="39.90714" lon="-8.54908"><ele>327</ele><time>2022-01-15T22:25:45.000Z</time></trkpt><trkpt lat="39.90713" lon="-8.5489"><time>2022-01-15T22:25:55.000Z</time></trkpt><trkpt lat="39.90708" lon="-8.54881"><ele>325</ele><time>2022-01-15T22:26:05.000Z</time></trkpt><trkpt lat="39.90707" lon="-8.54879"><time>2022-01-15T22:26:15.000Z</time></trkpt><trkpt lat="39.90718" lon="-8.5486"><time>2022-01-15T22:26:25.000Z</time></trkpt><trkpt lat="39.90722" lon="-8.54837"><ele>326</ele><time>2022-01-15T22:26:35.000Z</time></trkpt><trkpt lat="39.90724" lon="-8.54835"><time>2022-01-15T22:26:45.000Z</time></trkpt><trkpt lat="39.90738" lon="-8.54827"><time>2022-01-15T22:26:55.000Z</time></trkpt><trkpt lat="39.90744" lon="-8.54822"><ele>324</ele><time>2022-01-15T22:27:05.000Z</time></trkpt><trkpt lat="39.90747" lon="-8.54815"><time>2022-01-15T22:27:15.000Z</time></trkpt><trkpt lat="39.90764" lon="-8.54805"><ele>326</ele><time>2022-01-15T22:27:25.000Z</time></trkpt><trkpt lat="39.90766" lon="-8.54801"><time>2022-01-15T22:27:35.000Z</time></trkpt><trkpt lat="39.90768" lon="-8.54787"><time>2022-01-15T22:27:45.000Z</time></trkpt><trkpt lat="39.90774" lon="-8.54777"><ele>328</ele><time>2022-01-15T22:28:38.000Z</time></trkpt><trkpt lat="39.90787" lon="-8.54759"><time>2022-01-15T22:28:48.000Z</time></trkpt><trkpt lat="39.90793" lon="-8.54749"><ele>331</ele><time>2022-01-15T22:29:01.000Z</time></trkpt><trkpt lat="39.90795" lon="-8.54741"><time>2022-01-15T22:29:11.000Z</time></trkpt><trkpt lat="39.90808" lon="-8.54725"><ele>337</ele><time>2022-01-15T22:29:24.000Z</time></trkpt><trkpt lat="39.90815" lon="-8.54723"><time>2022-01-15T22:29:34.000Z</time></trkpt><trkpt lat="39.9082" lon="-8.54715"><time>2022-01-15T22:29:44.000Z</time></trkpt><trkpt lat="39.90826" lon="-8.54712"><ele>337</ele><time>2022-01-15T22:30:10.000Z</time></trkpt><trkpt lat="39.90834" lon="-8.54703"><time>2022-01-15T22:30:20.000Z</time></trkpt><trkpt lat="39.90843" lon="-8.54693"><ele>337</ele><time>2022-01-15T22:30:33.000Z</time></trkpt><trkpt lat="39.90853" lon="-8.54687"><time>2022-01-15T22:30:43.000Z</time></trkpt><trkpt lat="39.90856" lon="-8.54687"><time>2022-01-15T22:30:53.000Z</time></trkpt><trkpt lat="39.90866" lon="-8.54695"><ele>338</ele><time>2022-01-15T22:31:08.000Z</time></trkpt><trkpt lat="39.90873" lon="-8.54703"><time>2022-01-15T22:31:18.000Z</time></trkpt><trkpt lat="39.9088" lon="-8.54707"><time>2022-01-15T22:31:28.000Z</time></trkpt><trkpt lat="39.90884" lon="-8.54707"><ele>340</ele><time>2022-01-15T22:31:43.000Z</time></trkpt><trkpt lat="39.90908" lon="-8.54711"><ele>340</ele><time>2022-01-15T22:32:06.000Z</time></trkpt><trkpt lat="39.90934" lon="-8.54714"><ele>341</ele><time>2022-01-15T22:32:16.000Z</time></trkpt><trkpt lat="39.90942" lon="-8.54714"><time>2022-01-15T22:32:26.000Z</time></trkpt><trkpt lat="39.90944" lon="-8.54713"><time>2022-01-15T22:32:36.000Z</time></trkpt><trkpt lat="39.90954" lon="-8.54714"><time>2022-01-15T22:32:46.000Z</time></trkpt><trkpt lat="39.90959" lon="-8.54712"><ele>345</ele><time>2022-01-15T22:32:56.000Z</time></trkpt><trkpt lat="39.90968" lon="-8.54708"><time>2022-01-15T22:33:06.000Z</time></trkpt><trkpt lat="39.90976" lon="-8.54704"><time>2022-01-15T22:33:16.000Z</time></trkpt><trkpt lat="39.90986" lon="-8.54709"><ele>348</ele><time>2022-01-15T22:33:26.000Z</time></trkpt><trkpt lat="39.90993" lon="-8.54708"><time>2022-01-15T22:33:36.000Z</time></trkpt><trkpt lat="39.91001" lon="-8.5471"><time>2022-01-15T22:33:46.000Z</time></trkpt><trkpt lat="39.91007" lon="-8.54706"><ele>357</ele><time>2022-01-15T22:33:56.000Z</time></trkpt><trkpt lat="39.91018" lon="-8.54707"><time>2022-01-15T22:34:06.000Z</time></trkpt><trkpt lat="39.91024" lon="-8.54703"><time>2022-01-15T22:34:16.000Z</time></trkpt><trkpt lat="39.91034" lon="-8.54702"><ele>361</ele><time>2022-01-15T22:34:26.000Z</time></trkpt><trkpt lat="39.91039" lon="-8.547"><time>2022-01-15T22:34:36.000Z</time></trkpt><trkpt lat="39.91047" lon="-8.54693"><time>2022-01-15T22:34:46.000Z</time></trkpt><trkpt lat="39.91054" lon="-8.54691"><ele>363</ele><time>2022-01-15T22:34:56.000Z</time></trkpt><trkpt lat="39.91059" lon="-8.54687"><time>2022-01-15T22:35:06.000Z</time></trkpt><trkpt lat="39.9107" lon="-8.54682"><time>2022-01-15T22:35:16.000Z</time></trkpt><trkpt lat="39.91082" lon="-8.54686"><ele>363</ele><time>2022-01-15T22:38:44.000Z</time></trkpt><trkpt lat="39.91091" lon="-8.54692"><time>2022-01-15T22:38:54.000Z</time></trkpt><trkpt lat="39.91102" lon="-8.54684"><ele>361</ele><time>2022-01-15T22:39:04.000Z</time></trkpt><trkpt lat="39.91107" lon="-8.54682"><time>2022-01-15T22:39:14.000Z</time></trkpt><trkpt lat="39.91109" lon="-8.54682"><time>2022-01-15T22:39:24.000Z</time></trkpt><trkpt lat="39.91118" lon="-8.54678"><time>2022-01-15T22:39:34.000Z</time></trkpt><trkpt lat="39.91129" lon="-8.54679"><ele>364</ele><time>2022-01-15T22:39:44.000Z</time></trkpt><trkpt lat="39.91129" lon="-8.54679"><time>2022-01-15T22:39:54.000Z</time></trkpt><trkpt lat="39.91127" lon="-8.54678"><time>2022-01-15T22:40:04.000Z</time></trkpt><trkpt lat="39.91134" lon="-8.54686"><time>2022-01-15T22:40:14.000Z</time></trkpt><trkpt lat="39.91147" lon="-8.54691"><ele>367</ele><time>2022-01-15T22:40:24.000Z</time></trkpt><trkpt lat="39.91151" lon="-8.54695"><time>2022-01-15T22:40:34.000Z</time></trkpt><trkpt lat="39.91163" lon="-8.54703"><time>2022-01-15T22:40:44.000Z</time></trkpt><trkpt lat="39.91169" lon="-8.54706"><ele>371</ele><time>2022-01-15T22:40:54.000Z</time></trkpt><trkpt lat="39.9118" lon="-8.54713"><time>2022-01-15T22:41:04.000Z</time></trkpt><trkpt lat="39.91188" lon="-8.54717"><time>2022-01-15T22:41:14.000Z</time></trkpt><trkpt lat="39.91197" lon="-8.5472"><ele>381</ele><time>2022-01-15T22:41:24.000Z</time></trkpt><trkpt lat="39.91204" lon="-8.54725"><time>2022-01-15T22:41:34.000Z</time></trkpt><trkpt lat="39.9124" lon="-8.54743"><ele>387</ele><time>2022-01-15T22:45:01.000Z</time></trkpt><trkpt lat="39.91263" lon="-8.54751"><ele>387</ele><time>2022-01-15T22:45:24.000Z</time></trkpt><trkpt lat="39.91282" lon="-8.54767"><ele>393</ele><time>2022-01-15T22:45:34.000Z</time></trkpt><trkpt lat="39.91286" lon="-8.54767"><time>2022-01-15T22:45:44.000Z</time></trkpt><trkpt lat="39.9129" lon="-8.54766"><time>2022-01-15T22:45:54.000Z</time></trkpt><trkpt lat="39.91292" lon="-8.54766"><time>2022-01-15T22:46:04.000Z</time></trkpt><trkpt lat="39.91295" lon="-8.54764"><time>2022-01-15T22:46:14.000Z</time></trkpt><trkpt lat="39.91298" lon="-8.54761"><time>2022-01-15T22:46:24.000Z</time></trkpt><trkpt lat="39.9131" lon="-8.54755"><ele>399</ele><time>2022-01-15T22:46:34.000Z</time></trkpt><trkpt lat="39.91317" lon="-8.54748"><time>2022-01-15T22:46:44.000Z</time></trkpt><trkpt lat="39.91324" lon="-8.5474"><time>2022-01-15T22:46:54.000Z</time></trkpt><trkpt lat="39.91337" lon="-8.54734"><ele>401</ele><time>2022-01-15T22:47:04.000Z</time></trkpt><trkpt lat="39.91344" lon="-8.54735"><time>2022-01-15T22:47:14.000Z</time></trkpt><trkpt lat="39.91352" lon="-8.54739"><time>2022-01-15T22:47:24.000Z</time></trkpt><trkpt lat="39.91358" lon="-8.54746"><ele>405</ele><time>2022-01-15T22:47:34.000Z</time></trkpt><trkpt lat="39.91362" lon="-8.54757"><time>2022-01-15T22:47:44.000Z</time></trkpt><trkpt lat="39.9137" lon="-8.54769"><ele>405</ele><time>2022-01-15T22:47:54.000Z</time></trkpt><trkpt lat="39.91372" lon="-8.54771"><time>2022-01-15T22:48:04.000Z</time></trkpt><trkpt lat="39.91374" lon="-8.54773"><time>2022-01-15T22:48:14.000Z</time></trkpt><trkpt lat="39.91378" lon="-8.5478"><time>2022-01-15T22:48:24.000Z</time></trkpt><trkpt lat="39.91395" lon="-8.54817"><ele>407</ele><time>2022-01-15T22:48:34.000Z</time></trkpt><trkpt lat="39.91399" lon="-8.54826"><time>2022-01-15T22:48:44.000Z</time></trkpt><trkpt lat="39.91406" lon="-8.54842"><ele>409</ele><time>2022-01-15T22:48:54.000Z</time></trkpt><trkpt lat="39.91411" lon="-8.54868"><time>2022-01-15T22:49:04.000Z</time></trkpt><trkpt lat="39.91416" lon="-8.54881"><ele>417</ele><time>2022-01-15T22:49:14.000Z</time></trkpt><trkpt lat="39.91422" lon="-8.54905"><time>2022-01-15T22:49:24.000Z</time></trkpt><trkpt lat="39.91428" lon="-8.54913"><ele>417</ele><time>2022-01-15T22:49:34.000Z</time></trkpt><trkpt lat="39.91428" lon="-8.54921"><time>2022-01-15T22:49:44.000Z</time></trkpt><trkpt lat="39.91426" lon="-8.54926"><time>2022-01-15T22:49:54.000Z</time></trkpt><trkpt lat="39.91426" lon="-8.54934"><time>2022-01-15T22:50:04.000Z</time></trkpt><trkpt lat="39.91423" lon="-8.54957"><ele>417</ele><time>2022-01-15T22:50:14.000Z</time></trkpt><trkpt lat="39.91427" lon="-8.54983"><time>2022-01-15T22:50:24.000Z</time></trkpt><trkpt lat="39.91427" lon="-8.55006"><ele>416</ele><time>2022-01-15T22:50:34.000Z</time></trkpt><trkpt lat="39.91433" lon="-8.55021"><time>2022-01-15T22:50:44.000Z</time></trkpt><trkpt lat="39.91435" lon="-8.5503"><time>2022-01-15T22:50:54.000Z</time></trkpt><trkpt lat="39.91437" lon="-8.55034"><ele>416</ele><time>2022-01-15T22:51:04.000Z</time></trkpt><trkpt lat="39.91438" lon="-8.55052"><time>2022-01-15T22:51:14.000Z</time></trkpt><trkpt lat="39.91438" lon="-8.55053"><time>2022-01-15T22:51:24.000Z</time></trkpt><trkpt lat="39.91437" lon="-8.5506"><time>2022-01-15T22:51:34.000Z</time></trkpt><trkpt lat="39.91437" lon="-8.55071"><ele>415</ele><time>2022-01-15T22:51:44.000Z</time></trkpt><trkpt lat="39.91437" lon="-8.5509"><time>2022-01-15T22:51:54.000Z</time></trkpt><trkpt lat="39.91449" lon="-8.55095"><ele>410</ele><time>2022-01-15T22:52:04.000Z</time></trkpt><trkpt lat="39.91468" lon="-8.5509"><time>2022-01-15T22:52:14.000Z</time></trkpt><trkpt lat="39.91475" lon="-8.55087"><ele>406</ele><time>2022-01-15T22:52:24.000Z</time></trkpt><trkpt lat="39.91489" lon="-8.55085"><time>2022-01-15T22:52:34.000Z</time></trkpt><trkpt lat="39.91525" lon="-8.55074"><ele>402</ele><time>2022-01-15T22:58:59.000Z</time></trkpt><trkpt lat="39.91543" lon="-8.5507"><time>2022-01-15T22:59:09.000Z</time></trkpt><trkpt lat="39.91548" lon="-8.5507"><ele>402</ele><time>2022-01-15T22:59:23.000Z</time></trkpt><trkpt lat="39.91582" lon="-8.55064"><ele>410</ele><time>2022-01-15T22:59:33.000Z</time></trkpt><trkpt lat="39.91597" lon="-8.55062"><time>2022-01-15T22:59:43.000Z</time></trkpt><trkpt lat="39.9161" lon="-8.55051"><ele>422</ele><time>2022-01-15T22:59:53.000Z</time></trkpt><trkpt lat="39.9162" lon="-8.55037"><time>2022-01-15T23:00:03.000Z</time></trkpt><trkpt lat="39.91638" lon="-8.54998"><ele>424</ele><time>2022-01-15T23:01:37.000Z</time></trkpt><trkpt lat="39.91642" lon="-8.54989"><time>2022-01-15T23:01:47.000Z</time></trkpt><trkpt lat="39.91652" lon="-8.5497"><ele>427</ele><time>2022-01-15T23:02:14.000Z</time></trkpt><trkpt lat="39.91659" lon="-8.54954"><time>2022-01-15T23:02:24.000Z</time></trkpt><trkpt lat="39.91664" lon="-8.54946"><ele>435</ele><time>2022-01-15T23:02:50.000Z</time></trkpt><trkpt lat="39.91676" lon="-8.54916"><ele>437</ele><time>2022-01-15T23:03:00.000Z</time></trkpt><trkpt lat="39.91679" lon="-8.54912"><time>2022-01-15T23:03:10.000Z</time></trkpt><trkpt lat="39.9168" lon="-8.54912"><time>2022-01-15T23:03:20.000Z</time></trkpt><trkpt lat="39.91684" lon="-8.54903"><time>2022-01-15T23:03:30.000Z</time></trkpt><trkpt lat="39.91685" lon="-8.54898"><time>2022-01-15T23:03:40.000Z</time></trkpt><trkpt lat="39.91701" lon="-8.54868"><ele>442</ele><time>2022-01-15T23:05:30.000Z</time></trkpt><trkpt lat="39.91702" lon="-8.5486"><time>2022-01-15T23:05:40.000Z</time></trkpt><trkpt lat="39.91709" lon="-8.54841"><ele>442</ele><time>2022-01-15T23:06:31.000Z</time></trkpt><trkpt lat="39.91721" lon="-8.54815"><ele>447</ele><time>2022-01-15T23:06:41.000Z</time></trkpt><trkpt lat="39.91723" lon="-8.54804"><time>2022-01-15T23:06:51.000Z</time></trkpt><trkpt lat="39.91724" lon="-8.54798"><time>2022-01-15T23:07:01.000Z</time></trkpt><trkpt lat="39.91718" lon="-8.5475"><ele>454</ele><time>2022-01-15T23:07:11.000Z</time></trkpt><trkpt lat="39.91717" lon="-8.54748"><time>2022-01-15T23:07:21.000Z</time></trkpt><trkpt lat="39.91716" lon="-8.54741"><time>2022-01-15T23:07:31.000Z</time></trkpt><trkpt lat="39.91716" lon="-8.54725"><time>2022-01-15T23:07:41.000Z</time></trkpt><trkpt lat="39.91715" lon="-8.54718"><ele>457</ele><time>2022-01-15T23:07:51.000Z</time></trkpt><trkpt lat="39.91711" lon="-8.54705"><time>2022-01-15T23:08:01.000Z</time></trkpt><trkpt lat="39.91711" lon="-8.54698"><time>2022-01-15T23:08:11.000Z</time></trkpt><trkpt lat="39.9171" lon="-8.54685"><ele>458</ele><time>2022-01-15T23:08:21.000Z</time></trkpt><trkpt lat="39.91711" lon="-8.54678"><time>2022-01-15T23:08:31.000Z</time></trkpt><trkpt lat="39.91708" lon="-8.54651"><ele>459</ele><time>2022-01-15T23:08:41.000Z</time></trkpt><trkpt lat="39.91706" lon="-8.54642"><time>2022-01-15T23:08:51.000Z</time></trkpt><trkpt lat="39.91703" lon="-8.54628"><time>2022-01-15T23:09:01.000Z</time></trkpt><trkpt lat="39.91698" lon="-8.54598"><ele>466</ele><time>2022-01-15T23:14:33.000Z</time></trkpt><trkpt lat="39.91692" lon="-8.5457"><ele>469</ele><time>2022-01-15T23:14:43.000Z</time></trkpt><trkpt lat="39.91691" lon="-8.54558"><time>2022-01-15T23:14:53.000Z</time></trkpt><trkpt lat="39.91687" lon="-8.54537"><ele>469</ele><time>2022-01-15T23:15:03.000Z</time></trkpt><trkpt lat="39.91682" lon="-8.54519"><time>2022-01-15T23:15:13.000Z</time></trkpt><trkpt lat="39.91677" lon="-8.54481"><ele>471</ele><time>2022-01-15T23:16:50.000Z</time></trkpt><trkpt lat="39.9167" lon="-8.54445"><ele>480</ele><time>2022-01-15T23:17:00.000Z</time></trkpt><trkpt lat="39.91668" lon="-8.54429"><time>2022-01-15T23:17:10.000Z</time></trkpt><trkpt lat="39.91669" lon="-8.54403"><ele>484</ele><time>2022-01-15T23:17:20.000Z</time></trkpt><trkpt lat="39.91668" lon="-8.54394"><time>2022-01-15T23:17:30.000Z</time></trkpt><trkpt lat="39.91669" lon="-8.54377"><time>2022-01-15T23:17:40.000Z</time></trkpt><trkpt lat="39.91672" lon="-8.5437"><ele>487</ele><time>2022-01-15T23:17:50.000Z</time></trkpt><trkpt lat="39.91672" lon="-8.54364"><time>2022-01-15T23:18:00.000Z</time></trkpt><trkpt lat="39.91674" lon="-8.54354"><time>2022-01-15T23:18:10.000Z</time></trkpt><trkpt lat="39.91675" lon="-8.54346"><time>2022-01-15T23:18:20.000Z</time></trkpt><trkpt lat="39.91679" lon="-8.54323"><ele>492</ele><time>2022-01-15T23:18:30.000Z</time></trkpt><trkpt lat="39.9168" lon="-8.54308"><time>2022-01-15T23:18:40.000Z</time></trkpt><trkpt lat="39.91681" lon="-8.54301"><time>2022-01-15T23:18:50.000Z</time></trkpt><trkpt lat="39.91683" lon="-8.54291"><ele>494</ele><time>2022-01-15T23:19:00.000Z</time></trkpt><trkpt lat="39.91688" lon="-8.54277"><time>2022-01-15T23:19:10.000Z</time></trkpt><trkpt lat="39.91692" lon="-8.54271"><time>2022-01-15T23:19:20.000Z</time></trkpt><trkpt lat="39.91698" lon="-8.54266"><ele>502</ele><time>2022-01-15T23:19:30.000Z</time></trkpt><trkpt lat="39.91708" lon="-8.54262"><time>2022-01-15T23:19:40.000Z</time></trkpt><trkpt lat="39.91716" lon="-8.54259"><time>2022-01-15T23:19:50.000Z</time></trkpt><trkpt lat="39.91722" lon="-8.54255"><ele>505</ele><time>2022-01-15T23:20:00.000Z</time></trkpt><trkpt lat="39.91728" lon="-8.54252"><time>2022-01-15T23:20:10.000Z</time></trkpt><trkpt lat="39.91734" lon="-8.54247"><time>2022-01-15T23:20:20.000Z</time></trkpt><trkpt lat="39.91737" lon="-8.54242"><time>2022-01-15T23:20:30.000Z</time></trkpt><trkpt lat="39.91743" lon="-8.54239"><ele>507</ele><time>2022-01-15T23:20:40.000Z</time></trkpt><trkpt lat="39.91754" lon="-8.54231"><time>2022-01-15T23:20:50.000Z</time></trkpt><trkpt lat="39.91757" lon="-8.5423"><time>2022-01-15T23:21:00.000Z</time></trkpt><trkpt lat="39.91759" lon="-8.54227"><time>2022-01-15T23:21:10.000Z</time></trkpt><trkpt lat="39.91763" lon="-8.54225"><ele>509</ele><time>2022-01-15T23:21:20.000Z</time></trkpt><trkpt lat="39.91765" lon="-8.54223"><time>2022-01-15T23:21:30.000Z</time></trkpt><trkpt lat="39.91774" lon="-8.54221"><time>2022-01-15T23:21:40.000Z</time></trkpt><trkpt lat="39.91788" lon="-8.54212"><ele>515</ele><time>2022-01-15T23:21:50.000Z</time></trkpt><trkpt lat="39.91792" lon="-8.5421"><time>2022-01-15T23:22:00.000Z</time></trkpt><trkpt lat="39.91806" lon="-8.54207"><time>2022-01-15T23:22:10.000Z</time></trkpt><trkpt lat="39.91827" lon="-8.54204"><ele>516</ele><time>2022-01-15T23:22:20.000Z</time></trkpt><trkpt lat="39.91844" lon="-8.54203"><time>2022-01-15T23:22:30.000Z</time></trkpt><trkpt lat="39.91858" lon="-8.542"><ele>518</ele><time>2022-01-15T23:22:40.000Z</time></trkpt><trkpt lat="39.91866" lon="-8.542"><time>2022-01-15T23:22:50.000Z</time></trkpt><trkpt lat="39.91881" lon="-8.54199"><ele>517</ele><time>2022-01-15T23:23:00.000Z</time></trkpt><trkpt lat="39.91889" lon="-8.542"><time>2022-01-15T23:23:10.000Z</time></trkpt><trkpt lat="39.91897" lon="-8.54199"><time>2022-01-15T23:23:20.000Z</time></trkpt><trkpt lat="39.9191" lon="-8.54201"><ele>517</ele><time>2022-01-15T23:23:30.000Z</time></trkpt><trkpt lat="39.91917" lon="-8.54199"><time>2022-01-15T23:23:40.000Z</time></trkpt><trkpt lat="39.91925" lon="-8.54188"><time>2022-01-15T23:23:50.000Z</time></trkpt><trkpt lat="39.91928" lon="-8.54186"><ele>527</ele><time>2022-01-15T23:24:00.000Z</time></trkpt><trkpt lat="39.91931" lon="-8.54181"><time>2022-01-15T23:24:10.000Z</time></trkpt><trkpt lat="39.91933" lon="-8.5418"><time>2022-01-15T23:24:20.000Z</time></trkpt><trkpt lat="39.91942" lon="-8.54173"><time>2022-01-15T23:24:30.000Z</time></trkpt><trkpt lat="39.91955" lon="-8.54162"><ele>536</ele><time>2022-01-15T23:33:14.000Z</time></trkpt><trkpt lat="39.91962" lon="-8.54159"><time>2022-01-15T23:33:24.000Z</time></trkpt><trkpt lat="39.91968" lon="-8.54154"><time>2022-01-15T23:33:34.000Z</time></trkpt><trkpt lat="39.91973" lon="-8.54147"><ele>544</ele><time>2022-01-15T23:33:52.000Z</time></trkpt><trkpt lat="39.91973" lon="-8.54147"><time>2022-01-15T23:34:02.000Z</time></trkpt><trkpt lat="39.91978" lon="-8.54144"><time>2022-01-15T23:34:12.000Z</time></trkpt><trkpt lat="39.91979" lon="-8.5414"><time>2022-01-15T23:34:22.000Z</time></trkpt><trkpt lat="39.91979" lon="-8.54137"><time>2022-01-15T23:34:32.000Z</time></trkpt><trkpt lat="39.9198" lon="-8.54133"><time>2022-01-15T23:34:42.000Z</time></trkpt><trkpt lat="39.91984" lon="-8.54126"><ele>544</ele><time>2022-01-15T23:34:52.000Z</time></trkpt><trkpt lat="39.91988" lon="-8.54107"><time>2022-01-15T23:35:02.000Z</time></trkpt><trkpt lat="39.91994" lon="-8.54087"><ele>547</ele><time>2022-01-15T23:35:12.000Z</time></trkpt><trkpt lat="39.92002" lon="-8.54066"><time>2022-01-15T23:35:22.000Z</time></trkpt><trkpt lat="39.92004" lon="-8.54061"><ele>547</ele><time>2022-01-15T23:35:32.000Z</time></trkpt><trkpt lat="39.92011" lon="-8.54052"><time>2022-01-15T23:35:42.000Z</time></trkpt><trkpt lat="39.9203" lon="-8.54008"><ele>554</ele><time>2022-01-15T23:37:03.000Z</time></trkpt><trkpt lat="39.92042" lon="-8.53991"><time>2022-01-15T23:37:13.000Z</time></trkpt><trkpt lat="39.92042" lon="-8.5399"><time>2022-01-15T23:37:23.000Z</time></trkpt><trkpt lat="39.92042" lon="-8.5399"><time>2022-01-15T23:37:33.000Z</time></trkpt><trkpt lat="39.92041" lon="-8.53991"><time>2022-01-15T23:37:43.000Z</time></trkpt><trkpt lat="39.92043" lon="-8.53995"><ele>554</ele><time>2022-01-15T23:37:53.000Z</time></trkpt><trkpt lat="39.92044" lon="-8.53999"><time>2022-01-15T23:38:03.000Z</time></trkpt><trkpt lat="39.92048" lon="-8.53999"><time>2022-01-15T23:38:13.000Z</time></trkpt><trkpt lat="39.92049" lon="-8.53997"><time>2022-01-15T23:38:23.000Z</time></trkpt><trkpt lat="39.9205" lon="-8.54001"><time>2022-01-15T23:38:33.000Z</time></trkpt><trkpt lat="39.92052" lon="-8.54015"><ele>553</ele><time>2022-01-15T23:38:43.000Z</time></trkpt><trkpt lat="39.92051" lon="-8.54023"><time>2022-01-15T23:38:53.000Z</time></trkpt><trkpt lat="39.92055" lon="-8.54032"><time>2022-01-15T23:39:03.000Z</time></trkpt><trkpt lat="39.92056" lon="-8.54037"><time>2022-01-15T23:39:13.000Z</time></trkpt><trkpt lat="39.92067" lon="-8.54054"><ele>553</ele><time>2022-01-15T23:39:23.000Z</time></trkpt><trkpt lat="39.92067" lon="-8.54057"><time>2022-01-15T23:39:33.000Z</time></trkpt><trkpt lat="39.92072" lon="-8.54061"><time>2022-01-15T23:39:43.000Z</time></trkpt><trkpt lat="39.92074" lon="-8.54068"><time>2022-01-15T23:39:53.000Z</time></trkpt><trkpt lat="39.92076" lon="-8.54093"><ele>552</ele><time>2022-01-15T23:45:38.000Z</time></trkpt><trkpt lat="39.92082" lon="-8.54111"><time>2022-01-15T23:45:48.000Z</time></trkpt><trkpt lat="39.92083" lon="-8.54114"><time>2022-01-15T23:45:58.000Z</time></trkpt><trkpt lat="39.92084" lon="-8.54131"><ele>549</ele><time>2022-01-15T23:46:08.000Z</time></trkpt><trkpt lat="39.92076" lon="-8.54158"><ele>546</ele><time>2022-01-15T23:46:18.000Z</time></trkpt><trkpt lat="39.92075" lon="-8.54164"><time>2022-01-15T23:46:28.000Z</time></trkpt><trkpt lat="39.92077" lon="-8.54174"><time>2022-01-15T23:46:38.000Z</time></trkpt><trkpt lat="39.92079" lon="-8.54184"><ele>544</ele><time>2022-01-15T23:46:48.000Z</time></trkpt><trkpt lat="39.92078" lon="-8.54188"><time>2022-01-15T23:46:58.000Z</time></trkpt><trkpt lat="39.92081" lon="-8.54196"><time>2022-01-15T23:47:08.000Z</time></trkpt><trkpt lat="39.9208" lon="-8.54205"><time>2022-01-15T23:47:18.000Z</time></trkpt><trkpt lat="39.92079" lon="-8.5422"><ele>542</ele><time>2022-01-15T23:47:28.000Z</time></trkpt><trkpt lat="39.92084" lon="-8.54235"><time>2022-01-15T23:47:38.000Z</time></trkpt><trkpt lat="39.92114" lon="-8.54257"><ele>541</ele><time>2022-01-15T23:47:48.000Z</time></trkpt><trkpt lat="39.92129" lon="-8.54262"><time>2022-01-15T23:47:58.000Z</time></trkpt><trkpt lat="39.92133" lon="-8.5426"><time>2022-01-15T23:48:08.000Z</time></trkpt><trkpt lat="39.92159" lon="-8.54239"><ele>541</ele><time>2022-01-15T23:48:18.000Z</time></trkpt><trkpt lat="39.92161" lon="-8.54239"><time>2022-01-15T23:48:28.000Z</time></trkpt><trkpt lat="39.92166" lon="-8.54238"><time>2022-01-15T23:48:38.000Z</time></trkpt><trkpt lat="39.92173" lon="-8.54237"><time>2022-01-15T23:48:48.000Z</time></trkpt><trkpt lat="39.92179" lon="-8.54232"><ele>539</ele><time>2022-01-15T23:48:58.000Z</time></trkpt><trkpt lat="39.92183" lon="-8.54227"><time>2022-01-15T23:49:08.000Z</time></trkpt><trkpt lat="39.92187" lon="-8.54223"><time>2022-01-15T23:49:18.000Z</time></trkpt><trkpt lat="39.92195" lon="-8.54216"><time>2022-01-15T23:49:28.000Z</time></trkpt><trkpt lat="39.92197" lon="-8.54216"><ele>528</ele><time>2022-01-15T23:49:38.000Z</time></trkpt><trkpt lat="39.92202" lon="-8.54212"><time>2022-01-15T23:49:48.000Z</time></trkpt><trkpt lat="39.92205" lon="-8.54208"><time>2022-01-15T23:49:58.000Z</time></trkpt><trkpt lat="39.92213" lon="-8.54202"><time>2022-01-15T23:50:08.000Z</time></trkpt><trkpt lat="39.92222" lon="-8.54201"><ele>527</ele><time>2022-01-15T23:50:18.000Z</time></trkpt><trkpt lat="39.92228" lon="-8.54204"><time>2022-01-15T23:50:28.000Z</time></trkpt><trkpt lat="39.92238" lon="-8.54213"><time>2022-01-15T23:50:38.000Z</time></trkpt><trkpt lat="39.92261" lon="-8.54237"><ele>527</ele><time>2022-01-15T23:59:43.000Z</time></trkpt><trkpt lat="39.92273" lon="-8.54259"><ele>531</ele><time>2022-01-15T23:59:57.000Z</time></trkpt><trkpt lat="39.92303" lon="-8.5429"><ele>535</ele><time>2022-01-16T00:00:23.000Z</time></trkpt><trkpt lat="39.92317" lon="-8.54306"><time>2022-01-16T00:00:33.000Z</time></trkpt><trkpt lat="39.92323" lon="-8.54311"><ele>541</ele><time>2022-01-16T00:00:49.000Z</time></trkpt><trkpt lat="39.92336" lon="-8.54328"><time>2022-01-16T00:00:59.000Z</time></trkpt><trkpt lat="39.9234" lon="-8.54334"><ele>541</ele><time>2022-01-16T00:01:16.000Z</time></trkpt><trkpt lat="39.92358" lon="-8.54358"><ele>533</ele><time>2022-01-16T00:01:26.000Z</time></trkpt><trkpt lat="39.92377" lon="-8.54382"><ele>530</ele><time>2022-01-16T00:02:22.000Z</time></trkpt><trkpt lat="39.92403" lon="-8.5441"><ele>530</ele><time>2022-01-16T00:02:32.000Z</time></trkpt><trkpt lat="39.92417" lon="-8.54429"><time>2022-01-16T00:02:42.000Z</time></trkpt><trkpt lat="39.92433" lon="-8.54444"><ele>523</ele><time>2022-01-16T00:02:52.000Z</time></trkpt><trkpt lat="39.92434" lon="-8.54444"><time>2022-01-16T00:03:02.000Z</time></trkpt><trkpt lat="39.92443" lon="-8.54443"><time>2022-01-16T00:03:12.000Z</time></trkpt><trkpt lat="39.92449" lon="-8.54448"><time>2022-01-16T00:03:22.000Z</time></trkpt><trkpt lat="39.92453" lon="-8.5445"><ele>521</ele><time>2022-01-16T00:03:32.000Z</time></trkpt><trkpt lat="39.92457" lon="-8.54454"><time>2022-01-16T00:03:42.000Z</time></trkpt><trkpt lat="39.92465" lon="-8.54463"><time>2022-01-16T00:03:52.000Z</time></trkpt><trkpt lat="39.92476" lon="-8.54482"><ele>517</ele><time>2022-01-16T00:06:07.000Z</time></trkpt><trkpt lat="39.92499" lon="-8.545"><ele>507</ele><time>2022-01-16T00:06:17.000Z</time></trkpt><trkpt lat="39.92506" lon="-8.54501"><time>2022-01-16T00:06:27.000Z</time></trkpt><trkpt lat="39.92512" lon="-8.54505"><time>2022-01-16T00:06:37.000Z</time></trkpt><trkpt lat="39.92542" lon="-8.54529"><ele>505</ele><time>2022-01-16T00:07:27.000Z</time></trkpt><trkpt lat="39.9256" lon="-8.54546"><ele>505</ele><time>2022-01-16T00:07:54.000Z</time></trkpt><trkpt lat="39.92573" lon="-8.54555"><time>2022-01-16T00:08:04.000Z</time></trkpt><trkpt lat="39.92581" lon="-8.54565"><ele>502</ele><time>2022-01-16T00:08:21.000Z</time></trkpt><trkpt lat="39.92611" lon="-8.54594"><ele>497</ele><time>2022-01-16T00:08:31.000Z</time></trkpt><trkpt lat="39.92614" lon="-8.54596"><time>2022-01-16T00:08:41.000Z</time></trkpt><trkpt lat="39.9263" lon="-8.54605"><time>2022-01-16T00:08:51.000Z</time></trkpt><trkpt lat="39.9263" lon="-8.54604"><ele>496</ele><time>2022-01-16T00:09:01.000Z</time></trkpt><trkpt lat="39.92631" lon="-8.54605"><time>2022-01-16T00:09:11.000Z</time></trkpt><trkpt lat="39.92636" lon="-8.54609"><time>2022-01-16T00:09:21.000Z</time></trkpt><trkpt lat="39.92649" lon="-8.54627"><ele>496</ele><time>2022-01-16T00:09:31.000Z</time></trkpt><trkpt lat="39.92664" lon="-8.54645"><time>2022-01-16T00:09:41.000Z</time></trkpt><trkpt lat="39.92694" lon="-8.54674"><ele>495</ele><time>2022-01-16T00:11:15.000Z</time></trkpt><trkpt lat="39.92704" lon="-8.54684"><time>2022-01-16T00:11:25.000Z</time></trkpt><trkpt lat="39.92716" lon="-8.54703"><ele>495</ele><time>2022-01-16T00:11:55.000Z</time></trkpt><trkpt lat="39.92727" lon="-8.54733"><ele>492</ele><time>2022-01-16T00:12:05.000Z</time></trkpt><trkpt lat="39.9273" lon="-8.54743"><time>2022-01-16T00:12:15.000Z</time></trkpt><trkpt lat="39.92736" lon="-8.54759"><ele>492</ele><time>2022-01-16T00:12:25.000Z</time></trkpt><trkpt lat="39.92738" lon="-8.54769"><time>2022-01-16T00:12:35.000Z</time></trkpt><trkpt lat="39.92742" lon="-8.54784"><time>2022-01-16T00:12:45.000Z</time></trkpt><trkpt lat="39.92745" lon="-8.54791"><ele>481</ele><time>2022-01-16T00:12:55.000Z</time></trkpt><trkpt lat="39.92749" lon="-8.54796"><time>2022-01-16T00:13:05.000Z</time></trkpt><trkpt lat="39.92757" lon="-8.54811"><time>2022-01-16T00:13:15.000Z</time></trkpt><trkpt lat="39.92764" lon="-8.54828"><ele>479</ele><time>2022-01-16T00:13:25.000Z</time></trkpt><trkpt lat="39.92767" lon="-8.54835"><time>2022-01-16T00:13:35.000Z</time></trkpt><trkpt lat="39.9277" lon="-8.54844"><time>2022-01-16T00:13:45.000Z</time></trkpt><trkpt lat="39.92771" lon="-8.54852"><time>2022-01-16T00:13:55.000Z</time></trkpt><trkpt lat="39.9277" lon="-8.54868"><ele>474</ele><time>2022-01-16T00:16:26.000Z</time></trkpt><trkpt lat="39.9277" lon="-8.54874"><time>2022-01-16T00:16:36.000Z</time></trkpt><trkpt lat="39.92772" lon="-8.5488"><time>2022-01-16T00:16:46.000Z</time></trkpt><trkpt lat="39.92778" lon="-8.54887"><time>2022-01-16T00:16:56.000Z</time></trkpt><trkpt lat="39.92782" lon="-8.54896"><ele>471</ele><time>2022-01-16T00:17:20.000Z</time></trkpt><trkpt lat="39.92781" lon="-8.54914"><time>2022-01-16T00:17:30.000Z</time></trkpt><trkpt lat="39.92785" lon="-8.54924"><ele>466</ele><time>2022-01-16T00:17:40.000Z</time></trkpt><trkpt lat="39.92793" lon="-8.5493"><time>2022-01-16T00:17:50.000Z</time></trkpt><trkpt lat="39.92806" lon="-8.54941"><ele>460</ele><time>2022-01-16T00:18:00.000Z</time></trkpt><trkpt lat="39.92814" lon="-8.54958"><time>2022-01-16T00:18:10.000Z</time></trkpt><trkpt lat="39.92824" lon="-8.54964"><ele>453</ele><time>2022-01-16T00:18:20.000Z</time></trkpt><trkpt lat="39.92828" lon="-8.54966"><time>2022-01-16T00:18:30.000Z</time></trkpt><trkpt lat="39.9284" lon="-8.5497"><time>2022-01-16T00:18:40.000Z</time></trkpt><trkpt lat="39.92853" lon="-8.54981"><ele>446</ele><time>2022-01-16T00:18:50.000Z</time></trkpt><trkpt lat="39.92862" lon="-8.55"><time>2022-01-16T00:19:00.000Z</time></trkpt><trkpt lat="39.92873" lon="-8.55014"><ele>446</ele><time>2022-01-16T00:19:10.000Z</time></trkpt><trkpt lat="39.92884" lon="-8.55024"><time>2022-01-16T00:19:20.000Z</time></trkpt><trkpt lat="39.92891" lon="-8.55033"><ele>445</ele><time>2022-01-16T00:19:30.000Z</time></trkpt><trkpt lat="39.92906" lon="-8.55044"><time>2022-01-16T00:19:40.000Z</time></trkpt><trkpt lat="39.92925" lon="-8.55055"><ele>444</ele><time>2022-01-16T00:19:50.000Z</time></trkpt><trkpt lat="39.9293" lon="-8.55056"><time>2022-01-16T00:20:00.000Z</time></trkpt><trkpt lat="39.92951" lon="-8.55059"><ele>444</ele><time>2022-01-16T00:20:10.000Z</time></trkpt><trkpt lat="39.92958" lon="-8.55063"><time>2022-01-16T00:20:20.000Z</time></trkpt><trkpt lat="39.92964" lon="-8.55069"><time>2022-01-16T00:20:30.000Z</time></trkpt><trkpt lat="39.92975" lon="-8.55074"><ele>444</ele><time>2022-01-16T00:20:40.000Z</time></trkpt><trkpt lat="39.92981" lon="-8.55075"><time>2022-01-16T00:20:50.000Z</time></trkpt><trkpt lat="39.92993" lon="-8.5508"><time>2022-01-16T00:21:00.000Z</time></trkpt><trkpt lat="39.93019" lon="-8.55082"><ele>439</ele><time>2022-01-16T00:21:10.000Z</time></trkpt><trkpt lat="39.93031" lon="-8.55087"><time>2022-01-16T00:21:20.000Z</time></trkpt><trkpt lat="39.93039" lon="-8.55092"><ele>434</ele><time>2022-01-16T00:21:30.000Z</time></trkpt><trkpt lat="39.93051" lon="-8.55104"><time>2022-01-16T00:21:40.000Z</time></trkpt><trkpt lat="39.93055" lon="-8.55106"><time>2022-01-16T00:21:50.000Z</time></trkpt><trkpt lat="39.93069" lon="-8.55113"><ele>427</ele><time>2022-01-16T00:22:00.000Z</time></trkpt><trkpt lat="39.93076" lon="-8.55115"><time>2022-01-16T00:22:10.000Z</time></trkpt><trkpt lat="39.93089" lon="-8.5512"><ele>418</ele><time>2022-01-16T00:22:20.000Z</time></trkpt><trkpt lat="39.93096" lon="-8.55122"><time>2022-01-16T00:22:30.000Z</time></trkpt><trkpt lat="39.931" lon="-8.55124"><time>2022-01-16T00:22:40.000Z</time></trkpt><trkpt lat="39.93105" lon="-8.55127"><time>2022-01-16T00:22:50.000Z</time></trkpt><trkpt lat="39.93118" lon="-8.55142"><ele>407</ele><time>2022-01-16T00:30:48.000Z</time></trkpt><trkpt lat="39.93161" lon="-8.55178"><ele>395</ele><time>2022-01-16T00:32:11.000Z</time></trkpt><trkpt lat="39.93174" lon="-8.55185"><time>2022-01-16T00:32:21.000Z</time></trkpt><trkpt lat="39.93188" lon="-8.5519"><ele>393</ele><time>2022-01-16T00:33:06.000Z</time></trkpt><trkpt lat="39.93203" lon="-8.55202"><time>2022-01-16T00:33:16.000Z</time></trkpt><trkpt lat="39.93208" lon="-8.55205"><ele>389</ele><time>2022-01-16T00:34:01.000Z</time></trkpt><trkpt lat="39.93227" lon="-8.55212"><time>2022-01-16T00:34:11.000Z</time></trkpt><trkpt lat="39.93235" lon="-8.55214"><ele>383</ele><time>2022-01-16T00:34:57.000Z</time></trkpt><trkpt lat="39.93241" lon="-8.55217"><time>2022-01-16T00:35:07.000Z</time></trkpt><trkpt lat="39.93248" lon="-8.55234"><ele>370</ele><time>2022-01-16T00:35:17.000Z</time></trkpt><trkpt lat="39.93252" lon="-8.55239"><time>2022-01-16T00:35:27.000Z</time></trkpt><trkpt lat="39.93261" lon="-8.55246"><time>2022-01-16T00:35:37.000Z</time></trkpt><trkpt lat="39.9327" lon="-8.55258"><ele>370</ele><time>2022-01-16T00:36:34.000Z</time></trkpt><trkpt lat="39.93278" lon="-8.55264"><time>2022-01-16T00:36:44.000Z</time></trkpt><trkpt lat="39.93294" lon="-8.55271"><ele>364</ele><time>2022-01-16T00:37:16.000Z</time></trkpt><trkpt lat="39.933" lon="-8.55275"><time>2022-01-16T00:37:26.000Z</time></trkpt><trkpt lat="39.93307" lon="-8.5528"><time>2022-01-16T00:37:36.000Z</time></trkpt><trkpt lat="39.93315" lon="-8.55283"><ele>363</ele><time>2022-01-16T00:37:58.000Z</time></trkpt><trkpt lat="39.93341" lon="-8.55289"><ele>361</ele><time>2022-01-16T00:38:08.000Z</time></trkpt><trkpt lat="39.93344" lon="-8.55288"><time>2022-01-16T00:38:18.000Z</time></trkpt><trkpt lat="39.93347" lon="-8.5529"><time>2022-01-16T00:38:28.000Z</time></trkpt><trkpt lat="39.93348" lon="-8.55292"><time>2022-01-16T00:38:38.000Z</time></trkpt><trkpt lat="39.93345" lon="-8.55279"><time>2022-01-16T00:38:48.000Z</time></trkpt><trkpt lat="39.93344" lon="-8.55285"><ele>361</ele><time>2022-01-16T00:38:58.000Z</time></trkpt><trkpt lat="39.93344" lon="-8.55288"><time>2022-01-16T00:39:08.000Z</time></trkpt><trkpt lat="39.93349" lon="-8.55293"><time>2022-01-16T00:39:18.000Z</time></trkpt><trkpt lat="39.93352" lon="-8.55294"><time>2022-01-16T00:39:28.000Z</time></trkpt><trkpt lat="39.93357" lon="-8.55298"><time>2022-01-16T00:39:38.000Z</time></trkpt><trkpt lat="39.93366" lon="-8.55303"><ele>355</ele><time>2022-01-16T00:39:48.000Z</time></trkpt><trkpt lat="39.93375" lon="-8.55306"><time>2022-01-16T00:39:58.000Z</time></trkpt><trkpt lat="39.93456" lon="-8.55328"><ele>352</ele><time>2022-01-16T00:44:01.000Z</time></trkpt><trkpt lat="39.93475" lon="-8.55337"><time>2022-01-16T00:44:11.000Z</time></trkpt><trkpt lat="39.93488" lon="-8.55342"><ele>349</ele><time>2022-01-16T00:44:29.000Z</time></trkpt><trkpt lat="39.93505" lon="-8.5536"><ele>344</ele><time>2022-01-16T00:44:57.000Z</time></trkpt><trkpt lat="39.93513" lon="-8.55369"><time>2022-01-16T00:45:07.000Z</time></trkpt><trkpt lat="39.93528" lon="-8.55377"><ele>342</ele><time>2022-01-16T00:45:26.000Z</time></trkpt><trkpt lat="39.93539" lon="-8.55377"><time>2022-01-16T00:45:36.000Z</time></trkpt><trkpt lat="39.93555" lon="-8.55391"><ele>341</ele><time>2022-01-16T00:45:54.000Z</time></trkpt><trkpt lat="39.93577" lon="-8.554"><ele>338</ele><time>2022-01-16T00:46:04.000Z</time></trkpt><trkpt lat="39.93585" lon="-8.55403"><time>2022-01-16T00:46:14.000Z</time></trkpt><trkpt lat="39.93599" lon="-8.55418"><ele>338</ele><time>2022-01-16T00:46:24.000Z</time></trkpt><trkpt lat="39.93615" lon="-8.55424"><time>2022-01-16T00:46:34.000Z</time></trkpt><trkpt lat="39.93623" lon="-8.55424"><ele>336</ele><time>2022-01-16T00:46:44.000Z</time></trkpt><trkpt lat="39.9364" lon="-8.55431"><time>2022-01-16T00:46:54.000Z</time></trkpt><trkpt lat="39.93642" lon="-8.55456"><ele>330</ele><time>2022-01-16T00:47:04.000Z</time></trkpt><trkpt lat="39.93651" lon="-8.55472"><time>2022-01-16T00:47:14.000Z</time></trkpt><trkpt lat="39.93652" lon="-8.55477"><time>2022-01-16T00:47:24.000Z</time></trkpt><trkpt lat="39.9366" lon="-8.55498"><ele>327</ele><time>2022-01-16T00:47:34.000Z</time></trkpt><trkpt lat="39.93672" lon="-8.55514"><time>2022-01-16T00:47:44.000Z</time></trkpt><trkpt lat="39.93682" lon="-8.55515"><ele>328</ele><time>2022-01-16T00:47:54.000Z</time></trkpt><trkpt lat="39.93696" lon="-8.55522"><time>2022-01-16T00:48:04.000Z</time></trkpt><trkpt lat="39.93705" lon="-8.55524"><ele>327</ele><time>2022-01-16T00:48:14.000Z</time></trkpt><trkpt lat="39.93714" lon="-8.55538"><time>2022-01-16T00:48:24.000Z</time></trkpt><trkpt lat="39.93731" lon="-8.55549"><ele>327</ele><time>2022-01-16T00:48:34.000Z</time></trkpt><trkpt lat="39.93735" lon="-8.5555"><time>2022-01-16T00:48:44.000Z</time></trkpt><trkpt lat="39.93748" lon="-8.55562"><time>2022-01-16T00:48:54.000Z</time></trkpt><trkpt lat="39.93771" lon="-8.55589"><ele>327</ele><time>2022-01-16T00:49:04.000Z</time></trkpt><trkpt lat="39.93787" lon="-8.55606"><time>2022-01-16T00:49:14.000Z</time></trkpt><trkpt lat="39.93794" lon="-8.55613"><ele>316</ele><time>2022-01-16T00:49:24.000Z</time></trkpt><trkpt lat="39.93809" lon="-8.55626"><time>2022-01-16T00:49:34.000Z</time></trkpt><trkpt lat="39.93817" lon="-8.55624"><ele>316</ele><time>2022-01-16T00:49:44.000Z</time></trkpt><trkpt lat="39.93823" lon="-8.5562"><time>2022-01-16T00:49:54.000Z</time></trkpt><trkpt lat="39.93829" lon="-8.55617"><time>2022-01-16T00:50:04.000Z</time></trkpt><trkpt lat="39.93846" lon="-8.55626"><ele>315</ele><time>2022-01-16T00:50:14.000Z</time></trkpt><trkpt lat="39.93863" lon="-8.55637"><time>2022-01-16T00:50:24.000Z</time></trkpt><trkpt lat="39.93877" lon="-8.55653"><ele>315</ele><time>2022-01-16T00:50:34.000Z</time></trkpt><trkpt lat="39.93889" lon="-8.5567"><time>2022-01-16T00:50:44.000Z</time></trkpt><trkpt lat="39.93901" lon="-8.55688"><ele>320</ele><time>2022-01-16T00:50:54.000Z</time></trkpt><trkpt lat="39.93909" lon="-8.55701"><time>2022-01-16T00:51:04.000Z</time></trkpt><trkpt lat="39.93909" lon="-8.55703"><time>2022-01-16T00:51:14.000Z</time></trkpt><trkpt lat="39.93918" lon="-8.55724"><ele>319</ele><time>2022-01-16T00:51:24.000Z</time></trkpt><trkpt lat="39.9393" lon="-8.55741"><time>2022-01-16T00:51:34.000Z</time></trkpt><trkpt lat="39.93942" lon="-8.55749"><ele>318</ele><time>2022-01-16T00:51:44.000Z</time></trkpt><trkpt lat="39.93953" lon="-8.55757"><time>2022-01-16T00:51:54.000Z</time></trkpt><trkpt lat="39.93955" lon="-8.5576"><time>2022-01-16T00:52:04.000Z</time></trkpt><trkpt lat="39.93973" lon="-8.55777"><ele>319</ele><time>2022-01-16T00:52:14.000Z</time></trkpt><trkpt lat="39.93985" lon="-8.55783"><time>2022-01-16T00:52:24.000Z</time></trkpt><trkpt lat="39.93999" lon="-8.55798"><ele>317</ele><time>2022-01-16T00:52:34.000Z</time></trkpt><trkpt lat="39.9401" lon="-8.55817"><time>2022-01-16T00:52:44.000Z</time></trkpt><trkpt lat="39.94028" lon="-8.5583"><ele>316</ele><time>2022-01-16T00:52:54.000Z</time></trkpt><trkpt lat="39.94042" lon="-8.55845"><time>2022-01-16T00:53:04.000Z</time></trkpt><trkpt lat="39.94055" lon="-8.55851"><ele>314</ele><time>2022-01-16T00:53:14.000Z</time></trkpt><trkpt lat="39.94064" lon="-8.55857"><time>2022-01-16T00:53:24.000Z</time></trkpt><trkpt lat="39.94072" lon="-8.55857"><time>2022-01-16T00:53:34.000Z</time></trkpt><trkpt lat="39.94097" lon="-8.55868"><ele>310</ele><time>2022-01-16T00:59:15.000Z</time></trkpt><trkpt lat="39.94106" lon="-8.55882"><time>2022-01-16T00:59:25.000Z</time></trkpt><trkpt lat="39.94108" lon="-8.55903"><ele>311</ele><time>2022-01-16T00:59:35.000Z</time></trkpt><trkpt lat="39.94109" lon="-8.55906"><time>2022-01-16T00:59:45.000Z</time></trkpt><trkpt lat="39.9411" lon="-8.55909"><time>2022-01-16T00:59:55.000Z</time></trkpt><trkpt lat="39.94114" lon="-8.55925"><time>2022-01-16T01:00:05.000Z</time></trkpt><trkpt lat="39.94115" lon="-8.55933"><ele>313</ele><time>2022-01-16T01:01:11.000Z</time></trkpt><trkpt lat="39.94122" lon="-8.55948"><time>2022-01-16T01:01:21.000Z</time></trkpt><trkpt lat="39.94122" lon="-8.5595"><time>2022-01-16T01:01:31.000Z</time></trkpt><trkpt lat="39.94121" lon="-8.55954"><time>2022-01-16T01:01:41.000Z</time></trkpt><trkpt lat="39.94122" lon="-8.55961"><ele>320</ele><time>2022-01-16T01:02:24.000Z</time></trkpt><trkpt lat="39.94125" lon="-8.55976"><time>2022-01-16T01:02:34.000Z</time></trkpt><trkpt lat="39.94129" lon="-8.55987"><ele>320</ele><time>2022-01-16T01:02:44.000Z</time></trkpt><trkpt lat="39.94134" lon="-8.55995"><time>2022-01-16T01:02:54.000Z</time></trkpt><trkpt lat="39.94148" lon="-8.56019"><ele>321</ele><time>2022-01-16T01:04:35.000Z</time></trkpt><trkpt lat="39.94151" lon="-8.56034"><time>2022-01-16T01:04:45.000Z</time></trkpt><trkpt lat="39.94156" lon="-8.56046"><ele>321</ele><time>2022-01-16T01:05:04.000Z</time></trkpt><trkpt lat="39.94167" lon="-8.56065"><time>2022-01-16T01:05:14.000Z</time></trkpt><trkpt lat="39.94174" lon="-8.56075"><ele>322</ele><time>2022-01-16T01:05:33.000Z</time></trkpt><trkpt lat="39.94184" lon="-8.56093"><time>2022-01-16T01:05:43.000Z</time></trkpt><trkpt lat="39.94185" lon="-8.56096"><time>2022-01-16T01:05:53.000Z</time></trkpt><trkpt lat="39.94187" lon="-8.561"><ele>319</ele><time>2022-01-16T01:06:03.000Z</time></trkpt><trkpt lat="39.94189" lon="-8.56102"><time>2022-01-16T01:06:13.000Z</time></trkpt><trkpt lat="39.94196" lon="-8.56112"><time>2022-01-16T01:06:23.000Z</time></trkpt><trkpt lat="39.94215" lon="-8.56135"><ele>320</ele><time>2022-01-16T01:06:33.000Z</time></trkpt><trkpt lat="39.94218" lon="-8.56142"><time>2022-01-16T01:06:43.000Z</time></trkpt><trkpt lat="39.94229" lon="-8.5616"><ele>318</ele><time>2022-01-16T01:06:53.000Z</time></trkpt><trkpt lat="39.94243" lon="-8.56179"><time>2022-01-16T01:07:03.000Z</time></trkpt><trkpt lat="39.9425" lon="-8.56197"><ele>319</ele><time>2022-01-16T01:07:13.000Z</time></trkpt><trkpt lat="39.94257" lon="-8.56221"><time>2022-01-16T01:07:23.000Z</time></trkpt><trkpt lat="39.94269" lon="-8.56245"><ele>314</ele><time>2022-01-16T01:09:28.000Z</time></trkpt><trkpt lat="39.94278" lon="-8.56261"><time>2022-01-16T01:09:38.000Z</time></trkpt><trkpt lat="39.94284" lon="-8.56276"><ele>310</ele><time>2022-01-16T01:09:57.000Z</time></trkpt><trkpt lat="39.9429" lon="-8.56287"><time>2022-01-16T01:10:07.000Z</time></trkpt><trkpt lat="39.94301" lon="-8.563"><ele>306</ele><time>2022-01-16T01:10:27.000Z</time></trkpt><trkpt lat="39.94309" lon="-8.5631"><time>2022-01-16T01:10:37.000Z</time></trkpt><trkpt lat="39.94318" lon="-8.56318"><ele>306</ele><time>2022-01-16T01:10:47.000Z</time></trkpt><trkpt lat="39.94322" lon="-8.56324"><time>2022-01-16T01:10:57.000Z</time></trkpt><trkpt lat="39.94326" lon="-8.5633"><time>2022-01-16T01:11:07.000Z</time></trkpt><trkpt lat="39.94342" lon="-8.56345"><ele>299</ele><time>2022-01-16T01:11:55.000Z</time></trkpt><trkpt lat="39.94358" lon="-8.56363"><ele>293</ele><time>2022-01-16T01:12:05.000Z</time></trkpt><trkpt lat="39.94363" lon="-8.5637"><time>2022-01-16T01:12:15.000Z</time></trkpt><trkpt lat="39.9437" lon="-8.56384"><time>2022-01-16T01:12:25.000Z</time></trkpt><trkpt lat="39.94381" lon="-8.5643"><ele>292</ele><time>2022-01-16T01:12:35.000Z</time></trkpt><trkpt lat="39.94383" lon="-8.5643"><time>2022-01-16T01:12:45.000Z</time></trkpt><trkpt lat="39.94387" lon="-8.56434"><time>2022-01-16T01:12:55.000Z</time></trkpt><trkpt lat="39.94389" lon="-8.56437"><time>2022-01-16T01:13:05.000Z</time></trkpt><trkpt lat="39.94403" lon="-8.56446"><ele>291</ele><time>2022-01-16T01:13:15.000Z</time></trkpt><trkpt lat="39.94408" lon="-8.56457"><time>2022-01-16T01:13:25.000Z</time></trkpt><trkpt lat="39.94419" lon="-8.56471"><ele>291</ele><time>2022-01-16T01:13:35.000Z</time></trkpt><trkpt lat="39.94426" lon="-8.56481"><time>2022-01-16T01:13:45.000Z</time></trkpt><trkpt lat="39.94429" lon="-8.56495"><ele>290</ele><time>2022-01-16T01:13:55.000Z</time></trkpt><trkpt lat="39.94435" lon="-8.56508"><time>2022-01-16T01:14:05.000Z</time></trkpt><trkpt lat="39.9445" lon="-8.56537"><ele>285</ele><time>2022-01-16T01:16:52.000Z</time></trkpt><trkpt lat="39.94458" lon="-8.56546"><time>2022-01-16T01:17:02.000Z</time></trkpt><trkpt lat="39.94465" lon="-8.56559"><ele>277</ele><time>2022-01-16T01:17:12.000Z</time></trkpt><trkpt lat="39.94468" lon="-8.56564"><time>2022-01-16T01:17:22.000Z</time></trkpt><trkpt lat="39.94473" lon="-8.56577"><time>2022-01-16T01:17:32.000Z</time></trkpt><trkpt lat="39.94475" lon="-8.56592"><ele>277</ele><time>2022-01-16T01:18:06.000Z</time></trkpt><trkpt lat="39.9448" lon="-8.56605"><time>2022-01-16T01:18:16.000Z</time></trkpt><trkpt lat="39.94486" lon="-8.56622"><ele>274</ele><time>2022-01-16T01:18:36.000Z</time></trkpt><trkpt lat="39.94491" lon="-8.5663"><time>2022-01-16T01:18:46.000Z</time></trkpt><trkpt lat="39.94496" lon="-8.56636"><time>2022-01-16T01:18:56.000Z</time></trkpt><trkpt lat="39.94505" lon="-8.56642"><ele>272</ele><time>2022-01-16T01:19:36.000Z</time></trkpt><trkpt lat="39.9452" lon="-8.56657"><time>2022-01-16T01:19:46.000Z</time></trkpt><trkpt lat="39.94522" lon="-8.56657"><ele>264</ele><time>2022-01-16T01:19:56.000Z</time></trkpt><trkpt lat="39.94523" lon="-8.56656"><time>2022-01-16T01:20:06.000Z</time></trkpt><trkpt lat="39.94528" lon="-8.5664"><time>2022-01-16T01:20:16.000Z</time></trkpt><trkpt lat="39.9453" lon="-8.56629"><ele>263</ele><time>2022-01-16T01:20:26.000Z</time></trkpt><trkpt lat="39.94532" lon="-8.56603"><time>2022-01-16T01:20:36.000Z</time></trkpt><trkpt lat="39.94534" lon="-8.56595"><ele>262</ele><time>2022-01-16T01:20:46.000Z</time></trkpt><trkpt lat="39.94542" lon="-8.56575"><time>2022-01-16T01:20:56.000Z</time></trkpt><trkpt lat="39.94547" lon="-8.56546"><ele>262</ele><time>2022-01-16T01:21:06.000Z</time></trkpt><trkpt lat="39.94549" lon="-8.56526"><time>2022-01-16T01:21:16.000Z</time></trkpt><trkpt lat="39.94553" lon="-8.56497"><ele>249</ele><time>2022-01-16T01:21:26.000Z</time></trkpt><trkpt lat="39.94552" lon="-8.56485"><time>2022-01-16T01:21:36.000Z</time></trkpt><trkpt lat="39.94555" lon="-8.56475"><time>2022-01-16T01:21:46.000Z</time></trkpt><trkpt lat="39.94564" lon="-8.56444"><ele>246</ele><time>2022-01-16T01:21:56.000Z</time></trkpt><trkpt lat="39.94567" lon="-8.56428"><time>2022-01-16T01:22:06.000Z</time></trkpt><trkpt lat="39.94577" lon="-8.56378"><ele>232</ele><time>2022-01-16T01:22:16.000Z</time></trkpt><trkpt lat="39.94582" lon="-8.56366"><time>2022-01-16T01:22:26.000Z</time></trkpt><trkpt lat="39.94586" lon="-8.56359"><time>2022-01-16T01:22:36.000Z</time></trkpt><trkpt lat="39.94592" lon="-8.56342"><ele>229</ele><time>2022-01-16T01:22:46.000Z</time></trkpt><trkpt lat="39.94603" lon="-8.5632"><time>2022-01-16T01:22:56.000Z</time></trkpt><trkpt lat="39.94608" lon="-8.5631"><ele>225</ele><time>2022-01-16T01:23:06.000Z</time></trkpt><trkpt lat="39.94614" lon="-8.56295"><time>2022-01-16T01:23:16.000Z</time></trkpt><trkpt lat="39.94615" lon="-8.56289"><time>2022-01-16T01:23:26.000Z</time></trkpt><trkpt lat="39.9462" lon="-8.56281"><ele>222</ele><time>2022-01-16T01:23:36.000Z</time></trkpt><trkpt lat="39.94631" lon="-8.5626"><time>2022-01-16T01:23:46.000Z</time></trkpt><trkpt lat="39.94645" lon="-8.56245"><ele>214</ele><time>2022-01-16T01:23:56.000Z</time></trkpt><trkpt lat="39.94652" lon="-8.56241"><time>2022-01-16T01:24:06.000Z</time></trkpt><trkpt lat="39.94659" lon="-8.56241"><time>2022-01-16T01:24:16.000Z</time></trkpt><trkpt lat="39.94664" lon="-8.56243"><time>2022-01-16T01:24:26.000Z</time></trkpt><trkpt lat="39.94668" lon="-8.56245"><ele>213</ele><time>2022-01-16T01:24:36.000Z</time></trkpt><trkpt lat="39.94674" lon="-8.56245"><time>2022-01-16T01:24:46.000Z</time></trkpt><trkpt lat="39.94678" lon="-8.56237"><time>2022-01-16T01:24:56.000Z</time></trkpt><trkpt lat="39.94693" lon="-8.56223"><ele>215</ele><time>2022-01-16T01:33:39.000Z</time></trkpt><trkpt lat="39.94712" lon="-8.56203"><ele>218</ele><time>2022-01-16T01:34:09.000Z</time></trkpt><trkpt lat="39.94746" lon="-8.56172"><ele>221</ele><time>2022-01-16T01:34:19.000Z</time></trkpt><trkpt lat="39.94757" lon="-8.56163"><time>2022-01-16T01:34:29.000Z</time></trkpt><trkpt lat="39.9477" lon="-8.56158"><ele>223</ele><time>2022-01-16T01:34:39.000Z</time></trkpt><trkpt lat="39.94782" lon="-8.56151"><time>2022-01-16T01:34:49.000Z</time></trkpt><trkpt lat="39.94799" lon="-8.56139"><ele>223</ele><time>2022-01-16T01:34:59.000Z</time></trkpt><trkpt lat="39.9481" lon="-8.56132"><time>2022-01-16T01:35:09.000Z</time></trkpt><trkpt lat="39.94816" lon="-8.56134"><time>2022-01-16T01:35:19.000Z</time></trkpt><trkpt lat="39.94832" lon="-8.56146"><ele>223</ele><time>2022-01-16T01:36:57.000Z</time></trkpt><trkpt lat="39.94857" lon="-8.56167"><ele>223</ele><time>2022-01-16T01:37:07.000Z</time></trkpt><trkpt lat="39.94863" lon="-8.56171"><time>2022-01-16T01:37:17.000Z</time></trkpt><trkpt lat="39.94866" lon="-8.56172"><time>2022-01-16T01:37:27.000Z</time></trkpt><trkpt lat="39.94878" lon="-8.56179"><ele>223</ele><time>2022-01-16T01:37:37.000Z</time></trkpt><trkpt lat="39.94882" lon="-8.5618"><time>2022-01-16T01:37:47.000Z</time></trkpt><trkpt lat="39.94891" lon="-8.56185"><time>2022-01-16T01:37:57.000Z</time></trkpt><trkpt lat="39.9491" lon="-8.56189"><ele>226</ele><time>2022-01-16T01:38:07.000Z</time></trkpt><trkpt lat="39.9492" lon="-8.56193"><time>2022-01-16T01:38:17.000Z</time></trkpt><trkpt lat="39.94938" lon="-8.56205"><ele>229</ele><time>2022-01-16T01:38:27.000Z</time></trkpt><trkpt lat="39.94948" lon="-8.56208"><time>2022-01-16T01:38:37.000Z</time></trkpt><trkpt lat="39.94958" lon="-8.56213"><ele>236</ele><time>2022-01-16T01:38:47.000Z</time></trkpt><trkpt lat="39.94977" lon="-8.56224"><time>2022-01-16T01:38:57.000Z</time></trkpt><trkpt lat="39.94987" lon="-8.56229"><ele>242</ele><time>2022-01-16T01:39:07.000Z</time></trkpt><trkpt lat="39.94996" lon="-8.56231"><time>2022-01-16T01:39:17.000Z</time></trkpt><trkpt lat="39.95006" lon="-8.56232"><time>2022-01-16T01:39:27.000Z</time></trkpt><trkpt lat="39.95016" lon="-8.56236"><ele>243</ele><time>2022-01-16T01:39:37.000Z</time></trkpt><trkpt lat="39.95035" lon="-8.56243"><time>2022-01-16T01:39:47.000Z</time></trkpt><trkpt lat="39.95054" lon="-8.56244"><ele>240</ele><time>2022-01-16T01:39:57.000Z</time></trkpt><trkpt lat="39.95074" lon="-8.5624"><time>2022-01-16T01:40:07.000Z</time></trkpt><trkpt lat="39.9511" lon="-8.56228"><ele>238</ele><time>2022-01-16T01:45:23.000Z</time></trkpt><trkpt lat="39.95129" lon="-8.56224"><time>2022-01-16T01:45:33.000Z</time></trkpt><trkpt lat="39.95143" lon="-8.56217"><ele>235</ele><time>2022-01-16T01:45:54.000Z</time></trkpt><trkpt lat="39.95153" lon="-8.56204"><time>2022-01-16T01:46:04.000Z</time></trkpt><trkpt lat="39.95158" lon="-8.5619"><ele>235</ele><time>2022-01-16T01:46:25.000Z</time></trkpt><trkpt lat="39.95159" lon="-8.56163"><time>2022-01-16T01:46:35.000Z</time></trkpt><trkpt lat="39.95158" lon="-8.56155"><ele>234</ele><time>2022-01-16T01:46:56.000Z</time></trkpt><trkpt lat="39.95156" lon="-8.56133"><time>2022-01-16T01:47:06.000Z</time></trkpt><trkpt lat="39.95161" lon="-8.56109"><ele>233</ele><time>2022-01-16T01:47:27.000Z</time></trkpt><trkpt lat="39.95168" lon="-8.56088"><time>2022-01-16T01:47:37.000Z</time></trkpt><trkpt lat="39.95178" lon="-8.56083"><ele>233</ele><time>2022-01-16T01:48:29.000Z</time></trkpt><trkpt lat="39.95204" lon="-8.56076"><ele>232</ele><time>2022-01-16T01:49:32.000Z</time></trkpt><trkpt lat="39.95235" lon="-8.56082"><ele>232</ele><time>2022-01-16T01:50:34.000Z</time></trkpt><trkpt lat="39.95242" lon="-8.56078"><time>2022-01-16T01:50:44.000Z</time></trkpt><trkpt lat="39.95237" lon="-8.56078"><time>2022-01-16T01:50:54.000Z</time></trkpt><trkpt lat="39.95248" lon="-8.56072"><ele>232</ele><time>2022-01-16T01:51:04.000Z</time></trkpt><trkpt lat="39.95251" lon="-8.56069"><time>2022-01-16T01:51:14.000Z</time></trkpt><trkpt lat="39.95281" lon="-8.5605"><ele>238</ele><time>2022-01-16T01:51:24.000Z</time></trkpt><trkpt lat="39.95289" lon="-8.56048"><time>2022-01-16T01:51:34.000Z</time></trkpt><trkpt lat="39.95317" lon="-8.56045"><ele>240</ele><time>2022-01-16T08:41:22.000Z</time></trkpt><trkpt lat="39.95352" lon="-8.56044"><ele>246</ele><time>2022-01-16T08:41:40.000Z</time></trkpt><trkpt lat="39.95376" lon="-8.56046"><ele>246</ele><time>2022-01-16T08:41:52.000Z</time></trkpt><trkpt lat="39.95393" lon="-8.56044"><time>2022-01-16T08:42:02.000Z</time></trkpt><trkpt lat="39.95413" lon="-8.5604"><ele>249</ele><time>2022-01-16T08:42:10.000Z</time></trkpt><trkpt lat="39.95427" lon="-8.56032"><time>2022-01-16T08:42:20.000Z</time></trkpt><trkpt lat="39.9544" lon="-8.56017"><ele>250</ele><time>2022-01-16T08:42:25.000Z</time></trkpt><trkpt lat="39.95453" lon="-8.55995"><ele>252</ele><time>2022-01-16T08:42:35.000Z</time></trkpt><trkpt lat="39.95464" lon="-8.55976"><time>2022-01-16T08:42:45.000Z</time></trkpt><trkpt lat="39.95475" lon="-8.55954"><ele>252</ele><time>2022-01-16T08:42:55.000Z</time></trkpt><trkpt lat="39.95481" lon="-8.5594"><time>2022-01-16T08:43:05.000Z</time></trkpt><trkpt lat="39.95482" lon="-8.55938"><time>2022-01-16T08:43:15.000Z</time></trkpt><trkpt lat="39.95491" lon="-8.5593"><ele>254</ele><time>2022-01-16T08:43:25.000Z</time></trkpt><trkpt lat="39.95494" lon="-8.55928"><time>2022-01-16T08:43:35.000Z</time></trkpt><trkpt lat="39.95497" lon="-8.55931"><time>2022-01-16T08:43:45.000Z</time></trkpt><trkpt lat="39.95507" lon="-8.55941"><time>2022-01-16T08:43:55.000Z</time></trkpt><trkpt lat="39.95515" lon="-8.55947"><ele>254</ele><time>2022-01-16T08:44:05.000Z</time></trkpt><trkpt lat="39.95523" lon="-8.55944"><time>2022-01-16T08:44:15.000Z</time></trkpt><trkpt lat="39.95533" lon="-8.55937"><time>2022-01-16T08:44:25.000Z</time></trkpt><trkpt lat="39.95555" lon="-8.55935"><ele>259</ele><time>2022-01-16T08:44:35.000Z</time></trkpt><trkpt lat="39.9557" lon="-8.55937"><time>2022-01-16T08:44:45.000Z</time></trkpt><trkpt lat="39.95588" lon="-8.55936"><ele>264</ele><time>2022-01-16T08:44:55.000Z</time></trkpt><trkpt lat="39.95595" lon="-8.55936"><time>2022-01-16T08:45:05.000Z</time></trkpt><trkpt lat="39.95598" lon="-8.55936"><time>2022-01-16T08:45:15.000Z</time></trkpt><trkpt lat="39.95607" lon="-8.55941"><time>2022-01-16T08:45:25.000Z</time></trkpt><trkpt lat="39.95613" lon="-8.55943"><ele>264</ele><time>2022-01-16T08:45:35.000Z</time></trkpt><trkpt lat="39.95624" lon="-8.5594"><time>2022-01-16T08:45:45.000Z</time></trkpt><trkpt lat="39.95631" lon="-8.55939"><time>2022-01-16T08:45:55.000Z</time></trkpt><trkpt lat="39.95647" lon="-8.55942"><ele>264</ele><time>2022-01-16T08:44:43.000Z</time></trkpt><trkpt lat="39.95667" lon="-8.5594"><time>2022-01-16T08:44:53.000Z</time></trkpt><trkpt lat="39.95674" lon="-8.55938"><ele>266</ele><time>2022-01-16T08:44:58.000Z</time></trkpt><trkpt lat="39.95687" lon="-8.55929"><time>2022-01-16T08:45:08.000Z</time></trkpt><trkpt lat="39.95691" lon="-8.55925"><time>2022-01-16T08:45:18.000Z</time></trkpt><trkpt lat="39.95698" lon="-8.55918"><ele>268</ele><time>2022-01-16T08:45:11.000Z</time></trkpt><trkpt lat="39.95718" lon="-8.55903"><ele>270</ele><time>2022-01-16T08:45:21.000Z</time></trkpt><trkpt lat="39.95724" lon="-8.55897"><time>2022-01-16T08:45:31.000Z</time></trkpt><trkpt lat="39.95732" lon="-8.55886"><time>2022-01-16T08:45:41.000Z</time></trkpt><trkpt lat="39.9574" lon="-8.55881"><ele>273</ele><time>2022-01-16T08:45:51.000Z</time></trkpt><trkpt lat="39.9575" lon="-8.55879"><time>2022-01-16T08:46:01.000Z</time></trkpt><trkpt lat="39.95767" lon="-8.55879"><ele>275</ele><time>2022-01-16T08:46:11.000Z</time></trkpt><trkpt lat="39.95772" lon="-8.55877"><time>2022-01-16T08:46:21.000Z</time></trkpt><trkpt lat="39.95778" lon="-8.55875"><time>2022-01-16T08:46:31.000Z</time></trkpt><trkpt lat="39.95795" lon="-8.55861"><ele>282</ele><time>2022-01-16T08:46:41.000Z</time></trkpt><trkpt lat="39.95799" lon="-8.55856"><time>2022-01-16T08:46:51.000Z</time></trkpt><trkpt lat="39.95813" lon="-8.55836"><ele>285</ele><time>2022-01-16T08:47:01.000Z</time></trkpt><trkpt lat="39.95817" lon="-8.55831"><time>2022-01-16T08:47:11.000Z</time></trkpt><trkpt lat="39.95822" lon="-8.55828"><time>2022-01-16T08:47:21.000Z</time></trkpt><trkpt lat="39.95828" lon="-8.55828"><time>2022-01-16T08:47:31.000Z</time></trkpt><trkpt lat="39.9584" lon="-8.55831"><ele>286</ele><time>2022-02-26T09:04:13.000Z</time></trkpt><trkpt lat="39.95851" lon="-8.55832"><time>2022-02-26T09:04:23.000Z</time></trkpt><trkpt lat="39.95856" lon="-8.5583"><time>2022-02-26T09:04:33.000Z</time></trkpt><trkpt lat="39.95871" lon="-8.55829"><ele>283</ele><time>2022-02-26T09:04:25.000Z</time></trkpt><trkpt lat="39.95886" lon="-8.55825"><time>2022-02-26T09:04:35.000Z</time></trkpt><trkpt lat="39.95895" lon="-8.55819"><ele>283</ele><time>2022-02-26T09:04:35.000Z</time></trkpt><trkpt lat="39.95906" lon="-8.55807"><time>2022-02-26T09:04:45.000Z</time></trkpt><trkpt lat="39.95921" lon="-8.55789"><ele>284</ele><time>2022-02-26T09:04:50.000Z</time></trkpt><trkpt lat="39.95934" lon="-8.55768"><time>2022-02-26T09:05:00.000Z</time></trkpt><trkpt lat="39.9594" lon="-8.55758"><ele>285</ele><time>2022-02-26T09:05:03.000Z</time></trkpt><trkpt lat="39.95958" lon="-8.55735"><ele>285</ele><time>2022-02-26T09:05:13.000Z</time></trkpt><trkpt lat="39.95968" lon="-8.55725"><time>2022-02-26T09:05:23.000Z</time></trkpt><trkpt lat="39.95984" lon="-8.55707"><ele>283</ele><time>2022-02-26T09:05:33.000Z</time></trkpt><trkpt lat="39.95998" lon="-8.5569"><time>2022-02-26T09:05:43.000Z</time></trkpt><trkpt lat="39.96008" lon="-8.55673"><ele>281</ele><time>2022-02-26T09:05:53.000Z</time></trkpt><trkpt lat="39.96019" lon="-8.55658"><time>2022-02-26T09:06:03.000Z</time></trkpt><trkpt lat="39.96042" lon="-8.55632"><ele>278</ele><time>2022-02-26T09:06:05.000Z</time></trkpt><trkpt lat="39.96056" lon="-8.55613"><time>2022-02-26T09:06:15.000Z</time></trkpt><trkpt lat="39.96066" lon="-8.55598"><ele>270</ele><time>2022-02-26T09:06:19.000Z</time></trkpt><trkpt lat="39.96091" lon="-8.55553"><ele>267</ele><time>2022-02-26T09:06:37.000Z</time></trkpt><trkpt lat="39.96105" lon="-8.55531"><ele>264</ele><time>2022-02-26T09:06:46.000Z</time></trkpt><trkpt lat="39.96117" lon="-8.55508"><ele>261</ele><time>2022-02-26T09:06:56.000Z</time></trkpt><trkpt lat="39.96125" lon="-8.55499"><time>2022-02-26T09:07:06.000Z</time></trkpt><trkpt lat="39.96128" lon="-8.55494"><time>2022-02-26T09:07:16.000Z</time></trkpt><trkpt lat="39.96131" lon="-8.5549"><time>2022-02-26T09:07:26.000Z</time></trkpt><trkpt lat="39.96137" lon="-8.55489"><ele>264</ele><time>2022-02-26T09:07:36.000Z</time></trkpt><trkpt lat="39.96154" lon="-8.55499"><time>2022-02-26T09:07:46.000Z</time></trkpt><trkpt lat="39.96281" lon="-8.55586"><ele>265</ele><time>2022-02-26T09:07:56.000Z</time></trkpt><trkpt lat="39.96285" lon="-8.55591"><time>2022-02-26T09:08:06.000Z</time></trkpt><trkpt lat="39.96287" lon="-8.5559"><time>2022-02-26T09:08:16.000Z</time></trkpt><trkpt lat="39.96302" lon="-8.55597"><ele>266</ele><time>2022-02-26T09:08:26.000Z</time></trkpt><trkpt lat="39.96315" lon="-8.556"><time>2022-02-26T09:08:36.000Z</time></trkpt><trkpt lat="39.96321" lon="-8.55604"><time>2022-02-26T09:08:46.000Z</time></trkpt><trkpt lat="39.96328" lon="-8.55606"><ele>267</ele><time>2022-02-26T09:08:56.000Z</time></trkpt><trkpt lat="39.96332" lon="-8.55607"><time>2022-02-26T09:09:06.000Z</time></trkpt><trkpt lat="39.96341" lon="-8.55605"><time>2022-02-26T09:09:16.000Z</time></trkpt><trkpt lat="39.96353" lon="-8.55601"><ele>268</ele><time>2022-02-26T09:09:26.000Z</time></trkpt><trkpt lat="39.96359" lon="-8.55597"><time>2022-02-26T09:09:36.000Z</time></trkpt><trkpt lat="39.96361" lon="-8.55595"><time>2022-02-26T09:09:46.000Z</time></trkpt><trkpt lat="39.96364" lon="-8.5559"><time>2022-02-26T09:09:56.000Z</time></trkpt><trkpt lat="39.96369" lon="-8.55579"><ele>268</ele><time>2022-02-26T09:10:06.000Z</time></trkpt><trkpt lat="39.96372" lon="-8.55574"><time>2022-02-26T09:10:16.000Z</time></trkpt><trkpt lat="39.96377" lon="-8.55573"><time>2022-02-26T09:10:26.000Z</time></trkpt><trkpt lat="39.9638" lon="-8.55571"><time>2022-02-26T09:10:36.000Z</time></trkpt><trkpt lat="39.96388" lon="-8.55563"><ele>269</ele><time>2022-02-26T09:10:46.000Z</time></trkpt><trkpt lat="39.96399" lon="-8.55555"><time>2022-02-26T09:10:56.000Z</time></trkpt><trkpt lat="39.96408" lon="-8.55548"><ele>280</ele><time>2022-02-26T09:11:06.000Z</time></trkpt><trkpt lat="39.96413" lon="-8.5554"><time>2022-02-26T09:11:16.000Z</time></trkpt><trkpt lat="39.96422" lon="-8.55531"><time>2022-02-26T09:11:26.000Z</time></trkpt><trkpt lat="39.96432" lon="-8.55514"><ele>285</ele><time>2022-02-26T09:11:36.000Z</time></trkpt><trkpt lat="39.96441" lon="-8.55506"><time>2022-02-26T09:11:46.000Z</time></trkpt><trkpt lat="39.96445" lon="-8.55501"><time>2022-02-26T09:11:56.000Z</time></trkpt><trkpt lat="39.96447" lon="-8.55499"><time>2022-02-26T09:12:06.000Z</time></trkpt><trkpt lat="39.9645" lon="-8.55493"><ele>287</ele><time>2022-02-26T09:12:16.000Z</time></trkpt><trkpt lat="39.96463" lon="-8.55483"><time>2022-02-26T09:12:26.000Z</time></trkpt><trkpt lat="39.96467" lon="-8.5548"><time>2022-02-26T09:12:36.000Z</time></trkpt><trkpt lat="39.9647" lon="-8.55483"><ele>286</ele><time>2022-02-26T09:12:46.000Z</time></trkpt><trkpt lat="39.96475" lon="-8.55485"><time>2022-02-26T09:12:56.000Z</time></trkpt><trkpt lat="39.96481" lon="-8.55483"><time>2022-02-26T09:13:06.000Z</time></trkpt><trkpt lat="39.96486" lon="-8.55484"><time>2022-02-26T09:13:16.000Z</time></trkpt><trkpt lat="39.96494" lon="-8.55484"><ele>286</ele><time>2022-02-26T09:13:26.000Z</time></trkpt><trkpt lat="39.96501" lon="-8.55484"><time>2022-02-26T09:13:36.000Z</time></trkpt><trkpt lat="39.96505" lon="-8.55483"><time>2022-02-26T09:13:46.000Z</time></trkpt><trkpt lat="39.96511" lon="-8.55481"><time>2022-02-26T09:13:56.000Z</time></trkpt><trkpt lat="39.96514" lon="-8.5548"><time>2022-02-26T09:14:06.000Z</time></trkpt><trkpt lat="39.96522" lon="-8.55482"><ele>283</ele><time>2022-02-26T09:14:16.000Z</time></trkpt><trkpt lat="39.96527" lon="-8.55482"><time>2022-02-26T09:14:26.000Z</time></trkpt><trkpt lat="39.96534" lon="-8.55484"><time>2022-02-26T09:14:36.000Z</time></trkpt><trkpt lat="39.96541" lon="-8.55486"><time>2022-02-26T09:14:46.000Z</time></trkpt><trkpt lat="39.96557" lon="-8.55489"><ele>277</ele><time>2022-02-26T09:14:56.000Z</time></trkpt><trkpt lat="39.9657" lon="-8.55486"><time>2022-02-26T09:15:06.000Z</time></trkpt><trkpt lat="39.96576" lon="-8.55486"><time>2022-02-26T09:15:16.000Z</time></trkpt><trkpt lat="39.96586" lon="-8.55488"><ele>274</ele><time>2022-02-26T09:15:26.000Z</time></trkpt><trkpt lat="39.96593" lon="-8.55487"><time>2022-02-26T09:15:36.000Z</time></trkpt><trkpt lat="39.96599" lon="-8.55487"><time>2022-02-26T09:15:46.000Z</time></trkpt><trkpt lat="39.96605" lon="-8.55486"><time>2022-02-26T09:15:56.000Z</time></trkpt><trkpt lat="39.96616" lon="-8.55487"><ele>267</ele><time>2023-01-14T10:17:50.000Z</time></trkpt><trkpt lat="39.9663" lon="-8.55483"><time>2023-01-14T10:18:00.000Z</time></trkpt><trkpt lat="39.96637" lon="-8.55483"><ele>269</ele><time>2023-01-14T10:18:10.000Z</time></trkpt><trkpt lat="39.96645" lon="-8.55481"><time>2023-01-14T10:18:20.000Z</time></trkpt><trkpt lat="39.9666" lon="-8.55475"><ele>264</ele><time>2023-01-14T10:18:30.000Z</time></trkpt><trkpt lat="39.96676" lon="-8.55468"><time>2023-01-14T10:18:40.000Z</time></trkpt><trkpt lat="39.96698" lon="-8.55462"><ele>264</ele><time>2023-01-14T10:18:50.000Z</time></trkpt><trkpt lat="39.96708" lon="-8.55457"><time>2023-01-14T10:19:00.000Z</time></trkpt><trkpt lat="39.9673" lon="-8.5545"><ele>264</ele><time>2023-01-14T10:18:35.000Z</time></trkpt><trkpt lat="39.96756" lon="-8.55434"><ele>251</ele><time>2023-01-14T10:18:45.000Z</time></trkpt><trkpt lat="39.96763" lon="-8.55426"><time>2023-01-14T10:18:55.000Z</time></trkpt><trkpt lat="39.96779" lon="-8.55414"><ele>251</ele><time>2023-01-14T10:19:05.000Z</time></trkpt><trkpt lat="39.96782" lon="-8.55409"><time>2023-01-14T10:19:15.000Z</time></trkpt><trkpt lat="39.96786" lon="-8.55402"><time>2023-01-14T10:19:25.000Z</time></trkpt><trkpt lat="39.96793" lon="-8.55388"><ele>244</ele><time>2023-01-14T10:19:35.000Z</time></trkpt><trkpt lat="39.96801" lon="-8.55375"><time>2023-01-14T10:19:45.000Z</time></trkpt><trkpt lat="39.96801" lon="-8.5537"><time>2023-01-14T10:19:55.000Z</time></trkpt><trkpt lat="39.96804" lon="-8.55356"><ele>242</ele><time>2023-01-14T10:20:05.000Z</time></trkpt><trkpt lat="39.96804" lon="-8.55346"><time>2023-01-14T10:20:15.000Z</time></trkpt><trkpt lat="39.96805" lon="-8.55341"><time>2023-01-14T10:20:25.000Z</time></trkpt><trkpt lat="39.96806" lon="-8.55327"><ele>244</ele><time>2023-01-14T10:20:35.000Z</time></trkpt><trkpt lat="39.96808" lon="-8.55316"><time>2023-01-14T10:20:45.000Z</time></trkpt><trkpt lat="39.96809" lon="-8.55308"><time>2023-01-14T10:20:55.000Z</time></trkpt><trkpt lat="39.96811" lon="-8.55296"><ele>247</ele><time>2023-01-14T10:21:05.000Z</time></trkpt><trkpt lat="39.96812" lon="-8.55288"><time>2023-01-14T10:21:15.000Z</time></trkpt><trkpt lat="39.96813" lon="-8.55281"><time>2023-01-14T10:21:25.000Z</time></trkpt><trkpt lat="39.96813" lon="-8.5527"><time>2023-01-14T10:21:35.000Z</time></trkpt><trkpt lat="39.96813" lon="-8.55257"><ele>249</ele><time>2023-01-14T10:20:44.000Z</time></trkpt><trkpt lat="39.96813" lon="-8.55244"><time>2023-01-14T10:20:54.000Z</time></trkpt><trkpt lat="39.96813" lon="-8.55238"><time>2023-01-14T10:21:04.000Z</time></trkpt><trkpt lat="39.96814" lon="-8.55231"><time>2023-01-14T10:21:14.000Z</time></trkpt><trkpt lat="39.96813" lon="-8.55223"><ele>246</ele><time>2023-01-14T10:21:24.000Z</time></trkpt><trkpt lat="39.96813" lon="-8.55219"><time>2023-01-14T10:21:34.000Z</time></trkpt><trkpt lat="39.9682" lon="-8.55207"><time>2023-01-14T10:21:44.000Z</time></trkpt><trkpt lat="39.96825" lon="-8.55196"><ele>246</ele><time>2023-01-14T10:21:54.000Z</time></trkpt><trkpt lat="39.96832" lon="-8.55184"><time>2023-01-14T10:22:04.000Z</time></trkpt><trkpt lat="39.96838" lon="-8.55172"><ele>246</ele><time>2023-01-14T10:22:14.000Z</time></trkpt><trkpt lat="39.96843" lon="-8.55163"><time>2023-01-14T10:22:24.000Z</time></trkpt><trkpt lat="39.96846" lon="-8.55156"><time>2023-01-14T10:22:34.000Z</time></trkpt><trkpt lat="39.96849" lon="-8.5515"><time>2023-01-14T10:22:44.000Z</time></trkpt><trkpt lat="39.96851" lon="-8.55144"><ele>246</ele><time>2023-01-14T10:22:54.000Z</time></trkpt><trkpt lat="39.96849" lon="-8.55133"><time>2023-01-14T10:23:04.000Z</time></trkpt><trkpt lat="39.96851" lon="-8.5512"><time>2023-01-14T10:23:14.000Z</time></trkpt><trkpt lat="39.96852" lon="-8.55117"><ele>247</ele><time>2023-01-14T10:23:24.000Z</time></trkpt><trkpt lat="39.96856" lon="-8.55115"><time>2023-01-14T10:23:34.000Z</time></trkpt><trkpt lat="39.96862" lon="-8.55114"><time>2023-01-14T10:23:44.000Z</time></trkpt><trkpt lat="39.96866" lon="-8.55111"><time>2023-01-14T10:23:54.000Z</time></trkpt><trkpt lat="39.96867" lon="-8.55107"><time>2023-01-14T10:24:04.000Z</time></trkpt><trkpt lat="39.96867" lon="-8.55099"><ele>247</ele><time>2023-01-14T10:24:14.000Z</time></trkpt><trkpt lat="39.96868" lon="-8.55094"><time>2023-01-14T10:24:24.000Z</time></trkpt><trkpt lat="39.96868" lon="-8.5509"><time>2023-01-14T10:24:34.000Z</time></trkpt><trkpt lat="39.96868" lon="-8.55089"><time>2023-01-14T10:24:44.000Z</time></trkpt><trkpt lat="39.96867" lon="-8.55081"><time>2023-01-14T10:24:54.000Z</time></trkpt><trkpt lat="39.96867" lon="-8.5508"><time>2023-01-14T10:25:04.000Z</time></trkpt><trkpt lat="39.96867" lon="-8.5508"><time>2023-01-14T10:25:14.000Z</time></trkpt><trkpt lat="39.96867" lon="-8.55081"><time>2023-01-14T10:25:24.000Z</time></trkpt><trkpt lat="39.96867" lon="-8.5508"><time>2023-01-14T10:25:34.000Z</time></trkpt><trkpt lat="39.96865" lon="-8.55077"><ele>250</ele><time>2023-01-14T10:25:44.000Z</time></trkpt><trkpt lat="39.96865" lon="-8.55074"><time>2023-01-14T10:25:54.000Z</time></trkpt><trkpt lat="39.96864" lon="-8.55066"><time>2023-01-14T10:26:04.000Z</time></trkpt><trkpt lat="39.9686" lon="-8.55039"><ele>255</ele><time>2023-01-14T10:26:14.000Z</time></trkpt><trkpt lat="39.96861" lon="-8.55031"><time>2023-01-14T10:26:24.000Z</time></trkpt><trkpt lat="39.96863" lon="-8.5502"><time>2023-01-14T10:26:34.000Z</time></trkpt><trkpt lat="39.96866" lon="-8.55004"><ele>255</ele><time>2023-01-14T10:26:44.000Z</time></trkpt><trkpt lat="39.96867" lon="-8.55009"><time>2023-01-14T10:26:54.000Z</time></trkpt><trkpt lat="39.9687" lon="-8.55011"><time>2023-01-14T10:27:04.000Z</time></trkpt><trkpt lat="39.96873" lon="-8.55015"><time>2023-01-14T10:27:14.000Z</time></trkpt><trkpt lat="39.96874" lon="-8.5502"><time>2023-01-14T10:27:24.000Z</time></trkpt><trkpt lat="39.96878" lon="-8.55025"><ele>255</ele><time>2023-01-14T10:27:34.000Z</time></trkpt><trkpt lat="39.96882" lon="-8.55032"><time>2023-01-14T10:27:44.000Z</time></trkpt><trkpt lat="39.96883" lon="-8.55034"><time>2023-01-14T10:27:54.000Z</time></trkpt><trkpt lat="39.96883" lon="-8.55034"><time>2023-01-14T10:28:04.000Z</time></trkpt><trkpt lat="39.96883" lon="-8.55034"><time>2023-01-14T10:28:14.000Z</time></trkpt><trkpt lat="39.96883" lon="-8.55035"><time>2023-01-14T10:28:24.000Z</time></trkpt><trkpt lat="39.96887" lon="-8.55036"><time>2023-01-14T10:28:34.000Z</time></trkpt><trkpt lat="39.96888" lon="-8.55038"><time>2023-01-14T10:28:44.000Z</time></trkpt><trkpt lat="39.96891" lon="-8.55039"><time>2023-01-14T10:28:54.000Z</time></trkpt><trkpt lat="39.96892" lon="-8.55046"><ele>267</ele><time>2023-01-14T10:29:04.000Z</time></trkpt><trkpt lat="39.96895" lon="-8.55049"><time>2023-01-14T10:29:14.000Z</time></trkpt><trkpt lat="39.96896" lon="-8.55049"><time>2023-01-14T10:29:24.000Z</time></trkpt><trkpt lat="39.96894" lon="-8.55049"><time>2023-01-14T10:29:34.000Z</time></trkpt><trkpt lat="39.96895" lon="-8.5505"><time>2023-01-14T10:29:44.000Z</time></trkpt><trkpt lat="39.96899" lon="-8.55047"><time>2023-01-14T10:29:54.000Z</time></trkpt><trkpt lat="39.96902" lon="-8.55048"><time>2023-01-14T10:30:04.000Z</time></trkpt><trkpt lat="39.96903" lon="-8.55049"><time>2023-01-14T10:30:14.000Z</time></trkpt><trkpt lat="39.96903" lon="-8.55053"><time>2023-01-14T10:30:24.000Z</time></trkpt><trkpt lat="39.96906" lon="-8.55055"><ele>267</ele><time>2023-01-14T10:30:34.000Z</time></trkpt><trkpt lat="39.96913" lon="-8.5506"><time>2023-01-14T10:30:44.000Z</time></trkpt><trkpt lat="39.96917" lon="-8.55061"><time>2023-01-14T10:30:54.000Z</time></trkpt><trkpt lat="39.96916" lon="-8.55059"><time>2023-01-14T10:31:04.000Z</time></trkpt><trkpt lat="39.96915" lon="-8.5506"><time>2023-01-14T10:31:14.000Z</time></trkpt><trkpt lat="39.96916" lon="-8.55061"><time>2023-01-14T10:31:24.000Z</time></trkpt><trkpt lat="39.96915" lon="-8.55061"><time>2023-01-14T10:31:34.000Z</time></trkpt><trkpt lat="39.96916" lon="-8.55063"><time>2023-01-14T10:31:44.000Z</time></trkpt><trkpt lat="39.96918" lon="-8.55063"><ele>289</ele><time>2023-01-14T10:31:54.000Z</time></trkpt><trkpt lat="39.96921" lon="-8.55058"><time>2023-01-14T10:32:04.000Z</time></trkpt><trkpt lat="39.96923" lon="-8.55057"><time>2023-01-14T10:32:14.000Z</time></trkpt><trkpt lat="39.96927" lon="-8.55057"><time>2023-01-14T10:32:24.000Z</time></trkpt><trkpt lat="39.96927" lon="-8.55058"><time>2023-01-14T10:32:34.000Z</time></trkpt><trkpt lat="39.96926" lon="-8.55059"><time>2023-01-14T10:32:44.000Z</time></trkpt><trkpt lat="39.96925" lon="-8.55061"><time>2023-01-14T10:32:54.000Z</time></trkpt><trkpt lat="39.96926" lon="-8.55062"><time>2023-01-14T10:33:04.000Z</time></trkpt><trkpt lat="39.96929" lon="-8.55062"><time>2023-01-14T10:33:14.000Z</time></trkpt><trkpt lat="39.96933" lon="-8.55059"><ele>293</ele><time>2023-01-14T10:33:24.000Z</time></trkpt><trkpt lat="39.96936" lon="-8.55055"><time>2023-01-14T10:33:34.000Z</time></trkpt><trkpt lat="39.96937" lon="-8.55053"><time>2023-01-14T10:33:44.000Z</time></trkpt><trkpt lat="39.96937" lon="-8.55053"><time>2023-01-14T10:33:54.000Z</time></trkpt><trkpt lat="39.96938" lon="-8.55047"><time>2023-01-14T10:34:04.000Z</time></trkpt><trkpt lat="39.96939" lon="-8.55046"><time>2023-01-14T10:34:14.000Z</time></trkpt><trkpt lat="39.96942" lon="-8.55046"><time>2023-01-14T10:34:24.000Z</time></trkpt><trkpt lat="39.96946" lon="-8.55043"><ele>301</ele><time>2023-01-14T10:34:34.000Z</time></trkpt><trkpt lat="39.96947" lon="-8.55043"><time>2023-01-14T10:34:44.000Z</time></trkpt><trkpt lat="39.96947" lon="-8.55043"><time>2023-01-14T10:34:54.000Z</time></trkpt><trkpt lat="39.96949" lon="-8.55041"><time>2023-01-14T10:35:04.000Z</time></trkpt><trkpt lat="39.96951" lon="-8.55041"><time>2023-01-14T10:35:14.000Z</time></trkpt><trkpt lat="39.96954" lon="-8.55036"><time>2023-01-14T10:35:24.000Z</time></trkpt><trkpt lat="39.96957" lon="-8.55036"><time>2023-01-14T10:35:34.000Z</time></trkpt><trkpt lat="39.96957" lon="-8.55037"><time>2023-01-14T10:35:44.000Z</time></trkpt><trkpt lat="39.96956" lon="-8.55037"><time>2023-01-14T10:35:54.000Z</time></trkpt><trkpt lat="39.96957" lon="-8.55037"><time>2023-01-14T10:36:04.000Z</time></trkpt><trkpt lat="39.96957" lon="-8.55036"><time>2023-01-14T10:36:14.000Z</time></trkpt><trkpt lat="39.96955" lon="-8.55035"><time>2023-01-14T10:36:24.000Z</time></trkpt><trkpt lat="39.96956" lon="-8.55036"><time>2023-01-14T10:36:34.000Z</time></trkpt><trkpt lat="39.96955" lon="-8.55034"><time>2023-01-14T10:36:44.000Z</time></trkpt><trkpt lat="39.96955" lon="-8.55033"><ele>309</ele><time>2023-01-14T10:36:54.000Z</time></trkpt><trkpt lat="39.9696" lon="-8.55033"><time>2023-01-14T10:37:04.000Z</time></trkpt><trkpt lat="39.96961" lon="-8.55029"><time>2023-01-14T10:37:14.000Z</time></trkpt><trkpt lat="39.96962" lon="-8.55027"><time>2023-01-14T10:37:24.000Z</time></trkpt><trkpt lat="39.96962" lon="-8.55025"><time>2023-01-14T10:37:34.000Z</time></trkpt><trkpt lat="39.96962" lon="-8.55026"><time>2023-01-14T10:37:44.000Z</time></trkpt><trkpt lat="39.96964" lon="-8.55026"><time>2023-01-14T10:37:54.000Z</time></trkpt><trkpt lat="39.96962" lon="-8.55025"><time>2023-01-14T10:38:04.000Z</time></trkpt><trkpt lat="39.96963" lon="-8.5502"><time>2023-01-14T10:38:14.000Z</time></trkpt><trkpt lat="39.96965" lon="-8.55018"><ele>315</ele><time>2023-01-14T10:38:24.000Z</time></trkpt><trkpt lat="39.96966" lon="-8.55016"><time>2023-01-14T10:38:34.000Z</time></trkpt><trkpt lat="39.96965" lon="-8.55017"><time>2023-01-14T10:38:44.000Z</time></trkpt><trkpt lat="39.96965" lon="-8.55016"><time>2023-01-14T10:38:54.000Z</time></trkpt><trkpt lat="39.96965" lon="-8.55016"><time>2023-01-14T10:39:04.000Z</time></trkpt><trkpt lat="39.96964" lon="-8.55015"><time>2023-01-14T10:39:14.000Z</time></trkpt><trkpt lat="39.96965" lon="-8.55011"><time>2023-01-14T10:39:24.000Z</time></trkpt><trkpt lat="39.96965" lon="-8.5501"><time>2023-01-14T10:39:34.000Z</time></trkpt><trkpt lat="39.96967" lon="-8.5501"><time>2023-01-14T10:39:44.000Z</time></trkpt><trkpt lat="39.96967" lon="-8.55009"><time>2023-01-14T10:39:54.000Z</time></trkpt><trkpt lat="39.96966" lon="-8.55009"><time>2023-01-14T10:40:04.000Z</time></trkpt><trkpt lat="39.96967" lon="-8.55007"><time>2023-01-14T10:40:14.000Z</time></trkpt><trkpt lat="39.96967" lon="-8.55007"><time>2023-01-14T10:40:24.000Z</time></trkpt><trkpt lat="39.96968" lon="-8.55005"><time>2023-01-14T10:40:34.000Z</time></trkpt><trkpt lat="39.96969" lon="-8.55006"><time>2023-01-14T10:40:44.000Z</time></trkpt><trkpt lat="39.96969" lon="-8.55006"><time>2023-01-14T10:40:54.000Z</time></trkpt><trkpt lat="39.9697" lon="-8.55005"><time>2023-01-14T10:41:04.000Z</time></trkpt><trkpt lat="39.9697" lon="-8.55005"><time>2023-01-14T10:41:14.000Z</time></trkpt><trkpt lat="39.96972" lon="-8.54999"><ele>317</ele><time>2023-01-14T10:41:24.000Z</time></trkpt><trkpt lat="39.96974" lon="-8.54996"><time>2023-01-14T10:41:34.000Z</time></trkpt><trkpt lat="39.96974" lon="-8.54994"><time>2023-01-14T10:41:44.000Z</time></trkpt><trkpt lat="39.96975" lon="-8.5499"><time>2023-01-14T10:41:54.000Z</time></trkpt><trkpt lat="39.96975" lon="-8.54989"><time>2023-01-14T10:42:04.000Z</time></trkpt><trkpt lat="39.96975" lon="-8.54984"><time>2023-01-14T10:42:14.000Z</time></trkpt><trkpt lat="39.96975" lon="-8.5498"><time>2023-01-14T10:42:24.000Z</time></trkpt><trkpt lat="39.96976" lon="-8.54979"><time>2023-01-14T10:42:34.000Z</time></trkpt><trkpt lat="39.96976" lon="-8.54975"><time>2023-01-14T10:42:44.000Z</time></trkpt><trkpt lat="39.96976" lon="-8.54975"><time>2023-01-14T10:42:54.000Z</time></trkpt><trkpt lat="39.96976" lon="-8.54974"><ele>319</ele><time>2023-01-14T10:43:04.000Z</time></trkpt><trkpt lat="39.96976" lon="-8.54969"><time>2023-01-14T10:43:14.000Z</time></trkpt><trkpt lat="39.96975" lon="-8.54969"><time>2023-01-14T10:43:24.000Z</time></trkpt><trkpt lat="39.96975" lon="-8.54969"><time>2023-01-14T10:43:34.000Z</time></trkpt><trkpt lat="39.96972" lon="-8.54967"><time>2023-01-14T10:43:44.000Z</time></trkpt><trkpt lat="39.96972" lon="-8.54965"><time>2023-01-14T10:43:54.000Z</time></trkpt><trkpt lat="39.96971" lon="-8.54964"><time>2023-01-14T10:44:04.000Z</time></trkpt><trkpt lat="39.96974" lon="-8.54964"><time>2023-01-14T10:44:14.000Z</time></trkpt><trkpt lat="39.96975" lon="-8.54966"><time>2023-01-14T10:44:24.000Z</time></trkpt><trkpt lat="39.96974" lon="-8.54959"><ele>319</ele><time>2023-01-14T10:44:34.000Z</time></trkpt><trkpt lat="39.96972" lon="-8.5496"><time>2023-01-14T10:44:44.000Z</time></trkpt><trkpt lat="39.96972" lon="-8.5496"><time>2023-01-14T10:44:54.000Z</time></trkpt><trkpt lat="39.96972" lon="-8.54956"><time>2023-01-14T10:45:04.000Z</time></trkpt><trkpt lat="39.96971" lon="-8.54956"><time>2023-01-14T10:45:14.000Z</time></trkpt><trkpt lat="39.96971" lon="-8.54955"><time>2023-01-14T10:45:24.000Z</time></trkpt><trkpt lat="39.96971" lon="-8.54954"><time>2023-01-14T10:45:34.000Z</time></trkpt><trkpt lat="39.96968" lon="-8.5495"><time>2023-01-14T10:45:44.000Z</time></trkpt><trkpt lat="39.96968" lon="-8.5495"><time>2023-01-14T10:45:54.000Z</time></trkpt><trkpt lat="39.96969" lon="-8.5495"><time>2023-01-14T10:46:04.000Z</time></trkpt><trkpt lat="39.96969" lon="-8.54949"><time>2023-01-14T10:46:14.000Z</time></trkpt><trkpt lat="39.96968" lon="-8.54948"><time>2023-01-14T10:46:24.000Z</time></trkpt><trkpt lat="39.96968" lon="-8.54947"><time>2023-01-14T10:46:34.000Z</time></trkpt><trkpt lat="39.96968" lon="-8.54946"><time>2023-01-14T10:46:44.000Z</time></trkpt><trkpt lat="39.96968" lon="-8.54945"><time>2023-01-14T10:46:54.000Z</time></trkpt><trkpt lat="39.96969" lon="-8.54944"><time>2023-01-14T10:47:04.000Z</time></trkpt><trkpt lat="39.96968" lon="-8.54944"><time>2023-01-14T10:47:14.000Z</time></trkpt><trkpt lat="39.96969" lon="-8.54943"><time>2023-01-14T10:47:24.000Z</time></trkpt><trkpt lat="39.96969" lon="-8.54943"><time>2023-01-14T10:47:34.000Z</time></trkpt><trkpt lat="39.9697" lon="-8.54938"><ele>321</ele><time>2023-01-14T10:47:44.000Z</time></trkpt><trkpt lat="39.9697" lon="-8.54938"><time>2023-01-14T10:47:54.000Z</time></trkpt><trkpt lat="39.96971" lon="-8.54935"><time>2023-01-14T10:48:04.000Z</time></trkpt><trkpt lat="39.96974" lon="-8.54933"><time>2023-01-14T10:48:14.000Z</time></trkpt><trkpt lat="39.96975" lon="-8.54931"><time>2023-01-14T10:48:24.000Z</time></trkpt><trkpt lat="39.96976" lon="-8.54931"><time>2023-01-14T10:48:34.000Z</time></trkpt><trkpt lat="39.96978" lon="-8.5493"><time>2023-01-14T10:48:44.000Z</time></trkpt><trkpt lat="39.9698" lon="-8.54927"><time>2023-01-14T10:48:54.000Z</time></trkpt><trkpt lat="39.96985" lon="-8.54924"><time>2023-01-14T10:49:04.000Z</time></trkpt><trkpt lat="39.96988" lon="-8.54921"><ele>326</ele><time>2023-01-14T10:49:14.000Z</time></trkpt><trkpt lat="39.96989" lon="-8.54921"><time>2023-01-14T10:49:24.000Z</time></trkpt><trkpt lat="39.96989" lon="-8.54922"><time>2023-01-14T10:49:34.000Z</time></trkpt><trkpt lat="39.96994" lon="-8.54918"><time>2023-01-14T10:49:44.000Z</time></trkpt><trkpt lat="39.96998" lon="-8.54912"><time>2023-01-14T10:49:54.000Z</time></trkpt><trkpt lat="39.96998" lon="-8.54912"><time>2023-01-14T10:50:04.000Z</time></trkpt><trkpt lat="39.97002" lon="-8.5491"><time>2023-01-14T10:50:14.000Z</time></trkpt><trkpt lat="39.97007" lon="-8.5491"><ele>339</ele><time>2023-01-14T10:50:24.000Z</time></trkpt><trkpt lat="39.97012" lon="-8.54904"><time>2023-01-14T10:50:34.000Z</time></trkpt><trkpt lat="39.97015" lon="-8.54903"><time>2023-01-14T10:50:44.000Z</time></trkpt><trkpt lat="39.97016" lon="-8.549"><time>2023-01-14T10:50:54.000Z</time></trkpt><trkpt lat="39.97018" lon="-8.549"><time>2023-01-14T10:51:04.000Z</time></trkpt><trkpt lat="39.97024" lon="-8.54897"><time>2023-01-14T10:51:14.000Z</time></trkpt><trkpt lat="39.97027" lon="-8.54899"><ele>351</ele><time>2023-01-14T10:51:24.000Z</time></trkpt><trkpt lat="39.97031" lon="-8.54898"><time>2023-01-14T10:51:34.000Z</time></trkpt><trkpt lat="39.97034" lon="-8.54899"><time>2023-01-14T10:51:44.000Z</time></trkpt><trkpt lat="39.97037" lon="-8.54898"><time>2023-01-14T10:51:54.000Z</time></trkpt><trkpt lat="39.9704" lon="-8.54893"><time>2023-01-14T10:52:04.000Z</time></trkpt><trkpt lat="39.97049" lon="-8.54892"><ele>351</ele><time>2023-01-14T10:52:14.000Z</time></trkpt><trkpt lat="39.97048" lon="-8.54892"><time>2023-01-14T10:52:24.000Z</time></trkpt><trkpt lat="39.97052" lon="-8.54895"><time>2023-01-14T10:52:34.000Z</time></trkpt><trkpt lat="39.97053" lon="-8.54894"><time>2023-01-14T10:52:44.000Z</time></trkpt><trkpt lat="39.97056" lon="-8.54897"><time>2023-01-14T10:52:54.000Z</time></trkpt><trkpt lat="39.97056" lon="-8.54897"><time>2023-01-14T10:53:04.000Z</time></trkpt><trkpt lat="39.97057" lon="-8.54896"><time>2023-01-14T10:53:14.000Z</time></trkpt><trkpt lat="39.97062" lon="-8.54895"><time>2023-01-14T10:53:24.000Z</time></trkpt><trkpt lat="39.97067" lon="-8.54897"><ele>359</ele><time>2023-01-14T10:53:34.000Z</time></trkpt><trkpt lat="39.97068" lon="-8.54897"><time>2023-01-14T10:53:44.000Z</time></trkpt><trkpt lat="39.9707" lon="-8.54898"><time>2023-01-14T10:53:54.000Z</time></trkpt><trkpt lat="39.97073" lon="-8.54902"><time>2023-01-14T10:54:04.000Z</time></trkpt><trkpt lat="39.97078" lon="-8.54906"><time>2023-01-14T10:54:14.000Z</time></trkpt><trkpt lat="39.9708" lon="-8.54906"><time>2023-01-14T10:54:24.000Z</time></trkpt><trkpt lat="39.97081" lon="-8.54905"><time>2023-01-14T10:54:34.000Z</time></trkpt><trkpt lat="39.97083" lon="-8.54906"><time>2023-01-14T10:54:44.000Z</time></trkpt><trkpt lat="39.97084" lon="-8.54904"><time>2023-01-14T10:54:54.000Z</time></trkpt><trkpt lat="39.97085" lon="-8.549"><ele>362</ele><time>2023-01-14T10:55:04.000Z</time></trkpt><trkpt lat="39.97085" lon="-8.549"><time>2023-01-14T10:55:14.000Z</time></trkpt><trkpt lat="39.97085" lon="-8.54898"><time>2023-01-14T10:55:24.000Z</time></trkpt><trkpt lat="39.97087" lon="-8.54893"><time>2023-01-14T10:55:34.000Z</time></trkpt><trkpt lat="39.97091" lon="-8.54892"><time>2023-01-14T10:55:44.000Z</time></trkpt><trkpt lat="39.97094" lon="-8.54893"><time>2023-01-14T10:55:54.000Z</time></trkpt><trkpt lat="39.97107" lon="-8.54898"><ele>371</ele><time>2023-01-14T10:56:04.000Z</time></trkpt><trkpt lat="39.9711" lon="-8.54896"><time>2023-01-14T10:56:14.000Z</time></trkpt><trkpt lat="39.97113" lon="-8.54894"><time>2023-01-14T10:56:24.000Z</time></trkpt><trkpt lat="39.97119" lon="-8.54878"><time>2023-01-14T10:56:34.000Z</time></trkpt><trkpt lat="39.97122" lon="-8.54875"><ele>371</ele><time>2023-01-14T10:56:44.000Z</time></trkpt><trkpt lat="39.97123" lon="-8.54872"><time>2023-01-14T10:56:54.000Z</time></trkpt><trkpt lat="39.97123" lon="-8.54866"><time>2023-01-14T10:57:04.000Z</time></trkpt><trkpt lat="39.97122" lon="-8.54856"><time>2023-01-14T10:57:14.000Z</time></trkpt><trkpt lat="39.97123" lon="-8.54847"><ele>373</ele><time>2023-01-14T10:57:24.000Z</time></trkpt><trkpt lat="39.97124" lon="-8.54845"><time>2023-01-14T10:57:34.000Z</time></trkpt><trkpt lat="39.97127" lon="-8.5484"><time>2023-01-14T10:57:44.000Z</time></trkpt><trkpt lat="39.97128" lon="-8.54836"><time>2023-01-14T10:57:54.000Z</time></trkpt><trkpt lat="39.9713" lon="-8.54832"><time>2023-01-14T10:58:04.000Z</time></trkpt><trkpt lat="39.97131" lon="-8.54828"><time>2023-01-14T10:58:14.000Z</time></trkpt><trkpt lat="39.97132" lon="-8.54824"><time>2023-01-14T10:58:24.000Z</time></trkpt><trkpt lat="39.97133" lon="-8.54813"><ele>378</ele><time>2023-01-14T10:58:34.000Z</time></trkpt><trkpt lat="39.97134" lon="-8.54809"><time>2023-01-14T10:58:44.000Z</time></trkpt><trkpt lat="39.97134" lon="-8.54803"><time>2023-01-14T10:58:54.000Z</time></trkpt><trkpt lat="39.97136" lon="-8.54796"><time>2023-01-14T10:59:04.000Z</time></trkpt><trkpt lat="39.97137" lon="-8.54783"><ele>384</ele><time>2023-01-14T10:59:14.000Z</time></trkpt><trkpt lat="39.97137" lon="-8.54779"><time>2023-01-14T10:59:24.000Z</time></trkpt><trkpt lat="39.97138" lon="-8.54774"><time>2023-01-14T10:59:34.000Z</time></trkpt><trkpt lat="39.97138" lon="-8.54771"><time>2023-01-14T10:59:44.000Z</time></trkpt><trkpt lat="39.97139" lon="-8.54768"><time>2023-01-14T10:59:54.000Z</time></trkpt><trkpt lat="39.9714" lon="-8.54766"><time>2023-01-14T11:00:04.000Z</time></trkpt><trkpt lat="39.97141" lon="-8.54755"><ele>387</ele><time>2023-01-14T11:00:14.000Z</time></trkpt><trkpt lat="39.97144" lon="-8.54746"><time>2023-01-14T11:00:24.000Z</time></trkpt><trkpt lat="39.97144" lon="-8.54741"><time>2023-01-14T11:00:34.000Z</time></trkpt><trkpt lat="39.97141" lon="-8.54733"><time>2023-01-14T11:00:44.000Z</time></trkpt><trkpt lat="39.97137" lon="-8.5472"><ele>389</ele><time>2023-01-14T11:00:54.000Z</time></trkpt><trkpt lat="39.97136" lon="-8.54713"><time>2023-01-14T11:01:04.000Z</time></trkpt><trkpt lat="39.97137" lon="-8.54706"><time>2023-01-14T11:01:14.000Z</time></trkpt><trkpt lat="39.9715" lon="-8.54662"><ele>389</ele><time>2023-01-14T11:50:26.000Z</time></trkpt><trkpt lat="39.97153" lon="-8.54654"><time>2023-01-14T11:50:36.000Z</time></trkpt><trkpt lat="39.97161" lon="-8.54638"><ele>390</ele><time>2023-01-14T11:50:46.000Z</time></trkpt><trkpt lat="39.97163" lon="-8.54633"><time>2023-01-14T11:50:56.000Z</time></trkpt><trkpt lat="39.97164" lon="-8.54626"><time>2023-01-14T11:51:06.000Z</time></trkpt><trkpt lat="39.97163" lon="-8.54601"><ele>390</ele><time>2023-01-14T11:51:08.000Z</time></trkpt><trkpt lat="39.9717" lon="-8.54583"><time>2023-01-14T11:51:18.000Z</time></trkpt><trkpt lat="39.97171" lon="-8.54579"><time>2023-01-14T11:51:28.000Z</time></trkpt><trkpt lat="39.97172" lon="-8.54571"><ele>390</ele><time>2023-01-14T11:51:38.000Z</time></trkpt><trkpt lat="39.97171" lon="-8.54564"><time>2023-01-14T11:51:48.000Z</time></trkpt><trkpt lat="39.97167" lon="-8.54559"><time>2023-01-14T11:51:58.000Z</time></trkpt><trkpt lat="39.97165" lon="-8.54554"><time>2023-01-14T11:52:08.000Z</time></trkpt><trkpt lat="39.97162" lon="-8.54549"><time>2023-01-14T11:52:18.000Z</time></trkpt><trkpt lat="39.97156" lon="-8.54543"><ele>389</ele><time>2023-01-14T11:51:46.000Z</time></trkpt><trkpt lat="39.97147" lon="-8.54526"><time>2023-01-14T11:51:56.000Z</time></trkpt><trkpt lat="39.97147" lon="-8.54522"><time>2023-01-14T11:52:06.000Z</time></trkpt><trkpt lat="39.97151" lon="-8.5451"><ele>388</ele><time>2023-01-14T11:52:05.000Z</time></trkpt><trkpt lat="39.97154" lon="-8.54491"><time>2023-01-14T11:52:15.000Z</time></trkpt><trkpt lat="39.97154" lon="-8.54487"><time>2023-01-14T11:52:25.000Z</time></trkpt><trkpt lat="39.97152" lon="-8.54471"><ele>385</ele><time>2023-01-14T11:52:35.000Z</time></trkpt><trkpt lat="39.97151" lon="-8.54466"><time>2023-01-14T11:52:45.000Z</time></trkpt><trkpt lat="39.97147" lon="-8.54458"><time>2023-01-14T11:52:55.000Z</time></trkpt><trkpt lat="39.97141" lon="-8.54451"><time>2023-01-14T11:53:05.000Z</time></trkpt><trkpt lat="39.97141" lon="-8.54447"><ele>385</ele><time>2023-01-14T11:53:15.000Z</time></trkpt><trkpt lat="39.97142" lon="-8.54448"><time>2023-01-14T11:53:25.000Z</time></trkpt><trkpt lat="39.97141" lon="-8.5445"><time>2023-01-14T11:53:35.000Z</time></trkpt><trkpt lat="39.9714" lon="-8.54451"><time>2023-01-14T11:53:45.000Z</time></trkpt><trkpt lat="39.97139" lon="-8.5445"><time>2023-01-14T11:53:55.000Z</time></trkpt><trkpt lat="39.97133" lon="-8.54442"><time>2023-01-14T11:54:05.000Z</time></trkpt><trkpt lat="39.97126" lon="-8.54432"><ele>383</ele><time>2023-01-14T11:54:15.000Z</time></trkpt><trkpt lat="39.97125" lon="-8.54425"><time>2023-01-14T11:54:25.000Z</time></trkpt><trkpt lat="39.97125" lon="-8.54421"><time>2023-01-14T11:54:35.000Z</time></trkpt><trkpt lat="39.97127" lon="-8.54408"><time>2023-01-14T11:54:45.000Z</time></trkpt><trkpt lat="39.97128" lon="-8.54396"><ele>381</ele><time>2023-01-14T11:54:05.000Z</time></trkpt><trkpt lat="39.9713" lon="-8.54384"><time>2023-01-14T11:54:15.000Z</time></trkpt><trkpt lat="39.97129" lon="-8.54375"><time>2023-01-14T11:54:25.000Z</time></trkpt><trkpt lat="39.97127" lon="-8.54371"><time>2023-01-14T11:54:35.000Z</time></trkpt><trkpt lat="39.97123" lon="-8.54367"><ele>377</ele><time>2023-01-14T11:54:26.000Z</time></trkpt><trkpt lat="39.9711" lon="-8.54361"><time>2023-01-14T11:54:36.000Z</time></trkpt><trkpt lat="39.97107" lon="-8.54357"><time>2023-01-14T11:54:46.000Z</time></trkpt><trkpt lat="39.97107" lon="-8.54354"><time>2023-01-14T11:54:56.000Z</time></trkpt><trkpt lat="39.97108" lon="-8.54354"><time>2023-01-14T11:55:06.000Z</time></trkpt><trkpt lat="39.97116" lon="-8.54353"><ele>377</ele><time>2023-01-14T11:54:49.000Z</time></trkpt><trkpt lat="39.9712" lon="-8.54351"><time>2023-01-14T11:54:59.000Z</time></trkpt><trkpt lat="39.97123" lon="-8.54342"><time>2023-01-14T11:55:09.000Z</time></trkpt><trkpt lat="39.97124" lon="-8.54328"><ele>373</ele><time>2023-01-14T11:55:08.000Z</time></trkpt><trkpt lat="39.97128" lon="-8.54309"><time>2023-01-14T11:55:18.000Z</time></trkpt><trkpt lat="39.97121" lon="-8.54296"><ele>368</ele><time>2023-01-14T11:55:28.000Z</time></trkpt><trkpt lat="39.9712" lon="-8.54293"><time>2023-01-14T11:55:38.000Z</time></trkpt><trkpt lat="39.97118" lon="-8.54283"><time>2023-01-14T11:55:48.000Z</time></trkpt><trkpt lat="39.97114" lon="-8.54273"><time>2023-01-14T11:55:58.000Z</time></trkpt><trkpt lat="39.97113" lon="-8.5426"><ele>363</ele><time>2023-01-14T11:55:50.000Z</time></trkpt><trkpt lat="39.97109" lon="-8.54241"><time>2023-01-14T11:56:00.000Z</time></trkpt><trkpt lat="39.97107" lon="-8.54236"><time>2023-01-14T11:56:10.000Z</time></trkpt><trkpt lat="39.97106" lon="-8.54231"><ele>359</ele><time>2023-01-14T11:56:20.000Z</time></trkpt><trkpt lat="39.97108" lon="-8.54227"><time>2023-01-14T11:56:30.000Z</time></trkpt><trkpt lat="39.97114" lon="-8.5422"><time>2023-01-14T11:56:40.000Z</time></trkpt><trkpt lat="39.97117" lon="-8.54213"><time>2023-01-14T11:56:50.000Z</time></trkpt><trkpt lat="39.97119" lon="-8.54211"><time>2023-01-14T11:57:00.000Z</time></trkpt><trkpt lat="39.97122" lon="-8.54206"><ele>355</ele><time>2023-01-14T11:57:10.000Z</time></trkpt><trkpt lat="39.97125" lon="-8.54203"><time>2023-01-14T11:57:20.000Z</time></trkpt><trkpt lat="39.97143" lon="-8.54176"><ele>347</ele><time>2023-01-14T11:57:30.000Z</time></trkpt><trkpt lat="39.97148" lon="-8.54164"><time>2023-01-14T11:57:40.000Z</time></trkpt><trkpt lat="39.97153" lon="-8.54158"><time>2023-01-14T11:57:50.000Z</time></trkpt><trkpt lat="39.97157" lon="-8.54151"><ele>347</ele><time>2023-01-14T11:58:00.000Z</time></trkpt><trkpt lat="39.97164" lon="-8.54135"><time>2023-01-14T11:58:10.000Z</time></trkpt><trkpt lat="39.97169" lon="-8.54127"><ele>344</ele><time>2023-01-14T11:58:20.000Z</time></trkpt><trkpt lat="39.97174" lon="-8.54113"><time>2023-01-14T11:58:30.000Z</time></trkpt><trkpt lat="39.97176" lon="-8.5411"><time>2023-01-14T11:58:40.000Z</time></trkpt><trkpt lat="39.97184" lon="-8.54104"><ele>343</ele><time>2023-01-14T11:58:50.000Z</time></trkpt><trkpt lat="39.9719" lon="-8.54101"><time>2023-01-14T11:59:00.000Z</time></trkpt><trkpt lat="39.97193" lon="-8.54101"><time>2023-01-14T11:59:10.000Z</time></trkpt><trkpt lat="39.97198" lon="-8.54103"><time>2023-01-14T11:59:20.000Z</time></trkpt><trkpt lat="39.97201" lon="-8.54106"><time>2023-01-14T11:59:30.000Z</time></trkpt><trkpt lat="39.9721" lon="-8.54108"><ele>341</ele><time>2023-01-14T11:59:40.000Z</time></trkpt><trkpt lat="39.97217" lon="-8.54114"><time>2023-01-14T11:59:50.000Z</time></trkpt><trkpt lat="39.97225" lon="-8.54115"><time>2023-01-14T12:00:00.000Z</time></trkpt><trkpt lat="39.97235" lon="-8.54121"><ele>340</ele><time>2023-01-14T12:00:10.000Z</time></trkpt><trkpt lat="39.9724" lon="-8.54122"><time>2023-01-14T12:00:20.000Z</time></trkpt><trkpt lat="39.97249" lon="-8.54123"><time>2023-01-14T12:00:30.000Z</time></trkpt><trkpt lat="39.97263" lon="-8.54127"><ele>338</ele><time>2023-01-14T11:58:40.000Z</time></trkpt><trkpt lat="39.97275" lon="-8.54132"><time>2023-01-14T11:58:50.000Z</time></trkpt><trkpt lat="39.9728" lon="-8.54136"><time>2023-01-14T11:59:00.000Z</time></trkpt><trkpt lat="39.97291" lon="-8.54149"><ele>336</ele><time>2023-01-14T11:59:03.000Z</time></trkpt><trkpt lat="39.97308" lon="-8.54173"><ele>337</ele><time>2023-01-14T11:59:13.000Z</time></trkpt><trkpt lat="39.97314" lon="-8.54179"><time>2023-01-14T11:59:23.000Z</time></trkpt><trkpt lat="39.97317" lon="-8.5418"><time>2023-01-14T11:59:33.000Z</time></trkpt><trkpt lat="39.9732" lon="-8.5418"><time>2023-01-14T11:59:43.000Z</time></trkpt><trkpt lat="39.97324" lon="-8.54176"><time>2023-01-14T11:59:53.000Z</time></trkpt><trkpt lat="39.97332" lon="-8.54159"><ele>337</ele><time>2023-01-14T12:00:03.000Z</time></trkpt><trkpt lat="39.97338" lon="-8.54153"><time>2023-01-14T12:00:13.000Z</time></trkpt><trkpt lat="39.97341" lon="-8.54148"><time>2023-01-14T12:00:23.000Z</time></trkpt><trkpt lat="39.97345" lon="-8.54143"><time>2023-01-14T12:00:33.000Z</time></trkpt><trkpt lat="39.97359" lon="-8.5413"><ele>337</ele><time>2023-01-14T12:00:15.000Z</time></trkpt><trkpt lat="39.97367" lon="-8.54129"><time>2023-01-14T12:00:25.000Z</time></trkpt><trkpt lat="39.97371" lon="-8.54126"><time>2023-01-14T12:00:35.000Z</time></trkpt><trkpt lat="39.97379" lon="-8.54124"><time>2023-01-14T12:00:45.000Z</time></trkpt><trkpt lat="39.97381" lon="-8.54125"><ele>332</ele><time>2023-01-14T12:00:39.000Z</time></trkpt><trkpt lat="39.97387" lon="-8.54123"><time>2023-01-14T12:00:49.000Z</time></trkpt><trkpt lat="39.97403" lon="-8.54126"><ele>332</ele><time>2023-01-14T12:00:57.000Z</time></trkpt><trkpt lat="39.97414" lon="-8.54126"><time>2023-01-14T12:01:07.000Z</time></trkpt><trkpt lat="39.97425" lon="-8.54131"><ele>331</ele><time>2023-01-14T12:01:14.000Z</time></trkpt><trkpt lat="39.97433" lon="-8.54133"><time>2023-01-14T12:01:24.000Z</time></trkpt><trkpt lat="39.97447" lon="-8.54143"><ele>330</ele><time>2023-01-14T12:01:34.000Z</time></trkpt><trkpt lat="39.97451" lon="-8.54143"><time>2023-01-14T12:01:44.000Z</time></trkpt><trkpt lat="39.97457" lon="-8.54141"><time>2023-01-14T12:01:54.000Z</time></trkpt><trkpt lat="39.97461" lon="-8.54138"><time>2023-01-14T12:02:04.000Z</time></trkpt><trkpt lat="39.97467" lon="-8.54128"><ele>328</ele><time>2023-01-14T12:01:51.000Z</time></trkpt><trkpt lat="39.97472" lon="-8.54121"><time>2023-01-14T12:02:01.000Z</time></trkpt><trkpt lat="39.97476" lon="-8.54115"><time>2023-01-14T12:02:11.000Z</time></trkpt><trkpt lat="39.9748" lon="-8.54113"><time>2023-01-14T12:02:21.000Z</time></trkpt><trkpt lat="39.97484" lon="-8.54112"><ele>329</ele><time>2023-01-14T12:02:05.000Z</time></trkpt><trkpt lat="39.97491" lon="-8.54113"><time>2023-01-14T12:02:15.000Z</time></trkpt><trkpt lat="39.97498" lon="-8.54116"><time>2023-01-14T12:02:25.000Z</time></trkpt><trkpt lat="39.975" lon="-8.54118"><time>2023-01-14T12:02:35.000Z</time></trkpt><trkpt lat="39.97507" lon="-8.54122"><ele>331</ele><time>2023-01-14T12:02:24.000Z</time></trkpt><trkpt lat="39.97517" lon="-8.54129"><time>2023-01-14T12:02:34.000Z</time></trkpt><trkpt lat="39.97524" lon="-8.54135"><time>2023-01-14T12:02:44.000Z</time></trkpt><trkpt lat="39.97528" lon="-8.54137"><ele>331</ele><time>2023-01-14T12:02:54.000Z</time></trkpt><trkpt lat="39.97534" lon="-8.54138"><time>2023-01-14T12:03:04.000Z</time></trkpt><trkpt lat="39.97554" lon="-8.54129"><ele>330</ele><time>2023-01-14T12:03:14.000Z</time></trkpt><trkpt lat="39.97561" lon="-8.54127"><time>2023-01-14T12:03:24.000Z</time></trkpt><trkpt lat="39.97565" lon="-8.54127"><time>2023-01-14T12:03:34.000Z</time></trkpt><trkpt lat="39.9757" lon="-8.54128"><time>2023-01-14T12:03:44.000Z</time></trkpt><trkpt lat="39.97579" lon="-8.54127"><ele>330</ele><time>2023-01-14T12:03:54.000Z</time></trkpt><trkpt lat="39.97584" lon="-8.54126"><time>2023-01-14T12:04:04.000Z</time></trkpt><trkpt lat="39.97591" lon="-8.54124"><time>2023-01-14T12:04:14.000Z</time></trkpt><trkpt lat="39.97596" lon="-8.54118"><time>2023-01-14T12:04:24.000Z</time></trkpt><trkpt lat="39.976" lon="-8.54116"><ele>326</ele><time>2023-01-14T12:04:34.000Z</time></trkpt><trkpt lat="39.97613" lon="-8.54111"><time>2023-01-14T12:04:44.000Z</time></trkpt><trkpt lat="39.9762" lon="-8.54107"><time>2023-01-14T12:04:54.000Z</time></trkpt><trkpt lat="39.97624" lon="-8.54106"><ele>326</ele><time>2023-01-14T12:05:04.000Z</time></trkpt><trkpt lat="39.97625" lon="-8.54106"><time>2023-01-14T12:05:14.000Z</time></trkpt><trkpt lat="39.97628" lon="-8.54109"><time>2023-01-14T12:05:24.000Z</time></trkpt><trkpt lat="39.97629" lon="-8.54113"><time>2023-01-14T12:05:34.000Z</time></trkpt><trkpt lat="39.97628" lon="-8.54118"><time>2023-01-14T12:05:44.000Z</time></trkpt><trkpt lat="39.97627" lon="-8.54123"><time>2023-01-14T12:05:54.000Z</time></trkpt><trkpt lat="39.97621" lon="-8.54135"><ele>326</ele><time>2023-01-14T12:06:04.000Z</time></trkpt><trkpt lat="39.97619" lon="-8.54144"><time>2023-01-14T12:06:14.000Z</time></trkpt><trkpt lat="39.97615" lon="-8.54151"><time>2023-01-14T12:06:24.000Z</time></trkpt><trkpt lat="39.97613" lon="-8.54166"><ele>327</ele><time>2023-01-14T12:06:34.000Z</time></trkpt><trkpt lat="39.97613" lon="-8.54168"><time>2023-01-14T12:06:44.000Z</time></trkpt><trkpt lat="39.97615" lon="-8.54172"><time>2023-01-14T12:06:54.000Z</time></trkpt><trkpt lat="39.97619" lon="-8.54178"><time>2023-01-14T12:07:04.000Z</time></trkpt><trkpt lat="39.97628" lon="-8.54185"><ele>323</ele><time>2023-01-14T12:07:14.000Z</time></trkpt><trkpt lat="39.97635" lon="-8.54189"><time>2023-01-14T12:07:24.000Z</time></trkpt><trkpt lat="39.97637" lon="-8.54191"><time>2023-01-14T12:07:34.000Z</time></trkpt><trkpt lat="39.97645" lon="-8.54201"><ele>319</ele><time>2023-01-14T12:07:44.000Z</time></trkpt><trkpt lat="39.97656" lon="-8.54212"><time>2023-01-14T12:07:54.000Z</time></trkpt><trkpt lat="39.97661" lon="-8.5422"><ele>311</ele><time>2023-01-14T12:08:04.000Z</time></trkpt><trkpt lat="39.97665" lon="-8.54228"><time>2023-01-14T12:08:14.000Z</time></trkpt><trkpt lat="39.97671" lon="-8.54234"><time>2023-01-14T12:08:24.000Z</time></trkpt><trkpt lat="39.97673" lon="-8.54238"><time>2023-01-14T12:08:34.000Z</time></trkpt><trkpt lat="39.97691" lon="-8.54254"><ele>302</ele><time>2023-01-14T12:08:44.000Z</time></trkpt><trkpt lat="39.97696" lon="-8.54264"><time>2023-01-14T12:08:54.000Z</time></trkpt><trkpt lat="39.97701" lon="-8.54273"><time>2023-01-14T12:09:04.000Z</time></trkpt><trkpt lat="39.97705" lon="-8.54284"><ele>302</ele><time>2023-01-14T12:09:14.000Z</time></trkpt><trkpt lat="39.97708" lon="-8.54295"><time>2023-01-14T12:09:24.000Z</time></trkpt><trkpt lat="39.97712" lon="-8.54303"><time>2023-01-14T12:09:34.000Z</time></trkpt><trkpt lat="39.97713" lon="-8.54305"><time>2023-01-14T12:09:44.000Z</time></trkpt><trkpt lat="39.97713" lon="-8.54296"><ele>301</ele><time>2023-01-14T12:09:54.000Z</time></trkpt><trkpt lat="39.97713" lon="-8.54295"><time>2023-01-14T12:10:04.000Z</time></trkpt><trkpt lat="39.97715" lon="-8.54296"><time>2023-01-14T12:10:14.000Z</time></trkpt><trkpt lat="39.97719" lon="-8.54301"><time>2023-01-14T12:10:24.000Z</time></trkpt><trkpt lat="39.97728" lon="-8.54311"><time>2023-01-14T12:10:34.000Z</time></trkpt><trkpt lat="39.97736" lon="-8.54317"><ele>300</ele><time>2023-01-14T12:10:44.000Z</time></trkpt><trkpt lat="39.9774" lon="-8.54325"><time>2023-01-14T12:10:54.000Z</time></trkpt><trkpt lat="39.97746" lon="-8.54331"><time>2023-01-14T12:11:04.000Z</time></trkpt><trkpt lat="39.9775" lon="-8.54337"><ele>294</ele><time>2023-01-14T12:11:14.000Z</time></trkpt><trkpt lat="39.97762" lon="-8.54356"><time>2023-01-14T12:11:24.000Z</time></trkpt><trkpt lat="39.97768" lon="-8.54369"><ele>288</ele><time>2023-01-14T12:11:34.000Z</time></trkpt><trkpt lat="39.9777" lon="-8.54371"><time>2023-01-14T12:11:44.000Z</time></trkpt><trkpt lat="39.97773" lon="-8.54373"><time>2023-01-14T12:11:54.000Z</time></trkpt><trkpt lat="39.97772" lon="-8.54373"><time>2023-01-14T12:12:04.000Z</time></trkpt><trkpt lat="39.97774" lon="-8.54382"><time>2023-01-14T12:12:14.000Z</time></trkpt><trkpt lat="39.97781" lon="-8.54392"><ele>262</ele><time>2023-01-14T12:12:24.000Z</time></trkpt><trkpt lat="39.97784" lon="-8.54399"><time>2023-01-14T12:12:34.000Z</time></trkpt><trkpt lat="39.97786" lon="-8.54406"><time>2023-01-14T12:12:44.000Z</time></trkpt><trkpt lat="39.97795" lon="-8.54428"><ele>260</ele><time>2023-01-14T12:12:54.000Z</time></trkpt><trkpt lat="39.97795" lon="-8.54432"><time>2023-01-14T12:13:04.000Z</time></trkpt><trkpt lat="39.97799" lon="-8.54444"><time>2023-01-14T12:13:14.000Z</time></trkpt><trkpt lat="39.978" lon="-8.5445"><time>2023-01-14T12:13:24.000Z</time></trkpt><trkpt lat="39.978" lon="-8.5445"><time>2023-01-14T12:13:34.000Z</time></trkpt><trkpt lat="39.978" lon="-8.5445"><time>2023-01-14T12:13:44.000Z</time></trkpt><trkpt lat="39.97801" lon="-8.54459"><ele>248</ele><time>2023-01-14T12:08:52.000Z</time></trkpt><trkpt lat="39.978" lon="-8.54467"><time>2023-01-14T12:09:02.000Z</time></trkpt><trkpt lat="39.97802" lon="-8.54471"><time>2023-01-14T12:09:12.000Z</time></trkpt><trkpt lat="39.97802" lon="-8.54476"><time>2023-01-14T12:09:22.000Z</time></trkpt><trkpt lat="39.97804" lon="-8.54481"><time>2023-01-14T12:09:32.000Z</time></trkpt><trkpt lat="39.97803" lon="-8.54488"><ele>248</ele><time>2023-01-14T12:09:13.000Z</time></trkpt><trkpt lat="39.97806" lon="-8.54495"><time>2023-01-14T12:09:23.000Z</time></trkpt><trkpt lat="39.9781" lon="-8.54509"><time>2023-01-14T12:09:33.000Z</time></trkpt><trkpt lat="39.97812" lon="-8.54513"><ele>244</ele><time>2023-01-14T12:09:28.000Z</time></trkpt><trkpt lat="39.97819" lon="-8.54522"><time>2023-01-14T12:09:38.000Z</time></trkpt><trkpt lat="39.97822" lon="-8.54531"><time>2023-01-14T12:09:48.000Z</time></trkpt><trkpt lat="39.97824" lon="-8.54536"><ele>244</ele><time>2023-01-14T12:09:42.000Z</time></trkpt><trkpt lat="39.97833" lon="-8.54553"><time>2023-01-14T12:09:52.000Z</time></trkpt><trkpt lat="39.97835" lon="-8.54555"><time>2023-01-14T12:10:02.000Z</time></trkpt><trkpt lat="39.97837" lon="-8.5456"><ele>245</ele><time>2023-01-14T12:10:12.000Z</time></trkpt><trkpt lat="39.97839" lon="-8.54562"><time>2023-01-14T12:10:22.000Z</time></trkpt><trkpt lat="39.9784" lon="-8.5457"><time>2023-01-14T12:10:32.000Z</time></trkpt><trkpt lat="39.97843" lon="-8.54576"><time>2023-01-14T12:10:42.000Z</time></trkpt><trkpt lat="39.97844" lon="-8.5458"><time>2023-01-14T12:10:52.000Z</time></trkpt><trkpt lat="39.97849" lon="-8.5459"><ele>241</ele><time>2023-01-14T12:11:02.000Z</time></trkpt><trkpt lat="39.97851" lon="-8.54598"><time>2023-01-14T12:11:12.000Z</time></trkpt><trkpt lat="39.97855" lon="-8.54604"><time>2023-01-14T12:11:22.000Z</time></trkpt><trkpt lat="39.97862" lon="-8.54623"><ele>241</ele><time>2023-01-14T12:11:05.000Z</time></trkpt><trkpt lat="39.97864" lon="-8.54641"><time>2023-01-14T12:11:15.000Z</time></trkpt><trkpt lat="39.97869" lon="-8.5466"><ele>241</ele><time>2023-01-14T12:11:25.000Z</time></trkpt><trkpt lat="39.97868" lon="-8.54678"><time>2023-01-14T12:11:35.000Z</time></trkpt><trkpt lat="39.97871" lon="-8.54687"><ele>240</ele><time>2023-01-14T12:11:45.000Z</time></trkpt><trkpt lat="39.97869" lon="-8.54689"><time>2023-01-14T12:11:55.000Z</time></trkpt><trkpt lat="39.97866" lon="-8.547"><time>2023-01-14T12:12:05.000Z</time></trkpt><trkpt lat="39.97867" lon="-8.54712"><time>2023-01-14T12:12:15.000Z</time></trkpt><trkpt lat="39.97867" lon="-8.54711"><ele>237</ele><time>2023-01-14T12:12:25.000Z</time></trkpt><trkpt lat="39.97867" lon="-8.54712"><time>2023-01-14T12:12:35.000Z</time></trkpt><trkpt lat="39.97867" lon="-8.54716"><time>2023-01-14T12:12:45.000Z</time></trkpt><trkpt lat="39.97869" lon="-8.54723"><time>2023-01-14T12:12:55.000Z</time></trkpt><trkpt lat="39.9787" lon="-8.54735"><time>2023-01-14T12:13:05.000Z</time></trkpt><trkpt lat="39.97876" lon="-8.5475"><ele>235</ele><time>2023-01-14T12:13:13.000Z</time></trkpt><trkpt lat="39.97878" lon="-8.54762"><time>2023-01-14T12:13:23.000Z</time></trkpt><trkpt lat="39.97878" lon="-8.54768"><time>2023-01-14T12:13:33.000Z</time></trkpt><trkpt lat="39.97879" lon="-8.54773"><time>2023-01-14T12:13:43.000Z</time></trkpt><trkpt lat="39.97882" lon="-8.54776"><ele>216</ele><time>2023-01-14T12:13:53.000Z</time></trkpt><trkpt lat="39.97883" lon="-8.5478"><time>2023-01-14T12:14:03.000Z</time></trkpt><trkpt lat="39.97883" lon="-8.54786"><time>2023-01-14T12:14:13.000Z</time></trkpt><trkpt lat="39.97884" lon="-8.5479"><time>2023-01-14T12:14:23.000Z</time></trkpt><trkpt lat="39.97887" lon="-8.54796"><time>2023-01-14T12:14:33.000Z</time></trkpt><trkpt lat="39.9789" lon="-8.54796"><time>2023-01-14T12:14:43.000Z</time></trkpt><trkpt lat="39.97893" lon="-8.54795"><ele>212</ele><time>2023-01-14T12:14:53.000Z</time></trkpt><trkpt lat="39.97894" lon="-8.54796"><time>2023-01-14T12:15:03.000Z</time></trkpt><trkpt lat="39.97895" lon="-8.54799"><time>2023-01-14T12:15:13.000Z</time></trkpt><trkpt lat="39.97898" lon="-8.54806"><time>2023-01-14T12:15:23.000Z</time></trkpt><trkpt lat="39.97897" lon="-8.54811"><time>2023-01-14T12:15:33.000Z</time></trkpt><trkpt lat="39.97896" lon="-8.54815"><time>2023-01-14T12:15:43.000Z</time></trkpt><trkpt lat="39.97895" lon="-8.5482"><ele>204</ele><time>2023-01-14T12:15:53.000Z</time></trkpt><trkpt lat="39.97896" lon="-8.5482"><time>2023-01-14T12:16:03.000Z</time></trkpt><trkpt lat="39.97896" lon="-8.54818"><time>2023-01-14T12:16:13.000Z</time></trkpt><trkpt lat="39.97896" lon="-8.54818"><time>2023-01-14T12:16:23.000Z</time></trkpt><trkpt lat="39.97894" lon="-8.54816"><time>2023-01-14T12:16:33.000Z</time></trkpt><trkpt lat="39.97896" lon="-8.54816"><time>2023-01-14T12:16:43.000Z</time></trkpt><trkpt lat="39.97898" lon="-8.54816"><time>2023-01-14T12:16:53.000Z</time></trkpt><trkpt lat="39.97901" lon="-8.54821"><time>2023-01-14T12:17:03.000Z</time></trkpt><trkpt lat="39.97901" lon="-8.54822"><time>2023-01-14T12:17:13.000Z</time></trkpt><trkpt lat="39.979" lon="-8.54823"><time>2023-01-14T12:17:23.000Z</time></trkpt><trkpt lat="39.97901" lon="-8.54826"><time>2023-01-14T12:17:33.000Z</time></trkpt><trkpt lat="39.97906" lon="-8.5483"><ele>204</ele><time>2023-01-14T12:15:22.000Z</time></trkpt><trkpt lat="39.97911" lon="-8.54832"><time>2023-01-14T12:15:32.000Z</time></trkpt><trkpt lat="39.97913" lon="-8.54834"><time>2023-01-14T12:15:42.000Z</time></trkpt><trkpt lat="39.97919" lon="-8.54834"><time>2023-01-14T12:15:52.000Z</time></trkpt><trkpt lat="39.97923" lon="-8.54831"><time>2023-01-14T12:16:02.000Z</time></trkpt><trkpt lat="39.97929" lon="-8.54832"><ele>182</ele><time>2023-01-14T12:16:12.000Z</time></trkpt><trkpt lat="39.97931" lon="-8.54837"><time>2023-01-14T12:16:22.000Z</time></trkpt><trkpt lat="39.97934" lon="-8.54842"><time>2023-01-14T12:16:32.000Z</time></trkpt><trkpt lat="39.9794" lon="-8.54845"><time>2023-01-14T12:16:42.000Z</time></trkpt><trkpt lat="39.97943" lon="-8.54848"><time>2023-01-14T12:16:52.000Z</time></trkpt><trkpt lat="39.97944" lon="-8.54848"><ele>168</ele><time>2023-01-14T12:16:37.000Z</time></trkpt><trkpt lat="39.97947" lon="-8.54846"><time>2023-01-14T12:16:47.000Z</time></trkpt><trkpt lat="39.97947" lon="-8.54842"><time>2023-01-14T12:16:57.000Z</time></trkpt><trkpt lat="39.97949" lon="-8.54841"><time>2023-01-14T12:17:07.000Z</time></trkpt><trkpt lat="39.97952" lon="-8.54837"><time>2023-01-14T12:17:17.000Z</time></trkpt><trkpt lat="39.97952" lon="-8.54834"><time>2023-01-14T12:17:27.000Z</time></trkpt><trkpt lat="39.97951" lon="-8.54825"><ele>168</ele><time>2023-01-14T12:16:56.000Z</time></trkpt><trkpt lat="39.97946" lon="-8.54814"><time>2023-01-14T12:17:06.000Z</time></trkpt><trkpt lat="39.97945" lon="-8.54808"><time>2023-01-14T12:17:16.000Z</time></trkpt><trkpt lat="39.97949" lon="-8.54792"><ele>169</ele><time>2023-01-14T12:17:19.000Z</time></trkpt><trkpt lat="39.97948" lon="-8.54784"><time>2023-01-14T12:17:29.000Z</time></trkpt><trkpt lat="39.97951" lon="-8.54776"><time>2023-01-14T12:17:39.000Z</time></trkpt><trkpt lat="39.97952" lon="-8.54765"><ele>171</ele><time>2023-01-14T12:17:43.000Z</time></trkpt><trkpt lat="39.97954" lon="-8.54758"><time>2023-01-14T12:17:53.000Z</time></trkpt><trkpt lat="39.97958" lon="-8.54741"><time>2023-01-14T12:18:03.000Z</time></trkpt><trkpt lat="39.97959" lon="-8.54739"><ele>172</ele><time>2023-01-14T12:18:03.000Z</time></trkpt><trkpt lat="39.97963" lon="-8.54739"><time>2023-01-14T12:18:13.000Z</time></trkpt><trkpt lat="39.97975" lon="-8.54733"><time>2023-01-14T12:18:23.000Z</time></trkpt><trkpt lat="39.97976" lon="-8.54737"><time>2023-01-14T12:18:33.000Z</time></trkpt><trkpt lat="39.97979" lon="-8.5474"><ele>173</ele><time>2023-01-14T12:18:42.000Z</time></trkpt><trkpt lat="39.9798" lon="-8.54747"><time>2023-01-14T12:18:52.000Z</time></trkpt><trkpt lat="39.97981" lon="-8.54768"><ele>173</ele><time>2023-01-14T12:18:59.000Z</time></trkpt><trkpt lat="39.97985" lon="-8.54786"><time>2023-01-14T12:19:09.000Z</time></trkpt><trkpt lat="39.97986" lon="-8.54797"><ele>163</ele><time>2023-01-14T12:19:19.000Z</time></trkpt><trkpt lat="39.97986" lon="-8.548"><time>2023-01-14T12:19:29.000Z</time></trkpt><trkpt lat="39.97983" lon="-8.54809"><time>2023-01-14T12:19:39.000Z</time></trkpt><trkpt lat="39.97985" lon="-8.54818"><time>2023-01-14T12:19:49.000Z</time></trkpt><trkpt lat="39.97988" lon="-8.54829"><ele>161</ele><time>2023-01-14T12:19:59.000Z</time></trkpt><trkpt lat="39.97991" lon="-8.54839"><time>2023-01-14T12:20:09.000Z</time></trkpt><trkpt lat="39.97995" lon="-8.54847"><time>2023-01-14T12:20:19.000Z</time></trkpt><trkpt lat="39.97996" lon="-8.54854"><ele>158</ele><time>2023-01-14T12:20:29.000Z</time></trkpt><trkpt lat="39.97996" lon="-8.54858"><time>2023-01-14T12:20:39.000Z</time></trkpt><trkpt lat="39.97998" lon="-8.54866"><time>2023-01-14T12:20:49.000Z</time></trkpt><trkpt lat="39.98008" lon="-8.54884"><ele>157</ele><time>2023-01-14T12:20:59.000Z</time></trkpt><trkpt lat="39.98011" lon="-8.5489"><time>2023-01-14T12:21:09.000Z</time></trkpt><trkpt lat="39.98012" lon="-8.54893"><time>2023-01-14T12:21:19.000Z</time></trkpt><trkpt lat="39.98013" lon="-8.54903"><time>2023-01-14T12:21:29.000Z</time></trkpt><trkpt lat="39.98014" lon="-8.54905"><time>2023-01-14T12:21:39.000Z</time></trkpt><trkpt lat="39.98018" lon="-8.5491"><ele>161</ele><time>2023-01-14T12:21:49.000Z</time></trkpt><trkpt lat="39.98019" lon="-8.54917"><time>2023-01-14T12:21:59.000Z</time></trkpt><trkpt lat="39.98022" lon="-8.54924"><time>2023-01-14T12:22:09.000Z</time></trkpt><trkpt lat="39.98023" lon="-8.54928"><time>2023-01-14T12:22:19.000Z</time></trkpt><trkpt lat="39.98023" lon="-8.54934"><time>2023-01-14T12:22:29.000Z</time></trkpt><trkpt lat="39.98021" lon="-8.54941"><ele>165</ele><time>2023-01-14T12:22:39.000Z</time></trkpt><trkpt lat="39.98021" lon="-8.54945"><time>2023-01-14T12:22:49.000Z</time></trkpt><trkpt lat="39.98022" lon="-8.54951"><time>2023-01-14T12:22:59.000Z</time></trkpt><trkpt lat="39.98027" lon="-8.5496"><time>2023-01-14T12:23:09.000Z</time></trkpt><trkpt lat="39.98026" lon="-8.54969"><ele>165</ele><time>2023-01-14T12:23:19.000Z</time></trkpt><trkpt lat="39.9803" lon="-8.54981"><time>2023-01-14T12:23:29.000Z</time></trkpt><trkpt lat="39.98031" lon="-8.54989"><time>2023-01-14T12:23:39.000Z</time></trkpt><trkpt lat="39.9803" lon="-8.54999"><ele>159</ele><time>2023-01-14T12:23:49.000Z</time></trkpt><trkpt lat="39.98031" lon="-8.55006"><time>2023-01-14T12:23:59.000Z</time></trkpt><trkpt lat="39.98031" lon="-8.55019"><time>2023-01-14T12:24:09.000Z</time></trkpt><trkpt lat="39.98031" lon="-8.55023"><time>2023-01-14T12:24:19.000Z</time></trkpt><trkpt lat="39.98029" lon="-8.55029"><ele>154</ele><time>2023-01-14T12:24:29.000Z</time></trkpt><trkpt lat="39.98028" lon="-8.55033"><time>2023-01-14T12:24:39.000Z</time></trkpt><trkpt lat="39.98029" lon="-8.55037"><time>2023-01-14T12:24:49.000Z</time></trkpt><trkpt lat="39.98034" lon="-8.55044"><time>2023-01-14T12:24:59.000Z</time></trkpt><trkpt lat="39.98035" lon="-8.55048"><time>2023-01-14T12:25:09.000Z</time></trkpt><trkpt lat="39.98035" lon="-8.55052"><time>2023-01-14T12:25:19.000Z</time></trkpt><trkpt lat="39.98033" lon="-8.55054"><ele>154</ele><time>2023-01-14T12:25:29.000Z</time></trkpt><trkpt lat="39.98037" lon="-8.55061"><time>2023-01-14T12:25:39.000Z</time></trkpt><trkpt lat="39.98047" lon="-8.5507"><time>2023-01-14T12:25:49.000Z</time></trkpt><trkpt lat="39.98054" lon="-8.55081"><ele>152</ele><time>2023-01-14T12:25:59.000Z</time></trkpt><trkpt lat="39.98063" lon="-8.5509"><time>2023-01-14T12:26:09.000Z</time></trkpt><trkpt lat="39.98068" lon="-8.55098"><time>2023-01-14T12:26:19.000Z</time></trkpt><trkpt lat="39.9807" lon="-8.55102"><ele>155</ele><time>2023-01-14T12:26:29.000Z</time></trkpt><trkpt lat="39.98071" lon="-8.55111"><time>2023-01-14T12:26:39.000Z</time></trkpt><trkpt lat="39.98076" lon="-8.55123"><time>2023-01-14T12:26:49.000Z</time></trkpt><trkpt lat="39.98085" lon="-8.55156"><ele>159</ele><time>2023-01-14T12:26:59.000Z</time></trkpt><trkpt lat="39.9809" lon="-8.55164"><time>2023-01-14T12:27:09.000Z</time></trkpt><trkpt lat="39.98095" lon="-8.55177"><time>2023-01-14T12:27:19.000Z</time></trkpt><trkpt lat="39.98103" lon="-8.55192"><ele>156</ele><time>2023-01-14T12:23:22.000Z</time></trkpt><trkpt lat="39.98115" lon="-8.55206"><time>2023-01-14T12:23:32.000Z</time></trkpt><trkpt lat="39.98114" lon="-8.55206"><time>2023-01-14T12:23:42.000Z</time></trkpt><trkpt lat="39.98122" lon="-8.55214"><ele>167</ele><time>2023-01-14T12:23:52.000Z</time></trkpt><trkpt lat="39.98125" lon="-8.55218"><time>2023-01-14T12:24:02.000Z</time></trkpt><trkpt lat="39.98127" lon="-8.55222"><time>2023-01-14T12:24:12.000Z</time></trkpt><trkpt lat="39.98128" lon="-8.55227"><time>2023-01-14T12:24:22.000Z</time></trkpt><trkpt lat="39.98132" lon="-8.55235"><time>2023-01-14T12:24:32.000Z</time></trkpt><trkpt lat="39.98133" lon="-8.55239"><ele>179</ele><time>2023-01-14T12:24:42.000Z</time></trkpt><trkpt lat="39.98134" lon="-8.55244"><time>2023-01-14T12:24:52.000Z</time></trkpt><trkpt lat="39.98135" lon="-8.55253"><time>2023-01-14T12:25:02.000Z</time></trkpt><trkpt lat="39.98136" lon="-8.55258"><time>2023-01-14T12:25:12.000Z</time></trkpt><trkpt lat="39.98135" lon="-8.5526"><time>2023-01-14T12:25:22.000Z</time></trkpt><trkpt lat="39.98134" lon="-8.55261"><time>2023-01-14T12:25:32.000Z</time></trkpt><trkpt lat="39.98132" lon="-8.55273"><ele>168</ele><time>2023-01-14T12:24:34.000Z</time></trkpt><trkpt lat="39.98128" lon="-8.55284"><time>2023-01-14T12:24:44.000Z</time></trkpt><trkpt lat="39.98126" lon="-8.5529"><time>2023-01-14T12:24:54.000Z</time></trkpt><trkpt lat="39.98121" lon="-8.55301"><ele>164</ele><time>2023-01-14T12:24:47.000Z</time></trkpt><trkpt lat="39.98121" lon="-8.55306"><time>2023-01-14T12:24:57.000Z</time></trkpt><trkpt lat="39.98121" lon="-8.55312"><time>2023-01-14T12:25:07.000Z</time></trkpt><trkpt lat="39.98122" lon="-8.55328"><ele>165</ele><time>2023-01-14T12:24:56.000Z</time></trkpt><trkpt lat="39.98127" lon="-8.55345"><time>2023-01-14T12:25:06.000Z</time></trkpt><trkpt lat="39.98128" lon="-8.55355"><ele>167</ele><time>2023-01-14T12:25:07.000Z</time></trkpt><trkpt lat="39.98129" lon="-8.55362"><time>2023-01-14T12:25:17.000Z</time></trkpt><trkpt lat="39.98132" lon="-8.55373"><time>2023-01-14T12:25:27.000Z</time></trkpt><trkpt lat="39.98135" lon="-8.55378"><time>2023-01-14T12:25:37.000Z</time></trkpt><trkpt lat="39.98134" lon="-8.55378"><time>2023-01-14T12:25:47.000Z</time></trkpt><trkpt lat="39.98135" lon="-8.55377"><ele>170</ele><time>2023-01-14T12:25:57.000Z</time></trkpt><trkpt lat="39.98138" lon="-8.55377"><time>2023-01-14T12:26:07.000Z</time></trkpt><trkpt lat="39.98139" lon="-8.55377"><time>2023-01-14T12:26:17.000Z</time></trkpt><trkpt lat="39.9814" lon="-8.55376"><time>2023-01-14T12:26:27.000Z</time></trkpt><trkpt lat="39.98141" lon="-8.55371"><time>2023-01-14T12:26:37.000Z</time></trkpt><trkpt lat="39.98143" lon="-8.55364"><time>2023-01-14T12:26:47.000Z</time></trkpt><trkpt lat="39.98144" lon="-8.5536"><time>2023-01-14T12:26:57.000Z</time></trkpt><trkpt lat="39.98145" lon="-8.55356"><ele>173</ele><time>2023-01-14T12:27:07.000Z</time></trkpt><trkpt lat="39.98147" lon="-8.55355"><time>2023-01-14T12:27:17.000Z</time></trkpt><trkpt lat="39.98146" lon="-8.5535"><time>2023-01-14T12:27:27.000Z</time></trkpt><trkpt lat="39.98146" lon="-8.55348"><time>2023-01-14T12:27:37.000Z</time></trkpt><trkpt lat="39.98151" lon="-8.55344"><time>2023-01-14T12:27:47.000Z</time></trkpt><trkpt lat="39.98151" lon="-8.55341"><time>2023-01-14T12:27:57.000Z</time></trkpt><trkpt lat="39.98154" lon="-8.55335"><time>2023-01-14T12:28:07.000Z</time></trkpt><trkpt lat="39.98154" lon="-8.5533"><ele>175</ele><time>2023-01-14T12:28:17.000Z</time></trkpt><trkpt lat="39.98156" lon="-8.55328"><time>2023-01-14T12:28:27.000Z</time></trkpt><trkpt lat="39.98156" lon="-8.55323"><time>2023-01-14T12:28:37.000Z</time></trkpt><trkpt lat="39.98158" lon="-8.55317"><time>2023-01-14T12:28:47.000Z</time></trkpt><trkpt lat="39.98159" lon="-8.55312"><time>2023-01-14T12:28:57.000Z</time></trkpt><trkpt lat="39.98159" lon="-8.55308"><time>2023-01-14T12:29:07.000Z</time></trkpt><trkpt lat="39.98161" lon="-8.55305"><ele>188</ele><time>2023-01-14T12:29:17.000Z</time></trkpt><trkpt lat="39.98161" lon="-8.55301"><time>2023-01-14T12:29:27.000Z</time></trkpt><trkpt lat="39.98164" lon="-8.55297"><time>2023-01-14T12:29:37.000Z</time></trkpt><trkpt lat="39.98164" lon="-8.55294"><time>2023-01-14T12:29:47.000Z</time></trkpt><trkpt lat="39.98164" lon="-8.55281"><time>2023-01-14T12:29:57.000Z</time></trkpt><trkpt lat="39.98167" lon="-8.55272"><ele>201</ele><time>2023-01-14T12:28:35.000Z</time></trkpt><trkpt lat="39.98168" lon="-8.55257"><time>2023-01-14T12:28:45.000Z</time></trkpt><trkpt lat="39.98171" lon="-8.55241"><ele>203</ele><time>2023-01-14T12:28:55.000Z</time></trkpt><trkpt lat="39.98171" lon="-8.55238"><time>2023-01-14T12:29:05.000Z</time></trkpt><trkpt lat="39.98168" lon="-8.5522"><time>2023-01-14T12:29:15.000Z</time></trkpt><trkpt lat="39.98166" lon="-8.55216"><time>2023-01-14T12:29:25.000Z</time></trkpt><trkpt lat="39.98165" lon="-8.55208"><ele>201</ele><time>2023-01-14T12:29:35.000Z</time></trkpt><trkpt lat="39.98165" lon="-8.55205"><time>2023-01-14T12:29:45.000Z</time></trkpt><trkpt lat="39.98168" lon="-8.55201"><time>2023-01-14T12:29:55.000Z</time></trkpt><trkpt lat="39.98168" lon="-8.55196"><time>2023-01-14T12:30:05.000Z</time></trkpt><trkpt lat="39.98166" lon="-8.5519"><time>2023-01-14T12:30:15.000Z</time></trkpt><trkpt lat="39.98157" lon="-8.5517"><ele>207</ele><time>2023-01-14T12:29:55.000Z</time></trkpt><trkpt lat="39.98153" lon="-8.55164"><time>2023-01-14T12:30:05.000Z</time></trkpt><trkpt lat="39.98146" lon="-8.55142"><ele>213</ele><time>2023-01-14T12:30:17.000Z</time></trkpt><trkpt lat="39.98144" lon="-8.55129"><time>2023-01-14T12:30:27.000Z</time></trkpt><trkpt lat="39.98145" lon="-8.55125"><time>2023-01-14T12:30:37.000Z</time></trkpt><trkpt lat="39.98143" lon="-8.5512"><time>2023-01-14T12:30:47.000Z</time></trkpt><trkpt lat="39.98137" lon="-8.5511"><ele>206</ele><time>2023-01-14T12:30:57.000Z</time></trkpt><trkpt lat="39.98134" lon="-8.55108"><time>2023-01-14T12:31:07.000Z</time></trkpt><trkpt lat="39.9813" lon="-8.55106"><time>2023-01-14T12:31:17.000Z</time></trkpt><trkpt lat="39.98126" lon="-8.55103"><time>2023-01-14T12:31:27.000Z</time></trkpt><trkpt lat="39.98123" lon="-8.55099"><time>2023-01-14T12:31:37.000Z</time></trkpt><trkpt lat="39.98118" lon="-8.55096"><ele>200</ele><time>2023-01-14T12:31:47.000Z</time></trkpt><trkpt lat="39.98114" lon="-8.55094"><time>2023-01-14T12:31:57.000Z</time></trkpt><trkpt lat="39.98111" lon="-8.55091"><time>2023-01-14T12:32:07.000Z</time></trkpt><trkpt lat="39.9811" lon="-8.55088"><time>2023-01-14T12:32:17.000Z</time></trkpt><trkpt lat="39.98109" lon="-8.55081"><time>2023-01-14T12:32:27.000Z</time></trkpt><trkpt lat="39.98108" lon="-8.55079"><time>2023-01-14T12:32:37.000Z</time></trkpt><trkpt lat="39.98108" lon="-8.55067"><ele>198</ele><time>2023-01-14T12:31:30.000Z</time></trkpt><trkpt lat="39.98102" lon="-8.55057"><time>2023-01-14T12:31:40.000Z</time></trkpt><trkpt lat="39.98102" lon="-8.55054"><time>2023-01-14T12:31:50.000Z</time></trkpt><trkpt lat="39.98099" lon="-8.55048"><time>2023-01-14T12:32:00.000Z</time></trkpt><trkpt lat="39.98096" lon="-8.55045"><ele>198</ele><time>2023-01-14T12:31:52.000Z</time></trkpt><trkpt lat="39.98093" lon="-8.55042"><time>2023-01-14T12:32:02.000Z</time></trkpt><trkpt lat="39.9809" lon="-8.55039"><time>2023-01-14T12:32:12.000Z</time></trkpt><trkpt lat="39.98091" lon="-8.55037"><time>2023-01-14T12:32:22.000Z</time></trkpt><trkpt lat="39.98093" lon="-8.55035"><time>2023-01-14T12:32:32.000Z</time></trkpt><trkpt lat="39.98093" lon="-8.55034"><time>2023-01-14T12:32:42.000Z</time></trkpt><trkpt lat="39.98092" lon="-8.55029"><time>2023-01-14T12:32:52.000Z</time></trkpt><trkpt lat="39.9809" lon="-8.55025"><time>2023-01-14T12:33:02.000Z</time></trkpt><trkpt lat="39.9809" lon="-8.55022"><ele>199</ele><time>2023-01-14T12:32:13.000Z</time></trkpt><trkpt lat="39.98088" lon="-8.55016"><time>2023-01-14T12:32:23.000Z</time></trkpt><trkpt lat="39.98085" lon="-8.55012"><time>2023-01-14T12:32:33.000Z</time></trkpt><trkpt lat="39.9808" lon="-8.55003"><time>2023-01-14T12:32:43.000Z</time></trkpt><trkpt lat="39.9808" lon="-8.55001"><time>2023-01-14T12:32:53.000Z</time></trkpt><trkpt lat="39.98083" lon="-8.54998"><ele>203</ele><time>2023-01-14T12:32:35.000Z</time></trkpt><trkpt lat="39.98084" lon="-8.54997"><time>2023-01-14T12:32:45.000Z</time></trkpt><trkpt lat="39.98083" lon="-8.54996"><time>2023-01-14T12:32:55.000Z</time></trkpt><trkpt lat="39.98085" lon="-8.54993"><time>2023-01-14T12:33:05.000Z</time></trkpt><trkpt lat="39.98087" lon="-8.54991"><time>2023-01-14T12:33:15.000Z</time></trkpt><trkpt lat="39.98088" lon="-8.54987"><time>2023-01-14T12:33:25.000Z</time></trkpt><trkpt lat="39.98087" lon="-8.54986"><time>2023-01-14T12:33:35.000Z</time></trkpt><trkpt lat="39.98086" lon="-8.54984"><time>2023-01-14T12:33:45.000Z</time></trkpt><trkpt lat="39.98085" lon="-8.54982"><time>2023-01-14T12:33:55.000Z</time></trkpt><trkpt lat="39.98082" lon="-8.5498"><time>2023-01-14T12:34:05.000Z</time></trkpt><trkpt lat="39.98082" lon="-8.54977"><ele>210</ele><time>2023-01-14T12:33:21.000Z</time></trkpt><trkpt lat="39.9808" lon="-8.54974"><time>2023-01-14T12:33:31.000Z</time></trkpt><trkpt lat="39.9808" lon="-8.54969"><time>2023-01-14T12:33:41.000Z</time></trkpt><trkpt lat="39.98081" lon="-8.54969"><time>2023-01-14T12:33:51.000Z</time></trkpt><trkpt lat="39.9808" lon="-8.54969"><time>2023-01-14T12:34:01.000Z</time></trkpt><trkpt lat="39.98081" lon="-8.54971"><time>2023-01-14T12:34:11.000Z</time></trkpt><trkpt lat="39.98082" lon="-8.54971"><time>2023-01-14T12:34:21.000Z</time></trkpt><trkpt lat="39.98085" lon="-8.5497"><time>2023-01-14T12:34:31.000Z</time></trkpt><trkpt lat="39.98086" lon="-8.54968"><time>2023-01-14T12:34:41.000Z</time></trkpt><trkpt lat="39.98089" lon="-8.54968"><time>2023-01-14T12:34:51.000Z</time></trkpt><trkpt lat="39.9809" lon="-8.54967"><time>2023-01-14T12:35:01.000Z</time></trkpt><trkpt lat="39.98093" lon="-8.54963"><ele>210</ele><time>2023-01-14T12:34:26.000Z</time></trkpt><trkpt lat="39.98094" lon="-8.54958"><time>2023-01-14T12:34:36.000Z</time></trkpt><trkpt lat="39.98094" lon="-8.54956"><time>2023-01-14T12:34:46.000Z</time></trkpt><trkpt lat="39.9809" lon="-8.54952"><time>2023-01-14T12:34:56.000Z</time></trkpt><trkpt lat="39.98087" lon="-8.54948"><time>2023-01-14T12:35:06.000Z</time></trkpt><trkpt lat="39.98085" lon="-8.54946"><time>2023-01-14T12:35:16.000Z</time></trkpt><trkpt lat="39.98086" lon="-8.54941"><ele>218</ele><time>2023-01-14T12:34:53.000Z</time></trkpt><trkpt lat="39.98086" lon="-8.54934"><time>2023-01-14T12:35:03.000Z</time></trkpt><trkpt lat="39.9809" lon="-8.54928"><time>2023-01-14T12:35:13.000Z</time></trkpt><trkpt lat="39.9809" lon="-8.54918"><time>2023-01-14T12:35:23.000Z</time></trkpt><trkpt lat="39.98091" lon="-8.54916"><ele>224</ele><time>2023-01-14T12:35:19.000Z</time></trkpt><trkpt lat="39.98094" lon="-8.54915"><time>2023-01-14T12:35:29.000Z</time></trkpt><trkpt lat="39.98097" lon="-8.54915"><time>2023-01-14T12:35:39.000Z</time></trkpt><trkpt lat="39.98099" lon="-8.54911"><time>2023-01-14T12:35:49.000Z</time></trkpt><trkpt lat="39.98099" lon="-8.5491"><time>2023-01-14T12:35:59.000Z</time></trkpt><trkpt lat="39.981" lon="-8.54909"><time>2023-01-14T12:36:09.000Z</time></trkpt><trkpt lat="39.98102" lon="-8.54907"><time>2023-01-14T12:36:19.000Z</time></trkpt><trkpt lat="39.98103" lon="-8.54902"><time>2023-01-14T12:36:29.000Z</time></trkpt><trkpt lat="39.98105" lon="-8.549"><ele>248</ele><time>2023-01-14T12:36:39.000Z</time></trkpt><trkpt lat="39.98107" lon="-8.54901"><time>2023-01-14T12:36:49.000Z</time></trkpt><trkpt lat="39.98107" lon="-8.54895"><time>2023-01-14T12:36:59.000Z</time></trkpt><trkpt lat="39.98108" lon="-8.54894"><time>2023-01-14T12:37:09.000Z</time></trkpt><trkpt lat="39.98114" lon="-8.54894"><time>2023-01-14T12:37:19.000Z</time></trkpt><trkpt lat="39.98114" lon="-8.54895"><time>2023-01-14T12:37:29.000Z</time></trkpt><trkpt lat="39.98113" lon="-8.54897"><time>2023-01-14T12:37:39.000Z</time></trkpt><trkpt lat="39.98115" lon="-8.54897"><time>2023-01-14T12:37:49.000Z</time></trkpt><trkpt lat="39.98116" lon="-8.54899"><time>2023-01-14T12:37:59.000Z</time></trkpt><trkpt lat="39.98119" lon="-8.54901"><ele>248</ele><time>2023-01-14T12:38:09.000Z</time></trkpt><trkpt lat="39.98119" lon="-8.54901"><time>2023-01-14T12:38:19.000Z</time></trkpt><trkpt lat="39.98122" lon="-8.54896"><time>2023-01-14T12:38:29.000Z</time></trkpt><trkpt lat="39.98122" lon="-8.54896"><time>2023-01-14T12:38:39.000Z</time></trkpt><trkpt lat="39.98122" lon="-8.54897"><time>2023-01-14T12:38:49.000Z</time></trkpt><trkpt lat="39.98122" lon="-8.54897"><time>2023-01-14T12:38:59.000Z</time></trkpt><trkpt lat="39.98122" lon="-8.54896"><time>2023-01-14T12:39:09.000Z</time></trkpt><trkpt lat="39.98124" lon="-8.54897"><time>2023-01-14T12:39:19.000Z</time></trkpt><trkpt lat="39.98127" lon="-8.54898"><time>2023-01-14T12:39:29.000Z</time></trkpt><trkpt lat="39.98128" lon="-8.549"><time>2023-01-14T12:39:39.000Z</time></trkpt><trkpt lat="39.98129" lon="-8.54899"><time>2023-01-14T12:39:49.000Z</time></trkpt><trkpt lat="39.98129" lon="-8.54897"><time>2023-01-14T12:39:59.000Z</time></trkpt><trkpt lat="39.98132" lon="-8.54898"><time>2023-01-14T12:40:09.000Z</time></trkpt><trkpt lat="39.98134" lon="-8.54901"><ele>269</ele><time>2023-01-14T12:38:41.000Z</time></trkpt><trkpt lat="39.98139" lon="-8.54898"><time>2023-01-14T12:38:51.000Z</time></trkpt><trkpt lat="39.98149" lon="-8.54905"><time>2023-01-14T12:39:01.000Z</time></trkpt><trkpt lat="39.98152" lon="-8.54908"><time>2023-01-14T12:39:11.000Z</time></trkpt><trkpt lat="39.98153" lon="-8.54914"><ele>269</ele><time>2023-01-14T12:39:39.000Z</time></trkpt><trkpt lat="39.98155" lon="-8.54918"><time>2023-01-14T12:39:49.000Z</time></trkpt><trkpt lat="39.98155" lon="-8.54922"><time>2023-01-14T12:39:59.000Z</time></trkpt><trkpt lat="39.98156" lon="-8.54926"><time>2023-01-14T12:40:09.000Z</time></trkpt><trkpt lat="39.98159" lon="-8.54928"><time>2023-01-14T12:40:19.000Z</time></trkpt><trkpt lat="39.9816" lon="-8.54929"><time>2023-01-14T12:40:29.000Z</time></trkpt><trkpt lat="39.9816" lon="-8.54934"><time>2023-01-14T12:40:39.000Z</time></trkpt><trkpt lat="39.98159" lon="-8.54938"><ele>272</ele><time>2023-01-14T12:40:49.000Z</time></trkpt><trkpt lat="39.9816" lon="-8.54942"><time>2023-01-14T12:40:59.000Z</time></trkpt><trkpt lat="39.98163" lon="-8.54945"><time>2023-01-14T12:41:09.000Z</time></trkpt><trkpt lat="39.98167" lon="-8.54949"><time>2023-01-14T12:41:19.000Z</time></trkpt><trkpt lat="39.98171" lon="-8.54955"><time>2023-01-14T12:41:29.000Z</time></trkpt><trkpt lat="39.98172" lon="-8.54955"><time>2023-01-14T12:41:39.000Z</time></trkpt><trkpt lat="39.98177" lon="-8.54953"><ele>276</ele><time>2023-01-14T12:41:49.000Z</time></trkpt><trkpt lat="39.9818" lon="-8.54953"><time>2023-01-14T12:41:59.000Z</time></trkpt><trkpt lat="39.98181" lon="-8.54956"><time>2023-01-14T12:42:09.000Z</time></trkpt><trkpt lat="39.98183" lon="-8.54957"><time>2023-01-14T12:42:19.000Z</time></trkpt><trkpt lat="39.98184" lon="-8.54955"><time>2023-01-14T12:42:29.000Z</time></trkpt><trkpt lat="39.98185" lon="-8.54956"><time>2023-01-14T12:42:39.000Z</time></trkpt><trkpt lat="39.98189" lon="-8.54961"><time>2023-01-14T12:42:49.000Z</time></trkpt><trkpt lat="39.98191" lon="-8.5496"><time>2023-01-14T12:42:59.000Z</time></trkpt><trkpt lat="39.98193" lon="-8.5496"><time>2023-01-14T12:43:09.000Z</time></trkpt><trkpt lat="39.98196" lon="-8.54963"><ele>284</ele><time>2023-01-14T12:43:19.000Z</time></trkpt><trkpt lat="39.98198" lon="-8.54963"><time>2023-01-14T12:43:29.000Z</time></trkpt><trkpt lat="39.98205" lon="-8.54957"><time>2023-01-14T12:43:39.000Z</time></trkpt><trkpt lat="39.9821" lon="-8.54955"><time>2023-01-14T12:43:49.000Z</time></trkpt><trkpt lat="39.98217" lon="-8.54957"><ele>287</ele><time>2023-01-14T12:41:43.000Z</time></trkpt><trkpt lat="39.98221" lon="-8.5496"><time>2023-01-14T12:41:53.000Z</time></trkpt><trkpt lat="39.98224" lon="-8.54963"><time>2023-01-14T12:42:03.000Z</time></trkpt><trkpt lat="39.98232" lon="-8.54967"><time>2023-01-14T12:42:13.000Z</time></trkpt><trkpt lat="39.98237" lon="-8.54971"><ele>287</ele><time>2023-01-14T12:42:04.000Z</time></trkpt><trkpt lat="39.98241" lon="-8.54975"><time>2023-01-14T12:42:14.000Z</time></trkpt><trkpt lat="39.98241" lon="-8.54976"><time>2023-01-14T12:42:24.000Z</time></trkpt><trkpt lat="39.9824" lon="-8.54976"><time>2023-01-14T12:42:34.000Z</time></trkpt><trkpt lat="39.98241" lon="-8.54977"><time>2023-01-14T12:42:44.000Z</time></trkpt><trkpt lat="39.98241" lon="-8.54984"><time>2023-01-14T12:42:54.000Z</time></trkpt><trkpt lat="39.98244" lon="-8.54992"><ele>289</ele><time>2023-01-14T12:43:04.000Z</time></trkpt><trkpt lat="39.98247" lon="-8.55003"><time>2023-01-14T12:43:14.000Z</time></trkpt><trkpt lat="39.98252" lon="-8.55014"><time>2023-01-14T12:43:24.000Z</time></trkpt><trkpt lat="39.98257" lon="-8.55025"><ele>291</ele><time>2023-01-14T12:43:34.000Z</time></trkpt><trkpt lat="39.98261" lon="-8.55036"><time>2023-01-14T12:43:44.000Z</time></trkpt><trkpt lat="39.98271" lon="-8.55051"><ele>289</ele><time>2023-01-14T12:43:54.000Z</time></trkpt><trkpt lat="39.98273" lon="-8.55056"><time>2023-01-14T12:44:04.000Z</time></trkpt><trkpt lat="39.98273" lon="-8.55061"><time>2023-01-14T12:44:14.000Z</time></trkpt><trkpt lat="39.98272" lon="-8.55063"><time>2023-01-14T12:44:24.000Z</time></trkpt><trkpt lat="39.98268" lon="-8.55067"><time>2023-01-14T12:44:34.000Z</time></trkpt><trkpt lat="39.98257" lon="-8.55072"><ele>287</ele><time>2023-01-14T12:44:44.000Z</time></trkpt><trkpt lat="39.98244" lon="-8.55085"><time>2023-01-14T12:44:54.000Z</time></trkpt><trkpt lat="39.98241" lon="-8.55088"><ele>287</ele><time>2023-01-14T12:45:04.000Z</time></trkpt><trkpt lat="39.98235" lon="-8.5509"><time>2023-01-14T12:45:14.000Z</time></trkpt><trkpt lat="39.9823" lon="-8.55088"><time>2023-01-14T12:45:24.000Z</time></trkpt><trkpt lat="39.9822" lon="-8.55075"><ele>281</ele><time>2023-01-14T12:45:34.000Z</time></trkpt><trkpt lat="39.9821" lon="-8.55065"><time>2023-01-14T12:45:44.000Z</time></trkpt><trkpt lat="39.98208" lon="-8.55066"><time>2023-01-14T12:45:54.000Z</time></trkpt><trkpt lat="39.98207" lon="-8.55068"><time>2023-01-14T12:46:04.000Z</time></trkpt><trkpt lat="39.98206" lon="-8.55074"><ele>271</ele><time>2023-01-14T12:46:14.000Z</time></trkpt><trkpt lat="39.98204" lon="-8.55077"><time>2023-01-14T12:46:24.000Z</time></trkpt><trkpt lat="39.98203" lon="-8.55083"><time>2023-01-14T12:46:34.000Z</time></trkpt><trkpt lat="39.982" lon="-8.55092"><time>2023-01-14T12:46:44.000Z</time></trkpt><trkpt lat="39.98202" lon="-8.5512"><ele>266</ele><time>2023-01-14T12:44:48.000Z</time></trkpt><trkpt lat="39.982" lon="-8.55134"><time>2023-01-14T12:44:58.000Z</time></trkpt><trkpt lat="39.98201" lon="-8.55148"><ele>260</ele><time>2023-01-14T12:44:57.000Z</time></trkpt><trkpt lat="39.982" lon="-8.55155"><time>2023-01-14T12:45:07.000Z</time></trkpt><trkpt lat="39.98201" lon="-8.55155"><time>2023-01-14T12:45:17.000Z</time></trkpt><trkpt lat="39.98201" lon="-8.55156"><time>2023-01-14T12:45:27.000Z</time></trkpt><trkpt lat="39.98203" lon="-8.55158"><time>2023-01-14T12:45:37.000Z</time></trkpt><trkpt lat="39.98203" lon="-8.55164"><time>2023-01-14T12:45:47.000Z</time></trkpt><trkpt lat="39.98205" lon="-8.55172"><ele>261</ele><time>2023-01-14T12:45:42.000Z</time></trkpt><trkpt lat="39.98205" lon="-8.55178"><time>2023-01-14T12:45:52.000Z</time></trkpt><trkpt lat="39.98207" lon="-8.55184"><time>2023-01-14T12:46:02.000Z</time></trkpt><trkpt lat="39.98206" lon="-8.55192"><time>2023-01-14T12:46:12.000Z</time></trkpt><trkpt lat="39.98209" lon="-8.55195"><time>2023-01-14T12:46:22.000Z</time></trkpt><trkpt lat="39.9821" lon="-8.55201"><ele>262</ele><time>2023-01-14T12:46:09.000Z</time></trkpt><trkpt lat="39.98213" lon="-8.55205"><time>2023-01-14T12:46:19.000Z</time></trkpt><trkpt lat="39.98215" lon="-8.55209"><time>2023-01-14T12:46:29.000Z</time></trkpt><trkpt lat="39.98213" lon="-8.55217"><time>2023-01-14T12:46:39.000Z</time></trkpt><trkpt lat="39.98213" lon="-8.5522"><time>2023-01-14T12:46:49.000Z</time></trkpt><trkpt lat="39.98214" lon="-8.55222"><time>2023-01-14T12:46:59.000Z</time></trkpt><trkpt lat="39.98214" lon="-8.55226"><ele>262</ele><time>2023-01-14T12:46:30.000Z</time></trkpt><trkpt lat="39.98215" lon="-8.55229"><time>2023-01-14T12:46:40.000Z</time></trkpt><trkpt lat="39.98215" lon="-8.55232"><time>2023-01-14T12:46:50.000Z</time></trkpt><trkpt lat="39.98215" lon="-8.55235"><time>2023-01-14T12:47:00.000Z</time></trkpt><trkpt lat="39.98212" lon="-8.55238"><time>2023-01-14T12:47:10.000Z</time></trkpt><trkpt lat="39.98212" lon="-8.5524"><time>2023-01-14T12:47:20.000Z</time></trkpt><trkpt lat="39.98213" lon="-8.55248"><time>2023-01-14T12:47:30.000Z</time></trkpt><trkpt lat="39.98213" lon="-8.55252"><ele>249</ele><time>2023-01-14T12:46:50.000Z</time></trkpt><trkpt lat="39.98215" lon="-8.55257"><time>2023-01-14T12:47:00.000Z</time></trkpt><trkpt lat="39.98218" lon="-8.5526"><time>2023-01-14T12:47:10.000Z</time></trkpt><trkpt lat="39.98225" lon="-8.55264"><time>2023-01-14T12:47:20.000Z</time></trkpt><trkpt lat="39.98226" lon="-8.5527"><time>2023-01-14T12:47:30.000Z</time></trkpt><trkpt lat="39.98228" lon="-8.55271"><ele>250</ele><time>2023-01-14T12:47:12.000Z</time></trkpt><trkpt lat="39.98232" lon="-8.55274"><time>2023-01-14T12:47:22.000Z</time></trkpt><trkpt lat="39.98239" lon="-8.55281"><time>2023-01-14T12:47:32.000Z</time></trkpt><trkpt lat="39.98243" lon="-8.55283"><time>2023-01-14T12:47:42.000Z</time></trkpt><trkpt lat="39.98248" lon="-8.55288"><ele>252</ele><time>2023-01-14T12:47:33.000Z</time></trkpt><trkpt lat="39.98255" lon="-8.55288"><time>2023-01-14T12:47:43.000Z</time></trkpt><trkpt lat="39.98257" lon="-8.55287"><time>2023-01-14T12:47:53.000Z</time></trkpt><trkpt lat="39.98258" lon="-8.55288"><time>2023-01-14T12:48:03.000Z</time></trkpt><trkpt lat="39.98264" lon="-8.55285"><time>2023-01-14T12:48:13.000Z</time></trkpt><trkpt lat="39.98267" lon="-8.55287"><time>2023-01-14T12:48:23.000Z</time></trkpt><trkpt lat="39.98273" lon="-8.55288"><ele>252</ele><time>2023-01-14T12:48:09.000Z</time></trkpt><trkpt lat="39.98281" lon="-8.55293"><time>2023-01-14T12:48:19.000Z</time></trkpt><trkpt lat="39.98287" lon="-8.55294"><time>2023-01-14T12:48:29.000Z</time></trkpt><trkpt lat="39.98293" lon="-8.553"><ele>248</ele><time>2023-01-14T12:48:39.000Z</time></trkpt><trkpt lat="39.98298" lon="-8.55301"><time>2023-01-14T12:48:49.000Z</time></trkpt><trkpt lat="39.98309" lon="-8.55311"><time>2023-01-14T12:48:59.000Z</time></trkpt><trkpt lat="39.98311" lon="-8.55315"><ele>249</ele><time>2023-01-14T12:49:09.000Z</time></trkpt><trkpt lat="39.98315" lon="-8.55317"><time>2023-01-14T12:49:19.000Z</time></trkpt><trkpt lat="39.98317" lon="-8.5532"><time>2023-01-14T12:49:29.000Z</time></trkpt><trkpt lat="39.98321" lon="-8.55324"><time>2023-01-14T12:49:39.000Z</time></trkpt><trkpt lat="39.9833" lon="-8.55325"><ele>251</ele><time>2023-01-14T12:49:49.000Z</time></trkpt><trkpt lat="39.98336" lon="-8.5533"><time>2023-01-14T12:49:59.000Z</time></trkpt><trkpt lat="39.98344" lon="-8.5533"><time>2023-01-14T12:50:09.000Z</time></trkpt><trkpt lat="39.98348" lon="-8.55335"><time>2023-01-14T12:50:19.000Z</time></trkpt><trkpt lat="39.98352" lon="-8.55337"><ele>251</ele><time>2023-01-14T12:50:29.000Z</time></trkpt><trkpt lat="39.98365" lon="-8.55343"><time>2023-01-14T12:50:39.000Z</time></trkpt><trkpt lat="39.98373" lon="-8.55346"><ele>236</ele><time>2023-01-14T12:50:49.000Z</time></trkpt><trkpt lat="39.98377" lon="-8.55348"><time>2023-01-14T12:50:59.000Z</time></trkpt><trkpt lat="39.98381" lon="-8.55348"><time>2023-01-14T12:51:09.000Z</time></trkpt><trkpt lat="39.98387" lon="-8.55344"><time>2023-01-14T12:51:19.000Z</time></trkpt><trkpt lat="39.9839" lon="-8.55345"><time>2023-01-14T12:51:29.000Z</time></trkpt><trkpt lat="39.984" lon="-8.55351"><ele>235</ele><time>2023-01-14T12:51:39.000Z</time></trkpt><trkpt lat="39.98408" lon="-8.55352"><time>2023-01-14T12:51:49.000Z</time></trkpt><trkpt lat="39.98415" lon="-8.55357"><time>2023-01-14T12:51:59.000Z</time></trkpt><trkpt lat="39.98424" lon="-8.55362"><ele>235</ele><time>2023-01-14T12:52:09.000Z</time></trkpt><trkpt lat="39.98426" lon="-8.55365"><time>2023-01-14T12:52:19.000Z</time></trkpt><trkpt lat="39.98429" lon="-8.55369"><time>2023-01-14T12:52:29.000Z</time></trkpt><trkpt lat="39.98431" lon="-8.55372"><time>2023-01-14T12:52:39.000Z</time></trkpt><trkpt lat="39.98432" lon="-8.55374"><time>2023-01-14T12:52:49.000Z</time></trkpt><trkpt lat="39.98431" lon="-8.55375"><time>2023-01-14T12:52:59.000Z</time></trkpt><trkpt lat="39.98433" lon="-8.55378"><time>2023-01-14T12:53:09.000Z</time></trkpt><trkpt lat="39.98434" lon="-8.55378"><time>2023-01-14T12:53:19.000Z</time></trkpt><trkpt lat="39.98438" lon="-8.55381"><ele>233</ele><time>2023-01-14T12:53:29.000Z</time></trkpt><trkpt lat="39.98446" lon="-8.55388"><time>2023-01-14T12:53:39.000Z</time></trkpt><trkpt lat="39.98448" lon="-8.5539"><time>2023-01-14T12:53:49.000Z</time></trkpt><trkpt lat="39.98457" lon="-8.55392"><ele>231</ele><time>2023-01-14T12:53:59.000Z</time></trkpt><trkpt lat="39.98463" lon="-8.55394"><time>2023-01-14T12:54:09.000Z</time></trkpt><trkpt lat="39.98468" lon="-8.55396"><time>2023-01-14T12:54:19.000Z</time></trkpt><trkpt lat="39.98476" lon="-8.55398"><time>2023-01-14T12:54:29.000Z</time></trkpt><trkpt lat="39.98479" lon="-8.554"><ele>220</ele><time>2023-01-14T12:54:39.000Z</time></trkpt><trkpt lat="39.98481" lon="-8.554"><time>2023-01-14T12:54:49.000Z</time></trkpt><trkpt lat="39.98488" lon="-8.55399"><time>2023-01-14T12:54:59.000Z</time></trkpt><trkpt lat="39.98487" lon="-8.55398"><time>2023-01-14T12:55:09.000Z</time></trkpt><trkpt lat="39.98491" lon="-8.554"><time>2023-01-14T12:55:19.000Z</time></trkpt><trkpt lat="39.98494" lon="-8.554"><time>2023-01-14T12:55:29.000Z</time></trkpt><trkpt lat="39.98502" lon="-8.55405"><ele>222</ele><time>2023-01-14T12:55:39.000Z</time></trkpt><trkpt lat="39.98508" lon="-8.55408"><time>2023-01-14T12:55:49.000Z</time></trkpt><trkpt lat="39.98517" lon="-8.55409"><time>2023-01-14T12:55:59.000Z</time></trkpt><trkpt lat="39.98521" lon="-8.5541"><time>2023-01-14T12:56:09.000Z</time></trkpt><trkpt lat="39.98523" lon="-8.55413"><ele>224</ele><time>2023-01-14T12:56:19.000Z</time></trkpt><trkpt lat="39.98529" lon="-8.55414"><time>2023-01-14T12:56:29.000Z</time></trkpt><trkpt lat="39.98537" lon="-8.55414"><time>2023-01-14T12:56:39.000Z</time></trkpt><trkpt lat="39.9854" lon="-8.55415"><time>2023-01-14T12:56:49.000Z</time></trkpt><trkpt lat="39.98549" lon="-8.5542"><ele>224</ele><time>2023-01-14T12:56:59.000Z</time></trkpt><trkpt lat="39.98551" lon="-8.55415"><time>2023-01-14T12:57:09.000Z</time></trkpt><trkpt lat="39.98551" lon="-8.55407"><time>2023-01-14T12:57:19.000Z</time></trkpt><trkpt lat="39.98552" lon="-8.554"><time>2023-01-14T12:57:29.000Z</time></trkpt><trkpt lat="39.98554" lon="-8.55395"><time>2023-01-14T12:57:39.000Z</time></trkpt><trkpt lat="39.98554" lon="-8.55392"><ele>240</ele><time>2023-01-14T12:57:49.000Z</time></trkpt><trkpt lat="39.98554" lon="-8.55386"><time>2023-01-14T12:57:59.000Z</time></trkpt><trkpt lat="39.98557" lon="-8.55376"><time>2023-01-14T12:58:09.000Z</time></trkpt><trkpt lat="39.98558" lon="-8.55371"><time>2023-01-14T12:58:19.000Z</time></trkpt><trkpt lat="39.9856" lon="-8.55368"><time>2023-01-14T12:58:29.000Z</time></trkpt><trkpt lat="39.98564" lon="-8.55366"><ele>247</ele><time>2023-01-14T12:58:39.000Z</time></trkpt><trkpt lat="39.98567" lon="-8.55368"><time>2023-01-14T12:58:49.000Z</time></trkpt><trkpt lat="39.98569" lon="-8.55368"><time>2023-01-14T12:58:59.000Z</time></trkpt><trkpt lat="39.98574" lon="-8.55372"><time>2023-01-14T12:59:09.000Z</time></trkpt><trkpt lat="39.98575" lon="-8.55372"><time>2023-01-14T12:59:19.000Z</time></trkpt><trkpt lat="39.98577" lon="-8.55367"><time>2023-01-14T12:59:29.000Z</time></trkpt><trkpt lat="39.98579" lon="-8.55364"><time>2023-01-14T12:59:39.000Z</time></trkpt><trkpt lat="39.98585" lon="-8.55364"><ele>249</ele><time>2023-01-14T12:54:20.000Z</time></trkpt><trkpt lat="39.98587" lon="-8.55366"><time>2023-01-14T12:54:30.000Z</time></trkpt><trkpt lat="39.98589" lon="-8.55367"><time>2023-01-14T12:54:40.000Z</time></trkpt><trkpt lat="39.98591" lon="-8.55368"><time>2023-01-14T12:54:50.000Z</time></trkpt><trkpt lat="39.98595" lon="-8.5537"><time>2023-01-14T12:55:00.000Z</time></trkpt><trkpt lat="39.98598" lon="-8.55368"><time>2023-01-14T12:55:10.000Z</time></trkpt><trkpt lat="39.98603" lon="-8.55364"><time>2023-01-14T12:55:20.000Z</time></trkpt><trkpt lat="39.98603" lon="-8.55363"><ele>253</ele><time>2023-01-14T12:54:48.000Z</time></trkpt><trkpt lat="39.986" lon="-8.55355"><time>2023-01-14T12:54:58.000Z</time></trkpt><trkpt lat="39.98601" lon="-8.55352"><time>2023-01-14T12:55:08.000Z</time></trkpt><trkpt lat="39.98601" lon="-8.5535"><time>2023-01-14T12:55:18.000Z</time></trkpt><trkpt lat="39.98595" lon="-8.55342"><time>2023-01-14T12:55:28.000Z</time></trkpt><trkpt lat="39.98594" lon="-8.55338"><ele>257</ele><time>2023-01-14T12:55:17.000Z</time></trkpt><trkpt lat="39.98585" lon="-8.55324"><time>2023-01-14T12:55:27.000Z</time></trkpt><trkpt lat="39.98583" lon="-8.5532"><time>2023-01-14T12:55:37.000Z</time></trkpt><trkpt lat="39.98581" lon="-8.55312"><ele>257</ele><time>2023-01-14T12:55:47.000Z</time></trkpt><trkpt lat="39.98579" lon="-8.55308"><time>2023-01-14T12:55:57.000Z</time></trkpt><trkpt lat="39.98578" lon="-8.55305"><time>2023-01-14T12:56:07.000Z</time></trkpt><trkpt lat="39.98575" lon="-8.55303"><time>2023-01-14T12:56:17.000Z</time></trkpt><trkpt lat="39.98575" lon="-8.55302"><time>2023-01-14T12:56:27.000Z</time></trkpt><trkpt lat="39.98575" lon="-8.55298"><time>2023-01-14T12:56:37.000Z</time></trkpt><trkpt lat="39.98574" lon="-8.55292"><time>2023-01-14T12:56:47.000Z</time></trkpt><trkpt lat="39.98574" lon="-8.55286"><ele>279</ele><time>2023-01-14T12:56:57.000Z</time></trkpt><trkpt lat="39.98572" lon="-8.55282"><time>2023-01-14T12:57:07.000Z</time></trkpt><trkpt lat="39.98571" lon="-8.55277"><time>2023-01-14T12:57:17.000Z</time></trkpt><trkpt lat="39.98571" lon="-8.55273"><time>2023-01-14T12:57:27.000Z</time></trkpt><trkpt lat="39.9857" lon="-8.55272"><time>2023-01-14T12:57:37.000Z</time></trkpt><trkpt lat="39.98566" lon="-8.55269"><time>2023-01-14T12:57:47.000Z</time></trkpt><trkpt lat="39.98566" lon="-8.55266"><time>2023-01-14T12:57:57.000Z</time></trkpt><trkpt lat="39.98566" lon="-8.55259"><ele>280</ele><time>2023-01-14T12:56:53.000Z</time></trkpt><trkpt lat="39.98568" lon="-8.55252"><time>2023-01-14T12:57:03.000Z</time></trkpt><trkpt lat="39.98568" lon="-8.55246"><time>2023-01-14T12:57:13.000Z</time></trkpt><trkpt lat="39.9857" lon="-8.55243"><time>2023-01-14T12:57:23.000Z</time></trkpt><trkpt lat="39.98578" lon="-8.55234"><ele>282</ele><time>2023-01-14T12:57:29.000Z</time></trkpt><trkpt lat="39.98579" lon="-8.5523"><time>2023-01-14T12:57:39.000Z</time></trkpt><trkpt lat="39.98579" lon="-8.55227"><time>2023-01-14T12:57:49.000Z</time></trkpt><trkpt lat="39.98579" lon="-8.55226"><time>2023-01-14T12:57:59.000Z</time></trkpt><trkpt lat="39.98582" lon="-8.55222"><time>2023-01-14T12:58:09.000Z</time></trkpt><trkpt lat="39.98585" lon="-8.55222"><time>2023-01-14T12:58:19.000Z</time></trkpt><trkpt lat="39.98585" lon="-8.55221"><time>2023-01-14T12:58:29.000Z</time></trkpt><trkpt lat="39.98582" lon="-8.55217"><time>2023-01-14T12:58:39.000Z</time></trkpt><trkpt lat="39.98581" lon="-8.55213"><ele>289</ele><time>2023-01-14T12:58:05.000Z</time></trkpt><trkpt lat="39.98582" lon="-8.55209"><time>2023-01-14T12:58:15.000Z</time></trkpt><trkpt lat="39.98584" lon="-8.55206"><time>2023-01-14T12:58:25.000Z</time></trkpt><trkpt lat="39.98584" lon="-8.55203"><time>2023-01-14T12:58:35.000Z</time></trkpt><trkpt lat="39.98585" lon="-8.552"><time>2023-01-14T12:58:45.000Z</time></trkpt><trkpt lat="39.98589" lon="-8.55197"><time>2023-01-14T12:58:55.000Z</time></trkpt><trkpt lat="39.98595" lon="-8.55195"><ele>305</ele><time>2023-01-14T12:58:49.000Z</time></trkpt><trkpt lat="39.98604" lon="-8.55188"><time>2023-01-14T12:58:59.000Z</time></trkpt><trkpt lat="39.98606" lon="-8.55187"><time>2023-01-14T12:59:09.000Z</time></trkpt><trkpt lat="39.98616" lon="-8.55188"><ele>310</ele><time>2023-01-14T12:59:24.000Z</time></trkpt><trkpt lat="39.98631" lon="-8.55182"><time>2023-01-14T12:59:34.000Z</time></trkpt><trkpt lat="39.98635" lon="-8.55178"><time>2023-01-14T12:59:44.000Z</time></trkpt><trkpt lat="39.98639" lon="-8.55177"><ele>313</ele><time>2023-01-14T12:59:55.000Z</time></trkpt><trkpt lat="39.98642" lon="-8.55177"><time>2023-01-14T13:00:05.000Z</time></trkpt><trkpt lat="39.98644" lon="-8.55178"><time>2023-01-14T13:00:15.000Z</time></trkpt><trkpt lat="39.98645" lon="-8.5518"><time>2023-01-14T13:00:25.000Z</time></trkpt><trkpt lat="39.98645" lon="-8.5518"><time>2023-01-14T13:00:35.000Z</time></trkpt><trkpt lat="39.98646" lon="-8.55184"><time>2023-01-14T13:00:45.000Z</time></trkpt><trkpt lat="39.98646" lon="-8.552"><ele>313</ele><time>2023-01-14T13:00:24.000Z</time></trkpt><trkpt lat="39.98646" lon="-8.55204"><time>2023-01-14T13:00:34.000Z</time></trkpt><trkpt lat="39.9865" lon="-8.55211"><time>2023-01-14T13:00:44.000Z</time></trkpt><trkpt lat="39.9865" lon="-8.55213"><time>2023-01-14T13:00:54.000Z</time></trkpt><trkpt lat="39.98653" lon="-8.55218"><time>2023-01-14T13:01:04.000Z</time></trkpt><trkpt lat="39.98655" lon="-8.55218"><time>2023-01-14T13:01:14.000Z</time></trkpt><trkpt lat="39.98658" lon="-8.55214"><ele>314</ele><time>2023-01-14T13:01:24.000Z</time></trkpt><trkpt lat="39.98659" lon="-8.55214"><time>2023-01-14T13:01:34.000Z</time></trkpt><trkpt lat="39.98661" lon="-8.55216"><time>2023-01-14T13:01:44.000Z</time></trkpt><trkpt lat="39.98662" lon="-8.55215"><time>2023-01-14T13:01:54.000Z</time></trkpt><trkpt lat="39.98662" lon="-8.55212"><time>2023-01-14T13:02:04.000Z</time></trkpt><trkpt lat="39.98663" lon="-8.55213"><time>2023-01-14T13:02:14.000Z</time></trkpt><trkpt lat="39.98662" lon="-8.55215"><time>2023-01-14T13:02:24.000Z</time></trkpt><trkpt lat="39.98661" lon="-8.55214"><time>2023-01-14T13:02:34.000Z</time></trkpt><trkpt lat="39.98662" lon="-8.55214"><time>2023-01-14T13:02:44.000Z</time></trkpt><trkpt lat="39.98663" lon="-8.55213"><time>2023-01-14T13:02:54.000Z</time></trkpt><trkpt lat="39.98674" lon="-8.55214"><ele>322</ele><time>2023-01-14T13:01:51.000Z</time></trkpt><trkpt lat="39.98676" lon="-8.55215"><time>2023-01-14T13:02:01.000Z</time></trkpt><trkpt lat="39.98684" lon="-8.55217"><time>2023-01-14T13:02:11.000Z</time></trkpt><trkpt lat="39.98688" lon="-8.55217"><time>2023-01-14T13:02:21.000Z</time></trkpt><trkpt lat="39.98688" lon="-8.55217"><time>2023-01-14T13:02:31.000Z</time></trkpt><trkpt lat="39.98688" lon="-8.55219"><time>2023-01-14T13:02:41.000Z</time></trkpt><trkpt lat="39.98689" lon="-8.55219"><time>2023-01-14T13:02:51.000Z</time></trkpt><trkpt lat="39.98693" lon="-8.55219"><ele>324</ele><time>2023-01-14T13:02:24.000Z</time></trkpt><trkpt lat="39.987" lon="-8.55221"><time>2023-01-14T13:02:34.000Z</time></trkpt><trkpt lat="39.98707" lon="-8.55219"><time>2023-01-14T13:02:44.000Z</time></trkpt><trkpt lat="39.98709" lon="-8.55217"><time>2023-01-14T13:02:54.000Z</time></trkpt><trkpt lat="39.98711" lon="-8.55217"><time>2023-01-14T13:03:04.000Z</time></trkpt><trkpt lat="39.98716" lon="-8.55219"><ele>325</ele><time>2023-01-14T13:02:43.000Z</time></trkpt><trkpt lat="39.98726" lon="-8.5522"><time>2023-01-14T13:02:53.000Z</time></trkpt><trkpt lat="39.98739" lon="-8.55226"><ele>325</ele><time>2023-01-14T13:03:03.000Z</time></trkpt><trkpt lat="39.98747" lon="-8.55228"><time>2023-01-14T13:03:13.000Z</time></trkpt><trkpt lat="39.98756" lon="-8.55225"><time>2023-01-14T13:03:23.000Z</time></trkpt><trkpt lat="39.98762" lon="-8.55222"><ele>327</ele><time>2023-01-14T13:03:33.000Z</time></trkpt><trkpt lat="39.98766" lon="-8.55223"><time>2023-01-14T13:03:43.000Z</time></trkpt><trkpt lat="39.98787" lon="-8.55221"><ele>327</ele><time>2023-01-14T13:03:53.000Z</time></trkpt><trkpt lat="39.98793" lon="-8.55219"><time>2023-01-14T13:04:03.000Z</time></trkpt><trkpt lat="39.98796" lon="-8.55216"><time>2023-01-14T13:04:13.000Z</time></trkpt><trkpt lat="39.98802" lon="-8.55216"><time>2023-01-14T13:04:23.000Z</time></trkpt><trkpt lat="39.98808" lon="-8.55215"><ele>327</ele><time>2023-01-14T13:04:33.000Z</time></trkpt><trkpt lat="39.98821" lon="-8.55215"><time>2023-01-14T13:04:43.000Z</time></trkpt><trkpt lat="39.98828" lon="-8.55212"><time>2023-01-14T13:04:53.000Z</time></trkpt><trkpt lat="39.9883" lon="-8.55212"><ele>324</ele><time>2023-01-14T13:05:03.000Z</time></trkpt><trkpt lat="39.98834" lon="-8.55213"><time>2023-01-14T13:05:13.000Z</time></trkpt><trkpt lat="39.98837" lon="-8.55212"><time>2023-01-14T13:05:23.000Z</time></trkpt><trkpt lat="39.9884" lon="-8.55213"><time>2023-01-14T13:05:33.000Z</time></trkpt><trkpt lat="39.98844" lon="-8.55214"><time>2023-01-14T13:05:43.000Z</time></trkpt><trkpt lat="39.98849" lon="-8.55212"><time>2023-01-14T13:05:53.000Z</time></trkpt><trkpt lat="39.98856" lon="-8.55211"><ele>324</ele><time>2023-01-14T13:06:03.000Z</time></trkpt><trkpt lat="39.98864" lon="-8.55208"><time>2023-01-14T13:06:13.000Z</time></trkpt><trkpt lat="39.98872" lon="-8.55211"><time>2023-01-14T13:06:23.000Z</time></trkpt><trkpt lat="39.98877" lon="-8.5521"><ele>324</ele><time>2023-01-14T13:06:33.000Z</time></trkpt><trkpt lat="39.98884" lon="-8.55208"><time>2023-01-14T13:06:43.000Z</time></trkpt><trkpt lat="39.98887" lon="-8.55205"><time>2023-01-14T13:06:53.000Z</time></trkpt><trkpt lat="39.98892" lon="-8.55204"><time>2023-01-14T13:07:03.000Z</time></trkpt><trkpt lat="39.98901" lon="-8.55199"><ele>336</ele><time>2023-01-14T13:07:13.000Z</time></trkpt><trkpt lat="39.98905" lon="-8.55195"><time>2023-01-14T13:07:23.000Z</time></trkpt><trkpt lat="39.98913" lon="-8.55192"><time>2023-01-14T13:07:33.000Z</time></trkpt><trkpt lat="39.9892" lon="-8.55187"><ele>336</ele><time>2023-01-14T13:07:43.000Z</time></trkpt><trkpt lat="39.98929" lon="-8.55185"><time>2023-01-14T13:07:53.000Z</time></trkpt><trkpt lat="39.98935" lon="-8.55183"><time>2023-01-14T13:08:03.000Z</time></trkpt><trkpt lat="39.98939" lon="-8.55181"><time>2023-01-14T13:08:13.000Z</time></trkpt><trkpt lat="39.98944" lon="-8.5518"><ele>338</ele><time>2023-01-14T13:08:23.000Z</time></trkpt><trkpt lat="39.98947" lon="-8.55178"><time>2023-01-14T13:08:33.000Z</time></trkpt><trkpt lat="39.98952" lon="-8.55176"><time>2023-01-14T13:08:43.000Z</time></trkpt><trkpt lat="39.98961" lon="-8.55178"><time>2023-01-14T13:08:53.000Z</time></trkpt><trkpt lat="39.98969" lon="-8.55175"><ele>341</ele><time>2023-01-14T13:09:03.000Z</time></trkpt><trkpt lat="39.98973" lon="-8.55175"><time>2023-01-14T13:09:13.000Z</time></trkpt><trkpt lat="39.98977" lon="-8.5517"><time>2023-01-14T13:09:23.000Z</time></trkpt><trkpt lat="39.98981" lon="-8.5517"><time>2023-01-14T13:09:33.000Z</time></trkpt><trkpt lat="39.98987" lon="-8.55171"><time>2023-01-14T13:09:43.000Z</time></trkpt><trkpt lat="39.98993" lon="-8.55171"><ele>345</ele><time>2023-01-14T13:09:53.000Z</time></trkpt><trkpt lat="39.98999" lon="-8.55168"><time>2023-01-14T13:10:03.000Z</time></trkpt><trkpt lat="39.99006" lon="-8.55168"><time>2023-01-14T13:10:13.000Z</time></trkpt><trkpt lat="39.99012" lon="-8.55167"><time>2023-01-14T13:10:23.000Z</time></trkpt><trkpt lat="39.99015" lon="-8.55165"><ele>345</ele><time>2023-01-14T13:10:33.000Z</time></trkpt><trkpt lat="39.99018" lon="-8.55165"><time>2023-01-14T13:10:43.000Z</time></trkpt><trkpt lat="39.99021" lon="-8.55163"><time>2023-01-14T13:10:53.000Z</time></trkpt><trkpt lat="39.99024" lon="-8.55163"><time>2023-01-14T13:11:03.000Z</time></trkpt><trkpt lat="39.99028" lon="-8.55163"><time>2023-01-14T13:11:13.000Z</time></trkpt><trkpt lat="39.99033" lon="-8.55167"><time>2023-01-14T13:11:23.000Z</time></trkpt><trkpt lat="39.99038" lon="-8.55168"><ele>350</ele><time>2023-01-14T13:11:33.000Z</time></trkpt><trkpt lat="39.9904" lon="-8.55169"><time>2023-01-14T13:11:43.000Z</time></trkpt><trkpt lat="39.99045" lon="-8.55168"><time>2023-01-14T13:11:53.000Z</time></trkpt><trkpt lat="39.99048" lon="-8.55167"><time>2023-01-14T13:12:03.000Z</time></trkpt><trkpt lat="39.99054" lon="-8.55167"><time>2023-01-14T13:12:13.000Z</time></trkpt><trkpt lat="39.99059" lon="-8.55165"><ele>352</ele><time>2023-01-14T13:12:23.000Z</time></trkpt><trkpt lat="39.9906" lon="-8.55165"><time>2023-01-14T13:12:33.000Z</time></trkpt><trkpt lat="39.99063" lon="-8.55167"><time>2023-01-14T13:12:43.000Z</time></trkpt><trkpt lat="39.99066" lon="-8.55167"><time>2023-01-14T13:12:53.000Z</time></trkpt><trkpt lat="39.9907" lon="-8.55167"><time>2023-01-14T13:13:03.000Z</time></trkpt><trkpt lat="39.9908" lon="-8.5516"><ele>356</ele><time>2023-01-14T13:13:13.000Z</time></trkpt><trkpt lat="39.99081" lon="-8.55158"><time>2023-01-14T13:13:23.000Z</time></trkpt><trkpt lat="39.99083" lon="-8.55157"><time>2023-01-14T13:13:33.000Z</time></trkpt><trkpt lat="39.9909" lon="-8.5515"><time>2023-01-14T13:13:43.000Z</time></trkpt><trkpt lat="39.99095" lon="-8.55151"><time>2023-01-14T13:13:53.000Z</time></trkpt><trkpt lat="39.99098" lon="-8.55148"><ele>362</ele><time>2023-01-14T13:14:03.000Z</time></trkpt><trkpt lat="39.99105" lon="-8.55144"><time>2023-01-14T13:14:13.000Z</time></trkpt><trkpt lat="39.99112" lon="-8.55137"><time>2023-01-14T13:14:23.000Z</time></trkpt><trkpt lat="39.99114" lon="-8.55136"><time>2023-01-14T13:14:33.000Z</time></trkpt><trkpt lat="39.99119" lon="-8.55139"><ele>361</ele><time>2023-01-14T13:14:43.000Z</time></trkpt><trkpt lat="39.99122" lon="-8.55139"><time>2023-01-14T13:14:53.000Z</time></trkpt><trkpt lat="39.99127" lon="-8.55136"><time>2023-01-14T13:15:03.000Z</time></trkpt><trkpt lat="39.99133" lon="-8.55134"><time>2023-01-14T13:15:13.000Z</time></trkpt><trkpt lat="39.99137" lon="-8.55132"><time>2023-01-14T13:15:23.000Z</time></trkpt><trkpt lat="39.99143" lon="-8.55125"><ele>361</ele><time>2023-01-14T13:15:33.000Z</time></trkpt><trkpt lat="39.99149" lon="-8.55125"><time>2023-01-14T13:15:43.000Z</time></trkpt><trkpt lat="39.99151" lon="-8.55124"><time>2023-01-14T13:15:53.000Z</time></trkpt><trkpt lat="39.99154" lon="-8.55122"><time>2023-01-14T13:16:03.000Z</time></trkpt><trkpt lat="39.99155" lon="-8.55118"><time>2023-01-14T13:16:13.000Z</time></trkpt><trkpt lat="39.99157" lon="-8.55117"><time>2023-01-14T13:16:23.000Z</time></trkpt><trkpt lat="39.99163" lon="-8.55115"><ele>357</ele><time>2023-01-14T13:16:33.000Z</time></trkpt><trkpt lat="39.99167" lon="-8.55115"><time>2023-01-14T13:16:43.000Z</time></trkpt><trkpt lat="39.99172" lon="-8.55114"><time>2023-01-14T13:16:53.000Z</time></trkpt><trkpt lat="39.99177" lon="-8.55113"><time>2023-01-14T13:17:03.000Z</time></trkpt><trkpt lat="39.9918" lon="-8.55114"><time>2023-01-14T13:17:13.000Z</time></trkpt><trkpt lat="39.99185" lon="-8.55114"><ele>357</ele><time>2023-01-14T13:17:23.000Z</time></trkpt><trkpt lat="39.99191" lon="-8.55109"><time>2023-01-14T13:17:33.000Z</time></trkpt><trkpt lat="39.99194" lon="-8.55109"><time>2023-01-14T13:17:43.000Z</time></trkpt><trkpt lat="39.99212" lon="-8.55116"><ele>336</ele><time>2023-01-14T13:17:53.000Z</time></trkpt><trkpt lat="39.99217" lon="-8.55115"><time>2023-01-14T13:18:03.000Z</time></trkpt><trkpt lat="39.99237" lon="-8.55119"><ele>336</ele><time>2023-01-14T13:18:13.000Z</time></trkpt><trkpt lat="39.9924" lon="-8.55119"><time>2023-01-14T13:18:23.000Z</time></trkpt><trkpt lat="39.9925" lon="-8.55117"><time>2023-01-14T13:18:33.000Z</time></trkpt><trkpt lat="39.99252" lon="-8.55118"><time>2023-01-14T13:18:43.000Z</time></trkpt><trkpt lat="39.99256" lon="-8.55119"><time>2023-01-14T13:18:53.000Z</time></trkpt><trkpt lat="39.99262" lon="-8.55118"><ele>336</ele><time>2023-01-14T13:19:03.000Z</time></trkpt><trkpt lat="39.99267" lon="-8.55116"><time>2023-01-14T13:19:13.000Z</time></trkpt><trkpt lat="39.99276" lon="-8.55118"><time>2023-01-14T13:19:23.000Z</time></trkpt><trkpt lat="39.99291" lon="-8.55118"><ele>336</ele><time>2023-01-14T13:19:33.000Z</time></trkpt><trkpt lat="39.99299" lon="-8.5512"><time>2023-01-14T13:19:43.000Z</time></trkpt><trkpt lat="39.99316" lon="-8.55128"><ele>315</ele><time>2023-01-14T13:19:53.000Z</time></trkpt><trkpt lat="39.99316" lon="-8.55127"><time>2023-01-14T13:20:03.000Z</time></trkpt><trkpt lat="39.9932" lon="-8.5513"><time>2023-01-14T13:20:13.000Z</time></trkpt><trkpt lat="39.99327" lon="-8.55133"><time>2023-01-14T13:20:23.000Z</time></trkpt><trkpt lat="39.99336" lon="-8.55134"><ele>310</ele><time>2023-01-14T13:20:33.000Z</time></trkpt><trkpt lat="39.99341" lon="-8.55137"><time>2023-01-14T13:20:43.000Z</time></trkpt><trkpt lat="39.99349" lon="-8.55142"><time>2023-01-14T13:20:53.000Z</time></trkpt><trkpt lat="39.99365" lon="-8.55149"><ele>303</ele><time>2023-01-14T13:21:03.000Z</time></trkpt><trkpt lat="39.99369" lon="-8.55152"><time>2023-01-14T13:21:13.000Z</time></trkpt><trkpt lat="39.99378" lon="-8.55153"><time>2023-01-14T13:21:23.000Z</time></trkpt><trkpt lat="39.99381" lon="-8.55154"><time>2023-01-14T13:21:33.000Z</time></trkpt><trkpt lat="39.99382" lon="-8.55154"><time>2023-01-14T13:21:43.000Z</time></trkpt><trkpt lat="39.99383" lon="-8.55154"><time>2023-01-14T13:21:53.000Z</time></trkpt><trkpt lat="39.99389" lon="-8.55158"><ele>299</ele><time>2023-01-14T13:22:03.000Z</time></trkpt><trkpt lat="39.9939" lon="-8.5516"><time>2023-01-14T13:22:13.000Z</time></trkpt><trkpt lat="39.9939" lon="-8.55161"><time>2023-01-14T13:22:23.000Z</time></trkpt><trkpt lat="39.99388" lon="-8.55164"><time>2023-01-14T13:22:33.000Z</time></trkpt><trkpt lat="39.99387" lon="-8.55165"><time>2023-01-14T13:22:43.000Z</time></trkpt><trkpt lat="39.99382" lon="-8.55167"><time>2023-01-14T13:22:53.000Z</time></trkpt><trkpt lat="39.99377" lon="-8.55173"><time>2023-01-14T13:23:03.000Z</time></trkpt><trkpt lat="39.99362" lon="-8.55178"><ele>296</ele><time>2023-01-14T13:13:16.000Z</time></trkpt><trkpt lat="39.99353" lon="-8.55179"><time>2023-01-14T13:13:26.000Z</time></trkpt><trkpt lat="39.99336" lon="-8.55185"><ele>291</ele><time>2023-01-14T13:13:34.000Z</time></trkpt><trkpt lat="39.99322" lon="-8.55192"><time>2023-01-14T13:13:44.000Z</time></trkpt><trkpt lat="39.99312" lon="-8.55198"><ele>290</ele><time>2023-01-14T13:13:54.000Z</time></trkpt><trkpt lat="39.99308" lon="-8.55201"><time>2023-01-14T13:14:04.000Z</time></trkpt><trkpt lat="39.99302" lon="-8.55209"><time>2023-01-14T13:14:14.000Z</time></trkpt><trkpt lat="39.99303" lon="-8.55209"><time>2023-01-14T13:14:24.000Z</time></trkpt><trkpt lat="39.99303" lon="-8.5521"><time>2023-01-14T13:14:34.000Z</time></trkpt><trkpt lat="39.99303" lon="-8.5521"><time>2023-01-14T13:14:44.000Z</time></trkpt><trkpt lat="39.99298" lon="-8.55214"><ele>285</ele><time>2023-01-14T13:14:20.000Z</time></trkpt><trkpt lat="39.99288" lon="-8.55226"><time>2023-01-14T13:14:30.000Z</time></trkpt><trkpt lat="39.99282" lon="-8.55231"><ele>282</ele><time>2023-01-14T13:14:40.000Z</time></trkpt><trkpt lat="39.99276" lon="-8.55238"><time>2023-01-14T13:14:50.000Z</time></trkpt><trkpt lat="39.99266" lon="-8.55246"><time>2023-01-14T13:15:00.000Z</time></trkpt><trkpt lat="39.9926" lon="-8.55254"><ele>280</ele><time>2023-01-14T13:15:10.000Z</time></trkpt><trkpt lat="39.99257" lon="-8.55254"><time>2023-01-14T13:15:20.000Z</time></trkpt><trkpt lat="39.99255" lon="-8.55258"><time>2023-01-14T13:15:30.000Z</time></trkpt><trkpt lat="39.99245" lon="-8.55268"><time>2023-01-14T13:15:40.000Z</time></trkpt><trkpt lat="39.99244" lon="-8.55272"><ele>271</ele><time>2023-01-14T13:15:50.000Z</time></trkpt><trkpt lat="39.99241" lon="-8.55275"><time>2023-01-14T13:16:00.000Z</time></trkpt><trkpt lat="39.99238" lon="-8.55278"><time>2023-01-14T13:16:10.000Z</time></trkpt><trkpt lat="39.99234" lon="-8.55279"><time>2023-01-14T13:16:20.000Z</time></trkpt><trkpt lat="39.99228" lon="-8.55285"><time>2023-01-14T13:16:30.000Z</time></trkpt><trkpt lat="39.99222" lon="-8.5529"><ele>267</ele><time>2023-01-14T13:16:40.000Z</time></trkpt><trkpt lat="39.99218" lon="-8.55293"><time>2023-01-14T13:16:50.000Z</time></trkpt><trkpt lat="39.99211" lon="-8.55296"><time>2023-01-14T13:17:00.000Z</time></trkpt><trkpt lat="39.99209" lon="-8.553"><time>2023-01-14T13:17:10.000Z</time></trkpt><trkpt lat="39.99204" lon="-8.5531"><ele>263</ele><time>2023-01-14T13:17:20.000Z</time></trkpt><trkpt lat="39.99202" lon="-8.55312"><time>2023-01-14T13:17:30.000Z</time></trkpt><trkpt lat="39.99201" lon="-8.55323"><time>2023-01-14T13:17:40.000Z</time></trkpt><trkpt lat="39.99204" lon="-8.55344"><ele>251</ele><time>2023-01-14T13:17:50.000Z</time></trkpt><trkpt lat="39.99204" lon="-8.55357"><time>2023-01-14T13:18:00.000Z</time></trkpt><trkpt lat="39.99206" lon="-8.55364"><time>2023-01-14T13:18:10.000Z</time></trkpt><trkpt lat="39.99206" lon="-8.55367"><time>2023-01-14T13:18:20.000Z</time></trkpt><trkpt lat="39.99205" lon="-8.55366"><time>2023-01-14T13:18:30.000Z</time></trkpt><trkpt lat="39.99201" lon="-8.55367"><ele>251</ele><time>2023-01-14T13:18:40.000Z</time></trkpt><trkpt lat="39.99187" lon="-8.55369"><time>2023-01-14T13:18:50.000Z</time></trkpt><trkpt lat="39.99178" lon="-8.55374"><ele>240</ele><time>2023-01-14T13:19:00.000Z</time></trkpt><trkpt lat="39.99164" lon="-8.55379"><time>2023-01-14T13:19:10.000Z</time></trkpt><trkpt lat="39.99151" lon="-8.55381"><ele>240</ele><time>2023-01-14T13:19:20.000Z</time></trkpt><trkpt lat="39.99146" lon="-8.55385"><time>2023-01-14T13:19:30.000Z</time></trkpt><trkpt lat="39.99134" lon="-8.55388"><time>2023-01-14T13:19:40.000Z</time></trkpt><trkpt lat="39.99124" lon="-8.55393"><ele>242</ele><time>2023-01-14T13:19:50.000Z</time></trkpt><trkpt lat="39.99114" lon="-8.55402"><time>2023-01-14T13:20:00.000Z</time></trkpt><trkpt lat="39.99107" lon="-8.55405"><time>2023-01-14T13:20:10.000Z</time></trkpt><trkpt lat="39.99099" lon="-8.55409"><ele>241</ele><time>2023-01-14T13:20:20.000Z</time></trkpt><trkpt lat="39.99094" lon="-8.55414"><time>2023-01-14T13:20:30.000Z</time></trkpt><trkpt lat="39.99092" lon="-8.55416"><time>2023-01-14T13:20:40.000Z</time></trkpt><trkpt lat="39.99089" lon="-8.55429"><time>2023-01-14T13:20:50.000Z</time></trkpt><trkpt lat="39.9909" lon="-8.55441"><ele>240</ele><time>2023-01-14T13:21:00.000Z</time></trkpt><trkpt lat="39.99089" lon="-8.55459"><time>2023-01-14T13:21:10.000Z</time></trkpt><trkpt lat="39.99087" lon="-8.55464"><time>2023-01-14T13:21:20.000Z</time></trkpt><trkpt lat="39.9908" lon="-8.55475"><ele>238</ele><time>2023-01-14T13:21:30.000Z</time></trkpt><trkpt lat="39.99078" lon="-8.55483"><time>2023-01-14T13:21:40.000Z</time></trkpt><trkpt lat="39.99078" lon="-8.55489"><time>2023-01-14T13:21:50.000Z</time></trkpt><trkpt lat="39.99078" lon="-8.5549"><time>2023-01-14T13:22:00.000Z</time></trkpt><trkpt lat="39.99077" lon="-8.55492"><time>2023-01-14T13:22:10.000Z</time></trkpt><trkpt lat="39.99079" lon="-8.55502"><ele>236</ele><time>2023-01-14T13:22:20.000Z</time></trkpt><trkpt lat="39.99077" lon="-8.55513"><time>2023-01-14T13:22:30.000Z</time></trkpt><trkpt lat="39.9908" lon="-8.55524"><time>2023-01-14T13:22:40.000Z</time></trkpt><trkpt lat="39.9908" lon="-8.55527"><time>2023-01-14T13:22:50.000Z</time></trkpt><trkpt lat="39.99081" lon="-8.55531"><ele>233</ele><time>2023-01-14T13:23:00.000Z</time></trkpt><trkpt lat="39.99081" lon="-8.55535"><time>2023-01-14T13:23:10.000Z</time></trkpt><trkpt lat="39.99081" lon="-8.55537"><time>2023-01-14T13:23:20.000Z</time></trkpt><trkpt lat="39.99078" lon="-8.55541"><time>2023-01-14T13:23:30.000Z</time></trkpt><trkpt lat="39.99073" lon="-8.55549"><time>2023-01-14T13:23:40.000Z</time></trkpt><trkpt lat="39.99051" lon="-8.5557"><ele>232</ele><time>2023-01-14T13:20:23.000Z</time></trkpt><trkpt lat="39.99049" lon="-8.55575"><time>2023-01-14T13:20:33.000Z</time></trkpt><trkpt lat="39.99049" lon="-8.55581"><time>2023-01-14T13:20:43.000Z</time></trkpt><trkpt lat="39.99048" lon="-8.55584"><time>2023-01-14T13:20:53.000Z</time></trkpt><trkpt lat="39.99056" lon="-8.55593"><ele>231</ele><time>2023-01-14T13:20:44.000Z</time></trkpt><trkpt lat="39.99059" lon="-8.55595"><time>2023-01-14T13:20:54.000Z</time></trkpt><trkpt lat="39.99065" lon="-8.55599"><time>2023-01-14T13:21:04.000Z</time></trkpt><trkpt lat="39.99069" lon="-8.55599"><time>2023-01-14T13:21:14.000Z</time></trkpt><trkpt lat="39.99073" lon="-8.55596"><time>2023-01-14T13:21:24.000Z</time></trkpt><trkpt lat="39.99077" lon="-8.55593"><ele>226</ele><time>2023-01-14T13:21:02.000Z</time></trkpt><trkpt lat="39.99082" lon="-8.55592"><time>2023-01-14T13:21:12.000Z</time></trkpt><trkpt lat="39.99087" lon="-8.55592"><time>2023-01-14T13:21:22.000Z</time></trkpt><trkpt lat="39.99097" lon="-8.55597"><time>2023-01-14T13:21:32.000Z</time></trkpt><trkpt lat="39.99099" lon="-8.55599"><ele>226</ele><time>2023-01-14T13:21:42.000Z</time></trkpt><trkpt lat="39.991" lon="-8.55599"><time>2023-01-14T13:21:52.000Z</time></trkpt><trkpt lat="39.991" lon="-8.55599"><time>2023-01-14T13:22:02.000Z</time></trkpt><trkpt lat="39.99099" lon="-8.55606"><time>2023-01-14T13:22:12.000Z</time></trkpt><trkpt lat="39.99096" lon="-8.55612"><time>2023-01-14T13:22:22.000Z</time></trkpt><trkpt lat="39.99092" lon="-8.55626"><ele>225</ele><time>2023-01-14T13:21:41.000Z</time></trkpt><trkpt lat="39.99091" lon="-8.55636"><time>2023-01-14T13:21:51.000Z</time></trkpt><trkpt lat="39.99091" lon="-8.55644"><time>2023-01-14T13:22:01.000Z</time></trkpt><trkpt lat="39.9909" lon="-8.5566"><ele>223</ele><time>2023-01-14T13:22:01.000Z</time></trkpt><trkpt lat="39.99093" lon="-8.55671"><time>2023-01-14T13:22:11.000Z</time></trkpt><trkpt lat="39.99094" lon="-8.55683"><time>2023-01-14T13:22:21.000Z</time></trkpt><trkpt lat="39.99097" lon="-8.55686"><ele>220</ele><time>2023-01-14T13:22:31.000Z</time></trkpt><trkpt lat="39.99101" lon="-8.55694"><time>2023-01-14T13:22:41.000Z</time></trkpt><trkpt lat="39.99102" lon="-8.55703"><time>2023-01-14T13:22:51.000Z</time></trkpt><trkpt lat="39.99107" lon="-8.55721"><ele>214</ele><time>2023-01-14T13:22:42.000Z</time></trkpt><trkpt lat="39.99109" lon="-8.55737"><time>2023-01-14T13:22:52.000Z</time></trkpt><trkpt lat="39.99108" lon="-8.55751"><ele>210</ele><time>2023-01-14T13:22:58.000Z</time></trkpt><trkpt lat="39.99106" lon="-8.55767"><time>2023-01-14T13:23:08.000Z</time></trkpt><trkpt lat="39.99105" lon="-8.5577"><time>2023-01-14T13:23:18.000Z</time></trkpt><trkpt lat="39.99104" lon="-8.55773"><time>2023-01-14T13:23:28.000Z</time></trkpt><trkpt lat="39.99099" lon="-8.55776"><ele>207</ele><time>2023-01-14T13:23:18.000Z</time></trkpt><trkpt lat="39.99098" lon="-8.5578"><time>2023-01-14T13:23:28.000Z</time></trkpt><trkpt lat="39.99092" lon="-8.55788"><time>2023-01-14T13:23:38.000Z</time></trkpt><trkpt lat="39.99088" lon="-8.55799"><ele>206</ele><time>2023-01-14T13:23:36.000Z</time></trkpt><trkpt lat="39.99082" lon="-8.55809"><time>2023-01-14T13:23:46.000Z</time></trkpt><trkpt lat="39.99083" lon="-8.55812"><time>2023-01-14T13:23:56.000Z</time></trkpt><trkpt lat="39.99078" lon="-8.55827"><ele>206</ele><time>2023-01-14T13:24:06.000Z</time></trkpt><trkpt lat="39.99089" lon="-8.5583"><time>2023-01-14T13:24:16.000Z</time></trkpt><trkpt lat="39.99092" lon="-8.55825"><time>2023-01-14T13:24:26.000Z</time></trkpt><trkpt lat="39.99099" lon="-8.55821"><ele>206</ele><time>2023-01-14T13:24:36.000Z</time></trkpt><trkpt lat="39.991" lon="-8.5582"><time>2023-01-14T13:24:46.000Z</time></trkpt><trkpt lat="39.99103" lon="-8.55806"><time>2023-01-14T13:24:56.000Z</time></trkpt><trkpt lat="39.99106" lon="-8.55799"><time>2023-01-14T13:25:06.000Z</time></trkpt><trkpt lat="39.99109" lon="-8.55797"><ele>207</ele><time>2023-01-14T13:25:16.000Z</time></trkpt><trkpt lat="39.99111" lon="-8.55796"><time>2023-01-14T13:25:26.000Z</time></trkpt><trkpt lat="39.99115" lon="-8.55793"><time>2023-01-14T13:25:36.000Z</time></trkpt><trkpt lat="39.99117" lon="-8.5579"><time>2023-01-14T13:25:46.000Z</time></trkpt><trkpt lat="39.99122" lon="-8.55778"><time>2023-01-14T13:25:56.000Z</time></trkpt><trkpt lat="39.99125" lon="-8.55773"><ele>208</ele><time>2023-01-14T13:26:06.000Z</time></trkpt><trkpt lat="39.99133" lon="-8.55766"><time>2023-01-14T13:26:16.000Z</time></trkpt><trkpt lat="39.99141" lon="-8.55754"><ele>214</ele><time>2023-01-14T13:26:26.000Z</time></trkpt><trkpt lat="39.99143" lon="-8.55743"><time>2023-01-14T13:26:36.000Z</time></trkpt><trkpt lat="39.99144" lon="-8.55728"><time>2023-01-14T13:26:46.000Z</time></trkpt><trkpt lat="39.99148" lon="-8.55724"><ele>217</ele><time>2023-01-14T13:26:56.000Z</time></trkpt><trkpt lat="39.99148" lon="-8.55722"><time>2023-01-14T13:27:06.000Z</time></trkpt><trkpt lat="39.9915" lon="-8.55718"><time>2023-01-14T13:27:16.000Z</time></trkpt><trkpt lat="39.9915" lon="-8.55711"><time>2023-01-14T13:27:26.000Z</time></trkpt><trkpt lat="39.99152" lon="-8.55706"><time>2023-01-14T13:27:36.000Z</time></trkpt><trkpt lat="39.99155" lon="-8.55695"><ele>221</ele><time>2023-01-14T13:27:46.000Z</time></trkpt><trkpt lat="39.99156" lon="-8.55693"><time>2023-01-14T13:27:56.000Z</time></trkpt><trkpt lat="39.9916" lon="-8.55692"><time>2023-01-14T13:28:06.000Z</time></trkpt><trkpt lat="39.99161" lon="-8.55694"><time>2023-01-14T13:28:16.000Z</time></trkpt><trkpt lat="39.99166" lon="-8.55704"><time>2023-01-14T13:28:26.000Z</time></trkpt><trkpt lat="39.99167" lon="-8.55711"><ele>221</ele><time>2023-01-14T13:28:36.000Z</time></trkpt><trkpt lat="39.99171" lon="-8.5572"><time>2023-01-14T13:28:46.000Z</time></trkpt><trkpt lat="39.9919" lon="-8.5574"><ele>221</ele><time>2023-01-14T13:28:56.000Z</time></trkpt><trkpt lat="39.99192" lon="-8.55744"><time>2023-01-14T13:29:06.000Z</time></trkpt><trkpt lat="39.9919" lon="-8.55751"><time>2023-01-14T13:29:16.000Z</time></trkpt><trkpt lat="39.9919" lon="-8.55755"><time>2023-01-14T13:29:26.000Z</time></trkpt><trkpt lat="39.99194" lon="-8.55771"><ele>220</ele><time>2022-12-01T21:14:22.000Z</time></trkpt><trkpt lat="39.99194" lon="-8.55777"><time>2022-12-01T21:14:32.000Z</time></trkpt><trkpt lat="39.99196" lon="-8.55787"><time>2022-12-01T21:14:42.000Z</time></trkpt><trkpt lat="39.992" lon="-8.558"><ele>220</ele><time>2022-12-01T21:14:23.000Z</time></trkpt><trkpt lat="39.99202" lon="-8.55812"><time>2022-12-01T21:14:33.000Z</time></trkpt><trkpt lat="39.99214" lon="-8.55828"><ele>225</ele><time>2022-12-01T21:14:25.000Z</time></trkpt><trkpt lat="39.9922" lon="-8.55831"><time>2022-12-01T21:14:35.000Z</time></trkpt><trkpt lat="39.99224" lon="-8.55832"><time>2022-12-01T21:14:45.000Z</time></trkpt><trkpt lat="39.99226" lon="-8.55834"><time>2022-12-01T21:14:55.000Z</time></trkpt><trkpt lat="39.99226" lon="-8.55835"><time>2022-12-01T21:15:05.000Z</time></trkpt><trkpt lat="39.99225" lon="-8.55834"><time>2022-12-01T21:15:15.000Z</time></trkpt><trkpt lat="39.99225" lon="-8.55836"><time>2022-12-01T21:15:25.000Z</time></trkpt><trkpt lat="39.99227" lon="-8.55836"><time>2022-12-01T21:15:35.000Z</time></trkpt><trkpt lat="39.99235" lon="-8.5584"><ele>225</ele><time>2022-12-01T21:14:34.000Z</time></trkpt><trkpt lat="39.99245" lon="-8.55843"><time>2022-12-01T21:14:44.000Z</time></trkpt><trkpt lat="39.9925" lon="-8.55848"><time>2022-12-01T21:14:54.000Z</time></trkpt><trkpt lat="39.99254" lon="-8.55849"><ele>229</ele><time>2022-12-01T21:15:04.000Z</time></trkpt><trkpt lat="39.99258" lon="-8.55852"><time>2022-12-01T21:15:14.000Z</time></trkpt><trkpt lat="39.9926" lon="-8.55851"><time>2022-12-01T21:15:24.000Z</time></trkpt><trkpt lat="39.99271" lon="-8.55855"><time>2022-12-01T21:15:34.000Z</time></trkpt><trkpt lat="39.9928" lon="-8.55856"><ele>238</ele><time>2022-12-01T21:15:44.000Z</time></trkpt><trkpt lat="39.99285" lon="-8.5586"><time>2022-12-01T21:15:54.000Z</time></trkpt><trkpt lat="39.9929" lon="-8.55862"><time>2022-12-01T21:16:04.000Z</time></trkpt><trkpt lat="39.99299" lon="-8.55863"><time>2022-12-01T21:16:14.000Z</time></trkpt><trkpt lat="39.99307" lon="-8.55864"><ele>241</ele><time>2022-12-01T21:14:45.000Z</time></trkpt><trkpt lat="39.99312" lon="-8.55866"><time>2022-12-01T21:14:55.000Z</time></trkpt><trkpt lat="39.99319" lon="-8.55866"><time>2022-12-01T21:15:05.000Z</time></trkpt><trkpt lat="39.9933" lon="-8.55871"><ele>244</ele><time>2022-12-01T21:14:48.000Z</time></trkpt><trkpt lat="39.99338" lon="-8.55873"><time>2022-12-01T21:14:58.000Z</time></trkpt><trkpt lat="39.99354" lon="-8.5588"><ele>247</ele><time>2022-12-01T21:15:08.000Z</time></trkpt><trkpt lat="39.99356" lon="-8.5588"><time>2022-12-01T21:15:18.000Z</time></trkpt><trkpt lat="39.99367" lon="-8.55887"><time>2022-12-01T21:15:28.000Z</time></trkpt><trkpt lat="39.99371" lon="-8.55889"><time>2022-12-01T21:15:38.000Z</time></trkpt><trkpt lat="39.99374" lon="-8.5589"><ele>247</ele><time>2022-12-01T21:15:48.000Z</time></trkpt><trkpt lat="39.99375" lon="-8.55892"><time>2022-12-01T21:15:58.000Z</time></trkpt><trkpt lat="39.99382" lon="-8.55889"><time>2022-12-01T21:16:08.000Z</time></trkpt><trkpt lat="39.99391" lon="-8.55888"><time>2022-12-01T21:16:18.000Z</time></trkpt><trkpt lat="39.99397" lon="-8.55889"><ele>251</ele><time>2022-12-01T21:14:58.000Z</time></trkpt><trkpt lat="39.99399" lon="-8.55891"><time>2022-12-01T21:15:08.000Z</time></trkpt><trkpt lat="39.99402" lon="-8.55896"><time>2022-12-01T21:15:18.000Z</time></trkpt><trkpt lat="39.99404" lon="-8.55898"><time>2022-12-01T21:15:28.000Z</time></trkpt><trkpt lat="39.99408" lon="-8.55899"><time>2022-12-01T21:15:38.000Z</time></trkpt><trkpt lat="39.99412" lon="-8.55901"><time>2022-12-01T21:15:48.000Z</time></trkpt><trkpt lat="39.99416" lon="-8.55901"><ele>255</ele><time>2022-12-01T21:15:05.000Z</time></trkpt><trkpt lat="39.9942" lon="-8.55903"><time>2022-12-01T21:15:15.000Z</time></trkpt><trkpt lat="39.99423" lon="-8.55906"><time>2022-12-01T21:15:25.000Z</time></trkpt><trkpt lat="39.99438" lon="-8.55904"><ele>255</ele><time>2022-12-01T21:15:09.000Z</time></trkpt><trkpt lat="39.99446" lon="-8.55902"><time>2022-12-01T21:15:19.000Z</time></trkpt><trkpt lat="39.99448" lon="-8.55898"><time>2022-12-01T21:15:29.000Z</time></trkpt><trkpt lat="39.99453" lon="-8.55895"><time>2022-12-01T21:15:39.000Z</time></trkpt><trkpt lat="39.99456" lon="-8.55891"><ele>256</ele><time>2022-12-01T21:15:13.000Z</time></trkpt><trkpt lat="39.99461" lon="-8.55889"><time>2022-12-01T21:15:23.000Z</time></trkpt><trkpt lat="39.99464" lon="-8.55882"><time>2022-12-01T21:15:33.000Z</time></trkpt><trkpt lat="39.99464" lon="-8.55876"><time>2022-12-01T21:15:43.000Z</time></trkpt><trkpt lat="39.99466" lon="-8.55868"><ele>257</ele><time>2022-12-01T21:15:18.000Z</time></trkpt><trkpt lat="39.99464" lon="-8.55861"><time>2022-12-01T21:15:28.000Z</time></trkpt><trkpt lat="39.99459" lon="-8.55856"><time>2022-12-01T21:15:38.000Z</time></trkpt><trkpt lat="39.99467" lon="-8.55847"><ele>257</ele><time>2022-12-01T21:15:23.000Z</time></trkpt><trkpt lat="39.99478" lon="-8.55828"><time>2022-12-01T21:15:33.000Z</time></trkpt><trkpt lat="39.99481" lon="-8.55821"><ele>260</ele><time>2022-12-01T21:15:43.000Z</time></trkpt><trkpt lat="39.99488" lon="-8.55813"><time>2022-12-01T21:15:53.000Z</time></trkpt><trkpt lat="39.99501" lon="-8.55795"><ele>260</ele><time>2022-12-01T21:16:03.000Z</time></trkpt><trkpt lat="39.99501" lon="-8.55795"><time>2022-12-01T21:16:13.000Z</time></trkpt><trkpt lat="39.99502" lon="-8.55792"><time>2022-12-01T21:16:23.000Z</time></trkpt><trkpt lat="39.99504" lon="-8.55792"><time>2022-12-01T21:16:33.000Z</time></trkpt><trkpt lat="39.99528" lon="-8.55778"><ele>266</ele><time>2022-12-01T21:16:43.000Z</time></trkpt><trkpt lat="39.99538" lon="-8.55767"><time>2022-12-01T21:16:53.000Z</time></trkpt><trkpt lat="39.99548" lon="-8.5576"><ele>266</ele><time>2022-12-01T21:17:03.000Z</time></trkpt><trkpt lat="39.99558" lon="-8.55749"><time>2022-12-01T21:17:13.000Z</time></trkpt><trkpt lat="39.99563" lon="-8.55741"><time>2022-12-01T21:17:23.000Z</time></trkpt><trkpt lat="39.99585" lon="-8.55725"><ele>264</ele><time>2022-12-01T21:17:33.000Z</time></trkpt><trkpt lat="39.99591" lon="-8.55723"><time>2022-12-01T21:17:43.000Z</time></trkpt><trkpt lat="39.99598" lon="-8.55718"><time>2022-12-01T21:17:53.000Z</time></trkpt><trkpt lat="39.99602" lon="-8.55712"><time>2022-12-01T21:18:03.000Z</time></trkpt><trkpt lat="39.99607" lon="-8.55706"><ele>263</ele><time>2022-12-01T21:18:13.000Z</time></trkpt><trkpt lat="39.99613" lon="-8.55696"><time>2022-12-01T21:18:23.000Z</time></trkpt><trkpt lat="39.99614" lon="-8.55692"><time>2022-12-01T21:18:33.000Z</time></trkpt><trkpt lat="39.99615" lon="-8.55691"><time>2022-12-01T21:18:43.000Z</time></trkpt><trkpt lat="39.99619" lon="-8.55694"><time>2022-12-01T21:18:53.000Z</time></trkpt><trkpt lat="39.99625" lon="-8.55704"><ele>263</ele><time>2022-12-01T21:19:03.000Z</time></trkpt><trkpt lat="39.99629" lon="-8.55705"><time>2022-12-01T21:19:13.000Z</time></trkpt><trkpt lat="39.99634" lon="-8.55706"><time>2022-12-01T21:19:23.000Z</time></trkpt><trkpt lat="39.9964" lon="-8.55703"><time>2022-12-01T21:19:33.000Z</time></trkpt><trkpt lat="39.99642" lon="-8.55704"><time>2022-12-01T21:19:43.000Z</time></trkpt><trkpt lat="39.99649" lon="-8.55708"><ele>250</ele><time>2022-12-01T21:19:53.000Z</time></trkpt><trkpt lat="39.99655" lon="-8.55711"><time>2022-12-01T21:20:03.000Z</time></trkpt><trkpt lat="39.99661" lon="-8.55711"><time>2022-12-01T21:20:13.000Z</time></trkpt><trkpt lat="39.99663" lon="-8.55712"><time>2022-12-01T21:20:23.000Z</time></trkpt><trkpt lat="39.99665" lon="-8.55717"><time>2022-12-01T21:20:33.000Z</time></trkpt><trkpt lat="39.99672" lon="-8.55718"><ele>244</ele><time>2022-12-01T21:20:43.000Z</time></trkpt><trkpt lat="39.99676" lon="-8.55717"><time>2022-12-01T21:20:53.000Z</time></trkpt><trkpt lat="39.99677" lon="-8.55721"><time>2022-12-01T21:21:03.000Z</time></trkpt><trkpt lat="39.9968" lon="-8.55725"><time>2022-12-01T21:21:13.000Z</time></trkpt><trkpt lat="39.99683" lon="-8.55726"><time>2022-12-01T21:21:23.000Z</time></trkpt><trkpt lat="39.99691" lon="-8.5573"><ele>241</ele><time>2022-12-01T21:21:33.000Z</time></trkpt><trkpt lat="39.997" lon="-8.55738"><time>2022-12-01T21:21:43.000Z</time></trkpt><trkpt lat="39.99704" lon="-8.55738"><time>2022-12-01T21:21:53.000Z</time></trkpt><trkpt lat="39.99705" lon="-8.55738"><time>2022-12-01T21:22:03.000Z</time></trkpt><trkpt lat="39.99707" lon="-8.55742"><time>2022-12-01T21:22:13.000Z</time></trkpt><trkpt lat="39.99709" lon="-8.55743"><ele>241</ele><time>2022-12-01T21:22:23.000Z</time></trkpt><trkpt lat="39.99712" lon="-8.55743"><time>2022-12-01T21:22:33.000Z</time></trkpt><trkpt lat="39.99715" lon="-8.55743"><time>2022-12-01T21:22:43.000Z</time></trkpt><trkpt lat="39.99717" lon="-8.55746"><time>2022-12-01T21:22:53.000Z</time></trkpt><trkpt lat="39.99721" lon="-8.55744"><time>2022-12-01T21:23:03.000Z</time></trkpt><trkpt lat="39.99724" lon="-8.55734"><ele>240</ele><time>2022-12-01T21:23:13.000Z</time></trkpt><trkpt lat="39.99725" lon="-8.55729"><time>2022-12-01T21:23:23.000Z</time></trkpt><trkpt lat="39.99728" lon="-8.55728"><time>2022-12-01T21:23:33.000Z</time></trkpt><trkpt lat="39.99729" lon="-8.55722"><time>2022-12-01T21:23:43.000Z</time></trkpt><trkpt lat="39.99733" lon="-8.55724"><time>2022-12-01T21:23:53.000Z</time></trkpt><trkpt lat="39.99735" lon="-8.55719"><time>2022-12-01T21:24:03.000Z</time></trkpt><trkpt lat="39.99734" lon="-8.55713"><ele>239</ele><time>2022-12-01T21:24:13.000Z</time></trkpt><trkpt lat="39.99738" lon="-8.55708"><time>2022-12-01T21:24:23.000Z</time></trkpt><trkpt lat="39.99739" lon="-8.55707"><time>2022-12-01T21:24:33.000Z</time></trkpt><trkpt lat="39.99745" lon="-8.55701"><time>2022-12-01T21:24:43.000Z</time></trkpt><trkpt lat="39.99746" lon="-8.55699"><time>2022-12-01T21:24:53.000Z</time></trkpt><trkpt lat="39.9975" lon="-8.55696"><time>2022-12-01T21:25:03.000Z</time></trkpt><trkpt lat="39.9975" lon="-8.55692"><ele>232</ele><time>2022-12-01T21:25:13.000Z</time></trkpt><trkpt lat="39.99751" lon="-8.55691"><time>2022-12-01T21:25:23.000Z</time></trkpt><trkpt lat="39.99757" lon="-8.55691"><time>2022-12-01T21:25:33.000Z</time></trkpt><trkpt lat="39.99761" lon="-8.55692"><time>2022-12-01T21:25:43.000Z</time></trkpt><trkpt lat="39.99757" lon="-8.55689"><time>2022-12-01T21:25:53.000Z</time></trkpt><trkpt lat="39.99757" lon="-8.5569"><time>2022-12-01T21:26:03.000Z</time></trkpt><trkpt lat="39.99761" lon="-8.55692"><ele>232</ele><time>2022-12-01T21:26:13.000Z</time></trkpt><trkpt lat="39.99764" lon="-8.55696"><time>2022-12-01T21:26:23.000Z</time></trkpt><trkpt lat="39.99769" lon="-8.55701"><time>2022-12-01T21:26:33.000Z</time></trkpt><trkpt lat="39.99769" lon="-8.55704"><time>2022-12-01T21:26:43.000Z</time></trkpt><trkpt lat="39.9977" lon="-8.55705"><time>2022-12-01T21:26:53.000Z</time></trkpt><trkpt lat="39.99773" lon="-8.55704"><time>2022-12-01T21:27:03.000Z</time></trkpt><trkpt lat="39.99774" lon="-8.55706"><time>2022-12-01T21:27:13.000Z</time></trkpt><trkpt lat="39.99775" lon="-8.557"><ele>230</ele><time>2022-12-01T21:27:23.000Z</time></trkpt><trkpt lat="39.99774" lon="-8.55693"><time>2022-12-01T21:27:33.000Z</time></trkpt><trkpt lat="39.99772" lon="-8.55688"><time>2022-12-01T21:27:43.000Z</time></trkpt><trkpt lat="39.99771" lon="-8.55683"><time>2022-12-01T21:27:53.000Z</time></trkpt><trkpt lat="39.99771" lon="-8.55678"><time>2022-12-01T21:28:03.000Z</time></trkpt><trkpt lat="39.99771" lon="-8.55674"><ele>231</ele><time>2022-12-01T21:28:13.000Z</time></trkpt><trkpt lat="39.9977" lon="-8.55671"><time>2022-12-01T21:28:23.000Z</time></trkpt><trkpt lat="39.99769" lon="-8.55669"><time>2022-12-01T21:28:33.000Z</time></trkpt><trkpt lat="39.99769" lon="-8.55665"><time>2022-12-01T21:28:43.000Z</time></trkpt><trkpt lat="39.99767" lon="-8.55663"><time>2022-12-01T21:28:53.000Z</time></trkpt><trkpt lat="39.99765" lon="-8.55653"><time>2022-12-01T21:29:03.000Z</time></trkpt><trkpt lat="39.99763" lon="-8.5565"><ele>232</ele><time>2022-12-01T21:29:13.000Z</time></trkpt><trkpt lat="39.99761" lon="-8.55643"><time>2022-12-01T21:29:23.000Z</time></trkpt><trkpt lat="39.99761" lon="-8.55639"><time>2022-12-01T21:29:33.000Z</time></trkpt><trkpt lat="39.99764" lon="-8.55638"><time>2022-12-01T21:29:43.000Z</time></trkpt><trkpt lat="39.99767" lon="-8.55632"><time>2022-12-01T21:29:53.000Z</time></trkpt><trkpt lat="39.99767" lon="-8.55629"><time>2022-12-01T21:30:03.000Z</time></trkpt><trkpt lat="39.99769" lon="-8.55623"><ele>232</ele><time>2022-12-01T21:30:13.000Z</time></trkpt><trkpt lat="39.99769" lon="-8.55622"><time>2022-12-01T21:30:23.000Z</time></trkpt><trkpt lat="39.99774" lon="-8.55616"><time>2022-12-01T21:30:33.000Z</time></trkpt><trkpt lat="39.99774" lon="-8.55614"><time>2022-12-01T21:30:43.000Z</time></trkpt><trkpt lat="39.99773" lon="-8.55604"><time>2022-12-01T21:30:53.000Z</time></trkpt><trkpt lat="39.99774" lon="-8.55596"><ele>234</ele><time>2022-12-01T21:31:03.000Z</time></trkpt><trkpt lat="39.99773" lon="-8.55592"><time>2022-12-01T21:31:13.000Z</time></trkpt><trkpt lat="39.99775" lon="-8.55575"><time>2022-12-01T21:31:23.000Z</time></trkpt><trkpt lat="39.99777" lon="-8.55568"><ele>237</ele><time>2022-12-01T21:31:33.000Z</time></trkpt><trkpt lat="39.99776" lon="-8.55565"><time>2022-12-01T21:31:43.000Z</time></trkpt><trkpt lat="39.99779" lon="-8.55564"><time>2022-12-01T21:31:53.000Z</time></trkpt><trkpt lat="39.9978" lon="-8.55558"><time>2022-12-01T21:32:03.000Z</time></trkpt><trkpt lat="39.99779" lon="-8.55557"><time>2022-12-01T21:32:13.000Z</time></trkpt><trkpt lat="39.9978" lon="-8.55552"><time>2022-12-01T21:32:23.000Z</time></trkpt><trkpt lat="39.99781" lon="-8.55549"><time>2022-12-01T21:32:33.000Z</time></trkpt><trkpt lat="39.99782" lon="-8.55545"><time>2022-12-01T21:32:43.000Z</time></trkpt><trkpt lat="39.99793" lon="-8.55522"><ele>237</ele><time>2022-12-01T21:32:53.000Z</time></trkpt><trkpt lat="39.99799" lon="-8.55514"><time>2022-12-01T21:33:03.000Z</time></trkpt><trkpt lat="39.998" lon="-8.55514"><time>2022-12-01T21:33:13.000Z</time></trkpt><trkpt lat="39.99802" lon="-8.5551"><time>2022-12-01T21:33:23.000Z</time></trkpt><trkpt lat="39.99803" lon="-8.5551"><time>2022-12-01T21:33:33.000Z</time></trkpt><trkpt lat="39.99809" lon="-8.55499"><ele>242</ele><time>2022-12-01T21:33:43.000Z</time></trkpt><trkpt lat="39.99812" lon="-8.55488"><time>2022-12-01T21:33:53.000Z</time></trkpt><trkpt lat="39.99812" lon="-8.55485"><time>2022-12-01T21:34:03.000Z</time></trkpt><trkpt lat="39.99813" lon="-8.55482"><time>2022-12-01T21:34:13.000Z</time></trkpt><trkpt lat="39.99812" lon="-8.55477"><time>2022-12-01T21:34:23.000Z</time></trkpt><trkpt lat="39.99812" lon="-8.55474"><time>2022-12-01T21:34:33.000Z</time></trkpt><trkpt lat="39.99816" lon="-8.55464"><ele>244</ele><time>2022-12-01T21:34:43.000Z</time></trkpt><trkpt lat="39.99821" lon="-8.55454"><time>2022-12-01T21:34:53.000Z</time></trkpt><trkpt lat="39.99823" lon="-8.55442"><time>2022-12-01T21:35:03.000Z</time></trkpt><trkpt lat="39.99824" lon="-8.5544"><ele>255</ele><time>2022-12-01T21:35:13.000Z</time></trkpt><trkpt lat="39.99825" lon="-8.5544"><time>2022-12-01T21:35:23.000Z</time></trkpt><trkpt lat="39.99825" lon="-8.55439"><time>2022-12-01T21:35:33.000Z</time></trkpt><trkpt lat="39.99826" lon="-8.55435"><time>2022-12-01T21:35:43.000Z</time></trkpt><trkpt lat="39.99829" lon="-8.55432"><time>2022-12-01T21:35:53.000Z</time></trkpt><trkpt lat="39.9983" lon="-8.55432"><time>2022-12-01T21:36:03.000Z</time></trkpt><trkpt lat="39.99843" lon="-8.55419"><ele>260</ele><time>2022-12-01T21:36:13.000Z</time></trkpt><trkpt lat="39.99848" lon="-8.55417"><time>2022-12-01T21:36:23.000Z</time></trkpt><trkpt lat="39.99853" lon="-8.55412"><time>2022-12-01T21:36:33.000Z</time></trkpt><trkpt lat="39.99857" lon="-8.55411"><time>2022-12-01T21:36:43.000Z</time></trkpt><trkpt lat="39.99859" lon="-8.55412"><time>2022-12-01T21:36:53.000Z</time></trkpt><trkpt lat="39.99859" lon="-8.55408"><ele>265</ele><time>2022-12-01T21:37:03.000Z</time></trkpt><trkpt lat="39.99869" lon="-8.55404"><time>2022-12-01T21:37:13.000Z</time></trkpt><trkpt lat="39.99871" lon="-8.554"><time>2022-12-01T21:37:23.000Z</time></trkpt><trkpt lat="39.99875" lon="-8.55397"><time>2022-12-01T21:37:33.000Z</time></trkpt><trkpt lat="39.9988" lon="-8.55387"><ele>264</ele><time>2022-12-01T21:37:43.000Z</time></trkpt><trkpt lat="39.99881" lon="-8.55381"><time>2022-12-01T21:37:53.000Z</time></trkpt><trkpt lat="39.99886" lon="-8.55376"><time>2022-12-01T21:38:03.000Z</time></trkpt><trkpt lat="39.9989" lon="-8.5537"><time>2022-12-01T21:38:13.000Z</time></trkpt><trkpt lat="39.99893" lon="-8.55368"><ele>264</ele><time>2022-12-01T21:38:23.000Z</time></trkpt><trkpt lat="39.999" lon="-8.55368"><time>2022-12-01T21:38:33.000Z</time></trkpt><trkpt lat="39.99901" lon="-8.55367"><time>2022-12-01T21:38:43.000Z</time></trkpt><trkpt lat="39.99905" lon="-8.55367"><time>2022-12-01T21:38:53.000Z</time></trkpt><trkpt lat="39.99907" lon="-8.55366"><time>2022-12-01T21:39:03.000Z</time></trkpt><trkpt lat="39.99906" lon="-8.55362"><time>2022-12-01T21:39:13.000Z</time></trkpt><trkpt lat="39.99909" lon="-8.5536"><time>2022-12-01T21:39:23.000Z</time></trkpt><trkpt lat="39.99913" lon="-8.5536"><ele>264</ele><time>2022-12-01T21:39:33.000Z</time></trkpt><trkpt lat="39.99914" lon="-8.5536"><time>2022-12-01T21:39:43.000Z</time></trkpt><trkpt lat="39.99921" lon="-8.5536"><time>2022-12-01T21:39:53.000Z</time></trkpt><trkpt lat="39.99923" lon="-8.5536"><time>2022-12-01T21:40:03.000Z</time></trkpt><trkpt lat="39.99925" lon="-8.55358"><time>2022-12-01T21:40:13.000Z</time></trkpt><trkpt lat="39.99927" lon="-8.55353"><time>2022-12-01T21:40:23.000Z</time></trkpt><trkpt lat="39.9993" lon="-8.55343"><ele>264</ele><time>2022-12-01T21:40:33.000Z</time></trkpt><trkpt lat="39.99935" lon="-8.55332"><time>2022-12-01T21:40:43.000Z</time></trkpt><trkpt lat="39.99937" lon="-8.5533"><time>2022-12-01T21:40:53.000Z</time></trkpt><trkpt lat="39.99938" lon="-8.55327"><time>2022-12-01T21:41:03.000Z</time></trkpt><trkpt lat="39.99943" lon="-8.55318"><ele>264</ele><time>2022-12-01T21:41:13.000Z</time></trkpt><trkpt lat="39.99943" lon="-8.55315"><time>2022-12-01T21:41:23.000Z</time></trkpt><trkpt lat="39.99948" lon="-8.55305"><time>2022-12-01T21:41:33.000Z</time></trkpt><trkpt lat="39.99948" lon="-8.55302"><time>2022-12-01T21:41:43.000Z</time></trkpt><trkpt lat="39.99949" lon="-8.55302"><time>2022-12-01T21:41:53.000Z</time></trkpt><trkpt lat="39.99951" lon="-8.55298"><time>2022-12-01T21:42:03.000Z</time></trkpt><trkpt lat="39.99956" lon="-8.55293"><ele>265</ele><time>2022-12-01T21:42:13.000Z</time></trkpt><trkpt lat="39.9996" lon="-8.55287"><time>2022-12-01T21:42:23.000Z</time></trkpt><trkpt lat="39.99965" lon="-8.55282"><time>2022-12-01T21:42:33.000Z</time></trkpt><trkpt lat="39.99968" lon="-8.55275"><time>2022-12-01T21:42:43.000Z</time></trkpt><trkpt lat="39.99973" lon="-8.5527"><ele>268</ele><time>2022-12-01T21:42:53.000Z</time></trkpt><trkpt lat="39.99976" lon="-8.55268"><time>2022-12-01T21:43:03.000Z</time></trkpt><trkpt lat="39.99981" lon="-8.55261"><time>2022-12-01T21:43:13.000Z</time></trkpt><trkpt lat="39.99983" lon="-8.5526"><time>2022-12-01T21:43:23.000Z</time></trkpt><trkpt lat="39.99982" lon="-8.5526"><time>2022-12-01T21:43:33.000Z</time></trkpt><trkpt lat="39.99982" lon="-8.55251"><ele>268</ele><time>2022-12-01T21:43:43.000Z</time></trkpt><trkpt lat="39.99985" lon="-8.55243"><time>2022-12-01T21:43:53.000Z</time></trkpt><trkpt lat="39.99991" lon="-8.55232"><time>2022-12-01T21:44:03.000Z</time></trkpt><trkpt lat="39.99993" lon="-8.55229"><ele>268</ele><time>2022-12-01T21:44:13.000Z</time></trkpt><trkpt lat="39.99995" lon="-8.55226"><time>2022-12-01T21:44:23.000Z</time></trkpt><trkpt lat="40.00001" lon="-8.55225"><time>2022-12-01T21:44:33.000Z</time></trkpt><trkpt lat="40.00002" lon="-8.55226"><time>2022-12-01T21:44:43.000Z</time></trkpt><trkpt lat="40.00009" lon="-8.55221"><time>2022-12-01T21:44:53.000Z</time></trkpt><trkpt lat="40.00014" lon="-8.55219"><ele>268</ele><time>2022-12-01T21:45:03.000Z</time></trkpt><trkpt lat="40.00016" lon="-8.55219"><time>2022-12-01T21:45:13.000Z</time></trkpt><trkpt lat="40.00026" lon="-8.5522"><time>2022-12-01T21:45:23.000Z</time></trkpt><trkpt lat="40.00033" lon="-8.55222"><time>2022-12-01T21:45:33.000Z</time></trkpt><trkpt lat="40.00048" lon="-8.55223"><ele>273</ele><time>2022-12-01T21:45:43.000Z</time></trkpt><trkpt lat="40.00049" lon="-8.55225"><time>2022-12-01T21:45:53.000Z</time></trkpt><trkpt lat="40.00049" lon="-8.55225"><time>2022-12-01T21:46:03.000Z</time></trkpt><trkpt lat="40.00048" lon="-8.55224"><time>2022-12-01T21:46:13.000Z</time></trkpt><trkpt lat="40.00053" lon="-8.55228"><time>2022-12-01T21:46:23.000Z</time></trkpt><trkpt lat="40.00056" lon="-8.55231"><time>2022-12-01T21:46:33.000Z</time></trkpt><trkpt lat="40.00058" lon="-8.55238"><time>2022-12-01T21:46:43.000Z</time></trkpt><trkpt lat="40.00059" lon="-8.55246"><ele>280</ele><time>2022-12-01T21:46:53.000Z</time></trkpt><trkpt lat="40.00057" lon="-8.55263"><time>2022-12-01T21:47:03.000Z</time></trkpt><trkpt lat="40.00055" lon="-8.55273"><ele>283</ele><time>2022-12-01T21:47:13.000Z</time></trkpt><trkpt lat="40.00056" lon="-8.55281"><time>2022-12-01T21:47:23.000Z</time></trkpt><trkpt lat="40.00054" lon="-8.55289"><time>2022-12-01T21:47:33.000Z</time></trkpt><trkpt lat="40.00052" lon="-8.55291"><time>2022-12-01T21:47:43.000Z</time></trkpt><trkpt lat="40.00053" lon="-8.55292"><time>2022-12-01T21:47:53.000Z</time></trkpt><trkpt lat="40.00053" lon="-8.55294"><time>2022-12-01T21:48:03.000Z</time></trkpt><trkpt lat="40.00053" lon="-8.55296"><time>2022-12-01T21:48:13.000Z</time></trkpt><trkpt lat="40.0004" lon="-8.55306"><ele>286</ele><time>2022-12-01T21:48:23.000Z</time></trkpt><trkpt lat="40.00036" lon="-8.55311"><time>2022-12-01T21:48:33.000Z</time></trkpt><trkpt lat="40.00027" lon="-8.55318"><time>2022-12-01T21:48:43.000Z</time></trkpt><trkpt lat="40.00027" lon="-8.55319"><time>2022-12-01T21:48:53.000Z</time></trkpt><trkpt lat="40.00024" lon="-8.55323"><ele>286</ele><time>2022-12-01T21:49:03.000Z</time></trkpt><trkpt lat="40.00018" lon="-8.55332"><time>2022-12-01T21:49:13.000Z</time></trkpt><trkpt lat="40.00012" lon="-8.55336"><time>2022-12-01T21:49:23.000Z</time></trkpt><trkpt lat="40.00008" lon="-8.55346"><ele>287</ele><time>2022-12-01T21:49:33.000Z</time></trkpt><trkpt lat="40.00006" lon="-8.55358"><time>2022-12-01T21:49:43.000Z</time></trkpt><trkpt lat="40.00006" lon="-8.55361"><time>2022-12-01T21:49:53.000Z</time></trkpt><trkpt lat="40.00003" lon="-8.5537"><time>2022-12-01T21:50:03.000Z</time></trkpt><trkpt lat="39.99999" lon="-8.55383"><ele>290</ele><time>2022-12-01T21:50:13.000Z</time></trkpt><trkpt lat="39.99997" lon="-8.55397"><time>2022-12-01T21:50:23.000Z</time></trkpt><trkpt lat="39.99995" lon="-8.554"><time>2022-12-01T21:50:33.000Z</time></trkpt><trkpt lat="39.99991" lon="-8.55407"><time>2022-12-01T21:50:43.000Z</time></trkpt><trkpt lat="39.99975" lon="-8.55435"><ele>285</ele><time>2022-12-01T21:50:53.000Z</time></trkpt><trkpt lat="39.99968" lon="-8.55443"><time>2022-12-01T21:51:03.000Z</time></trkpt><trkpt lat="39.99962" lon="-8.55453"><time>2022-12-01T21:51:13.000Z</time></trkpt><trkpt lat="39.99954" lon="-8.55467"><ele>280</ele><time>2022-12-01T21:25:34.000Z</time></trkpt><trkpt lat="39.99947" lon="-8.55475"><time>2022-12-01T21:25:44.000Z</time></trkpt><trkpt lat="39.99942" lon="-8.55479"><time>2022-12-01T21:25:54.000Z</time></trkpt><trkpt lat="39.99936" lon="-8.55488"><ele>275</ele><time>2022-12-01T21:26:04.000Z</time></trkpt><trkpt lat="39.99935" lon="-8.55494"><time>2022-12-01T21:26:14.000Z</time></trkpt><trkpt lat="39.99934" lon="-8.55496"><time>2022-12-01T21:26:24.000Z</time></trkpt><trkpt lat="39.99924" lon="-8.55504"><time>2022-12-01T21:26:34.000Z</time></trkpt><trkpt lat="39.9992" lon="-8.55509"><ele>275</ele><time>2022-12-01T21:26:44.000Z</time></trkpt><trkpt lat="39.99918" lon="-8.55509"><time>2022-12-01T21:26:54.000Z</time></trkpt><trkpt lat="39.99914" lon="-8.55513"><time>2022-12-01T21:27:04.000Z</time></trkpt><trkpt lat="39.99912" lon="-8.5552"><time>2022-12-01T21:27:14.000Z</time></trkpt><trkpt lat="39.99915" lon="-8.55533"><ele>277</ele><time>2022-12-01T21:26:19.000Z</time></trkpt><trkpt lat="39.99916" lon="-8.55567"><ele>279</ele><time>2022-12-01T21:26:29.000Z</time></trkpt><trkpt lat="39.99916" lon="-8.55578"><time>2022-12-01T21:26:39.000Z</time></trkpt><trkpt lat="39.99915" lon="-8.5558"><time>2022-12-01T21:26:49.000Z</time></trkpt><trkpt lat="39.99914" lon="-8.5558"><time>2022-12-01T21:26:59.000Z</time></trkpt><trkpt lat="39.99914" lon="-8.55584"><time>2022-12-01T21:27:09.000Z</time></trkpt><trkpt lat="39.99916" lon="-8.55603"><ele>281</ele><time>2022-12-01T21:26:52.000Z</time></trkpt><trkpt lat="39.9992" lon="-8.55624"><time>2022-12-01T21:27:02.000Z</time></trkpt><trkpt lat="39.9992" lon="-8.55634"><ele>282</ele><time>2022-12-01T21:27:12.000Z</time></trkpt><trkpt lat="39.99916" lon="-8.55646"><time>2022-12-01T21:27:22.000Z</time></trkpt><trkpt lat="39.9991" lon="-8.55657"><time>2022-12-01T21:27:32.000Z</time></trkpt><trkpt lat="39.99911" lon="-8.55666"><ele>282</ele><time>2022-12-01T21:27:42.000Z</time></trkpt><trkpt lat="39.99913" lon="-8.55674"><time>2022-12-01T21:27:52.000Z</time></trkpt><trkpt lat="39.99914" lon="-8.55677"><time>2022-12-01T21:28:02.000Z</time></trkpt><trkpt lat="39.99916" lon="-8.55686"><time>2022-12-01T21:28:12.000Z</time></trkpt><trkpt lat="39.99916" lon="-8.55696"><ele>279</ele><time>2022-12-01T21:28:22.000Z</time></trkpt><trkpt lat="39.99917" lon="-8.55701"><time>2022-12-01T21:28:32.000Z</time></trkpt><trkpt lat="39.9992" lon="-8.5571"><time>2022-12-01T21:28:42.000Z</time></trkpt><trkpt lat="39.99925" lon="-8.55721"><ele>279</ele><time>2022-12-01T21:28:52.000Z</time></trkpt><trkpt lat="39.99923" lon="-8.55723"><time>2022-12-01T21:29:02.000Z</time></trkpt><trkpt lat="39.99926" lon="-8.55729"><time>2022-12-01T21:29:12.000Z</time></trkpt><trkpt lat="39.99944" lon="-8.55749"><ele>279</ele><time>2022-12-01T21:29:22.000Z</time></trkpt><trkpt lat="39.99952" lon="-8.55756"><time>2022-12-01T21:29:32.000Z</time></trkpt><trkpt lat="39.9996" lon="-8.55758"><time>2022-12-01T21:29:42.000Z</time></trkpt><trkpt lat="39.99973" lon="-8.5577"><ele>272</ele><time>2022-12-01T21:29:52.000Z</time></trkpt><trkpt lat="39.99978" lon="-8.55773"><time>2022-12-01T21:30:02.000Z</time></trkpt><trkpt lat="39.99978" lon="-8.55773"><time>2022-12-01T21:30:12.000Z</time></trkpt><trkpt lat="39.99978" lon="-8.55774"><time>2022-12-01T21:30:22.000Z</time></trkpt><trkpt lat="39.99987" lon="-8.55779"><time>2022-12-01T21:30:32.000Z</time></trkpt><trkpt lat="39.99999" lon="-8.5579"><ele>272</ele><time>2022-12-01T21:30:42.000Z</time></trkpt><trkpt lat="40.00009" lon="-8.55803"><time>2022-12-01T21:30:52.000Z</time></trkpt><trkpt lat="40.00007" lon="-8.55803"><time>2022-12-01T21:31:02.000Z</time></trkpt><trkpt lat="40.00018" lon="-8.55805"><ele>269</ele><time>2022-12-01T21:31:12.000Z</time></trkpt><trkpt lat="40.00023" lon="-8.55807"><time>2022-12-01T21:31:22.000Z</time></trkpt><trkpt lat="40.00028" lon="-8.55811"><time>2022-12-01T21:31:32.000Z</time></trkpt><trkpt lat="40.00031" lon="-8.55814"><time>2022-12-01T21:31:42.000Z</time></trkpt><trkpt lat="40.00034" lon="-8.5582"><ele>267</ele><time>2022-12-01T21:31:52.000Z</time></trkpt><trkpt lat="40.00038" lon="-8.55824"><time>2022-12-01T21:32:02.000Z</time></trkpt><trkpt lat="40.00052" lon="-8.55831"><time>2022-12-01T21:32:12.000Z</time></trkpt><trkpt lat="40.00058" lon="-8.55832"><ele>266</ele><time>2022-12-01T21:32:22.000Z</time></trkpt><trkpt lat="40.00062" lon="-8.55832"><time>2022-12-01T21:32:32.000Z</time></trkpt><trkpt lat="40.00067" lon="-8.5583"><time>2022-12-01T21:32:42.000Z</time></trkpt><trkpt lat="40.00075" lon="-8.55822"><time>2022-12-01T21:32:52.000Z</time></trkpt><trkpt lat="40.00078" lon="-8.55817"><ele>263</ele><time>2022-12-01T21:33:02.000Z</time></trkpt><trkpt lat="40.00087" lon="-8.55811"><time>2022-12-01T21:33:12.000Z</time></trkpt><trkpt lat="40.00096" lon="-8.55809"><time>2022-12-01T21:33:22.000Z</time></trkpt><trkpt lat="40.00117" lon="-8.55798"><ele>257</ele><time>2022-12-01T21:33:32.000Z</time></trkpt><trkpt lat="40.00127" lon="-8.55795"><time>2022-12-01T21:33:42.000Z</time></trkpt><trkpt lat="40.00137" lon="-8.55791"><ele>253</ele><time>2022-12-01T21:33:52.000Z</time></trkpt><trkpt lat="40.00143" lon="-8.55791"><time>2022-12-01T21:34:02.000Z</time></trkpt><trkpt lat="40.00147" lon="-8.55791"><time>2022-12-01T21:34:12.000Z</time></trkpt><trkpt lat="40.00162" lon="-8.55801"><ele>251</ele><time>2022-12-01T21:34:22.000Z</time></trkpt><trkpt lat="40.00172" lon="-8.55802"><time>2022-12-01T21:34:32.000Z</time></trkpt><trkpt lat="40.00219" lon="-8.55822"><ele>243</ele><time>2022-02-26T11:09:53.000Z</time></trkpt><trkpt lat="40.00244" lon="-8.55829"><ele>236</ele><time>2022-02-26T11:10:03.000Z</time></trkpt><trkpt lat="40.0025" lon="-8.55833"><time>2022-02-26T11:10:13.000Z</time></trkpt><trkpt lat="40.00254" lon="-8.55834"><time>2022-02-26T11:10:23.000Z</time></trkpt><trkpt lat="40.00259" lon="-8.55838"><time>2022-02-26T11:10:33.000Z</time></trkpt><trkpt lat="40.00279" lon="-8.55844"><ele>225</ele><time>2022-02-26T11:10:43.000Z</time></trkpt><trkpt lat="40.00297" lon="-8.55852"><time>2022-02-26T11:10:53.000Z</time></trkpt><trkpt lat="40.00307" lon="-8.55855"><ele>219</ele><time>2022-02-26T11:11:03.000Z</time></trkpt><trkpt lat="40.00321" lon="-8.55861"><time>2022-02-26T11:11:13.000Z</time></trkpt><trkpt lat="40.00325" lon="-8.55864"><time>2022-02-26T11:11:23.000Z</time></trkpt><trkpt lat="40.00335" lon="-8.55872"><ele>207</ele><time>2022-02-26T11:11:33.000Z</time></trkpt><trkpt lat="40.00343" lon="-8.55882"><time>2022-02-26T11:11:43.000Z</time></trkpt><trkpt lat="40.00347" lon="-8.55887"><time>2022-02-26T11:11:53.000Z</time></trkpt><trkpt lat="40.00353" lon="-8.55898"><ele>207</ele><time>2022-02-26T11:12:03.000Z</time></trkpt><trkpt lat="40.0036" lon="-8.55917"><time>2022-02-26T11:12:13.000Z</time></trkpt><trkpt lat="40.00366" lon="-8.5593"><ele>198</ele><time>2022-02-26T11:12:23.000Z</time></trkpt><trkpt lat="40.00371" lon="-8.55942"><time>2022-02-26T11:12:33.000Z</time></trkpt><trkpt lat="40.00376" lon="-8.55948"><time>2022-02-26T11:12:43.000Z</time></trkpt><trkpt lat="40.00387" lon="-8.55959"><ele>188</ele><time>2022-02-26T11:11:33.000Z</time></trkpt><trkpt lat="40.00403" lon="-8.55978"><ele>188</ele><time>2022-02-26T11:11:41.000Z</time></trkpt><trkpt lat="40.00407" lon="-8.55981"><time>2022-02-26T11:11:51.000Z</time></trkpt><trkpt lat="40.00411" lon="-8.55984"><time>2022-02-26T11:12:01.000Z</time></trkpt><trkpt lat="40.00416" lon="-8.55989"><time>2022-02-26T11:12:11.000Z</time></trkpt><trkpt lat="40.0042" lon="-8.55995"><ele>185</ele><time>2022-02-26T11:11:58.000Z</time></trkpt><trkpt lat="40.00432" lon="-8.56009"><time>2022-02-26T11:12:08.000Z</time></trkpt><trkpt lat="40.00437" lon="-8.56016"><ele>182</ele><time>2022-02-26T11:12:09.000Z</time></trkpt><trkpt lat="40.00442" lon="-8.56027"><time>2022-02-26T11:12:19.000Z</time></trkpt><trkpt lat="40.00447" lon="-8.56032"><time>2022-02-26T11:12:29.000Z</time></trkpt><trkpt lat="40.00451" lon="-8.56036"><ele>180</ele><time>2022-02-26T11:12:39.000Z</time></trkpt><trkpt lat="40.00455" lon="-8.56041"><time>2022-02-26T11:12:49.000Z</time></trkpt><trkpt lat="40.00469" lon="-8.56054"><ele>172</ele><time>2022-02-26T11:12:59.000Z</time></trkpt><trkpt lat="40.00473" lon="-8.56057"><time>2022-02-26T11:13:09.000Z</time></trkpt><trkpt lat="40.00474" lon="-8.56063"><time>2022-02-26T11:13:19.000Z</time></trkpt><trkpt lat="40.0047" lon="-8.56069"><time>2022-02-26T11:13:29.000Z</time></trkpt><trkpt lat="40.00487" lon="-8.5608"><ele>169</ele><time>2022-02-26T11:13:39.000Z</time></trkpt><trkpt lat="40.00491" lon="-8.56083"><time>2022-02-26T11:13:49.000Z</time></trkpt><trkpt lat="40.00496" lon="-8.56085"><time>2022-02-26T11:13:59.000Z</time></trkpt><trkpt lat="40.005" lon="-8.56088"><time>2022-02-26T11:14:09.000Z</time></trkpt><trkpt lat="40.00518" lon="-8.56102"><ele>168</ele><time>2022-02-26T11:14:21.000Z</time></trkpt><trkpt lat="40.00559" lon="-8.56127"><ele>168</ele><time>2022-02-26T11:14:52.000Z</time></trkpt><trkpt lat="40.0057" lon="-8.56129"><time>2022-02-26T11:15:02.000Z</time></trkpt><trkpt lat="40.00574" lon="-8.56133"><time>2022-02-26T11:15:12.000Z</time></trkpt><trkpt lat="40.00577" lon="-8.56139"><ele>166</ele><time>2022-02-26T11:15:05.000Z</time></trkpt><trkpt lat="40.00579" lon="-8.56146"><time>2022-02-26T11:15:15.000Z</time></trkpt><trkpt lat="40.0058" lon="-8.56154"><time>2022-02-26T11:15:25.000Z</time></trkpt><trkpt lat="40.00583" lon="-8.56165"><ele>161</ele><time>2022-02-26T11:15:12.000Z</time></trkpt><trkpt lat="40.00588" lon="-8.56172"><time>2022-02-26T11:15:22.000Z</time></trkpt><trkpt lat="40.00597" lon="-8.56175"><time>2022-02-26T11:15:32.000Z</time></trkpt><trkpt lat="40.00604" lon="-8.56174"><ele>158</ele><time>2022-02-26T11:15:21.000Z</time></trkpt><trkpt lat="40.00613" lon="-8.5617"><time>2022-02-26T11:15:31.000Z</time></trkpt><trkpt lat="40.00617" lon="-8.56165"><time>2022-02-26T11:15:41.000Z</time></trkpt><trkpt lat="40.00625" lon="-8.56154"><ele>158</ele><time>2022-02-26T11:15:35.000Z</time></trkpt><trkpt lat="40.00637" lon="-8.5614"><time>2022-02-26T11:15:45.000Z</time></trkpt><trkpt lat="40.0064" lon="-8.56135"><ele>162</ele><time>2022-02-26T11:15:55.000Z</time></trkpt><trkpt lat="40.00641" lon="-8.56129"><time>2022-02-26T11:16:05.000Z</time></trkpt><trkpt lat="40.00657" lon="-8.56113"><ele>164</ele><time>2022-02-26T11:16:15.000Z</time></trkpt><trkpt lat="40.00662" lon="-8.5611"><time>2022-02-26T11:16:25.000Z</time></trkpt><trkpt lat="40.00671" lon="-8.56101"><time>2022-02-26T11:16:35.000Z</time></trkpt><trkpt lat="40.00685" lon="-8.56095"><ele>164</ele><time>2022-02-26T11:16:45.000Z</time></trkpt><trkpt lat="40.0069" lon="-8.56095"><time>2022-02-26T11:16:55.000Z</time></trkpt><trkpt lat="40.00711" lon="-8.56097"><ele>165</ele><time>2022-02-26T11:16:41.000Z</time></trkpt><trkpt lat="40.00721" lon="-8.56097"><time>2022-02-26T11:16:51.000Z</time></trkpt><trkpt lat="40.0073" lon="-8.56093"><time>2022-02-26T11:17:01.000Z</time></trkpt><trkpt lat="40.0074" lon="-8.56087"><ele>164</ele><time>2022-02-26T11:17:02.000Z</time></trkpt><trkpt lat="40.00759" lon="-8.56072"><ele>164</ele><time>2022-02-26T11:17:18.000Z</time></trkpt><trkpt lat="40.00765" lon="-8.5607"><time>2022-02-26T11:17:28.000Z</time></trkpt><trkpt lat="40.00769" lon="-8.56067"><time>2022-02-26T11:17:38.000Z</time></trkpt><trkpt lat="40.00782" lon="-8.56056"><ele>161</ele><time>2022-02-26T11:17:36.000Z</time></trkpt><trkpt lat="40.00796" lon="-8.56048"><time>2022-02-26T11:17:46.000Z</time></trkpt><trkpt lat="40.00806" lon="-8.5604"><ele>159</ele><time>2022-02-26T11:17:54.000Z</time></trkpt><trkpt lat="40.00814" lon="-8.56031"><time>2022-02-26T11:18:04.000Z</time></trkpt><trkpt lat="40.00821" lon="-8.56022"><ele>151</ele><time>2022-02-26T11:18:08.000Z</time></trkpt><trkpt lat="40.00824" lon="-8.56017"><time>2022-02-26T11:18:18.000Z</time></trkpt><trkpt lat="40.00832" lon="-8.56011"><time>2022-02-26T11:18:28.000Z</time></trkpt><trkpt lat="40.00836" lon="-8.56006"><time>2022-02-26T11:18:38.000Z</time></trkpt><trkpt lat="40.0084" lon="-8.56001"><ele>151</ele><time>2022-02-26T11:18:24.000Z</time></trkpt><trkpt lat="40.00843" lon="-8.55995"><time>2022-02-26T11:18:34.000Z</time></trkpt><trkpt lat="40.00849" lon="-8.55974"><ele>151</ele><time>2022-02-26T11:18:40.000Z</time></trkpt><trkpt lat="40.00851" lon="-8.5596"><time>2022-02-26T11:18:50.000Z</time></trkpt><trkpt lat="40.00852" lon="-8.55946"><ele>149</ele><time>2022-02-26T11:18:56.000Z</time></trkpt><trkpt lat="40.00854" lon="-8.55932"><time>2022-02-26T11:19:06.000Z</time></trkpt><trkpt lat="40.00857" lon="-8.55926"><time>2022-02-26T11:19:16.000Z</time></trkpt><trkpt lat="40.00863" lon="-8.55926"><ele>148</ele><time>2022-02-26T11:19:26.000Z</time></trkpt><trkpt lat="40.00866" lon="-8.5593"><time>2022-02-26T11:19:36.000Z</time></trkpt><trkpt lat="40.00867" lon="-8.55938"><time>2022-02-26T11:19:46.000Z</time></trkpt><trkpt lat="40.00875" lon="-8.55959"><ele>143</ele><time>2022-02-26T11:19:26.000Z</time></trkpt><trkpt lat="40.00875" lon="-8.55965"><time>2022-02-26T11:19:36.000Z</time></trkpt><trkpt lat="40.00876" lon="-8.55973"><time>2022-02-26T11:19:46.000Z</time></trkpt><trkpt lat="40.00878" lon="-8.55979"><time>2022-02-26T11:19:56.000Z</time></trkpt><trkpt lat="40.00881" lon="-8.55986"><ele>142</ele><time>2022-02-26T11:19:39.000Z</time></trkpt><trkpt lat="40.00904" lon="-8.55996"><ele>142</ele><time>2022-02-26T11:19:49.000Z</time></trkpt><trkpt lat="40.00909" lon="-8.55999"><time>2022-02-26T11:19:59.000Z</time></trkpt><trkpt lat="40.00912" lon="-8.56003"><time>2022-02-26T11:20:09.000Z</time></trkpt><trkpt lat="40.00915" lon="-8.56008"><time>2022-02-26T11:20:19.000Z</time></trkpt><trkpt lat="40.00917" lon="-8.56014"><time>2022-02-26T11:20:29.000Z</time></trkpt><trkpt lat="40.00918" lon="-8.56026"><ele>148</ele><time>2022-02-26T11:20:17.000Z</time></trkpt><trkpt lat="40.00919" lon="-8.5606"><ele>146</ele><time>2022-02-26T11:20:27.000Z</time></trkpt><trkpt lat="40.00919" lon="-8.56066"><time>2022-02-26T11:20:37.000Z</time></trkpt><trkpt lat="40.00917" lon="-8.56072"><time>2022-02-26T11:20:47.000Z</time></trkpt><trkpt lat="40.00915" lon="-8.56077"><time>2022-02-26T11:20:57.000Z</time></trkpt><trkpt lat="40.00911" lon="-8.56082"><time>2022-02-26T11:21:07.000Z</time></trkpt><trkpt lat="40.00903" lon="-8.56091"><ele>144</ele><time>2022-02-26T11:21:17.000Z</time></trkpt><trkpt lat="40.00899" lon="-8.56097"><time>2022-02-26T11:21:27.000Z</time></trkpt><trkpt lat="40.00897" lon="-8.56102"><time>2022-02-26T11:21:37.000Z</time></trkpt><trkpt lat="40.00898" lon="-8.56108"><time>2022-02-26T11:21:47.000Z</time></trkpt><trkpt lat="40.00905" lon="-8.56119"><ele>144</ele><time>2022-02-26T11:21:57.000Z</time></trkpt><trkpt lat="40.00908" lon="-8.56125"><time>2022-02-26T11:22:07.000Z</time></trkpt><trkpt lat="40.00916" lon="-8.56133"><time>2022-02-26T11:22:17.000Z</time></trkpt><trkpt lat="40.00924" lon="-8.56143"><ele>146</ele><time>2022-02-26T11:21:40.000Z</time></trkpt><trkpt lat="40.00929" lon="-8.56146"><time>2022-02-26T11:21:50.000Z</time></trkpt><trkpt lat="40.00935" lon="-8.56147"><time>2022-02-26T11:22:00.000Z</time></trkpt><trkpt lat="40.00941" lon="-8.56145"><time>2022-02-26T11:22:10.000Z</time></trkpt><trkpt lat="40.00946" lon="-8.56145"><ele>148</ele><time>2022-02-26T11:21:56.000Z</time></trkpt><trkpt lat="40.00951" lon="-8.56143"><time>2022-02-26T11:22:06.000Z</time></trkpt><trkpt lat="40.00956" lon="-8.56141"><time>2022-02-26T11:22:16.000Z</time></trkpt><trkpt lat="40.00965" lon="-8.56134"><ele>151</ele><time>2022-02-26T11:22:15.000Z</time></trkpt><trkpt lat="40.00973" lon="-8.56127"><time>2022-02-26T11:22:25.000Z</time></trkpt><trkpt lat="40.00977" lon="-8.56123"><time>2022-02-26T11:22:35.000Z</time></trkpt><trkpt lat="40.00984" lon="-8.56115"><ele>151</ele><time>2022-02-26T11:22:36.000Z</time></trkpt><trkpt lat="40.00999" lon="-8.56103"><time>2022-02-26T11:22:46.000Z</time></trkpt><trkpt lat="40.01013" lon="-8.56095"><ele>150</ele><time>2022-02-26T11:23:01.000Z</time></trkpt><trkpt lat="40.0102" lon="-8.56093"><time>2022-02-26T11:23:11.000Z</time></trkpt><trkpt lat="40.01025" lon="-8.56092"><time>2022-02-26T11:23:21.000Z</time></trkpt><trkpt lat="40.01034" lon="-8.56093"><ele>150</ele><time>2022-02-26T11:23:11.000Z</time></trkpt><trkpt lat="40.01063" lon="-8.56099"><ele>148</ele><time>2022-02-26T11:23:21.000Z</time></trkpt><trkpt lat="40.01069" lon="-8.56099"><time>2022-02-26T11:23:31.000Z</time></trkpt><trkpt lat="40.01074" lon="-8.56102"><time>2022-02-26T11:23:41.000Z</time></trkpt><trkpt lat="40.01083" lon="-8.56112"><ele>147</ele><time>2022-02-26T11:23:51.000Z</time></trkpt><trkpt lat="40.01087" lon="-8.56115"><time>2022-02-26T11:24:01.000Z</time></trkpt><trkpt lat="40.01092" lon="-8.56115"><time>2022-02-26T11:24:11.000Z</time></trkpt><trkpt lat="40.01102" lon="-8.5611"><time>2022-02-26T11:24:21.000Z</time></trkpt><trkpt lat="40.01107" lon="-8.56106"><ele>147</ele><time>2022-02-26T11:24:31.000Z</time></trkpt><trkpt lat="40.01119" lon="-8.56105"><time>2022-02-26T11:24:41.000Z</time></trkpt><trkpt lat="40.0113" lon="-8.56111"><ele>148</ele><time>2022-02-26T11:24:51.000Z</time></trkpt><trkpt lat="40.0114" lon="-8.56111"><time>2022-02-26T11:25:01.000Z</time></trkpt><trkpt lat="40.01146" lon="-8.56113"><time>2022-02-26T11:25:11.000Z</time></trkpt><trkpt lat="40.01151" lon="-8.56112"><ele>148</ele><time>2022-02-26T11:25:21.000Z</time></trkpt><trkpt lat="40.01155" lon="-8.56108"><time>2022-02-26T11:25:31.000Z</time></trkpt><trkpt lat="40.01159" lon="-8.56105"><time>2022-02-26T11:25:41.000Z</time></trkpt><trkpt lat="40.01173" lon="-8.56099"><ele>145</ele><time>2022-02-26T11:25:51.000Z</time></trkpt><trkpt lat="40.01182" lon="-8.56096"><time>2022-02-26T11:26:01.000Z</time></trkpt><trkpt lat="40.01187" lon="-8.56093"><time>2022-02-26T11:26:11.000Z</time></trkpt><trkpt lat="40.01191" lon="-8.56089"><time>2022-02-26T11:26:21.000Z</time></trkpt><trkpt lat="40.01196" lon="-8.56087"><ele>144</ele><time>2022-02-26T11:26:31.000Z</time></trkpt><trkpt lat="40.012" lon="-8.56088"><time>2022-02-26T11:26:41.000Z</time></trkpt><trkpt lat="40.01207" lon="-8.56087"><time>2022-02-26T11:26:51.000Z</time></trkpt><trkpt lat="40.01222" lon="-8.56082"><ele>140</ele><time>2022-02-26T11:27:01.000Z</time></trkpt><trkpt lat="40.01232" lon="-8.5608"><time>2022-02-26T11:27:11.000Z</time></trkpt><trkpt lat="40.01242" lon="-8.56076"><ele>139</ele><time>2022-02-26T11:27:21.000Z</time></trkpt><trkpt lat="40.01252" lon="-8.56075"><time>2022-02-26T11:27:31.000Z</time></trkpt><trkpt lat="40.01277" lon="-8.56077"><ele>139</ele><time>2022-02-26T11:27:41.000Z</time></trkpt><trkpt lat="40.01287" lon="-8.56078"><time>2022-02-26T11:27:51.000Z</time></trkpt><trkpt lat="40.01317" lon="-8.56083"><ele>141</ele><time>2022-02-26T11:28:01.000Z</time></trkpt><trkpt lat="40.01327" lon="-8.56084"><time>2022-02-26T11:28:11.000Z</time></trkpt><trkpt lat="40.01332" lon="-8.56083"><time>2022-02-26T11:28:21.000Z</time></trkpt><trkpt lat="40.01337" lon="-8.56081"><time>2022-02-26T11:28:31.000Z</time></trkpt><trkpt lat="40.01341" lon="-8.56077"><ele>144</ele><time>2022-02-26T11:28:41.000Z</time></trkpt><trkpt lat="40.01351" lon="-8.56073"><time>2022-02-26T11:28:51.000Z</time></trkpt><trkpt lat="40.01364" lon="-8.56065"><ele>147</ele><time>2022-02-26T11:29:01.000Z</time></trkpt><trkpt lat="40.01369" lon="-8.56064"><time>2022-02-26T11:29:11.000Z</time></trkpt><trkpt lat="40.01374" lon="-8.56062"><time>2022-02-26T11:29:21.000Z</time></trkpt><trkpt lat="40.01378" lon="-8.56062"><time>2022-02-26T11:29:31.000Z</time></trkpt><trkpt lat="40.01397" lon="-8.56065"><ele>149</ele><time>2022-02-26T11:29:41.000Z</time></trkpt><trkpt lat="40.01407" lon="-8.56064"><time>2022-02-26T11:29:51.000Z</time></trkpt><trkpt lat="40.01417" lon="-8.56063"><time>2022-02-26T11:30:01.000Z</time></trkpt><trkpt lat="40.01438" lon="-8.56055"><ele>149</ele><time>2022-02-26T11:30:11.000Z</time></trkpt><trkpt lat="40.01444" lon="-8.56053"><time>2022-02-26T11:30:21.000Z</time></trkpt><trkpt lat="40.01458" lon="-8.56046"><ele>147</ele><time>2022-02-26T11:30:31.000Z</time></trkpt><trkpt lat="40.01462" lon="-8.56043"><time>2022-02-26T11:30:41.000Z</time></trkpt><trkpt lat="40.01467" lon="-8.56041"><time>2022-02-26T11:30:51.000Z</time></trkpt><trkpt lat="40.01496" lon="-8.56033"><ele>146</ele><time>2022-02-26T11:31:01.000Z</time></trkpt><trkpt lat="40.0151" lon="-8.5603"><time>2022-02-26T11:31:11.000Z</time></trkpt><trkpt lat="40.01526" lon="-8.56026"><ele>142</ele><time>2022-02-26T11:31:21.000Z</time></trkpt><trkpt lat="40.01536" lon="-8.56024"><time>2022-02-26T11:31:31.000Z</time></trkpt><trkpt lat="40.01545" lon="-8.56021"><time>2022-02-26T11:31:41.000Z</time></trkpt><trkpt lat="40.01557" lon="-8.5602"><ele>142</ele><time>2022-02-26T11:31:51.000Z</time></trkpt><trkpt lat="40.01561" lon="-8.56021"><time>2022-02-26T11:32:01.000Z</time></trkpt><trkpt lat="40.01575" lon="-8.56027"><time>2022-02-26T11:32:11.000Z</time></trkpt><trkpt lat="40.01585" lon="-8.56029"><ele>139</ele><time>2022-02-26T11:32:21.000Z</time></trkpt><trkpt lat="40.0159" lon="-8.56027"><time>2022-02-26T11:32:31.000Z</time></trkpt><trkpt lat="40.01594" lon="-8.56023"><time>2022-02-26T11:32:41.000Z</time></trkpt><trkpt lat="40.01609" lon="-8.56005"><ele>140</ele><time>2022-02-26T11:32:51.000Z</time></trkpt><trkpt lat="40.01616" lon="-8.55995"><time>2022-02-26T11:33:01.000Z</time></trkpt><trkpt lat="40.01624" lon="-8.5598"><ele>141</ele><time>2022-02-26T11:33:11.000Z</time></trkpt><trkpt lat="40.01628" lon="-8.55975"><time>2022-02-26T11:33:21.000Z</time></trkpt><trkpt lat="40.01632" lon="-8.5597"><time>2022-02-26T11:33:31.000Z</time></trkpt><trkpt lat="40.01637" lon="-8.55967"><time>2022-02-26T11:33:41.000Z</time></trkpt><trkpt lat="40.01648" lon="-8.55962"><ele>141</ele><time>2022-02-26T11:33:51.000Z</time></trkpt><trkpt lat="40.0166" lon="-8.55959"><time>2022-02-26T11:34:01.000Z</time></trkpt><trkpt lat="40.01664" lon="-8.5596"><time>2022-02-26T11:34:11.000Z</time></trkpt><trkpt lat="40.01677" lon="-8.55958"><ele>144</ele><time>2022-02-26T11:34:21.000Z</time></trkpt><trkpt lat="40.01684" lon="-8.55959"><time>2022-02-26T11:34:31.000Z</time></trkpt><trkpt lat="40.01694" lon="-8.55961"><time>2022-02-26T11:34:41.000Z</time></trkpt><trkpt lat="40.017" lon="-8.5596"><ele>144</ele><time>2022-02-26T11:34:51.000Z</time></trkpt><trkpt lat="40.01711" lon="-8.55956"><time>2022-02-26T11:35:01.000Z</time></trkpt><trkpt lat="40.01717" lon="-8.55952"><time>2022-02-26T11:35:11.000Z</time></trkpt><trkpt lat="40.01722" lon="-8.55947"><ele>145</ele><time>2022-02-26T11:35:21.000Z</time></trkpt><trkpt lat="40.01722" lon="-8.55934"><time>2022-02-26T11:35:31.000Z</time></trkpt><trkpt lat="40.01724" lon="-8.55928"><time>2022-02-26T11:35:41.000Z</time></trkpt><trkpt lat="40.01726" lon="-8.55922"><time>2022-02-26T11:35:51.000Z</time></trkpt><trkpt lat="40.01731" lon="-8.5592"><ele>145</ele><time>2022-02-26T11:36:01.000Z</time></trkpt><trkpt lat="40.01737" lon="-8.5592"><time>2022-02-26T11:36:11.000Z</time></trkpt><trkpt lat="40.01746" lon="-8.55924"><time>2022-02-26T11:36:21.000Z</time></trkpt><trkpt lat="40.01761" lon="-8.55928"><ele>146</ele><time>2022-02-26T11:36:31.000Z</time></trkpt><trkpt lat="40.01765" lon="-8.55928"><time>2022-02-26T11:36:41.000Z</time></trkpt><trkpt lat="40.01769" lon="-8.55922"><time>2022-02-26T11:36:51.000Z</time></trkpt><trkpt lat="40.01778" lon="-8.55914"><ele>146</ele><time>2022-02-26T11:37:01.000Z</time></trkpt><trkpt lat="40.01787" lon="-8.55908"><time>2022-02-26T11:37:11.000Z</time></trkpt><trkpt lat="40.01798" lon="-8.55902"><ele>146</ele><time>2022-02-26T11:37:21.000Z</time></trkpt><trkpt lat="40.01802" lon="-8.55899"><time>2022-02-26T11:37:31.000Z</time></trkpt><trkpt lat="40.01807" lon="-8.55896"><time>2022-02-26T11:37:41.000Z</time></trkpt><trkpt lat="40.01819" lon="-8.55883"><ele>146</ele><time>2022-02-26T11:37:51.000Z</time></trkpt><trkpt lat="40.01824" lon="-8.5588"><time>2022-02-26T11:38:01.000Z</time></trkpt><trkpt lat="40.01834" lon="-8.55876"><time>2022-02-26T11:38:11.000Z</time></trkpt><trkpt lat="40.01849" lon="-8.55877"><ele>149</ele><time>2022-02-26T11:38:21.000Z</time></trkpt><trkpt lat="40.01854" lon="-8.55877"><time>2022-02-26T11:38:31.000Z</time></trkpt><trkpt lat="40.01869" lon="-8.55869"><ele>148</ele><time>2022-02-26T11:38:41.000Z</time></trkpt><trkpt lat="40.01883" lon="-8.55859"><time>2022-02-26T11:38:51.000Z</time></trkpt><trkpt lat="40.01896" lon="-8.55846"><ele>148</ele><time>2022-02-26T11:39:01.000Z</time></trkpt><trkpt lat="40.0191" lon="-8.55836"><time>2022-02-26T11:39:11.000Z</time></trkpt><trkpt lat="40.01926" lon="-8.5582"><ele>147</ele><time>2022-02-26T11:39:21.000Z</time></trkpt><trkpt lat="40.01935" lon="-8.55815"><time>2022-02-26T11:39:31.000Z</time></trkpt><trkpt lat="40.01939" lon="-8.55813"><time>2022-02-26T11:39:41.000Z</time></trkpt><trkpt lat="40.01953" lon="-8.55812"><ele>147</ele><time>2022-02-26T11:39:51.000Z</time></trkpt><trkpt lat="40.01963" lon="-8.5581"><time>2022-02-26T11:40:01.000Z</time></trkpt><trkpt lat="40.01978" lon="-8.55803"><ele>148</ele><time>2022-02-26T11:40:11.000Z</time></trkpt><trkpt lat="40.01988" lon="-8.55798"><time>2022-02-26T11:40:21.000Z</time></trkpt><trkpt lat="40.02033" lon="-8.55778"><ele>150</ele><time>2022-02-26T11:35:29.000Z</time></trkpt><trkpt lat="40.02053" lon="-8.55773"><time>2022-02-26T11:35:39.000Z</time></trkpt><trkpt lat="40.02067" lon="-8.55768"><ele>150</ele><time>2022-02-26T11:35:50.000Z</time></trkpt><trkpt lat="40.02082" lon="-8.55761"><time>2022-02-26T11:36:00.000Z</time></trkpt><trkpt lat="40.02096" lon="-8.55754"><ele>149</ele><time>2022-02-26T11:36:11.000Z</time></trkpt><trkpt lat="40.0211" lon="-8.55751"><time>2022-02-26T11:36:21.000Z</time></trkpt><trkpt lat="40.02128" lon="-8.55745"><ele>148</ele><time>2022-02-26T11:36:26.000Z</time></trkpt><trkpt lat="40.02159" lon="-8.55731"><ele>148</ele><time>2022-02-26T11:36:36.000Z</time></trkpt><trkpt lat="40.02168" lon="-8.55724"><time>2022-02-26T11:36:46.000Z</time></trkpt><trkpt lat="40.02188" lon="-8.55714"><ele>148</ele><time>2022-02-26T11:36:56.000Z</time></trkpt><trkpt lat="40.02192" lon="-8.55711"><time>2022-02-26T11:37:06.000Z</time></trkpt><trkpt lat="40.02197" lon="-8.5571"><time>2022-02-26T11:37:16.000Z</time></trkpt><trkpt lat="40.02201" lon="-8.55707"><time>2022-02-26T11:37:26.000Z</time></trkpt><trkpt lat="40.02206" lon="-8.55706"><time>2022-02-26T11:37:36.000Z</time></trkpt><trkpt lat="40.02211" lon="-8.55707"><ele>141</ele><time>2022-02-26T11:37:46.000Z</time></trkpt><trkpt lat="40.02215" lon="-8.55711"><time>2022-02-26T11:37:56.000Z</time></trkpt><trkpt lat="40.02227" lon="-8.55721"><time>2022-02-26T11:38:06.000Z</time></trkpt><trkpt lat="40.02233" lon="-8.55724"><ele>141</ele><time>2022-02-26T11:37:32.000Z</time></trkpt><trkpt lat="40.0225" lon="-8.55726"><time>2022-02-26T11:37:42.000Z</time></trkpt><trkpt lat="40.02256" lon="-8.55729"><ele>137</ele><time>2022-02-26T11:37:44.000Z</time></trkpt><trkpt lat="40.02261" lon="-8.55731"><time>2022-02-26T11:37:54.000Z</time></trkpt><trkpt lat="40.02266" lon="-8.55731"><time>2022-02-26T11:38:04.000Z</time></trkpt><trkpt lat="40.02271" lon="-8.55729"><time>2022-02-26T11:38:14.000Z</time></trkpt><trkpt lat="40.02275" lon="-8.55727"><ele>135</ele><time>2022-02-26T11:37:56.000Z</time></trkpt><trkpt lat="40.02292" lon="-8.55715"><time>2022-02-26T11:38:06.000Z</time></trkpt><trkpt lat="40.02301" lon="-8.55708"><ele>134</ele><time>2022-02-26T11:38:11.000Z</time></trkpt><trkpt lat="40.02312" lon="-8.55702"><time>2022-02-26T11:38:21.000Z</time></trkpt><trkpt lat="40.02317" lon="-8.55698"><time>2022-02-26T11:38:31.000Z</time></trkpt><trkpt lat="40.02329" lon="-8.55688"><ele>130</ele><time>2022-02-26T11:38:27.000Z</time></trkpt><trkpt lat="40.02337" lon="-8.55679"><time>2022-02-26T11:38:37.000Z</time></trkpt><trkpt lat="40.02351" lon="-8.55667"><ele>129</ele><time>2022-02-26T11:38:42.000Z</time></trkpt><trkpt lat="40.02361" lon="-8.55662"><time>2022-02-26T11:38:52.000Z</time></trkpt><trkpt lat="40.02372" lon="-8.55657"><ele>129</ele><time>2022-02-26T11:38:54.000Z</time></trkpt><trkpt lat="40.0241" lon="-8.55632"><ele>129</ele><time>2022-02-26T11:39:18.000Z</time></trkpt><trkpt lat="40.02419" lon="-8.55624"><time>2022-02-26T11:39:28.000Z</time></trkpt><trkpt lat="40.02422" lon="-8.55618"><time>2022-02-26T11:39:38.000Z</time></trkpt><trkpt lat="40.02423" lon="-8.55612"><ele>129</ele><time>2022-02-26T11:39:29.000Z</time></trkpt><trkpt lat="40.02421" lon="-8.55584"><ele>129</ele><time>2022-02-26T11:39:39.000Z</time></trkpt><trkpt lat="40.02422" lon="-8.55578"><time>2022-02-26T11:39:49.000Z</time></trkpt><trkpt lat="40.02423" lon="-8.55565"><time>2022-02-26T11:39:59.000Z</time></trkpt><trkpt lat="40.02424" lon="-8.55559"><time>2022-02-26T11:40:09.000Z</time></trkpt><trkpt lat="40.02422" lon="-8.5551"><ele>132</ele><time>2022-02-26T11:40:45.000Z</time></trkpt><trkpt lat="40.02427" lon="-8.55478"><ele>138</ele><time>2022-02-26T11:41:06.000Z</time></trkpt><trkpt lat="40.02429" lon="-8.55472"><time>2022-02-26T11:41:16.000Z</time></trkpt><trkpt lat="40.02437" lon="-8.55454"><ele>138</ele><time>2022-02-26T11:41:22.000Z</time></trkpt><trkpt lat="40.02441" lon="-8.55443"><time>2022-02-26T11:41:32.000Z</time></trkpt><trkpt lat="40.02444" lon="-8.55437"><time>2022-02-26T11:41:42.000Z</time></trkpt><trkpt lat="40.02451" lon="-8.55428"><ele>139</ele><time>2022-02-26T11:41:40.000Z</time></trkpt><trkpt lat="40.02472" lon="-8.55399"><ele>141</ele><time>2022-02-26T11:41:50.000Z</time></trkpt><trkpt lat="40.02476" lon="-8.55394"><time>2022-02-26T11:42:00.000Z</time></trkpt><trkpt lat="40.0248" lon="-8.55391"><time>2022-02-26T11:42:10.000Z</time></trkpt><trkpt lat="40.0249" lon="-8.55386"><ele>141</ele><time>2022-02-26T11:42:20.000Z</time></trkpt><trkpt lat="40.02491" lon="-8.5538"><time>2022-02-26T11:42:30.000Z</time></trkpt><trkpt lat="40.0249" lon="-8.55373"><time>2022-02-26T11:42:40.000Z</time></trkpt><trkpt lat="40.02489" lon="-8.55368"><time>2022-02-26T11:42:50.000Z</time></trkpt><trkpt lat="40.02484" lon="-8.55357"><ele>146</ele><time>2022-02-26T11:43:00.000Z</time></trkpt><trkpt lat="40.02477" lon="-8.55348"><time>2022-02-26T11:43:10.000Z</time></trkpt><trkpt lat="40.02469" lon="-8.55341"><time>2022-02-26T11:43:20.000Z</time></trkpt><trkpt lat="40.02465" lon="-8.55337"><ele>148</ele><time>2022-02-26T11:43:30.000Z</time></trkpt><trkpt lat="40.02463" lon="-8.55332"><time>2022-02-26T11:43:40.000Z</time></trkpt><trkpt lat="40.02462" lon="-8.55319"><time>2022-02-26T11:43:50.000Z</time></trkpt><trkpt lat="40.02461" lon="-8.55292"><ele>150</ele><time>2022-02-26T11:44:00.000Z</time></trkpt><trkpt lat="40.02454" lon="-8.55259"><ele>165</ele><time>2022-02-26T11:44:10.000Z</time></trkpt><trkpt lat="40.02454" lon="-8.55253"><time>2022-02-26T11:44:20.000Z</time></trkpt><trkpt lat="40.02454" lon="-8.55245"><time>2022-02-26T11:44:30.000Z</time></trkpt><trkpt lat="40.02456" lon="-8.55238"><time>2022-02-26T11:44:40.000Z</time></trkpt><trkpt lat="40.02459" lon="-8.55234"><ele>165</ele><time>2022-02-26T11:44:50.000Z</time></trkpt><trkpt lat="40.02468" lon="-8.55224"><time>2022-02-26T11:45:00.000Z</time></trkpt><trkpt lat="40.02474" lon="-8.55217"><time>2022-02-26T11:45:10.000Z</time></trkpt><trkpt lat="40.02478" lon="-8.5521"><ele>159</ele><time>2022-02-26T11:45:20.000Z</time></trkpt><trkpt lat="40.02482" lon="-8.55204"><time>2022-02-26T11:45:30.000Z</time></trkpt><trkpt lat="40.02495" lon="-8.55184"><ele>158</ele><time>2022-02-26T11:45:40.000Z</time></trkpt><trkpt lat="40.02499" lon="-8.5518"><time>2022-02-26T11:45:50.000Z</time></trkpt><trkpt lat="40.0251" lon="-8.55165"><time>2022-02-26T11:46:00.000Z</time></trkpt><trkpt lat="40.02517" lon="-8.55148"><ele>157</ele><time>2022-02-26T11:46:10.000Z</time></trkpt><trkpt lat="40.02524" lon="-8.55139"><time>2022-02-26T11:46:20.000Z</time></trkpt><trkpt lat="40.02541" lon="-8.55111"><ele>147</ele><time>2022-02-26T11:46:03.000Z</time></trkpt><trkpt lat="40.02556" lon="-8.55092"><time>2022-02-26T11:46:13.000Z</time></trkpt><trkpt lat="40.02559" lon="-8.55087"><ele>139</ele><time>2022-02-26T11:46:23.000Z</time></trkpt><trkpt lat="40.02564" lon="-8.55083"><time>2022-02-26T11:46:33.000Z</time></trkpt><trkpt lat="40.02568" lon="-8.55078"><time>2022-02-26T11:46:43.000Z</time></trkpt><trkpt lat="40.02579" lon="-8.55056"><ele>143</ele><time>2022-02-26T11:46:53.000Z</time></trkpt><trkpt lat="40.02581" lon="-8.55051"><time>2022-02-26T11:47:03.000Z</time></trkpt><trkpt lat="40.02583" lon="-8.55044"><time>2022-02-26T11:47:13.000Z</time></trkpt><trkpt lat="40.02584" lon="-8.55025"><ele>148</ele><time>2022-02-26T11:47:23.000Z</time></trkpt><trkpt lat="40.02587" lon="-8.5502"><time>2022-02-26T11:47:33.000Z</time></trkpt><trkpt lat="40.02591" lon="-8.55008"><time>2022-02-26T11:47:43.000Z</time></trkpt><trkpt lat="40.02597" lon="-8.54996"><ele>149</ele><time>2022-02-26T11:47:53.000Z</time></trkpt><trkpt lat="40.026" lon="-8.54991"><time>2022-02-26T11:48:03.000Z</time></trkpt><trkpt lat="40.02604" lon="-8.54988"><time>2022-02-26T11:48:13.000Z</time></trkpt><trkpt lat="40.02621" lon="-8.54976"><ele>145</ele><time>2022-02-26T11:48:23.000Z</time></trkpt><trkpt lat="40.02625" lon="-8.54972"><time>2022-02-26T11:48:33.000Z</time></trkpt><trkpt lat="40.02637" lon="-8.54956"><ele>141</ele><time>2022-02-26T11:48:43.000Z</time></trkpt><trkpt lat="40.02645" lon="-8.54946"><time>2022-02-26T11:48:53.000Z</time></trkpt><trkpt lat="40.02649" lon="-8.54943"><time>2022-02-26T11:49:03.000Z</time></trkpt><trkpt lat="40.02662" lon="-8.54937"><ele>141</ele><time>2022-02-26T11:49:13.000Z</time></trkpt><trkpt lat="40.02667" lon="-8.54934"><time>2022-02-26T11:49:23.000Z</time></trkpt><trkpt lat="40.02679" lon="-8.54921"><time>2022-02-26T11:49:33.000Z</time></trkpt><trkpt lat="40.02685" lon="-8.5491"><ele>141</ele><time>2022-02-26T11:48:29.000Z</time></trkpt><trkpt lat="40.02696" lon="-8.54879"><ele>141</ele><time>2022-02-26T11:48:39.000Z</time></trkpt><trkpt lat="40.02699" lon="-8.54874"><time>2022-02-26T11:48:49.000Z</time></trkpt><trkpt lat="40.02709" lon="-8.5486"><time>2022-02-26T11:48:59.000Z</time></trkpt><trkpt lat="40.02718" lon="-8.54843"><ele>143</ele><time>2022-02-26T11:49:09.000Z</time></trkpt><trkpt lat="40.0273" lon="-8.54828"><time>2022-02-26T11:49:19.000Z</time></trkpt><trkpt lat="40.02738" lon="-8.5482"><ele>148</ele><time>2022-02-26T11:49:29.000Z</time></trkpt><trkpt lat="40.02746" lon="-8.54811"><time>2022-02-26T11:49:39.000Z</time></trkpt><trkpt lat="40.02749" lon="-8.54806"><time>2022-02-26T11:49:49.000Z</time></trkpt><trkpt lat="40.02749" lon="-8.548"><time>2022-02-26T11:49:59.000Z</time></trkpt><trkpt lat="40.02762" lon="-8.5478"><ele>145</ele><time>2022-02-26T11:50:09.000Z</time></trkpt><trkpt lat="40.02765" lon="-8.54774"><time>2022-02-26T11:50:19.000Z</time></trkpt><trkpt lat="40.02767" lon="-8.54762"><time>2022-02-26T11:50:29.000Z</time></trkpt><trkpt lat="40.02773" lon="-8.54744"><ele>150</ele><time>2022-02-26T11:50:39.000Z</time></trkpt><trkpt lat="40.02773" lon="-8.54738"><time>2022-02-26T11:50:49.000Z</time></trkpt><trkpt lat="40.02772" lon="-8.54731"><time>2022-02-26T11:50:59.000Z</time></trkpt><trkpt lat="40.02767" lon="-8.54709"><ele>155</ele><time>2022-02-26T11:51:44.000Z</time></trkpt><trkpt lat="40.02766" lon="-8.54702"><time>2022-02-26T11:51:54.000Z</time></trkpt><trkpt lat="40.02763" lon="-8.54697"><time>2022-02-26T11:52:04.000Z</time></trkpt><trkpt lat="40.02758" lon="-8.54695"><time>2022-02-26T11:52:14.000Z</time></trkpt><trkpt lat="40.02756" lon="-8.54689"><time>2022-02-26T11:52:24.000Z</time></trkpt><trkpt lat="40.02757" lon="-8.54683"><ele>157</ele><time>2022-02-26T11:52:26.000Z</time></trkpt><trkpt lat="40.0275" lon="-8.54663"><time>2022-02-26T11:52:36.000Z</time></trkpt><trkpt lat="40.0274" lon="-8.54649"><ele>158</ele><time>2022-02-26T11:52:59.000Z</time></trkpt><trkpt lat="40.02736" lon="-8.54646"><time>2022-02-26T11:53:09.000Z</time></trkpt><trkpt lat="40.02736" lon="-8.54638"><time>2022-02-26T11:53:19.000Z</time></trkpt><trkpt lat="40.02737" lon="-8.54632"><time>2022-02-26T11:53:29.000Z</time></trkpt><trkpt lat="40.02737" lon="-8.54626"><time>2022-02-26T11:53:39.000Z</time></trkpt><trkpt lat="40.02735" lon="-8.5462"><ele>159</ele><time>2022-02-26T11:53:25.000Z</time></trkpt><trkpt lat="40.02729" lon="-8.54607"><time>2022-02-26T11:53:35.000Z</time></trkpt><trkpt lat="40.02726" lon="-8.54595"><ele>160</ele><time>2022-02-26T11:53:45.000Z</time></trkpt><trkpt lat="40.02726" lon="-8.54589"><time>2022-02-26T11:53:55.000Z</time></trkpt><trkpt lat="40.02726" lon="-8.54576"><time>2022-02-26T11:54:05.000Z</time></trkpt><trkpt lat="40.02726" lon="-8.5457"><time>2022-02-26T11:54:15.000Z</time></trkpt><trkpt lat="40.02724" lon="-8.54563"><ele>160</ele><time>2022-02-26T11:54:25.000Z</time></trkpt><trkpt lat="40.02724" lon="-8.54556"><time>2022-02-26T11:54:35.000Z</time></trkpt><trkpt lat="40.02726" lon="-8.5455"><time>2022-02-26T11:54:45.000Z</time></trkpt><trkpt lat="40.02729" lon="-8.54546"><time>2022-02-26T11:54:55.000Z</time></trkpt><trkpt lat="40.02739" lon="-8.54538"><ele>161</ele><time>2022-02-26T11:55:05.000Z</time></trkpt><trkpt lat="40.02743" lon="-8.54535"><time>2022-02-26T11:55:15.000Z</time></trkpt><trkpt lat="40.02749" lon="-8.54534"><time>2022-02-26T11:55:25.000Z</time></trkpt><trkpt lat="40.02759" lon="-8.54533"><ele>162</ele><time>2022-02-26T11:55:35.000Z</time></trkpt><trkpt lat="40.02764" lon="-8.5453"><time>2022-02-26T11:55:45.000Z</time></trkpt><trkpt lat="40.02769" lon="-8.54518"><time>2022-02-26T11:55:55.000Z</time></trkpt><trkpt lat="40.02773" lon="-8.54505"><ele>166</ele><time>2022-02-26T11:55:03.000Z</time></trkpt><trkpt lat="40.02777" lon="-8.54493"><time>2022-02-26T11:55:13.000Z</time></trkpt><trkpt lat="40.0278" lon="-8.54487"><time>2022-02-26T11:55:23.000Z</time></trkpt><trkpt lat="40.02783" lon="-8.54483"><time>2022-02-26T11:55:33.000Z</time></trkpt><trkpt lat="40.02788" lon="-8.5448"><ele>166</ele><time>2022-02-26T11:55:24.000Z</time></trkpt><trkpt lat="40.028" lon="-8.54476"><time>2022-02-26T11:55:34.000Z</time></trkpt><trkpt lat="40.02817" lon="-8.54472"><ele>161</ele><time>2022-02-26T11:55:37.000Z</time></trkpt><trkpt lat="40.02822" lon="-8.54472"><time>2022-02-26T11:55:47.000Z</time></trkpt><trkpt lat="40.02832" lon="-8.54468"><time>2022-02-26T11:55:57.000Z</time></trkpt><trkpt lat="40.02837" lon="-8.54464"><ele>150</ele><time>2022-02-26T11:55:52.000Z</time></trkpt><trkpt lat="40.02841" lon="-8.5446"><time>2022-02-26T11:56:02.000Z</time></trkpt><trkpt lat="40.02852" lon="-8.54444"><ele>147</ele><time>2022-02-26T11:56:09.000Z</time></trkpt><trkpt lat="40.02861" lon="-8.54427"><time>2022-02-26T11:56:19.000Z</time></trkpt><trkpt lat="40.0287" lon="-8.54412"><ele>145</ele><time>2022-02-26T11:56:34.000Z</time></trkpt><trkpt lat="40.02876" lon="-8.54399"><time>2022-02-26T11:56:44.000Z</time></trkpt><trkpt lat="40.02879" lon="-8.54393"><time>2022-02-26T11:56:54.000Z</time></trkpt><trkpt lat="40.02881" lon="-8.54386"><ele>143</ele><time>2022-02-26T11:56:51.000Z</time></trkpt><trkpt lat="40.02883" lon="-8.54373"><time>2022-02-26T11:57:01.000Z</time></trkpt><trkpt lat="40.02889" lon="-8.54355"><ele>145</ele><time>2022-02-26T11:57:12.000Z</time></trkpt><trkpt lat="40.02898" lon="-8.54338"><time>2022-02-26T11:57:22.000Z</time></trkpt><trkpt lat="40.02902" lon="-8.54326"><ele>143</ele><time>2022-02-26T11:57:32.000Z</time></trkpt><trkpt lat="40.02914" lon="-8.54299"><ele>143</ele><time>2022-02-26T11:57:42.000Z</time></trkpt><trkpt lat="40.02918" lon="-8.54293"><time>2022-02-26T11:57:52.000Z</time></trkpt><trkpt lat="40.02924" lon="-8.54281"><time>2022-02-26T11:58:02.000Z</time></trkpt><trkpt lat="40.02931" lon="-8.54271"><ele>140</ele><time>2022-02-26T11:58:12.000Z</time></trkpt><trkpt lat="40.02934" lon="-8.54266"><time>2022-02-26T11:58:22.000Z</time></trkpt><trkpt lat="40.0294" lon="-8.54253"><time>2022-02-26T11:58:32.000Z</time></trkpt><trkpt lat="40.02942" lon="-8.54246"><ele>139</ele><time>2022-02-26T11:58:42.000Z</time></trkpt><trkpt lat="40.02949" lon="-8.54227"><time>2022-02-26T11:58:52.000Z</time></trkpt><trkpt lat="40.02956" lon="-8.54201"><ele>141</ele><time>2022-02-26T11:59:02.000Z</time></trkpt><trkpt lat="40.02955" lon="-8.54194"><time>2022-02-26T11:59:12.000Z</time></trkpt><trkpt lat="40.02957" lon="-8.5418"><time>2022-02-26T11:59:22.000Z</time></trkpt><trkpt lat="40.0296" lon="-8.54168"><ele>134</ele><time>2022-02-26T11:59:19.000Z</time></trkpt><trkpt lat="40.0296" lon="-8.54154"><time>2022-02-26T11:59:29.000Z</time></trkpt><trkpt lat="40.02963" lon="-8.5414"><ele>132</ele><time>2022-02-26T11:59:36.000Z</time></trkpt><trkpt lat="40.02968" lon="-8.54127"><time>2022-02-26T11:59:46.000Z</time></trkpt><trkpt lat="40.02971" lon="-8.54122"><time>2022-02-26T11:59:56.000Z</time></trkpt><trkpt lat="40.02979" lon="-8.54104"><ele>130</ele><time>2022-02-26T11:59:58.000Z</time></trkpt><trkpt lat="40.02985" lon="-8.54085"><time>2022-02-26T12:00:08.000Z</time></trkpt><trkpt lat="40.02988" lon="-8.5408"><ele>130</ele><time>2022-02-26T12:00:18.000Z</time></trkpt><trkpt lat="40.02989" lon="-8.54073"><time>2022-02-26T12:00:28.000Z</time></trkpt><trkpt lat="40.02989" lon="-8.54066"><time>2022-02-26T12:00:38.000Z</time></trkpt><trkpt lat="40.02986" lon="-8.54052"><ele>131</ele><time>2022-02-26T12:00:48.000Z</time></trkpt><trkpt lat="40.02984" lon="-8.54045"><time>2022-02-26T12:00:58.000Z</time></trkpt><trkpt lat="40.02983" lon="-8.54011"><ele>133</ele><time>2022-02-26T12:01:08.000Z</time></trkpt><trkpt lat="40.02982" lon="-8.54003"><time>2022-02-26T12:01:18.000Z</time></trkpt><trkpt lat="40.02979" lon="-8.53991"><time>2022-02-26T12:01:28.000Z</time></trkpt><trkpt lat="40.02982" lon="-8.53978"><ele>133</ele><time>2022-02-26T12:01:38.000Z</time></trkpt><trkpt lat="40.02986" lon="-8.53973"><time>2022-02-26T12:01:48.000Z</time></trkpt><trkpt lat="40.02998" lon="-8.53958"><ele>128</ele><time>2022-02-26T12:01:58.000Z</time></trkpt><trkpt lat="40.03006" lon="-8.53947"><time>2022-02-26T12:02:08.000Z</time></trkpt><trkpt lat="40.03013" lon="-8.53938"><ele>123</ele><time>2022-02-26T12:02:18.000Z</time></trkpt><trkpt lat="40.03022" lon="-8.5393"><time>2022-02-26T12:02:28.000Z</time></trkpt><trkpt lat="40.03026" lon="-8.53928"><time>2022-02-26T12:02:38.000Z</time></trkpt><trkpt lat="40.0305" lon="-8.53902"><ele>119</ele><time>2022-02-26T12:02:48.000Z</time></trkpt><trkpt lat="40.03054" lon="-8.53897"><time>2022-02-26T12:02:58.000Z</time></trkpt><trkpt lat="40.0306" lon="-8.53885"><time>2022-02-26T12:03:08.000Z</time></trkpt><trkpt lat="40.03068" lon="-8.5386"><ele>116</ele><time>2022-02-26T12:03:18.000Z</time></trkpt><trkpt lat="40.03073" lon="-8.53841"><time>2022-02-26T12:03:28.000Z</time></trkpt><trkpt lat="40.03078" lon="-8.5383"><ele>106</ele><time>2022-02-26T12:03:38.000Z</time></trkpt><trkpt lat="40.03082" lon="-8.53825"><time>2022-02-26T12:03:48.000Z</time></trkpt><trkpt lat="40.03085" lon="-8.53818"><time>2022-02-26T12:03:58.000Z</time></trkpt><trkpt lat="40.03087" lon="-8.53813"><time>2022-02-26T12:04:08.000Z</time></trkpt><trkpt lat="40.03092" lon="-8.53813"><time>2022-02-26T12:04:18.000Z</time></trkpt><trkpt lat="40.03104" lon="-8.53822"><ele>102</ele><time>2022-02-26T12:03:38.000Z</time></trkpt><trkpt lat="40.0312" lon="-8.53829"><time>2022-02-26T12:03:48.000Z</time></trkpt><trkpt lat="40.0313" lon="-8.53835"><ele>102</ele><time>2022-02-26T12:03:56.000Z</time></trkpt><trkpt lat="40.03154" lon="-8.53848"><ele>99</ele><time>2022-02-26T12:04:06.000Z</time></trkpt><trkpt lat="40.03164" lon="-8.53854"><time>2022-02-26T12:04:16.000Z</time></trkpt><trkpt lat="40.03176" lon="-8.53865"><ele>92</ele><time>2022-02-26T12:04:26.000Z</time></trkpt><trkpt lat="40.0319" lon="-8.53871"><time>2022-02-26T12:04:36.000Z</time></trkpt><trkpt lat="40.03216" lon="-8.53883"><ele>87</ele><time>2022-02-26T12:04:46.000Z</time></trkpt><trkpt lat="40.03221" lon="-8.53885"><time>2022-02-26T12:04:56.000Z</time></trkpt><trkpt lat="40.03237" lon="-8.53897"><ele>87</ele><time>2022-02-26T12:05:06.000Z</time></trkpt><trkpt lat="40.03248" lon="-8.53903"><time>2022-02-26T12:05:16.000Z</time></trkpt><trkpt lat="40.03253" lon="-8.53907"><time>2022-02-26T12:05:26.000Z</time></trkpt><trkpt lat="40.03257" lon="-8.53911"><ele>86</ele><time>2022-02-26T12:05:36.000Z</time></trkpt><trkpt lat="40.03268" lon="-8.53927"><time>2022-02-26T12:05:46.000Z</time></trkpt><trkpt lat="40.03274" lon="-8.53932"><ele>83</ele><time>2022-02-26T12:05:56.000Z</time></trkpt><trkpt lat="40.03283" lon="-8.53938"><time>2022-02-26T12:06:06.000Z</time></trkpt><trkpt lat="40.03292" lon="-8.53942"><time>2022-02-26T12:06:16.000Z</time></trkpt><trkpt lat="40.03313" lon="-8.53956"><ele>81</ele><time>2022-02-26T12:05:50.000Z</time></trkpt><trkpt lat="40.03326" lon="-8.53963"><time>2022-02-26T12:06:00.000Z</time></trkpt><trkpt lat="40.03335" lon="-8.53969"><ele>80</ele><time>2022-02-26T12:06:00.000Z</time></trkpt><trkpt lat="40.0334" lon="-8.53971"><time>2022-02-26T12:06:10.000Z</time></trkpt><trkpt lat="40.0335" lon="-8.53978"><time>2022-02-26T12:06:20.000Z</time></trkpt><trkpt lat="40.03355" lon="-8.5398"><ele>80</ele><time>2022-02-26T12:06:11.000Z</time></trkpt><trkpt lat="40.03359" lon="-8.53984"><time>2022-02-26T12:06:21.000Z</time></trkpt><trkpt lat="40.03362" lon="-8.53989"><time>2022-02-26T12:06:31.000Z</time></trkpt><trkpt lat="40.03364" lon="-8.53996"><time>2022-02-26T12:06:41.000Z</time></trkpt><trkpt lat="40.03364" lon="-8.54003"><ele>80</ele><time>2022-02-26T12:06:23.000Z</time></trkpt><trkpt lat="40.03359" lon="-8.54017"><time>2022-02-26T12:06:33.000Z</time></trkpt><trkpt lat="40.0336" lon="-8.54023"><time>2022-02-26T12:06:43.000Z</time></trkpt><trkpt lat="40.03364" lon="-8.54027"><ele>76</ele><time>2022-02-26T12:06:53.000Z</time></trkpt><trkpt lat="40.03367" lon="-8.54032"><time>2022-02-26T12:07:03.000Z</time></trkpt><trkpt lat="40.03372" lon="-8.54034"><time>2022-02-26T12:07:13.000Z</time></trkpt><trkpt lat="40.03377" lon="-8.54035"><time>2022-02-26T12:07:23.000Z</time></trkpt><trkpt lat="40.03383" lon="-8.54038"><ele>72</ele><time>2022-02-26T12:07:33.000Z</time></trkpt><trkpt lat="40.03389" lon="-8.54042"><time>2022-02-26T12:07:43.000Z</time></trkpt><trkpt lat="40.03422" lon="-8.54061"><ele>71</ele><time>2022-02-26T12:07:53.000Z</time></trkpt><trkpt lat="40.03431" lon="-8.54064"><time>2022-02-26T12:08:03.000Z</time></trkpt><trkpt lat="40.03447" lon="-8.54071"><ele>72</ele><time>2022-02-26T12:08:13.000Z</time></trkpt><trkpt lat="40.03452" lon="-8.54073"><time>2022-02-26T12:08:23.000Z</time></trkpt><trkpt lat="40.03456" lon="-8.54075"><time>2022-02-26T12:08:33.000Z</time></trkpt><trkpt lat="40.03462" lon="-8.54076"><time>2022-02-26T12:08:43.000Z</time></trkpt><trkpt lat="40.03468" lon="-8.54077"><ele>72</ele><time>2022-02-26T12:08:53.000Z</time></trkpt><trkpt lat="40.03474" lon="-8.54076"><time>2022-02-26T12:09:03.000Z</time></trkpt><trkpt lat="40.03498" lon="-8.54072"><ele>72</ele><time>2022-02-26T12:07:41.000Z</time></trkpt><trkpt lat="40.03527" lon="-8.54064"><ele>72</ele><time>2022-02-26T12:07:51.000Z</time></trkpt><trkpt lat="40.03542" lon="-8.5406"><time>2022-02-26T12:08:01.000Z</time></trkpt><trkpt lat="40.03546" lon="-8.54059"><time>2022-02-26T12:08:11.000Z</time></trkpt><trkpt lat="40.03551" lon="-8.54057"><ele>72</ele><time>2022-02-26T12:08:21.000Z</time></trkpt><trkpt lat="40.03552" lon="-8.54057"><time>2022-02-26T12:08:31.000Z</time></trkpt><trkpt lat="40.0355" lon="-8.54052"><time>2022-02-26T12:08:41.000Z</time></trkpt><trkpt lat="40.03544" lon="-8.54043"><time>2022-02-26T12:08:51.000Z</time></trkpt><trkpt lat="40.03546" lon="-8.54037"><time>2022-02-26T12:09:01.000Z</time></trkpt><trkpt lat="40.03551" lon="-8.54032"><ele>75</ele><time>2022-02-26T12:09:11.000Z</time></trkpt><trkpt lat="40.0356" lon="-8.54025"><time>2022-02-26T12:09:21.000Z</time></trkpt><trkpt lat="40.0357" lon="-8.54018"><ele>75</ele><time>2022-02-26T12:09:31.000Z</time></trkpt><trkpt lat="40.03569" lon="-8.54019"><time>2022-02-26T12:09:41.000Z</time></trkpt><trkpt lat="40.03569" lon="-8.54012"><time>2022-02-26T12:09:51.000Z</time></trkpt><trkpt lat="40.03573" lon="-8.54009"><time>2022-02-26T12:10:01.000Z</time></trkpt><trkpt lat="40.03578" lon="-8.54011"><time>2022-02-26T12:10:11.000Z</time></trkpt><trkpt lat="40.0359" lon="-8.5402"><ele>76</ele><time>2022-02-26T12:10:21.000Z</time></trkpt><trkpt lat="40.03594" lon="-8.54021"><time>2022-02-26T12:10:31.000Z</time></trkpt><trkpt lat="40.03597" lon="-8.54016"><time>2022-02-26T12:10:41.000Z</time></trkpt><trkpt lat="40.03598" lon="-8.54003"><time>2022-02-26T12:10:51.000Z</time></trkpt><trkpt lat="40.03604" lon="-8.53984"><ele>76</ele><time>2022-02-26T12:11:01.000Z</time></trkpt><trkpt lat="40.03607" lon="-8.53962"><time>2022-02-26T12:11:11.000Z</time></trkpt><trkpt lat="40.03614" lon="-8.53928"><ele>76</ele><time>2022-02-26T12:23:00.000Z</time></trkpt><trkpt lat="40.03617" lon="-8.53914"><time>2022-02-26T12:23:10.000Z</time></trkpt><trkpt lat="40.0362" lon="-8.53895"><ele>74</ele><time>2022-02-26T12:23:16.000Z</time></trkpt><trkpt lat="40.03622" lon="-8.53882"><time>2022-02-26T12:23:26.000Z</time></trkpt><trkpt lat="40.03626" lon="-8.53869"><ele>74</ele><time>2022-02-26T12:23:28.000Z</time></trkpt><trkpt lat="40.03629" lon="-8.53849"><time>2022-02-26T12:23:38.000Z</time></trkpt><trkpt lat="40.03633" lon="-8.53836"><ele>82</ele><time>2022-02-26T12:23:45.000Z</time></trkpt><trkpt lat="40.03652" lon="-8.53784"><ele>84</ele><time>2022-02-26T12:23:55.000Z</time></trkpt><trkpt lat="40.03654" lon="-8.53778"><time>2022-02-26T12:24:05.000Z</time></trkpt><trkpt lat="40.03656" lon="-8.53766"><time>2022-02-26T12:24:15.000Z</time></trkpt><trkpt lat="40.03658" lon="-8.53752"><ele>84</ele><time>2022-02-26T12:24:25.000Z</time></trkpt><trkpt lat="40.03657" lon="-8.53739"><time>2022-02-26T12:24:35.000Z</time></trkpt><trkpt lat="40.03656" lon="-8.53726"><time>2022-02-26T12:24:45.000Z</time></trkpt><trkpt lat="40.03656" lon="-8.53707"><ele>85</ele><time>2022-02-26T12:24:55.000Z</time></trkpt><trkpt lat="40.03658" lon="-8.53685"><time>2022-02-26T12:25:05.000Z</time></trkpt><trkpt lat="40.03663" lon="-8.53647"><ele>86</ele><time>2022-02-26T12:25:17.000Z</time></trkpt><trkpt lat="40.03663" lon="-8.53639"><time>2022-02-26T12:25:27.000Z</time></trkpt><trkpt lat="40.03662" lon="-8.53632"><time>2022-02-26T12:25:37.000Z</time></trkpt><trkpt lat="40.03661" lon="-8.53624"><time>2022-02-26T12:25:47.000Z</time></trkpt><trkpt lat="40.03659" lon="-8.53619"><ele>87</ele><time>2022-02-26T12:25:33.000Z</time></trkpt><trkpt lat="40.03661" lon="-8.53605"><time>2022-02-26T12:25:43.000Z</time></trkpt><trkpt lat="40.03662" lon="-8.53586"><ele>93</ele><time>2022-02-26T12:25:51.000Z</time></trkpt><trkpt lat="40.03665" lon="-8.53565"><time>2022-02-26T12:26:01.000Z</time></trkpt><trkpt lat="40.0367" lon="-8.5354"><ele>95</ele><time>2022-02-26T12:26:16.000Z</time></trkpt><trkpt lat="40.03672" lon="-8.53527"><time>2022-02-26T12:26:26.000Z</time></trkpt><trkpt lat="40.03669" lon="-8.53521"><time>2022-02-26T12:26:36.000Z</time></trkpt><trkpt lat="40.03669" lon="-8.53514"><time>2022-02-26T12:26:46.000Z</time></trkpt><trkpt lat="40.03667" lon="-8.53508"><ele>96</ele><time>2022-02-26T12:26:31.000Z</time></trkpt><trkpt lat="40.03657" lon="-8.5349"><time>2022-02-26T12:26:41.000Z</time></trkpt><trkpt lat="40.03649" lon="-8.53479"><ele>100</ele><time>2022-02-26T12:26:43.000Z</time></trkpt><trkpt lat="40.03633" lon="-8.53461"><ele>100</ele><time>2022-02-26T12:26:53.000Z</time></trkpt><trkpt lat="40.03631" lon="-8.53456"><time>2022-02-26T12:27:03.000Z</time></trkpt><trkpt lat="40.03622" lon="-8.5345"><time>2022-02-26T12:27:13.000Z</time></trkpt><trkpt lat="40.03617" lon="-8.53445"><time>2022-02-26T12:27:23.000Z</time></trkpt><trkpt lat="40.03614" lon="-8.53441"><ele>102</ele><time>2022-02-26T12:27:33.000Z</time></trkpt><trkpt lat="40.03604" lon="-8.53428"><time>2022-02-26T12:27:43.000Z</time></trkpt><trkpt lat="40.03584" lon="-8.53406"><ele>102</ele><time>2022-02-26T12:27:53.000Z</time></trkpt><trkpt lat="40.0358" lon="-8.534"><time>2022-02-26T12:28:03.000Z</time></trkpt><trkpt lat="40.03577" lon="-8.53389"><time>2022-02-26T12:28:13.000Z</time></trkpt><trkpt lat="40.03576" lon="-8.53381"><ele>103</ele><time>2022-02-26T12:28:23.000Z</time></trkpt><trkpt lat="40.03577" lon="-8.53374"><time>2022-02-26T12:28:33.000Z</time></trkpt><trkpt lat="40.03578" lon="-8.53369"><time>2022-02-26T12:28:43.000Z</time></trkpt><trkpt lat="40.03582" lon="-8.53364"><time>2022-02-26T12:28:53.000Z</time></trkpt><trkpt lat="40.03586" lon="-8.5336"><time>2022-02-26T12:29:03.000Z</time></trkpt><trkpt lat="40.03593" lon="-8.53341"><ele>103</ele><time>2022-02-26T12:29:13.000Z</time></trkpt><trkpt lat="40.03597" lon="-8.53334"><time>2022-02-26T12:29:23.000Z</time></trkpt><trkpt lat="40.03601" lon="-8.53323"><time>2022-02-26T12:29:33.000Z</time></trkpt><trkpt lat="40.03605" lon="-8.53311"><ele>110</ele><time>2022-02-26T12:29:43.000Z</time></trkpt><trkpt lat="40.03605" lon="-8.53305"><time>2022-02-26T12:29:53.000Z</time></trkpt><trkpt lat="40.03606" lon="-8.53299"><time>2022-02-26T12:30:03.000Z</time></trkpt><trkpt lat="40.0361" lon="-8.53286"><time>2022-02-26T12:30:13.000Z</time></trkpt><trkpt lat="40.03611" lon="-8.53279"><ele>115</ele><time>2022-02-26T12:30:23.000Z</time></trkpt><trkpt lat="40.03612" lon="-8.53267"><time>2022-02-26T12:30:33.000Z</time></trkpt><trkpt lat="40.03612" lon="-8.5324"><ele>119</ele><time>2022-02-26T12:29:15.000Z</time></trkpt><trkpt lat="40.03612" lon="-8.53232"><time>2022-02-26T12:29:25.000Z</time></trkpt><trkpt lat="40.03611" lon="-8.53225"><time>2022-02-26T12:29:35.000Z</time></trkpt><trkpt lat="40.03609" lon="-8.53219"><time>2022-02-26T12:29:45.000Z</time></trkpt><trkpt lat="40.03609" lon="-8.53212"><ele>121</ele><time>2022-02-26T12:29:29.000Z</time></trkpt><trkpt lat="40.03609" lon="-8.53198"><time>2022-02-26T12:29:39.000Z</time></trkpt><trkpt lat="40.0361" lon="-8.53185"><ele>121</ele><time>2022-02-26T12:29:43.000Z</time></trkpt><trkpt lat="40.03614" lon="-8.53166"><time>2022-02-26T12:29:53.000Z</time></trkpt><trkpt lat="40.03619" lon="-8.53147"><ele>123</ele><time>2022-02-26T12:30:01.000Z</time></trkpt><trkpt lat="40.03627" lon="-8.53123"><time>2022-02-26T12:30:11.000Z</time></trkpt><trkpt lat="40.03629" lon="-8.53111"><ele>123</ele><time>2022-02-26T12:30:20.000Z</time></trkpt><trkpt lat="40.0363" lon="-8.53103"><time>2022-02-26T12:30:30.000Z</time></trkpt><trkpt lat="40.03629" lon="-8.53096"><time>2022-02-26T12:30:40.000Z</time></trkpt><trkpt lat="40.03626" lon="-8.5309"><time>2022-02-26T12:30:50.000Z</time></trkpt><trkpt lat="40.03624" lon="-8.53084"><ele>124</ele><time>2022-02-26T12:30:35.000Z</time></trkpt><trkpt lat="40.03618" lon="-8.53073"><time>2022-02-26T12:30:45.000Z</time></trkpt><trkpt lat="40.03612" lon="-8.53054"><ele>125</ele><time>2022-02-26T12:30:50.000Z</time></trkpt><trkpt lat="40.03606" lon="-8.53042"><time>2022-02-26T12:31:00.000Z</time></trkpt><trkpt lat="40.03595" lon="-8.53026"><ele>127</ele><time>2022-02-26T12:31:03.000Z</time></trkpt><trkpt lat="40.03579" lon="-8.53006"><ele>132</ele><time>2022-02-26T12:31:13.000Z</time></trkpt><trkpt lat="40.03574" lon="-8.53002"><time>2022-02-26T12:31:23.000Z</time></trkpt><trkpt lat="40.0357" lon="-8.53"><time>2022-02-26T12:31:33.000Z</time></trkpt><trkpt lat="40.03565" lon="-8.53"><time>2022-02-26T12:31:43.000Z</time></trkpt><trkpt lat="40.0356" lon="-8.52999"><ele>134</ele><time>2022-02-26T12:31:53.000Z</time></trkpt><trkpt lat="40.03554" lon="-8.52996"><time>2022-02-26T12:32:03.000Z</time></trkpt><trkpt lat="40.03542" lon="-8.52984"><ele>136</ele><time>2022-02-26T12:32:13.000Z</time></trkpt><trkpt lat="40.03537" lon="-8.52982"><time>2022-02-26T12:32:23.000Z</time></trkpt><trkpt lat="40.03532" lon="-8.52981"><time>2022-02-26T12:32:33.000Z</time></trkpt><trkpt lat="40.03527" lon="-8.52982"><time>2022-02-26T12:32:43.000Z</time></trkpt><trkpt lat="40.03513" lon="-8.52986"><ele>138</ele><time>2022-02-26T12:32:53.000Z</time></trkpt><trkpt lat="40.03508" lon="-8.52989"><time>2022-02-26T12:33:03.000Z</time></trkpt><trkpt lat="40.03499" lon="-8.52993"><time>2022-02-26T12:33:13.000Z</time></trkpt><trkpt lat="40.03484" lon="-8.53001"><ele>135</ele><time>2022-02-26T12:32:43.000Z</time></trkpt><trkpt lat="40.03473" lon="-8.53005"><time>2022-02-26T12:32:53.000Z</time></trkpt><trkpt lat="40.03461" lon="-8.53012"><ele>135</ele><time>2022-02-26T12:33:03.000Z</time></trkpt><trkpt lat="40.03457" lon="-8.53015"><time>2022-02-26T12:33:13.000Z</time></trkpt><trkpt lat="40.03442" lon="-8.53029"><ele>135</ele><time>2022-02-26T12:33:23.000Z</time></trkpt><trkpt lat="40.03436" lon="-8.53032"><time>2022-02-26T12:33:33.000Z</time></trkpt><trkpt lat="40.03418" lon="-8.53037"><ele>148</ele><time>2022-02-26T12:33:43.000Z</time></trkpt><trkpt lat="40.03402" lon="-8.53043"><time>2022-02-26T12:33:53.000Z</time></trkpt><trkpt lat="40.03382" lon="-8.53048"><ele>151</ele><time>2022-02-26T12:34:03.000Z</time></trkpt><trkpt lat="40.03377" lon="-8.53048"><time>2022-02-26T12:34:13.000Z</time></trkpt><trkpt lat="40.03371" lon="-8.53048"><time>2022-02-26T12:34:23.000Z</time></trkpt><trkpt lat="40.03366" lon="-8.53045"><time>2022-02-26T12:34:33.000Z</time></trkpt><trkpt lat="40.03362" lon="-8.53041"><ele>155</ele><time>2022-02-26T12:34:43.000Z</time></trkpt><trkpt lat="40.03359" lon="-8.53036"><time>2022-02-26T12:34:53.000Z</time></trkpt><trkpt lat="40.03362" lon="-8.5303"><time>2022-02-26T12:35:03.000Z</time></trkpt><trkpt lat="40.0337" lon="-8.53024"><time>2022-02-26T12:35:13.000Z</time></trkpt><trkpt lat="40.03384" lon="-8.53014"><ele>161</ele><time>2022-02-26T12:34:31.000Z</time></trkpt><trkpt lat="40.03388" lon="-8.53009"><time>2022-02-26T12:34:41.000Z</time></trkpt><trkpt lat="40.03393" lon="-8.52997"><time>2022-02-26T12:34:51.000Z</time></trkpt><trkpt lat="40.03395" lon="-8.52991"><ele>166</ele><time>2022-02-26T12:34:56.000Z</time></trkpt><trkpt lat="40.03406" lon="-8.52977"><time>2022-02-26T12:35:06.000Z</time></trkpt><trkpt lat="40.03409" lon="-8.52971"><time>2022-02-26T12:35:16.000Z</time></trkpt><trkpt lat="40.03414" lon="-8.52967"><ele>166</ele><time>2022-02-26T12:35:26.000Z</time></trkpt><trkpt lat="40.03418" lon="-8.52963"><time>2022-02-26T12:35:36.000Z</time></trkpt><trkpt lat="40.03433" lon="-8.52955"><ele>166</ele><time>2022-02-26T12:35:46.000Z</time></trkpt><trkpt lat="40.03436" lon="-8.5295"><time>2022-02-26T12:35:56.000Z</time></trkpt><trkpt lat="40.0344" lon="-8.52945"><time>2022-02-26T12:36:06.000Z</time></trkpt><trkpt lat="40.03443" lon="-8.5294"><time>2022-02-26T12:36:16.000Z</time></trkpt><trkpt lat="40.03445" lon="-8.52934"><time>2022-02-26T12:36:26.000Z</time></trkpt><trkpt lat="40.0346" lon="-8.52916"><ele>164</ele><time>2022-02-26T12:35:59.000Z</time></trkpt><trkpt lat="40.03464" lon="-8.5291"><time>2022-02-26T12:36:09.000Z</time></trkpt><trkpt lat="40.03466" lon="-8.52904"><time>2022-02-26T12:36:19.000Z</time></trkpt><trkpt lat="40.03466" lon="-8.52897"><time>2022-02-26T12:36:29.000Z</time></trkpt><trkpt lat="40.03464" lon="-8.52884"><ele>166</ele><time>2022-02-26T12:36:19.000Z</time></trkpt><trkpt lat="40.03455" lon="-8.52862"><time>2022-02-26T12:36:29.000Z</time></trkpt><trkpt lat="40.03451" lon="-8.5285"><ele>169</ele><time>2022-02-26T12:36:39.000Z</time></trkpt><trkpt lat="40.03451" lon="-8.52844"><time>2022-02-26T12:36:49.000Z</time></trkpt><trkpt lat="40.03448" lon="-8.52838"><time>2022-02-26T12:36:59.000Z</time></trkpt><trkpt lat="40.03443" lon="-8.52836"><time>2022-02-26T12:37:09.000Z</time></trkpt><trkpt lat="40.03433" lon="-8.52841"><ele>176</ele><time>2022-02-26T12:37:10.000Z</time></trkpt><trkpt lat="40.03415" lon="-8.52852"><time>2022-02-26T12:37:20.000Z</time></trkpt><trkpt lat="40.03401" lon="-8.52863"><ele>183</ele><time>2022-02-26T12:37:36.000Z</time></trkpt><trkpt lat="40.03387" lon="-8.52869"><time>2022-02-26T12:37:46.000Z</time></trkpt><trkpt lat="40.03378" lon="-8.52874"><ele>186</ele><time>2022-02-26T12:37:56.000Z</time></trkpt><trkpt lat="40.03373" lon="-8.52875"><time>2022-02-26T12:38:06.000Z</time></trkpt><trkpt lat="40.03367" lon="-8.52878"><time>2022-02-26T12:38:16.000Z</time></trkpt><trkpt lat="40.03352" lon="-8.5288"><ele>186</ele><time>2022-02-26T12:38:26.000Z</time></trkpt><trkpt lat="40.03347" lon="-8.5288"><time>2022-02-26T12:38:36.000Z</time></trkpt><trkpt lat="40.03332" lon="-8.52877"><time>2022-02-26T12:38:46.000Z</time></trkpt><trkpt lat="40.03327" lon="-8.52877"><ele>193</ele><time>2022-02-26T12:38:48.000Z</time></trkpt><trkpt lat="40.03317" lon="-8.52872"><time>2022-02-26T12:38:58.000Z</time></trkpt><trkpt lat="40.03308" lon="-8.52867"><time>2022-02-26T12:39:08.000Z</time></trkpt><trkpt lat="40.03298" lon="-8.52863"><ele>209</ele><time>2022-02-26T12:39:13.000Z</time></trkpt><trkpt lat="40.03282" lon="-8.52858"><time>2022-02-26T12:39:23.000Z</time></trkpt><trkpt lat="40.03273" lon="-8.52857"><ele>209</ele><time>2022-02-26T12:39:36.000Z</time></trkpt><trkpt lat="40.03249" lon="-8.52858"><ele>215</ele><time>2022-02-26T12:39:46.000Z</time></trkpt><trkpt lat="40.0324" lon="-8.5286"><time>2022-02-26T12:39:56.000Z</time></trkpt><trkpt lat="40.0323" lon="-8.52859"><time>2022-02-26T12:40:06.000Z</time></trkpt><trkpt lat="40.03209" lon="-8.52862"><ele>224</ele><time>2022-02-26T12:40:16.000Z</time></trkpt><trkpt lat="40.03194" lon="-8.52862"><time>2022-02-26T12:40:26.000Z</time></trkpt><trkpt lat="40.03183" lon="-8.52859"><ele>230</ele><time>2022-02-26T12:40:36.000Z</time></trkpt><trkpt lat="40.03179" lon="-8.52857"><time>2022-02-26T12:40:46.000Z</time></trkpt><trkpt lat="40.03175" lon="-8.52852"><time>2022-02-26T12:40:56.000Z</time></trkpt><trkpt lat="40.03168" lon="-8.5284"><ele>230</ele><time>2022-02-26T12:41:06.000Z</time></trkpt><trkpt lat="40.03155" lon="-8.5282"><time>2022-02-26T12:41:16.000Z</time></trkpt><trkpt lat="40.03147" lon="-8.52814"><ele>241</ele><time>2022-02-26T12:41:26.000Z</time></trkpt><trkpt lat="40.03142" lon="-8.52811"><time>2022-02-26T12:41:36.000Z</time></trkpt><trkpt lat="40.03131" lon="-8.528"><time>2022-02-26T12:41:46.000Z</time></trkpt><trkpt lat="40.03121" lon="-8.52786"><ele>247</ele><time>2022-02-26T12:41:56.000Z</time></trkpt><trkpt lat="40.0311" lon="-8.52773"><time>2022-02-26T12:42:06.000Z</time></trkpt><trkpt lat="40.03093" lon="-8.5275"><ele>254</ele><time>2022-02-26T12:42:16.000Z</time></trkpt><trkpt lat="40.03083" lon="-8.52736"><time>2022-02-26T12:42:26.000Z</time></trkpt><trkpt lat="40.03079" lon="-8.52733"><time>2022-02-26T12:42:36.000Z</time></trkpt><trkpt lat="40.03072" lon="-8.52724"><ele>254</ele><time>2022-02-26T12:42:46.000Z</time></trkpt><trkpt lat="40.03068" lon="-8.52713"><time>2022-02-26T12:42:56.000Z</time></trkpt><trkpt lat="40.03062" lon="-8.52702"><time>2022-02-26T12:43:06.000Z</time></trkpt><trkpt lat="40.03051" lon="-8.5268"><ele>267</ele><time>2022-02-26T12:45:08.000Z</time></trkpt><trkpt lat="40.0305" lon="-8.52674"><time>2022-02-26T12:45:18.000Z</time></trkpt><trkpt lat="40.03052" lon="-8.52669"><time>2022-02-26T12:45:28.000Z</time></trkpt><trkpt lat="40.03052" lon="-8.52655"><time>2022-02-26T12:45:38.000Z</time></trkpt><trkpt lat="40.03052" lon="-8.52648"><ele>273</ele><time>2022-02-26T12:45:47.000Z</time></trkpt><trkpt lat="40.03059" lon="-8.52637"><time>2022-02-26T12:45:57.000Z</time></trkpt><trkpt lat="40.03062" lon="-8.52632"><time>2022-02-26T12:46:07.000Z</time></trkpt><trkpt lat="40.03066" lon="-8.52619"><ele>276</ele><time>2022-02-26T12:46:12.000Z</time></trkpt><trkpt lat="40.03067" lon="-8.52606"><time>2022-02-26T12:46:22.000Z</time></trkpt><trkpt lat="40.03068" lon="-8.52586"><ele>279</ele><time>2022-02-26T12:46:38.000Z</time></trkpt><trkpt lat="40.03066" lon="-8.52566"><time>2022-02-26T12:46:48.000Z</time></trkpt><trkpt lat="40.03065" lon="-8.52547"><ele>282</ele><time>2022-02-26T12:47:05.000Z</time></trkpt><trkpt lat="40.03066" lon="-8.52528"><time>2022-02-26T12:47:15.000Z</time></trkpt><trkpt lat="40.03064" lon="-8.52509"><ele>282</ele><time>2022-02-26T12:47:25.000Z</time></trkpt><trkpt lat="40.03063" lon="-8.52502"><time>2022-02-26T12:47:35.000Z</time></trkpt><trkpt lat="40.03061" lon="-8.52496"><time>2022-02-26T12:47:45.000Z</time></trkpt><trkpt lat="40.03059" lon="-8.52484"><time>2022-02-26T12:47:55.000Z</time></trkpt><trkpt lat="40.03058" lon="-8.5247"><ele>283</ele><time>2022-02-26T12:47:57.000Z</time></trkpt><trkpt lat="40.03058" lon="-8.52458"><time>2022-02-26T12:48:07.000Z</time></trkpt><trkpt lat="40.03062" lon="-8.52438"><ele>286</ele><time>2022-02-26T12:48:17.000Z</time></trkpt><trkpt lat="40.03062" lon="-8.52432"><time>2022-02-26T12:48:27.000Z</time></trkpt><trkpt lat="40.03061" lon="-8.52412"><time>2022-02-26T12:48:37.000Z</time></trkpt><trkpt lat="40.03061" lon="-8.52392"><ele>292</ele><time>2022-02-26T12:48:50.000Z</time></trkpt><trkpt lat="40.03056" lon="-8.52359"><ele>296</ele><time>2022-02-26T12:49:00.000Z</time></trkpt><trkpt lat="40.03051" lon="-8.5234"><time>2022-02-26T12:49:10.000Z</time></trkpt><trkpt lat="40.03047" lon="-8.52327"><ele>303</ele><time>2022-02-26T12:49:20.000Z</time></trkpt><trkpt lat="40.03044" lon="-8.52314"><time>2022-02-26T12:49:30.000Z</time></trkpt><trkpt lat="40.0304" lon="-8.52302"><time>2022-02-26T12:49:40.000Z</time></trkpt><trkpt lat="40.03028" lon="-8.52323"><ele>303</ele><time>2022-02-26T12:49:50.000Z</time></trkpt><trkpt lat="40.03023" lon="-8.52335"><time>2022-02-26T12:50:00.000Z</time></trkpt><trkpt lat="40.0302" lon="-8.5234"><time>2022-02-26T12:50:10.000Z</time></trkpt><trkpt lat="40.02997" lon="-8.52354"><ele>307</ele><time>2022-02-26T12:50:20.000Z</time></trkpt><trkpt lat="40.02988" lon="-8.52356"><time>2022-02-26T12:50:30.000Z</time></trkpt><trkpt lat="40.02983" lon="-8.52355"><time>2022-02-26T12:50:40.000Z</time></trkpt><trkpt lat="40.0297" lon="-8.52343"><ele>310</ele><time>2022-02-26T12:51:18.000Z</time></trkpt><trkpt lat="40.02943" lon="-8.52314"><ele>312</ele><time>2022-02-26T12:51:28.000Z</time></trkpt><trkpt lat="40.0293" lon="-8.52303"><time>2022-02-26T12:51:38.000Z</time></trkpt><trkpt lat="40.02914" lon="-8.52286"><ele>320</ele><time>2022-02-26T12:52:10.000Z</time></trkpt><trkpt lat="40.02881" lon="-8.52256"><ele>325</ele><time>2022-02-26T12:52:20.000Z</time></trkpt><trkpt lat="40.02877" lon="-8.52254"><time>2022-02-26T12:52:30.000Z</time></trkpt><trkpt lat="40.02873" lon="-8.52258"><time>2022-02-26T12:52:40.000Z</time></trkpt><trkpt lat="40.02873" lon="-8.5228"><ele>332</ele><time>2022-02-26T12:53:11.000Z</time></trkpt><trkpt lat="40.02869" lon="-8.52307"><ele>334</ele><time>2022-02-26T12:53:27.000Z</time></trkpt><trkpt lat="40.02859" lon="-8.52336"><ele>334</ele><time>2022-02-26T12:53:37.000Z</time></trkpt><trkpt lat="40.02857" lon="-8.52342"><time>2022-02-26T12:53:47.000Z</time></trkpt><trkpt lat="40.0285" lon="-8.52353"><time>2022-02-26T12:53:57.000Z</time></trkpt><trkpt lat="40.0284" lon="-8.52368"><ele>343</ele><time>2022-02-26T12:54:07.000Z</time></trkpt><trkpt lat="40.02833" lon="-8.52376"><time>2022-02-26T12:54:17.000Z</time></trkpt><trkpt lat="40.02829" lon="-8.5238"><time>2022-02-26T12:54:27.000Z</time></trkpt><trkpt lat="40.02817" lon="-8.5239"><ele>354</ele><time>2022-02-26T12:54:37.000Z</time></trkpt><trkpt lat="40.02804" lon="-8.52402"><time>2022-02-26T12:54:47.000Z</time></trkpt><trkpt lat="40.0277" lon="-8.52437"><ele>356</ele><time>2022-02-26T12:54:57.000Z</time></trkpt><trkpt lat="40.02763" lon="-8.52446"><time>2022-02-26T12:55:07.000Z</time></trkpt><trkpt lat="40.02742" lon="-8.52461"><ele>359</ele><time>2022-02-26T12:56:16.000Z</time></trkpt><trkpt lat="40.02724" lon="-8.52472"><time>2022-02-26T12:56:26.000Z</time></trkpt><trkpt lat="40.02705" lon="-8.5248"><ele>365</ele><time>2022-02-26T12:56:50.000Z</time></trkpt><trkpt lat="40.02681" lon="-8.52494"><ele>363</ele><time>2022-02-26T12:57:00.000Z</time></trkpt><trkpt lat="40.02665" lon="-8.52501"><time>2022-02-26T12:57:10.000Z</time></trkpt><trkpt lat="40.02656" lon="-8.52503"><ele>365</ele><time>2022-02-26T12:57:20.000Z</time></trkpt><trkpt lat="40.02644" lon="-8.52504"><time>2022-02-26T12:57:30.000Z</time></trkpt><trkpt lat="40.02617" lon="-8.52505"><ele>361</ele><time>2022-02-26T12:57:52.000Z</time></trkpt><trkpt lat="40.02591" lon="-8.52504"><ele>357</ele><time>2022-02-26T12:58:11.000Z</time></trkpt><trkpt lat="40.02581" lon="-8.52503"><time>2022-02-26T12:58:21.000Z</time></trkpt><trkpt lat="40.02566" lon="-8.52498"><ele>356</ele><time>2022-02-26T12:58:28.000Z</time></trkpt><trkpt lat="40.02561" lon="-8.52495"><time>2022-02-26T12:58:38.000Z</time></trkpt><trkpt lat="40.02546" lon="-8.52483"><ele>355</ele><time>2022-02-26T12:58:44.000Z</time></trkpt><trkpt lat="40.02538" lon="-8.52477"><time>2022-02-26T12:58:54.000Z</time></trkpt><trkpt lat="40.02523" lon="-8.52471"><ele>355</ele><time>2022-02-26T12:59:01.000Z</time></trkpt><trkpt lat="40.02503" lon="-8.52462"><ele>355</ele><time>2022-02-26T12:59:11.000Z</time></trkpt><trkpt lat="40.02485" lon="-8.52455"><time>2022-02-26T12:59:21.000Z</time></trkpt><trkpt lat="40.02463" lon="-8.52439"><ele>356</ele><time>2022-02-26T12:59:31.000Z</time></trkpt><trkpt lat="40.02454" lon="-8.52431"><time>2022-02-26T12:59:41.000Z</time></trkpt><trkpt lat="40.02444" lon="-8.52424"><ele>356</ele><time>2022-02-26T12:59:51.000Z</time></trkpt><trkpt lat="40.02435" lon="-8.52414"><time>2022-02-26T13:00:01.000Z</time></trkpt><trkpt lat="40.0243" lon="-8.5241"><time>2022-02-26T13:00:11.000Z</time></trkpt><trkpt lat="40.02424" lon="-8.5241"><ele>361</ele><time>2022-02-26T13:00:21.000Z</time></trkpt><trkpt lat="40.02419" lon="-8.52411"><time>2022-02-26T13:00:31.000Z</time></trkpt><trkpt lat="40.02414" lon="-8.52409"><time>2022-02-26T13:00:41.000Z</time></trkpt><trkpt lat="40.02414" lon="-8.52403"><time>2022-02-26T13:00:51.000Z</time></trkpt><trkpt lat="40.0241" lon="-8.524"><time>2022-02-26T13:01:01.000Z</time></trkpt><trkpt lat="40.02407" lon="-8.52396"><ele>384</ele><time>2022-02-26T13:01:11.000Z</time></trkpt><trkpt lat="40.02402" lon="-8.52392"><time>2022-02-26T13:01:21.000Z</time></trkpt><trkpt lat="40.02398" lon="-8.52392"><time>2022-02-26T13:01:31.000Z</time></trkpt><trkpt lat="40.02386" lon="-8.5238"><ele>384</ele><time>2022-02-26T13:01:41.000Z</time></trkpt><trkpt lat="40.02376" lon="-8.52374"><time>2022-02-26T13:01:51.000Z</time></trkpt><trkpt lat="40.02372" lon="-8.52374"><time>2022-02-26T13:02:01.000Z</time></trkpt><trkpt lat="40.02367" lon="-8.52372"><time>2022-02-26T13:02:11.000Z</time></trkpt><trkpt lat="40.02356" lon="-8.5236"><ele>406</ele><time>2022-02-26T13:02:21.000Z</time></trkpt><trkpt lat="40.02351" lon="-8.52358"><time>2022-02-26T13:02:31.000Z</time></trkpt><trkpt lat="40.02348" lon="-8.52363"><time>2022-02-26T13:02:41.000Z</time></trkpt><trkpt lat="40.02343" lon="-8.52361"><time>2022-02-26T13:02:51.000Z</time></trkpt><trkpt lat="40.02339" lon="-8.52358"><time>2022-02-26T13:03:01.000Z</time></trkpt><trkpt lat="40.02329" lon="-8.52356"><ele>416</ele><time>2022-02-26T13:03:11.000Z</time></trkpt><trkpt lat="40.02324" lon="-8.52353"><time>2022-02-26T13:03:21.000Z</time></trkpt><trkpt lat="40.02321" lon="-8.52348"><time>2022-02-26T13:03:31.000Z</time></trkpt><trkpt lat="40.02319" lon="-8.52342"><time>2022-02-26T13:03:41.000Z</time></trkpt><trkpt lat="40.02318" lon="-8.52336"><time>2022-02-26T13:03:51.000Z</time></trkpt><trkpt lat="40.02316" lon="-8.52329"><ele>426</ele><time>2022-02-26T13:04:01.000Z</time></trkpt><trkpt lat="40.02313" lon="-8.52325"><time>2022-02-26T13:04:11.000Z</time></trkpt><trkpt lat="40.02308" lon="-8.52323"><time>2022-02-26T13:04:21.000Z</time></trkpt><trkpt lat="40.02298" lon="-8.52317"><time>2022-02-26T13:04:31.000Z</time></trkpt><trkpt lat="40.02295" lon="-8.52313"><ele>428</ele><time>2022-02-26T13:04:41.000Z</time></trkpt><trkpt lat="40.02287" lon="-8.52304"><time>2022-02-26T13:04:51.000Z</time></trkpt><trkpt lat="40.02275" lon="-8.52282"><ele>433</ele><time>2022-02-26T13:04:51.000Z</time></trkpt><trkpt lat="40.02271" lon="-8.52279"><time>2022-02-26T13:05:01.000Z</time></trkpt><trkpt lat="40.02266" lon="-8.52276"><time>2022-02-26T13:05:11.000Z</time></trkpt><trkpt lat="40.02262" lon="-8.52272"><time>2022-02-26T13:05:21.000Z</time></trkpt><trkpt lat="40.0226" lon="-8.52267"><time>2022-02-26T13:05:31.000Z</time></trkpt><trkpt lat="40.02256" lon="-8.52263"><ele>435</ele><time>2022-02-26T13:05:27.000Z</time></trkpt><trkpt lat="40.02253" lon="-8.52257"><time>2022-02-26T13:05:37.000Z</time></trkpt><trkpt lat="40.02249" lon="-8.52252"><time>2022-02-26T13:05:47.000Z</time></trkpt><trkpt lat="40.02245" lon="-8.52249"><time>2022-02-26T13:05:57.000Z</time></trkpt><trkpt lat="40.02241" lon="-8.52245"><ele>435</ele><time>2022-02-26T13:06:07.000Z</time></trkpt><trkpt lat="40.02238" lon="-8.5224"><time>2022-02-26T13:06:17.000Z</time></trkpt><trkpt lat="40.02236" lon="-8.52233"><time>2022-02-26T13:06:27.000Z</time></trkpt><trkpt lat="40.02244" lon="-8.52221"><ele>435</ele><time>2022-02-26T13:06:37.000Z</time></trkpt><trkpt lat="40.02248" lon="-8.52216"><time>2022-02-26T13:06:47.000Z</time></trkpt><trkpt lat="40.02258" lon="-8.52208"><time>2022-02-26T13:06:57.000Z</time></trkpt><trkpt lat="40.02266" lon="-8.522"><ele>439</ele><time>2022-02-26T13:06:27.000Z</time></trkpt><trkpt lat="40.02272" lon="-8.52194"><time>2022-02-26T13:06:37.000Z</time></trkpt><trkpt lat="40.02284" lon="-8.52186"><ele>444</ele><time>2022-02-26T13:06:34.000Z</time></trkpt><trkpt lat="40.02302" lon="-8.5217"><ele>444</ele><time>2022-02-26T13:06:44.000Z</time></trkpt><trkpt lat="40.0231" lon="-8.52159"><time>2022-02-26T13:06:54.000Z</time></trkpt><trkpt lat="40.02313" lon="-8.52155"><time>2022-02-26T13:07:04.000Z</time></trkpt><trkpt lat="40.02319" lon="-8.52145"><ele>438</ele><time>2022-02-26T13:07:14.000Z</time></trkpt><trkpt lat="40.02325" lon="-8.52131"><time>2022-02-26T13:07:24.000Z</time></trkpt><trkpt lat="40.02327" lon="-8.52123"><time>2022-02-26T13:07:34.000Z</time></trkpt><trkpt lat="40.02332" lon="-8.52101"><ele>433</ele><time>2022-02-26T13:07:44.000Z</time></trkpt><trkpt lat="40.02339" lon="-8.52079"><time>2022-02-26T13:07:54.000Z</time></trkpt><trkpt lat="40.02348" lon="-8.52036"><ele>430</ele><time>2022-02-26T13:07:39.000Z</time></trkpt><trkpt lat="40.02358" lon="-8.51998"><ele>427</ele><time>2022-02-26T13:07:49.000Z</time></trkpt><trkpt lat="40.02371" lon="-8.5194"><ele>426</ele><time>2022-02-26T13:08:18.000Z</time></trkpt><trkpt lat="40.02379" lon="-8.51899"><ele>427</ele><time>2022-02-26T13:08:28.000Z</time></trkpt><trkpt lat="40.02381" lon="-8.51885"><time>2022-02-26T13:08:38.000Z</time></trkpt><trkpt lat="40.02381" lon="-8.51877"><time>2022-02-26T13:08:48.000Z</time></trkpt><trkpt lat="40.02381" lon="-8.51863"><ele>425</ele><time>2022-02-26T13:08:58.000Z</time></trkpt><trkpt lat="40.0238" lon="-8.51848"><time>2022-02-26T13:09:08.000Z</time></trkpt><trkpt lat="40.02378" lon="-8.51841"><time>2022-02-26T13:09:18.000Z</time></trkpt><trkpt lat="40.02378" lon="-8.51834"><ele>425</ele><time>2022-02-26T13:09:28.000Z</time></trkpt><trkpt lat="40.02378" lon="-8.51836"><time>2022-02-26T13:09:38.000Z</time></trkpt><trkpt lat="40.02377" lon="-8.51821"><time>2022-02-26T13:09:48.000Z</time></trkpt><trkpt lat="40.02378" lon="-8.51819"><time>2022-02-26T13:09:58.000Z</time></trkpt><trkpt lat="40.0238" lon="-8.51817"><time>2022-02-26T13:10:08.000Z</time></trkpt><trkpt lat="40.02387" lon="-8.51806"><ele>425</ele><time>2022-02-26T13:10:18.000Z</time></trkpt><trkpt lat="40.02389" lon="-8.51801"><time>2022-02-26T13:10:28.000Z</time></trkpt><trkpt lat="40.02391" lon="-8.51798"><time>2022-02-26T13:10:38.000Z</time></trkpt><trkpt lat="40.02398" lon="-8.51792"><time>2022-02-26T13:10:48.000Z</time></trkpt><trkpt lat="40.02401" lon="-8.51785"><ele>425</ele><time>2022-02-26T13:10:58.000Z</time></trkpt><trkpt lat="40.02404" lon="-8.51783"><time>2022-02-26T13:11:08.000Z</time></trkpt><trkpt lat="40.02405" lon="-8.5178"><time>2022-02-26T13:11:18.000Z</time></trkpt><trkpt lat="40.02406" lon="-8.51774"><time>2022-02-26T13:11:28.000Z</time></trkpt><trkpt lat="40.02408" lon="-8.51772"><time>2022-02-26T13:11:38.000Z</time></trkpt><trkpt lat="40.02415" lon="-8.5176"><ele>415</ele><time>2022-02-26T13:11:48.000Z</time></trkpt><trkpt lat="40.02421" lon="-8.51754"><time>2022-02-26T13:11:58.000Z</time></trkpt><trkpt lat="40.02422" lon="-8.5175"><time>2022-02-26T13:12:08.000Z</time></trkpt><trkpt lat="40.02424" lon="-8.51744"><time>2022-02-26T13:12:18.000Z</time></trkpt><trkpt lat="40.02425" lon="-8.51743"><time>2022-02-26T13:12:28.000Z</time></trkpt><trkpt lat="40.02431" lon="-8.51742"><ele>415</ele><time>2022-02-26T13:12:38.000Z</time></trkpt><trkpt lat="40.02433" lon="-8.51741"><time>2022-02-26T13:12:48.000Z</time></trkpt><trkpt lat="40.02435" lon="-8.51737"><time>2022-02-26T13:12:58.000Z</time></trkpt><trkpt lat="40.02436" lon="-8.51734"><time>2022-02-26T13:13:08.000Z</time></trkpt><trkpt lat="40.02436" lon="-8.51728"><time>2022-02-26T13:13:18.000Z</time></trkpt><trkpt lat="40.0244" lon="-8.51723"><time>2022-02-26T13:13:28.000Z</time></trkpt><trkpt lat="40.02442" lon="-8.51723"><time>2022-02-26T13:13:38.000Z</time></trkpt><trkpt lat="40.02442" lon="-8.5172"><ele>401</ele><time>2022-02-26T13:13:48.000Z</time></trkpt><trkpt lat="40.02444" lon="-8.51716"><time>2022-02-26T13:13:58.000Z</time></trkpt><trkpt lat="40.02445" lon="-8.51714"><time>2022-02-26T13:14:08.000Z</time></trkpt><trkpt lat="40.02447" lon="-8.51711"><time>2022-02-26T13:14:18.000Z</time></trkpt><trkpt lat="40.02447" lon="-8.51708"><time>2022-02-26T13:14:28.000Z</time></trkpt><trkpt lat="40.0245" lon="-8.51705"><time>2022-02-26T13:14:38.000Z</time></trkpt><trkpt lat="40.02451" lon="-8.51704"><time>2022-02-26T13:14:48.000Z</time></trkpt><trkpt lat="40.02449" lon="-8.51696"><ele>401</ele><time>2022-02-26T13:14:58.000Z</time></trkpt><trkpt lat="40.02449" lon="-8.51691"><time>2022-02-26T13:15:08.000Z</time></trkpt><trkpt lat="40.02448" lon="-8.51689"><time>2022-02-26T13:15:18.000Z</time></trkpt><trkpt lat="40.02452" lon="-8.51656"><ele>401</ele><time>2022-02-26T13:15:28.000Z</time></trkpt><trkpt lat="40.02451" lon="-8.51647"><time>2022-02-26T13:15:38.000Z</time></trkpt><trkpt lat="40.02453" lon="-8.51638"><time>2022-02-26T13:15:48.000Z</time></trkpt><trkpt lat="40.02455" lon="-8.51633"><time>2022-02-26T13:15:58.000Z</time></trkpt><trkpt lat="40.02462" lon="-8.51627"><ele>386</ele><time>2022-02-26T13:16:08.000Z</time></trkpt><trkpt lat="40.02473" lon="-8.51616"><time>2022-02-26T13:16:18.000Z</time></trkpt><trkpt lat="40.02476" lon="-8.51616"><time>2022-02-26T13:16:28.000Z</time></trkpt><trkpt lat="40.02479" lon="-8.51614"><time>2022-02-26T13:16:38.000Z</time></trkpt><trkpt lat="40.02482" lon="-8.51606"><ele>384</ele><time>2022-02-26T13:16:48.000Z</time></trkpt><trkpt lat="40.02483" lon="-8.51606"><time>2022-02-26T13:16:58.000Z</time></trkpt><trkpt lat="40.02484" lon="-8.51605"><time>2022-02-26T13:17:08.000Z</time></trkpt><trkpt lat="40.02483" lon="-8.51605"><time>2022-02-26T13:17:18.000Z</time></trkpt><trkpt lat="40.02484" lon="-8.51599"><time>2022-02-26T13:17:28.000Z</time></trkpt><trkpt lat="40.02484" lon="-8.51591"><time>2022-02-26T13:17:38.000Z</time></trkpt><trkpt lat="40.02483" lon="-8.51588"><time>2022-02-26T13:17:48.000Z</time></trkpt><trkpt lat="40.02484" lon="-8.51588"><time>2022-02-26T13:17:58.000Z</time></trkpt><trkpt lat="40.02484" lon="-8.51589"><time>2022-02-26T13:18:08.000Z</time></trkpt><trkpt lat="40.02485" lon="-8.51587"><time>2022-02-26T13:18:18.000Z</time></trkpt><trkpt lat="40.02486" lon="-8.51588"><time>2022-02-26T13:18:28.000Z</time></trkpt><trkpt lat="40.02487" lon="-8.51581"><ele>383</ele><time>2022-02-26T13:18:38.000Z</time></trkpt><trkpt lat="40.02489" lon="-8.51575"><time>2022-02-26T13:18:48.000Z</time></trkpt><trkpt lat="40.02492" lon="-8.51575"><time>2022-02-26T13:18:58.000Z</time></trkpt><trkpt lat="40.02495" lon="-8.51565"><time>2022-02-26T13:19:08.000Z</time></trkpt><trkpt lat="40.02497" lon="-8.51564"><time>2022-02-26T13:19:18.000Z</time></trkpt><trkpt lat="40.02501" lon="-8.51551"><ele>378</ele><time>2022-02-26T13:19:28.000Z</time></trkpt><trkpt lat="40.02503" lon="-8.5155"><time>2022-02-26T13:19:38.000Z</time></trkpt><trkpt lat="40.02505" lon="-8.51542"><time>2022-02-26T13:19:48.000Z</time></trkpt><trkpt lat="40.02507" lon="-8.51539"><time>2022-02-26T13:19:58.000Z</time></trkpt><trkpt lat="40.02511" lon="-8.51527"><ele>374</ele><time>2022-02-26T13:20:08.000Z</time></trkpt><trkpt lat="40.02517" lon="-8.51522"><time>2022-02-26T13:20:18.000Z</time></trkpt><trkpt lat="40.02517" lon="-8.51522"><time>2022-02-26T13:20:28.000Z</time></trkpt><trkpt lat="40.02518" lon="-8.51522"><time>2022-02-26T13:20:38.000Z</time></trkpt><trkpt lat="40.02517" lon="-8.51522"><time>2022-02-26T13:20:48.000Z</time></trkpt><trkpt lat="40.02518" lon="-8.51521"><time>2022-02-26T13:20:58.000Z</time></trkpt><trkpt lat="40.0252" lon="-8.5152"><time>2022-02-26T13:21:08.000Z</time></trkpt><trkpt lat="40.02519" lon="-8.51518"><time>2022-02-26T13:21:18.000Z</time></trkpt><trkpt lat="40.02521" lon="-8.51519"><time>2022-02-26T13:21:28.000Z</time></trkpt><trkpt lat="40.0252" lon="-8.51517"><time>2022-02-26T13:21:38.000Z</time></trkpt><trkpt lat="40.02518" lon="-8.51516"><time>2022-02-26T13:21:48.000Z</time></trkpt><trkpt lat="40.02519" lon="-8.51518"><time>2022-02-26T13:21:58.000Z</time></trkpt><trkpt lat="40.0252" lon="-8.51517"><ele>373</ele><time>2022-02-26T13:22:08.000Z</time></trkpt><trkpt lat="40.0252" lon="-8.51518"><time>2022-02-26T13:22:18.000Z</time></trkpt><trkpt lat="40.02521" lon="-8.51516"><time>2022-02-26T13:22:28.000Z</time></trkpt><trkpt lat="40.02524" lon="-8.51511"><time>2022-02-26T13:22:38.000Z</time></trkpt><trkpt lat="40.02527" lon="-8.51512"><time>2022-02-26T13:22:48.000Z</time></trkpt><trkpt lat="40.02527" lon="-8.51511"><time>2022-02-26T13:22:58.000Z</time></trkpt><trkpt lat="40.02526" lon="-8.51512"><time>2022-02-26T13:23:08.000Z</time></trkpt><trkpt lat="40.02526" lon="-8.51511"><time>2022-02-26T13:23:18.000Z</time></trkpt><trkpt lat="40.02531" lon="-8.51503"><time>2022-02-26T13:23:28.000Z</time></trkpt><trkpt lat="40.0253" lon="-8.515"><ele>372</ele><time>2022-02-26T13:23:38.000Z</time></trkpt><trkpt lat="40.02533" lon="-8.51499"><time>2022-02-26T13:23:48.000Z</time></trkpt><trkpt lat="40.02535" lon="-8.51497"><time>2022-02-26T13:23:58.000Z</time></trkpt><trkpt lat="40.02535" lon="-8.51495"><time>2022-02-26T13:24:08.000Z</time></trkpt><trkpt lat="40.02538" lon="-8.51496"><time>2022-02-26T13:24:18.000Z</time></trkpt><trkpt lat="40.02542" lon="-8.51491"><time>2022-02-26T13:24:28.000Z</time></trkpt><trkpt lat="40.02543" lon="-8.51491"><time>2022-02-26T13:24:38.000Z</time></trkpt><trkpt lat="40.02542" lon="-8.51492"><time>2022-02-26T13:24:48.000Z</time></trkpt><trkpt lat="40.02542" lon="-8.51492"><time>2022-02-26T13:24:58.000Z</time></trkpt><trkpt lat="40.02545" lon="-8.5149"><time>2022-02-26T13:25:08.000Z</time></trkpt><trkpt lat="40.02552" lon="-8.5149"><ele>364</ele><time>2022-11-28T10:35:45.000Z</time></trkpt><trkpt lat="40.02556" lon="-8.51487"><time>2022-11-28T10:35:55.000Z</time></trkpt><trkpt lat="40.02556" lon="-8.51489"><time>2022-11-28T10:36:05.000Z</time></trkpt><trkpt lat="40.02556" lon="-8.51491"><time>2022-11-28T10:36:15.000Z</time></trkpt><trkpt lat="40.02558" lon="-8.51495"><time>2022-11-28T10:36:25.000Z</time></trkpt><trkpt lat="40.0256" lon="-8.51497"><time>2022-11-28T10:36:35.000Z</time></trkpt><trkpt lat="40.02562" lon="-8.51501"><time>2022-11-28T10:36:45.000Z</time></trkpt><trkpt lat="40.02563" lon="-8.51509"><ele>364</ele><time>2022-11-28T10:35:56.000Z</time></trkpt><trkpt lat="40.02567" lon="-8.51514"><time>2022-11-28T10:36:06.000Z</time></trkpt><trkpt lat="40.02569" lon="-8.51516"><time>2022-11-28T10:36:16.000Z</time></trkpt><trkpt lat="40.02573" lon="-8.51518"><time>2022-11-28T10:36:26.000Z</time></trkpt><trkpt lat="40.02574" lon="-8.51521"><time>2022-11-28T10:36:36.000Z</time></trkpt><trkpt lat="40.02575" lon="-8.51523"><time>2022-11-28T10:36:46.000Z</time></trkpt><trkpt lat="40.02578" lon="-8.51526"><ele>350</ele><time>2022-11-28T10:36:05.000Z</time></trkpt><trkpt lat="40.02583" lon="-8.51526"><time>2022-11-28T10:36:15.000Z</time></trkpt><trkpt lat="40.02587" lon="-8.51524"><time>2022-11-28T10:36:25.000Z</time></trkpt><trkpt lat="40.02591" lon="-8.51524"><time>2022-11-28T10:36:35.000Z</time></trkpt><trkpt lat="40.02593" lon="-8.51527"><time>2022-11-28T10:36:45.000Z</time></trkpt><trkpt lat="40.02595" lon="-8.51528"><time>2022-11-28T10:36:55.000Z</time></trkpt><trkpt lat="40.02598" lon="-8.51526"><ele>350</ele><time>2022-11-28T10:37:05.000Z</time></trkpt><trkpt lat="40.026" lon="-8.51527"><time>2022-11-28T10:37:15.000Z</time></trkpt><trkpt lat="40.02603" lon="-8.51529"><time>2022-11-28T10:37:25.000Z</time></trkpt><trkpt lat="40.02605" lon="-8.5153"><time>2022-11-28T10:37:35.000Z</time></trkpt><trkpt lat="40.02606" lon="-8.51531"><time>2022-11-28T10:37:45.000Z</time></trkpt><trkpt lat="40.02608" lon="-8.51529"><time>2022-11-28T10:37:55.000Z</time></trkpt><trkpt lat="40.02608" lon="-8.51528"><time>2022-11-28T10:38:05.000Z</time></trkpt><trkpt lat="40.02607" lon="-8.51529"><time>2022-11-28T10:38:15.000Z</time></trkpt><trkpt lat="40.02609" lon="-8.51531"><time>2022-11-28T10:38:25.000Z</time></trkpt><trkpt lat="40.02611" lon="-8.51536"><ele>352</ele><time>2022-11-28T10:38:35.000Z</time></trkpt><trkpt lat="40.02613" lon="-8.51534"><time>2022-11-28T10:38:45.000Z</time></trkpt><trkpt lat="40.02622" lon="-8.51534"><time>2022-11-28T10:38:55.000Z</time></trkpt><trkpt lat="40.02625" lon="-8.51536"><time>2022-11-28T10:39:05.000Z</time></trkpt><trkpt lat="40.02628" lon="-8.51536"><time>2022-11-28T10:39:15.000Z</time></trkpt><trkpt lat="40.02633" lon="-8.5154"><ele>351</ele><time>2022-11-28T10:39:25.000Z</time></trkpt><trkpt lat="40.02636" lon="-8.51532"><time>2022-11-28T10:39:35.000Z</time></trkpt><trkpt lat="40.02637" lon="-8.51531"><time>2022-11-28T10:39:45.000Z</time></trkpt><trkpt lat="40.02642" lon="-8.51533"><time>2022-11-28T10:39:55.000Z</time></trkpt><trkpt lat="40.02643" lon="-8.51532"><time>2022-11-28T10:40:05.000Z</time></trkpt><trkpt lat="40.02645" lon="-8.51535"><time>2022-11-28T10:40:15.000Z</time></trkpt><trkpt lat="40.02654" lon="-8.51543"><ele>351</ele><time>2022-11-28T10:36:51.000Z</time></trkpt><trkpt lat="40.02659" lon="-8.5155"><time>2022-11-28T10:37:01.000Z</time></trkpt><trkpt lat="40.02661" lon="-8.51552"><time>2022-11-28T10:37:11.000Z</time></trkpt><trkpt lat="40.02664" lon="-8.51552"><time>2022-11-28T10:37:21.000Z</time></trkpt><trkpt lat="40.02665" lon="-8.51551"><time>2022-11-28T10:37:31.000Z</time></trkpt><trkpt lat="40.02666" lon="-8.5155"><time>2022-11-28T10:37:41.000Z</time></trkpt><trkpt lat="40.02668" lon="-8.51549"><time>2022-11-28T10:37:51.000Z</time></trkpt><trkpt lat="40.02669" lon="-8.51551"><time>2022-11-28T10:38:01.000Z</time></trkpt><trkpt lat="40.0267" lon="-8.51552"><ele>362</ele><time>2022-11-28T10:38:11.000Z</time></trkpt><trkpt lat="40.0267" lon="-8.51551"><time>2022-11-28T10:38:21.000Z</time></trkpt><trkpt lat="40.02669" lon="-8.51551"><time>2022-11-28T10:38:31.000Z</time></trkpt><trkpt lat="40.0267" lon="-8.51553"><time>2022-11-28T10:38:41.000Z</time></trkpt><trkpt lat="40.0267" lon="-8.51552"><time>2022-11-28T10:38:51.000Z</time></trkpt><trkpt lat="40.02671" lon="-8.51551"><time>2022-11-28T10:39:01.000Z</time></trkpt><trkpt lat="40.02672" lon="-8.51555"><time>2022-11-28T10:39:11.000Z</time></trkpt><trkpt lat="40.02669" lon="-8.51557"><time>2022-11-28T10:39:21.000Z</time></trkpt><trkpt lat="40.02669" lon="-8.51551"><time>2022-11-28T10:39:31.000Z</time></trkpt><trkpt lat="40.02668" lon="-8.51551"><time>2022-11-28T10:39:41.000Z</time></trkpt><trkpt lat="40.02668" lon="-8.51554"><time>2022-11-28T10:39:51.000Z</time></trkpt><trkpt lat="40.02668" lon="-8.51553"><time>2022-11-28T10:40:01.000Z</time></trkpt><trkpt lat="40.02669" lon="-8.51552"><ele>362</ele><time>2022-11-28T10:40:11.000Z</time></trkpt><trkpt lat="40.02671" lon="-8.51554"><time>2022-11-28T10:40:21.000Z</time></trkpt><trkpt lat="40.02672" lon="-8.51555"><time>2022-11-28T10:40:31.000Z</time></trkpt><trkpt lat="40.02673" lon="-8.51554"><time>2022-11-28T10:40:41.000Z</time></trkpt><trkpt lat="40.02671" lon="-8.51553"><time>2022-11-28T10:40:51.000Z</time></trkpt><trkpt lat="40.0267" lon="-8.51555"><time>2022-11-28T10:41:01.000Z</time></trkpt><trkpt lat="40.02675" lon="-8.51567"><time>2022-11-28T10:41:11.000Z</time></trkpt><trkpt lat="40.02676" lon="-8.51573"><ele>368</ele><time>2022-11-28T10:41:21.000Z</time></trkpt><trkpt lat="40.02675" lon="-8.51573"><time>2022-11-28T10:41:31.000Z</time></trkpt><trkpt lat="40.02675" lon="-8.51571"><time>2022-11-28T10:41:41.000Z</time></trkpt><trkpt lat="40.02677" lon="-8.51577"><time>2022-11-28T10:41:51.000Z</time></trkpt><trkpt lat="40.02679" lon="-8.51579"><time>2022-11-28T10:42:01.000Z</time></trkpt><trkpt lat="40.02681" lon="-8.51577"><time>2022-11-28T10:42:11.000Z</time></trkpt><trkpt lat="40.02685" lon="-8.51571"><time>2022-11-28T10:42:21.000Z</time></trkpt><trkpt lat="40.0269" lon="-8.51564"><ele>374</ele><time>2022-11-28T10:42:31.000Z</time></trkpt><trkpt lat="40.02695" lon="-8.51558"><time>2022-11-28T10:42:41.000Z</time></trkpt><trkpt lat="40.02697" lon="-8.51558"><time>2022-11-28T10:42:51.000Z</time></trkpt><trkpt lat="40.02699" lon="-8.5156"><time>2022-11-28T10:43:01.000Z</time></trkpt><trkpt lat="40.02703" lon="-8.51565"><time>2022-11-28T10:43:11.000Z</time></trkpt><trkpt lat="40.02709" lon="-8.51569"><ele>374</ele><time>2022-11-28T10:43:21.000Z</time></trkpt><trkpt lat="40.02708" lon="-8.51569"><time>2022-11-28T10:43:31.000Z</time></trkpt><trkpt lat="40.0271" lon="-8.51568"><time>2022-11-28T10:43:41.000Z</time></trkpt><trkpt lat="40.02711" lon="-8.5157"><time>2022-11-28T10:43:51.000Z</time></trkpt><trkpt lat="40.02718" lon="-8.51574"><time>2022-11-28T10:44:01.000Z</time></trkpt><trkpt lat="40.02723" lon="-8.51575"><time>2022-11-28T10:44:11.000Z</time></trkpt><trkpt lat="40.02725" lon="-8.51575"><time>2022-11-28T10:44:21.000Z</time></trkpt><trkpt lat="40.02731" lon="-8.51568"><ele>385</ele><time>2022-11-28T10:38:20.000Z</time></trkpt><trkpt lat="40.02742" lon="-8.51548"><time>2022-11-28T10:38:30.000Z</time></trkpt><trkpt lat="40.02753" lon="-8.51534"><ele>396</ele><time>2022-11-28T10:38:30.000Z</time></trkpt><trkpt lat="40.02756" lon="-8.51533"><time>2022-11-28T10:38:40.000Z</time></trkpt><trkpt lat="40.02758" lon="-8.51535"><time>2022-11-28T10:38:50.000Z</time></trkpt><trkpt lat="40.02763" lon="-8.51542"><time>2022-11-28T10:39:00.000Z</time></trkpt><trkpt lat="40.02767" lon="-8.51543"><time>2022-11-28T10:39:10.000Z</time></trkpt><trkpt lat="40.0277" lon="-8.51541"><ele>402</ele><time>2022-11-28T10:38:41.000Z</time></trkpt><trkpt lat="40.02777" lon="-8.51532"><time>2022-11-28T10:38:51.000Z</time></trkpt><trkpt lat="40.02783" lon="-8.51522"><time>2022-11-28T10:39:01.000Z</time></trkpt><trkpt lat="40.02787" lon="-8.51511"><ele>404</ele><time>2022-11-28T10:39:11.000Z</time></trkpt><trkpt lat="40.02788" lon="-8.51511"><time>2022-11-28T10:39:21.000Z</time></trkpt><trkpt lat="40.02796" lon="-8.51499"><time>2022-11-28T10:39:31.000Z</time></trkpt><trkpt lat="40.02802" lon="-8.51494"><time>2022-11-28T10:39:41.000Z</time></trkpt><trkpt lat="40.02801" lon="-8.51494"><ele>410</ele><time>2022-11-28T10:39:51.000Z</time></trkpt><trkpt lat="40.02804" lon="-8.51493"><time>2022-11-28T10:40:01.000Z</time></trkpt><trkpt lat="40.02817" lon="-8.51478"><time>2022-11-28T10:40:11.000Z</time></trkpt><trkpt lat="40.0283" lon="-8.51469"><ele>416</ele><time>2022-11-28T10:40:21.000Z</time></trkpt><trkpt lat="40.02832" lon="-8.51467"><time>2022-11-28T10:40:31.000Z</time></trkpt><trkpt lat="40.02841" lon="-8.51465"><time>2022-11-28T10:40:41.000Z</time></trkpt><trkpt lat="40.02848" lon="-8.51465"><time>2022-11-28T10:40:51.000Z</time></trkpt><trkpt lat="40.02856" lon="-8.51455"><ele>420</ele><time>2022-11-28T10:39:38.000Z</time></trkpt><trkpt lat="40.0286" lon="-8.51453"><time>2022-11-28T10:39:48.000Z</time></trkpt><trkpt lat="40.02862" lon="-8.5145"><time>2022-11-28T10:39:58.000Z</time></trkpt><trkpt lat="40.02867" lon="-8.51444"><time>2022-11-28T10:40:08.000Z</time></trkpt><trkpt lat="40.02868" lon="-8.51441"><time>2022-11-28T10:40:18.000Z</time></trkpt><trkpt lat="40.02872" lon="-8.51437"><ele>423</ele><time>2022-11-28T10:40:00.000Z</time></trkpt><trkpt lat="40.02878" lon="-8.51428"><time>2022-11-28T10:40:10.000Z</time></trkpt><trkpt lat="40.02887" lon="-8.51423"><time>2022-11-28T10:40:20.000Z</time></trkpt><trkpt lat="40.02891" lon="-8.5142"><ele>428</ele><time>2022-11-28T10:40:10.000Z</time></trkpt><trkpt lat="40.02894" lon="-8.51414"><time>2022-11-28T10:40:20.000Z</time></trkpt><trkpt lat="40.02901" lon="-8.51404"><time>2022-11-28T10:40:30.000Z</time></trkpt><trkpt lat="40.02904" lon="-8.51399"><time>2022-11-28T10:40:40.000Z</time></trkpt><trkpt lat="40.02906" lon="-8.51398"><ele>429</ele><time>2022-11-28T10:40:22.000Z</time></trkpt><trkpt lat="40.02914" lon="-8.51386"><time>2022-11-28T10:40:32.000Z</time></trkpt><trkpt lat="40.02918" lon="-8.51381"><time>2022-11-28T10:40:42.000Z</time></trkpt><trkpt lat="40.0292" lon="-8.51377"><ele>429</ele><time>2022-11-28T10:40:28.000Z</time></trkpt><trkpt lat="40.02932" lon="-8.5137"><time>2022-11-28T10:40:38.000Z</time></trkpt><trkpt lat="40.02935" lon="-8.5137"><time>2022-11-28T10:40:48.000Z</time></trkpt><trkpt lat="40.02938" lon="-8.51366"><time>2022-11-28T10:40:58.000Z</time></trkpt><trkpt lat="40.02939" lon="-8.51362"><ele>426</ele><time>2022-11-28T10:41:08.000Z</time></trkpt><trkpt lat="40.02942" lon="-8.5136"><time>2022-11-28T10:41:18.000Z</time></trkpt><trkpt lat="40.02946" lon="-8.51352"><time>2022-11-28T10:41:28.000Z</time></trkpt><trkpt lat="40.02954" lon="-8.51325"><ele>425</ele><time>2022-11-28T10:41:38.000Z</time></trkpt><trkpt lat="40.02957" lon="-8.51319"><time>2022-11-28T10:41:48.000Z</time></trkpt><trkpt lat="40.02964" lon="-8.51309"><time>2022-11-28T10:41:58.000Z</time></trkpt><trkpt lat="40.02964" lon="-8.51306"><time>2022-11-28T10:42:08.000Z</time></trkpt><trkpt lat="40.0297" lon="-8.513"><ele>425</ele><time>2022-11-28T10:42:18.000Z</time></trkpt><trkpt lat="40.02971" lon="-8.51296"><time>2022-11-28T10:42:28.000Z</time></trkpt><trkpt lat="40.02973" lon="-8.51287"><time>2022-11-28T10:42:38.000Z</time></trkpt><trkpt lat="40.02981" lon="-8.51273"><ele>427</ele><time>2022-11-28T10:42:48.000Z</time></trkpt><trkpt lat="40.02983" lon="-8.51266"><time>2022-11-28T10:42:58.000Z</time></trkpt><trkpt lat="40.02984" lon="-8.51263"><time>2022-11-28T10:43:08.000Z</time></trkpt><trkpt lat="40.02985" lon="-8.51262"><time>2022-11-28T10:43:18.000Z</time></trkpt><trkpt lat="40.02986" lon="-8.51261"><time>2022-11-28T10:43:28.000Z</time></trkpt><trkpt lat="40.02992" lon="-8.51257"><time>2022-11-28T10:43:38.000Z</time></trkpt><trkpt lat="40.02995" lon="-8.51256"><ele>430</ele><time>2022-11-28T10:43:48.000Z</time></trkpt><trkpt lat="40.02997" lon="-8.51255"><time>2022-11-28T10:43:58.000Z</time></trkpt><trkpt lat="40.02999" lon="-8.5125"><time>2022-11-28T10:44:08.000Z</time></trkpt><trkpt lat="40.03001" lon="-8.51248"><time>2022-11-28T10:44:18.000Z</time></trkpt><trkpt lat="40.03008" lon="-8.5124"><time>2022-11-28T10:44:28.000Z</time></trkpt><trkpt lat="40.03012" lon="-8.51234"><ele>430</ele><time>2022-11-28T10:44:38.000Z</time></trkpt><trkpt lat="40.03011" lon="-8.51233"><time>2022-11-28T10:44:48.000Z</time></trkpt><trkpt lat="40.03015" lon="-8.51229"><time>2022-11-28T10:44:58.000Z</time></trkpt><trkpt lat="40.03025" lon="-8.51228"><time>2022-11-28T10:45:08.000Z</time></trkpt><trkpt lat="40.03026" lon="-8.51226"><time>2022-11-28T10:45:18.000Z</time></trkpt><trkpt lat="40.03028" lon="-8.51216"><ele>438</ele><time>2022-11-28T10:45:28.000Z</time></trkpt><trkpt lat="40.0303" lon="-8.51214"><time>2022-11-28T10:45:38.000Z</time></trkpt><trkpt lat="40.03029" lon="-8.51214"><time>2022-11-28T10:45:48.000Z</time></trkpt><trkpt lat="40.03032" lon="-8.51214"><time>2022-11-28T10:45:58.000Z</time></trkpt><trkpt lat="40.03042" lon="-8.51199"><ele>439</ele><time>2022-11-28T10:46:08.000Z</time></trkpt><trkpt lat="40.03047" lon="-8.51189"><time>2022-11-28T10:46:18.000Z</time></trkpt><trkpt lat="40.03049" lon="-8.51179"><time>2022-11-28T10:46:28.000Z</time></trkpt><trkpt lat="40.03051" lon="-8.51172"><ele>440</ele><time>2022-11-28T10:46:38.000Z</time></trkpt><trkpt lat="40.03056" lon="-8.51166"><time>2022-11-28T10:46:48.000Z</time></trkpt><trkpt lat="40.03058" lon="-8.51162"><time>2022-11-28T10:46:58.000Z</time></trkpt><trkpt lat="40.03058" lon="-8.51163"><time>2022-11-28T10:47:08.000Z</time></trkpt><trkpt lat="40.03068" lon="-8.51147"><ele>444</ele><time>2022-11-28T10:47:18.000Z</time></trkpt><trkpt lat="40.03073" lon="-8.51142"><time>2022-11-28T10:47:28.000Z</time></trkpt><trkpt lat="40.03082" lon="-8.51128"><time>2022-11-28T10:47:38.000Z</time></trkpt><trkpt lat="40.03084" lon="-8.51115"><ele>446</ele><time>2022-11-28T10:47:48.000Z</time></trkpt><trkpt lat="40.03083" lon="-8.51114"><time>2022-11-28T10:47:58.000Z</time></trkpt><trkpt lat="40.03085" lon="-8.51111"><time>2022-11-28T10:48:08.000Z</time></trkpt><trkpt lat="40.03089" lon="-8.51106"><time>2022-11-28T10:48:18.000Z</time></trkpt><trkpt lat="40.03095" lon="-8.51098"><time>2022-11-28T10:48:28.000Z</time></trkpt><trkpt lat="40.03098" lon="-8.51098"><time>2022-11-28T10:48:38.000Z</time></trkpt><trkpt lat="40.03101" lon="-8.51089"><ele>453</ele><time>2022-11-28T10:48:48.000Z</time></trkpt><trkpt lat="40.03103" lon="-8.51085"><time>2022-11-28T10:48:58.000Z</time></trkpt><trkpt lat="40.03107" lon="-8.51074"><time>2022-11-28T10:49:08.000Z</time></trkpt><trkpt lat="40.0311" lon="-8.51068"><time>2022-11-28T10:49:18.000Z</time></trkpt><trkpt lat="40.03116" lon="-8.51061"><ele>453</ele><time>2022-11-28T10:49:28.000Z</time></trkpt><trkpt lat="40.03119" lon="-8.5106"><time>2022-11-28T10:49:38.000Z</time></trkpt><trkpt lat="40.03126" lon="-8.51063"><time>2022-11-28T10:49:48.000Z</time></trkpt><trkpt lat="40.03132" lon="-8.51065"><time>2022-11-28T10:49:58.000Z</time></trkpt><trkpt lat="40.03139" lon="-8.51064"><ele>452</ele><time>2022-11-28T10:43:29.000Z</time></trkpt><trkpt lat="40.03141" lon="-8.51061"><time>2022-11-28T10:43:39.000Z</time></trkpt><trkpt lat="40.03145" lon="-8.5105"><time>2022-11-28T10:43:49.000Z</time></trkpt><trkpt lat="40.03149" lon="-8.51038"><ele>450</ele><time>2022-11-28T10:43:38.000Z</time></trkpt><trkpt lat="40.03153" lon="-8.51035"><time>2022-11-28T10:43:48.000Z</time></trkpt><trkpt lat="40.0316" lon="-8.5103"><time>2022-11-28T10:43:58.000Z</time></trkpt><trkpt lat="40.03169" lon="-8.5103"><ele>437</ele><time>2022-11-28T10:44:08.000Z</time></trkpt><trkpt lat="40.03173" lon="-8.51031"><time>2022-11-28T10:44:18.000Z</time></trkpt><trkpt lat="40.03176" lon="-8.5103"><time>2022-11-28T10:44:28.000Z</time></trkpt><trkpt lat="40.03183" lon="-8.51026"><time>2022-11-28T10:44:38.000Z</time></trkpt><trkpt lat="40.03184" lon="-8.51024"><time>2022-11-28T10:44:48.000Z</time></trkpt><trkpt lat="40.03184" lon="-8.51024"><time>2022-11-28T10:44:58.000Z</time></trkpt><trkpt lat="40.0319" lon="-8.51022"><ele>437</ele><time>2022-11-28T10:45:08.000Z</time></trkpt><trkpt lat="40.03192" lon="-8.51022"><time>2022-11-28T10:45:18.000Z</time></trkpt><trkpt lat="40.03192" lon="-8.51022"><time>2022-11-28T10:45:28.000Z</time></trkpt><trkpt lat="40.03192" lon="-8.51023"><time>2022-11-28T10:45:38.000Z</time></trkpt><trkpt lat="40.03195" lon="-8.51023"><time>2022-11-28T10:45:48.000Z</time></trkpt><trkpt lat="40.03201" lon="-8.51016"><time>2022-11-28T10:45:58.000Z</time></trkpt><trkpt lat="40.03203" lon="-8.51015"><time>2022-11-28T10:46:08.000Z</time></trkpt><trkpt lat="40.03205" lon="-8.51013"><time>2022-11-28T10:46:18.000Z</time></trkpt><trkpt lat="40.03206" lon="-8.51009"><ele>425</ele><time>2022-11-28T10:46:28.000Z</time></trkpt><trkpt lat="40.03207" lon="-8.51008"><time>2022-11-28T10:46:38.000Z</time></trkpt><trkpt lat="40.03207" lon="-8.50991"><time>2022-11-28T10:46:48.000Z</time></trkpt><trkpt lat="40.03208" lon="-8.50986"><time>2022-11-28T10:46:58.000Z</time></trkpt><trkpt lat="40.0321" lon="-8.50984"><ele>423</ele><time>2022-11-28T10:47:08.000Z</time></trkpt><trkpt lat="40.03211" lon="-8.5098"><time>2022-11-28T10:47:18.000Z</time></trkpt><trkpt lat="40.03215" lon="-8.50979"><time>2022-11-28T10:47:28.000Z</time></trkpt><trkpt lat="40.03216" lon="-8.50978"><time>2022-11-28T10:47:38.000Z</time></trkpt><trkpt lat="40.03217" lon="-8.50973"><time>2022-11-28T10:47:48.000Z</time></trkpt><trkpt lat="40.03214" lon="-8.50961"><ele>422</ele><time>2022-11-28T10:47:58.000Z</time></trkpt><trkpt lat="40.03215" lon="-8.50959"><time>2022-11-28T10:48:08.000Z</time></trkpt><trkpt lat="40.03217" lon="-8.50958"><time>2022-11-28T10:48:18.000Z</time></trkpt><trkpt lat="40.03222" lon="-8.5096"><time>2022-11-28T10:48:28.000Z</time></trkpt><trkpt lat="40.03225" lon="-8.5096"><time>2022-11-28T10:48:38.000Z</time></trkpt><trkpt lat="40.03239" lon="-8.50966"><ele>422</ele><time>2022-11-28T10:48:48.000Z</time></trkpt><trkpt lat="40.03243" lon="-8.50967"><time>2022-11-28T10:48:58.000Z</time></trkpt><trkpt lat="40.03247" lon="-8.5097"><time>2022-11-28T10:49:08.000Z</time></trkpt><trkpt lat="40.03253" lon="-8.5097"><time>2022-11-28T10:49:18.000Z</time></trkpt><trkpt lat="40.03264" lon="-8.50976"><ele>420</ele><time>2022-11-28T10:49:28.000Z</time></trkpt><trkpt lat="40.03266" lon="-8.50976"><time>2022-11-28T10:49:38.000Z</time></trkpt><trkpt lat="40.03268" lon="-8.50976"><time>2022-11-28T10:49:48.000Z</time></trkpt><trkpt lat="40.03272" lon="-8.50973"><time>2022-11-28T10:49:58.000Z</time></trkpt><trkpt lat="40.03275" lon="-8.50972"><time>2022-11-28T10:50:08.000Z</time></trkpt><trkpt lat="40.03277" lon="-8.50971"><time>2022-11-28T10:50:18.000Z</time></trkpt><trkpt lat="40.03279" lon="-8.50972"><time>2022-11-28T10:50:28.000Z</time></trkpt><trkpt lat="40.03296" lon="-8.50967"><ele>420</ele><time>2022-11-28T10:50:38.000Z</time></trkpt><trkpt lat="40.03301" lon="-8.50964"><time>2022-11-28T10:50:48.000Z</time></trkpt><trkpt lat="40.03312" lon="-8.50956"><time>2022-11-28T10:50:58.000Z</time></trkpt><trkpt lat="40.03319" lon="-8.50956"><ele>423</ele><time>2022-11-28T10:51:08.000Z</time></trkpt><trkpt lat="40.03322" lon="-8.50954"><time>2022-11-28T10:51:18.000Z</time></trkpt><trkpt lat="40.03324" lon="-8.5095"><time>2022-11-28T10:51:28.000Z</time></trkpt><trkpt lat="40.03332" lon="-8.50961"><time>2022-11-28T10:51:38.000Z</time></trkpt><trkpt lat="40.0334" lon="-8.5097"><ele>423</ele><time>2022-11-28T10:51:48.000Z</time></trkpt><trkpt lat="40.03345" lon="-8.50976"><time>2022-11-28T10:51:58.000Z</time></trkpt><trkpt lat="40.03352" lon="-8.50986"><time>2022-11-28T10:52:08.000Z</time></trkpt><trkpt lat="40.03366" lon="-8.50993"><ele>424</ele><time>2022-11-28T10:52:18.000Z</time></trkpt><trkpt lat="40.03376" lon="-8.51"><time>2022-11-28T10:52:28.000Z</time></trkpt><trkpt lat="40.03387" lon="-8.51006"><ele>421</ele><time>2022-11-28T10:52:38.000Z</time></trkpt><trkpt lat="40.03392" lon="-8.5101"><time>2022-11-28T10:52:48.000Z</time></trkpt><trkpt lat="40.03396" lon="-8.51015"><time>2022-11-28T10:52:58.000Z</time></trkpt><trkpt lat="40.03399" lon="-8.51021"><time>2022-11-28T10:53:08.000Z</time></trkpt><trkpt lat="40.03403" lon="-8.51025"><ele>423</ele><time>2022-11-28T10:53:18.000Z</time></trkpt><trkpt lat="40.03413" lon="-8.51029"><time>2022-11-28T10:53:28.000Z</time></trkpt><trkpt lat="40.0343" lon="-8.51031"><ele>416</ele><time>2022-11-28T10:53:38.000Z</time></trkpt><trkpt lat="40.03441" lon="-8.51036"><time>2022-11-28T10:53:48.000Z</time></trkpt><trkpt lat="40.03452" lon="-8.51042"><ele>410</ele><time>2022-11-28T10:53:58.000Z</time></trkpt><trkpt lat="40.03479" lon="-8.5105"><ele>410</ele><time>2022-11-28T10:54:08.000Z</time></trkpt><trkpt lat="40.03484" lon="-8.51053"><time>2022-11-28T10:54:18.000Z</time></trkpt><trkpt lat="40.0349" lon="-8.51052"><time>2022-11-28T10:54:28.000Z</time></trkpt><trkpt lat="40.03504" lon="-8.51047"><ele>413</ele><time>2022-11-28T10:54:38.000Z</time></trkpt><trkpt lat="40.0351" lon="-8.51042"><time>2022-11-28T10:54:48.000Z</time></trkpt><trkpt lat="40.03517" lon="-8.51038"><time>2022-11-28T10:54:58.000Z</time></trkpt><trkpt lat="40.03515" lon="-8.51033"><time>2022-11-28T10:55:08.000Z</time></trkpt><trkpt lat="40.03515" lon="-8.51026"><ele>411</ele><time>2022-11-28T10:55:18.000Z</time></trkpt><trkpt lat="40.03516" lon="-8.5102"><time>2022-11-28T10:55:28.000Z</time></trkpt><trkpt lat="40.03519" lon="-8.51007"><time>2022-11-28T10:55:38.000Z</time></trkpt><trkpt lat="40.03524" lon="-8.50986"><ele>411</ele><time>2022-02-26T13:28:32.000Z</time></trkpt><trkpt lat="40.03534" lon="-8.50954"><ele>412</ele><time>2022-02-26T13:28:42.000Z</time></trkpt><trkpt lat="40.03545" lon="-8.50923"><ele>412</ele><time>2022-02-26T13:28:52.000Z</time></trkpt><trkpt lat="40.03551" lon="-8.50897"><time>2022-02-26T13:29:02.000Z</time></trkpt><trkpt lat="40.03553" lon="-8.50883"><ele>412</ele><time>2022-02-26T13:29:12.000Z</time></trkpt><trkpt lat="40.03554" lon="-8.50877"><time>2022-02-26T13:29:22.000Z</time></trkpt><trkpt lat="40.03556" lon="-8.50858"><time>2022-02-26T13:29:32.000Z</time></trkpt><trkpt lat="40.03559" lon="-8.50845"><ele>412</ele><time>2022-02-26T13:29:42.000Z</time></trkpt><trkpt lat="40.03561" lon="-8.50831"><time>2022-02-26T13:29:52.000Z</time></trkpt><trkpt lat="40.03563" lon="-8.50796"><ele>415</ele><time>2022-02-26T13:30:05.000Z</time></trkpt><trkpt lat="40.03569" lon="-8.50769"><ele>416</ele><time>2022-02-26T13:30:15.000Z</time></trkpt><trkpt lat="40.0357" lon="-8.50762"><time>2022-02-26T13:30:25.000Z</time></trkpt><trkpt lat="40.0357" lon="-8.50747"><time>2022-02-26T13:30:35.000Z</time></trkpt><trkpt lat="40.03572" lon="-8.5074"><ele>416</ele><time>2022-02-26T13:30:45.000Z</time></trkpt><trkpt lat="40.03577" lon="-8.50722"><time>2022-02-26T13:30:55.000Z</time></trkpt><trkpt lat="40.03584" lon="-8.50709"><ele>416</ele><time>2022-02-26T13:31:05.000Z</time></trkpt><trkpt lat="40.03587" lon="-8.50701"><time>2022-02-26T13:31:15.000Z</time></trkpt><trkpt lat="40.03596" lon="-8.50688"><time>2022-02-26T13:31:25.000Z</time></trkpt><trkpt lat="40.03609" lon="-8.50664"><ele>416</ele><time>2022-02-26T13:31:00.000Z</time></trkpt><trkpt lat="40.0362" lon="-8.50643"><time>2022-02-26T13:31:10.000Z</time></trkpt><trkpt lat="40.03624" lon="-8.5064"><ele>414</ele><time>2022-02-26T13:31:20.000Z</time></trkpt><trkpt lat="40.03629" lon="-8.5064"><time>2022-02-26T13:31:30.000Z</time></trkpt><trkpt lat="40.03638" lon="-8.50645"><time>2022-02-26T13:31:40.000Z</time></trkpt><trkpt lat="40.03644" lon="-8.50647"><ele>405</ele><time>2022-02-26T13:31:50.000Z</time></trkpt><trkpt lat="40.0365" lon="-8.50646"><time>2022-02-26T13:32:00.000Z</time></trkpt><trkpt lat="40.03659" lon="-8.50641"><time>2022-02-26T13:32:10.000Z</time></trkpt><trkpt lat="40.03675" lon="-8.50638"><ele>397</ele><time>2022-02-26T13:32:20.000Z</time></trkpt><trkpt lat="40.0368" lon="-8.50638"><time>2022-02-26T13:32:30.000Z</time></trkpt><trkpt lat="40.03685" lon="-8.50639"><time>2022-02-26T13:32:40.000Z</time></trkpt><trkpt lat="40.03695" lon="-8.50638"><time>2022-02-26T13:32:50.000Z</time></trkpt><trkpt lat="40.03716" lon="-8.50639"><ele>384</ele><time>2022-02-26T13:33:00.000Z</time></trkpt><trkpt lat="40.03726" lon="-8.50636"><time>2022-02-26T13:33:10.000Z</time></trkpt><trkpt lat="40.03747" lon="-8.50636"><ele>384</ele><time>2022-02-26T13:33:20.000Z</time></trkpt><trkpt lat="40.03759" lon="-8.5063"><time>2022-02-26T13:33:30.000Z</time></trkpt><trkpt lat="40.03764" lon="-8.50629"><time>2022-02-26T13:33:40.000Z</time></trkpt><trkpt lat="40.03789" lon="-8.50626"><ele>384</ele><time>2022-02-26T13:32:34.000Z</time></trkpt><trkpt lat="40.03801" lon="-8.50625"><time>2022-02-26T13:32:44.000Z</time></trkpt><trkpt lat="40.03818" lon="-8.50621"><ele>382</ele><time>2022-02-26T13:32:49.000Z</time></trkpt><trkpt lat="40.03849" lon="-8.50611"><ele>381</ele><time>2022-02-26T13:32:59.000Z</time></trkpt><trkpt lat="40.03858" lon="-8.5061"><time>2022-02-26T13:33:09.000Z</time></trkpt><trkpt lat="40.03885" lon="-8.50609"><ele>369</ele><time>2022-02-26T13:33:19.000Z</time></trkpt><trkpt lat="40.0389" lon="-8.50608"><time>2022-02-26T13:33:29.000Z</time></trkpt><trkpt lat="40.03894" lon="-8.50605"><time>2022-02-26T13:33:39.000Z</time></trkpt><trkpt lat="40.03898" lon="-8.50598"><time>2022-02-26T13:33:49.000Z</time></trkpt><trkpt lat="40.03903" lon="-8.50587"><ele>362</ele><time>2022-02-26T13:33:59.000Z</time></trkpt><trkpt lat="40.03907" lon="-8.50582"><time>2022-02-26T13:34:09.000Z</time></trkpt><trkpt lat="40.03917" lon="-8.50573"><time>2022-02-26T13:34:19.000Z</time></trkpt><trkpt lat="40.03919" lon="-8.50568"><ele>360</ele><time>2022-02-26T13:34:29.000Z</time></trkpt><trkpt lat="40.03919" lon="-8.50562"><time>2022-02-26T13:34:39.000Z</time></trkpt><trkpt lat="40.03911" lon="-8.50544"><time>2022-02-26T13:34:49.000Z</time></trkpt><trkpt lat="40.03899" lon="-8.50513"><ele>359</ele><time>2022-02-26T13:34:59.000Z</time></trkpt><trkpt lat="40.03897" lon="-8.50498"><time>2022-02-26T13:35:09.000Z</time></trkpt><trkpt lat="40.03895" lon="-8.50493"><time>2022-02-26T13:35:19.000Z</time></trkpt><trkpt lat="40.03892" lon="-8.50486"><ele>357</ele><time>2022-02-26T13:35:29.000Z</time></trkpt><trkpt lat="40.03888" lon="-8.5048"><time>2022-02-26T13:35:39.000Z</time></trkpt><trkpt lat="40.03878" lon="-8.50473"><time>2022-02-26T13:35:49.000Z</time></trkpt><trkpt lat="40.03863" lon="-8.50463"><ele>355</ele><time>2022-02-26T13:35:59.000Z</time></trkpt><trkpt lat="40.03849" lon="-8.50452"><time>2022-02-26T13:36:09.000Z</time></trkpt><trkpt lat="40.03829" lon="-8.50441"><ele>355</ele><time>2022-02-26T13:36:19.000Z</time></trkpt><trkpt lat="40.03824" lon="-8.50436"><time>2022-02-26T13:36:29.000Z</time></trkpt><trkpt lat="40.03807" lon="-8.50418"><ele>357</ele><time>2022-02-26T13:35:11.000Z</time></trkpt><trkpt lat="40.03791" lon="-8.50396"><ele>359</ele><time>2022-02-26T13:35:26.000Z</time></trkpt><trkpt lat="40.03778" lon="-8.50381"><time>2022-02-26T13:35:36.000Z</time></trkpt><trkpt lat="40.0377" lon="-8.50365"><ele>359</ele><time>2022-02-26T13:35:41.000Z</time></trkpt><trkpt lat="40.03768" lon="-8.50359"><time>2022-02-26T13:35:51.000Z</time></trkpt><trkpt lat="40.03767" lon="-8.50346"><time>2022-02-26T13:36:01.000Z</time></trkpt><trkpt lat="40.03769" lon="-8.50333"><ele>359</ele><time>2022-02-26T13:35:51.000Z</time></trkpt><trkpt lat="40.03771" lon="-8.50327"><time>2022-02-26T13:36:01.000Z</time></trkpt><trkpt lat="40.0377" lon="-8.50321"><time>2022-02-26T13:36:11.000Z</time></trkpt><trkpt lat="40.03772" lon="-8.50314"><time>2022-02-26T13:36:21.000Z</time></trkpt><trkpt lat="40.03779" lon="-8.50305"><ele>360</ele><time>2022-02-26T13:36:15.000Z</time></trkpt><trkpt lat="40.03788" lon="-8.50294"><time>2022-02-26T13:36:25.000Z</time></trkpt><trkpt lat="40.03792" lon="-8.50289"><time>2022-02-26T13:36:35.000Z</time></trkpt><trkpt lat="40.03794" lon="-8.50284"><ele>359</ele><time>2022-02-26T13:36:24.000Z</time></trkpt><trkpt lat="40.03803" lon="-8.5024"><ele>359</ele><time>2022-02-26T13:36:34.000Z</time></trkpt><trkpt lat="40.03806" lon="-8.50228"><time>2022-02-26T13:36:44.000Z</time></trkpt><trkpt lat="40.03811" lon="-8.50215"><time>2022-02-26T13:36:54.000Z</time></trkpt><trkpt lat="40.03814" lon="-8.50209"><ele>362</ele><time>2022-02-26T13:37:04.000Z</time></trkpt><trkpt lat="40.03821" lon="-8.50187"><time>2022-02-26T13:37:14.000Z</time></trkpt><trkpt lat="40.03826" lon="-8.50173"><ele>362</ele><time>2022-02-26T13:37:24.000Z</time></trkpt><trkpt lat="40.03829" lon="-8.50167"><time>2022-02-26T13:37:34.000Z</time></trkpt><trkpt lat="40.03831" lon="-8.50163"><time>2022-02-26T13:37:44.000Z</time></trkpt><trkpt lat="40.03836" lon="-8.50151"><time>2022-02-26T13:37:54.000Z</time></trkpt><trkpt lat="40.03857" lon="-8.5013"><ele>362</ele><time>2022-02-26T13:37:48.000Z</time></trkpt><trkpt lat="40.0388" lon="-8.50107"><ele>365</ele><time>2022-02-26T13:37:58.000Z</time></trkpt><trkpt lat="40.03893" lon="-8.50096"><time>2022-02-26T13:38:08.000Z</time></trkpt><trkpt lat="40.03899" lon="-8.50092"><ele>365</ele><time>2022-02-26T13:38:18.000Z</time></trkpt><trkpt lat="40.03903" lon="-8.50091"><time>2022-02-26T13:38:28.000Z</time></trkpt><trkpt lat="40.0391" lon="-8.5009"><time>2022-02-26T13:38:38.000Z</time></trkpt><trkpt lat="40.03915" lon="-8.5009"><time>2022-02-26T13:38:48.000Z</time></trkpt><trkpt lat="40.03919" lon="-8.50091"><time>2022-02-26T13:38:58.000Z</time></trkpt><trkpt lat="40.03946" lon="-8.50089"><ele>363</ele><time>2022-02-26T13:38:44.000Z</time></trkpt><trkpt lat="40.03951" lon="-8.50088"><time>2022-02-26T13:38:54.000Z</time></trkpt><trkpt lat="40.03956" lon="-8.50093"><time>2022-02-26T13:39:04.000Z</time></trkpt><trkpt lat="40.03955" lon="-8.50094"><time>2022-02-26T13:39:14.000Z</time></trkpt><trkpt lat="40.03945" lon="-8.50101"><ele>362</ele><time>2022-11-28T10:33:35.000Z</time></trkpt><trkpt lat="40.03917" lon="-8.50136"><ele>358</ele><time>2022-11-28T10:33:45.000Z</time></trkpt><trkpt lat="40.03907" lon="-8.50144"><time>2022-11-28T10:33:55.000Z</time></trkpt><trkpt lat="40.03901" lon="-8.50151"><time>2022-11-28T10:34:05.000Z</time></trkpt><trkpt lat="40.0389" lon="-8.50167"><ele>358</ele><time>2022-11-28T10:34:15.000Z</time></trkpt><trkpt lat="40.03878" lon="-8.50188"><time>2022-11-28T10:34:25.000Z</time></trkpt><trkpt lat="40.03868" lon="-8.50199"><ele>358</ele><time>2022-11-28T10:34:35.000Z</time></trkpt><trkpt lat="40.03864" lon="-8.5021"><time>2022-11-28T10:34:45.000Z</time></trkpt><trkpt lat="40.03859" lon="-8.5022"><time>2022-11-28T10:34:55.000Z</time></trkpt><trkpt lat="40.0386" lon="-8.50226"><ele>358</ele><time>2022-11-28T10:35:05.000Z</time></trkpt><trkpt lat="40.03862" lon="-8.50232"><time>2022-11-28T10:35:15.000Z</time></trkpt><trkpt lat="40.03864" lon="-8.50235"><time>2022-11-28T10:35:25.000Z</time></trkpt><trkpt lat="40.03868" lon="-8.50238"><time>2022-11-28T10:35:35.000Z</time></trkpt><trkpt lat="40.03872" lon="-8.5024"><time>2022-11-28T10:35:45.000Z</time></trkpt><trkpt lat="40.03881" lon="-8.50247"><ele>356</ele><time>2022-11-28T10:35:55.000Z</time></trkpt><trkpt lat="40.03885" lon="-8.50253"><time>2022-11-28T10:36:05.000Z</time></trkpt><trkpt lat="40.03908" lon="-8.50264"><ele>354</ele><time>2022-11-28T10:36:15.000Z</time></trkpt><trkpt lat="40.03926" lon="-8.50272"><time>2022-11-28T10:36:25.000Z</time></trkpt><trkpt lat="40.03932" lon="-8.50277"><ele>350</ele><time>2022-11-28T10:36:35.000Z</time></trkpt><trkpt lat="40.03934" lon="-8.50294"><time>2022-11-28T10:36:45.000Z</time></trkpt><trkpt lat="40.03935" lon="-8.50296"><time>2022-11-28T10:36:55.000Z</time></trkpt><trkpt lat="40.03957" lon="-8.50303"><ele>346</ele><time>2022-11-28T10:37:05.000Z</time></trkpt><trkpt lat="40.03959" lon="-8.50305"><time>2022-11-28T10:37:15.000Z</time></trkpt><trkpt lat="40.0396" lon="-8.50309"><time>2022-11-28T10:37:25.000Z</time></trkpt><trkpt lat="40.03963" lon="-8.50309"><time>2022-11-28T10:37:35.000Z</time></trkpt><trkpt lat="40.03964" lon="-8.50315"><time>2022-11-28T10:37:45.000Z</time></trkpt><trkpt lat="40.03964" lon="-8.50317"><time>2022-11-28T10:37:55.000Z</time></trkpt><trkpt lat="40.03962" lon="-8.50317"><time>2022-11-28T10:38:05.000Z</time></trkpt><trkpt lat="40.03958" lon="-8.50317"><time>2022-11-28T10:38:15.000Z</time></trkpt><trkpt lat="40.03958" lon="-8.50316"><ele>342</ele><time>2022-11-28T10:38:25.000Z</time></trkpt><trkpt lat="40.03958" lon="-8.50316"><time>2022-11-28T10:38:35.000Z</time></trkpt><trkpt lat="40.03959" lon="-8.50323"><time>2022-11-28T10:38:45.000Z</time></trkpt><trkpt lat="40.03965" lon="-8.50332"><time>2022-11-28T10:38:55.000Z</time></trkpt><trkpt lat="40.03964" lon="-8.50334"><time>2022-11-28T10:39:05.000Z</time></trkpt><trkpt lat="40.03962" lon="-8.50338"><ele>339</ele><time>2022-11-28T10:39:15.000Z</time></trkpt><trkpt lat="40.03962" lon="-8.50342"><time>2022-11-28T10:39:25.000Z</time></trkpt><trkpt lat="40.03962" lon="-8.50344"><time>2022-11-28T10:39:35.000Z</time></trkpt><trkpt lat="40.03962" lon="-8.50346"><time>2022-11-28T10:39:45.000Z</time></trkpt><trkpt lat="40.03962" lon="-8.50349"><time>2022-11-28T10:39:55.000Z</time></trkpt><trkpt lat="40.03968" lon="-8.50352"><time>2022-11-28T10:40:05.000Z</time></trkpt><trkpt lat="40.03968" lon="-8.50355"><time>2022-11-28T10:40:15.000Z</time></trkpt><trkpt lat="40.03967" lon="-8.50355"><time>2022-11-28T10:40:25.000Z</time></trkpt><trkpt lat="40.03966" lon="-8.50359"><time>2022-11-28T10:40:35.000Z</time></trkpt><trkpt lat="40.03967" lon="-8.50364"><ele>337</ele><time>2022-11-28T10:40:45.000Z</time></trkpt><trkpt lat="40.0397" lon="-8.5037"><time>2022-11-28T10:40:55.000Z</time></trkpt><trkpt lat="40.03977" lon="-8.50376"><time>2022-11-28T10:41:05.000Z</time></trkpt><trkpt lat="40.0398" lon="-8.5038"><time>2022-11-28T10:41:15.000Z</time></trkpt><trkpt lat="40.03988" lon="-8.50385"><ele>335</ele><time>2022-11-28T10:41:25.000Z</time></trkpt><trkpt lat="40.03991" lon="-8.50387"><time>2022-11-28T10:41:35.000Z</time></trkpt><trkpt lat="40.03999" lon="-8.50389"><time>2022-11-28T10:41:45.000Z</time></trkpt><trkpt lat="40.04003" lon="-8.50389"><time>2022-11-28T10:41:55.000Z</time></trkpt><trkpt lat="40.04015" lon="-8.50396"><ele>327</ele><time>2022-11-28T10:42:05.000Z</time></trkpt><trkpt lat="40.04018" lon="-8.50397"><time>2022-11-28T10:42:15.000Z</time></trkpt><trkpt lat="40.04023" lon="-8.50403"><time>2022-11-28T10:42:25.000Z</time></trkpt><trkpt lat="40.04033" lon="-8.50408"><time>2022-11-28T10:42:35.000Z</time></trkpt><trkpt lat="40.04037" lon="-8.50408"><ele>320</ele><time>2022-11-28T10:42:45.000Z</time></trkpt><trkpt lat="40.0404" lon="-8.5041"><time>2022-11-28T10:42:55.000Z</time></trkpt><trkpt lat="40.04043" lon="-8.50415"><time>2022-11-28T10:43:05.000Z</time></trkpt><trkpt lat="40.04048" lon="-8.50417"><time>2022-11-28T10:43:15.000Z</time></trkpt><trkpt lat="40.04052" lon="-8.50417"><time>2022-11-28T10:43:25.000Z</time></trkpt><trkpt lat="40.04055" lon="-8.50419"><time>2022-11-28T10:43:35.000Z</time></trkpt><trkpt lat="40.04058" lon="-8.50421"><ele>314</ele><time>2022-11-28T10:43:45.000Z</time></trkpt><trkpt lat="40.04061" lon="-8.50425"><time>2022-11-28T10:43:55.000Z</time></trkpt><trkpt lat="40.04063" lon="-8.50426"><time>2022-11-28T10:44:05.000Z</time></trkpt><trkpt lat="40.04063" lon="-8.50427"><time>2022-11-28T10:44:15.000Z</time></trkpt><trkpt lat="40.04064" lon="-8.50428"><time>2022-11-28T10:44:25.000Z</time></trkpt><trkpt lat="40.04066" lon="-8.50435"><time>2022-11-28T10:44:35.000Z</time></trkpt><trkpt lat="40.04067" lon="-8.50448"><ele>312</ele><time>2022-11-28T10:44:45.000Z</time></trkpt><trkpt lat="40.04068" lon="-8.50452"><time>2022-11-28T10:44:55.000Z</time></trkpt><trkpt lat="40.0407" lon="-8.50453"><time>2022-11-28T10:45:05.000Z</time></trkpt><trkpt lat="40.04075" lon="-8.5047"><time>2022-11-28T10:45:15.000Z</time></trkpt><trkpt lat="40.04075" lon="-8.50472"><time>2022-11-28T10:45:25.000Z</time></trkpt><trkpt lat="40.04074" lon="-8.50475"><ele>293</ele><time>2022-11-28T10:45:35.000Z</time></trkpt><trkpt lat="40.04073" lon="-8.50481"><time>2022-11-28T10:45:45.000Z</time></trkpt><trkpt lat="40.04073" lon="-8.50483"><time>2022-11-28T10:45:55.000Z</time></trkpt><trkpt lat="40.04078" lon="-8.50487"><time>2022-11-28T10:46:05.000Z</time></trkpt><trkpt lat="40.04081" lon="-8.50487"><time>2022-11-28T10:46:15.000Z</time></trkpt><trkpt lat="40.04081" lon="-8.50488"><time>2022-11-28T10:46:25.000Z</time></trkpt><trkpt lat="40.04081" lon="-8.50493"><time>2022-11-28T10:46:35.000Z</time></trkpt><trkpt lat="40.04083" lon="-8.50495"><ele>293</ele><time>2022-11-28T10:46:45.000Z</time></trkpt><trkpt lat="40.04087" lon="-8.50498"><time>2022-11-28T10:46:55.000Z</time></trkpt><trkpt lat="40.04089" lon="-8.50498"><time>2022-11-28T10:47:05.000Z</time></trkpt><trkpt lat="40.04098" lon="-8.50503"><time>2022-11-28T10:47:15.000Z</time></trkpt><trkpt lat="40.04099" lon="-8.50506"><time>2022-11-28T10:47:25.000Z</time></trkpt><trkpt lat="40.04095" lon="-8.5052"><ele>292</ele><time>2022-11-28T10:47:35.000Z</time></trkpt><trkpt lat="40.04096" lon="-8.50521"><time>2022-11-28T10:47:45.000Z</time></trkpt><trkpt lat="40.04097" lon="-8.50522"><time>2022-11-28T10:47:55.000Z</time></trkpt><trkpt lat="40.04097" lon="-8.50525"><time>2022-11-28T10:48:05.000Z</time></trkpt><trkpt lat="40.04098" lon="-8.50526"><time>2022-11-28T10:48:15.000Z</time></trkpt><trkpt lat="40.04099" lon="-8.50529"><time>2022-11-28T10:48:25.000Z</time></trkpt><trkpt lat="40.04102" lon="-8.50533"><time>2022-11-28T10:48:35.000Z</time></trkpt><trkpt lat="40.04102" lon="-8.50534"><time>2022-11-28T10:48:45.000Z</time></trkpt><trkpt lat="40.04103" lon="-8.50536"><time>2022-11-28T10:48:55.000Z</time></trkpt><trkpt lat="40.0412" lon="-8.5055"><ele>291</ele><time>2022-11-28T10:49:05.000Z</time></trkpt><trkpt lat="40.04127" lon="-8.50551"><time>2022-11-28T10:49:15.000Z</time></trkpt><trkpt lat="40.04134" lon="-8.5055"><time>2022-11-28T10:49:25.000Z</time></trkpt><trkpt lat="40.04146" lon="-8.50551"><ele>282</ele><time>2022-11-28T10:49:35.000Z</time></trkpt><trkpt lat="40.04152" lon="-8.50555"><time>2022-11-28T10:49:45.000Z</time></trkpt><trkpt lat="40.04157" lon="-8.5056"><time>2022-11-28T10:49:55.000Z</time></trkpt><trkpt lat="40.04165" lon="-8.50569"><ele>270</ele><time>2022-11-28T10:50:05.000Z</time></trkpt><trkpt lat="40.0417" lon="-8.50574"><time>2022-11-28T10:50:15.000Z</time></trkpt><trkpt lat="40.04209" lon="-8.50593"><ele>276</ele><time>2022-11-28T10:50:25.000Z</time></trkpt><trkpt lat="40.0422" lon="-8.50594"><time>2022-11-28T10:50:35.000Z</time></trkpt><trkpt lat="40.04225" lon="-8.50593"><time>2022-11-28T10:50:45.000Z</time></trkpt><trkpt lat="40.04223" lon="-8.50594"><time>2022-11-28T10:50:55.000Z</time></trkpt><trkpt lat="40.04224" lon="-8.50594"><time>2022-11-28T10:51:05.000Z</time></trkpt><trkpt lat="40.04275" lon="-8.50581"><ele>278</ele><time>2022-11-28T10:51:15.000Z</time></trkpt><trkpt lat="40.04283" lon="-8.50577"><time>2022-11-28T10:51:25.000Z</time></trkpt><trkpt lat="40.04284" lon="-8.50575"><time>2022-11-28T10:51:35.000Z</time></trkpt><trkpt lat="40.04282" lon="-8.50573"><time>2022-11-28T10:51:45.000Z</time></trkpt><trkpt lat="40.04265" lon="-8.5057"><ele>281</ele><time>2022-11-28T10:34:30.000Z</time></trkpt><trkpt lat="40.04251" lon="-8.50566"><time>2022-11-28T10:34:40.000Z</time></trkpt><trkpt lat="40.04249" lon="-8.50564"><time>2022-11-28T10:34:50.000Z</time></trkpt><trkpt lat="40.04248" lon="-8.50563"><time>2022-11-28T10:35:00.000Z</time></trkpt><trkpt lat="40.04248" lon="-8.50557"><ele>293</ele><time>2022-11-28T10:35:10.000Z</time></trkpt><trkpt lat="40.04255" lon="-8.50555"><time>2022-11-28T10:35:20.000Z</time></trkpt><trkpt lat="40.04267" lon="-8.50547"><time>2022-11-28T10:35:30.000Z</time></trkpt><trkpt lat="40.04273" lon="-8.50537"><ele>302</ele><time>2022-11-28T10:34:37.000Z</time></trkpt><trkpt lat="40.04283" lon="-8.50527"><time>2022-11-28T10:34:47.000Z</time></trkpt><trkpt lat="40.04287" lon="-8.5052"><time>2022-11-28T10:34:57.000Z</time></trkpt><trkpt lat="40.0429" lon="-8.50511"><ele>302</ele><time>2022-11-28T10:35:07.000Z</time></trkpt><trkpt lat="40.04293" lon="-8.50507"><time>2022-11-28T10:35:17.000Z</time></trkpt><trkpt lat="40.04302" lon="-8.50488"><ele>303</ele><time>2022-11-28T10:35:27.000Z</time></trkpt><trkpt lat="40.04306" lon="-8.50481"><time>2022-11-28T10:35:37.000Z</time></trkpt><trkpt lat="40.04324" lon="-8.50471"><ele>304</ele><time>2022-11-28T10:35:47.000Z</time></trkpt><trkpt lat="40.04339" lon="-8.50462"><time>2022-11-28T10:35:57.000Z</time></trkpt><trkpt lat="40.04353" lon="-8.50448"><ele>307</ele><time>2022-11-28T10:36:07.000Z</time></trkpt><trkpt lat="40.04355" lon="-8.50446"><time>2022-11-28T10:36:17.000Z</time></trkpt><trkpt lat="40.04369" lon="-8.50442"><time>2022-11-28T10:36:27.000Z</time></trkpt><trkpt lat="40.04391" lon="-8.50425"><ele>307</ele><time>2022-11-28T10:34:48.000Z</time></trkpt><trkpt lat="40.04421" lon="-8.5042"><ele>302</ele><time>2022-11-28T10:34:49.000Z</time></trkpt><trkpt lat="40.04436" lon="-8.50416"><time>2022-11-28T10:34:59.000Z</time></trkpt><trkpt lat="40.04449" lon="-8.50407"><ele>301</ele><time>2022-11-28T10:34:51.000Z</time></trkpt><trkpt lat="40.04457" lon="-8.504"><time>2022-11-28T10:35:01.000Z</time></trkpt><trkpt lat="40.04465" lon="-8.50396"><time>2022-11-28T10:35:11.000Z</time></trkpt><trkpt lat="40.04471" lon="-8.50393"><ele>300</ele><time>2022-11-28T10:35:21.000Z</time></trkpt><trkpt lat="40.04472" lon="-8.50393"><time>2022-11-28T10:35:31.000Z</time></trkpt><trkpt lat="40.0448" lon="-8.50401"><time>2022-11-28T10:35:41.000Z</time></trkpt><trkpt lat="40.04487" lon="-8.50416"><ele>295</ele><time>2022-11-28T10:35:51.000Z</time></trkpt><trkpt lat="40.04493" lon="-8.50419"><time>2022-11-28T10:36:01.000Z</time></trkpt><trkpt lat="40.04525" lon="-8.50412"><ele>294</ele><time>2022-11-28T10:36:11.000Z</time></trkpt><trkpt lat="40.04526" lon="-8.50408"><time>2022-11-28T10:36:21.000Z</time></trkpt><trkpt lat="40.04528" lon="-8.50391"><time>2022-11-28T10:36:31.000Z</time></trkpt><trkpt lat="40.0453" lon="-8.50381"><ele>294</ele><time>2022-11-28T10:36:41.000Z</time></trkpt><trkpt lat="40.0453" lon="-8.50378"><time>2022-11-28T10:36:51.000Z</time></trkpt><trkpt lat="40.04535" lon="-8.50369"><time>2022-11-28T10:37:01.000Z</time></trkpt><trkpt lat="40.04541" lon="-8.50355"><ele>298</ele><time>2022-11-28T10:37:11.000Z</time></trkpt><trkpt lat="40.04541" lon="-8.50352"><time>2022-11-28T10:37:21.000Z</time></trkpt><trkpt lat="40.04541" lon="-8.50335"><time>2022-11-28T10:37:31.000Z</time></trkpt><trkpt lat="40.0454" lon="-8.50327"><ele>302</ele><time>2022-11-28T10:37:41.000Z</time></trkpt><trkpt lat="40.04537" lon="-8.50315"><time>2022-11-28T10:37:51.000Z</time></trkpt><trkpt lat="40.04536" lon="-8.50302"><time>2022-11-28T10:38:01.000Z</time></trkpt><trkpt lat="40.04536" lon="-8.50293"><ele>307</ele><time>2022-11-28T10:38:11.000Z</time></trkpt><trkpt lat="40.04531" lon="-8.50279"><time>2022-11-28T10:38:21.000Z</time></trkpt><trkpt lat="40.04531" lon="-8.50276"><time>2022-11-28T10:38:31.000Z</time></trkpt><trkpt lat="40.04532" lon="-8.50272"><time>2022-11-28T10:38:41.000Z</time></trkpt><trkpt lat="40.0454" lon="-8.5027"><ele>309</ele><time>2022-11-28T10:38:51.000Z</time></trkpt><trkpt lat="40.04543" lon="-8.50267"><time>2022-11-28T10:39:01.000Z</time></trkpt><trkpt lat="40.04548" lon="-8.50253"><time>2022-11-28T10:39:11.000Z</time></trkpt><trkpt lat="40.04548" lon="-8.50241"><ele>310</ele><time>2022-11-28T10:39:21.000Z</time></trkpt><trkpt lat="40.04548" lon="-8.50239"><time>2022-11-28T10:39:31.000Z</time></trkpt><trkpt lat="40.0455" lon="-8.50222"><time>2022-11-28T10:39:41.000Z</time></trkpt><trkpt lat="40.04555" lon="-8.50209"><ele>316</ele><time>2022-11-28T10:39:51.000Z</time></trkpt><trkpt lat="40.04557" lon="-8.50206"><time>2022-11-28T10:40:01.000Z</time></trkpt><trkpt lat="40.04562" lon="-8.50199"><time>2022-11-28T10:40:11.000Z</time></trkpt><trkpt lat="40.04575" lon="-8.50183"><ele>320</ele><time>2022-11-28T10:40:21.000Z</time></trkpt><trkpt lat="40.04585" lon="-8.50176"><time>2022-11-28T10:40:31.000Z</time></trkpt><trkpt lat="40.04587" lon="-8.50173"><time>2022-11-28T10:40:41.000Z</time></trkpt><trkpt lat="40.04588" lon="-8.50161"><ele>321</ele><time>2022-11-28T10:40:51.000Z</time></trkpt><trkpt lat="40.04591" lon="-8.50155"><time>2022-11-28T10:41:01.000Z</time></trkpt><trkpt lat="40.04596" lon="-8.50153"><time>2022-11-28T10:41:11.000Z</time></trkpt><trkpt lat="40.04597" lon="-8.50151"><time>2022-11-28T10:41:21.000Z</time></trkpt><trkpt lat="40.046" lon="-8.50143"><time>2022-11-28T10:41:31.000Z</time></trkpt><trkpt lat="40.04602" lon="-8.50141"><ele>323</ele><time>2022-11-28T10:41:41.000Z</time></trkpt><trkpt lat="40.04607" lon="-8.50141"><time>2022-11-28T10:41:51.000Z</time></trkpt><trkpt lat="40.0462" lon="-8.50142"><time>2022-11-28T10:42:01.000Z</time></trkpt><trkpt lat="40.04629" lon="-8.50145"><ele>323</ele><time>2022-11-28T10:42:11.000Z</time></trkpt><trkpt lat="40.04635" lon="-8.50144"><time>2022-11-28T10:42:21.000Z</time></trkpt><trkpt lat="40.0464" lon="-8.5014"><time>2022-11-28T10:42:31.000Z</time></trkpt><trkpt lat="40.04643" lon="-8.50135"><time>2022-11-28T10:42:41.000Z</time></trkpt><trkpt lat="40.04644" lon="-8.50129"><ele>316</ele><time>2022-11-28T10:42:51.000Z</time></trkpt><trkpt lat="40.04645" lon="-8.50129"><time>2022-11-28T10:43:01.000Z</time></trkpt><trkpt lat="40.04646" lon="-8.50127"><time>2022-11-28T10:43:11.000Z</time></trkpt><trkpt lat="40.04645" lon="-8.50124"><time>2022-11-28T10:43:21.000Z</time></trkpt><trkpt lat="40.04647" lon="-8.5012"><time>2022-11-28T10:43:31.000Z</time></trkpt><trkpt lat="40.0465" lon="-8.50116"><time>2022-11-28T10:43:41.000Z</time></trkpt><trkpt lat="40.04651" lon="-8.50107"><time>2022-11-28T10:43:51.000Z</time></trkpt><trkpt lat="40.04657" lon="-8.50095"><ele>310</ele><time>2022-11-28T10:44:01.000Z</time></trkpt><trkpt lat="40.0466" lon="-8.5009"><time>2022-11-28T10:44:11.000Z</time></trkpt><trkpt lat="40.04664" lon="-8.50089"><time>2022-11-28T10:44:21.000Z</time></trkpt><trkpt lat="40.04667" lon="-8.50086"><time>2022-11-28T10:44:31.000Z</time></trkpt><trkpt lat="40.04669" lon="-8.50081"><time>2022-11-28T10:44:41.000Z</time></trkpt><trkpt lat="40.0467" lon="-8.50078"><time>2022-11-28T10:44:51.000Z</time></trkpt><trkpt lat="40.04672" lon="-8.50069"><ele>303</ele><time>2022-11-28T10:45:01.000Z</time></trkpt><trkpt lat="40.04674" lon="-8.50061"><time>2022-11-28T10:45:11.000Z</time></trkpt><trkpt lat="40.04677" lon="-8.50051"><time>2022-11-28T10:45:21.000Z</time></trkpt><trkpt lat="40.04679" lon="-8.50048"><time>2022-11-28T10:45:31.000Z</time></trkpt><trkpt lat="40.0469" lon="-8.5004"><ele>296</ele><time>2022-11-28T10:45:41.000Z</time></trkpt><trkpt lat="40.047" lon="-8.50024"><time>2022-11-28T10:45:51.000Z</time></trkpt><trkpt lat="40.04706" lon="-8.50017"><ele>296</ele><time>2022-11-28T10:46:01.000Z</time></trkpt><trkpt lat="40.04709" lon="-8.50011"><time>2022-11-28T10:46:11.000Z</time></trkpt><trkpt lat="40.04715" lon="-8.49996"><time>2022-11-28T10:46:21.000Z</time></trkpt><trkpt lat="40.04715" lon="-8.49988"><ele>290</ele><time>2022-11-28T10:46:31.000Z</time></trkpt><trkpt lat="40.0472" lon="-8.49962"><time>2022-11-28T10:46:41.000Z</time></trkpt><trkpt lat="40.04724" lon="-8.4995"><ele>285</ele><time>2022-11-28T10:46:51.000Z</time></trkpt><trkpt lat="40.04732" lon="-8.4993"><time>2022-11-28T10:47:01.000Z</time></trkpt><trkpt lat="40.04735" lon="-8.49918"><ele>281</ele><time>2022-11-28T10:47:11.000Z</time></trkpt><trkpt lat="40.04735" lon="-8.49907"><time>2022-11-28T10:47:21.000Z</time></trkpt><trkpt lat="40.04738" lon="-8.49901"><time>2022-11-28T10:47:31.000Z</time></trkpt><trkpt lat="40.04734" lon="-8.49887"><ele>278</ele><time>2022-11-28T10:47:41.000Z</time></trkpt><trkpt lat="40.0473" lon="-8.4988"><time>2022-11-28T10:47:51.000Z</time></trkpt><trkpt lat="40.0473" lon="-8.49868"><time>2022-11-28T10:48:01.000Z</time></trkpt><trkpt lat="40.04732" lon="-8.49858"><ele>278</ele><time>2022-11-28T10:48:11.000Z</time></trkpt><trkpt lat="40.0473" lon="-8.49851"><time>2022-11-28T10:48:21.000Z</time></trkpt><trkpt lat="40.04727" lon="-8.49845"><time>2022-11-28T10:48:31.000Z</time></trkpt><trkpt lat="40.04726" lon="-8.49844"><time>2022-11-28T10:48:41.000Z</time></trkpt><trkpt lat="40.04727" lon="-8.49835"><time>2022-11-28T10:48:51.000Z</time></trkpt><trkpt lat="40.0473" lon="-8.49832"><ele>278</ele><time>2022-11-28T10:49:01.000Z</time></trkpt><trkpt lat="40.04729" lon="-8.49831"><time>2022-11-28T10:49:11.000Z</time></trkpt><trkpt lat="40.04731" lon="-8.49823"><time>2022-11-28T10:49:21.000Z</time></trkpt><trkpt lat="40.04731" lon="-8.49817"><time>2022-11-28T10:49:31.000Z</time></trkpt><trkpt lat="40.04728" lon="-8.49811"><time>2022-11-28T10:49:41.000Z</time></trkpt><trkpt lat="40.04725" lon="-8.49798"><ele>278</ele><time>2022-11-28T10:49:51.000Z</time></trkpt><trkpt lat="40.04721" lon="-8.49793"><time>2022-11-28T10:50:01.000Z</time></trkpt><trkpt lat="40.04718" lon="-8.49791"><time>2022-11-28T10:50:11.000Z</time></trkpt><trkpt lat="40.04713" lon="-8.49789"><time>2022-11-28T10:50:21.000Z</time></trkpt><trkpt lat="40.04707" lon="-8.49785"><time>2022-11-28T10:50:31.000Z</time></trkpt><trkpt lat="40.04699" lon="-8.49782"><ele>281</ele><time>2022-11-28T10:50:41.000Z</time></trkpt><trkpt lat="40.04698" lon="-8.49781"><time>2022-11-28T10:50:51.000Z</time></trkpt><trkpt lat="40.04694" lon="-8.49772"><time>2022-11-28T10:51:01.000Z</time></trkpt><trkpt lat="40.0469" lon="-8.49768"><time>2022-11-28T10:51:11.000Z</time></trkpt><trkpt lat="40.0469" lon="-8.49762"><time>2022-11-28T10:51:21.000Z</time></trkpt><trkpt lat="40.04692" lon="-8.4976"><time>2022-11-28T10:51:31.000Z</time></trkpt><trkpt lat="40.04694" lon="-8.49756"><ele>285</ele><time>2022-11-28T10:51:41.000Z</time></trkpt><trkpt lat="40.04694" lon="-8.49754"><time>2022-11-28T10:51:51.000Z</time></trkpt><trkpt lat="40.04696" lon="-8.49751"><time>2022-11-28T10:52:01.000Z</time></trkpt><trkpt lat="40.04694" lon="-8.49744"><time>2022-11-28T10:52:11.000Z</time></trkpt><trkpt lat="40.04692" lon="-8.49743"><time>2022-11-28T10:52:21.000Z</time></trkpt><trkpt lat="40.0469" lon="-8.49741"><time>2022-11-28T10:52:31.000Z</time></trkpt><trkpt lat="40.04674" lon="-8.49732"><ele>292</ele><time>2022-11-28T10:52:41.000Z</time></trkpt><trkpt lat="40.04673" lon="-8.4973"><time>2022-11-28T10:52:51.000Z</time></trkpt><trkpt lat="40.04665" lon="-8.49722"><time>2022-11-28T10:53:01.000Z</time></trkpt><trkpt lat="40.04662" lon="-8.4972"><time>2022-11-28T10:53:11.000Z</time></trkpt><trkpt lat="40.0466" lon="-8.49717"><time>2022-11-28T10:53:21.000Z</time></trkpt><trkpt lat="40.04659" lon="-8.49713"><ele>293</ele><time>2022-11-28T10:53:31.000Z</time></trkpt><trkpt lat="40.04661" lon="-8.49711"><time>2022-11-28T10:53:41.000Z</time></trkpt><trkpt lat="40.04662" lon="-8.49705"><time>2022-11-28T10:53:51.000Z</time></trkpt><trkpt lat="40.04661" lon="-8.49702"><time>2022-11-28T10:54:01.000Z</time></trkpt><trkpt lat="40.04655" lon="-8.49693"><time>2022-11-28T10:54:11.000Z</time></trkpt><trkpt lat="40.04648" lon="-8.49677"><ele>291</ele><time>2022-11-28T10:54:21.000Z</time></trkpt><trkpt lat="40.04645" lon="-8.49674"><time>2022-11-28T10:54:31.000Z</time></trkpt><trkpt lat="40.04644" lon="-8.49674"><time>2022-11-28T10:54:41.000Z</time></trkpt><trkpt lat="40.04642" lon="-8.49665"><time>2022-11-28T10:54:51.000Z</time></trkpt><trkpt lat="40.04643" lon="-8.49663"><time>2022-11-28T10:55:01.000Z</time></trkpt><trkpt lat="40.0464" lon="-8.49656"><time>2022-11-28T10:55:11.000Z</time></trkpt><trkpt lat="40.0464" lon="-8.49644"><ele>292</ele><time>2022-11-28T10:55:21.000Z</time></trkpt><trkpt lat="40.04638" lon="-8.4964"><time>2022-11-28T10:55:31.000Z</time></trkpt><trkpt lat="40.04634" lon="-8.49634"><time>2022-11-28T10:55:41.000Z</time></trkpt><trkpt lat="40.04629" lon="-8.49632"><time>2022-11-28T10:55:51.000Z</time></trkpt><trkpt lat="40.0462" lon="-8.49626"><ele>293</ele><time>2022-11-28T10:56:01.000Z</time></trkpt><trkpt lat="40.04617" lon="-8.49626"><time>2022-11-28T10:56:11.000Z</time></trkpt><trkpt lat="40.04613" lon="-8.49624"><time>2022-11-28T10:56:21.000Z</time></trkpt><trkpt lat="40.04614" lon="-8.49622"><time>2022-11-28T10:56:31.000Z</time></trkpt><trkpt lat="40.0461" lon="-8.49624"><time>2022-11-28T10:56:41.000Z</time></trkpt><trkpt lat="40.04595" lon="-8.49616"><ele>295</ele><time>2022-11-28T10:56:51.000Z</time></trkpt><trkpt lat="40.04591" lon="-8.49611"><time>2022-11-28T10:57:01.000Z</time></trkpt><trkpt lat="40.04588" lon="-8.49607"><time>2022-11-28T10:57:11.000Z</time></trkpt><trkpt lat="40.04578" lon="-8.49602"><time>2022-11-28T10:57:21.000Z</time></trkpt><trkpt lat="40.04576" lon="-8.49598"><ele>295</ele><time>2022-11-28T10:57:31.000Z</time></trkpt><trkpt lat="40.04576" lon="-8.49595"><time>2022-11-28T10:57:41.000Z</time></trkpt><trkpt lat="40.04577" lon="-8.49591"><time>2022-11-28T10:57:51.000Z</time></trkpt><trkpt lat="40.0458" lon="-8.49588"><time>2022-11-28T10:58:01.000Z</time></trkpt><trkpt lat="40.04583" lon="-8.49584"><time>2022-11-28T10:58:11.000Z</time></trkpt><trkpt lat="40.04601" lon="-8.49573"><ele>293</ele><time>2022-11-28T21:21:20.000Z</time></trkpt><trkpt lat="40.04612" lon="-8.49571"><time>2022-11-28T21:21:30.000Z</time></trkpt><trkpt lat="40.04623" lon="-8.49566"><ele>293</ele><time>2022-11-28T21:21:20.000Z</time></trkpt><trkpt lat="40.04631" lon="-8.49561"><time>2022-11-28T21:21:30.000Z</time></trkpt><trkpt lat="40.04636" lon="-8.49556"><time>2022-11-28T21:21:40.000Z</time></trkpt><trkpt lat="40.04639" lon="-8.4955"><time>2022-11-28T21:21:50.000Z</time></trkpt><trkpt lat="40.04641" lon="-8.49541"><ele>296</ele><time>2022-11-28T21:21:20.000Z</time></trkpt><trkpt lat="40.04647" lon="-8.49521"><time>2022-11-28T21:21:30.000Z</time></trkpt><trkpt lat="40.04647" lon="-8.49515"><ele>299</ele><time>2022-11-28T21:21:40.000Z</time></trkpt><trkpt lat="40.04648" lon="-8.49508"><time>2022-11-28T21:21:50.000Z</time></trkpt><trkpt lat="40.04647" lon="-8.49504"><time>2022-11-28T21:22:00.000Z</time></trkpt><trkpt lat="40.04648" lon="-8.49492"><time>2022-11-28T21:22:10.000Z</time></trkpt><trkpt lat="40.04652" lon="-8.49481"><ele>309</ele><time>2022-11-28T21:21:21.000Z</time></trkpt><trkpt lat="40.04655" lon="-8.4946"><time>2022-11-28T21:21:31.000Z</time></trkpt><trkpt lat="40.04659" lon="-8.49448"><ele>319</ele><time>2022-11-28T21:21:41.000Z</time></trkpt><trkpt lat="40.04659" lon="-8.4944"><time>2022-11-28T21:21:51.000Z</time></trkpt><trkpt lat="40.04659" lon="-8.49431"><time>2022-11-28T21:22:01.000Z</time></trkpt><trkpt lat="40.04658" lon="-8.49415"><ele>319</ele><time>2022-11-28T21:22:11.000Z</time></trkpt><trkpt lat="40.0466" lon="-8.49406"><time>2022-11-28T21:22:21.000Z</time></trkpt><trkpt lat="40.04669" lon="-8.49386"><ele>318</ele><time>2022-11-28T21:22:31.000Z</time></trkpt><trkpt lat="40.04673" lon="-8.49373"><time>2022-11-28T21:22:41.000Z</time></trkpt><trkpt lat="40.04673" lon="-8.49356"><ele>318</ele><time>2022-11-28T21:22:51.000Z</time></trkpt><trkpt lat="40.04675" lon="-8.49352"><time>2022-11-28T21:23:01.000Z</time></trkpt><trkpt lat="40.04679" lon="-8.49348"><time>2022-11-28T21:23:11.000Z</time></trkpt><trkpt lat="40.04686" lon="-8.49343"><time>2022-11-28T21:23:21.000Z</time></trkpt><trkpt lat="40.04687" lon="-8.49343"><time>2022-11-28T21:23:31.000Z</time></trkpt><trkpt lat="40.04689" lon="-8.49342"><time>2022-11-28T21:23:41.000Z</time></trkpt><trkpt lat="40.0469" lon="-8.49335"><ele>315</ele><time>2022-11-28T21:23:51.000Z</time></trkpt><trkpt lat="40.04695" lon="-8.49325"><time>2022-11-28T21:24:01.000Z</time></trkpt><trkpt lat="40.04698" lon="-8.49313"><time>2022-11-28T21:24:11.000Z</time></trkpt><trkpt lat="40.04697" lon="-8.4931"><ele>315</ele><time>2022-11-28T21:24:21.000Z</time></trkpt><trkpt lat="40.04701" lon="-8.49301"><time>2022-11-28T21:24:31.000Z</time></trkpt><trkpt lat="40.04708" lon="-8.49289"><time>2022-11-28T21:24:41.000Z</time></trkpt><trkpt lat="40.04709" lon="-8.49283"><ele>316</ele><time>2022-11-28T21:24:51.000Z</time></trkpt><trkpt lat="40.04712" lon="-8.4928"><time>2022-11-28T21:25:01.000Z</time></trkpt><trkpt lat="40.04718" lon="-8.49273"><time>2022-11-28T21:25:11.000Z</time></trkpt><trkpt lat="40.04719" lon="-8.49272"><time>2022-11-28T21:25:21.000Z</time></trkpt><trkpt lat="40.04719" lon="-8.49267"><time>2022-11-28T21:25:31.000Z</time></trkpt><trkpt lat="40.0473" lon="-8.49252"><ele>317</ele><time>2022-11-28T21:25:41.000Z</time></trkpt><trkpt lat="40.04735" lon="-8.49249"><time>2022-11-28T21:25:51.000Z</time></trkpt><trkpt lat="40.04741" lon="-8.49247"><time>2022-11-28T21:26:01.000Z</time></trkpt><trkpt lat="40.04741" lon="-8.49245"><time>2022-11-28T21:26:11.000Z</time></trkpt><trkpt lat="40.04739" lon="-8.49239"><time>2022-11-28T21:26:21.000Z</time></trkpt><trkpt lat="40.04739" lon="-8.49234"><ele>317</ele><time>2022-11-28T21:26:31.000Z</time></trkpt><trkpt lat="40.04741" lon="-8.49232"><time>2022-11-28T21:26:41.000Z</time></trkpt><trkpt lat="40.04749" lon="-8.49228"><time>2022-11-28T21:26:51.000Z</time></trkpt><trkpt lat="40.04756" lon="-8.4922"><time>2022-11-28T21:27:01.000Z</time></trkpt><trkpt lat="40.04764" lon="-8.49218"><ele>308</ele><time>2022-11-28T21:27:11.000Z</time></trkpt><trkpt lat="40.04768" lon="-8.49214"><time>2022-11-28T21:27:21.000Z</time></trkpt><trkpt lat="40.04771" lon="-8.49215"><time>2022-11-28T21:27:31.000Z</time></trkpt><trkpt lat="40.04775" lon="-8.49212"><time>2022-11-28T21:27:41.000Z</time></trkpt><trkpt lat="40.04775" lon="-8.4921"><time>2022-11-28T21:27:51.000Z</time></trkpt><trkpt lat="40.04776" lon="-8.49207"><time>2022-11-28T21:28:01.000Z</time></trkpt><trkpt lat="40.0478" lon="-8.49195"><ele>302</ele><time>2022-11-28T21:21:35.000Z</time></trkpt><trkpt lat="40.04785" lon="-8.49189"><time>2022-11-28T21:21:45.000Z</time></trkpt><trkpt lat="40.04792" lon="-8.49175"><time>2022-11-28T21:21:55.000Z</time></trkpt><trkpt lat="40.04796" lon="-8.49169"><ele>301</ele><time>2022-11-28T21:21:36.000Z</time></trkpt><trkpt lat="40.04806" lon="-8.49149"><time>2022-11-28T21:21:46.000Z</time></trkpt><trkpt lat="40.04808" lon="-8.49145"><ele>295</ele><time>2022-11-28T21:21:37.000Z</time></trkpt><trkpt lat="40.04811" lon="-8.49142"><time>2022-11-28T21:21:47.000Z</time></trkpt><trkpt lat="40.04814" lon="-8.49133"><time>2022-11-28T21:21:57.000Z</time></trkpt><trkpt lat="40.04813" lon="-8.49127"><time>2022-11-28T21:22:07.000Z</time></trkpt><trkpt lat="40.04813" lon="-8.49118"><ele>295</ele><time>2022-11-28T21:21:38.000Z</time></trkpt><trkpt lat="40.04816" lon="-8.49101"><time>2022-11-28T21:21:48.000Z</time></trkpt><trkpt lat="40.04813" lon="-8.49094"><time>2022-11-28T21:21:58.000Z</time></trkpt><trkpt lat="40.04815" lon="-8.49087"><ele>294</ele><time>2022-11-28T21:21:39.000Z</time></trkpt><trkpt lat="40.04815" lon="-8.49067"><time>2022-11-28T21:21:49.000Z</time></trkpt><trkpt lat="40.04815" lon="-8.49055"><ele>294</ele><time>2022-11-28T21:21:59.000Z</time></trkpt><trkpt lat="40.04818" lon="-8.49052"><time>2022-11-28T21:22:09.000Z</time></trkpt><trkpt lat="40.04823" lon="-8.49042"><time>2022-11-28T21:22:19.000Z</time></trkpt><trkpt lat="40.04825" lon="-8.49041"><time>2022-11-28T21:22:29.000Z</time></trkpt><trkpt lat="40.0483" lon="-8.49038"><time>2022-11-28T21:22:39.000Z</time></trkpt><trkpt lat="40.04834" lon="-8.4904"><ele>294</ele><time>2022-11-28T21:22:49.000Z</time></trkpt><trkpt lat="40.04834" lon="-8.49039"><time>2022-11-28T21:22:59.000Z</time></trkpt><trkpt lat="40.0483" lon="-8.49033"><time>2022-11-28T21:23:09.000Z</time></trkpt><trkpt lat="40.0483" lon="-8.49029"><time>2022-11-28T21:23:19.000Z</time></trkpt><trkpt lat="40.0483" lon="-8.49027"><time>2022-11-28T21:23:29.000Z</time></trkpt><trkpt lat="40.04832" lon="-8.49027"><time>2022-11-28T21:23:39.000Z</time></trkpt><trkpt lat="40.04832" lon="-8.49027"><time>2022-11-28T21:23:49.000Z</time></trkpt><trkpt lat="40.04836" lon="-8.49025"><time>2022-11-28T21:23:59.000Z</time></trkpt><trkpt lat="40.04839" lon="-8.49022"><ele>295</ele><time>2022-11-28T21:24:09.000Z</time></trkpt><trkpt lat="40.04842" lon="-8.4902"><time>2022-11-28T21:24:19.000Z</time></trkpt><trkpt lat="40.04845" lon="-8.49005"><time>2022-11-28T21:24:29.000Z</time></trkpt><trkpt lat="40.0485" lon="-8.48988"><ele>295</ele><time>2022-11-28T21:21:51.000Z</time></trkpt><trkpt lat="40.04854" lon="-8.48979"><time>2022-11-28T21:22:01.000Z</time></trkpt><trkpt lat="40.04854" lon="-8.48973"><time>2022-11-28T21:22:11.000Z</time></trkpt><trkpt lat="40.04859" lon="-8.48958"><ele>305</ele><time>2022-11-28T21:22:21.000Z</time></trkpt><trkpt lat="40.0486" lon="-8.48956"><time>2022-11-28T21:22:31.000Z</time></trkpt><trkpt lat="40.04869" lon="-8.48947"><time>2022-11-28T21:22:41.000Z</time></trkpt><trkpt lat="40.04873" lon="-8.48939"><time>2022-11-28T21:22:51.000Z</time></trkpt><trkpt lat="40.04872" lon="-8.48933"><ele>307</ele><time>2022-11-28T21:21:59.000Z</time></trkpt><trkpt lat="40.04876" lon="-8.48919"><time>2022-11-28T21:22:09.000Z</time></trkpt><trkpt lat="40.04878" lon="-8.48915"><time>2022-11-28T21:22:19.000Z</time></trkpt><trkpt lat="40.04882" lon="-8.4891"><time>2022-11-28T21:22:29.000Z</time></trkpt><trkpt lat="40.04885" lon="-8.48904"><ele>328</ele><time>2022-11-28T21:22:39.000Z</time></trkpt><trkpt lat="40.04886" lon="-8.48901"><time>2022-11-28T21:22:49.000Z</time></trkpt><trkpt lat="40.04894" lon="-8.48887"><time>2022-11-28T21:22:59.000Z</time></trkpt><trkpt lat="40.049" lon="-8.48884"><ele>328</ele><time>2022-11-28T21:23:09.000Z</time></trkpt><trkpt lat="40.049" lon="-8.48881"><time>2022-11-28T21:23:19.000Z</time></trkpt><trkpt lat="40.04901" lon="-8.48879"><time>2022-11-28T21:23:29.000Z</time></trkpt><trkpt lat="40.04901" lon="-8.48867"><time>2022-11-28T21:23:39.000Z</time></trkpt><trkpt lat="40.04899" lon="-8.48854"><ele>330</ele><time>2022-11-28T21:23:49.000Z</time></trkpt><trkpt lat="40.04901" lon="-8.4885"><time>2022-11-28T21:23:59.000Z</time></trkpt><trkpt lat="40.04903" lon="-8.48847"><time>2022-11-28T21:24:09.000Z</time></trkpt><trkpt lat="40.04905" lon="-8.48847"><time>2022-11-28T21:24:19.000Z</time></trkpt><trkpt lat="40.0491" lon="-8.48848"><time>2022-11-28T21:24:29.000Z</time></trkpt><trkpt lat="40.04931" lon="-8.48854"><ele>337</ele><time>2022-11-28T21:24:39.000Z</time></trkpt><trkpt lat="40.04937" lon="-8.48857"><time>2022-11-28T21:24:49.000Z</time></trkpt><trkpt lat="40.04945" lon="-8.48862"><time>2022-11-28T21:24:59.000Z</time></trkpt><trkpt lat="40.04957" lon="-8.48872"><ele>340</ele><time>2022-11-28T21:22:15.000Z</time></trkpt><trkpt lat="40.04963" lon="-8.48875"><time>2022-11-28T21:22:25.000Z</time></trkpt><trkpt lat="40.04976" lon="-8.48894"><ele>347</ele><time>2022-11-28T21:22:17.000Z</time></trkpt><trkpt lat="40.05006" lon="-8.48921"><ele>352</ele><time>2022-11-28T21:22:27.000Z</time></trkpt><trkpt lat="40.05018" lon="-8.48936"><time>2022-11-28T21:22:37.000Z</time></trkpt><trkpt lat="40.05021" lon="-8.4895"><ele>352</ele><time>2022-11-28T21:22:47.000Z</time></trkpt><trkpt lat="40.05023" lon="-8.48961"><time>2022-11-28T21:22:57.000Z</time></trkpt><trkpt lat="40.05025" lon="-8.48968"><time>2022-11-28T21:23:07.000Z</time></trkpt><trkpt lat="40.05028" lon="-8.48974"><time>2022-11-28T21:23:17.000Z</time></trkpt><trkpt lat="40.05038" lon="-8.48984"><ele>353</ele><time>2022-11-28T21:23:27.000Z</time></trkpt><trkpt lat="40.0504" lon="-8.48987"><time>2022-11-28T21:23:37.000Z</time></trkpt><trkpt lat="40.05051" lon="-8.48998"><time>2022-11-28T21:23:47.000Z</time></trkpt><trkpt lat="40.05065" lon="-8.49009"><ele>353</ele><time>2022-11-28T21:22:24.000Z</time></trkpt><trkpt lat="40.05101" lon="-8.49005"><ele>354</ele><time>2022-11-28T21:22:25.000Z</time></trkpt><trkpt lat="40.05125" lon="-8.49003"><ele>354</ele><time>2022-11-28T21:22:35.000Z</time></trkpt><trkpt lat="40.05133" lon="-8.48999"><time>2022-11-28T21:22:45.000Z</time></trkpt><trkpt lat="40.05135" lon="-8.48997"><time>2022-11-28T21:22:55.000Z</time></trkpt><trkpt lat="40.05142" lon="-8.48986"><ele>353</ele><time>2022-11-28T21:23:05.000Z</time></trkpt><trkpt lat="40.05154" lon="-8.48983"><time>2022-11-28T21:23:15.000Z</time></trkpt><trkpt lat="40.05155" lon="-8.48975"><time>2022-11-28T21:23:25.000Z</time></trkpt><trkpt lat="40.05159" lon="-8.48963"><ele>353</ele><time>2022-11-28T21:23:35.000Z</time></trkpt><trkpt lat="40.05164" lon="-8.48951"><time>2022-11-28T21:23:45.000Z</time></trkpt><trkpt lat="40.05165" lon="-8.48945"><time>2022-11-28T21:23:55.000Z</time></trkpt><trkpt lat="40.05168" lon="-8.4894"><time>2022-11-28T21:24:05.000Z</time></trkpt><trkpt lat="40.05171" lon="-8.48936"><ele>354</ele><time>2022-11-28T21:24:15.000Z</time></trkpt><trkpt lat="40.05182" lon="-8.48923"><time>2022-11-28T21:24:25.000Z</time></trkpt><trkpt lat="40.05192" lon="-8.48916"><ele>356</ele><time>2022-11-28T21:24:35.000Z</time></trkpt><trkpt lat="40.05201" lon="-8.48911"><time>2022-11-28T21:24:45.000Z</time></trkpt><trkpt lat="40.0522" lon="-8.48895"><ele>356</ele><time>2022-02-26T14:32:53.000Z</time></trkpt><trkpt lat="40.05225" lon="-8.48891"><time>2022-02-26T14:33:03.000Z</time></trkpt><trkpt lat="40.0524" lon="-8.48885"><ele>357</ele><time>2022-02-26T14:33:11.000Z</time></trkpt><trkpt lat="40.05263" lon="-8.48869"><ele>360</ele><time>2022-02-26T14:33:21.000Z</time></trkpt><trkpt lat="40.05277" lon="-8.48859"><time>2022-02-26T14:33:31.000Z</time></trkpt><trkpt lat="40.05282" lon="-8.48857"><ele>357</ele><time>2022-02-26T14:33:41.000Z</time></trkpt><trkpt lat="40.05287" lon="-8.48857"><time>2022-02-26T14:33:51.000Z</time></trkpt><trkpt lat="40.05297" lon="-8.48862"><time>2022-02-26T14:34:01.000Z</time></trkpt><trkpt lat="40.05323" lon="-8.48889"><ele>355</ele><time>2022-02-26T14:34:11.000Z</time></trkpt><trkpt lat="40.05327" lon="-8.48892"><time>2022-02-26T14:34:21.000Z</time></trkpt><trkpt lat="40.05333" lon="-8.48895"><time>2022-02-26T14:34:31.000Z</time></trkpt><trkpt lat="40.05341" lon="-8.48903"><ele>354</ele><time>2022-02-26T14:34:41.000Z</time></trkpt><trkpt lat="40.05345" lon="-8.48905"><time>2022-02-26T14:34:51.000Z</time></trkpt><trkpt lat="40.05366" lon="-8.48911"><ele>356</ele><time>2022-02-26T14:35:01.000Z</time></trkpt><trkpt lat="40.05372" lon="-8.48914"><time>2022-02-26T14:35:11.000Z</time></trkpt><trkpt lat="40.05376" lon="-8.48916"><time>2022-02-26T14:35:21.000Z</time></trkpt><trkpt lat="40.0538" lon="-8.4892"><time>2022-02-26T14:35:31.000Z</time></trkpt><trkpt lat="40.05387" lon="-8.4893"><ele>354</ele><time>2022-02-26T14:35:41.000Z</time></trkpt><trkpt lat="40.05399" lon="-8.48941"><time>2022-02-26T14:35:51.000Z</time></trkpt><trkpt lat="40.05426" lon="-8.48953"><ele>352</ele><time>2022-02-26T14:36:01.000Z</time></trkpt><trkpt lat="40.05445" lon="-8.48957"><time>2022-02-26T14:36:11.000Z</time></trkpt><trkpt lat="40.05451" lon="-8.48956"><ele>349</ele><time>2022-02-26T14:36:21.000Z</time></trkpt><trkpt lat="40.05467" lon="-8.48952"><time>2022-02-26T14:36:31.000Z</time></trkpt><trkpt lat="40.05483" lon="-8.48951"><ele>346</ele><time>2022-02-26T14:36:41.000Z</time></trkpt><trkpt lat="40.05488" lon="-8.4895"><time>2022-02-26T14:36:51.000Z</time></trkpt><trkpt lat="40.05499" lon="-8.48949"><time>2022-02-26T14:37:01.000Z</time></trkpt><trkpt lat="40.05509" lon="-8.48947"><ele>338</ele><time>2022-02-26T14:35:55.000Z</time></trkpt><trkpt lat="40.05514" lon="-8.48948"><time>2022-02-26T14:36:05.000Z</time></trkpt><trkpt lat="40.05519" lon="-8.48947"><time>2022-02-26T14:36:15.000Z</time></trkpt><trkpt lat="40.0553" lon="-8.48948"><ele>334</ele><time>2022-02-26T14:36:03.000Z</time></trkpt><trkpt lat="40.05539" lon="-8.48946"><time>2022-02-26T14:36:13.000Z</time></trkpt><trkpt lat="40.05551" lon="-8.48941"><ele>329</ele><time>2022-02-26T14:36:23.000Z</time></trkpt><trkpt lat="40.05557" lon="-8.48941"><time>2022-02-26T14:36:33.000Z</time></trkpt><trkpt lat="40.05563" lon="-8.48944"><time>2022-02-26T14:36:43.000Z</time></trkpt><trkpt lat="40.05569" lon="-8.48944"><time>2022-02-26T14:36:53.000Z</time></trkpt><trkpt lat="40.05573" lon="-8.48937"><ele>323</ele><time>2022-02-26T14:37:03.000Z</time></trkpt><trkpt lat="40.05577" lon="-8.48933"><time>2022-02-26T14:37:13.000Z</time></trkpt><trkpt lat="40.05588" lon="-8.48931"><time>2022-02-26T14:37:23.000Z</time></trkpt><trkpt lat="40.05593" lon="-8.48926"><ele>322</ele><time>2022-02-26T14:37:33.000Z</time></trkpt><trkpt lat="40.05598" lon="-8.48923"><time>2022-02-26T14:37:43.000Z</time></trkpt><trkpt lat="40.05604" lon="-8.48921"><time>2022-02-26T14:37:53.000Z</time></trkpt><trkpt lat="40.05609" lon="-8.4892"><time>2022-02-26T14:38:03.000Z</time></trkpt><trkpt lat="40.05619" lon="-8.48916"><ele>315</ele><time>2022-02-26T14:38:13.000Z</time></trkpt><trkpt lat="40.05624" lon="-8.48915"><time>2022-02-26T14:38:23.000Z</time></trkpt><trkpt lat="40.05633" lon="-8.48912"><time>2022-02-26T14:38:33.000Z</time></trkpt><trkpt lat="40.05644" lon="-8.48906"><ele>313</ele><time>2022-02-26T14:37:11.000Z</time></trkpt><trkpt lat="40.05665" lon="-8.489"><ele>304</ele><time>2022-02-26T14:37:22.000Z</time></trkpt><trkpt lat="40.05669" lon="-8.48897"><time>2022-02-26T14:37:32.000Z</time></trkpt><trkpt lat="40.05672" lon="-8.4889"><time>2022-02-26T14:37:42.000Z</time></trkpt><trkpt lat="40.05676" lon="-8.48884"><time>2022-02-26T14:37:52.000Z</time></trkpt><trkpt lat="40.05681" lon="-8.48883"><ele>304</ele><time>2022-02-26T14:37:39.000Z</time></trkpt><trkpt lat="40.05697" lon="-8.4889"><time>2022-02-26T14:37:49.000Z</time></trkpt><trkpt lat="40.05702" lon="-8.48891"><ele>296</ele><time>2022-02-26T14:37:53.000Z</time></trkpt><trkpt lat="40.05707" lon="-8.4889"><time>2022-02-26T14:38:03.000Z</time></trkpt><trkpt lat="40.0571" lon="-8.48885"><time>2022-02-26T14:38:13.000Z</time></trkpt><trkpt lat="40.05715" lon="-8.48882"><time>2022-02-26T14:38:23.000Z</time></trkpt><trkpt lat="40.0572" lon="-8.48872"><ele>292</ele><time>2022-02-26T14:38:23.000Z</time></trkpt><trkpt lat="40.05727" lon="-8.48863"><time>2022-02-26T14:38:33.000Z</time></trkpt><trkpt lat="40.05732" lon="-8.48859"><time>2022-02-26T14:38:43.000Z</time></trkpt><trkpt lat="40.05737" lon="-8.48859"><ele>286</ele><time>2022-02-26T14:38:35.000Z</time></trkpt><trkpt lat="40.05745" lon="-8.4885"><time>2022-02-26T14:38:45.000Z</time></trkpt><trkpt lat="40.0575" lon="-8.48849"><time>2022-02-26T14:38:55.000Z</time></trkpt><trkpt lat="40.05757" lon="-8.4884"><ele>283</ele><time>2022-02-26T14:38:57.000Z</time></trkpt><trkpt lat="40.05761" lon="-8.48839"><time>2022-02-26T14:39:07.000Z</time></trkpt><trkpt lat="40.05767" lon="-8.48837"><time>2022-02-26T14:39:17.000Z</time></trkpt><trkpt lat="40.05771" lon="-8.48833"><time>2022-02-26T14:39:27.000Z</time></trkpt><trkpt lat="40.05775" lon="-8.48828"><ele>267</ele><time>2022-02-26T14:39:12.000Z</time></trkpt><trkpt lat="40.05784" lon="-8.48824"><time>2022-02-26T14:39:22.000Z</time></trkpt><trkpt lat="40.05788" lon="-8.4882"><time>2022-02-26T14:39:32.000Z</time></trkpt><trkpt lat="40.05792" lon="-8.48816"><time>2022-02-26T14:39:42.000Z</time></trkpt><trkpt lat="40.05798" lon="-8.48815"><ele>267</ele><time>2022-02-26T14:39:32.000Z</time></trkpt><trkpt lat="40.05803" lon="-8.48812"><time>2022-02-26T14:39:42.000Z</time></trkpt><trkpt lat="40.05802" lon="-8.48818"><time>2022-02-26T14:39:52.000Z</time></trkpt><trkpt lat="40.05807" lon="-8.48819"><time>2022-02-26T14:40:02.000Z</time></trkpt><trkpt lat="40.05812" lon="-8.48818"><time>2022-02-26T14:40:12.000Z</time></trkpt><trkpt lat="40.05815" lon="-8.48812"><ele>258</ele><time>2022-02-26T14:40:00.000Z</time></trkpt><trkpt lat="40.05818" lon="-8.48798"><time>2022-02-26T14:40:10.000Z</time></trkpt><trkpt lat="40.05819" lon="-8.48784"><ele>250</ele><time>2022-02-26T14:40:20.000Z</time></trkpt><trkpt lat="40.05819" lon="-8.48777"><time>2022-02-26T14:40:30.000Z</time></trkpt><trkpt lat="40.05817" lon="-8.48761"><time>2022-02-26T14:40:40.000Z</time></trkpt><trkpt lat="40.05811" lon="-8.48737"><ele>248</ele><time>2022-02-26T14:40:26.000Z</time></trkpt><trkpt lat="40.05806" lon="-8.487"><ele>248</ele><time>2022-02-26T14:40:42.000Z</time></trkpt><trkpt lat="40.05801" lon="-8.4868"><time>2022-02-26T14:40:52.000Z</time></trkpt><trkpt lat="40.05796" lon="-8.48669"><ele>249</ele><time>2022-02-26T14:41:02.000Z</time></trkpt><trkpt lat="40.05794" lon="-8.48661"><time>2022-02-26T14:41:12.000Z</time></trkpt><trkpt lat="40.05792" lon="-8.48656"><time>2022-02-26T14:41:22.000Z</time></trkpt><trkpt lat="40.05788" lon="-8.48652"><time>2022-02-26T14:41:32.000Z</time></trkpt><trkpt lat="40.05786" lon="-8.48646"><time>2022-02-26T14:41:42.000Z</time></trkpt><trkpt lat="40.05785" lon="-8.4864"><ele>252</ele><time>2022-02-26T14:41:52.000Z</time></trkpt><trkpt lat="40.05784" lon="-8.48634"><time>2022-02-26T14:42:02.000Z</time></trkpt><trkpt lat="40.0578" lon="-8.48625"><time>2022-02-26T14:42:12.000Z</time></trkpt><trkpt lat="40.05779" lon="-8.48611"><ele>251</ele><time>2022-02-26T14:42:22.000Z</time></trkpt><trkpt lat="40.05777" lon="-8.48605"><time>2022-02-26T14:42:32.000Z</time></trkpt><trkpt lat="40.05773" lon="-8.48602"><time>2022-02-26T14:42:42.000Z</time></trkpt><trkpt lat="40.05759" lon="-8.48592"><ele>253</ele><time>2022-02-26T14:42:37.000Z</time></trkpt><trkpt lat="40.05755" lon="-8.48587"><time>2022-02-26T14:42:47.000Z</time></trkpt><trkpt lat="40.05752" lon="-8.48582"><time>2022-02-26T14:42:57.000Z</time></trkpt><trkpt lat="40.05749" lon="-8.48575"><time>2022-02-26T14:43:07.000Z</time></trkpt><trkpt lat="40.05746" lon="-8.48563"><ele>254</ele><time>2022-02-26T14:42:59.000Z</time></trkpt><trkpt lat="40.0574" lon="-8.48543"><time>2022-02-26T14:43:09.000Z</time></trkpt><trkpt lat="40.05738" lon="-8.48538"><ele>255</ele><time>2022-02-26T14:43:20.000Z</time></trkpt><trkpt lat="40.05741" lon="-8.48525"><time>2022-02-26T14:43:30.000Z</time></trkpt><trkpt lat="40.05741" lon="-8.48519"><time>2022-02-26T14:43:40.000Z</time></trkpt><trkpt lat="40.05738" lon="-8.48513"><time>2022-02-26T14:43:50.000Z</time></trkpt><trkpt lat="40.05734" lon="-8.48507"><ele>260</ele><time>2022-02-26T14:43:47.000Z</time></trkpt><trkpt lat="40.05728" lon="-8.48497"><time>2022-02-26T14:43:57.000Z</time></trkpt><trkpt lat="40.05732" lon="-8.48494"><time>2022-02-26T14:44:07.000Z</time></trkpt><trkpt lat="40.05734" lon="-8.48488"><time>2022-02-26T14:44:17.000Z</time></trkpt><trkpt lat="40.05735" lon="-8.48483"><ele>260</ele><time>2022-02-26T14:44:27.000Z</time></trkpt><trkpt lat="40.05734" lon="-8.48469"><time>2022-02-26T14:44:37.000Z</time></trkpt><trkpt lat="40.0573" lon="-8.48452"><ele>264</ele><time>2022-02-26T14:44:47.000Z</time></trkpt><trkpt lat="40.05729" lon="-8.48446"><time>2022-02-26T14:44:57.000Z</time></trkpt><trkpt lat="40.05722" lon="-8.48446"><time>2022-02-26T14:45:07.000Z</time></trkpt><trkpt lat="40.05726" lon="-8.48441"><time>2022-02-26T14:45:17.000Z</time></trkpt><trkpt lat="40.05731" lon="-8.4844"><ele>270</ele><time>2022-02-26T14:45:27.000Z</time></trkpt><trkpt lat="40.05736" lon="-8.48436"><time>2022-02-26T14:45:37.000Z</time></trkpt><trkpt lat="40.05739" lon="-8.48423"><time>2022-02-26T14:45:47.000Z</time></trkpt><trkpt lat="40.05752" lon="-8.48412"><ele>285</ele><time>2022-02-26T14:45:57.000Z</time></trkpt><trkpt lat="40.0576" lon="-8.48403"><time>2022-02-26T14:46:07.000Z</time></trkpt><trkpt lat="40.05762" lon="-8.48397"><time>2022-02-26T14:46:17.000Z</time></trkpt><trkpt lat="40.05767" lon="-8.48393"><ele>287</ele><time>2022-02-26T14:46:27.000Z</time></trkpt><trkpt lat="40.05771" lon="-8.48388"><time>2022-02-26T14:46:37.000Z</time></trkpt><trkpt lat="40.05777" lon="-8.48385"><time>2022-02-26T14:46:47.000Z</time></trkpt><trkpt lat="40.05784" lon="-8.48376"><ele>294</ele><time>2022-02-26T14:46:57.000Z</time></trkpt><trkpt lat="40.0579" lon="-8.48376"><time>2022-02-26T14:47:07.000Z</time></trkpt><trkpt lat="40.05794" lon="-8.48374"><time>2022-02-26T14:47:17.000Z</time></trkpt><trkpt lat="40.05798" lon="-8.48369"><time>2022-02-26T14:47:27.000Z</time></trkpt><trkpt lat="40.05803" lon="-8.48368"><ele>299</ele><time>2022-02-26T14:47:37.000Z</time></trkpt><trkpt lat="40.05814" lon="-8.4837"><time>2022-02-26T14:47:47.000Z</time></trkpt><trkpt lat="40.05819" lon="-8.48367"><time>2022-02-26T14:47:57.000Z</time></trkpt><trkpt lat="40.05823" lon="-8.48362"><ele>304</ele><time>2022-02-26T14:48:07.000Z</time></trkpt><trkpt lat="40.05828" lon="-8.48361"><time>2022-02-26T14:48:17.000Z</time></trkpt><trkpt lat="40.05839" lon="-8.48367"><time>2022-02-26T14:48:27.000Z</time></trkpt><trkpt lat="40.05843" lon="-8.48368"><ele>304</ele><time>2022-02-26T14:48:37.000Z</time></trkpt><trkpt lat="40.05848" lon="-8.48365"><time>2022-02-26T14:48:47.000Z</time></trkpt><trkpt lat="40.05859" lon="-8.48361"><time>2022-02-26T14:48:57.000Z</time></trkpt><trkpt lat="40.05867" lon="-8.48353"><ele>310</ele><time>2022-02-26T14:49:07.000Z</time></trkpt><trkpt lat="40.05869" lon="-8.48347"><time>2022-02-26T14:49:17.000Z</time></trkpt><trkpt lat="40.0587" lon="-8.4834"><time>2022-02-26T14:49:27.000Z</time></trkpt><trkpt lat="40.05868" lon="-8.48333"><time>2022-02-26T14:49:37.000Z</time></trkpt><trkpt lat="40.05867" lon="-8.48326"><ele>312</ele><time>2022-02-26T14:49:47.000Z</time></trkpt><trkpt lat="40.05868" lon="-8.4832"><time>2022-02-26T14:49:57.000Z</time></trkpt><trkpt lat="40.0587" lon="-8.48315"><time>2022-02-26T14:50:07.000Z</time></trkpt><trkpt lat="40.05878" lon="-8.48304"><ele>317</ele><time>2022-02-26T14:50:17.000Z</time></trkpt><trkpt lat="40.05878" lon="-8.48298"><time>2022-02-26T14:50:27.000Z</time></trkpt><trkpt lat="40.05876" lon="-8.4829"><time>2022-02-26T14:50:37.000Z</time></trkpt><trkpt lat="40.05876" lon="-8.48284"><time>2022-02-26T14:50:47.000Z</time></trkpt><trkpt lat="40.05877" lon="-8.48277"><ele>320</ele><time>2022-02-26T14:50:57.000Z</time></trkpt><trkpt lat="40.0588" lon="-8.48272"><time>2022-02-26T14:51:07.000Z</time></trkpt><trkpt lat="40.0588" lon="-8.4825"><ele>332</ele><time>2022-02-26T14:51:17.000Z</time></trkpt><trkpt lat="40.05884" lon="-8.48246"><time>2022-02-26T14:51:27.000Z</time></trkpt><trkpt lat="40.05883" lon="-8.4824"><time>2022-02-26T14:51:37.000Z</time></trkpt><trkpt lat="40.0588" lon="-8.48234"><time>2022-02-26T14:51:47.000Z</time></trkpt><trkpt lat="40.05877" lon="-8.48227"><ele>333</ele><time>2022-02-26T14:51:57.000Z</time></trkpt><trkpt lat="40.05876" lon="-8.4822"><time>2022-02-26T14:52:07.000Z</time></trkpt><trkpt lat="40.05877" lon="-8.48214"><time>2022-02-26T14:52:17.000Z</time></trkpt><trkpt lat="40.05881" lon="-8.48208"><time>2022-02-26T14:52:27.000Z</time></trkpt><trkpt lat="40.05883" lon="-8.48203"><time>2022-02-26T14:52:37.000Z</time></trkpt><trkpt lat="40.05888" lon="-8.482"><ele>342</ele><time>2022-02-26T14:52:47.000Z</time></trkpt><trkpt lat="40.0589" lon="-8.48194"><time>2022-02-26T14:52:57.000Z</time></trkpt><trkpt lat="40.05894" lon="-8.48189"><time>2022-02-26T14:53:07.000Z</time></trkpt><trkpt lat="40.05901" lon="-8.48178"><ele>345</ele><time>2022-02-26T14:53:17.000Z</time></trkpt><trkpt lat="40.05905" lon="-8.48174"><time>2022-02-26T14:53:27.000Z</time></trkpt><trkpt lat="40.0591" lon="-8.48174"><time>2022-02-26T14:53:37.000Z</time></trkpt><trkpt lat="40.0591" lon="-8.48165"><time>2022-02-26T14:53:47.000Z</time></trkpt><trkpt lat="40.05911" lon="-8.4816"><ele>351</ele><time>2022-02-26T14:53:57.000Z</time></trkpt><trkpt lat="40.05915" lon="-8.48155"><time>2022-02-26T14:54:07.000Z</time></trkpt><trkpt lat="40.05921" lon="-8.48135"><ele>353</ele><time>2022-02-26T14:54:17.000Z</time></trkpt><trkpt lat="40.05925" lon="-8.4813"><time>2022-02-26T14:54:27.000Z</time></trkpt><trkpt lat="40.0593" lon="-8.48129"><time>2022-02-26T14:54:37.000Z</time></trkpt><trkpt lat="40.05937" lon="-8.48128"><time>2022-02-26T14:54:47.000Z</time></trkpt><trkpt lat="40.05939" lon="-8.48123"><ele>353</ele><time>2022-02-26T14:54:57.000Z</time></trkpt><trkpt lat="40.0594" lon="-8.48117"><time>2022-02-26T14:55:07.000Z</time></trkpt><trkpt lat="40.05942" lon="-8.4811"><time>2022-02-26T14:55:17.000Z</time></trkpt><trkpt lat="40.05944" lon="-8.48104"><time>2022-02-26T14:55:27.000Z</time></trkpt><trkpt lat="40.05947" lon="-8.48098"><time>2022-02-26T14:55:37.000Z</time></trkpt><trkpt lat="40.05951" lon="-8.48094"><ele>361</ele><time>2022-02-26T14:55:47.000Z</time></trkpt><trkpt lat="40.05962" lon="-8.48092"><time>2022-02-26T14:55:57.000Z</time></trkpt><trkpt lat="40.05966" lon="-8.48088"><time>2022-02-26T14:56:07.000Z</time></trkpt><trkpt lat="40.0597" lon="-8.48082"><ele>369</ele><time>2022-02-26T14:56:17.000Z</time></trkpt><trkpt lat="40.05973" lon="-8.48078"><time>2022-02-26T14:56:27.000Z</time></trkpt><trkpt lat="40.05978" lon="-8.48075"><time>2022-02-26T14:56:37.000Z</time></trkpt><trkpt lat="40.05981" lon="-8.48069"><time>2022-02-26T14:56:47.000Z</time></trkpt><trkpt lat="40.05981" lon="-8.48063"><time>2022-02-26T14:56:57.000Z</time></trkpt><trkpt lat="40.05979" lon="-8.48053"><ele>369</ele><time>2022-02-26T14:57:07.000Z</time></trkpt><trkpt lat="40.05976" lon="-8.48037"><time>2022-02-26T14:57:17.000Z</time></trkpt><trkpt lat="40.05975" lon="-8.48011"><ele>369</ele><time>2022-02-26T14:57:27.000Z</time></trkpt><trkpt lat="40.05976" lon="-8.48003"><time>2022-02-26T14:57:37.000Z</time></trkpt><trkpt lat="40.05979" lon="-8.47965"><ele>364</ele><time>2022-02-26T14:57:47.000Z</time></trkpt><trkpt lat="40.05978" lon="-8.47956"><time>2022-02-26T14:57:57.000Z</time></trkpt><trkpt lat="40.05977" lon="-8.47948"><time>2022-02-26T14:58:07.000Z</time></trkpt><trkpt lat="40.05974" lon="-8.47941"><time>2022-02-26T14:58:17.000Z</time></trkpt><trkpt lat="40.05969" lon="-8.47937"><ele>358</ele><time>2022-02-26T14:58:27.000Z</time></trkpt><trkpt lat="40.05963" lon="-8.47936"><time>2022-02-26T14:58:37.000Z</time></trkpt><trkpt lat="40.0595" lon="-8.47937"><time>2022-02-26T14:58:47.000Z</time></trkpt><trkpt lat="40.05937" lon="-8.4794"><ele>351</ele><time>2022-02-26T14:58:57.000Z</time></trkpt><trkpt lat="40.05932" lon="-8.47939"><time>2022-02-26T14:59:07.000Z</time></trkpt><trkpt lat="40.0593" lon="-8.47933"><time>2022-02-26T14:59:17.000Z</time></trkpt><trkpt lat="40.05928" lon="-8.47917"><ele>346</ele><time>2022-02-26T14:59:27.000Z</time></trkpt><trkpt lat="40.05926" lon="-8.47909"><time>2022-02-26T14:59:37.000Z</time></trkpt><trkpt lat="40.05926" lon="-8.47893"><time>2022-02-26T14:59:47.000Z</time></trkpt><trkpt lat="40.05928" lon="-8.47878"><ele>340</ele><time>2022-02-26T14:59:57.000Z</time></trkpt><trkpt lat="40.05929" lon="-8.47863"><time>2022-02-26T15:00:07.000Z</time></trkpt><trkpt lat="40.05931" lon="-8.47857"><time>2022-02-26T15:00:17.000Z</time></trkpt><trkpt lat="40.05938" lon="-8.47846"><ele>340</ele><time>2022-02-26T15:00:27.000Z</time></trkpt><trkpt lat="40.05939" lon="-8.47838"><time>2022-02-26T15:00:37.000Z</time></trkpt><trkpt lat="40.05938" lon="-8.47824"><time>2022-02-26T15:00:47.000Z</time></trkpt><trkpt lat="40.05935" lon="-8.47809"><ele>338</ele><time>2022-02-26T15:00:57.000Z</time></trkpt><trkpt lat="40.05933" lon="-8.47803"><time>2022-02-26T15:01:07.000Z</time></trkpt><trkpt lat="40.05919" lon="-8.47786"><ele>336</ele><time>2022-02-26T15:01:17.000Z</time></trkpt><trkpt lat="40.05909" lon="-8.47775"><time>2022-02-26T15:01:27.000Z</time></trkpt><trkpt lat="40.05903" lon="-8.47771"><time>2022-02-26T15:01:37.000Z</time></trkpt><trkpt lat="40.05896" lon="-8.47768"><ele>333</ele><time>2022-02-26T15:01:47.000Z</time></trkpt><trkpt lat="40.05883" lon="-8.47765"><time>2022-02-26T15:01:57.000Z</time></trkpt><trkpt lat="40.05854" lon="-8.47762"><ele>329</ele><time>2022-02-26T13:44:31.000Z</time></trkpt><trkpt lat="40.05835" lon="-8.47762"><time>2022-02-26T13:44:41.000Z</time></trkpt><trkpt lat="40.05816" lon="-8.47761"><ele>327</ele><time>2022-02-26T13:44:49.000Z</time></trkpt><trkpt lat="40.05804" lon="-8.47757"><time>2022-02-26T13:44:59.000Z</time></trkpt><trkpt lat="40.05797" lon="-8.47756"><time>2022-02-26T13:45:09.000Z</time></trkpt><trkpt lat="40.05792" lon="-8.47754"><ele>326</ele><time>2022-02-26T13:45:19.000Z</time></trkpt><trkpt lat="40.0579" lon="-8.47746"><time>2022-02-26T13:45:29.000Z</time></trkpt><trkpt lat="40.0579" lon="-8.47738"><time>2022-02-26T13:45:39.000Z</time></trkpt><trkpt lat="40.05788" lon="-8.47723"><ele>324</ele><time>2022-02-26T13:45:49.000Z</time></trkpt><trkpt lat="40.05786" lon="-8.47715"><time>2022-02-26T13:45:59.000Z</time></trkpt><trkpt lat="40.05785" lon="-8.47707"><time>2022-02-26T13:46:09.000Z</time></trkpt><trkpt lat="40.05787" lon="-8.47685"><ele>322</ele><time>2022-02-26T13:45:30.000Z</time></trkpt><trkpt lat="40.0579" lon="-8.47651"><ele>318</ele><time>2022-02-26T13:45:40.000Z</time></trkpt><trkpt lat="40.05791" lon="-8.47644"><time>2022-02-26T13:45:50.000Z</time></trkpt><trkpt lat="40.05796" lon="-8.47632"><time>2022-02-26T13:46:00.000Z</time></trkpt><trkpt lat="40.05794" lon="-8.47616"><ele>312</ele><time>2022-02-26T13:46:10.000Z</time></trkpt><trkpt lat="40.05793" lon="-8.47609"><time>2022-02-26T13:46:20.000Z</time></trkpt><trkpt lat="40.05791" lon="-8.47596"><time>2022-02-26T13:46:30.000Z</time></trkpt><trkpt lat="40.05785" lon="-8.47574"><ele>308</ele><time>2022-02-26T13:46:40.000Z</time></trkpt><trkpt lat="40.05784" lon="-8.47567"><time>2022-02-26T13:46:50.000Z</time></trkpt><trkpt lat="40.05785" lon="-8.47551"><time>2022-02-26T13:47:00.000Z</time></trkpt><trkpt lat="40.05789" lon="-8.4752"><ele>304</ele><time>2022-02-26T13:47:10.000Z</time></trkpt><trkpt lat="40.05789" lon="-8.47512"><time>2022-02-26T13:47:20.000Z</time></trkpt><trkpt lat="40.05786" lon="-8.47492"><ele>302</ele><time>2022-02-26T13:47:30.000Z</time></trkpt><trkpt lat="40.05783" lon="-8.47483"><time>2022-02-26T13:47:40.000Z</time></trkpt><trkpt lat="40.05778" lon="-8.47473"><time>2022-02-26T13:47:50.000Z</time></trkpt><trkpt lat="40.0577" lon="-8.47455"><ele>298</ele><time>2022-02-26T13:48:00.000Z</time></trkpt><trkpt lat="40.05765" lon="-8.4745"><time>2022-02-26T13:48:10.000Z</time></trkpt><trkpt lat="40.05761" lon="-8.47447"><time>2022-02-26T13:48:20.000Z</time></trkpt><trkpt lat="40.05759" lon="-8.4744"><time>2022-02-26T13:48:30.000Z</time></trkpt><trkpt lat="40.05771" lon="-8.47422"><ele>281</ele><time>2022-02-26T13:48:40.000Z</time></trkpt><trkpt lat="40.05774" lon="-8.47415"><time>2022-02-26T13:48:50.000Z</time></trkpt><trkpt lat="40.05778" lon="-8.47399"><time>2022-02-26T13:49:00.000Z</time></trkpt><trkpt lat="40.0578" lon="-8.47385"><ele>273</ele><time>2022-02-26T13:49:10.000Z</time></trkpt><trkpt lat="40.05782" lon="-8.47378"><time>2022-02-26T13:49:20.000Z</time></trkpt><trkpt lat="40.05788" lon="-8.47364"><time>2022-02-26T13:49:30.000Z</time></trkpt><trkpt lat="40.05796" lon="-8.47349"><ele>267</ele><time>2022-02-26T13:48:18.000Z</time></trkpt><trkpt lat="40.05809" lon="-8.4733"><time>2022-02-26T13:48:28.000Z</time></trkpt><trkpt lat="40.0581" lon="-8.47324"><ele>267</ele><time>2022-02-26T13:48:38.000Z</time></trkpt><trkpt lat="40.05809" lon="-8.47316"><time>2022-02-26T13:48:48.000Z</time></trkpt><trkpt lat="40.05771" lon="-8.47268"><ele>272</ele><time>2022-02-26T13:49:14.000Z</time></trkpt><trkpt lat="40.05755" lon="-8.47242"><ele>273</ele><time>2022-02-26T13:49:24.000Z</time></trkpt><trkpt lat="40.05743" lon="-8.47222"><time>2022-02-26T13:49:34.000Z</time></trkpt><trkpt lat="40.05741" lon="-8.47216"><ele>274</ele><time>2022-02-26T13:49:44.000Z</time></trkpt><trkpt lat="40.05736" lon="-8.47194"><time>2022-02-26T13:49:54.000Z</time></trkpt><trkpt lat="40.05734" lon="-8.47172"><ele>275</ele><time>2022-02-26T13:50:04.000Z</time></trkpt><trkpt lat="40.05733" lon="-8.47166"><time>2022-02-26T13:50:14.000Z</time></trkpt><trkpt lat="40.05733" lon="-8.47159"><time>2022-02-26T13:50:24.000Z</time></trkpt><trkpt lat="40.05738" lon="-8.47136"><ele>276</ele><time>2022-02-26T13:50:27.000Z</time></trkpt><trkpt lat="40.05743" lon="-8.47123"><time>2022-02-26T13:50:37.000Z</time></trkpt><trkpt lat="40.05749" lon="-8.4711"><ele>277</ele><time>2022-02-26T13:50:43.000Z</time></trkpt><trkpt lat="40.05753" lon="-8.47096"><time>2022-02-26T13:50:53.000Z</time></trkpt><trkpt lat="40.05758" lon="-8.47083"><ele>279</ele><time>2022-02-26T13:50:59.000Z</time></trkpt><trkpt lat="40.05764" lon="-8.47062"><time>2022-02-26T13:51:09.000Z</time></trkpt><trkpt lat="40.05764" lon="-8.47055"><ele>283</ele><time>2022-02-26T13:51:19.000Z</time></trkpt><trkpt lat="40.05764" lon="-8.47046"><time>2022-02-26T13:51:29.000Z</time></trkpt><trkpt lat="40.05764" lon="-8.47039"><time>2022-02-26T13:51:39.000Z</time></trkpt><trkpt lat="40.05765" lon="-8.47033"><time>2022-02-26T13:51:49.000Z</time></trkpt><trkpt lat="40.05765" lon="-8.47017"><ele>288</ele><time>2022-02-26T13:51:59.000Z</time></trkpt><trkpt lat="40.05767" lon="-8.47008"><time>2022-02-26T13:52:09.000Z</time></trkpt><trkpt lat="40.05769" lon="-8.46993"><time>2022-02-26T13:52:19.000Z</time></trkpt><trkpt lat="40.05773" lon="-8.4698"><ele>294</ele><time>2022-02-26T13:52:08.000Z</time></trkpt><trkpt lat="40.05776" lon="-8.46973"><time>2022-02-26T13:52:18.000Z</time></trkpt><trkpt lat="40.05778" lon="-8.46959"><time>2022-02-26T13:52:28.000Z</time></trkpt><trkpt lat="40.0578" lon="-8.46953"><ele>294</ele><time>2022-02-26T13:52:29.000Z</time></trkpt><trkpt lat="40.05781" lon="-8.46937"><time>2022-02-26T13:52:39.000Z</time></trkpt><trkpt lat="40.05786" lon="-8.46924"><ele>294</ele><time>2022-02-26T13:52:49.000Z</time></trkpt><trkpt lat="40.05789" lon="-8.46918"><time>2022-02-26T13:52:59.000Z</time></trkpt><trkpt lat="40.05804" lon="-8.46899"><ele>294</ele><time>2022-02-26T13:53:09.000Z</time></trkpt><trkpt lat="40.05807" lon="-8.46894"><time>2022-02-26T13:53:19.000Z</time></trkpt><trkpt lat="40.0581" lon="-8.46887"><time>2022-02-26T13:53:29.000Z</time></trkpt><trkpt lat="40.05812" lon="-8.46879"><time>2022-02-26T13:53:39.000Z</time></trkpt><trkpt lat="40.05812" lon="-8.46872"><ele>294</ele><time>2022-02-26T13:53:49.000Z</time></trkpt><trkpt lat="40.05812" lon="-8.46863"><time>2022-02-26T13:53:59.000Z</time></trkpt><trkpt lat="40.05811" lon="-8.46854"><time>2022-02-26T13:54:09.000Z</time></trkpt><trkpt lat="40.05804" lon="-8.46833"><ele>295</ele><time>2022-02-26T13:54:19.000Z</time></trkpt><trkpt lat="40.05803" lon="-8.46825"><time>2022-02-26T13:54:29.000Z</time></trkpt><trkpt lat="40.05801" lon="-8.46808"><time>2022-02-26T13:54:39.000Z</time></trkpt><trkpt lat="40.05796" lon="-8.46773"><ele>301</ele><time>2022-02-26T13:54:49.000Z</time></trkpt><trkpt lat="40.05794" lon="-8.46766"><time>2022-02-26T13:54:59.000Z</time></trkpt><trkpt lat="40.05792" lon="-8.46752"><time>2022-02-26T13:55:09.000Z</time></trkpt><trkpt lat="40.05788" lon="-8.46738"><ele>301</ele><time>2022-02-26T13:54:21.000Z</time></trkpt><trkpt lat="40.05787" lon="-8.46723"><time>2022-02-26T13:54:31.000Z</time></trkpt><trkpt lat="40.05788" lon="-8.46715"><time>2022-02-26T13:54:41.000Z</time></trkpt><trkpt lat="40.05786" lon="-8.46698"><ele>301</ele><time>2022-02-26T13:54:37.000Z</time></trkpt><trkpt lat="40.05786" lon="-8.46676"><time>2022-02-26T13:54:47.000Z</time></trkpt><trkpt lat="40.05787" lon="-8.46667"><ele>301</ele><time>2022-02-26T13:54:50.000Z</time></trkpt><trkpt lat="40.0579" lon="-8.46651"><time>2022-02-26T13:55:00.000Z</time></trkpt><trkpt lat="40.0579" lon="-8.46637"><ele>301</ele><time>2022-02-26T13:55:06.000Z</time></trkpt><trkpt lat="40.05787" lon="-8.46617"><time>2022-02-26T13:55:16.000Z</time></trkpt><trkpt lat="40.05783" lon="-8.46612"><ele>301</ele><time>2022-02-26T13:55:26.000Z</time></trkpt><trkpt lat="40.05772" lon="-8.46607"><time>2022-02-26T13:55:36.000Z</time></trkpt><trkpt lat="40.05761" lon="-8.46601"><ele>306</ele><time>2022-02-26T13:55:46.000Z</time></trkpt><trkpt lat="40.05748" lon="-8.46596"><time>2022-02-26T13:55:56.000Z</time></trkpt><trkpt lat="40.05743" lon="-8.46594"><time>2022-02-26T13:56:06.000Z</time></trkpt><trkpt lat="40.05737" lon="-8.46589"><ele>306</ele><time>2022-02-26T13:56:16.000Z</time></trkpt><trkpt lat="40.05732" lon="-8.46586"><time>2022-02-26T13:56:26.000Z</time></trkpt><trkpt lat="40.05726" lon="-8.46584"><time>2022-02-26T13:56:36.000Z</time></trkpt><trkpt lat="40.0572" lon="-8.46583"><time>2022-02-26T13:56:46.000Z</time></trkpt><trkpt lat="40.05709" lon="-8.4658"><ele>308</ele><time>2022-02-26T13:56:56.000Z</time></trkpt><trkpt lat="40.05697" lon="-8.46579"><time>2022-02-26T13:57:06.000Z</time></trkpt><trkpt lat="40.05674" lon="-8.46575"><ele>307</ele><time>2022-02-26T13:57:16.000Z</time></trkpt><trkpt lat="40.05658" lon="-8.4657"><time>2022-02-26T13:57:26.000Z</time></trkpt><trkpt lat="40.05637" lon="-8.46565"><ele>307</ele><time>2022-02-26T13:57:36.000Z</time></trkpt><trkpt lat="40.05632" lon="-8.4656"><time>2022-02-26T13:57:46.000Z</time></trkpt><trkpt lat="40.05633" lon="-8.46553"><time>2022-02-26T13:57:56.000Z</time></trkpt><trkpt lat="40.05633" lon="-8.46545"><time>2022-02-26T13:58:06.000Z</time></trkpt><trkpt lat="40.0563" lon="-8.46531"><ele>306</ele><time>2022-02-26T13:58:16.000Z</time></trkpt><trkpt lat="40.05628" lon="-8.46517"><time>2022-02-26T13:58:26.000Z</time></trkpt><trkpt lat="40.05625" lon="-8.46501"><ele>306</ele><time>2022-02-26T13:58:36.000Z</time></trkpt><trkpt lat="40.05624" lon="-8.46493"><time>2022-02-26T13:58:46.000Z</time></trkpt><trkpt lat="40.05623" lon="-8.46487"><time>2022-02-26T13:58:56.000Z</time></trkpt><trkpt lat="40.05621" lon="-8.46481"><time>2022-02-26T13:59:06.000Z</time></trkpt><trkpt lat="40.05624" lon="-8.46473"><ele>284</ele><time>2022-02-26T13:59:16.000Z</time></trkpt><trkpt lat="40.05627" lon="-8.46466"><time>2022-02-26T13:59:26.000Z</time></trkpt><trkpt lat="40.05635" lon="-8.46454"><time>2022-02-26T13:59:36.000Z</time></trkpt><trkpt lat="40.05648" lon="-8.46428"><ele>268</ele><time>2022-02-26T13:59:46.000Z</time></trkpt><trkpt lat="40.0565" lon="-8.46423"><time>2022-02-26T13:59:56.000Z</time></trkpt><trkpt lat="40.05651" lon="-8.46416"><time>2022-02-26T14:00:06.000Z</time></trkpt><trkpt lat="40.05653" lon="-8.46401"><ele>268</ele><time>2022-02-26T14:00:16.000Z</time></trkpt><trkpt lat="40.05653" lon="-8.46387"><time>2022-02-26T14:00:26.000Z</time></trkpt><trkpt lat="40.05654" lon="-8.46372"><ele>261</ele><time>2022-02-26T14:00:36.000Z</time></trkpt><trkpt lat="40.05657" lon="-8.46356"><time>2022-02-26T14:00:46.000Z</time></trkpt><trkpt lat="40.05661" lon="-8.46342"><ele>257</ele><time>2022-02-26T14:00:56.000Z</time></trkpt><trkpt lat="40.05662" lon="-8.46327"><time>2022-02-26T14:01:06.000Z</time></trkpt><trkpt lat="40.05667" lon="-8.46304"><ele>249</ele><time>2022-02-26T14:01:16.000Z</time></trkpt><trkpt lat="40.05666" lon="-8.46297"><time>2022-02-26T14:01:26.000Z</time></trkpt><trkpt lat="40.05664" lon="-8.46289"><time>2022-02-26T14:01:36.000Z</time></trkpt><trkpt lat="40.05664" lon="-8.46281"><time>2022-02-26T14:01:46.000Z</time></trkpt><trkpt lat="40.05663" lon="-8.46274"><ele>247</ele><time>2022-02-26T14:01:56.000Z</time></trkpt><trkpt lat="40.05661" lon="-8.46267"><time>2022-02-26T14:02:06.000Z</time></trkpt><trkpt lat="40.05657" lon="-8.46253"><time>2022-02-26T14:02:16.000Z</time></trkpt><trkpt lat="40.05657" lon="-8.46246"><ele>243</ele><time>2022-02-26T14:02:26.000Z</time></trkpt><trkpt lat="40.05659" lon="-8.4624"><time>2022-02-26T14:02:36.000Z</time></trkpt><trkpt lat="40.05662" lon="-8.46234"><time>2022-02-26T14:02:46.000Z</time></trkpt><trkpt lat="40.0567" lon="-8.46223"><ele>243</ele><time>2022-02-26T14:02:56.000Z</time></trkpt><trkpt lat="40.05675" lon="-8.46218"><time>2022-02-26T14:03:06.000Z</time></trkpt><trkpt lat="40.05681" lon="-8.46214"><time>2022-02-26T14:03:16.000Z</time></trkpt><trkpt lat="40.05692" lon="-8.46207"><ele>244</ele><time>2022-02-26T14:03:26.000Z</time></trkpt><trkpt lat="40.057" lon="-8.46203"><time>2022-02-26T14:03:36.000Z</time></trkpt><trkpt lat="40.05711" lon="-8.46199"><time>2022-02-26T14:03:46.000Z</time></trkpt><trkpt lat="40.05717" lon="-8.46197"><ele>243</ele><time>2022-02-26T14:03:56.000Z</time></trkpt><trkpt lat="40.05727" lon="-8.4619"><time>2022-02-26T14:04:06.000Z</time></trkpt><trkpt lat="40.05732" lon="-8.46187"><time>2022-02-26T14:04:16.000Z</time></trkpt><trkpt lat="40.05739" lon="-8.46176"><ele>242</ele><time>2022-02-26T14:04:26.000Z</time></trkpt><trkpt lat="40.05744" lon="-8.46172"><time>2022-02-26T14:04:36.000Z</time></trkpt><trkpt lat="40.05756" lon="-8.46166"><time>2022-02-26T14:04:46.000Z</time></trkpt><trkpt lat="40.05765" lon="-8.46156"><ele>238</ele><time>2022-02-26T14:00:59.000Z</time></trkpt><trkpt lat="40.0578" lon="-8.46145"><time>2022-02-26T14:01:09.000Z</time></trkpt><trkpt lat="40.05788" lon="-8.46135"><ele>232</ele><time>2022-02-26T14:01:14.000Z</time></trkpt><trkpt lat="40.05801" lon="-8.46118"><time>2022-02-26T14:01:24.000Z</time></trkpt><trkpt lat="40.05807" lon="-8.46106"><ele>228</ele><time>2022-02-26T14:01:29.000Z</time></trkpt><trkpt lat="40.05809" lon="-8.46099"><time>2022-02-26T14:01:39.000Z</time></trkpt><trkpt lat="40.05812" lon="-8.46092"><time>2022-02-26T14:01:49.000Z</time></trkpt><trkpt lat="40.05818" lon="-8.46093"><time>2022-02-26T14:01:59.000Z</time></trkpt><trkpt lat="40.05823" lon="-8.46094"><ele>225</ele><time>2022-02-26T14:01:47.000Z</time></trkpt><trkpt lat="40.05834" lon="-8.46094"><time>2022-02-26T14:01:57.000Z</time></trkpt><trkpt lat="40.05846" lon="-8.46091"><ele>225</ele><time>2022-02-26T14:02:07.000Z</time></trkpt><trkpt lat="40.05852" lon="-8.46092"><time>2022-02-26T14:02:17.000Z</time></trkpt><trkpt lat="40.05858" lon="-8.4609"><time>2022-02-26T14:02:27.000Z</time></trkpt><trkpt lat="40.05864" lon="-8.46087"><time>2022-02-26T14:02:37.000Z</time></trkpt><trkpt lat="40.05867" lon="-8.46082"><ele>216</ele><time>2022-02-26T14:02:47.000Z</time></trkpt><trkpt lat="40.05871" lon="-8.46075"><time>2022-02-26T14:02:57.000Z</time></trkpt><trkpt lat="40.05877" lon="-8.46061"><time>2022-02-26T14:03:07.000Z</time></trkpt><trkpt lat="40.05879" lon="-8.46054"><ele>213</ele><time>2022-02-26T14:03:17.000Z</time></trkpt><trkpt lat="40.0588" lon="-8.46047"><time>2022-02-26T14:03:27.000Z</time></trkpt><trkpt lat="40.05884" lon="-8.46041"><time>2022-02-26T14:03:37.000Z</time></trkpt><trkpt lat="40.0589" lon="-8.4604"><time>2022-02-26T14:03:47.000Z</time></trkpt><trkpt lat="40.05902" lon="-8.46039"><ele>207</ele><time>2022-02-26T14:03:57.000Z</time></trkpt><trkpt lat="40.05907" lon="-8.46037"><time>2022-02-26T14:04:07.000Z</time></trkpt><trkpt lat="40.05918" lon="-8.4603"><time>2022-02-26T14:04:17.000Z</time></trkpt><trkpt lat="40.05923" lon="-8.46026"><ele>206</ele><time>2022-02-26T14:04:27.000Z</time></trkpt><trkpt lat="40.05927" lon="-8.46021"><time>2022-02-26T14:04:37.000Z</time></trkpt><trkpt lat="40.05946" lon="-8.45992"><ele>202</ele><time>2022-02-26T14:03:24.000Z</time></trkpt><trkpt lat="40.05959" lon="-8.45965"><ele>200</ele><time>2022-02-26T14:03:34.000Z</time></trkpt><trkpt lat="40.05963" lon="-8.45959"><time>2022-02-26T14:03:44.000Z</time></trkpt><trkpt lat="40.05978" lon="-8.45945"><ele>195</ele><time>2022-02-26T14:03:54.000Z</time></trkpt><trkpt lat="40.0598" lon="-8.45939"><time>2022-02-26T14:04:04.000Z</time></trkpt><trkpt lat="40.05983" lon="-8.45922"><time>2022-02-26T14:04:14.000Z</time></trkpt><trkpt lat="40.05982" lon="-8.45914"><ele>192</ele><time>2022-02-26T14:04:24.000Z</time></trkpt><trkpt lat="40.05983" lon="-8.45907"><time>2022-02-26T14:04:34.000Z</time></trkpt><trkpt lat="40.05984" lon="-8.45893"><time>2022-02-26T14:04:44.000Z</time></trkpt><trkpt lat="40.05981" lon="-8.45886"><ele>185</ele><time>2022-02-26T14:04:54.000Z</time></trkpt><trkpt lat="40.05972" lon="-8.45876"><time>2022-02-26T14:05:04.000Z</time></trkpt><trkpt lat="40.05962" lon="-8.45866"><ele>186</ele><time>2022-02-26T14:05:14.000Z</time></trkpt><trkpt lat="40.05953" lon="-8.4586"><time>2022-02-26T14:05:24.000Z</time></trkpt><trkpt lat="40.05949" lon="-8.45857"><time>2022-02-26T14:05:34.000Z</time></trkpt><trkpt lat="40.05942" lon="-8.45854"><ele>188</ele><time>2022-02-26T14:05:44.000Z</time></trkpt><trkpt lat="40.05938" lon="-8.45851"><time>2022-02-26T14:05:54.000Z</time></trkpt><trkpt lat="40.05936" lon="-8.45845"><time>2022-02-26T14:06:04.000Z</time></trkpt><trkpt lat="40.05936" lon="-8.45831"><time>2022-02-26T14:06:14.000Z</time></trkpt><trkpt lat="40.05938" lon="-8.45824"><ele>188</ele><time>2022-02-26T14:06:24.000Z</time></trkpt><trkpt lat="40.05942" lon="-8.45812"><time>2022-02-26T14:06:34.000Z</time></trkpt><trkpt lat="40.05939" lon="-8.45806"><time>2022-02-26T14:06:44.000Z</time></trkpt><trkpt lat="40.05936" lon="-8.45801"><ele>189</ele><time>2022-02-26T14:06:54.000Z</time></trkpt><trkpt lat="40.05924" lon="-8.45794"><time>2022-02-26T14:07:04.000Z</time></trkpt><trkpt lat="40.05918" lon="-8.45792"><time>2022-02-26T14:07:14.000Z</time></trkpt><trkpt lat="40.05914" lon="-8.45789"><ele>187</ele><time>2022-02-26T14:07:24.000Z</time></trkpt><trkpt lat="40.05907" lon="-8.45776"><time>2022-02-26T14:07:34.000Z</time></trkpt><trkpt lat="40.05905" lon="-8.4577"><time>2022-02-26T14:07:44.000Z</time></trkpt><trkpt lat="40.05905" lon="-8.45755"><ele>186</ele><time>2022-02-26T14:07:54.000Z</time></trkpt><trkpt lat="40.05906" lon="-8.45748"><time>2022-02-26T14:08:04.000Z</time></trkpt><trkpt lat="40.05909" lon="-8.45742"><time>2022-02-26T14:08:14.000Z</time></trkpt><trkpt lat="40.05915" lon="-8.45701"><ele>183</ele><time>2022-02-26T14:07:00.000Z</time></trkpt><trkpt lat="40.05927" lon="-8.45655"><ele>177</ele><time>2022-02-26T14:07:10.000Z</time></trkpt><trkpt lat="40.05928" lon="-8.4564"><time>2022-02-26T14:07:20.000Z</time></trkpt><trkpt lat="40.05926" lon="-8.45634"><time>2022-02-26T14:07:30.000Z</time></trkpt><trkpt lat="40.05908" lon="-8.45628"><ele>171</ele><time>2022-02-26T14:07:40.000Z</time></trkpt><trkpt lat="40.05898" lon="-8.45618"><time>2022-02-26T14:07:50.000Z</time></trkpt><trkpt lat="40.05887" lon="-8.45594"><ele>169</ele><time>2022-02-26T14:08:00.000Z</time></trkpt><trkpt lat="40.0588" lon="-8.4558"><time>2022-02-26T14:08:10.000Z</time></trkpt><trkpt lat="40.05858" lon="-8.45573"><ele>170</ele><time>2022-02-26T14:08:20.000Z</time></trkpt><trkpt lat="40.05858" lon="-8.45572"><time>2022-02-26T14:08:30.000Z</time></trkpt><trkpt lat="40.05854" lon="-8.45568"><time>2022-02-26T14:08:40.000Z</time></trkpt><trkpt lat="40.05844" lon="-8.45562"><time>2022-02-26T14:08:50.000Z</time></trkpt><trkpt lat="40.05841" lon="-8.45561"><time>2022-02-26T14:09:00.000Z</time></trkpt><trkpt lat="40.05839" lon="-8.4556"><ele>170</ele><time>2022-02-26T14:09:10.000Z</time></trkpt><trkpt lat="40.05826" lon="-8.45549"><time>2022-02-26T14:09:20.000Z</time></trkpt><trkpt lat="40.05803" lon="-8.45543"><ele>170</ele><time>2022-11-28T23:56:19.000Z</time></trkpt><trkpt lat="40.05771" lon="-8.4552"><ele>170</ele><time>2022-11-28T23:56:29.000Z</time></trkpt><trkpt lat="40.05761" lon="-8.45514"><time>2022-11-28T23:56:39.000Z</time></trkpt><trkpt lat="40.05751" lon="-8.4551"><ele>172</ele><time>2022-11-28T23:56:49.000Z</time></trkpt><trkpt lat="40.05745" lon="-8.45509"><time>2022-11-28T23:56:59.000Z</time></trkpt><trkpt lat="40.05736" lon="-8.45505"><time>2022-11-28T23:57:09.000Z</time></trkpt><trkpt lat="40.05716" lon="-8.45494"><ele>174</ele><time>2022-11-28T23:57:19.000Z</time></trkpt><trkpt lat="40.05703" lon="-8.45491"><time>2022-11-28T23:57:29.000Z</time></trkpt><trkpt lat="40.05693" lon="-8.45481"><ele>174</ele><time>2022-11-28T23:57:39.000Z</time></trkpt><trkpt lat="40.05691" lon="-8.45475"><time>2022-11-28T23:57:49.000Z</time></trkpt><trkpt lat="40.0569" lon="-8.45471"><time>2022-11-28T23:57:59.000Z</time></trkpt><trkpt lat="40.05691" lon="-8.45466"><time>2022-11-28T23:58:09.000Z</time></trkpt><trkpt lat="40.05692" lon="-8.45464"><time>2022-11-28T23:58:19.000Z</time></trkpt><trkpt lat="40.057" lon="-8.45454"><ele>174</ele><time>2022-11-28T23:58:29.000Z</time></trkpt><trkpt lat="40.05705" lon="-8.45441"><time>2022-11-28T23:58:39.000Z</time></trkpt><trkpt lat="40.05706" lon="-8.45432"><time>2022-11-28T23:58:49.000Z</time></trkpt><trkpt lat="40.05709" lon="-8.45418"><ele>174</ele><time>2022-11-28T23:58:59.000Z</time></trkpt><trkpt lat="40.05709" lon="-8.45414"><time>2022-11-28T23:59:09.000Z</time></trkpt><trkpt lat="40.05708" lon="-8.45411"><time>2022-11-28T23:59:19.000Z</time></trkpt><trkpt lat="40.05706" lon="-8.45405"><time>2022-11-28T23:59:29.000Z</time></trkpt><trkpt lat="40.05692" lon="-8.45383"><ele>173</ele><time>2022-11-28T23:59:39.000Z</time></trkpt><trkpt lat="40.05687" lon="-8.45383"><time>2022-11-28T23:59:49.000Z</time></trkpt><trkpt lat="40.05685" lon="-8.45381"><time>2022-11-28T23:59:59.000Z</time></trkpt><trkpt lat="40.05684" lon="-8.45371"><time>2022-11-29T00:00:09.000Z</time></trkpt><trkpt lat="40.05681" lon="-8.45356"><ele>173</ele><time>2022-11-28T23:56:24.000Z</time></trkpt><trkpt lat="40.05679" lon="-8.45341"><time>2022-11-28T23:56:34.000Z</time></trkpt><trkpt lat="40.05683" lon="-8.45333"><time>2022-11-28T23:56:44.000Z</time></trkpt><trkpt lat="40.05692" lon="-8.45333"><ele>174</ele><time>2022-11-28T23:56:26.000Z</time></trkpt><trkpt lat="40.05702" lon="-8.45345"><time>2022-11-28T23:56:36.000Z</time></trkpt><trkpt lat="40.05714" lon="-8.45347"><ele>174</ele><time>2022-11-28T23:56:26.000Z</time></trkpt><trkpt lat="40.05719" lon="-8.45345"><time>2022-11-28T23:56:36.000Z</time></trkpt><trkpt lat="40.0572" lon="-8.4533"><time>2022-11-28T23:56:46.000Z</time></trkpt><trkpt lat="40.05719" lon="-8.45325"><ele>170</ele><time>2022-11-28T23:56:56.000Z</time></trkpt><trkpt lat="40.05718" lon="-8.45324"><time>2022-11-28T23:57:06.000Z</time></trkpt><trkpt lat="40.05711" lon="-8.45317"><time>2022-11-28T23:57:16.000Z</time></trkpt><trkpt lat="40.05707" lon="-8.45312"><time>2022-11-28T23:57:26.000Z</time></trkpt><trkpt lat="40.05702" lon="-8.45309"><ele>167</ele><time>2022-11-28T23:57:36.000Z</time></trkpt><trkpt lat="40.05701" lon="-8.45302"><time>2022-11-28T23:57:46.000Z</time></trkpt><trkpt lat="40.05709" lon="-8.45276"><ele>166</ele><time>2022-11-28T23:56:31.000Z</time></trkpt><trkpt lat="40.05712" lon="-8.4527"><time>2022-11-28T23:56:41.000Z</time></trkpt><trkpt lat="40.05716" lon="-8.45266"><time>2022-11-28T23:56:51.000Z</time></trkpt><trkpt lat="40.05719" lon="-8.4526"><time>2022-11-28T23:57:01.000Z</time></trkpt><trkpt lat="40.05725" lon="-8.45252"><ele>161</ele><time>2022-11-28T23:56:34.000Z</time></trkpt><trkpt lat="40.0574" lon="-8.45235"><time>2022-11-28T23:56:44.000Z</time></trkpt><trkpt lat="40.05749" lon="-8.45228"><ele>163</ele><time>2022-11-28T23:56:36.000Z</time></trkpt><trkpt lat="40.05756" lon="-8.45203"><time>2022-11-28T23:56:46.000Z</time></trkpt><trkpt lat="40.05759" lon="-8.45197"><ele>160</ele><time>2022-11-28T23:56:37.000Z</time></trkpt><trkpt lat="40.05765" lon="-8.45192"><time>2022-11-28T23:56:47.000Z</time></trkpt><trkpt lat="40.0578" lon="-8.45196"><ele>159</ele><time>2022-11-28T23:56:57.000Z</time></trkpt><trkpt lat="40.05784" lon="-8.45196"><time>2022-11-28T23:57:07.000Z</time></trkpt><trkpt lat="40.05787" lon="-8.45195"><time>2022-11-28T23:57:17.000Z</time></trkpt><trkpt lat="40.05788" lon="-8.45193"><time>2022-11-28T23:57:27.000Z</time></trkpt><trkpt lat="40.0579" lon="-8.45189"><time>2022-11-28T23:57:37.000Z</time></trkpt><trkpt lat="40.05795" lon="-8.45171"><ele>159</ele><time>2022-11-28T23:56:41.000Z</time></trkpt><trkpt lat="40.05807" lon="-8.45147"><ele>152</ele><time>2022-11-28T23:56:42.000Z</time></trkpt><trkpt lat="40.05807" lon="-8.45135"><time>2022-11-28T23:56:52.000Z</time></trkpt><trkpt lat="40.05807" lon="-8.45133"><time>2022-11-28T23:57:02.000Z</time></trkpt><trkpt lat="40.05804" lon="-8.45125"><time>2022-11-28T23:57:12.000Z</time></trkpt><trkpt lat="40.05802" lon="-8.45125"><time>2022-11-28T23:57:22.000Z</time></trkpt><trkpt lat="40.058" lon="-8.45117"><ele>151</ele><time>2022-11-28T23:57:32.000Z</time></trkpt><trkpt lat="40.05794" lon="-8.45102"><time>2022-11-28T23:57:42.000Z</time></trkpt><trkpt lat="40.05783" lon="-8.45082"><ele>149</ele><time>2022-11-28T23:57:52.000Z</time></trkpt><trkpt lat="40.05774" lon="-8.45071"><time>2022-11-28T23:58:02.000Z</time></trkpt><trkpt lat="40.05772" lon="-8.45064"><time>2022-11-28T23:58:12.000Z</time></trkpt><trkpt lat="40.05771" lon="-8.45056"><ele>148</ele><time>2022-11-28T23:58:22.000Z</time></trkpt><trkpt lat="40.05772" lon="-8.45032"><time>2022-11-28T23:58:32.000Z</time></trkpt><trkpt lat="40.05772" lon="-8.45018"><ele>148</ele><time>2022-11-28T23:58:42.000Z</time></trkpt><trkpt lat="40.05776" lon="-8.44997"><time>2022-11-28T23:58:52.000Z</time></trkpt><trkpt lat="40.0578" lon="-8.44984"><ele>151</ele><time>2022-11-28T23:59:02.000Z</time></trkpt><trkpt lat="40.05782" lon="-8.4497"><time>2022-11-28T23:59:12.000Z</time></trkpt><trkpt lat="40.05781" lon="-8.44947"><ele>154</ele><time>2022-11-28T23:59:22.000Z</time></trkpt><trkpt lat="40.05779" lon="-8.44941"><time>2022-11-28T23:59:32.000Z</time></trkpt><trkpt lat="40.05776" lon="-8.4492"><ele>155</ele><time>2022-11-28T23:59:42.000Z</time></trkpt><trkpt lat="40.05767" lon="-8.44893"><ele>157</ele><time>2022-11-28T23:59:52.000Z</time></trkpt><trkpt lat="40.05767" lon="-8.44886"><time>2022-11-29T00:00:02.000Z</time></trkpt><trkpt lat="40.05768" lon="-8.4487"><time>2022-11-29T00:00:12.000Z</time></trkpt><trkpt lat="40.05766" lon="-8.44855"><ele>158</ele><time>2022-11-29T00:00:22.000Z</time></trkpt><trkpt lat="40.05767" lon="-8.44841"><time>2022-11-29T00:00:32.000Z</time></trkpt><trkpt lat="40.05765" lon="-8.44835"><time>2022-11-29T00:00:42.000Z</time></trkpt><trkpt lat="40.05765" lon="-8.44813"><ele>161</ele><time>2022-02-26T14:15:23.000Z</time></trkpt><trkpt lat="40.05763" lon="-8.44796"><time>2022-02-26T14:15:33.000Z</time></trkpt><trkpt lat="40.05762" lon="-8.44787"><time>2022-02-26T14:15:43.000Z</time></trkpt><trkpt lat="40.05761" lon="-8.4478"><ele>164</ele><time>2022-02-26T14:15:41.000Z</time></trkpt><trkpt lat="40.05754" lon="-8.44759"><time>2022-02-26T14:15:51.000Z</time></trkpt><trkpt lat="40.05752" lon="-8.44752"><ele>168</ele><time>2022-02-26T14:15:57.000Z</time></trkpt><trkpt lat="40.05751" lon="-8.44744"><time>2022-02-26T14:16:07.000Z</time></trkpt><trkpt lat="40.0575" lon="-8.44737"><time>2022-02-26T14:16:17.000Z</time></trkpt><trkpt lat="40.05745" lon="-8.44722"><ele>168</ele><time>2022-02-26T14:16:13.000Z</time></trkpt><trkpt lat="40.05743" lon="-8.44709"><time>2022-02-26T14:16:23.000Z</time></trkpt><trkpt lat="40.05749" lon="-8.44704"><time>2022-02-26T14:16:33.000Z</time></trkpt><trkpt lat="40.05754" lon="-8.44702"><ele>168</ele><time>2022-02-26T14:16:29.000Z</time></trkpt><trkpt lat="40.05768" lon="-8.44698"><time>2022-02-26T14:16:39.000Z</time></trkpt><trkpt lat="40.0578" lon="-8.44692"><ele>165</ele><time>2022-02-26T14:16:41.000Z</time></trkpt><trkpt lat="40.05793" lon="-8.44689"><time>2022-02-26T14:16:51.000Z</time></trkpt><trkpt lat="40.05806" lon="-8.44687"><ele>164</ele><time>2022-02-26T14:16:53.000Z</time></trkpt><trkpt lat="40.05812" lon="-8.44687"><time>2022-02-26T14:17:03.000Z</time></trkpt><trkpt lat="40.05819" lon="-8.44689"><time>2022-02-26T14:17:13.000Z</time></trkpt><trkpt lat="40.05831" lon="-8.44695"><ele>163</ele><time>2022-02-26T14:17:05.000Z</time></trkpt><trkpt lat="40.05845" lon="-8.44701"><time>2022-02-26T14:17:15.000Z</time></trkpt><trkpt lat="40.05849" lon="-8.44702"><time>2022-02-26T14:17:25.000Z</time></trkpt><trkpt lat="40.05857" lon="-8.44701"><ele>160</ele><time>2022-02-26T14:17:16.000Z</time></trkpt><trkpt lat="40.05863" lon="-8.44699"><time>2022-02-26T14:17:26.000Z</time></trkpt><trkpt lat="40.0587" lon="-8.44695"><time>2022-02-26T14:17:36.000Z</time></trkpt><trkpt lat="40.05873" lon="-8.44691"><time>2022-02-26T14:17:46.000Z</time></trkpt><trkpt lat="40.05879" lon="-8.44684"><ele>160</ele><time>2022-02-26T14:17:27.000Z</time></trkpt><trkpt lat="40.0589" lon="-8.44664"><time>2022-02-26T14:17:37.000Z</time></trkpt><trkpt lat="40.05895" lon="-8.44662"><ele>159</ele><time>2022-02-26T14:17:39.000Z</time></trkpt><trkpt lat="40.059" lon="-8.44663"><time>2022-02-26T14:17:49.000Z</time></trkpt><trkpt lat="40.05904" lon="-8.44668"><time>2022-02-26T14:17:59.000Z</time></trkpt><trkpt lat="40.05913" lon="-8.44681"><ele>155</ele><time>2022-02-26T14:17:51.000Z</time></trkpt><trkpt lat="40.05916" lon="-8.44688"><time>2022-02-26T14:18:01.000Z</time></trkpt><trkpt lat="40.0592" lon="-8.44695"><time>2022-02-26T14:18:11.000Z</time></trkpt><trkpt lat="40.05925" lon="-8.44699"><time>2022-02-26T14:18:21.000Z</time></trkpt><trkpt lat="40.05931" lon="-8.447"><ele>154</ele><time>2022-02-26T14:18:03.000Z</time></trkpt><trkpt lat="40.05951" lon="-8.44695"><ele>152</ele><time>2022-02-26T14:18:12.000Z</time></trkpt><trkpt lat="40.05958" lon="-8.44694"><time>2022-02-26T14:18:22.000Z</time></trkpt><trkpt lat="40.05964" lon="-8.44694"><time>2022-02-26T14:18:32.000Z</time></trkpt><trkpt lat="40.05969" lon="-8.44695"><time>2022-02-26T14:18:42.000Z</time></trkpt><trkpt lat="40.05975" lon="-8.44694"><ele>152</ele><time>2022-02-26T14:18:25.000Z</time></trkpt><trkpt lat="40.05998" lon="-8.44689"><ele>154</ele><time>2022-02-26T14:18:35.000Z</time></trkpt><trkpt lat="40.0601" lon="-8.44684"><time>2022-02-26T14:18:45.000Z</time></trkpt><trkpt lat="40.06025" lon="-8.44671"><ele>156</ele><time>2022-02-26T14:18:55.000Z</time></trkpt><trkpt lat="40.06037" lon="-8.44656"><time>2022-02-26T14:19:05.000Z</time></trkpt><trkpt lat="40.0606" lon="-8.44633"><ele>160</ele><time>2022-02-26T14:19:20.000Z</time></trkpt><trkpt lat="40.06084" lon="-8.44601"><ele>161</ele><time>2022-02-26T14:19:45.000Z</time></trkpt><trkpt lat="40.06089" lon="-8.44597"><time>2022-02-26T14:19:55.000Z</time></trkpt><trkpt lat="40.061" lon="-8.44591"><time>2022-02-26T14:20:05.000Z</time></trkpt><trkpt lat="40.06106" lon="-8.44589"><ele>161</ele><time>2022-02-26T14:19:59.000Z</time></trkpt><trkpt lat="40.06132" lon="-8.44586"><ele>161</ele><time>2022-02-26T14:20:09.000Z</time></trkpt><trkpt lat="40.06145" lon="-8.44581"><time>2022-02-26T14:20:19.000Z</time></trkpt><trkpt lat="40.06151" lon="-8.44579"><time>2022-02-26T14:20:29.000Z</time></trkpt><trkpt lat="40.06165" lon="-8.4457"><ele>161</ele><time>2022-02-26T14:20:30.000Z</time></trkpt><trkpt lat="40.06184" lon="-8.44556"><ele>163</ele><time>2022-02-26T14:20:40.000Z</time></trkpt><trkpt lat="40.06193" lon="-8.44546"><time>2022-02-26T14:20:50.000Z</time></trkpt><trkpt lat="40.06204" lon="-8.44529"><ele>163</ele><time>2022-02-26T14:21:00.000Z</time></trkpt><trkpt lat="40.06207" lon="-8.4452"><time>2022-02-26T14:21:10.000Z</time></trkpt><trkpt lat="40.06209" lon="-8.44512"><time>2022-02-26T14:21:20.000Z</time></trkpt><trkpt lat="40.0621" lon="-8.44503"><time>2022-02-26T14:21:30.000Z</time></trkpt><trkpt lat="40.06212" lon="-8.44495"><ele>163</ele><time>2022-02-26T14:21:40.000Z</time></trkpt><trkpt lat="40.06216" lon="-8.44491"><time>2022-02-26T14:21:50.000Z</time></trkpt><trkpt lat="40.06221" lon="-8.44492"><time>2022-02-26T14:22:00.000Z</time></trkpt><trkpt lat="40.06233" lon="-8.44496"><ele>163</ele><time>2022-02-26T14:22:10.000Z</time></trkpt><trkpt lat="40.0624" lon="-8.44497"><time>2022-02-26T14:22:20.000Z</time></trkpt><trkpt lat="40.06245" lon="-8.44494"><time>2022-02-26T14:22:30.000Z</time></trkpt><trkpt lat="40.06248" lon="-8.44488"><time>2022-02-26T14:22:40.000Z</time></trkpt><trkpt lat="40.0625" lon="-8.44474"><ele>166</ele><time>2022-02-26T14:22:50.000Z</time></trkpt><trkpt lat="40.0625" lon="-8.44467"><time>2022-02-26T14:23:00.000Z</time></trkpt><trkpt lat="40.06252" lon="-8.44453"><time>2022-02-26T14:23:10.000Z</time></trkpt><trkpt lat="40.06255" lon="-8.44446"><ele>166</ele><time>2022-02-26T14:23:20.000Z</time></trkpt><trkpt lat="40.06255" lon="-8.44437"><time>2022-02-26T14:23:30.000Z</time></trkpt><trkpt lat="40.06257" lon="-8.44432"><time>2022-02-26T14:23:40.000Z</time></trkpt><trkpt lat="40.06261" lon="-8.44435"><time>2022-02-26T14:23:50.000Z</time></trkpt><trkpt lat="40.06264" lon="-8.44441"><ele>166</ele><time>2022-02-26T14:24:00.000Z</time></trkpt><trkpt lat="40.06268" lon="-8.44448"><time>2022-02-26T14:24:10.000Z</time></trkpt><trkpt lat="40.06273" lon="-8.44454"><time>2022-02-26T14:24:20.000Z</time></trkpt><trkpt lat="40.06282" lon="-8.44458"><ele>167</ele><time>2022-02-26T14:24:30.000Z</time></trkpt><trkpt lat="40.06292" lon="-8.44466"><time>2022-02-26T14:24:40.000Z</time></trkpt><trkpt lat="40.06295" lon="-8.4447"><time>2022-02-26T14:24:50.000Z</time></trkpt><trkpt lat="40.06307" lon="-8.44489"><ele>166</ele><time>2022-02-26T14:25:00.000Z</time></trkpt><trkpt lat="40.06309" lon="-8.44496"><time>2022-02-26T14:25:10.000Z</time></trkpt><trkpt lat="40.0631" lon="-8.44502"><time>2022-02-26T14:25:20.000Z</time></trkpt><trkpt lat="40.06316" lon="-8.44521"><ele>165</ele><time>2022-02-26T14:25:30.000Z</time></trkpt><trkpt lat="40.06319" lon="-8.44527"><time>2022-02-26T14:25:40.000Z</time></trkpt><trkpt lat="40.06352" lon="-8.44567"><ele>165</ele><time>2022-02-26T14:25:50.000Z</time></trkpt><trkpt lat="40.06361" lon="-8.44576"><time>2022-02-26T14:26:00.000Z</time></trkpt><trkpt lat="40.06372" lon="-8.44584"><ele>165</ele><time>2022-02-26T14:26:10.000Z</time></trkpt><trkpt lat="40.06378" lon="-8.4459"><time>2022-02-26T14:26:20.000Z</time></trkpt><trkpt lat="40.06387" lon="-8.44599"><time>2022-02-26T14:26:30.000Z</time></trkpt><trkpt lat="40.06393" lon="-8.44605"><ele>164</ele><time>2022-02-26T14:26:40.000Z</time></trkpt><trkpt lat="40.06396" lon="-8.44609"><time>2022-02-26T14:26:50.000Z</time></trkpt><trkpt lat="40.06403" lon="-8.44616"><time>2022-02-26T14:27:00.000Z</time></trkpt><trkpt lat="40.06407" lon="-8.4462"><time>2022-02-26T14:27:10.000Z</time></trkpt><trkpt lat="40.06422" lon="-8.44628"><ele>160</ele><time>2022-02-26T14:24:34.000Z</time></trkpt><trkpt lat="40.06428" lon="-8.44632"><time>2022-02-26T14:24:44.000Z</time></trkpt><trkpt lat="40.06438" lon="-8.44642"><time>2022-02-26T14:24:54.000Z</time></trkpt><trkpt lat="40.06443" lon="-8.44648"><ele>160</ele><time>2022-02-26T14:24:45.000Z</time></trkpt><trkpt lat="40.06453" lon="-8.44669"><time>2022-02-26T14:24:55.000Z</time></trkpt><trkpt lat="40.06458" lon="-8.44675"><ele>159</ele><time>2022-02-26T14:24:57.000Z</time></trkpt><trkpt lat="40.06465" lon="-8.44688"><time>2022-02-26T14:25:07.000Z</time></trkpt><trkpt lat="40.06474" lon="-8.44703"><ele>156</ele><time>2022-02-26T14:25:08.000Z</time></trkpt><trkpt lat="40.06492" lon="-8.44724"><ele>154</ele><time>2022-02-26T14:25:18.000Z</time></trkpt><trkpt lat="40.06494" lon="-8.44731"><time>2022-02-26T14:25:28.000Z</time></trkpt><trkpt lat="40.06496" lon="-8.4474"><time>2022-02-26T14:25:38.000Z</time></trkpt><trkpt lat="40.06506" lon="-8.44751"><ele>153</ele><time>2022-02-26T14:25:32.000Z</time></trkpt><trkpt lat="40.06521" lon="-8.44761"><time>2022-02-26T14:25:42.000Z</time></trkpt><trkpt lat="40.06531" lon="-8.44771"><ele>153</ele><time>2022-02-26T14:25:52.000Z</time></trkpt><trkpt lat="40.06532" lon="-8.44778"><time>2022-02-26T14:26:02.000Z</time></trkpt><trkpt lat="40.06532" lon="-8.44786"><time>2022-02-26T14:26:12.000Z</time></trkpt><trkpt lat="40.06533" lon="-8.44794"><time>2022-02-26T14:26:22.000Z</time></trkpt><trkpt lat="40.06534" lon="-8.44803"><ele>154</ele><time>2022-02-26T14:26:32.000Z</time></trkpt><trkpt lat="40.06538" lon="-8.44811"><time>2022-02-26T14:26:42.000Z</time></trkpt><trkpt lat="40.06543" lon="-8.44817"><time>2022-02-26T14:26:52.000Z</time></trkpt><trkpt lat="40.06554" lon="-8.44828"><ele>156</ele><time>2022-02-26T14:26:10.000Z</time></trkpt><trkpt lat="40.06565" lon="-8.44834"><time>2022-02-26T14:26:20.000Z</time></trkpt><trkpt lat="40.06576" lon="-8.44839"><ele>154</ele><time>2022-02-26T14:26:23.000Z</time></trkpt><trkpt lat="40.06584" lon="-8.44844"><time>2022-02-26T14:26:33.000Z</time></trkpt><trkpt lat="40.06589" lon="-8.44848"><time>2022-02-26T14:26:43.000Z</time></trkpt><trkpt lat="40.06592" lon="-8.44855"><time>2022-02-26T14:26:53.000Z</time></trkpt><trkpt lat="40.06593" lon="-8.44861"><ele>152</ele><time>2022-02-26T14:26:37.000Z</time></trkpt><trkpt lat="40.06595" lon="-8.44887"><time>2022-02-26T14:26:47.000Z</time></trkpt><trkpt lat="40.06597" lon="-8.44895"><ele>150</ele><time>2022-02-26T14:26:49.000Z</time></trkpt><trkpt lat="40.06601" lon="-8.44902"><time>2022-02-26T14:26:59.000Z</time></trkpt><trkpt lat="40.06605" lon="-8.44906"><time>2022-02-26T14:27:09.000Z</time></trkpt><trkpt lat="40.06611" lon="-8.44908"><time>2022-02-26T14:27:19.000Z</time></trkpt><trkpt lat="40.06617" lon="-8.44909"><ele>149</ele><time>2022-02-26T14:27:03.000Z</time></trkpt><trkpt lat="40.06622" lon="-8.4491"><time>2022-02-26T14:27:13.000Z</time></trkpt><trkpt lat="40.06625" lon="-8.44916"><time>2022-02-26T14:27:23.000Z</time></trkpt><trkpt lat="40.06622" lon="-8.44932"><ele>147</ele><time>2022-02-26T14:27:22.000Z</time></trkpt><trkpt lat="40.06607" lon="-8.44991"><ele>145</ele><time>2022-02-26T14:27:32.000Z</time></trkpt><trkpt lat="40.06605" lon="-8.45"><time>2022-02-26T14:27:42.000Z</time></trkpt><trkpt lat="40.06604" lon="-8.45009"><time>2022-02-26T14:27:52.000Z</time></trkpt><trkpt lat="40.06606" lon="-8.45016"><time>2022-02-26T14:28:02.000Z</time></trkpt><trkpt lat="40.06611" lon="-8.45022"><ele>145</ele><time>2022-02-26T14:28:12.000Z</time></trkpt><trkpt lat="40.06617" lon="-8.45025"><time>2022-02-26T14:28:22.000Z</time></trkpt><trkpt lat="40.06635" lon="-8.45034"><ele>145</ele><time>2022-02-26T14:28:32.000Z</time></trkpt><trkpt lat="40.06654" lon="-8.45041"><time>2022-02-26T14:28:42.000Z</time></trkpt><trkpt lat="40.06694" lon="-8.45055"><ele>144</ele><time>2022-02-26T14:28:34.000Z</time></trkpt><trkpt lat="40.06716" lon="-8.45065"><ele>143</ele><time>2022-02-26T14:28:44.000Z</time></trkpt><trkpt lat="40.06727" lon="-8.45072"><time>2022-02-26T14:28:54.000Z</time></trkpt><trkpt lat="40.06758" lon="-8.45097"><ele>143</ele><time>2022-02-26T14:29:13.000Z</time></trkpt><trkpt lat="40.06769" lon="-8.45107"><time>2022-02-26T14:29:23.000Z</time></trkpt><trkpt lat="40.06774" lon="-8.4511"><time>2022-02-26T14:29:33.000Z</time></trkpt><trkpt lat="40.06778" lon="-8.45108"><ele>143</ele><time>2022-02-26T14:29:25.000Z</time></trkpt><trkpt lat="40.06783" lon="-8.45082"><time>2022-02-26T14:29:35.000Z</time></trkpt><trkpt lat="40.06784" lon="-8.45073"><ele>143</ele><time>2022-02-26T14:29:38.000Z</time></trkpt><trkpt lat="40.06784" lon="-8.45058"><time>2022-02-26T14:29:48.000Z</time></trkpt><trkpt lat="40.06784" lon="-8.4505"><time>2022-02-26T14:29:58.000Z</time></trkpt><trkpt lat="40.06785" lon="-8.45043"><ele>143</ele><time>2022-02-26T14:29:50.000Z</time></trkpt><trkpt lat="40.06788" lon="-8.45039"><time>2022-02-26T14:30:00.000Z</time></trkpt><trkpt lat="40.06795" lon="-8.45038"><time>2022-02-26T14:30:10.000Z</time></trkpt><trkpt lat="40.06806" lon="-8.45038"><ele>143</ele><time>2022-02-26T14:30:03.000Z</time></trkpt><trkpt lat="40.06824" lon="-8.45033"><time>2022-02-26T14:30:13.000Z</time></trkpt><trkpt lat="40.06836" lon="-8.45031"><ele>143</ele><time>2022-02-26T14:30:20.000Z</time></trkpt><trkpt lat="40.06859" lon="-8.4503"><ele>141</ele><time>2022-02-26T14:30:30.000Z</time></trkpt><trkpt lat="40.06865" lon="-8.4503"><time>2022-02-26T14:30:40.000Z</time></trkpt><trkpt lat="40.06877" lon="-8.45033"><time>2022-02-26T14:30:50.000Z</time></trkpt><trkpt lat="40.06883" lon="-8.45033"><ele>141</ele><time>2022-02-26T14:31:00.000Z</time></trkpt><trkpt lat="40.06893" lon="-8.45032"><time>2022-02-26T14:31:10.000Z</time></trkpt><trkpt lat="40.06904" lon="-8.45029"><ele>141</ele><time>2022-02-26T14:31:20.000Z</time></trkpt><trkpt lat="40.06915" lon="-8.45025"><time>2022-02-26T14:31:30.000Z</time></trkpt><trkpt lat="40.06939" lon="-8.45022"><ele>144</ele><time>2022-02-26T14:31:40.000Z</time></trkpt><trkpt lat="40.06944" lon="-8.45023"><time>2022-02-26T14:31:50.000Z</time></trkpt><trkpt lat="40.06949" lon="-8.45022"><time>2022-02-26T14:32:00.000Z</time></trkpt><trkpt lat="40.0696" lon="-8.4502"><ele>149</ele><time>2022-02-26T14:32:10.000Z</time></trkpt><trkpt lat="40.06972" lon="-8.45021"><time>2022-02-26T14:32:20.000Z</time></trkpt><trkpt lat="40.06978" lon="-8.45022"><time>2022-02-26T14:32:30.000Z</time></trkpt><trkpt lat="40.06995" lon="-8.4502"><ele>153</ele><time>2022-02-26T14:32:10.000Z</time></trkpt><trkpt lat="40.07017" lon="-8.45022"><ele>153</ele><time>2022-02-26T14:32:27.000Z</time></trkpt><trkpt lat="40.07061" lon="-8.45023"><ele>153</ele><time>2022-02-26T14:32:50.000Z</time></trkpt><trkpt lat="40.0709" lon="-8.45017"><ele>154</ele><time>2022-02-26T14:33:04.000Z</time></trkpt><trkpt lat="40.07103" lon="-8.45016"><time>2022-02-26T14:33:14.000Z</time></trkpt><trkpt lat="40.07117" lon="-8.45017"><ele>154</ele><time>2022-02-26T14:33:16.000Z</time></trkpt><trkpt lat="40.0714" lon="-8.45025"><ele>154</ele><time>2022-02-26T14:33:26.000Z</time></trkpt><trkpt lat="40.07146" lon="-8.45027"><time>2022-02-26T14:33:36.000Z</time></trkpt><trkpt lat="40.07153" lon="-8.45027"><time>2022-02-26T14:33:46.000Z</time></trkpt><trkpt lat="40.07159" lon="-8.45026"><time>2022-02-26T14:33:56.000Z</time></trkpt><trkpt lat="40.0719" lon="-8.45018"><ele>153</ele><time>2022-02-26T14:33:52.000Z</time></trkpt><trkpt lat="40.07204" lon="-8.45017"><time>2022-02-26T14:34:02.000Z</time></trkpt><trkpt lat="40.07214" lon="-8.45017"><ele>148</ele><time>2022-02-26T14:34:03.000Z</time></trkpt><trkpt lat="40.07231" lon="-8.45023"><time>2022-02-26T14:34:13.000Z</time></trkpt><trkpt lat="40.07243" lon="-8.45026"><ele>148</ele><time>2022-02-26T14:34:23.000Z</time></trkpt><trkpt lat="40.07249" lon="-8.45028"><time>2022-02-26T14:34:33.000Z</time></trkpt><trkpt lat="40.07259" lon="-8.4503"><time>2022-02-26T14:34:43.000Z</time></trkpt><trkpt lat="40.07272" lon="-8.45029"><ele>149</ele><time>2022-02-26T14:34:33.000Z</time></trkpt><trkpt lat="40.07293" lon="-8.45024"><ele>149</ele><time>2022-02-26T14:34:48.000Z</time></trkpt><trkpt lat="40.07309" lon="-8.45024"><time>2022-02-26T14:34:58.000Z</time></trkpt><trkpt lat="40.0732" lon="-8.45022"><ele>150</ele><time>2022-02-26T14:35:10.000Z</time></trkpt><trkpt lat="40.07326" lon="-8.45024"><time>2022-02-26T14:35:20.000Z</time></trkpt><trkpt lat="40.07331" lon="-8.45026"><time>2022-02-26T14:35:30.000Z</time></trkpt><trkpt lat="40.07341" lon="-8.45033"><ele>151</ele><time>2022-02-26T14:35:29.000Z</time></trkpt><trkpt lat="40.0735" lon="-8.45036"><time>2022-02-26T14:35:39.000Z</time></trkpt><trkpt lat="40.07354" lon="-8.4504"><time>2022-02-26T14:35:49.000Z</time></trkpt><trkpt lat="40.07357" lon="-8.45054"><ele>156</ele><time>2022-02-26T14:37:56.000Z</time></trkpt><trkpt lat="40.07361" lon="-8.45082"><ele>156</ele><time>2022-02-26T14:38:16.000Z</time></trkpt><trkpt lat="40.07367" lon="-8.45109"><ele>156</ele><time>2022-02-26T14:38:32.000Z</time></trkpt><trkpt lat="40.07368" lon="-8.45116"><time>2022-02-26T14:38:42.000Z</time></trkpt><trkpt lat="40.07373" lon="-8.4513"><time>2022-02-26T14:38:52.000Z</time></trkpt><trkpt lat="40.07377" lon="-8.45136"><ele>156</ele><time>2022-02-26T14:38:50.000Z</time></trkpt><trkpt lat="40.07393" lon="-8.45156"><ele>157</ele><time>2022-02-26T14:39:00.000Z</time></trkpt><trkpt lat="40.07397" lon="-8.45162"><time>2022-02-26T14:39:10.000Z</time></trkpt><trkpt lat="40.07402" lon="-8.45174"><time>2022-02-26T14:39:20.000Z</time></trkpt><trkpt lat="40.07418" lon="-8.45228"><ele>157</ele><time>2022-02-26T14:39:53.000Z</time></trkpt><trkpt lat="40.07421" lon="-8.45243"><time>2022-02-26T14:40:03.000Z</time></trkpt><trkpt lat="40.07423" lon="-8.45258"><ele>157</ele><time>2022-02-26T14:40:13.000Z</time></trkpt><trkpt lat="40.07423" lon="-8.45266"><time>2022-02-26T14:40:23.000Z</time></trkpt><trkpt lat="40.07421" lon="-8.45272"><time>2022-02-26T14:40:33.000Z</time></trkpt><trkpt lat="40.07418" lon="-8.45279"><time>2022-02-26T14:40:43.000Z</time></trkpt><trkpt lat="40.0741" lon="-8.45293"><ele>159</ele><time>2022-02-26T14:40:29.000Z</time></trkpt><trkpt lat="40.07401" lon="-8.45306"><time>2022-02-26T14:40:39.000Z</time></trkpt><trkpt lat="40.07391" lon="-8.45327"><ele>159</ele><time>2022-02-26T14:40:44.000Z</time></trkpt><trkpt lat="40.07386" lon="-8.45351"><time>2022-02-26T14:40:54.000Z</time></trkpt><trkpt lat="40.07384" lon="-8.45367"><ele>155</ele><time>2022-02-26T14:41:04.000Z</time></trkpt><trkpt lat="40.07383" lon="-8.45375"><time>2022-02-26T14:41:14.000Z</time></trkpt><trkpt lat="40.07384" lon="-8.45382"><time>2022-02-26T14:41:24.000Z</time></trkpt><trkpt lat="40.07391" lon="-8.45406"><ele>154</ele><time>2022-02-26T14:41:14.000Z</time></trkpt><trkpt lat="40.07397" lon="-8.45439"><ele>154</ele><time>2022-02-26T14:41:24.000Z</time></trkpt><trkpt lat="40.074" lon="-8.45452"><time>2022-02-26T14:41:34.000Z</time></trkpt><trkpt lat="40.07406" lon="-8.45464"><ele>154</ele><time>2022-02-26T14:41:44.000Z</time></trkpt><trkpt lat="40.0741" lon="-8.45469"><time>2022-02-26T14:41:54.000Z</time></trkpt><trkpt lat="40.07415" lon="-8.45473"><time>2022-02-26T14:42:04.000Z</time></trkpt><trkpt lat="40.0742" lon="-8.45475"><time>2022-02-26T14:42:14.000Z</time></trkpt><trkpt lat="40.07425" lon="-8.45478"><ele>154</ele><time>2022-02-26T14:42:24.000Z</time></trkpt><trkpt lat="40.07429" lon="-8.45477"><time>2022-02-26T14:42:34.000Z</time></trkpt><trkpt lat="40.07435" lon="-8.45475"><time>2022-02-26T14:42:44.000Z</time></trkpt><trkpt lat="40.07458" lon="-8.45474"><ele>157</ele><time>2022-02-26T14:42:54.000Z</time></trkpt><trkpt lat="40.07469" lon="-8.45475"><time>2022-02-26T14:43:04.000Z</time></trkpt><trkpt lat="40.0749" lon="-8.45481"><ele>160</ele><time>2022-02-26T14:43:01.000Z</time></trkpt><trkpt lat="40.07501" lon="-8.45484"><time>2022-02-26T14:43:11.000Z</time></trkpt><trkpt lat="40.07511" lon="-8.45489"><ele>163</ele><time>2022-02-26T14:43:23.000Z</time></trkpt><trkpt lat="40.07526" lon="-8.45499"><time>2022-02-26T14:43:33.000Z</time></trkpt><trkpt lat="40.07542" lon="-8.45504"><ele>171</ele><time>2022-02-26T14:43:57.000Z</time></trkpt><trkpt lat="40.07552" lon="-8.45509"><time>2022-02-26T14:44:07.000Z</time></trkpt><trkpt lat="40.07557" lon="-8.45509"><time>2022-02-26T14:44:17.000Z</time></trkpt><trkpt lat="40.07563" lon="-8.45511"><ele>174</ele><time>2022-02-26T14:44:21.000Z</time></trkpt><trkpt lat="40.07578" lon="-8.45515"><time>2022-02-26T14:44:31.000Z</time></trkpt><trkpt lat="40.07587" lon="-8.45523"><ele>182</ele><time>2022-02-26T14:44:41.000Z</time></trkpt><trkpt lat="40.07592" lon="-8.45525"><time>2022-02-26T14:44:51.000Z</time></trkpt><trkpt lat="40.07603" lon="-8.45523"><time>2022-02-26T14:45:01.000Z</time></trkpt><trkpt lat="40.07617" lon="-8.45514"><ele>191</ele><time>2022-02-26T14:45:35.000Z</time></trkpt><trkpt lat="40.07628" lon="-8.45497"><time>2022-02-26T14:45:45.000Z</time></trkpt><trkpt lat="40.07634" lon="-8.45485"><ele>196</ele><time>2022-02-26T14:46:03.000Z</time></trkpt><trkpt lat="40.07637" lon="-8.4548"><time>2022-02-26T14:46:13.000Z</time></trkpt><trkpt lat="40.0764" lon="-8.45475"><time>2022-02-26T14:46:23.000Z</time></trkpt><trkpt lat="40.07644" lon="-8.4547"><time>2022-02-26T14:46:33.000Z</time></trkpt><trkpt lat="40.0765" lon="-8.45468"><ele>196</ele><time>2022-02-26T14:46:26.000Z</time></trkpt><trkpt lat="40.07661" lon="-8.45468"><time>2022-02-26T14:46:36.000Z</time></trkpt><trkpt lat="40.07665" lon="-8.4547"><time>2022-02-26T14:46:46.000Z</time></trkpt><trkpt lat="40.07667" lon="-8.45476"><ele>197</ele><time>2022-02-26T14:46:56.000Z</time></trkpt><trkpt lat="40.07667" lon="-8.45491"><time>2022-02-26T14:47:06.000Z</time></trkpt><trkpt lat="40.07668" lon="-8.45498"><time>2022-02-26T14:47:16.000Z</time></trkpt><trkpt lat="40.07669" lon="-8.45504"><ele>199</ele><time>2022-02-26T14:47:26.000Z</time></trkpt><trkpt lat="40.07669" lon="-8.45512"><time>2022-02-26T14:47:36.000Z</time></trkpt><trkpt lat="40.0767" lon="-8.45526"><time>2022-02-26T14:47:46.000Z</time></trkpt><trkpt lat="40.07671" lon="-8.45532"><ele>199</ele><time>2022-02-26T14:47:56.000Z</time></trkpt><trkpt lat="40.07672" lon="-8.45547"><time>2022-02-26T14:48:06.000Z</time></trkpt><trkpt lat="40.07679" lon="-8.45576"><ele>198</ele><time>2022-02-26T14:48:16.000Z</time></trkpt><trkpt lat="40.07681" lon="-8.45591"><time>2022-02-26T14:48:26.000Z</time></trkpt><trkpt lat="40.07687" lon="-8.4561"><ele>200</ele><time>2022-02-26T14:48:36.000Z</time></trkpt><trkpt lat="40.07691" lon="-8.45614"><time>2022-02-26T14:48:46.000Z</time></trkpt><trkpt lat="40.07697" lon="-8.45625"><time>2022-02-26T14:48:56.000Z</time></trkpt><trkpt lat="40.07705" lon="-8.45637"><ele>203</ele><time>2022-02-26T14:49:06.000Z</time></trkpt><trkpt lat="40.0771" lon="-8.45641"><time>2022-02-26T14:49:16.000Z</time></trkpt><trkpt lat="40.07722" lon="-8.45664"><ele>219</ele><time>2022-02-26T14:49:26.000Z</time></trkpt><trkpt lat="40.07727" lon="-8.45667"><time>2022-02-26T14:49:36.000Z</time></trkpt><trkpt lat="40.07743" lon="-8.45686"><ele>220</ele><time>2022-02-26T14:49:46.000Z</time></trkpt><trkpt lat="40.07757" lon="-8.45695"><time>2022-02-26T14:49:56.000Z</time></trkpt><trkpt lat="40.07766" lon="-8.45703"><ele>222</ele><time>2022-02-26T14:50:06.000Z</time></trkpt><trkpt lat="40.07782" lon="-8.45712"><time>2022-02-26T14:50:16.000Z</time></trkpt><trkpt lat="40.07803" lon="-8.45734"><ele>241</ele><time>2022-02-26T14:51:37.000Z</time></trkpt><trkpt lat="40.07807" lon="-8.45737"><time>2022-02-26T14:51:47.000Z</time></trkpt><trkpt lat="40.07817" lon="-8.45745"><time>2022-02-26T14:51:57.000Z</time></trkpt><trkpt lat="40.07821" lon="-8.4575"><ele>244</ele><time>2022-02-26T14:52:02.000Z</time></trkpt><trkpt lat="40.07832" lon="-8.45782"><ele>246</ele><time>2022-02-26T14:52:12.000Z</time></trkpt><trkpt lat="40.07835" lon="-8.45802"><time>2022-02-26T14:52:22.000Z</time></trkpt><trkpt lat="40.07836" lon="-8.45809"><ele>248</ele><time>2022-02-26T14:52:32.000Z</time></trkpt><trkpt lat="40.0784" lon="-8.45821"><time>2022-02-26T14:52:42.000Z</time></trkpt><trkpt lat="40.07842" lon="-8.45828"><time>2022-02-26T14:52:52.000Z</time></trkpt><trkpt lat="40.07841" lon="-8.45842"><ele>260</ele><time>2022-02-26T14:53:02.000Z</time></trkpt><trkpt lat="40.07843" lon="-8.45856"><time>2022-02-26T14:53:12.000Z</time></trkpt><trkpt lat="40.07848" lon="-8.45875"><ele>265</ele><time>2022-02-26T14:53:22.000Z</time></trkpt><trkpt lat="40.07849" lon="-8.45882"><time>2022-02-26T14:53:32.000Z</time></trkpt><trkpt lat="40.07851" lon="-8.45889"><time>2022-02-26T14:53:42.000Z</time></trkpt><trkpt lat="40.07853" lon="-8.45896"><time>2022-02-26T14:53:52.000Z</time></trkpt><trkpt lat="40.07862" lon="-8.45919"><ele>267</ele><time>2022-02-26T14:55:01.000Z</time></trkpt><trkpt lat="40.07867" lon="-8.45939"><time>2022-02-26T14:55:11.000Z</time></trkpt><trkpt lat="40.07867" lon="-8.45946"><ele>278</ele><time>2022-02-26T14:55:33.000Z</time></trkpt><trkpt lat="40.07869" lon="-8.45961"><time>2022-02-26T14:55:43.000Z</time></trkpt><trkpt lat="40.07871" lon="-8.45987"><ele>291</ele><time>2022-02-26T14:56:20.000Z</time></trkpt><trkpt lat="40.07875" lon="-8.46001"><time>2022-02-26T14:56:30.000Z</time></trkpt><trkpt lat="40.07878" lon="-8.46021"><ele>296</ele><time>2022-02-26T14:56:53.000Z</time></trkpt><trkpt lat="40.07883" lon="-8.46033"><time>2022-02-26T14:57:03.000Z</time></trkpt><trkpt lat="40.07885" lon="-8.4604"><time>2022-02-26T14:57:13.000Z</time></trkpt><trkpt lat="40.07887" lon="-8.46046"><ele>299</ele><time>2022-02-26T14:57:22.000Z</time></trkpt><trkpt lat="40.07891" lon="-8.46081"><ele>309</ele><time>2022-02-26T14:57:32.000Z</time></trkpt><trkpt lat="40.07895" lon="-8.46093"><time>2022-02-26T14:57:42.000Z</time></trkpt><trkpt lat="40.07896" lon="-8.461"><time>2022-02-26T14:57:52.000Z</time></trkpt><trkpt lat="40.07902" lon="-8.4612"><ele>312</ele><time>2022-02-26T14:58:02.000Z</time></trkpt><trkpt lat="40.07904" lon="-8.46134"><time>2022-02-26T14:58:12.000Z</time></trkpt><trkpt lat="40.07912" lon="-8.46167"><ele>312</ele><time>2022-02-26T14:59:12.000Z</time></trkpt><trkpt lat="40.07911" lon="-8.46174"><time>2022-02-26T14:59:22.000Z</time></trkpt><trkpt lat="40.07909" lon="-8.4618"><time>2022-02-26T14:59:32.000Z</time></trkpt><trkpt lat="40.07907" lon="-8.46187"><time>2022-02-26T14:59:42.000Z</time></trkpt><trkpt lat="40.07903" lon="-8.46192"><ele>316</ele><time>2022-02-26T14:59:38.000Z</time></trkpt><trkpt lat="40.07894" lon="-8.462"><time>2022-02-26T14:59:48.000Z</time></trkpt><trkpt lat="40.07891" lon="-8.46205"><time>2022-02-26T14:59:58.000Z</time></trkpt><trkpt lat="40.07885" lon="-8.46217"><ele>316</ele><time>2022-02-26T15:00:11.000Z</time></trkpt><trkpt lat="40.07878" lon="-8.46237"><time>2022-02-26T15:00:21.000Z</time></trkpt><trkpt lat="40.07876" lon="-8.46243"><ele>316</ele><time>2022-02-26T15:00:31.000Z</time></trkpt><trkpt lat="40.07872" lon="-8.46251"><time>2022-02-26T15:00:41.000Z</time></trkpt><trkpt lat="40.07865" lon="-8.46262"><time>2022-02-26T15:00:51.000Z</time></trkpt><trkpt lat="40.07853" lon="-8.46278"><ele>317</ele><time>2022-02-26T15:00:58.000Z</time></trkpt><trkpt lat="40.0785" lon="-8.46284"><time>2022-02-26T15:01:08.000Z</time></trkpt><trkpt lat="40.07848" lon="-8.4629"><time>2022-02-26T15:01:18.000Z</time></trkpt><trkpt lat="40.07846" lon="-8.46298"><time>2022-02-26T15:01:28.000Z</time></trkpt><trkpt lat="40.07846" lon="-8.46306"><ele>317</ele><time>2022-02-26T15:01:15.000Z</time></trkpt><trkpt lat="40.07851" lon="-8.4635"><ele>316</ele><time>2022-02-26T15:01:25.000Z</time></trkpt><trkpt lat="40.07851" lon="-8.46357"><time>2022-02-26T15:01:35.000Z</time></trkpt><trkpt lat="40.07853" lon="-8.46379"><ele>316</ele><time>2022-02-26T15:01:45.000Z</time></trkpt><trkpt lat="40.07856" lon="-8.46392"><time>2022-02-26T15:01:55.000Z</time></trkpt><trkpt lat="40.07857" lon="-8.46399"><time>2022-02-26T15:02:05.000Z</time></trkpt><trkpt lat="40.07858" lon="-8.46414"><ele>312</ele><time>2022-02-26T15:02:15.000Z</time></trkpt><trkpt lat="40.07855" lon="-8.46427"><time>2022-02-26T15:02:25.000Z</time></trkpt><trkpt lat="40.07853" lon="-8.46435"><time>2022-02-26T15:02:35.000Z</time></trkpt><trkpt lat="40.07844" lon="-8.46484"><ele>308</ele><time>2022-02-26T15:02:37.000Z</time></trkpt><trkpt lat="40.07844" lon="-8.46492"><time>2022-02-26T15:02:47.000Z</time></trkpt><trkpt lat="40.07844" lon="-8.46514"><ele>307</ele><time>2022-02-26T15:02:49.000Z</time></trkpt><trkpt lat="40.07845" lon="-8.46536"><time>2022-02-26T15:02:59.000Z</time></trkpt><trkpt lat="40.07845" lon="-8.46551"><ele>306</ele><time>2022-02-26T15:03:04.000Z</time></trkpt><trkpt lat="40.07842" lon="-8.46589"><ele>306</ele><time>2022-02-26T15:03:20.000Z</time></trkpt><trkpt lat="40.07841" lon="-8.46633"><ele>302</ele><time>2022-02-26T15:03:30.000Z</time></trkpt><trkpt lat="40.07842" lon="-8.46656"><time>2022-02-26T15:03:40.000Z</time></trkpt><trkpt lat="40.0784" lon="-8.46685"><ele>302</ele><time>2022-02-26T15:04:01.000Z</time></trkpt><trkpt lat="40.0784" lon="-8.46721"><ele>302</ele><time>2022-02-26T15:04:11.000Z</time></trkpt><trkpt lat="40.07842" lon="-8.46735"><time>2022-02-26T15:04:21.000Z</time></trkpt><trkpt lat="40.07843" lon="-8.46743"><time>2022-02-26T15:04:31.000Z</time></trkpt><trkpt lat="40.07843" lon="-8.46765"><ele>301</ele><time>2022-02-26T15:04:41.000Z</time></trkpt><trkpt lat="40.07845" lon="-8.46779"><time>2022-02-26T15:04:51.000Z</time></trkpt><trkpt lat="40.07856" lon="-8.46823"><ele>299</ele><time>2022-02-26T15:05:01.000Z</time></trkpt><trkpt lat="40.07862" lon="-8.46835"><time>2022-02-26T15:05:11.000Z</time></trkpt><trkpt lat="40.07864" lon="-8.46841"><time>2022-02-26T15:05:21.000Z</time></trkpt><trkpt lat="40.0787" lon="-8.46854"><ele>296</ele><time>2022-02-26T15:05:31.000Z</time></trkpt><trkpt lat="40.07872" lon="-8.4686"><time>2022-02-26T15:05:41.000Z</time></trkpt><trkpt lat="40.07876" lon="-8.46873"><time>2022-02-26T15:05:51.000Z</time></trkpt><trkpt lat="40.07877" lon="-8.4688"><ele>289</ele><time>2022-02-26T15:06:01.000Z</time></trkpt><trkpt lat="40.07877" lon="-8.46902"><time>2022-02-26T15:06:11.000Z</time></trkpt><trkpt lat="40.07876" lon="-8.46931"><ele>280</ele><time>2022-02-26T15:06:21.000Z</time></trkpt><trkpt lat="40.07875" lon="-8.46939"><time>2022-02-26T15:06:31.000Z</time></trkpt><trkpt lat="40.07873" lon="-8.46946"><time>2022-02-26T15:06:41.000Z</time></trkpt><trkpt lat="40.07871" lon="-8.46971"><ele>276</ele><time>2022-02-26T15:06:51.000Z</time></trkpt><trkpt lat="40.07872" lon="-8.46978"><time>2022-02-26T15:07:01.000Z</time></trkpt><trkpt lat="40.07871" lon="-8.46994"><time>2022-02-26T15:07:11.000Z</time></trkpt><trkpt lat="40.07872" lon="-8.47009"><ele>273</ele><time>2022-02-26T15:07:22.000Z</time></trkpt><trkpt lat="40.07872" lon="-8.47016"><time>2022-02-26T15:07:32.000Z</time></trkpt><trkpt lat="40.07869" lon="-8.47023"><time>2022-02-26T15:07:42.000Z</time></trkpt><trkpt lat="40.07864" lon="-8.47027"><time>2022-02-26T15:07:52.000Z</time></trkpt><trkpt lat="40.07858" lon="-8.47031"><ele>266</ele><time>2022-02-26T15:07:41.000Z</time></trkpt><trkpt lat="40.07852" lon="-8.47032"><time>2022-02-26T15:07:51.000Z</time></trkpt><trkpt lat="40.07846" lon="-8.47033"><time>2022-02-26T15:08:01.000Z</time></trkpt><trkpt lat="40.07836" lon="-8.47032"><ele>262</ele><time>2022-02-26T15:07:59.000Z</time></trkpt><trkpt lat="40.07819" lon="-8.47027"><time>2022-02-26T15:08:09.000Z</time></trkpt><trkpt lat="40.07813" lon="-8.47026"><ele>243</ele><time>2022-02-26T15:08:18.000Z</time></trkpt><trkpt lat="40.07796" lon="-8.47019"><time>2022-02-26T15:08:28.000Z</time></trkpt><trkpt lat="40.0778" lon="-8.47014"><ele>240</ele><time>2022-02-26T15:08:41.000Z</time></trkpt><trkpt lat="40.07769" lon="-8.47012"><time>2022-02-26T15:08:51.000Z</time></trkpt><trkpt lat="40.07758" lon="-8.47005"><ele>240</ele><time>2022-02-26T15:09:01.000Z</time></trkpt><trkpt lat="40.07752" lon="-8.47003"><time>2022-02-26T15:09:11.000Z</time></trkpt><trkpt lat="40.07747" lon="-8.47002"><time>2022-02-26T15:09:21.000Z</time></trkpt><trkpt lat="40.07741" lon="-8.47001"><time>2022-02-26T15:09:31.000Z</time></trkpt><trkpt lat="40.07735" lon="-8.46999"><ele>233</ele><time>2022-02-26T15:09:41.000Z</time></trkpt><trkpt lat="40.0773" lon="-8.46999"><time>2022-02-26T15:09:51.000Z</time></trkpt><trkpt lat="40.07718" lon="-8.47014"><ele>226</ele><time>2022-02-26T15:10:01.000Z</time></trkpt><trkpt lat="40.07716" lon="-8.47022"><time>2022-02-26T15:10:11.000Z</time></trkpt><trkpt lat="40.07716" lon="-8.4703"><time>2022-02-26T15:10:21.000Z</time></trkpt><trkpt lat="40.07719" lon="-8.47043"><ele>222</ele><time>2022-02-26T15:10:31.000Z</time></trkpt><trkpt lat="40.0772" lon="-8.47051"><time>2022-02-26T15:10:41.000Z</time></trkpt><trkpt lat="40.07719" lon="-8.47058"><time>2022-02-26T15:10:51.000Z</time></trkpt><trkpt lat="40.07723" lon="-8.47086"><ele>218</ele><time>2022-02-26T15:11:01.000Z</time></trkpt><trkpt lat="40.07724" lon="-8.47108"><time>2022-02-26T15:11:11.000Z</time></trkpt><trkpt lat="40.07726" lon="-8.47122"><ele>215</ele><time>2022-02-26T15:11:21.000Z</time></trkpt><trkpt lat="40.07726" lon="-8.47146"><time>2022-02-26T15:11:31.000Z</time></trkpt><trkpt lat="40.07732" lon="-8.47169"><ele>211</ele><time>2022-02-26T15:11:41.000Z</time></trkpt><trkpt lat="40.07738" lon="-8.47184"><time>2022-02-26T15:11:51.000Z</time></trkpt><trkpt lat="40.07744" lon="-8.47205"><ele>198</ele><time>2022-02-26T15:12:01.000Z</time></trkpt><trkpt lat="40.07746" lon="-8.4721"><time>2022-02-26T15:12:11.000Z</time></trkpt><trkpt lat="40.07755" lon="-8.47223"><time>2022-02-26T15:12:21.000Z</time></trkpt><trkpt lat="40.07765" lon="-8.47243"><ele>193</ele><time>2022-02-26T15:11:47.000Z</time></trkpt><trkpt lat="40.07774" lon="-8.47256"><time>2022-02-26T15:11:57.000Z</time></trkpt><trkpt lat="40.07781" lon="-8.47265"><ele>189</ele><time>2022-02-26T15:12:07.000Z</time></trkpt><trkpt lat="40.07784" lon="-8.47271"><time>2022-02-26T15:12:17.000Z</time></trkpt><trkpt lat="40.07792" lon="-8.47307"><ele>182</ele><time>2022-02-26T15:12:27.000Z</time></trkpt><trkpt lat="40.07795" lon="-8.47314"><time>2022-02-26T15:12:37.000Z</time></trkpt><trkpt lat="40.07798" lon="-8.47319"><time>2022-02-26T15:12:47.000Z</time></trkpt><trkpt lat="40.07801" lon="-8.47323"><time>2022-02-26T15:12:57.000Z</time></trkpt><trkpt lat="40.07807" lon="-8.47327"><ele>172</ele><time>2022-02-26T15:13:07.000Z</time></trkpt><trkpt lat="40.07813" lon="-8.47328"><time>2022-02-26T15:13:17.000Z</time></trkpt><trkpt lat="40.07819" lon="-8.47327"><time>2022-02-26T15:13:27.000Z</time></trkpt><trkpt lat="40.07823" lon="-8.47325"><time>2022-02-26T15:13:37.000Z</time></trkpt><trkpt lat="40.07828" lon="-8.4732"><ele>175</ele><time>2022-02-26T15:13:47.000Z</time></trkpt><trkpt lat="40.07832" lon="-8.47315"><time>2022-02-26T15:13:57.000Z</time></trkpt><trkpt lat="40.07843" lon="-8.47306"><time>2022-02-26T15:14:07.000Z</time></trkpt><trkpt lat="40.07848" lon="-8.47309"><ele>169</ele><time>2022-02-26T15:14:17.000Z</time></trkpt><trkpt lat="40.07854" lon="-8.4731"><time>2022-02-26T15:14:27.000Z</time></trkpt><trkpt lat="40.0786" lon="-8.47312"><time>2022-02-26T15:14:37.000Z</time></trkpt><trkpt lat="40.07867" lon="-8.47313"><time>2022-02-26T15:14:47.000Z</time></trkpt><trkpt lat="40.07878" lon="-8.47313"><ele>167</ele><time>2022-02-26T15:14:57.000Z</time></trkpt><trkpt lat="40.07891" lon="-8.47313"><time>2022-02-26T15:15:07.000Z</time></trkpt><trkpt lat="40.079" lon="-8.4732"><ele>165</ele><time>2022-02-26T15:15:17.000Z</time></trkpt><trkpt lat="40.07907" lon="-8.47324"><time>2022-02-26T15:15:27.000Z</time></trkpt><trkpt lat="40.07914" lon="-8.47325"><time>2022-02-26T15:15:37.000Z</time></trkpt><trkpt lat="40.0792" lon="-8.47324"><time>2022-02-26T15:15:47.000Z</time></trkpt><trkpt lat="40.07925" lon="-8.47321"><ele>163</ele><time>2022-02-26T15:15:57.000Z</time></trkpt><trkpt lat="40.07931" lon="-8.47321"><time>2022-02-26T15:16:07.000Z</time></trkpt><trkpt lat="40.07935" lon="-8.47322"><time>2022-02-26T15:16:17.000Z</time></trkpt><trkpt lat="40.07936" lon="-8.47329"><time>2022-02-26T15:16:27.000Z</time></trkpt><trkpt lat="40.07935" lon="-8.47335"><ele>163</ele><time>2022-02-26T15:16:37.000Z</time></trkpt><trkpt lat="40.07941" lon="-8.47337"><time>2022-02-26T15:16:47.000Z</time></trkpt><trkpt lat="40.07945" lon="-8.47342"><time>2022-02-26T15:16:57.000Z</time></trkpt><trkpt lat="40.07946" lon="-8.47348"><time>2022-02-26T15:17:07.000Z</time></trkpt><trkpt lat="40.07944" lon="-8.47354"><ele>158</ele><time>2022-02-26T15:17:17.000Z</time></trkpt><trkpt lat="40.07943" lon="-8.47362"><time>2022-02-26T15:17:27.000Z</time></trkpt><trkpt lat="40.07942" lon="-8.47368"><time>2022-02-26T15:17:37.000Z</time></trkpt><trkpt lat="40.07941" lon="-8.47383"><ele>157</ele><time>2022-02-26T15:17:47.000Z</time></trkpt><trkpt lat="40.07941" lon="-8.47398"><time>2022-02-26T15:17:57.000Z</time></trkpt><trkpt lat="40.0794" lon="-8.47405"><time>2022-02-26T15:18:07.000Z</time></trkpt><trkpt lat="40.07939" lon="-8.4742"><ele>150</ele><time>2022-02-26T15:18:17.000Z</time></trkpt><trkpt lat="40.07935" lon="-8.47435"><time>2022-02-26T15:18:27.000Z</time></trkpt><trkpt lat="40.07928" lon="-8.47459"><ele>149</ele><time>2022-02-26T15:18:37.000Z</time></trkpt><trkpt lat="40.07928" lon="-8.47465"><time>2022-02-26T15:18:47.000Z</time></trkpt><trkpt lat="40.07932" lon="-8.47478"><time>2022-02-26T15:18:57.000Z</time></trkpt><trkpt lat="40.07939" lon="-8.47496"><ele>147</ele><time>2022-02-26T15:19:07.000Z</time></trkpt><trkpt lat="40.07943" lon="-8.47502"><time>2022-02-26T15:19:17.000Z</time></trkpt><trkpt lat="40.07945" lon="-8.47509"><time>2022-02-26T15:19:27.000Z</time></trkpt><trkpt lat="40.0795" lon="-8.47548"><ele>146</ele><time>2022-02-26T15:19:42.000Z</time></trkpt><trkpt lat="40.07956" lon="-8.47569"><time>2022-02-26T15:19:52.000Z</time></trkpt><trkpt lat="40.07957" lon="-8.47577"><ele>144</ele><time>2022-02-26T15:20:02.000Z</time></trkpt><trkpt lat="40.07956" lon="-8.47585"><time>2022-02-26T15:20:12.000Z</time></trkpt><trkpt lat="40.07957" lon="-8.47593"><time>2022-02-26T15:20:22.000Z</time></trkpt><trkpt lat="40.07959" lon="-8.47601"><time>2022-02-26T15:20:32.000Z</time></trkpt><trkpt lat="40.07963" lon="-8.47607"><ele>142</ele><time>2022-02-26T15:20:42.000Z</time></trkpt><trkpt lat="40.07965" lon="-8.47615"><time>2022-02-26T15:20:52.000Z</time></trkpt><trkpt lat="40.07982" lon="-8.47648"><ele>142</ele><time>2022-02-26T15:21:02.000Z</time></trkpt><trkpt lat="40.07985" lon="-8.47653"><time>2022-02-26T15:21:12.000Z</time></trkpt><trkpt lat="40.07989" lon="-8.47657"><time>2022-02-26T15:21:22.000Z</time></trkpt><trkpt lat="40.07996" lon="-8.4766"><time>2022-02-26T15:21:32.000Z</time></trkpt><trkpt lat="40.08" lon="-8.47662"><ele>139</ele><time>2022-02-26T15:21:42.000Z</time></trkpt><trkpt lat="40.08007" lon="-8.47675"><time>2022-02-26T15:21:52.000Z</time></trkpt><trkpt lat="40.08011" lon="-8.4768"><time>2022-02-26T15:22:02.000Z</time></trkpt><trkpt lat="40.08029" lon="-8.477"><ele>137</ele><time>2022-02-26T15:21:10.000Z</time></trkpt><trkpt lat="40.08047" lon="-8.47716"><ele>137</ele><time>2022-02-26T15:21:23.000Z</time></trkpt><trkpt lat="40.08051" lon="-8.47723"><time>2022-02-26T15:21:33.000Z</time></trkpt><trkpt lat="40.08055" lon="-8.47728"><time>2022-02-26T15:21:43.000Z</time></trkpt><trkpt lat="40.08066" lon="-8.47733"><ele>138</ele><time>2022-02-26T15:21:37.000Z</time></trkpt><trkpt lat="40.0807" lon="-8.47736"><time>2022-02-26T15:21:47.000Z</time></trkpt><trkpt lat="40.08079" lon="-8.47747"><time>2022-02-26T15:21:57.000Z</time></trkpt><trkpt lat="40.08083" lon="-8.47753"><ele>137</ele><time>2022-02-26T15:21:51.000Z</time></trkpt><trkpt lat="40.08102" lon="-8.47767"><ele>137</ele><time>2022-02-26T15:22:01.000Z</time></trkpt><trkpt lat="40.08107" lon="-8.4777"><time>2022-02-26T15:22:11.000Z</time></trkpt><trkpt lat="40.0811" lon="-8.47776"><time>2022-02-26T15:22:21.000Z</time></trkpt><trkpt lat="40.08112" lon="-8.47782"><time>2022-02-26T15:22:31.000Z</time></trkpt><trkpt lat="40.08117" lon="-8.47788"><ele>137</ele><time>2022-02-26T15:22:41.000Z</time></trkpt><trkpt lat="40.08121" lon="-8.47792"><time>2022-02-26T15:22:51.000Z</time></trkpt><trkpt lat="40.08127" lon="-8.47795"><time>2022-02-26T15:23:01.000Z</time></trkpt><trkpt lat="40.08132" lon="-8.47798"><time>2022-02-26T15:23:11.000Z</time></trkpt><trkpt lat="40.08136" lon="-8.47802"><ele>137</ele><time>2022-02-26T15:23:21.000Z</time></trkpt><trkpt lat="40.08142" lon="-8.47806"><time>2022-02-26T15:23:31.000Z</time></trkpt><trkpt lat="40.08147" lon="-8.4781"><time>2022-02-26T15:23:41.000Z</time></trkpt><trkpt lat="40.0815" lon="-8.47816"><time>2022-02-26T15:23:51.000Z</time></trkpt><trkpt lat="40.08153" lon="-8.47824"><ele>138</ele><time>2022-02-26T15:24:01.000Z</time></trkpt><trkpt lat="40.08158" lon="-8.47835"><time>2022-02-26T15:24:11.000Z</time></trkpt><trkpt lat="40.08169" lon="-8.47851"><ele>138</ele><time>2022-02-26T15:24:21.000Z</time></trkpt><trkpt lat="40.08172" lon="-8.47857"><time>2022-02-26T15:24:31.000Z</time></trkpt><trkpt lat="40.08171" lon="-8.47864"><time>2022-02-26T15:24:41.000Z</time></trkpt><trkpt lat="40.08171" lon="-8.47871"><time>2022-02-26T15:24:51.000Z</time></trkpt><trkpt lat="40.08174" lon="-8.47879"><ele>138</ele><time>2022-02-26T15:25:01.000Z</time></trkpt><trkpt lat="40.08175" lon="-8.47886"><time>2022-02-26T15:25:11.000Z</time></trkpt><trkpt lat="40.08173" lon="-8.47894"><time>2022-02-26T15:25:21.000Z</time></trkpt><trkpt lat="40.08171" lon="-8.47901"><time>2022-02-26T15:25:31.000Z</time></trkpt><trkpt lat="40.08172" lon="-8.47909"><ele>138</ele><time>2022-02-26T15:25:41.000Z</time></trkpt><trkpt lat="40.08174" lon="-8.47917"><time>2022-02-26T15:25:51.000Z</time></trkpt><trkpt lat="40.08174" lon="-8.4793"><time>2022-02-26T15:26:01.000Z</time></trkpt><trkpt lat="40.08173" lon="-8.47944"><ele>138</ele><time>2022-02-26T15:26:11.000Z</time></trkpt><trkpt lat="40.08174" lon="-8.47951"><time>2022-02-26T15:26:21.000Z</time></trkpt><trkpt lat="40.08176" lon="-8.47958"><time>2022-02-26T15:26:31.000Z</time></trkpt><trkpt lat="40.08179" lon="-8.47963"><time>2022-02-26T15:26:41.000Z</time></trkpt><trkpt lat="40.08184" lon="-8.47967"><ele>140</ele><time>2022-02-26T15:26:51.000Z</time></trkpt><trkpt lat="40.08187" lon="-8.47971"><time>2022-02-26T15:27:01.000Z</time></trkpt><trkpt lat="40.08193" lon="-8.47986"><time>2022-02-26T15:27:11.000Z</time></trkpt><trkpt lat="40.08195" lon="-8.47993"><ele>137</ele><time>2022-02-26T15:27:21.000Z</time></trkpt><trkpt lat="40.08197" lon="-8.48012"><time>2022-02-26T15:27:31.000Z</time></trkpt><trkpt lat="40.08198" lon="-8.4802"><time>2022-02-26T15:27:41.000Z</time></trkpt><trkpt lat="40.08205" lon="-8.48038"><ele>135</ele><time>2022-02-26T15:27:51.000Z</time></trkpt><trkpt lat="40.08209" lon="-8.48044"><time>2022-02-26T15:28:01.000Z</time></trkpt><trkpt lat="40.08211" lon="-8.48052"><time>2022-02-26T15:28:11.000Z</time></trkpt><trkpt lat="40.08213" lon="-8.48058"><time>2022-02-26T15:28:21.000Z</time></trkpt><trkpt lat="40.08221" lon="-8.4808"><ele>135</ele><time>2022-02-26T15:28:31.000Z</time></trkpt><trkpt lat="40.08223" lon="-8.48087"><time>2022-02-26T15:28:41.000Z</time></trkpt><trkpt lat="40.08227" lon="-8.48115"><ele>136</ele><time>2022-02-26T15:25:31.000Z</time></trkpt><trkpt lat="40.08229" lon="-8.48132"><time>2022-02-26T15:25:41.000Z</time></trkpt><trkpt lat="40.08231" lon="-8.48139"><time>2022-02-26T15:25:51.000Z</time></trkpt><trkpt lat="40.08232" lon="-8.48147"><ele>135</ele><time>2022-02-26T15:25:44.000Z</time></trkpt><trkpt lat="40.08233" lon="-8.48162"><time>2022-02-26T15:25:54.000Z</time></trkpt><trkpt lat="40.08234" lon="-8.48177"><ele>135</ele><time>2022-02-26T15:26:04.000Z</time></trkpt><trkpt lat="40.08235" lon="-8.48183"><time>2022-02-26T15:26:14.000Z</time></trkpt><trkpt lat="40.08237" lon="-8.48205"><ele>126</ele><time>2022-02-26T15:26:24.000Z</time></trkpt><trkpt lat="40.08239" lon="-8.48213"><time>2022-02-26T15:26:34.000Z</time></trkpt><trkpt lat="40.08243" lon="-8.48228"><time>2022-02-26T15:26:44.000Z</time></trkpt><trkpt lat="40.08252" lon="-8.48253"><ele>123</ele><time>2022-02-26T15:26:54.000Z</time></trkpt><trkpt lat="40.08253" lon="-8.4826"><time>2022-02-26T15:27:04.000Z</time></trkpt><trkpt lat="40.08256" lon="-8.48266"><time>2022-02-26T15:27:14.000Z</time></trkpt><trkpt lat="40.08259" lon="-8.48272"><time>2022-02-26T15:27:24.000Z</time></trkpt><trkpt lat="40.08263" lon="-8.48275"><ele>124</ele><time>2022-02-26T15:27:34.000Z</time></trkpt><trkpt lat="40.08268" lon="-8.48274"><time>2022-02-26T15:27:44.000Z</time></trkpt><trkpt lat="40.08271" lon="-8.48275"><time>2022-02-26T15:27:54.000Z</time></trkpt><trkpt lat="40.08274" lon="-8.48282"><time>2022-02-26T15:28:04.000Z</time></trkpt><trkpt lat="40.08278" lon="-8.48284"><time>2022-02-26T15:28:14.000Z</time></trkpt><trkpt lat="40.08285" lon="-8.48295"><ele>124</ele><time>2022-02-26T15:27:26.000Z</time></trkpt><trkpt lat="40.08299" lon="-8.48327"><ele>124</ele><time>2022-02-26T15:27:36.000Z</time></trkpt><trkpt lat="40.083" lon="-8.48333"><time>2022-02-26T15:27:46.000Z</time></trkpt><trkpt lat="40.08303" lon="-8.4834"><time>2022-02-26T15:27:56.000Z</time></trkpt><trkpt lat="40.08306" lon="-8.48354"><ele>125</ele><time>2022-02-26T15:28:06.000Z</time></trkpt><trkpt lat="40.08311" lon="-8.48365"><time>2022-02-26T15:28:16.000Z</time></trkpt><trkpt lat="40.08316" lon="-8.48388"><ele>130</ele><time>2022-02-26T15:28:26.000Z</time></trkpt><trkpt lat="40.0832" lon="-8.48395"><time>2022-02-26T15:28:36.000Z</time></trkpt><trkpt lat="40.08324" lon="-8.484"><time>2022-02-26T15:28:46.000Z</time></trkpt><trkpt lat="40.08327" lon="-8.48406"><time>2022-02-26T15:28:56.000Z</time></trkpt><trkpt lat="40.08332" lon="-8.48411"><ele>140</ele><time>2022-02-26T15:29:06.000Z</time></trkpt><trkpt lat="40.08337" lon="-8.48412"><time>2022-02-26T15:29:16.000Z</time></trkpt><trkpt lat="40.08343" lon="-8.48413"><time>2022-02-26T15:29:26.000Z</time></trkpt><trkpt lat="40.0836" lon="-8.48414"><ele>139</ele><time>2022-02-26T15:29:19.000Z</time></trkpt><trkpt lat="40.08377" lon="-8.48408"><time>2022-02-26T15:29:29.000Z</time></trkpt><trkpt lat="40.08383" lon="-8.48405"><ele>139</ele><time>2022-02-26T15:29:39.000Z</time></trkpt><trkpt lat="40.08393" lon="-8.48398"><time>2022-02-26T15:29:49.000Z</time></trkpt><trkpt lat="40.08403" lon="-8.48379"><ele>135</ele><time>2022-02-26T15:29:59.000Z</time></trkpt><trkpt lat="40.08406" lon="-8.48373"><time>2022-02-26T15:30:09.000Z</time></trkpt><trkpt lat="40.08408" lon="-8.48365"><time>2022-02-26T15:30:19.000Z</time></trkpt><trkpt lat="40.08411" lon="-8.48358"><time>2022-02-26T15:30:29.000Z</time></trkpt><trkpt lat="40.08419" lon="-8.4834"><ele>134</ele><time>2022-02-26T15:30:39.000Z</time></trkpt><trkpt lat="40.08424" lon="-8.48316"><time>2022-02-26T15:30:49.000Z</time></trkpt><trkpt lat="40.08424" lon="-8.48303"><ele>135</ele><time>2022-02-26T15:30:59.000Z</time></trkpt><trkpt lat="40.08425" lon="-8.48289"><time>2022-02-26T15:31:09.000Z</time></trkpt><trkpt lat="40.08425" lon="-8.48283"><time>2022-02-26T15:31:19.000Z</time></trkpt><trkpt lat="40.08432" lon="-8.48271"><ele>136</ele><time>2022-02-26T15:31:29.000Z</time></trkpt><trkpt lat="40.08432" lon="-8.48264"><time>2022-02-26T15:31:39.000Z</time></trkpt><trkpt lat="40.0843" lon="-8.48257"><time>2022-02-26T15:31:49.000Z</time></trkpt><trkpt lat="40.08432" lon="-8.4825"><time>2022-02-26T15:31:59.000Z</time></trkpt><trkpt lat="40.08461" lon="-8.48202"><ele>139</ele><time>2022-02-26T15:32:09.000Z</time></trkpt><trkpt lat="40.08466" lon="-8.48198"><time>2022-02-26T15:32:19.000Z</time></trkpt><trkpt lat="40.08469" lon="-8.48193"><time>2022-02-26T15:32:29.000Z</time></trkpt><trkpt lat="40.08478" lon="-8.48185"><ele>145</ele><time>2022-02-26T15:32:39.000Z</time></trkpt><trkpt lat="40.08484" lon="-8.48182"><time>2022-02-26T15:32:49.000Z</time></trkpt><trkpt lat="40.08489" lon="-8.48178"><time>2022-02-26T15:32:59.000Z</time></trkpt><trkpt lat="40.08493" lon="-8.48176"><time>2022-02-26T15:33:09.000Z</time></trkpt><trkpt lat="40.08497" lon="-8.4817"><ele>149</ele><time>2022-02-26T15:33:19.000Z</time></trkpt><trkpt lat="40.08502" lon="-8.48166"><time>2022-02-26T15:33:29.000Z</time></trkpt><trkpt lat="40.08506" lon="-8.48161"><time>2022-02-26T15:33:39.000Z</time></trkpt><trkpt lat="40.0851" lon="-8.48158"><time>2022-02-26T15:33:49.000Z</time></trkpt><trkpt lat="40.08515" lon="-8.48159"><ele>149</ele><time>2022-02-26T15:33:59.000Z</time></trkpt><trkpt lat="40.08525" lon="-8.48154"><time>2022-02-26T15:34:09.000Z</time></trkpt><trkpt lat="40.08542" lon="-8.48154"><ele>148</ele><time>2022-02-26T15:34:19.000Z</time></trkpt><trkpt lat="40.08546" lon="-8.48157"><time>2022-02-26T15:34:29.000Z</time></trkpt><trkpt lat="40.08553" lon="-8.48159"><time>2022-02-26T15:34:39.000Z</time></trkpt><trkpt lat="40.08563" lon="-8.4816"><ele>147</ele><time>2022-02-26T15:34:49.000Z</time></trkpt><trkpt lat="40.08569" lon="-8.48164"><time>2022-02-26T15:34:59.000Z</time></trkpt><trkpt lat="40.08574" lon="-8.48166"><time>2022-02-26T15:35:09.000Z</time></trkpt><trkpt lat="40.08585" lon="-8.48165"><ele>142</ele><time>2022-02-26T15:35:19.000Z</time></trkpt><trkpt lat="40.08589" lon="-8.48164"><time>2022-02-26T15:35:29.000Z</time></trkpt><trkpt lat="40.08598" lon="-8.48171"><time>2022-02-26T15:35:39.000Z</time></trkpt><trkpt lat="40.08614" lon="-8.48177"><ele>140</ele><time>2022-02-26T15:35:49.000Z</time></trkpt><trkpt lat="40.08619" lon="-8.48176"><time>2022-02-26T15:35:59.000Z</time></trkpt><trkpt lat="40.08624" lon="-8.48179"><time>2022-02-26T15:36:09.000Z</time></trkpt><trkpt lat="40.08627" lon="-8.48182"><time>2022-02-26T15:36:19.000Z</time></trkpt><trkpt lat="40.08633" lon="-8.48195"><ele>133</ele><time>2022-02-26T15:36:29.000Z</time></trkpt><trkpt lat="40.08636" lon="-8.48199"><time>2022-02-26T15:36:39.000Z</time></trkpt><trkpt lat="40.0864" lon="-8.48212"><time>2022-02-26T15:36:49.000Z</time></trkpt><trkpt lat="40.08644" lon="-8.48217"><time>2022-02-26T15:36:59.000Z</time></trkpt><trkpt lat="40.08649" lon="-8.4822"><ele>128</ele><time>2022-02-26T15:37:09.000Z</time></trkpt><trkpt lat="40.08655" lon="-8.48238"><time>2022-02-26T15:37:19.000Z</time></trkpt><trkpt lat="40.0866" lon="-8.48244"><ele>128</ele><time>2022-02-26T15:37:29.000Z</time></trkpt><trkpt lat="40.08663" lon="-8.48251"><time>2022-02-26T15:37:39.000Z</time></trkpt><trkpt lat="40.08664" lon="-8.48257"><time>2022-02-26T15:37:49.000Z</time></trkpt><trkpt lat="40.08668" lon="-8.48262"><time>2022-02-26T15:37:59.000Z</time></trkpt><trkpt lat="40.08671" lon="-8.48268"><ele>127</ele><time>2022-02-26T15:38:09.000Z</time></trkpt><trkpt lat="40.08672" lon="-8.48273"><time>2022-02-26T15:38:19.000Z</time></trkpt><trkpt lat="40.08675" lon="-8.48288"><time>2022-02-26T15:38:29.000Z</time></trkpt><trkpt lat="40.08676" lon="-8.48296"><ele>127</ele><time>2022-02-26T15:38:39.000Z</time></trkpt><trkpt lat="40.08679" lon="-8.48303"><time>2022-02-26T15:38:49.000Z</time></trkpt><trkpt lat="40.0868" lon="-8.4831"><time>2022-02-26T15:38:59.000Z</time></trkpt><trkpt lat="40.0868" lon="-8.48317"><time>2022-02-26T15:39:09.000Z</time></trkpt><trkpt lat="40.08684" lon="-8.48346"><ele>130</ele><time>2022-02-26T15:39:19.000Z</time></trkpt><trkpt lat="40.08686" lon="-8.48354"><time>2022-02-26T15:39:29.000Z</time></trkpt><trkpt lat="40.08686" lon="-8.48362"><time>2022-02-26T15:39:39.000Z</time></trkpt><trkpt lat="40.08688" lon="-8.48383"><ele>133</ele><time>2022-02-26T15:39:49.000Z</time></trkpt><trkpt lat="40.08691" lon="-8.4839"><time>2022-02-26T15:39:59.000Z</time></trkpt><trkpt lat="40.08694" lon="-8.48395"><time>2022-02-26T15:40:09.000Z</time></trkpt><trkpt lat="40.08694" lon="-8.48402"><time>2022-02-26T15:40:19.000Z</time></trkpt><trkpt lat="40.087" lon="-8.48416"><ele>133</ele><time>2022-02-26T15:40:29.000Z</time></trkpt><trkpt lat="40.08704" lon="-8.48421"><time>2022-02-26T15:40:39.000Z</time></trkpt><trkpt lat="40.08708" lon="-8.48425"><time>2022-02-26T15:40:49.000Z</time></trkpt><trkpt lat="40.08713" lon="-8.48427"><time>2022-02-26T15:40:59.000Z</time></trkpt><trkpt lat="40.08719" lon="-8.48427"><ele>133</ele><time>2022-02-26T15:41:09.000Z</time></trkpt><trkpt lat="40.08724" lon="-8.48426"><time>2022-02-26T15:41:19.000Z</time></trkpt><trkpt lat="40.08729" lon="-8.48426"><time>2022-02-26T15:41:29.000Z</time></trkpt><trkpt lat="40.08733" lon="-8.4843"><time>2022-02-26T15:41:39.000Z</time></trkpt><trkpt lat="40.08739" lon="-8.48432"><ele>133</ele><time>2022-02-26T15:41:49.000Z</time></trkpt><trkpt lat="40.08744" lon="-8.48432"><time>2022-02-26T15:41:59.000Z</time></trkpt><trkpt lat="40.0875" lon="-8.48433"><time>2022-02-26T15:42:09.000Z</time></trkpt><trkpt lat="40.08755" lon="-8.48435"><time>2022-02-26T15:42:19.000Z</time></trkpt><trkpt lat="40.0876" lon="-8.4844"><ele>134</ele><time>2022-02-26T15:42:29.000Z</time></trkpt><trkpt lat="40.08762" lon="-8.48446"><time>2022-02-26T15:42:39.000Z</time></trkpt><trkpt lat="40.08772" lon="-8.48464"><ele>133</ele><time>2022-02-26T15:42:49.000Z</time></trkpt><trkpt lat="40.08775" lon="-8.48469"><time>2022-02-26T15:42:59.000Z</time></trkpt><trkpt lat="40.08779" lon="-8.48472"><time>2022-02-26T15:43:09.000Z</time></trkpt><trkpt lat="40.0878" lon="-8.48479"><time>2022-02-26T15:43:19.000Z</time></trkpt><trkpt lat="40.08782" lon="-8.48484"><time>2022-02-26T15:43:29.000Z</time></trkpt><trkpt lat="40.08781" lon="-8.4849"><ele>134</ele><time>2022-02-26T15:43:39.000Z</time></trkpt><trkpt lat="40.08786" lon="-8.48513"><time>2022-02-26T15:43:49.000Z</time></trkpt><trkpt lat="40.08789" lon="-8.48518"><ele>135</ele><time>2022-02-26T15:43:59.000Z</time></trkpt><trkpt lat="40.08792" lon="-8.48524"><time>2022-02-26T15:44:09.000Z</time></trkpt><trkpt lat="40.088" lon="-8.48535"><time>2022-02-26T15:44:19.000Z</time></trkpt><trkpt lat="40.0882" lon="-8.48542"><ele>146</ele><time>2022-02-26T15:42:10.000Z</time></trkpt><trkpt lat="40.0883" lon="-8.48548"><time>2022-02-26T15:42:20.000Z</time></trkpt><trkpt lat="40.08841" lon="-8.4855"><ele>146</ele><time>2022-02-26T15:42:37.000Z</time></trkpt><trkpt lat="40.08854" lon="-8.48546"><time>2022-02-26T15:42:47.000Z</time></trkpt><trkpt lat="40.08865" lon="-8.48544"><ele>142</ele><time>2022-02-26T15:42:50.000Z</time></trkpt><trkpt lat="40.08883" lon="-8.48546"><time>2022-02-26T15:43:00.000Z</time></trkpt><trkpt lat="40.08889" lon="-8.48544"><ele>141</ele><time>2022-02-26T15:43:04.000Z</time></trkpt><trkpt lat="40.08894" lon="-8.48541"><time>2022-02-26T15:43:14.000Z</time></trkpt><trkpt lat="40.08898" lon="-8.48538"><time>2022-02-26T15:43:24.000Z</time></trkpt><trkpt lat="40.08904" lon="-8.48538"><time>2022-02-26T15:43:34.000Z</time></trkpt><trkpt lat="40.08909" lon="-8.48536"><ele>141</ele><time>2022-02-26T15:43:19.000Z</time></trkpt><trkpt lat="40.08906" lon="-8.48537"><time>2022-02-26T15:43:29.000Z</time></trkpt><trkpt lat="40.08904" lon="-8.48532"><time>2022-02-26T15:43:39.000Z</time></trkpt><trkpt lat="40.08906" lon="-8.48528"><time>2022-02-26T15:43:49.000Z</time></trkpt><trkpt lat="40.08902" lon="-8.48526"><time>2022-02-26T15:43:59.000Z</time></trkpt><trkpt lat="40.08895" lon="-8.48527"><ele>141</ele><time>2022-02-26T15:43:58.000Z</time></trkpt><trkpt lat="40.08893" lon="-8.48523"><time>2022-02-26T15:44:08.000Z</time></trkpt><trkpt lat="40.08894" lon="-8.48517"><time>2022-02-26T15:44:18.000Z</time></trkpt><trkpt lat="40.08901" lon="-8.48503"><ele>140</ele><time>2022-02-26T15:45:43.000Z</time></trkpt><trkpt lat="40.08912" lon="-8.48509"><time>2022-02-26T15:45:53.000Z</time></trkpt><trkpt lat="40.08915" lon="-8.48513"><time>2022-02-26T15:46:03.000Z</time></trkpt><trkpt lat="40.08919" lon="-8.48516"><ele>139</ele><time>2022-02-26T15:46:07.000Z</time></trkpt><trkpt lat="40.08919" lon="-8.48519"><time>2022-02-26T15:46:17.000Z</time></trkpt><trkpt lat="40.08922" lon="-8.48523"><time>2022-02-26T15:46:27.000Z</time></trkpt><trkpt lat="40.08927" lon="-8.48525"><time>2022-02-26T15:46:37.000Z</time></trkpt><trkpt lat="40.08936" lon="-8.48533"><ele>139</ele><time>2022-02-26T15:47:03.000Z</time></trkpt><trkpt lat="40.08945" lon="-8.48546"><time>2022-02-26T15:47:13.000Z</time></trkpt><trkpt lat="40.08948" lon="-8.48552"><time>2022-02-26T15:47:23.000Z</time></trkpt><trkpt lat="40.08952" lon="-8.48557"><ele>137</ele><time>2022-02-26T15:47:25.000Z</time></trkpt><trkpt lat="40.08958" lon="-8.48569"><time>2022-02-26T15:47:35.000Z</time></trkpt><trkpt lat="40.08961" lon="-8.48574"><time>2022-02-26T15:47:45.000Z</time></trkpt><trkpt lat="40.08964" lon="-8.48578"><time>2022-02-26T15:47:55.000Z</time></trkpt><trkpt lat="40.08967" lon="-8.48582"><ele>139</ele><time>2022-02-26T15:48:05.000Z</time></trkpt><trkpt lat="40.08972" lon="-8.48584"><time>2022-02-26T15:48:15.000Z</time></trkpt><trkpt lat="40.08981" lon="-8.48593"><time>2022-02-26T15:48:25.000Z</time></trkpt><trkpt lat="40.08985" lon="-8.48596"><ele>137</ele><time>2022-02-26T15:48:35.000Z</time></trkpt><trkpt lat="40.08993" lon="-8.48605"><time>2022-02-26T15:48:45.000Z</time></trkpt><trkpt lat="40.0901" lon="-8.4862"><ele>138</ele><time>2022-02-26T15:48:55.000Z</time></trkpt><trkpt lat="40.0902" lon="-8.48626"><time>2022-02-26T15:49:05.000Z</time></trkpt><trkpt lat="40.09035" lon="-8.48633"><ele>138</ele><time>2022-02-26T15:49:15.000Z</time></trkpt><trkpt lat="40.09046" lon="-8.48636"><time>2022-02-26T15:49:25.000Z</time></trkpt><trkpt lat="40.09051" lon="-8.48636"><time>2022-02-26T15:49:35.000Z</time></trkpt><trkpt lat="40.09067" lon="-8.48641"><ele>135</ele><time>2022-02-26T15:49:45.000Z</time></trkpt><trkpt lat="40.09079" lon="-8.48642"><time>2022-02-26T15:49:55.000Z</time></trkpt><trkpt lat="40.09084" lon="-8.4864"><time>2022-02-26T15:50:05.000Z</time></trkpt><trkpt lat="40.09089" lon="-8.48638"><ele>134</ele><time>2022-02-26T15:50:15.000Z</time></trkpt><trkpt lat="40.09094" lon="-8.48634"><time>2022-02-26T15:50:25.000Z</time></trkpt><trkpt lat="40.091" lon="-8.48632"><time>2022-02-26T15:50:35.000Z</time></trkpt><trkpt lat="40.09116" lon="-8.48629"><ele>134</ele><time>2022-02-26T15:50:45.000Z</time></trkpt><trkpt lat="40.09128" lon="-8.48629"><time>2022-02-26T15:50:55.000Z</time></trkpt><trkpt lat="40.09145" lon="-8.48627"><ele>132</ele><time>2022-02-26T15:51:05.000Z</time></trkpt><trkpt lat="40.0915" lon="-8.48625"><time>2022-02-26T15:51:15.000Z</time></trkpt><trkpt lat="40.09156" lon="-8.48624"><time>2022-02-26T15:51:25.000Z</time></trkpt><trkpt lat="40.09162" lon="-8.48624"><time>2022-02-26T15:51:35.000Z</time></trkpt><trkpt lat="40.09173" lon="-8.4862"><ele>133</ele><time>2022-02-26T15:51:24.000Z</time></trkpt><trkpt lat="40.09189" lon="-8.48619"><time>2022-02-26T15:51:34.000Z</time></trkpt><trkpt lat="40.09195" lon="-8.48617"><ele>132</ele><time>2022-02-26T15:51:47.000Z</time></trkpt><trkpt lat="40.09199" lon="-8.48618"><time>2022-02-26T15:51:57.000Z</time></trkpt><trkpt lat="40.09204" lon="-8.4862"><time>2022-02-26T15:52:07.000Z</time></trkpt><trkpt lat="40.09206" lon="-8.48625"><time>2022-02-26T15:52:17.000Z</time></trkpt><trkpt lat="40.09211" lon="-8.48629"><ele>132</ele><time>2022-02-26T15:52:17.000Z</time></trkpt><trkpt lat="40.09216" lon="-8.48629"><time>2022-02-26T15:52:27.000Z</time></trkpt><trkpt lat="40.09219" lon="-8.48634"><time>2022-02-26T15:52:37.000Z</time></trkpt><trkpt lat="40.09225" lon="-8.48638"><time>2022-02-26T15:52:47.000Z</time></trkpt><trkpt lat="40.09229" lon="-8.48642"><ele>132</ele><time>2022-02-26T15:52:35.000Z</time></trkpt><trkpt lat="40.09233" lon="-8.48647"><time>2022-02-26T15:52:45.000Z</time></trkpt><trkpt lat="40.09239" lon="-8.48659"><time>2022-02-26T15:52:55.000Z</time></trkpt><trkpt lat="40.09243" lon="-8.48664"><ele>135</ele><time>2022-02-26T15:52:50.000Z</time></trkpt><trkpt lat="40.09253" lon="-8.48666"><time>2022-02-26T15:53:00.000Z</time></trkpt><trkpt lat="40.09257" lon="-8.48669"><time>2022-02-26T15:53:10.000Z</time></trkpt><trkpt lat="40.09267" lon="-8.48672"><ele>135</ele><time>2022-02-26T15:53:23.000Z</time></trkpt><trkpt lat="40.09284" lon="-8.48675"><time>2022-02-26T15:53:33.000Z</time></trkpt><trkpt lat="40.09291" lon="-8.48676"><ele>137</ele><time>2022-02-26T15:53:50.000Z</time></trkpt><trkpt lat="40.09298" lon="-8.48675"><time>2022-02-26T15:54:00.000Z</time></trkpt><trkpt lat="40.09304" lon="-8.48672"><time>2022-02-26T15:54:10.000Z</time></trkpt><trkpt lat="40.09312" lon="-8.48664"><ele>137</ele><time>2022-02-26T15:54:01.000Z</time></trkpt><trkpt lat="40.09314" lon="-8.4866"><time>2022-02-26T15:54:11.000Z</time></trkpt><trkpt lat="40.09325" lon="-8.48646"><time>2022-02-26T15:54:21.000Z</time></trkpt><trkpt lat="40.09329" lon="-8.48643"><ele>138</ele><time>2022-02-26T15:54:52.000Z</time></trkpt><trkpt lat="40.09334" lon="-8.48642"><time>2022-02-26T15:55:02.000Z</time></trkpt><trkpt lat="40.09349" lon="-8.48628"><ele>138</ele><time>2022-02-26T15:55:21.000Z</time></trkpt><trkpt lat="40.09358" lon="-8.48624"><time>2022-02-26T15:55:31.000Z</time></trkpt><trkpt lat="40.09364" lon="-8.48623"><time>2022-02-26T15:55:41.000Z</time></trkpt><trkpt lat="40.09375" lon="-8.48626"><ele>135</ele><time>2022-02-26T15:55:50.000Z</time></trkpt><trkpt lat="40.0938" lon="-8.48626"><time>2022-02-26T15:56:00.000Z</time></trkpt><trkpt lat="40.09385" lon="-8.48627"><time>2022-02-26T15:56:10.000Z</time></trkpt><trkpt lat="40.0939" lon="-8.48631"><time>2022-02-26T15:56:20.000Z</time></trkpt><trkpt lat="40.09396" lon="-8.48629"><ele>135</ele><time>2022-02-26T15:56:12.000Z</time></trkpt><trkpt lat="40.09401" lon="-8.48631"><time>2022-02-26T15:56:22.000Z</time></trkpt><trkpt lat="40.09413" lon="-8.4863"><time>2022-02-26T15:56:32.000Z</time></trkpt><trkpt lat="40.09418" lon="-8.48627"><ele>135</ele><time>2022-02-26T15:56:36.000Z</time></trkpt><trkpt lat="40.09423" lon="-8.48623"><time>2022-02-26T15:56:46.000Z</time></trkpt><trkpt lat="40.09431" lon="-8.48611"><time>2022-02-26T15:56:56.000Z</time></trkpt><trkpt lat="40.09433" lon="-8.48606"><ele>135</ele><time>2022-02-26T15:56:55.000Z</time></trkpt><trkpt lat="40.09439" lon="-8.48605"><time>2022-02-26T15:57:05.000Z</time></trkpt><trkpt lat="40.09455" lon="-8.48621"><ele>135</ele><time>2022-02-26T15:57:11.000Z</time></trkpt><trkpt lat="40.09476" lon="-8.48637"><ele>135</ele><time>2022-02-26T15:57:21.000Z</time></trkpt><trkpt lat="40.09494" lon="-8.48642"><time>2022-02-26T15:57:31.000Z</time></trkpt><trkpt lat="40.095" lon="-8.48645"><ele>138</ele><time>2022-02-26T15:57:32.000Z</time></trkpt><trkpt lat="40.09513" lon="-8.48653"><time>2022-02-26T15:57:42.000Z</time></trkpt><trkpt lat="40.0953" lon="-8.48667"><ele>132</ele><time>2022-02-26T15:57:46.000Z</time></trkpt><trkpt lat="40.09565" lon="-8.48706"><ele>130</ele><time>2022-02-26T15:58:06.000Z</time></trkpt><trkpt lat="40.09577" lon="-8.48716"><time>2022-02-26T15:58:16.000Z</time></trkpt><trkpt lat="40.09583" lon="-8.48721"><ele>129</ele><time>2022-02-26T15:58:15.000Z</time></trkpt><trkpt lat="40.09593" lon="-8.48732"><time>2022-02-26T15:58:25.000Z</time></trkpt><trkpt lat="40.09603" lon="-8.48741"><ele>122</ele><time>2022-02-26T15:58:26.000Z</time></trkpt><trkpt lat="40.09613" lon="-8.48753"><time>2022-02-26T15:58:36.000Z</time></trkpt><trkpt lat="40.09618" lon="-8.48758"><time>2022-02-26T15:58:46.000Z</time></trkpt><trkpt lat="40.09624" lon="-8.48761"><ele>122</ele><time>2022-02-26T15:58:38.000Z</time></trkpt><trkpt lat="40.09629" lon="-8.48765"><time>2022-02-26T15:58:48.000Z</time></trkpt><trkpt lat="40.09642" lon="-8.48782"><ele>120</ele><time>2022-02-26T15:58:50.000Z</time></trkpt><trkpt lat="40.09663" lon="-8.48801"><ele>119</ele><time>2022-02-26T15:59:01.000Z</time></trkpt><trkpt lat="40.09666" lon="-8.48806"><time>2022-02-26T15:59:11.000Z</time></trkpt><trkpt lat="40.09672" lon="-8.48819"><time>2022-02-26T15:59:21.000Z</time></trkpt><trkpt lat="40.09677" lon="-8.48824"><ele>117</ele><time>2022-02-26T15:59:12.000Z</time></trkpt><trkpt lat="40.09693" lon="-8.48847"><ele>117</ele><time>2022-02-26T15:59:22.000Z</time></trkpt><trkpt lat="40.09698" lon="-8.48853"><time>2022-02-26T15:59:32.000Z</time></trkpt><trkpt lat="40.09714" lon="-8.48864"><ele>115</ele><time>2022-02-26T15:59:42.000Z</time></trkpt><trkpt lat="40.09719" lon="-8.4887"><time>2022-02-26T15:59:52.000Z</time></trkpt><trkpt lat="40.09727" lon="-8.48882"><time>2022-02-26T16:00:02.000Z</time></trkpt><trkpt lat="40.09736" lon="-8.48893"><ele>113</ele><time>2022-02-26T15:59:48.000Z</time></trkpt><trkpt lat="40.09756" lon="-8.48918"><ele>111</ele><time>2022-02-26T16:00:00.000Z</time></trkpt><trkpt lat="40.09765" lon="-8.48931"><time>2022-02-26T16:00:10.000Z</time></trkpt><trkpt lat="40.09775" lon="-8.48943"><ele>110</ele><time>2022-02-26T16:00:20.000Z</time></trkpt><trkpt lat="40.0978" lon="-8.48949"><time>2022-02-26T16:00:30.000Z</time></trkpt><trkpt lat="40.09784" lon="-8.48958"><time>2022-02-26T16:00:40.000Z</time></trkpt><trkpt lat="40.09788" lon="-8.48971"><ele>108</ele><time>2022-02-26T16:00:50.000Z</time></trkpt><trkpt lat="40.0979" lon="-8.48978"><time>2022-02-26T16:01:00.000Z</time></trkpt><trkpt lat="40.09794" lon="-8.49019"><ele>103</ele><time>2022-02-26T16:00:43.000Z</time></trkpt><trkpt lat="40.09794" lon="-8.49035"><time>2022-02-26T16:00:53.000Z</time></trkpt><trkpt lat="40.09795" lon="-8.49043"><time>2022-02-26T16:01:03.000Z</time></trkpt><trkpt lat="40.09799" lon="-8.49059"><ele>99</ele><time>2022-02-26T16:00:58.000Z</time></trkpt><trkpt lat="40.09804" lon="-8.49076"><time>2022-02-26T16:01:08.000Z</time></trkpt><trkpt lat="40.09808" lon="-8.49093"><ele>101</ele><time>2022-02-26T16:01:10.000Z</time></trkpt><trkpt lat="40.09818" lon="-8.49113"><time>2022-02-26T16:01:20.000Z</time></trkpt><trkpt lat="40.09822" lon="-8.4912"><ele>98</ele><time>2022-02-26T16:01:30.000Z</time></trkpt><trkpt lat="40.09831" lon="-8.49132"><time>2022-02-26T16:01:40.000Z</time></trkpt><trkpt lat="40.0984" lon="-8.49154"><ele>103</ele><time>2022-02-26T16:01:50.000Z</time></trkpt><trkpt lat="40.09847" lon="-8.49166"><time>2022-02-26T16:02:00.000Z</time></trkpt><trkpt lat="40.09856" lon="-8.49178"><ele>104</ele><time>2022-02-26T16:02:10.000Z</time></trkpt><trkpt lat="40.09862" lon="-8.49183"><time>2022-02-26T16:02:20.000Z</time></trkpt><trkpt lat="40.09868" lon="-8.49186"><time>2022-02-26T16:02:30.000Z</time></trkpt><trkpt lat="40.09873" lon="-8.49186"><time>2022-02-26T16:02:40.000Z</time></trkpt><trkpt lat="40.09887" lon="-8.49188"><ele>106</ele><time>2022-02-26T16:02:50.000Z</time></trkpt><trkpt lat="40.09925" lon="-8.49194"><ele>105</ele><time>2022-02-26T16:03:00.000Z</time></trkpt><trkpt lat="40.09931" lon="-8.49196"><time>2022-02-26T16:03:10.000Z</time></trkpt><trkpt lat="40.09936" lon="-8.492"><time>2022-02-26T16:03:20.000Z</time></trkpt><trkpt lat="40.09941" lon="-8.49206"><time>2022-02-26T16:03:30.000Z</time></trkpt><trkpt lat="40.09948" lon="-8.4922"><ele>105</ele><time>2022-02-26T16:02:34.000Z</time></trkpt><trkpt lat="40.09966" lon="-8.49244"><ele>105</ele><time>2022-02-26T16:02:44.000Z</time></trkpt><trkpt lat="40.09972" lon="-8.49249"><time>2022-02-26T16:02:54.000Z</time></trkpt><trkpt lat="40.09975" lon="-8.49255"><time>2022-02-26T16:03:04.000Z</time></trkpt><trkpt lat="40.09977" lon="-8.49263"><time>2022-02-26T16:03:14.000Z</time></trkpt><trkpt lat="40.09977" lon="-8.49271"><ele>104</ele><time>2022-02-26T16:03:24.000Z</time></trkpt><trkpt lat="40.09976" lon="-8.49279"><time>2022-02-26T16:03:34.000Z</time></trkpt><trkpt lat="40.09974" lon="-8.49285"><time>2022-02-26T16:03:44.000Z</time></trkpt><trkpt lat="40.0997" lon="-8.49291"><time>2022-02-26T16:03:54.000Z</time></trkpt><trkpt lat="40.09964" lon="-8.49306"><ele>103</ele><time>2022-02-26T16:04:04.000Z</time></trkpt><trkpt lat="40.09963" lon="-8.49314"><time>2022-02-26T16:04:14.000Z</time></trkpt><trkpt lat="40.09964" lon="-8.49329"><time>2022-02-26T16:04:24.000Z</time></trkpt><trkpt lat="40.09966" lon="-8.49338"><ele>101</ele><time>2022-02-26T16:04:34.000Z</time></trkpt><trkpt lat="40.09972" lon="-8.49349"><time>2022-02-26T16:04:44.000Z</time></trkpt><trkpt lat="40.09977" lon="-8.49356"><time>2022-02-26T16:04:54.000Z</time></trkpt><trkpt lat="40.09987" lon="-8.49366"><ele>100</ele><time>2022-02-26T16:05:04.000Z</time></trkpt><trkpt lat="40.09993" lon="-8.4937"><time>2022-02-26T16:05:14.000Z</time></trkpt><trkpt lat="40.10001" lon="-8.49372"><time>2022-02-26T16:05:24.000Z</time></trkpt><trkpt lat="40.10006" lon="-8.49372"><time>2022-02-26T16:05:34.000Z</time></trkpt><trkpt lat="40.10011" lon="-8.49372"><ele>100</ele><time>2022-02-26T16:05:44.000Z</time></trkpt><trkpt lat="40.10018" lon="-8.49368"><time>2022-02-26T16:05:54.000Z</time></trkpt><trkpt lat="40.10029" lon="-8.49361"><time>2022-02-26T16:06:04.000Z</time></trkpt><trkpt lat="40.10036" lon="-8.4936"><ele>99</ele><time>2022-02-26T16:06:14.000Z</time></trkpt><trkpt lat="40.10041" lon="-8.49361"><time>2022-02-26T16:06:24.000Z</time></trkpt><trkpt lat="40.10045" lon="-8.49366"><time>2022-02-26T16:06:34.000Z</time></trkpt><trkpt lat="40.10065" lon="-8.49396"><ele>99</ele><time>2022-02-26T16:06:44.000Z</time></trkpt><trkpt lat="40.10075" lon="-8.49406"><time>2022-02-26T16:06:54.000Z</time></trkpt><trkpt lat="40.10086" lon="-8.49417"><ele>99</ele><time>2022-02-26T16:07:04.000Z</time></trkpt><trkpt lat="40.10097" lon="-8.49426"><time>2022-02-26T16:07:14.000Z</time></trkpt><trkpt lat="40.10102" lon="-8.49431"><time>2022-02-26T16:07:24.000Z</time></trkpt><trkpt lat="40.10109" lon="-8.49445"><ele>100</ele><time>2022-02-26T16:07:34.000Z</time></trkpt><trkpt lat="40.10111" lon="-8.49453"><time>2022-02-26T16:07:44.000Z</time></trkpt><trkpt lat="40.10112" lon="-8.49461"><time>2022-02-26T16:07:54.000Z</time></trkpt><trkpt lat="40.10113" lon="-8.49468"><time>2022-02-26T16:08:04.000Z</time></trkpt><trkpt lat="40.10118" lon="-8.4948"><ele>102</ele><time>2022-02-26T16:08:14.000Z</time></trkpt><trkpt lat="40.10126" lon="-8.4949"><time>2022-02-26T16:08:24.000Z</time></trkpt><trkpt lat="40.10139" lon="-8.49496"><ele>108</ele><time>2022-02-26T16:08:34.000Z</time></trkpt><trkpt lat="40.10146" lon="-8.49497"><time>2022-02-26T16:08:44.000Z</time></trkpt><trkpt lat="40.10153" lon="-8.49496"><time>2022-02-26T16:08:54.000Z</time></trkpt><trkpt lat="40.10159" lon="-8.49496"><time>2022-02-26T16:09:04.000Z</time></trkpt><trkpt lat="40.10172" lon="-8.49502"><ele>113</ele><time>2022-02-26T16:09:14.000Z</time></trkpt><trkpt lat="40.10178" lon="-8.49505"><time>2022-02-26T16:09:24.000Z</time></trkpt><trkpt lat="40.10205" lon="-8.49527"><ele>116</ele><time>2022-02-26T16:09:34.000Z</time></trkpt><trkpt lat="40.1021" lon="-8.49529"><time>2022-02-26T16:09:44.000Z</time></trkpt><trkpt lat="40.10216" lon="-8.49531"><time>2022-02-26T16:09:54.000Z</time></trkpt><trkpt lat="40.10234" lon="-8.49533"><ele>114</ele><time>2022-02-26T16:10:04.000Z</time></trkpt><trkpt lat="40.10241" lon="-8.49534"><time>2022-02-26T16:10:14.000Z</time></trkpt><trkpt lat="40.10246" lon="-8.49538"><time>2022-02-26T16:10:24.000Z</time></trkpt><trkpt lat="40.10265" lon="-8.49562"><ele>113</ele><time>2022-02-26T16:10:34.000Z</time></trkpt><trkpt lat="40.10273" lon="-8.49572"><time>2022-02-26T16:10:44.000Z</time></trkpt><trkpt lat="40.10282" lon="-8.49583"><ele>113</ele><time>2022-02-26T16:10:54.000Z</time></trkpt><trkpt lat="40.10297" lon="-8.49598"><time>2022-02-26T16:11:04.000Z</time></trkpt><trkpt lat="40.10311" lon="-8.49608"><ele>113</ele><time>2022-02-26T16:11:14.000Z</time></trkpt><trkpt lat="40.10317" lon="-8.49611"><time>2022-02-26T16:11:24.000Z</time></trkpt><trkpt lat="40.10331" lon="-8.49616"><ele>114</ele><time>2022-02-26T16:11:34.000Z</time></trkpt><trkpt lat="40.1035" lon="-8.4962"><time>2022-02-26T16:11:44.000Z</time></trkpt><trkpt lat="40.10364" lon="-8.49622"><ele>114</ele><time>2022-02-26T16:11:54.000Z</time></trkpt><trkpt lat="40.10379" lon="-8.4962"><time>2022-02-26T16:12:04.000Z</time></trkpt><trkpt lat="40.10385" lon="-8.4962"><ele>111</ele><time>2022-02-26T16:12:14.000Z</time></trkpt><trkpt lat="40.10397" lon="-8.49617"><time>2022-02-26T16:12:24.000Z</time></trkpt><trkpt lat="40.10403" lon="-8.49618"><time>2022-02-26T16:12:34.000Z</time></trkpt><trkpt lat="40.10416" lon="-8.49623"><ele>111</ele><time>2022-02-26T16:12:44.000Z</time></trkpt><trkpt lat="40.10424" lon="-8.49622"><time>2022-02-26T16:12:54.000Z</time></trkpt><trkpt lat="40.1043" lon="-8.4962"><time>2022-02-26T16:13:04.000Z</time></trkpt><trkpt lat="40.10447" lon="-8.49612"><ele>110</ele><time>2022-02-26T16:13:14.000Z</time></trkpt><trkpt lat="40.1046" lon="-8.49605"><time>2022-02-26T16:13:24.000Z</time></trkpt><trkpt lat="40.10465" lon="-8.496"><time>2022-02-26T16:13:34.000Z</time></trkpt><trkpt lat="40.10474" lon="-8.49588"><ele>109</ele><time>2022-02-26T16:13:44.000Z</time></trkpt><trkpt lat="40.10479" lon="-8.49583"><time>2022-02-26T16:13:54.000Z</time></trkpt><trkpt lat="40.10484" lon="-8.49581"><time>2022-02-26T16:14:04.000Z</time></trkpt><trkpt lat="40.1049" lon="-8.49582"><time>2022-02-26T16:14:14.000Z</time></trkpt><trkpt lat="40.10496" lon="-8.49584"><ele>100</ele><time>2022-02-26T16:14:24.000Z</time></trkpt><trkpt lat="40.10502" lon="-8.49587"><time>2022-02-26T16:14:34.000Z</time></trkpt><trkpt lat="40.10508" lon="-8.49592"><time>2022-02-26T16:14:44.000Z</time></trkpt><trkpt lat="40.10514" lon="-8.49596"><time>2022-02-26T16:14:54.000Z</time></trkpt><trkpt lat="40.10538" lon="-8.49581"><ele>92</ele><time>2022-02-26T16:15:04.000Z</time></trkpt><trkpt lat="40.10543" lon="-8.49586"><time>2022-02-26T16:15:14.000Z</time></trkpt><trkpt lat="40.10546" lon="-8.49592"><time>2022-02-26T16:15:24.000Z</time></trkpt><trkpt lat="40.1055" lon="-8.49601"><time>2022-02-26T16:15:34.000Z</time></trkpt><trkpt lat="40.10559" lon="-8.49625"><ele>93</ele><time>2022-02-26T16:08:56.000Z</time></trkpt><trkpt lat="40.10573" lon="-8.49673"><ele>91</ele><time>2022-02-26T16:09:14.000Z</time></trkpt><trkpt lat="40.10577" lon="-8.4969"><time>2022-02-26T16:09:24.000Z</time></trkpt><trkpt lat="40.10582" lon="-8.49706"><ele>89</ele><time>2022-02-26T16:09:26.000Z</time></trkpt><trkpt lat="40.10599" lon="-8.49765"><ele>89</ele><time>2022-02-26T16:09:47.000Z</time></trkpt><trkpt lat="40.10604" lon="-8.49771"><time>2022-02-26T16:09:57.000Z</time></trkpt><trkpt lat="40.10609" lon="-8.49776"><time>2022-02-26T16:10:07.000Z</time></trkpt><trkpt lat="40.10615" lon="-8.49778"><time>2022-02-26T16:10:17.000Z</time></trkpt><trkpt lat="40.10622" lon="-8.4978"><ele>89</ele><time>2022-02-26T16:09:59.000Z</time></trkpt><trkpt lat="40.10644" lon="-8.49792"><ele>89</ele><time>2022-02-26T16:10:09.000Z</time></trkpt><trkpt lat="40.10656" lon="-8.49797"><time>2022-02-26T16:10:19.000Z</time></trkpt><trkpt lat="40.10662" lon="-8.49798"><time>2022-02-26T16:10:29.000Z</time></trkpt><trkpt lat="40.10683" lon="-8.49801"><ele>89</ele><time>2022-02-26T16:10:39.000Z</time></trkpt><trkpt lat="40.10696" lon="-8.49802"><time>2022-02-26T16:10:49.000Z</time></trkpt><trkpt lat="40.10701" lon="-8.49803"><time>2022-02-26T16:10:59.000Z</time></trkpt><trkpt lat="40.1072" lon="-8.49809"><ele>90</ele><time>2022-02-26T16:11:09.000Z</time></trkpt><trkpt lat="40.10727" lon="-8.49811"><time>2022-02-26T16:11:19.000Z</time></trkpt><trkpt lat="40.10739" lon="-8.49812"><time>2022-02-26T16:11:29.000Z</time></trkpt><trkpt lat="40.10745" lon="-8.49814"><ele>94</ele><time>2022-02-26T16:11:39.000Z</time></trkpt><trkpt lat="40.1075" lon="-8.49818"><time>2022-02-26T16:11:49.000Z</time></trkpt><trkpt lat="40.10754" lon="-8.49825"><time>2022-02-26T16:11:59.000Z</time></trkpt><trkpt lat="40.10762" lon="-8.49842"><ele>94</ele><time>2022-02-26T16:12:09.000Z</time></trkpt><trkpt lat="40.10769" lon="-8.49862"><time>2022-02-26T16:12:19.000Z</time></trkpt><trkpt lat="40.10776" lon="-8.49874"><ele>94</ele><time>2022-02-26T16:12:29.000Z</time></trkpt><trkpt lat="40.10784" lon="-8.49884"><time>2022-02-26T16:12:39.000Z</time></trkpt><trkpt lat="40.1079" lon="-8.49887"><time>2022-02-26T16:12:49.000Z</time></trkpt><trkpt lat="40.108" lon="-8.49889"><ele>94</ele><time>2022-02-26T16:12:59.000Z</time></trkpt><trkpt lat="40.10806" lon="-8.49891"><time>2022-02-26T16:13:09.000Z</time></trkpt><trkpt lat="40.10823" lon="-8.49901"><ele>94</ele><time>2022-02-26T16:13:19.000Z</time></trkpt><trkpt lat="40.10839" lon="-8.49912"><time>2022-02-26T16:13:29.000Z</time></trkpt><trkpt lat="40.10844" lon="-8.49914"><ele>94</ele><time>2022-02-26T16:13:39.000Z</time></trkpt><trkpt lat="40.1085" lon="-8.49915"><time>2022-02-26T16:13:49.000Z</time></trkpt><trkpt lat="40.10856" lon="-8.49913"><time>2022-02-26T16:13:59.000Z</time></trkpt><trkpt lat="40.10862" lon="-8.49911"><time>2022-02-26T16:14:09.000Z</time></trkpt><trkpt lat="40.10931" lon="-8.49859"><ele>85</ele><time>2022-02-26T16:14:19.000Z</time></trkpt><trkpt lat="40.10958" lon="-8.49842"><ele>87</ele><time>2022-02-26T16:14:29.000Z</time></trkpt><trkpt lat="40.10968" lon="-8.49838"><time>2022-02-26T16:14:39.000Z</time></trkpt><trkpt lat="40.11006" lon="-8.49834"><ele>88</ele><time>2010-01-01T02:30:34.000Z</time></trkpt><trkpt lat="40.11027" lon="-8.49835"><ele>84</ele><time>2010-01-01T02:30:42.000Z</time></trkpt><trkpt lat="40.11056" lon="-8.49843"><ele>80</ele><time>2010-01-01T02:30:52.000Z</time></trkpt><trkpt lat="40.11069" lon="-8.49852"><time>2010-01-01T02:31:02.000Z</time></trkpt><trkpt lat="40.11089" lon="-8.49871"><ele>80</ele><time>2010-01-01T02:31:10.000Z</time></trkpt><trkpt lat="40.11114" lon="-8.49882"><ele>80</ele><time>2010-01-01T02:31:20.000Z</time></trkpt><trkpt lat="40.11142" lon="-8.49893"><ele>81</ele><time>2010-01-01T02:31:30.000Z</time></trkpt><trkpt lat="40.11148" lon="-8.49894"><time>2010-01-01T02:31:40.000Z</time></trkpt><trkpt lat="40.11176" lon="-8.49884"><ele>82</ele><time>2010-01-01T02:31:50.000Z</time></trkpt><trkpt lat="40.1118" lon="-8.4988"><time>2010-01-01T02:32:00.000Z</time></trkpt><trkpt lat="40.11184" lon="-8.49882"><time>2010-01-01T02:32:10.000Z</time></trkpt><trkpt lat="40.11192" lon="-8.49883"><time>2010-01-01T02:32:20.000Z</time></trkpt><trkpt lat="40.11207" lon="-8.49892"><ele>82</ele><time>2010-01-01T02:32:00.000Z</time></trkpt><trkpt lat="40.11233" lon="-8.499"><ele>81</ele><time>2010-01-01T02:32:10.000Z</time></trkpt><trkpt lat="40.11243" lon="-8.49901"><time>2010-01-01T02:32:20.000Z</time></trkpt><trkpt lat="40.11249" lon="-8.49903"><time>2010-01-01T02:32:30.000Z</time></trkpt><trkpt lat="40.11254" lon="-8.499"><ele>81</ele><time>2010-01-01T02:32:40.000Z</time></trkpt><trkpt lat="40.11258" lon="-8.49893"><time>2010-01-01T02:32:50.000Z</time></trkpt><trkpt lat="40.1126" lon="-8.49886"><time>2010-01-01T02:33:00.000Z</time></trkpt><trkpt lat="40.11264" lon="-8.4988"><time>2010-01-01T02:33:10.000Z</time></trkpt><trkpt lat="40.1129" lon="-8.49879"><ele>81</ele><time>2010-01-01T02:32:37.000Z</time></trkpt><trkpt lat="40.11297" lon="-8.49871"><time>2010-01-01T02:32:47.000Z</time></trkpt><trkpt lat="40.11302" lon="-8.49868"><time>2010-01-01T02:32:57.000Z</time></trkpt><trkpt lat="40.11311" lon="-8.49866"><ele>81</ele><time>2010-01-01T02:32:46.000Z</time></trkpt><trkpt lat="40.11328" lon="-8.49868"><time>2010-01-01T02:32:56.000Z</time></trkpt><trkpt lat="40.11336" lon="-8.49867"><ele>83</ele><time>2010-01-01T02:32:56.000Z</time></trkpt><trkpt lat="40.11357" lon="-8.49857"><ele>91</ele><time>2010-01-01T02:33:06.000Z</time></trkpt><trkpt lat="40.11367" lon="-8.49856"><time>2010-01-01T02:33:16.000Z</time></trkpt><trkpt lat="40.11369" lon="-8.49851"><time>2010-01-01T02:33:26.000Z</time></trkpt><trkpt lat="40.11367" lon="-8.49856"><time>2010-01-01T02:33:36.000Z</time></trkpt><trkpt lat="40.11369" lon="-8.49851"><ele>91</ele><time>2010-01-01T02:33:46.000Z</time></trkpt></trkseg></trk></gpx>